<?xml version='1.0' encoding='UTF-8'?><gpx version="1.1" creator="JPX - https://github.com/jenetics/jpx" xmlns="http://www.topografix.com/GPX/1/1"><trk><trkseg><trkpt lat="45.0893433" lon="11.7857104"><ele>2.0</ele><time>2026-04-11T07:31:05.938Z</time></trkpt><trkpt lat="45.0893507" lon="11.7856212"><ele>2.0</ele><time>2026-04-11T07:32:11.938Z</time></trkpt></trkseg><trkseg><trkpt lat="45.0893744" lon="11.7854839"><ele>2.0</ele><time>2026-04-11T08:02:29.938Z</time></trkpt><trkpt lat="45.0894815" lon="11.7854453"><ele>2.0</ele><time>2026-04-11T08:02:31.938Z</time></trkpt><trkpt lat="45.0895657" lon="11.7854438"><ele>2.0</ele><time>2026-04-11T08:02:32.937Z</time></trkpt><trkpt lat="45.0896682" lon="11.7854512"><ele>2.0</ele><time>2026-04-11T08:02:33.938Z</time></trkpt><trkpt lat="45.0897795" lon="11.7854533"><ele>2.0</ele><time>2026-04-11T08:02:34.938Z</time></trkpt><trkpt lat="45.0899061" lon="11.7854511"><ele>1.75</ele><time>2026-04-11T08:02:35.938Z</time></trkpt><trkpt lat="45.0900287" lon="11.7854309"><ele>1.5</ele><time>2026-04-11T08:02:36.938Z</time></trkpt><trkpt lat="45.0901563" lon="11.7854388"><ele>1.25</ele><time>2026-04-11T08:02:37.938Z</time></trkpt><trkpt lat="45.0902691" lon="11.7854436"><ele>1.0</ele><time>2026-04-11T08:02:38.938Z</time></trkpt><trkpt lat="45.0903793" lon="11.7854378"><ele>1.0</ele><time>2026-04-11T08:02:39.938Z</time></trkpt><trkpt lat="45.0904962" lon="11.7854427"><ele>1.0</ele><time>2026-04-11T08:02:40.938Z</time></trkpt><trkpt lat="45.0906143" lon="11.7854482"><ele>1.0</ele><time>2026-04-11T08:02:41.938Z</time></trkpt><trkpt lat="45.090737" lon="11.785449"><ele>1.0</ele><time>2026-04-11T08:02:42.938Z</time></trkpt><trkpt lat="45.090862" lon="11.785457"><ele>1.25</ele><time>2026-04-11T08:02:43.938Z</time></trkpt><trkpt lat="45.0909887" lon="11.7854681"><ele>1.5</ele><time>2026-04-11T08:02:44.938Z</time></trkpt><trkpt lat="45.0911185" lon="11.7854672"><ele>1.75</ele><time>2026-04-11T08:02:45.938Z</time></trkpt><trkpt lat="45.0912531" lon="11.7854672"><ele>2.0</ele><time>2026-04-11T08:02:46.938Z</time></trkpt><trkpt lat="45.0913888" lon="11.7854697"><ele>2.0</ele><time>2026-04-11T08:02:47.938Z</time></trkpt><trkpt lat="45.0915246" lon="11.7854708"><ele>2.0</ele><time>2026-04-11T08:02:48.938Z</time></trkpt><trkpt lat="45.0916618" lon="11.7854725"><ele>2.0</ele><time>2026-04-11T08:02:49.938Z</time></trkpt><trkpt lat="45.0917999" lon="11.7854768"><ele>2.0</ele><time>2026-04-11T08:02:50.938Z</time></trkpt><trkpt lat="45.0919432" lon="11.785479"><ele>2.0</ele><time>2026-04-11T08:02:51.938Z</time></trkpt><trkpt lat="45.0920888" lon="11.7854861"><ele>2.0</ele><time>2026-04-11T08:02:52.938Z</time></trkpt><trkpt lat="45.0922374" lon="11.7854838"><ele>2.0</ele><time>2026-04-11T08:02:53.938Z</time></trkpt><trkpt lat="45.0923846" lon="11.7854867"><ele>2.0</ele><time>2026-04-11T08:02:54.937Z</time></trkpt><trkpt lat="45.0925348" lon="11.7854853"><ele>1.3333333333333333</ele><time>2026-04-11T08:02:55.938Z</time></trkpt><trkpt lat="45.0926853" lon="11.7854839"><ele>0.6666666666666666</ele><time>2026-04-11T08:02:56.938Z</time></trkpt><trkpt lat="45.0928406" lon="11.7854856"><ele>0.0</ele><time>2026-04-11T08:02:57.938Z</time></trkpt><trkpt lat="45.0929951" lon="11.7854862"><ele>0.0</ele><time>2026-04-11T08:02:58.937Z</time></trkpt><trkpt lat="45.0931588" lon="11.7854827"><ele>0.0</ele><time>2026-04-11T08:02:59.938Z</time></trkpt><trkpt lat="45.0933164" lon="11.7854834"><ele>0.0</ele><time>2026-04-11T08:03:00.937Z</time></trkpt><trkpt lat="45.093475" lon="11.7854836"><ele>0.3333333333333333</ele><time>2026-04-11T08:03:01.938Z</time></trkpt><trkpt lat="45.0936375" lon="11.7854816"><ele>0.6666666666666666</ele><time>2026-04-11T08:03:02.938Z</time></trkpt><trkpt lat="45.0938073" lon="11.7854792"><ele>1.0</ele><time>2026-04-11T08:03:03.938Z</time></trkpt><trkpt lat="45.0939764" lon="11.7854789"><ele>0.3333333333333333</ele><time>2026-04-11T08:03:04.938Z</time></trkpt><trkpt lat="45.0941428" lon="11.7854842"><ele>-0.3333333333333333</ele><time>2026-04-11T08:03:05.937Z</time></trkpt><trkpt lat="45.094303" lon="11.7854893"><ele>-1.0</ele><time>2026-04-11T08:03:06.938Z</time></trkpt><trkpt lat="45.0944584" lon="11.7854958"><ele>-1.0</ele><time>2026-04-11T08:03:07.938Z</time></trkpt><trkpt lat="45.0946138" lon="11.7854987"><ele>-1.0</ele><time>2026-04-11T08:03:08.938Z</time></trkpt><trkpt lat="45.0947755" lon="11.7855049"><ele>-1.0</ele><time>2026-04-11T08:03:09.938Z</time></trkpt><trkpt lat="45.0949366" lon="11.7855078"><ele>-0.6666666666666666</ele><time>2026-04-11T08:03:10.938Z</time></trkpt><trkpt lat="45.0950945" lon="11.7855103"><ele>-0.3333333333333333</ele><time>2026-04-11T08:03:11.937Z</time></trkpt><trkpt lat="45.0952542" lon="11.7855059"><ele>0.0</ele><time>2026-04-11T08:03:12.938Z</time></trkpt><trkpt lat="45.0954151" lon="11.7855073"><ele>0.0</ele><time>2026-04-11T08:03:13.937Z</time></trkpt><trkpt lat="45.0955789" lon="11.7855057"><ele>0.0</ele><time>2026-04-11T08:03:14.938Z</time></trkpt><trkpt lat="45.0957407" lon="11.7855094"><ele>0.0</ele><time>2026-04-11T08:03:15.938Z</time></trkpt><trkpt lat="45.0958876" lon="11.7855144"><ele>0.5</ele><time>2026-04-11T08:03:16.938Z</time></trkpt><trkpt lat="45.096027" lon="11.7855105"><ele>1.0</ele><time>2026-04-11T08:03:17.938Z</time></trkpt><trkpt lat="45.0961617" lon="11.7855123"><ele>1.5</ele><time>2026-04-11T08:03:18.938Z</time></trkpt><trkpt lat="45.0962923" lon="11.7855122"><ele>2.0</ele><time>2026-04-11T08:03:19.938Z</time></trkpt><trkpt lat="45.0964169" lon="11.7855089"><ele>2.0</ele><time>2026-04-11T08:03:20.938Z</time></trkpt><trkpt lat="45.0965443" lon="11.7855084"><ele>2.0</ele><time>2026-04-11T08:03:21.938Z</time></trkpt><trkpt lat="45.0966804" lon="11.7855072"><ele>2.0</ele><time>2026-04-11T08:03:22.938Z</time></trkpt><trkpt lat="45.0968178" lon="11.7855111"><ele>2.0</ele><time>2026-04-11T08:03:23.938Z</time></trkpt><trkpt lat="45.0969597" lon="11.785513"><ele>1.75</ele><time>2026-04-11T08:03:24.938Z</time></trkpt><trkpt lat="45.0970998" lon="11.7855136"><ele>1.5</ele><time>2026-04-11T08:03:25.938Z</time></trkpt><trkpt lat="45.0972384" lon="11.7855178"><ele>1.25</ele><time>2026-04-11T08:03:26.938Z</time></trkpt><trkpt lat="45.0973695" lon="11.7855188"><ele>1.0</ele><time>2026-04-11T08:03:27.938Z</time></trkpt><trkpt lat="45.0974918" lon="11.7855234"><ele>1.0</ele><time>2026-04-11T08:03:28.938Z</time></trkpt><trkpt lat="45.097604" lon="11.7855319"><ele>1.0</ele><time>2026-04-11T08:03:29.938Z</time></trkpt><trkpt lat="45.0977242" lon="11.7855355"><ele>1.0</ele><time>2026-04-11T08:03:30.937Z</time></trkpt><trkpt lat="45.0978509" lon="11.7855449"><ele>1.0</ele><time>2026-04-11T08:03:31.938Z</time></trkpt><trkpt lat="45.097981" lon="11.7855465"><ele>1.0</ele><time>2026-04-11T08:03:32.938Z</time></trkpt><trkpt lat="45.0981303" lon="11.7855505"><ele>1.0</ele><time>2026-04-11T08:03:33.938Z</time></trkpt><trkpt lat="45.0982749" lon="11.785548"><ele>1.0</ele><time>2026-04-11T08:03:34.938Z</time></trkpt><trkpt lat="45.0984266" lon="11.7855465"><ele>1.0</ele><time>2026-04-11T08:03:35.938Z</time></trkpt><trkpt lat="45.0985707" lon="11.7855478"><ele>1.0</ele><time>2026-04-11T08:03:36.938Z</time></trkpt><trkpt lat="45.0987174" lon="11.7855509"><ele>1.0</ele><time>2026-04-11T08:03:37.938Z</time></trkpt><trkpt lat="45.0988601" lon="11.7855516"><ele>1.0</ele><time>2026-04-11T08:03:38.938Z</time></trkpt><trkpt lat="45.0990093" lon="11.785551"><ele>1.0</ele><time>2026-04-11T08:03:39.938Z</time></trkpt><trkpt lat="45.0991558" lon="11.7855483"><ele>1.0</ele><time>2026-04-11T08:03:40.938Z</time></trkpt><trkpt lat="45.0992998" lon="11.7855567"><ele>1.0</ele><time>2026-04-11T08:03:41.938Z</time></trkpt><trkpt lat="45.0994459" lon="11.7855603"><ele>1.0</ele><time>2026-04-11T08:03:42.937Z</time></trkpt><trkpt lat="45.0995943" lon="11.7855636"><ele>1.0</ele><time>2026-04-11T08:03:43.938Z</time></trkpt><trkpt lat="45.0997404" lon="11.785561"><ele>1.0</ele><time>2026-04-11T08:03:44.937Z</time></trkpt><trkpt lat="45.0998848" lon="11.7855588"><ele>1.0</ele><time>2026-04-11T08:03:45.938Z</time></trkpt><trkpt lat="45.1000285" lon="11.7855663"><ele>1.0</ele><time>2026-04-11T08:03:46.938Z</time></trkpt><trkpt lat="45.1001708" lon="11.7855709"><ele>1.0</ele><time>2026-04-11T08:03:47.938Z</time></trkpt><trkpt lat="45.1003107" lon="11.7855702"><ele>1.0</ele><time>2026-04-11T08:03:48.938Z</time></trkpt><trkpt lat="45.1004502" lon="11.7855729"><ele>1.0</ele><time>2026-04-11T08:03:49.938Z</time></trkpt><trkpt lat="45.1005917" lon="11.7855771"><ele>1.0</ele><time>2026-04-11T08:03:50.938Z</time></trkpt><trkpt lat="45.1007303" lon="11.7855795"><ele>1.0</ele><time>2026-04-11T08:03:51.938Z</time></trkpt><trkpt lat="45.1008677" lon="11.7855855"><ele>1.0</ele><time>2026-04-11T08:03:52.938Z</time></trkpt><trkpt lat="45.1010094" lon="11.7855885"><ele>1.0</ele><time>2026-04-11T08:03:53.938Z</time></trkpt><trkpt lat="45.1011493" lon="11.785589"><ele>1.0</ele><time>2026-04-11T08:03:54.938Z</time></trkpt><trkpt lat="45.1012911" lon="11.7855873"><ele>1.0</ele><time>2026-04-11T08:03:55.938Z</time></trkpt><trkpt lat="45.1014287" lon="11.7855864"><ele>1.0</ele><time>2026-04-11T08:03:56.938Z</time></trkpt><trkpt lat="45.1015748" lon="11.7855864"><ele>1.0</ele><time>2026-04-11T08:03:57.938Z</time></trkpt><trkpt lat="45.1017206" lon="11.785587"><ele>1.0</ele><time>2026-04-11T08:03:58.938Z</time></trkpt><trkpt lat="45.1018607" lon="11.7855825"><ele>1.0</ele><time>2026-04-11T08:03:59.938Z</time></trkpt><trkpt lat="45.1020077" lon="11.785587"><ele>1.25</ele><time>2026-04-11T08:04:00.938Z</time></trkpt><trkpt lat="45.1021526" lon="11.7855893"><ele>1.5</ele><time>2026-04-11T08:04:01.938Z</time></trkpt><trkpt lat="45.1022975" lon="11.7855801"><ele>1.75</ele><time>2026-04-11T08:04:02.938Z</time></trkpt><trkpt lat="45.1024455" lon="11.7855789"><ele>2.0</ele><time>2026-04-11T08:04:03.938Z</time></trkpt><trkpt lat="45.1025918" lon="11.7855757"><ele>2.5</ele><time>2026-04-11T08:04:04.938Z</time></trkpt><trkpt lat="45.1027377" lon="11.7855822"><ele>3.0</ele><time>2026-04-11T08:04:05.937Z</time></trkpt><trkpt lat="45.1028865" lon="11.7855874"><ele>3.5</ele><time>2026-04-11T08:04:06.938Z</time></trkpt><trkpt lat="45.1030345" lon="11.78559"><ele>4.0</ele><time>2026-04-11T08:04:07.938Z</time></trkpt><trkpt lat="45.1031782" lon="11.7855923"><ele>4.0</ele><time>2026-04-11T08:04:08.938Z</time></trkpt><trkpt lat="45.1033237" lon="11.785588"><ele>4.0</ele><time>2026-04-11T08:04:09.938Z</time></trkpt><trkpt lat="45.1034655" lon="11.7855857"><ele>4.0</ele><time>2026-04-11T08:04:10.938Z</time></trkpt><trkpt lat="45.1035977" lon="11.7855699"><ele>4.0</ele><time>2026-04-11T08:04:11.938Z</time></trkpt><trkpt lat="45.1037145" lon="11.7855467"><ele>4.0</ele><time>2026-04-11T08:04:12.938Z</time></trkpt><trkpt lat="45.1038186" lon="11.7855222"><ele>4.0</ele><time>2026-04-11T08:04:13.938Z</time></trkpt><trkpt lat="45.1039155" lon="11.7854933"><ele>4.0</ele><time>2026-04-11T08:04:14.938Z</time></trkpt><trkpt lat="45.1039984" lon="11.7854756"><ele>4.0</ele><time>2026-04-11T08:04:15.938Z</time></trkpt><trkpt lat="45.1040751" lon="11.7854552"><ele>4.0</ele><time>2026-04-11T08:04:16.938Z</time></trkpt><trkpt lat="45.1041729" lon="11.7854283"><ele>4.166666666666666</ele><time>2026-04-11T08:04:18.938Z</time></trkpt><trkpt lat="45.1042484" lon="11.785397"><ele>4.333333333333333</ele><time>2026-04-11T08:04:21.938Z</time></trkpt><trkpt lat="45.1043089" lon="11.7853691"><ele>4.5</ele><time>2026-04-11T08:04:22.938Z</time></trkpt><trkpt lat="45.1043754" lon="11.7853272"><ele>4.666666666666667</ele><time>2026-04-11T08:04:23.938Z</time></trkpt><trkpt lat="45.104432" lon="11.7852847"><ele>4.833333333333334</ele><time>2026-04-11T08:04:24.938Z</time></trkpt><trkpt lat="45.1045343" lon="11.7852305"><ele>5.0</ele><time>2026-04-11T08:04:26.938Z</time></trkpt><trkpt lat="45.1046026" lon="11.7851617"><ele>5.0</ele><time>2026-04-11T08:04:28.938Z</time></trkpt><trkpt lat="45.1046551" lon="11.7851048"><ele>5.0</ele><time>2026-04-11T08:04:29.938Z</time></trkpt><trkpt lat="45.104735" lon="11.7850343"><ele>5.0</ele><time>2026-04-11T08:04:30.938Z</time></trkpt><trkpt lat="45.1048064" lon="11.7849507"><ele>5.0</ele><time>2026-04-11T08:04:31.938Z</time></trkpt><trkpt lat="45.1048843" lon="11.7848632"><ele>5.0</ele><time>2026-04-11T08:04:32.938Z</time></trkpt><trkpt lat="45.1049582" lon="11.7847767"><ele>5.0</ele><time>2026-04-11T08:04:33.938Z</time></trkpt><trkpt lat="45.1050397" lon="11.7846792"><ele>5.6</ele><time>2026-04-11T08:04:34.938Z</time></trkpt><trkpt lat="45.1051213" lon="11.7845797"><ele>6.2</ele><time>2026-04-11T08:04:35.938Z</time></trkpt><trkpt lat="45.1052045" lon="11.784493"><ele>6.800000000000001</ele><time>2026-04-11T08:04:36.938Z</time></trkpt><trkpt lat="45.1052823" lon="11.7843976"><ele>7.4</ele><time>2026-04-11T08:04:37.938Z</time></trkpt><trkpt lat="45.1053524" lon="11.784309"><ele>8.0</ele><time>2026-04-11T08:04:38.937Z</time></trkpt><trkpt lat="45.1054275" lon="11.7842281"><ele>8.0</ele><time>2026-04-11T08:04:39.938Z</time></trkpt><trkpt lat="45.1055013" lon="11.784145"><ele>8.0</ele><time>2026-04-11T08:04:40.938Z</time></trkpt><trkpt lat="45.1055811" lon="11.7840601"><ele>8.0</ele><time>2026-04-11T08:04:41.938Z</time></trkpt><trkpt lat="45.1056537" lon="11.7839739"><ele>8.0</ele><time>2026-04-11T08:04:42.938Z</time></trkpt><trkpt lat="45.1057335" lon="11.7838944"><ele>8.0</ele><time>2026-04-11T08:04:43.938Z</time></trkpt><trkpt lat="45.1058148" lon="11.7838105"><ele>8.0</ele><time>2026-04-11T08:04:44.938Z</time></trkpt><trkpt lat="45.1058984" lon="11.7837193"><ele>8.0</ele><time>2026-04-11T08:04:45.938Z</time></trkpt><trkpt lat="45.1059772" lon="11.7836478"><ele>8.0</ele><time>2026-04-11T08:04:46.938Z</time></trkpt><trkpt lat="45.1060593" lon="11.7835566"><ele>8.0</ele><time>2026-04-11T08:04:47.938Z</time></trkpt><trkpt lat="45.1061415" lon="11.783462"><ele>8.0</ele><time>2026-04-11T08:04:48.938Z</time></trkpt><trkpt lat="45.1062312" lon="11.7833635"><ele>8.0</ele><time>2026-04-11T08:04:49.938Z</time></trkpt><trkpt lat="45.1063196" lon="11.7832582"><ele>8.0</ele><time>2026-04-11T08:04:50.938Z</time></trkpt><trkpt lat="45.1064189" lon="11.7831515"><ele>8.0</ele><time>2026-04-11T08:04:51.938Z</time></trkpt><trkpt lat="45.1065082" lon="11.7830475"><ele>8.0</ele><time>2026-04-11T08:04:52.938Z</time></trkpt><trkpt lat="45.1065909" lon="11.7829376"><ele>8.0</ele><time>2026-04-11T08:04:53.938Z</time></trkpt><trkpt lat="45.1066751" lon="11.7828339"><ele>8.0</ele><time>2026-04-11T08:04:54.938Z</time></trkpt><trkpt lat="45.1067719" lon="11.7827268"><ele>8.0</ele><time>2026-04-11T08:04:55.938Z</time></trkpt><trkpt lat="45.1068673" lon="11.7826087"><ele>8.0</ele><time>2026-04-11T08:04:56.938Z</time></trkpt><trkpt lat="45.1069689" lon="11.7824953"><ele>8.0</ele><time>2026-04-11T08:04:57.938Z</time></trkpt><trkpt lat="45.1070653" lon="11.7823785"><ele>8.0</ele><time>2026-04-11T08:04:58.938Z</time></trkpt><trkpt lat="45.1071711" lon="11.7822568"><ele>8.0</ele><time>2026-04-11T08:04:59.938Z</time></trkpt><trkpt lat="45.1072812" lon="11.7821389"><ele>8.0</ele><time>2026-04-11T08:05:00.938Z</time></trkpt><trkpt lat="45.107381" lon="11.7820113"><ele>7.25</ele><time>2026-04-11T08:05:01.938Z</time></trkpt><trkpt lat="45.1074899" lon="11.7818867"><ele>6.5</ele><time>2026-04-11T08:05:02.938Z</time></trkpt><trkpt lat="45.1076062" lon="11.7817761"><ele>5.75</ele><time>2026-04-11T08:05:03.938Z</time></trkpt><trkpt lat="45.1077257" lon="11.7816695"><ele>5.0</ele><time>2026-04-11T08:05:04.938Z</time></trkpt><trkpt lat="45.1078456" lon="11.781559"><ele>4.75</ele><time>2026-04-11T08:05:05.937Z</time></trkpt><trkpt lat="45.1079634" lon="11.781438"><ele>4.5</ele><time>2026-04-11T08:05:06.937Z</time></trkpt><trkpt lat="45.1080854" lon="11.7813179"><ele>4.25</ele><time>2026-04-11T08:05:07.938Z</time></trkpt><trkpt lat="45.1082076" lon="11.7812123"><ele>4.0</ele><time>2026-04-11T08:05:08.938Z</time></trkpt><trkpt lat="45.1083249" lon="11.7810978"><ele>4.0</ele><time>2026-04-11T08:05:09.938Z</time></trkpt><trkpt lat="45.1084446" lon="11.7809892"><ele>4.0</ele><time>2026-04-11T08:05:10.938Z</time></trkpt><trkpt lat="45.1085559" lon="11.7808785"><ele>4.0</ele><time>2026-04-11T08:05:11.938Z</time></trkpt><trkpt lat="45.1086727" lon="11.7807682"><ele>4.0</ele><time>2026-04-11T08:05:12.938Z</time></trkpt><trkpt lat="45.1087929" lon="11.7806671"><ele>4.0</ele><time>2026-04-11T08:05:13.938Z</time></trkpt><trkpt lat="45.1089109" lon="11.7805534"><ele>4.0</ele><time>2026-04-11T08:05:14.938Z</time></trkpt><trkpt lat="45.1090237" lon="11.7804356"><ele>4.0</ele><time>2026-04-11T08:05:15.937Z</time></trkpt><trkpt lat="45.1091265" lon="11.7803164"><ele>4.0</ele><time>2026-04-11T08:05:16.938Z</time></trkpt><trkpt lat="45.1092424" lon="11.780196"><ele>4.25</ele><time>2026-04-11T08:05:17.938Z</time></trkpt><trkpt lat="45.1093504" lon="11.7800849"><ele>4.5</ele><time>2026-04-11T08:05:18.938Z</time></trkpt><trkpt lat="45.1094629" lon="11.7799731"><ele>4.75</ele><time>2026-04-11T08:05:19.938Z</time></trkpt><trkpt lat="45.1095816" lon="11.7798595"><ele>5.0</ele><time>2026-04-11T08:05:20.938Z</time></trkpt><trkpt lat="45.109698" lon="11.7797434"><ele>5.0</ele><time>2026-04-11T08:05:21.938Z</time></trkpt><trkpt lat="45.109812" lon="11.779624"><ele>5.0</ele><time>2026-04-11T08:05:22.938Z</time></trkpt><trkpt lat="45.1099321" lon="11.7795201"><ele>5.0</ele><time>2026-04-11T08:05:23.938Z</time></trkpt><trkpt lat="45.1100528" lon="11.7794028"><ele>5.0</ele><time>2026-04-11T08:05:24.938Z</time></trkpt><trkpt lat="45.1101886" lon="11.7792751"><ele>5.0</ele><time>2026-04-11T08:05:25.938Z</time></trkpt><trkpt lat="45.1103296" lon="11.7791447"><ele>5.0</ele><time>2026-04-11T08:05:26.938Z</time></trkpt><trkpt lat="45.1104662" lon="11.779031"><ele>5.0</ele><time>2026-04-11T08:05:27.938Z</time></trkpt><trkpt lat="45.1105934" lon="11.7789225"><ele>5.0</ele><time>2026-04-11T08:05:28.937Z</time></trkpt><trkpt lat="45.1107155" lon="11.7788037"><ele>5.0</ele><time>2026-04-11T08:05:29.938Z</time></trkpt><trkpt lat="45.1108313" lon="11.7786803"><ele>5.0</ele><time>2026-04-11T08:05:30.938Z</time></trkpt><trkpt lat="45.1109495" lon="11.7785551"><ele>5.0</ele><time>2026-04-11T08:05:31.938Z</time></trkpt><trkpt lat="45.1110612" lon="11.7784404"><ele>5.25</ele><time>2026-04-11T08:05:32.937Z</time></trkpt><trkpt lat="45.1111734" lon="11.7783265"><ele>5.5</ele><time>2026-04-11T08:05:33.938Z</time></trkpt><trkpt lat="45.1112758" lon="11.77822"><ele>5.75</ele><time>2026-04-11T08:05:34.938Z</time></trkpt><trkpt lat="45.1113735" lon="11.7781231"><ele>6.0</ele><time>2026-04-11T08:05:35.938Z</time></trkpt><trkpt lat="45.1114738" lon="11.7780181"><ele>5.25</ele><time>2026-04-11T08:05:36.938Z</time></trkpt><trkpt lat="45.1115774" lon="11.7779201"><ele>4.5</ele><time>2026-04-11T08:05:37.938Z</time></trkpt><trkpt lat="45.1116819" lon="11.7778222"><ele>3.75</ele><time>2026-04-11T08:05:38.938Z</time></trkpt><trkpt lat="45.1117871" lon="11.777718"><ele>3.0</ele><time>2026-04-11T08:05:39.938Z</time></trkpt><trkpt lat="45.1118963" lon="11.7776198"><ele>3.0</ele><time>2026-04-11T08:05:40.938Z</time></trkpt><trkpt lat="45.112005" lon="11.7775089"><ele>3.0</ele><time>2026-04-11T08:05:41.938Z</time></trkpt><trkpt lat="45.112112" lon="11.7773991"><ele>3.0</ele><time>2026-04-11T08:05:42.938Z</time></trkpt><trkpt lat="45.1122247" lon="11.777298"><ele>3.0</ele><time>2026-04-11T08:05:43.938Z</time></trkpt><trkpt lat="45.1123375" lon="11.7771838"><ele>3.5</ele><time>2026-04-11T08:05:44.938Z</time></trkpt><trkpt lat="45.1124516" lon="11.7770811"><ele>4.0</ele><time>2026-04-11T08:05:45.938Z</time></trkpt><trkpt lat="45.1125694" lon="11.7769681"><ele>4.5</ele><time>2026-04-11T08:05:46.938Z</time></trkpt><trkpt lat="45.1126789" lon="11.7768543"><ele>5.0</ele><time>2026-04-11T08:05:47.938Z</time></trkpt><trkpt lat="45.112786" lon="11.776746"><ele>5.0</ele><time>2026-04-11T08:05:48.938Z</time></trkpt><trkpt lat="45.1129014" lon="11.7766329"><ele>5.0</ele><time>2026-04-11T08:05:49.938Z</time></trkpt><trkpt lat="45.1130145" lon="11.7765224"><ele>5.0</ele><time>2026-04-11T08:05:50.938Z</time></trkpt><trkpt lat="45.1131262" lon="11.7764115"><ele>5.0</ele><time>2026-04-11T08:05:51.938Z</time></trkpt><trkpt lat="45.1132373" lon="11.7763078"><ele>4.75</ele><time>2026-04-11T08:05:52.938Z</time></trkpt><trkpt lat="45.1133468" lon="11.7761975"><ele>4.5</ele><time>2026-04-11T08:05:53.938Z</time></trkpt><trkpt lat="45.113462" lon="11.7760805"><ele>4.25</ele><time>2026-04-11T08:05:54.938Z</time></trkpt><trkpt lat="45.1135752" lon="11.7759661"><ele>4.0</ele><time>2026-04-11T08:05:55.938Z</time></trkpt><trkpt lat="45.113687" lon="11.7758589"><ele>4.25</ele><time>2026-04-11T08:05:56.938Z</time></trkpt><trkpt lat="45.1138043" lon="11.7757401"><ele>4.5</ele><time>2026-04-11T08:05:57.937Z</time></trkpt><trkpt lat="45.1139223" lon="11.775622"><ele>4.75</ele><time>2026-04-11T08:05:58.938Z</time></trkpt><trkpt lat="45.1140389" lon="11.7755071"><ele>5.0</ele><time>2026-04-11T08:05:59.938Z</time></trkpt><trkpt lat="45.1141662" lon="11.7753998"><ele>5.0</ele><time>2026-04-11T08:06:00.938Z</time></trkpt><trkpt lat="45.1142859" lon="11.7752956"><ele>5.0</ele><time>2026-04-11T08:06:01.938Z</time></trkpt><trkpt lat="45.1144091" lon="11.7751708"><ele>5.0</ele><time>2026-04-11T08:06:02.938Z</time></trkpt><trkpt lat="45.1145335" lon="11.7750531"><ele>5.0</ele><time>2026-04-11T08:06:03.938Z</time></trkpt><trkpt lat="45.114654" lon="11.7749273"><ele>5.0</ele><time>2026-04-11T08:06:04.938Z</time></trkpt><trkpt lat="45.1147784" lon="11.7748145"><ele>5.0</ele><time>2026-04-11T08:06:05.938Z</time></trkpt><trkpt lat="45.1148996" lon="11.7746949"><ele>5.0</ele><time>2026-04-11T08:06:06.938Z</time></trkpt><trkpt lat="45.1150181" lon="11.7745726"><ele>5.0</ele><time>2026-04-11T08:06:07.938Z</time></trkpt><trkpt lat="45.115136" lon="11.7744535"><ele>5.333333333333334</ele><time>2026-04-11T08:06:08.938Z</time></trkpt><trkpt lat="45.1152529" lon="11.7743263"><ele>5.666666666666667</ele><time>2026-04-11T08:06:09.938Z</time></trkpt><trkpt lat="45.1153754" lon="11.7742028"><ele>6.0</ele><time>2026-04-11T08:06:10.938Z</time></trkpt><trkpt lat="45.1155017" lon="11.7740811"><ele>6.0</ele><time>2026-04-11T08:06:11.938Z</time></trkpt><trkpt lat="45.115642" lon="11.7739397"><ele>6.0</ele><time>2026-04-11T08:06:12.938Z</time></trkpt><trkpt lat="45.1157945" lon="11.7737892"><ele>6.0</ele><time>2026-04-11T08:06:13.938Z</time></trkpt><trkpt lat="45.1159514" lon="11.7736397"><ele>5.666666666666667</ele><time>2026-04-11T08:06:14.938Z</time></trkpt><trkpt lat="45.1161029" lon="11.7734845"><ele>5.333333333333334</ele><time>2026-04-11T08:06:15.938Z</time></trkpt><trkpt lat="45.1162545" lon="11.7733349"><ele>5.0</ele><time>2026-04-11T08:06:16.937Z</time></trkpt><trkpt lat="45.1163993" lon="11.7732046"><ele>5.0</ele><time>2026-04-11T08:06:17.938Z</time></trkpt><trkpt lat="45.1165466" lon="11.7730766"><ele>5.0</ele><time>2026-04-11T08:06:18.938Z</time></trkpt><trkpt lat="45.116683" lon="11.7729447"><ele>5.0</ele><time>2026-04-11T08:06:19.938Z</time></trkpt><trkpt lat="45.1168153" lon="11.772816"><ele>4.666666666666667</ele><time>2026-04-11T08:06:20.938Z</time></trkpt><trkpt lat="45.116945" lon="11.7726957"><ele>4.333333333333333</ele><time>2026-04-11T08:06:21.938Z</time></trkpt><trkpt lat="45.1170683" lon="11.7725738"><ele>4.0</ele><time>2026-04-11T08:06:22.938Z</time></trkpt><trkpt lat="45.1171923" lon="11.7724553"><ele>4.0</ele><time>2026-04-11T08:06:23.938Z</time></trkpt><trkpt lat="45.117321" lon="11.7723421"><ele>4.0</ele><time>2026-04-11T08:06:24.938Z</time></trkpt><trkpt lat="45.1174423" lon="11.7722297"><ele>4.0</ele><time>2026-04-11T08:06:25.938Z</time></trkpt><trkpt lat="45.1175644" lon="11.7721097"><ele>4.0</ele><time>2026-04-11T08:06:26.938Z</time></trkpt><trkpt lat="45.1176846" lon="11.7719995"><ele>3.75</ele><time>2026-04-11T08:06:27.938Z</time></trkpt><trkpt lat="45.1178045" lon="11.7718839"><ele>3.5</ele><time>2026-04-11T08:06:28.938Z</time></trkpt><trkpt lat="45.1179193" lon="11.7717664"><ele>3.25</ele><time>2026-04-11T08:06:29.938Z</time></trkpt><trkpt lat="45.1180419" lon="11.7716476"><ele>3.0</ele><time>2026-04-11T08:06:30.938Z</time></trkpt><trkpt lat="45.1181605" lon="11.7715352"><ele>3.5</ele><time>2026-04-11T08:06:31.938Z</time></trkpt><trkpt lat="45.11828" lon="11.7714179"><ele>4.0</ele><time>2026-04-11T08:06:32.938Z</time></trkpt><trkpt lat="45.1184003" lon="11.7712981"><ele>4.5</ele><time>2026-04-11T08:06:33.938Z</time></trkpt><trkpt lat="45.1185218" lon="11.7711731"><ele>5.0</ele><time>2026-04-11T08:06:34.938Z</time></trkpt><trkpt lat="45.1186398" lon="11.7710567"><ele>4.5</ele><time>2026-04-11T08:06:35.938Z</time></trkpt><trkpt lat="45.1187582" lon="11.7709445"><ele>4.0</ele><time>2026-04-11T08:06:36.938Z</time></trkpt><trkpt lat="45.1188749" lon="11.7708308"><ele>3.5</ele><time>2026-04-11T08:06:37.938Z</time></trkpt><trkpt lat="45.1189947" lon="11.7707145"><ele>3.0</ele><time>2026-04-11T08:06:38.938Z</time></trkpt><trkpt lat="45.1191097" lon="11.7705924"><ele>3.0</ele><time>2026-04-11T08:06:39.938Z</time></trkpt><trkpt lat="45.1192296" lon="11.7704865"><ele>3.0</ele><time>2026-04-11T08:06:40.938Z</time></trkpt><trkpt lat="45.119349" lon="11.7703628"><ele>3.0</ele><time>2026-04-11T08:06:41.938Z</time></trkpt><trkpt lat="45.1194705" lon="11.7702388"><ele>3.0</ele><time>2026-04-11T08:06:42.937Z</time></trkpt><trkpt lat="45.1196012" lon="11.7701087"><ele>2.6666666666666665</ele><time>2026-04-11T08:06:43.938Z</time></trkpt><trkpt lat="45.1197381" lon="11.7699828"><ele>2.333333333333333</ele><time>2026-04-11T08:06:44.938Z</time></trkpt><trkpt lat="45.1198828" lon="11.769843"><ele>2.0</ele><time>2026-04-11T08:06:45.938Z</time></trkpt><trkpt lat="45.1200367" lon="11.7696886"><ele>2.6666666666666665</ele><time>2026-04-11T08:06:46.938Z</time></trkpt><trkpt lat="45.1201936" lon="11.7695203"><ele>3.333333333333333</ele><time>2026-04-11T08:06:47.938Z</time></trkpt><trkpt lat="45.1203567" lon="11.7693525"><ele>4.0</ele><time>2026-04-11T08:06:48.938Z</time></trkpt><trkpt lat="45.12053" lon="11.7691911"><ele>4.0</ele><time>2026-04-11T08:06:49.938Z</time></trkpt><trkpt lat="45.1207048" lon="11.7690289"><ele>4.0</ele><time>2026-04-11T08:06:50.938Z</time></trkpt><trkpt lat="45.12089" lon="11.7688798"><ele>4.0</ele><time>2026-04-11T08:06:51.938Z</time></trkpt><trkpt lat="45.1210577" lon="11.7687233"><ele>4.0</ele><time>2026-04-11T08:06:52.938Z</time></trkpt><trkpt lat="45.1212175" lon="11.768568"><ele>4.0</ele><time>2026-04-11T08:06:53.938Z</time></trkpt><trkpt lat="45.1213826" lon="11.768429"><ele>4.0</ele><time>2026-04-11T08:06:54.938Z</time></trkpt><trkpt lat="45.1215337" lon="11.7682853"><ele>3.6666666666666665</ele><time>2026-04-11T08:06:55.938Z</time></trkpt><trkpt lat="45.121678" lon="11.7681566"><ele>3.333333333333333</ele><time>2026-04-11T08:06:56.938Z</time></trkpt><trkpt lat="45.1218278" lon="11.7680199"><ele>3.0</ele><time>2026-04-11T08:06:57.938Z</time></trkpt><trkpt lat="45.1219768" lon="11.7678907"><ele>3.0</ele><time>2026-04-11T08:06:58.938Z</time></trkpt><trkpt lat="45.122115" lon="11.7677686"><ele>3.0</ele><time>2026-04-11T08:06:59.938Z</time></trkpt><trkpt lat="45.1222466" lon="11.7676618"><ele>3.0</ele><time>2026-04-11T08:07:00.938Z</time></trkpt><trkpt lat="45.1223925" lon="11.7675499"><ele>2.0</ele><time>2026-04-11T08:07:01.938Z</time></trkpt><trkpt lat="45.1225285" lon="11.7674366"><ele>1.0</ele><time>2026-04-11T08:07:02.938Z</time></trkpt><trkpt lat="45.1226611" lon="11.7673205"><ele>0.0</ele><time>2026-04-11T08:07:03.938Z</time></trkpt><trkpt lat="45.1228013" lon="11.7671947"><ele>0.0</ele><time>2026-04-11T08:07:04.938Z</time></trkpt><trkpt lat="45.1229308" lon="11.7670684"><ele>0.0</ele><time>2026-04-11T08:07:05.937Z</time></trkpt><trkpt lat="45.1230725" lon="11.7669544"><ele>0.0</ele><time>2026-04-11T08:07:06.938Z</time></trkpt><trkpt lat="45.1232113" lon="11.7668383"><ele>1.0</ele><time>2026-04-11T08:07:07.938Z</time></trkpt><trkpt lat="45.1233472" lon="11.7667178"><ele>2.0</ele><time>2026-04-11T08:07:08.938Z</time></trkpt><trkpt lat="45.1234854" lon="11.7665954"><ele>3.0</ele><time>2026-04-11T08:07:09.938Z</time></trkpt><trkpt lat="45.1236243" lon="11.76647"><ele>3.0</ele><time>2026-04-11T08:07:10.938Z</time></trkpt><trkpt lat="45.1237574" lon="11.7663462"><ele>3.0</ele><time>2026-04-11T08:07:11.938Z</time></trkpt><trkpt lat="45.1238945" lon="11.7662207"><ele>3.0</ele><time>2026-04-11T08:07:12.938Z</time></trkpt><trkpt lat="45.1240314" lon="11.7660992"><ele>3.0</ele><time>2026-04-11T08:07:13.938Z</time></trkpt><trkpt lat="45.1241608" lon="11.7659737"><ele>3.0</ele><time>2026-04-11T08:07:14.938Z</time></trkpt><trkpt lat="45.1242996" lon="11.7658695"><ele>3.0</ele><time>2026-04-11T08:07:15.938Z</time></trkpt><trkpt lat="45.1244321" lon="11.765754"><ele>3.0</ele><time>2026-04-11T08:07:16.938Z</time></trkpt><trkpt lat="45.1245702" lon="11.7656406"><ele>3.0</ele><time>2026-04-11T08:07:17.938Z</time></trkpt><trkpt lat="45.1247067" lon="11.7655156"><ele>3.0</ele><time>2026-04-11T08:07:18.938Z</time></trkpt><trkpt lat="45.1248472" lon="11.7653975"><ele>3.0</ele><time>2026-04-11T08:07:19.938Z</time></trkpt><trkpt lat="45.1249842" lon="11.7652783"><ele>3.0</ele><time>2026-04-11T08:07:20.938Z</time></trkpt><trkpt lat="45.1251176" lon="11.7651579"><ele>3.0</ele><time>2026-04-11T08:07:21.938Z</time></trkpt><trkpt lat="45.1252547" lon="11.7650436"><ele>3.333333333333333</ele><time>2026-04-11T08:07:22.938Z</time></trkpt><trkpt lat="45.1253921" lon="11.7649189"><ele>3.6666666666666665</ele><time>2026-04-11T08:07:23.938Z</time></trkpt><trkpt lat="45.1255393" lon="11.7648043"><ele>4.0</ele><time>2026-04-11T08:07:24.938Z</time></trkpt><trkpt lat="45.1256757" lon="11.7646778"><ele>4.0</ele><time>2026-04-11T08:07:25.937Z</time></trkpt><trkpt lat="45.1258133" lon="11.7645541"><ele>4.0</ele><time>2026-04-11T08:07:26.938Z</time></trkpt><trkpt lat="45.12595" lon="11.764429"><ele>4.0</ele><time>2026-04-11T08:07:27.938Z</time></trkpt><trkpt lat="45.1260885" lon="11.7643126"><ele>4.0</ele><time>2026-04-11T08:07:28.938Z</time></trkpt><trkpt lat="45.1262244" lon="11.7641891"><ele>4.0</ele><time>2026-04-11T08:07:29.938Z</time></trkpt><trkpt lat="45.1263623" lon="11.7640619"><ele>4.0</ele><time>2026-04-11T08:07:30.938Z</time></trkpt><trkpt lat="45.1265028" lon="11.7639405"><ele>4.0</ele><time>2026-04-11T08:07:31.938Z</time></trkpt><trkpt lat="45.1266408" lon="11.7638201"><ele>4.0</ele><time>2026-04-11T08:07:32.938Z</time></trkpt><trkpt lat="45.1267768" lon="11.7636939"><ele>4.0</ele><time>2026-04-11T08:07:33.938Z</time></trkpt><trkpt lat="45.1269152" lon="11.7635791"><ele>4.0</ele><time>2026-04-11T08:07:34.938Z</time></trkpt><trkpt lat="45.1270574" lon="11.763464"><ele>4.0</ele><time>2026-04-11T08:07:35.938Z</time></trkpt><trkpt lat="45.1272" lon="11.7633433"><ele>4.0</ele><time>2026-04-11T08:07:36.937Z</time></trkpt><trkpt lat="45.1273396" lon="11.76322"><ele>4.0</ele><time>2026-04-11T08:07:37.937Z</time></trkpt><trkpt lat="45.1274801" lon="11.7630893"><ele>4.0</ele><time>2026-04-11T08:07:38.938Z</time></trkpt><trkpt lat="45.1276226" lon="11.762968"><ele>4.0</ele><time>2026-04-11T08:07:39.938Z</time></trkpt><trkpt lat="45.127769" lon="11.7628536"><ele>4.0</ele><time>2026-04-11T08:07:40.938Z</time></trkpt><trkpt lat="45.1279071" lon="11.7627227"><ele>4.0</ele><time>2026-04-11T08:07:41.938Z</time></trkpt><trkpt lat="45.1280436" lon="11.7625936"><ele>4.0</ele><time>2026-04-11T08:07:42.938Z</time></trkpt><trkpt lat="45.1281803" lon="11.7624695"><ele>4.333333333333333</ele><time>2026-04-11T08:07:43.938Z</time></trkpt><trkpt lat="45.128321" lon="11.7623483"><ele>4.666666666666667</ele><time>2026-04-11T08:07:44.938Z</time></trkpt><trkpt lat="45.1284575" lon="11.762224"><ele>5.0</ele><time>2026-04-11T08:07:45.938Z</time></trkpt><trkpt lat="45.1285903" lon="11.7621026"><ele>5.0</ele><time>2026-04-11T08:07:46.938Z</time></trkpt><trkpt lat="45.1287263" lon="11.7619833"><ele>5.0</ele><time>2026-04-11T08:07:47.938Z</time></trkpt><trkpt lat="45.1288578" lon="11.7618597"><ele>5.0</ele><time>2026-04-11T08:07:48.938Z</time></trkpt><trkpt lat="45.1289882" lon="11.7617475"><ele>4.666666666666667</ele><time>2026-04-11T08:07:49.937Z</time></trkpt><trkpt lat="45.1291176" lon="11.7616382"><ele>4.333333333333333</ele><time>2026-04-11T08:07:50.938Z</time></trkpt><trkpt lat="45.1292449" lon="11.7615276"><ele>4.0</ele><time>2026-04-11T08:07:51.938Z</time></trkpt><trkpt lat="45.1293713" lon="11.7614064"><ele>4.0</ele><time>2026-04-11T08:07:52.938Z</time></trkpt><trkpt lat="45.1295072" lon="11.7612936"><ele>4.0</ele><time>2026-04-11T08:07:53.938Z</time></trkpt><trkpt lat="45.1296446" lon="11.7611771"><ele>4.0</ele><time>2026-04-11T08:07:54.938Z</time></trkpt><trkpt lat="45.1297732" lon="11.7610583"><ele>4.25</ele><time>2026-04-11T08:07:55.938Z</time></trkpt><trkpt lat="45.1299023" lon="11.7609438"><ele>4.5</ele><time>2026-04-11T08:07:56.938Z</time></trkpt><trkpt lat="45.1300243" lon="11.7608232"><ele>4.75</ele><time>2026-04-11T08:07:57.938Z</time></trkpt><trkpt lat="45.1301386" lon="11.7607085"><ele>5.0</ele><time>2026-04-11T08:07:58.938Z</time></trkpt><trkpt lat="45.1302546" lon="11.7606045"><ele>5.0</ele><time>2026-04-11T08:07:59.938Z</time></trkpt><trkpt lat="45.1303701" lon="11.7605017"><ele>5.0</ele><time>2026-04-11T08:08:00.938Z</time></trkpt><trkpt lat="45.1304889" lon="11.7603993"><ele>5.0</ele><time>2026-04-11T08:08:01.938Z</time></trkpt><trkpt lat="45.1306081" lon="11.7602906"><ele>5.0</ele><time>2026-04-11T08:08:02.938Z</time></trkpt><trkpt lat="45.130729" lon="11.7601815"><ele>4.75</ele><time>2026-04-11T08:08:03.938Z</time></trkpt><trkpt lat="45.1308503" lon="11.760078"><ele>4.5</ele><time>2026-04-11T08:08:04.938Z</time></trkpt><trkpt lat="45.1309691" lon="11.7599633"><ele>4.25</ele><time>2026-04-11T08:08:05.937Z</time></trkpt><trkpt lat="45.1310886" lon="11.7598558"><ele>4.0</ele><time>2026-04-11T08:08:06.938Z</time></trkpt><trkpt lat="45.1312105" lon="11.7597459"><ele>4.0</ele><time>2026-04-11T08:08:07.938Z</time></trkpt><trkpt lat="45.1313345" lon="11.7596401"><ele>4.0</ele><time>2026-04-11T08:08:08.938Z</time></trkpt><trkpt lat="45.1314553" lon="11.7595304"><ele>4.0</ele><time>2026-04-11T08:08:09.938Z</time></trkpt><trkpt lat="45.1315731" lon="11.7594333"><ele>4.0</ele><time>2026-04-11T08:08:10.938Z</time></trkpt><trkpt lat="45.131688" lon="11.7593354"><ele>4.5</ele><time>2026-04-11T08:08:11.938Z</time></trkpt><trkpt lat="45.1318057" lon="11.7592387"><ele>5.0</ele><time>2026-04-11T08:08:12.938Z</time></trkpt><trkpt lat="45.131916" lon="11.7591343"><ele>5.5</ele><time>2026-04-11T08:08:13.938Z</time></trkpt><trkpt lat="45.1320296" lon="11.759039"><ele>6.0</ele><time>2026-04-11T08:08:14.938Z</time></trkpt><trkpt lat="45.1321471" lon="11.758938"><ele>6.0</ele><time>2026-04-11T08:08:15.938Z</time></trkpt><trkpt lat="45.1322626" lon="11.758824"><ele>6.0</ele><time>2026-04-11T08:08:16.938Z</time></trkpt><trkpt lat="45.1323782" lon="11.7587232"><ele>6.0</ele><time>2026-04-11T08:08:17.938Z</time></trkpt><trkpt lat="45.1325" lon="11.7586228"><ele>6.0</ele><time>2026-04-11T08:08:18.938Z</time></trkpt><trkpt lat="45.1326202" lon="11.7585164"><ele>5.5</ele><time>2026-04-11T08:08:19.938Z</time></trkpt><trkpt lat="45.1327407" lon="11.7584135"><ele>5.0</ele><time>2026-04-11T08:08:20.938Z</time></trkpt><trkpt lat="45.1328658" lon="11.7583113"><ele>4.5</ele><time>2026-04-11T08:08:21.937Z</time></trkpt><trkpt lat="45.132983" lon="11.7582065"><ele>4.0</ele><time>2026-04-11T08:08:22.938Z</time></trkpt><trkpt lat="45.1330935" lon="11.7581055"><ele>4.0</ele><time>2026-04-11T08:08:23.938Z</time></trkpt><trkpt lat="45.1331976" lon="11.7580079"><ele>4.0</ele><time>2026-04-11T08:08:24.937Z</time></trkpt><trkpt lat="45.1333012" lon="11.7579086"><ele>4.0</ele><time>2026-04-11T08:08:25.937Z</time></trkpt><trkpt lat="45.1334032" lon="11.7578117"><ele>4.0</ele><time>2026-04-11T08:08:26.938Z</time></trkpt><trkpt lat="45.1335079" lon="11.7577167"><ele>4.2</ele><time>2026-04-11T08:08:27.938Z</time></trkpt><trkpt lat="45.1336121" lon="11.7576222"><ele>4.4</ele><time>2026-04-11T08:08:28.938Z</time></trkpt><trkpt lat="45.1337097" lon="11.7575414"><ele>4.6</ele><time>2026-04-11T08:08:29.938Z</time></trkpt><trkpt lat="45.133794" lon="11.7574659"><ele>4.8</ele><time>2026-04-11T08:08:30.937Z</time></trkpt><trkpt lat="45.1338827" lon="11.7573958"><ele>5.0</ele><time>2026-04-11T08:08:31.938Z</time></trkpt><trkpt lat="45.1339604" lon="11.7573377"><ele>5.0</ele><time>2026-04-11T08:08:32.938Z</time></trkpt><trkpt lat="45.13403" lon="11.7572803"><ele>5.0</ele><time>2026-04-11T08:08:33.938Z</time></trkpt><trkpt lat="45.1340952" lon="11.757232"><ele>5.0</ele><time>2026-04-11T08:08:34.938Z</time></trkpt><trkpt lat="45.134157" lon="11.7571902"><ele>5.0</ele><time>2026-04-11T08:08:35.938Z</time></trkpt><trkpt lat="45.1342497" lon="11.7571398"><ele>5.0</ele><time>2026-04-11T08:08:37.938Z</time></trkpt><trkpt lat="45.1343202" lon="11.7571124"><ele>5.0</ele><time>2026-04-11T08:08:44.938Z</time></trkpt><trkpt lat="45.1343881" lon="11.7570718"><ele>5.166666666666667</ele><time>2026-04-11T08:08:47.938Z</time></trkpt><trkpt lat="45.134465" lon="11.7570173"><ele>5.333333333333334</ele><time>2026-04-11T08:08:50.938Z</time></trkpt><trkpt lat="45.1345442" lon="11.7569824"><ele>5.5</ele><time>2026-04-11T08:08:52.938Z</time></trkpt><trkpt lat="45.1346095" lon="11.7569565"><ele>5.666666666666667</ele><time>2026-04-11T08:08:53.938Z</time></trkpt><trkpt lat="45.1346768" lon="11.7569364"><ele>5.833333333333333</ele><time>2026-04-11T08:08:54.938Z</time></trkpt><trkpt lat="45.1347425" lon="11.7569115"><ele>6.0</ele><time>2026-04-11T08:08:55.938Z</time></trkpt><trkpt lat="45.134819" lon="11.7568883"><ele>6.4</ele><time>2026-04-11T08:08:56.938Z</time></trkpt><trkpt lat="45.1349011" lon="11.756873"><ele>6.8</ele><time>2026-04-11T08:08:57.938Z</time></trkpt><trkpt lat="45.1349918" lon="11.7568678"><ele>7.200000000000001</ele><time>2026-04-11T08:08:58.938Z</time></trkpt><trkpt lat="45.135086" lon="11.7568677"><ele>7.6000000000000005</ele><time>2026-04-11T08:08:59.938Z</time></trkpt><trkpt lat="45.1351866" lon="11.7568739"><ele>8.0</ele><time>2026-04-11T08:09:00.937Z</time></trkpt><trkpt lat="45.1352854" lon="11.7568701"><ele>8.0</ele><time>2026-04-11T08:09:01.938Z</time></trkpt><trkpt lat="45.1353854" lon="11.7568679"><ele>8.0</ele><time>2026-04-11T08:09:02.937Z</time></trkpt><trkpt lat="45.135499" lon="11.756874"><ele>8.0</ele><time>2026-04-11T08:09:03.938Z</time></trkpt><trkpt lat="45.1356077" lon="11.7568774"><ele>8.0</ele><time>2026-04-11T08:09:04.938Z</time></trkpt><trkpt lat="45.1357229" lon="11.7568858"><ele>8.0</ele><time>2026-04-11T08:09:05.938Z</time></trkpt><trkpt lat="45.135839" lon="11.7568837"><ele>8.0</ele><time>2026-04-11T08:09:06.938Z</time></trkpt><trkpt lat="45.1359591" lon="11.7568819"><ele>8.0</ele><time>2026-04-11T08:09:07.938Z</time></trkpt><trkpt lat="45.1360744" lon="11.7568857"><ele>8.0</ele><time>2026-04-11T08:09:08.938Z</time></trkpt><trkpt lat="45.1361937" lon="11.7568905"><ele>8.0</ele><time>2026-04-11T08:09:09.938Z</time></trkpt><trkpt lat="45.1363157" lon="11.756887"><ele>8.0</ele><time>2026-04-11T08:09:10.938Z</time></trkpt><trkpt lat="45.136439" lon="11.756879"><ele>8.0</ele><time>2026-04-11T08:09:11.938Z</time></trkpt><trkpt lat="45.1365673" lon="11.7568831"><ele>8.0</ele><time>2026-04-11T08:09:12.938Z</time></trkpt><trkpt lat="45.1366913" lon="11.7568814"><ele>8.0</ele><time>2026-04-11T08:09:13.938Z</time></trkpt><trkpt lat="45.1368178" lon="11.7568792"><ele>7.25</ele><time>2026-04-11T08:09:14.938Z</time></trkpt><trkpt lat="45.136943" lon="11.7568799"><ele>6.5</ele><time>2026-04-11T08:09:15.938Z</time></trkpt><trkpt lat="45.137071" lon="11.756883"><ele>5.75</ele><time>2026-04-11T08:09:16.938Z</time></trkpt><trkpt lat="45.1371963" lon="11.756898"><ele>5.0</ele><time>2026-04-11T08:09:17.938Z</time></trkpt><trkpt lat="45.1373304" lon="11.7569062"><ele>5.0</ele><time>2026-04-11T08:09:18.938Z</time></trkpt><trkpt lat="45.1374584" lon="11.7569028"><ele>5.0</ele><time>2026-04-11T08:09:19.937Z</time></trkpt><trkpt lat="45.1375845" lon="11.7569018"><ele>5.0</ele><time>2026-04-11T08:09:20.938Z</time></trkpt><trkpt lat="45.1377187" lon="11.7568945"><ele>5.0</ele><time>2026-04-11T08:09:21.938Z</time></trkpt><trkpt lat="45.1378491" lon="11.7568992"><ele>5.0</ele><time>2026-04-11T08:09:22.938Z</time></trkpt><trkpt lat="45.1379891" lon="11.7569093"><ele>5.0</ele><time>2026-04-11T08:09:23.938Z</time></trkpt><trkpt lat="45.1381308" lon="11.756908"><ele>5.0</ele><time>2026-04-11T08:09:24.938Z</time></trkpt><trkpt lat="45.1382803" lon="11.7569182"><ele>5.0</ele><time>2026-04-11T08:09:25.938Z</time></trkpt><trkpt lat="45.1384531" lon="11.7569102"><ele>4.666666666666667</ele><time>2026-04-11T08:09:26.938Z</time></trkpt><trkpt lat="45.1386408" lon="11.7568963"><ele>4.333333333333333</ele><time>2026-04-11T08:09:27.938Z</time></trkpt><trkpt lat="45.1388652" lon="11.7569151"><ele>4.0</ele><time>2026-04-11T08:09:28.938Z</time></trkpt><trkpt lat="45.1391312" lon="11.7569408"><ele>3.0</ele><time>2026-04-11T08:09:29.938Z</time></trkpt><trkpt lat="45.1393816" lon="11.7569519"><ele>2.0</ele><time>2026-04-11T08:09:30.938Z</time></trkpt><trkpt lat="45.1396171" lon="11.7569544"><ele>2.0</ele><time>2026-04-11T08:09:31.938Z</time></trkpt><trkpt lat="45.1398352" lon="11.7569681"><ele>2.0</ele><time>2026-04-11T08:09:32.938Z</time></trkpt><trkpt lat="45.1400076" lon="11.7569611"><ele>2.0</ele><time>2026-04-11T08:09:33.937Z</time></trkpt><trkpt lat="45.1401808" lon="11.7569614"><ele>2.333333333333333</ele><time>2026-04-11T08:09:34.938Z</time></trkpt><trkpt lat="45.1403544" lon="11.7569642"><ele>2.6666666666666665</ele><time>2026-04-11T08:09:35.938Z</time></trkpt><trkpt lat="45.140528" lon="11.7569697"><ele>3.0</ele><time>2026-04-11T08:09:36.938Z</time></trkpt><trkpt lat="45.1406924" lon="11.7569629"><ele>3.333333333333333</ele><time>2026-04-11T08:09:37.938Z</time></trkpt><trkpt lat="45.140864" lon="11.7569657"><ele>3.6666666666666665</ele><time>2026-04-11T08:09:38.938Z</time></trkpt><trkpt lat="45.1410324" lon="11.7569649"><ele>4.0</ele><time>2026-04-11T08:09:39.938Z</time></trkpt><trkpt lat="45.1411956" lon="11.7569707"><ele>4.0</ele><time>2026-04-11T08:09:40.938Z</time></trkpt><trkpt lat="45.1413604" lon="11.7569647"><ele>4.0</ele><time>2026-04-11T08:09:41.938Z</time></trkpt><trkpt lat="45.1415318" lon="11.7569782"><ele>4.0</ele><time>2026-04-11T08:09:42.938Z</time></trkpt><trkpt lat="45.141698" lon="11.7569847"><ele>3.333333333333333</ele><time>2026-04-11T08:09:43.938Z</time></trkpt><trkpt lat="45.1418591" lon="11.7569836"><ele>2.6666666666666665</ele><time>2026-04-11T08:09:44.938Z</time></trkpt><trkpt lat="45.1420268" lon="11.7569895"><ele>2.0</ele><time>2026-04-11T08:09:45.938Z</time></trkpt><trkpt lat="45.1421898" lon="11.7569937"><ele>2.0</ele><time>2026-04-11T08:09:46.938Z</time></trkpt><trkpt lat="45.1423384" lon="11.7569933"><ele>2.0</ele><time>2026-04-11T08:09:47.938Z</time></trkpt><trkpt lat="45.1424812" lon="11.7569969"><ele>2.0</ele><time>2026-04-11T08:09:48.938Z</time></trkpt><trkpt lat="45.1426092" lon="11.7569979"><ele>2.0</ele><time>2026-04-11T08:09:49.938Z</time></trkpt><trkpt lat="45.142729" lon="11.7569896"><ele>2.2</ele><time>2026-04-11T08:09:50.937Z</time></trkpt><trkpt lat="45.142843" lon="11.7569814"><ele>2.4000000000000004</ele><time>2026-04-11T08:09:51.938Z</time></trkpt><trkpt lat="45.142956" lon="11.7569844"><ele>2.5999999999999996</ele><time>2026-04-11T08:09:52.938Z</time></trkpt><trkpt lat="45.1430649" lon="11.7569901"><ele>2.8</ele><time>2026-04-11T08:09:53.938Z</time></trkpt><trkpt lat="45.1431593" lon="11.7569958"><ele>3.0</ele><time>2026-04-11T08:09:54.938Z</time></trkpt><trkpt lat="45.14324" lon="11.7569939"><ele>3.3333333333333335</ele><time>2026-04-11T08:09:55.938Z</time></trkpt><trkpt lat="45.1433146" lon="11.7569994"><ele>3.666666666666667</ele><time>2026-04-11T08:09:56.938Z</time></trkpt><trkpt lat="45.1433858" lon="11.7569977"><ele>4.0</ele><time>2026-04-11T08:09:57.938Z</time></trkpt><trkpt lat="45.1434491" lon="11.7569944"><ele>4.333333333333334</ele><time>2026-04-11T08:09:58.938Z</time></trkpt><trkpt lat="45.1435467" lon="11.7569872"><ele>4.666666666666667</ele><time>2026-04-11T08:10:00.938Z</time></trkpt><trkpt lat="45.143611" lon="11.7569876"><ele>5.0</ele><time>2026-04-11T08:10:04.938Z</time></trkpt><trkpt lat="45.1437059" lon="11.7569876"><ele>5.0</ele><time>2026-04-11T08:10:09.938Z</time></trkpt><trkpt lat="45.1438124" lon="11.7569917"><ele>5.0</ele><time>2026-04-11T08:10:11.938Z</time></trkpt><trkpt lat="45.1439248" lon="11.7569904"><ele>5.0</ele><time>2026-04-11T08:10:13.937Z</time></trkpt><trkpt lat="45.144043" lon="11.7569947"><ele>5.0</ele><time>2026-04-11T08:10:15.937Z</time></trkpt><trkpt lat="45.1441675" lon="11.7569904"><ele>4.857142857142857</ele><time>2026-04-11T08:10:17.938Z</time></trkpt><trkpt lat="45.1442317" lon="11.7569943"><ele>4.714285714285714</ele><time>2026-04-11T08:10:18.938Z</time></trkpt><trkpt lat="45.1442955" lon="11.7569993"><ele>4.571428571428571</ele><time>2026-04-11T08:10:19.938Z</time></trkpt><trkpt lat="45.1443625" lon="11.7570019"><ele>4.428571428571429</ele><time>2026-04-11T08:10:20.937Z</time></trkpt><trkpt lat="45.1444685" lon="11.7569919"><ele>4.285714285714286</ele><time>2026-04-11T08:10:22.938Z</time></trkpt><trkpt lat="45.1445349" lon="11.756995"><ele>4.142857142857142</ele><time>2026-04-11T08:10:24.938Z</time></trkpt><trkpt lat="45.144616" lon="11.7569882"><ele>4.0</ele><time>2026-04-11T08:10:27.938Z</time></trkpt><trkpt lat="45.1446943" lon="11.7569819"><ele>3.9999999999999996</ele><time>2026-04-11T08:10:29.938Z</time></trkpt><trkpt lat="45.1448035" lon="11.7569867"><ele>4.0</ele><time>2026-04-11T08:10:31.938Z</time></trkpt><trkpt lat="45.1448693" lon="11.7569829"><ele>4.0</ele><time>2026-04-11T08:10:32.938Z</time></trkpt><trkpt lat="45.1449446" lon="11.7569886"><ele>4.0</ele><time>2026-04-11T08:10:33.938Z</time></trkpt><trkpt lat="45.1450167" lon="11.7569826"><ele>3.9999999999999996</ele><time>2026-04-11T08:10:34.937Z</time></trkpt><trkpt lat="45.1450977" lon="11.7569815"><ele>4.0</ele><time>2026-04-11T08:10:35.938Z</time></trkpt><trkpt lat="45.145189" lon="11.7569819"><ele>3.8000000000000003</ele><time>2026-04-11T08:10:36.938Z</time></trkpt><trkpt lat="45.1452791" lon="11.7569836"><ele>3.6000000000000005</ele><time>2026-04-11T08:10:37.938Z</time></trkpt><trkpt lat="45.145375" lon="11.7569874"><ele>3.4</ele><time>2026-04-11T08:10:38.938Z</time></trkpt><trkpt lat="45.145464" lon="11.7569934"><ele>3.2</ele><time>2026-04-11T08:10:39.938Z</time></trkpt><trkpt lat="45.145559" lon="11.7569942"><ele>3.0</ele><time>2026-04-11T08:10:40.938Z</time></trkpt><trkpt lat="45.1456492" lon="11.7569931"><ele>3.2</ele><time>2026-04-11T08:10:41.938Z</time></trkpt><trkpt lat="45.145748" lon="11.7569968"><ele>3.4</ele><time>2026-04-11T08:10:42.938Z</time></trkpt><trkpt lat="45.1458526" lon="11.7569924"><ele>3.6000000000000005</ele><time>2026-04-11T08:10:43.938Z</time></trkpt><trkpt lat="45.1459628" lon="11.7569915"><ele>3.8000000000000003</ele><time>2026-04-11T08:10:44.938Z</time></trkpt><trkpt lat="45.1460754" lon="11.7569879"><ele>4.0</ele><time>2026-04-11T08:10:45.938Z</time></trkpt><trkpt lat="45.1461975" lon="11.7569798"><ele>4.0</ele><time>2026-04-11T08:10:46.938Z</time></trkpt><trkpt lat="45.1463217" lon="11.7569759"><ele>4.0</ele><time>2026-04-11T08:10:47.938Z</time></trkpt><trkpt lat="45.1464516" lon="11.7569705"><ele>4.0</ele><time>2026-04-11T08:10:48.938Z</time></trkpt><trkpt lat="45.1465849" lon="11.7569738"><ele>4.0</ele><time>2026-04-11T08:10:49.938Z</time></trkpt><trkpt lat="45.1467148" lon="11.7569687"><ele>4.0</ele><time>2026-04-11T08:10:50.938Z</time></trkpt><trkpt lat="45.1468457" lon="11.7569664"><ele>4.0</ele><time>2026-04-11T08:10:51.938Z</time></trkpt><trkpt lat="45.1469848" lon="11.756967"><ele>4.0</ele><time>2026-04-11T08:10:52.938Z</time></trkpt><trkpt lat="45.1471223" lon="11.7569612"><ele>4.0</ele><time>2026-04-11T08:10:53.937Z</time></trkpt><trkpt lat="45.1472595" lon="11.7569564"><ele>4.0</ele><time>2026-04-11T08:10:54.938Z</time></trkpt><trkpt lat="45.1473966" lon="11.7569496"><ele>4.0</ele><time>2026-04-11T08:10:55.938Z</time></trkpt><trkpt lat="45.1475366" lon="11.7569457"><ele>4.0</ele><time>2026-04-11T08:10:56.938Z</time></trkpt><trkpt lat="45.1476795" lon="11.7569426"><ele>4.0</ele><time>2026-04-11T08:10:57.938Z</time></trkpt><trkpt lat="45.147822" lon="11.7569379"><ele>4.0</ele><time>2026-04-11T08:10:58.938Z</time></trkpt><trkpt lat="45.147968" lon="11.7569292"><ele>4.0</ele><time>2026-04-11T08:10:59.938Z</time></trkpt><trkpt lat="45.1481102" lon="11.7569269"><ele>4.0</ele><time>2026-04-11T08:11:00.938Z</time></trkpt><trkpt lat="45.1482503" lon="11.7569246"><ele>4.0</ele><time>2026-04-11T08:11:01.938Z</time></trkpt><trkpt lat="45.1483924" lon="11.7569219"><ele>3.75</ele><time>2026-04-11T08:11:02.938Z</time></trkpt><trkpt lat="45.1485315" lon="11.756922"><ele>3.5</ele><time>2026-04-11T08:11:03.938Z</time></trkpt><trkpt lat="45.1486759" lon="11.7569228"><ele>3.25</ele><time>2026-04-11T08:11:04.938Z</time></trkpt><trkpt lat="45.1488148" lon="11.7569182"><ele>3.0</ele><time>2026-04-11T08:11:05.938Z</time></trkpt><trkpt lat="45.1489588" lon="11.7569159"><ele>2.75</ele><time>2026-04-11T08:11:06.938Z</time></trkpt><trkpt lat="45.1491023" lon="11.7569165"><ele>2.5</ele><time>2026-04-11T08:11:07.938Z</time></trkpt><trkpt lat="45.1492399" lon="11.7569117"><ele>2.25</ele><time>2026-04-11T08:11:08.938Z</time></trkpt><trkpt lat="45.1493811" lon="11.756911"><ele>2.0</ele><time>2026-04-11T08:11:09.938Z</time></trkpt><trkpt lat="45.1495221" lon="11.7569012"><ele>2.0</ele><time>2026-04-11T08:11:10.938Z</time></trkpt><trkpt lat="45.1496712" lon="11.7569052"><ele>2.0</ele><time>2026-04-11T08:11:11.938Z</time></trkpt><trkpt lat="45.1498169" lon="11.7569091"><ele>2.0</ele><time>2026-04-11T08:11:12.938Z</time></trkpt><trkpt lat="45.1499656" lon="11.7569077"><ele>2.0</ele><time>2026-04-11T08:11:13.938Z</time></trkpt><trkpt lat="45.1501179" lon="11.7568988"><ele>2.0</ele><time>2026-04-11T08:11:14.938Z</time></trkpt><trkpt lat="45.1502828" lon="11.7568931"><ele>2.0</ele><time>2026-04-11T08:11:15.938Z</time></trkpt><trkpt lat="45.1504664" lon="11.7568774"><ele>2.0</ele><time>2026-04-11T08:11:16.938Z</time></trkpt><trkpt lat="45.1506619" lon="11.7568626"><ele>1.5</ele><time>2026-04-11T08:11:17.938Z</time></trkpt><trkpt lat="45.1508671" lon="11.7568535"><ele>1.0</ele><time>2026-04-11T08:11:18.938Z</time></trkpt><trkpt lat="45.1511146" lon="11.7568541"><ele>1.0</ele><time>2026-04-11T08:11:19.938Z</time></trkpt><trkpt lat="45.1513849" lon="11.7568637"><ele>1.0</ele><time>2026-04-11T08:11:20.938Z</time></trkpt><trkpt lat="45.1516491" lon="11.7568758"><ele>0.5</ele><time>2026-04-11T08:11:21.938Z</time></trkpt><trkpt lat="45.151895" lon="11.7568846"><ele>0.0</ele><time>2026-04-11T08:11:22.938Z</time></trkpt><trkpt lat="45.1521216" lon="11.7568877"><ele>0.0</ele><time>2026-04-11T08:11:23.938Z</time></trkpt><trkpt lat="45.1523178" lon="11.7568778"><ele>0.0</ele><time>2026-04-11T08:11:24.938Z</time></trkpt><trkpt lat="45.1525135" lon="11.7568727"><ele>0.0</ele><time>2026-04-11T08:11:25.938Z</time></trkpt><trkpt lat="45.1526938" lon="11.7568666"><ele>0.6666666666666666</ele><time>2026-04-11T08:11:26.938Z</time></trkpt><trkpt lat="45.1528646" lon="11.7568611"><ele>1.3333333333333333</ele><time>2026-04-11T08:11:27.938Z</time></trkpt><trkpt lat="45.1530337" lon="11.7568597"><ele>2.0</ele><time>2026-04-11T08:11:28.938Z</time></trkpt><trkpt lat="45.1532054" lon="11.7568475"><ele>2.0</ele><time>2026-04-11T08:11:29.938Z</time></trkpt><trkpt lat="45.1533727" lon="11.7568399"><ele>2.0</ele><time>2026-04-11T08:11:30.938Z</time></trkpt><trkpt lat="45.1535417" lon="11.7568414"><ele>2.0</ele><time>2026-04-11T08:11:31.938Z</time></trkpt><trkpt lat="45.1537043" lon="11.7568395"><ele>2.0</ele><time>2026-04-11T08:11:32.938Z</time></trkpt><trkpt lat="45.1538702" lon="11.756838"><ele>2.0</ele><time>2026-04-11T08:11:33.938Z</time></trkpt><trkpt lat="45.154044" lon="11.7568311"><ele>2.0</ele><time>2026-04-11T08:11:34.937Z</time></trkpt><trkpt lat="45.1542166" lon="11.7568273"><ele>2.333333333333333</ele><time>2026-04-11T08:11:35.938Z</time></trkpt><trkpt lat="45.1543882" lon="11.7568206"><ele>2.6666666666666665</ele><time>2026-04-11T08:11:36.938Z</time></trkpt><trkpt lat="45.1545602" lon="11.7568187"><ele>3.0</ele><time>2026-04-11T08:11:37.938Z</time></trkpt><trkpt lat="45.1547362" lon="11.7568136"><ele>2.6666666666666665</ele><time>2026-04-11T08:11:38.938Z</time></trkpt><trkpt lat="45.1549091" lon="11.7568081"><ele>2.333333333333333</ele><time>2026-04-11T08:11:39.938Z</time></trkpt><trkpt lat="45.155093" lon="11.7568056"><ele>2.0</ele><time>2026-04-11T08:11:40.938Z</time></trkpt><trkpt lat="45.1552788" lon="11.756802"><ele>2.0</ele><time>2026-04-11T08:11:41.938Z</time></trkpt><trkpt lat="45.1554597" lon="11.7567911"><ele>2.0</ele><time>2026-04-11T08:11:42.938Z</time></trkpt><trkpt lat="45.1556543" lon="11.7567787"><ele>2.0</ele><time>2026-04-11T08:11:43.938Z</time></trkpt><trkpt lat="45.1558559" lon="11.7567789"><ele>2.0</ele><time>2026-04-11T08:11:44.938Z</time></trkpt><trkpt lat="45.156068" lon="11.7567775"><ele>2.0</ele><time>2026-04-11T08:11:45.937Z</time></trkpt><trkpt lat="45.1562878" lon="11.7567712"><ele>2.0</ele><time>2026-04-11T08:11:46.938Z</time></trkpt><trkpt lat="45.1565102" lon="11.7567593"><ele>2.0</ele><time>2026-04-11T08:11:47.938Z</time></trkpt><trkpt lat="45.1567328" lon="11.7567456"><ele>2.0</ele><time>2026-04-11T08:11:48.938Z</time></trkpt><trkpt lat="45.1569495" lon="11.75674"><ele>2.0</ele><time>2026-04-11T08:11:49.938Z</time></trkpt><trkpt lat="45.1571653" lon="11.756734"><ele>1.6666666666666665</ele><time>2026-04-11T08:11:50.938Z</time></trkpt><trkpt lat="45.1573744" lon="11.7567244"><ele>1.3333333333333333</ele><time>2026-04-11T08:11:51.938Z</time></trkpt><trkpt lat="45.1575816" lon="11.7567139"><ele>1.0</ele><time>2026-04-11T08:11:52.938Z</time></trkpt><trkpt lat="45.1577808" lon="11.7567005"><ele>1.0</ele><time>2026-04-11T08:11:53.938Z</time></trkpt><trkpt lat="45.1579803" lon="11.7566991"><ele>1.0</ele><time>2026-04-11T08:11:54.938Z</time></trkpt><trkpt lat="45.1581766" lon="11.7566896"><ele>1.0</ele><time>2026-04-11T08:11:55.938Z</time></trkpt><trkpt lat="45.1583819" lon="11.7566816"><ele>1.6666666666666665</ele><time>2026-04-11T08:11:56.938Z</time></trkpt><trkpt lat="45.1585827" lon="11.7566801"><ele>2.3333333333333335</ele><time>2026-04-11T08:11:57.938Z</time></trkpt><trkpt lat="45.1587821" lon="11.7566805"><ele>3.0</ele><time>2026-04-11T08:11:58.938Z</time></trkpt><trkpt lat="45.1589792" lon="11.7566677"><ele>3.0</ele><time>2026-04-11T08:11:59.938Z</time></trkpt><trkpt lat="45.1591658" lon="11.756662"><ele>3.0</ele><time>2026-04-11T08:12:00.938Z</time></trkpt><trkpt lat="45.159348" lon="11.7566594"><ele>3.0</ele><time>2026-04-11T08:12:01.938Z</time></trkpt><trkpt lat="45.1595301" lon="11.7566554"><ele>3.0</ele><time>2026-04-11T08:12:02.938Z</time></trkpt><trkpt lat="45.1597025" lon="11.7566529"><ele>3.0</ele><time>2026-04-11T08:12:03.937Z</time></trkpt><trkpt lat="45.1598755" lon="11.7566466"><ele>3.0</ele><time>2026-04-11T08:12:04.938Z</time></trkpt><trkpt lat="45.1600452" lon="11.7566454"><ele>2.6666666666666665</ele><time>2026-04-11T08:12:05.938Z</time></trkpt><trkpt lat="45.1602269" lon="11.7566525"><ele>2.333333333333333</ele><time>2026-04-11T08:12:06.938Z</time></trkpt><trkpt lat="45.1604099" lon="11.7566496"><ele>2.0</ele><time>2026-04-11T08:12:07.938Z</time></trkpt><trkpt lat="45.1605875" lon="11.7566466"><ele>2.333333333333333</ele><time>2026-04-11T08:12:08.938Z</time></trkpt><trkpt lat="45.1607711" lon="11.756643"><ele>2.6666666666666665</ele><time>2026-04-11T08:12:09.938Z</time></trkpt><trkpt lat="45.1609574" lon="11.756641"><ele>3.0</ele><time>2026-04-11T08:12:10.938Z</time></trkpt><trkpt lat="45.1611397" lon="11.7566362"><ele>3.0</ele><time>2026-04-11T08:12:11.938Z</time></trkpt><trkpt lat="45.161322" lon="11.7566309"><ele>3.0</ele><time>2026-04-11T08:12:12.938Z</time></trkpt><trkpt lat="45.1615139" lon="11.7566217"><ele>3.0</ele><time>2026-04-11T08:12:13.938Z</time></trkpt><trkpt lat="45.1616941" lon="11.7566175"><ele>2.6666666666666665</ele><time>2026-04-11T08:12:14.938Z</time></trkpt><trkpt lat="45.1618821" lon="11.7566211"><ele>2.333333333333333</ele><time>2026-04-11T08:12:15.938Z</time></trkpt><trkpt lat="45.1620703" lon="11.7566166"><ele>2.0</ele><time>2026-04-11T08:12:16.938Z</time></trkpt><trkpt lat="45.1622513" lon="11.756612"><ele>2.0</ele><time>2026-04-11T08:12:17.938Z</time></trkpt><trkpt lat="45.1624332" lon="11.756606"><ele>2.0</ele><time>2026-04-11T08:12:18.938Z</time></trkpt><trkpt lat="45.1626171" lon="11.7566034"><ele>2.0</ele><time>2026-04-11T08:12:19.937Z</time></trkpt><trkpt lat="45.1627978" lon="11.7565953"><ele>2.0</ele><time>2026-04-11T08:12:20.938Z</time></trkpt><trkpt lat="45.1629875" lon="11.7566006"><ele>2.0</ele><time>2026-04-11T08:12:21.938Z</time></trkpt><trkpt lat="45.1631672" lon="11.7565941"><ele>2.0</ele><time>2026-04-11T08:12:22.938Z</time></trkpt><trkpt lat="45.163345" lon="11.7565866"><ele>2.0</ele><time>2026-04-11T08:12:23.937Z</time></trkpt><trkpt lat="45.1635202" lon="11.7565769"><ele>2.0</ele><time>2026-04-11T08:12:24.938Z</time></trkpt><trkpt lat="45.163693" lon="11.7565722"><ele>2.0</ele><time>2026-04-11T08:12:25.938Z</time></trkpt><trkpt lat="45.1638689" lon="11.7565754"><ele>1.6666666666666665</ele><time>2026-04-11T08:12:26.938Z</time></trkpt><trkpt lat="45.1640337" lon="11.7565721"><ele>1.3333333333333333</ele><time>2026-04-11T08:12:27.937Z</time></trkpt><trkpt lat="45.1642067" lon="11.7565683"><ele>1.0</ele><time>2026-04-11T08:12:28.938Z</time></trkpt><trkpt lat="45.1643773" lon="11.7565616"><ele>1.0</ele><time>2026-04-11T08:12:29.938Z</time></trkpt><trkpt lat="45.1645496" lon="11.7565556"><ele>1.0</ele><time>2026-04-11T08:12:30.937Z</time></trkpt><trkpt lat="45.1647229" lon="11.7565542"><ele>1.0</ele><time>2026-04-11T08:12:31.938Z</time></trkpt><trkpt lat="45.1648917" lon="11.7565432"><ele>0.3333333333333333</ele><time>2026-04-11T08:12:32.938Z</time></trkpt><trkpt lat="45.1650666" lon="11.7565375"><ele>-0.3333333333333333</ele><time>2026-04-11T08:12:33.938Z</time></trkpt><trkpt lat="45.1652429" lon="11.7565276"><ele>-1.0</ele><time>2026-04-11T08:12:34.938Z</time></trkpt><trkpt lat="45.1654315" lon="11.7565196"><ele>-1.0</ele><time>2026-04-11T08:12:35.938Z</time></trkpt><trkpt lat="45.1656139" lon="11.7565171"><ele>-1.0</ele><time>2026-04-11T08:12:36.938Z</time></trkpt><trkpt lat="45.1657999" lon="11.7565081"><ele>-1.0</ele><time>2026-04-11T08:12:37.938Z</time></trkpt><trkpt lat="45.1659901" lon="11.7565037"><ele>-0.3333333333333333</ele><time>2026-04-11T08:12:38.938Z</time></trkpt><trkpt lat="45.1661833" lon="11.7565011"><ele>0.3333333333333333</ele><time>2026-04-11T08:12:39.938Z</time></trkpt><trkpt lat="45.1663705" lon="11.756504"><ele>1.0</ele><time>2026-04-11T08:12:40.938Z</time></trkpt><trkpt lat="45.1665606" lon="11.7564977"><ele>2.0</ele><time>2026-04-11T08:12:41.938Z</time></trkpt><trkpt lat="45.1667419" lon="11.7564946"><ele>3.0</ele><time>2026-04-11T08:12:42.938Z</time></trkpt><trkpt lat="45.1669208" lon="11.7564863"><ele>4.0</ele><time>2026-04-11T08:12:43.937Z</time></trkpt><trkpt lat="45.1670984" lon="11.7564785"><ele>4.0</ele><time>2026-04-11T08:12:44.938Z</time></trkpt><trkpt lat="45.1672725" lon="11.7564732"><ele>4.0</ele><time>2026-04-11T08:12:45.938Z</time></trkpt><trkpt lat="45.1674519" lon="11.7564674"><ele>4.0</ele><time>2026-04-11T08:12:46.938Z</time></trkpt><trkpt lat="45.1676255" lon="11.7564615"><ele>4.0</ele><time>2026-04-11T08:12:47.938Z</time></trkpt><trkpt lat="45.1677987" lon="11.7564606"><ele>4.0</ele><time>2026-04-11T08:12:48.938Z</time></trkpt><trkpt lat="45.1679687" lon="11.7564571"><ele>4.0</ele><time>2026-04-11T08:12:49.938Z</time></trkpt><trkpt lat="45.1681374" lon="11.756449"><ele>3.333333333333333</ele><time>2026-04-11T08:12:50.938Z</time></trkpt><trkpt lat="45.1682987" lon="11.7564424"><ele>2.6666666666666665</ele><time>2026-04-11T08:12:51.938Z</time></trkpt><trkpt lat="45.1684611" lon="11.7564406"><ele>2.0</ele><time>2026-04-11T08:12:52.938Z</time></trkpt><trkpt lat="45.1686105" lon="11.7564328"><ele>2.0</ele><time>2026-04-11T08:12:53.938Z</time></trkpt><trkpt lat="45.1687542" lon="11.7564377"><ele>2.0</ele><time>2026-04-11T08:12:54.938Z</time></trkpt><trkpt lat="45.1688817" lon="11.7564321"><ele>2.0</ele><time>2026-04-11T08:12:55.937Z</time></trkpt><trkpt lat="45.1690016" lon="11.7564293"><ele>2.0</ele><time>2026-04-11T08:12:56.938Z</time></trkpt><trkpt lat="45.1691045" lon="11.756419"><ele>2.4000000000000004</ele><time>2026-04-11T08:12:57.938Z</time></trkpt><trkpt lat="45.1691928" lon="11.7564103"><ele>2.8000000000000003</ele><time>2026-04-11T08:12:58.938Z</time></trkpt><trkpt lat="45.1692543" lon="11.7563465"><ele>3.2</ele><time>2026-04-11T08:12:59.938Z</time></trkpt><trkpt lat="45.1693104" lon="11.7562594"><ele>3.6</ele><time>2026-04-11T08:13:00.938Z</time></trkpt><trkpt lat="45.1693862" lon="11.7560761"><ele>4.0</ele><time>2026-04-11T08:13:01.938Z</time></trkpt><trkpt lat="45.1695086" lon="11.7558475"><ele>4.0</ele><time>2026-04-11T08:13:02.938Z</time></trkpt><trkpt lat="45.1696432" lon="11.7556205"><ele>4.0</ele><time>2026-04-11T08:13:03.938Z</time></trkpt><trkpt lat="45.1697805" lon="11.7553535"><ele>4.0</ele><time>2026-04-11T08:13:04.938Z</time></trkpt><trkpt lat="45.1699114" lon="11.755103"><ele>4.333333333333333</ele><time>2026-04-11T08:13:05.938Z</time></trkpt><trkpt lat="45.1700309" lon="11.7548734"><ele>4.666666666666667</ele><time>2026-04-11T08:13:06.938Z</time></trkpt><trkpt lat="45.1701451" lon="11.7546643"><ele>5.0</ele><time>2026-04-11T08:13:07.938Z</time></trkpt><trkpt lat="45.1702556" lon="11.7544621"><ele>5.0</ele><time>2026-04-11T08:13:08.938Z</time></trkpt><trkpt lat="45.1703543" lon="11.75428"><ele>5.0</ele><time>2026-04-11T08:13:09.938Z</time></trkpt><trkpt lat="45.1704498" lon="11.7541048"><ele>5.0</ele><time>2026-04-11T08:13:10.938Z</time></trkpt><trkpt lat="45.1705379" lon="11.7539396"><ele>5.0</ele><time>2026-04-11T08:13:11.938Z</time></trkpt><trkpt lat="45.170632" lon="11.753778"><ele>5.0</ele><time>2026-04-11T08:13:12.938Z</time></trkpt><trkpt lat="45.1707241" lon="11.7536161"><ele>5.0</ele><time>2026-04-11T08:13:13.938Z</time></trkpt><trkpt lat="45.1708189" lon="11.753452"><ele>5.0</ele><time>2026-04-11T08:13:14.938Z</time></trkpt><trkpt lat="45.170906" lon="11.7532906"><ele>4.75</ele><time>2026-04-11T08:13:15.938Z</time></trkpt><trkpt lat="45.1709993" lon="11.7531273"><ele>4.5</ele><time>2026-04-11T08:13:16.938Z</time></trkpt><trkpt lat="45.1710832" lon="11.7529637"><ele>4.25</ele><time>2026-04-11T08:13:17.938Z</time></trkpt><trkpt lat="45.1711695" lon="11.7527969"><ele>4.0</ele><time>2026-04-11T08:13:18.938Z</time></trkpt><trkpt lat="45.1712641" lon="11.7526246"><ele>3.6666666666666665</ele><time>2026-04-11T08:13:19.938Z</time></trkpt><trkpt lat="45.1713564" lon="11.7524617"><ele>3.333333333333333</ele><time>2026-04-11T08:13:20.938Z</time></trkpt><trkpt lat="45.171451" lon="11.7522917"><ele>3.0</ele><time>2026-04-11T08:13:21.938Z</time></trkpt><trkpt lat="45.1715457" lon="11.7521168"><ele>3.0</ele><time>2026-04-11T08:13:22.938Z</time></trkpt><trkpt lat="45.1716411" lon="11.7519432"><ele>3.0</ele><time>2026-04-11T08:13:23.938Z</time></trkpt><trkpt lat="45.1717365" lon="11.751764"><ele>3.0</ele><time>2026-04-11T08:13:24.938Z</time></trkpt><trkpt lat="45.1718293" lon="11.751592"><ele>3.25</ele><time>2026-04-11T08:13:25.938Z</time></trkpt><trkpt lat="45.1719166" lon="11.7514302"><ele>3.5</ele><time>2026-04-11T08:13:26.938Z</time></trkpt><trkpt lat="45.1720039" lon="11.751268"><ele>3.75</ele><time>2026-04-11T08:13:27.938Z</time></trkpt><trkpt lat="45.1721011" lon="11.7511073"><ele>4.0</ele><time>2026-04-11T08:13:28.938Z</time></trkpt><trkpt lat="45.1721959" lon="11.7509389"><ele>4.0</ele><time>2026-04-11T08:13:29.938Z</time></trkpt><trkpt lat="45.1722871" lon="11.7507738"><ele>4.0</ele><time>2026-04-11T08:13:30.938Z</time></trkpt><trkpt lat="45.1723842" lon="11.7506049"><ele>4.0</ele><time>2026-04-11T08:13:31.938Z</time></trkpt><trkpt lat="45.1724776" lon="11.7504458"><ele>4.0</ele><time>2026-04-11T08:13:32.938Z</time></trkpt><trkpt lat="45.1725618" lon="11.7502916"><ele>3.6666666666666665</ele><time>2026-04-11T08:13:33.938Z</time></trkpt><trkpt lat="45.1726436" lon="11.7501161"><ele>3.333333333333333</ele><time>2026-04-11T08:13:34.938Z</time></trkpt><trkpt lat="45.1727325" lon="11.7499446"><ele>3.0</ele><time>2026-04-11T08:13:35.938Z</time></trkpt><trkpt lat="45.1728354" lon="11.7497737"><ele>3.0</ele><time>2026-04-11T08:13:36.938Z</time></trkpt><trkpt lat="45.1729431" lon="11.7496037"><ele>3.0</ele><time>2026-04-11T08:13:37.937Z</time></trkpt><trkpt lat="45.17306" lon="11.7494383"><ele>3.0</ele><time>2026-04-11T08:13:38.938Z</time></trkpt><trkpt lat="45.1731849" lon="11.7492897"><ele>3.333333333333333</ele><time>2026-04-11T08:13:39.938Z</time></trkpt><trkpt lat="45.1733124" lon="11.7491476"><ele>3.6666666666666665</ele><time>2026-04-11T08:13:40.938Z</time></trkpt><trkpt lat="45.1734391" lon="11.7490167"><ele>4.0</ele><time>2026-04-11T08:13:41.938Z</time></trkpt><trkpt lat="45.1735619" lon="11.7488852"><ele>4.0</ele><time>2026-04-11T08:13:42.938Z</time></trkpt><trkpt lat="45.1736766" lon="11.7487605"><ele>4.0</ele><time>2026-04-11T08:13:43.938Z</time></trkpt><trkpt lat="45.1737929" lon="11.7486553"><ele>4.0</ele><time>2026-04-11T08:13:44.938Z</time></trkpt><trkpt lat="45.1738955" lon="11.7485533"><ele>4.0</ele><time>2026-04-11T08:13:45.938Z</time></trkpt><trkpt lat="45.1739917" lon="11.7484522"><ele>4.0</ele><time>2026-04-11T08:13:46.938Z</time></trkpt><trkpt lat="45.1740805" lon="11.7483519"><ele>4.0</ele><time>2026-04-11T08:13:47.938Z</time></trkpt><trkpt lat="45.1741815" lon="11.7482517"><ele>4.0</ele><time>2026-04-11T08:13:48.938Z</time></trkpt><trkpt lat="45.1742859" lon="11.7481578"><ele>4.0</ele><time>2026-04-11T08:13:49.938Z</time></trkpt><trkpt lat="45.1743942" lon="11.7480534"><ele>4.0</ele><time>2026-04-11T08:13:50.938Z</time></trkpt><trkpt lat="45.1745076" lon="11.7479295"><ele>4.0</ele><time>2026-04-11T08:13:51.938Z</time></trkpt><trkpt lat="45.1746183" lon="11.7477989"><ele>4.0</ele><time>2026-04-11T08:13:52.938Z</time></trkpt><trkpt lat="45.1747264" lon="11.7476639"><ele>4.0</ele><time>2026-04-11T08:13:53.938Z</time></trkpt><trkpt lat="45.1748358" lon="11.7475137"><ele>4.0</ele><time>2026-04-11T08:13:54.938Z</time></trkpt><trkpt lat="45.174938" lon="11.7473618"><ele>4.0</ele><time>2026-04-11T08:13:55.938Z</time></trkpt><trkpt lat="45.1750321" lon="11.7472166"><ele>4.0</ele><time>2026-04-11T08:13:56.938Z</time></trkpt><trkpt lat="45.1751221" lon="11.7470846"><ele>4.0</ele><time>2026-04-11T08:13:57.938Z</time></trkpt><trkpt lat="45.1752133" lon="11.7469587"><ele>4.25</ele><time>2026-04-11T08:13:58.937Z</time></trkpt><trkpt lat="45.1752996" lon="11.7468307"><ele>4.5</ele><time>2026-04-11T08:13:59.937Z</time></trkpt><trkpt lat="45.1753825" lon="11.746698"><ele>4.75</ele><time>2026-04-11T08:14:00.938Z</time></trkpt><trkpt lat="45.175472" lon="11.746567"><ele>5.0</ele><time>2026-04-11T08:14:01.938Z</time></trkpt><trkpt lat="45.1755616" lon="11.7464305"><ele>5.0</ele><time>2026-04-11T08:14:02.938Z</time></trkpt><trkpt lat="45.1756487" lon="11.7462977"><ele>5.0</ele><time>2026-04-11T08:14:03.938Z</time></trkpt><trkpt lat="45.1757386" lon="11.7461677"><ele>5.0</ele><time>2026-04-11T08:14:04.938Z</time></trkpt><trkpt lat="45.1758283" lon="11.7460326"><ele>5.0</ele><time>2026-04-11T08:14:05.938Z</time></trkpt><trkpt lat="45.1759236" lon="11.745894"><ele>5.0</ele><time>2026-04-11T08:14:06.938Z</time></trkpt><trkpt lat="45.1760182" lon="11.7457616"><ele>5.0</ele><time>2026-04-11T08:14:07.938Z</time></trkpt><trkpt lat="45.1761142" lon="11.7456326"><ele>5.0</ele><time>2026-04-11T08:14:08.938Z</time></trkpt><trkpt lat="45.1762003" lon="11.7455053"><ele>5.0</ele><time>2026-04-11T08:14:09.938Z</time></trkpt><trkpt lat="45.1762805" lon="11.7453894"><ele>5.0</ele><time>2026-04-11T08:14:10.938Z</time></trkpt><trkpt lat="45.176356" lon="11.7452659"><ele>5.0</ele><time>2026-04-11T08:14:11.938Z</time></trkpt><trkpt lat="45.1764401" lon="11.7451394"><ele>5.0</ele><time>2026-04-11T08:14:12.937Z</time></trkpt><trkpt lat="45.1765233" lon="11.7450254"><ele>5.0</ele><time>2026-04-11T08:14:13.938Z</time></trkpt><trkpt lat="45.1766022" lon="11.7448976"><ele>5.25</ele><time>2026-04-11T08:14:14.938Z</time></trkpt><trkpt lat="45.1766794" lon="11.7447681"><ele>5.5</ele><time>2026-04-11T08:14:15.938Z</time></trkpt><trkpt lat="45.1767541" lon="11.7446271"><ele>5.75</ele><time>2026-04-11T08:14:16.938Z</time></trkpt><trkpt lat="45.176819" lon="11.7444852"><ele>6.0</ele><time>2026-04-11T08:14:17.938Z</time></trkpt><trkpt lat="45.1768744" lon="11.7443664"><ele>6.25</ele><time>2026-04-11T08:14:18.938Z</time></trkpt><trkpt lat="45.1769253" lon="11.7442686"><ele>6.5</ele><time>2026-04-11T08:14:19.938Z</time></trkpt><trkpt lat="45.1769889" lon="11.744147"><ele>6.75</ele><time>2026-04-11T08:14:21.937Z</time></trkpt><trkpt lat="45.1770652" lon="11.7439543"><ele>7.0</ele><time>2026-04-11T08:14:23.938Z</time></trkpt><trkpt lat="45.1771415" lon="11.7437956"><ele>7.0</ele><time>2026-04-11T08:14:24.938Z</time></trkpt><trkpt lat="45.1772185" lon="11.7436246"><ele>7.0</ele><time>2026-04-11T08:14:25.938Z</time></trkpt><trkpt lat="45.1772864" lon="11.74346"><ele>7.0</ele><time>2026-04-11T08:14:26.938Z</time></trkpt><trkpt lat="45.1773467" lon="11.7433062"><ele>7.0</ele><time>2026-04-11T08:14:27.938Z</time></trkpt><trkpt lat="45.1774101" lon="11.7431719"><ele>6.833333333333334</ele><time>2026-04-11T08:14:28.938Z</time></trkpt><trkpt lat="45.1774683" lon="11.7430411"><ele>6.666666666666667</ele><time>2026-04-11T08:14:29.938Z</time></trkpt><trkpt lat="45.1775147" lon="11.7429244"><ele>6.5</ele><time>2026-04-11T08:14:30.938Z</time></trkpt><trkpt lat="45.177553" lon="11.742836"><ele>6.333333333333334</ele><time>2026-04-11T08:14:31.938Z</time></trkpt><trkpt lat="45.1775907" lon="11.7427275"><ele>6.166666666666667</ele><time>2026-04-11T08:14:33.938Z</time></trkpt><trkpt lat="45.1776294" lon="11.7426333"><ele>6.0</ele><time>2026-04-11T08:14:35.938Z</time></trkpt><trkpt lat="45.1776853" lon="11.7424964"><ele>6.333333333333333</ele><time>2026-04-11T08:14:37.938Z</time></trkpt><trkpt lat="45.177717" lon="11.742419"><ele>6.666666666666666</ele><time>2026-04-11T08:14:38.938Z</time></trkpt><trkpt lat="45.1777491" lon="11.7423403"><ele>7.0</ele><time>2026-04-11T08:14:39.938Z</time></trkpt><trkpt lat="45.1777717" lon="11.7422556"><ele>7.333333333333333</ele><time>2026-04-11T08:14:40.938Z</time></trkpt><trkpt lat="45.1777996" lon="11.7421193"><ele>7.666666666666666</ele><time>2026-04-11T08:14:42.938Z</time></trkpt><trkpt lat="45.1778014" lon="11.7420282"><ele>8.0</ele><time>2026-04-11T08:14:50.938Z</time></trkpt><trkpt lat="45.1778116" lon="11.7418862"><ele>8.0</ele><time>2026-04-11T08:14:52.938Z</time></trkpt><trkpt lat="45.1778237" lon="11.7417956"><ele>8.0</ele><time>2026-04-11T08:14:53.938Z</time></trkpt><trkpt lat="45.1778459" lon="11.7416379"><ele>8.0</ele><time>2026-04-11T08:14:55.938Z</time></trkpt><trkpt lat="45.1778611" lon="11.7414919"><ele>8.0</ele><time>2026-04-11T08:14:57.938Z</time></trkpt><trkpt lat="45.1778769" lon="11.7413527"><ele>8.0</ele><time>2026-04-11T08:14:59.938Z</time></trkpt><trkpt lat="45.1778873" lon="11.7411695"><ele>8.0</ele><time>2026-04-11T08:15:01.938Z</time></trkpt><trkpt lat="45.1778919" lon="11.7410571"><ele>8.0</ele><time>2026-04-11T08:15:02.937Z</time></trkpt><trkpt lat="45.1778954" lon="11.7409369"><ele>8.0</ele><time>2026-04-11T08:15:03.938Z</time></trkpt><trkpt lat="45.1778984" lon="11.7408119"><ele>8.0</ele><time>2026-04-11T08:15:04.938Z</time></trkpt><trkpt lat="45.177887" lon="11.7406786"><ele>8.0</ele><time>2026-04-11T08:15:05.937Z</time></trkpt><trkpt lat="45.1778801" lon="11.7405302"><ele>7.4</ele><time>2026-04-11T08:15:06.938Z</time></trkpt><trkpt lat="45.1778628" lon="11.7403779"><ele>6.800000000000001</ele><time>2026-04-11T08:15:07.938Z</time></trkpt><trkpt lat="45.1778438" lon="11.7402289"><ele>6.2</ele><time>2026-04-11T08:15:08.938Z</time></trkpt><trkpt lat="45.1778262" lon="11.7400872"><ele>5.6</ele><time>2026-04-11T08:15:09.938Z</time></trkpt><trkpt lat="45.1778119" lon="11.7399403"><ele>5.0</ele><time>2026-04-11T08:15:10.938Z</time></trkpt><trkpt lat="45.1777928" lon="11.7397755"><ele>5.0</ele><time>2026-04-11T08:15:11.938Z</time></trkpt><trkpt lat="45.1777761" lon="11.7396147"><ele>5.0</ele><time>2026-04-11T08:15:12.937Z</time></trkpt><trkpt lat="45.1777603" lon="11.7394526"><ele>5.0</ele><time>2026-04-11T08:15:13.938Z</time></trkpt><trkpt lat="45.1777458" lon="11.7392938"><ele>5.0</ele><time>2026-04-11T08:15:14.938Z</time></trkpt><trkpt lat="45.1777275" lon="11.7391395"><ele>5.0</ele><time>2026-04-11T08:15:15.938Z</time></trkpt><trkpt lat="45.1777127" lon="11.7389929"><ele>5.0</ele><time>2026-04-11T08:15:16.938Z</time></trkpt><trkpt lat="45.1777069" lon="11.7388589"><ele>5.0</ele><time>2026-04-11T08:15:17.938Z</time></trkpt><trkpt lat="45.1776981" lon="11.7387186"><ele>5.0</ele><time>2026-04-11T08:15:18.938Z</time></trkpt><trkpt lat="45.1776882" lon="11.738599"><ele>5.0</ele><time>2026-04-11T08:15:19.938Z</time></trkpt><trkpt lat="45.1776887" lon="11.7384878"><ele>5.0</ele><time>2026-04-11T08:15:20.937Z</time></trkpt><trkpt lat="45.1776853" lon="11.7383632"><ele>5.0</ele><time>2026-04-11T08:15:21.937Z</time></trkpt><trkpt lat="45.1776879" lon="11.7382402"><ele>5.0</ele><time>2026-04-11T08:15:22.938Z</time></trkpt><trkpt lat="45.1776993" lon="11.7381134"><ele>5.0</ele><time>2026-04-11T08:15:23.938Z</time></trkpt><trkpt lat="45.1777208" lon="11.7379879"><ele>5.0</ele><time>2026-04-11T08:15:24.938Z</time></trkpt><trkpt lat="45.1777495" lon="11.7378646"><ele>5.0</ele><time>2026-04-11T08:15:25.938Z</time></trkpt><trkpt lat="45.17779" lon="11.7377333"><ele>5.4</ele><time>2026-04-11T08:15:26.938Z</time></trkpt><trkpt lat="45.1778356" lon="11.7376039"><ele>5.8</ele><time>2026-04-11T08:15:27.938Z</time></trkpt><trkpt lat="45.1778748" lon="11.7374722"><ele>6.199999999999999</ele><time>2026-04-11T08:15:28.938Z</time></trkpt><trkpt lat="45.1779224" lon="11.7373398"><ele>6.6</ele><time>2026-04-11T08:15:29.938Z</time></trkpt><trkpt lat="45.1779685" lon="11.7372197"><ele>7.0</ele><time>2026-04-11T08:15:30.938Z</time></trkpt><trkpt lat="45.1780212" lon="11.7370988"><ele>7.0</ele><time>2026-04-11T08:15:31.938Z</time></trkpt><trkpt lat="45.1780801" lon="11.7369804"><ele>6.999999999999999</ele><time>2026-04-11T08:15:32.937Z</time></trkpt><trkpt lat="45.1781398" lon="11.736861"><ele>6.999999999999999</ele><time>2026-04-11T08:15:33.938Z</time></trkpt><trkpt lat="45.1782022" lon="11.7367432"><ele>7.0</ele><time>2026-04-11T08:15:34.938Z</time></trkpt><trkpt lat="45.1782723" lon="11.7366293"><ele>7.0</ele><time>2026-04-11T08:15:35.938Z</time></trkpt><trkpt lat="45.1783426" lon="11.7365178"><ele>6.8</ele><time>2026-04-11T08:15:36.938Z</time></trkpt><trkpt lat="45.1784063" lon="11.7364021"><ele>6.6</ele><time>2026-04-11T08:15:37.938Z</time></trkpt><trkpt lat="45.1784739" lon="11.7362845"><ele>6.3999999999999995</ele><time>2026-04-11T08:15:38.937Z</time></trkpt><trkpt lat="45.1785415" lon="11.7361606"><ele>6.199999999999999</ele><time>2026-04-11T08:15:39.938Z</time></trkpt><trkpt lat="45.1786155" lon="11.7360303"><ele>6.0</ele><time>2026-04-11T08:15:40.938Z</time></trkpt><trkpt lat="45.1786896" lon="11.7359021"><ele>5.75</ele><time>2026-04-11T08:15:41.938Z</time></trkpt><trkpt lat="45.1787681" lon="11.7357657"><ele>5.5</ele><time>2026-04-11T08:15:42.938Z</time></trkpt><trkpt lat="45.1788498" lon="11.7356328"><ele>5.25</ele><time>2026-04-11T08:15:43.937Z</time></trkpt><trkpt lat="45.1789316" lon="11.7354966"><ele>5.0</ele><time>2026-04-11T08:15:44.938Z</time></trkpt><trkpt lat="45.1790129" lon="11.7353562"><ele>5.0</ele><time>2026-04-11T08:15:45.938Z</time></trkpt><trkpt lat="45.1791015" lon="11.7352142"><ele>5.0</ele><time>2026-04-11T08:15:46.937Z</time></trkpt><trkpt lat="45.1791908" lon="11.7350711"><ele>5.0</ele><time>2026-04-11T08:15:47.938Z</time></trkpt><trkpt lat="45.1792822" lon="11.7349294"><ele>5.0</ele><time>2026-04-11T08:15:48.938Z</time></trkpt><trkpt lat="45.179372" lon="11.7347864"><ele>5.0</ele><time>2026-04-11T08:15:49.938Z</time></trkpt><trkpt lat="45.1794606" lon="11.7346408"><ele>5.0</ele><time>2026-04-11T08:15:50.938Z</time></trkpt><trkpt lat="45.1795457" lon="11.7345089"><ele>5.0</ele><time>2026-04-11T08:15:51.937Z</time></trkpt><trkpt lat="45.1796183" lon="11.734386"><ele>5.0</ele><time>2026-04-11T08:15:52.938Z</time></trkpt><trkpt lat="45.17969" lon="11.7342592"><ele>5.25</ele><time>2026-04-11T08:15:53.938Z</time></trkpt><trkpt lat="45.1797652" lon="11.7341314"><ele>5.5</ele><time>2026-04-11T08:15:54.938Z</time></trkpt><trkpt lat="45.1798476" lon="11.7339994"><ele>5.75</ele><time>2026-04-11T08:15:55.938Z</time></trkpt><trkpt lat="45.1799301" lon="11.733867"><ele>6.0</ele><time>2026-04-11T08:15:56.938Z</time></trkpt><trkpt lat="45.1800135" lon="11.7337272"><ele>6.0</ele><time>2026-04-11T08:15:57.938Z</time></trkpt><trkpt lat="45.1800954" lon="11.7335944"><ele>6.0</ele><time>2026-04-11T08:15:58.938Z</time></trkpt><trkpt lat="45.1801713" lon="11.7334684"><ele>6.0</ele><time>2026-04-11T08:15:59.938Z</time></trkpt><trkpt lat="45.1802502" lon="11.7333616"><ele>6.0</ele><time>2026-04-11T08:16:00.938Z</time></trkpt><trkpt lat="45.1803227" lon="11.7332497"><ele>6.0</ele><time>2026-04-11T08:16:01.938Z</time></trkpt><trkpt lat="45.1803948" lon="11.7331551"><ele>6.0</ele><time>2026-04-11T08:16:02.938Z</time></trkpt><trkpt lat="45.1804593" lon="11.7330681"><ele>6.0</ele><time>2026-04-11T08:16:03.938Z</time></trkpt><trkpt lat="45.180519" lon="11.7329847"><ele>6.0</ele><time>2026-04-11T08:16:04.938Z</time></trkpt><trkpt lat="45.1805801" lon="11.7329014"><ele>6.0</ele><time>2026-04-11T08:16:05.938Z</time></trkpt><trkpt lat="45.1806388" lon="11.7328259"><ele>6.0</ele><time>2026-04-11T08:16:06.938Z</time></trkpt><trkpt lat="45.1807028" lon="11.7327367"><ele>5.6</ele><time>2026-04-11T08:16:07.938Z</time></trkpt><trkpt lat="45.1807709" lon="11.7326447"><ele>5.199999999999999</ele><time>2026-04-11T08:16:08.938Z</time></trkpt><trkpt lat="45.1808385" lon="11.7325521"><ele>4.800000000000001</ele><time>2026-04-11T08:16:09.937Z</time></trkpt><trkpt lat="45.1809139" lon="11.7324547"><ele>4.4</ele><time>2026-04-11T08:16:10.938Z</time></trkpt><trkpt lat="45.1809977" lon="11.7323505"><ele>4.0</ele><time>2026-04-11T08:16:11.938Z</time></trkpt><trkpt lat="45.1810814" lon="11.7322402"><ele>4.0</ele><time>2026-04-11T08:16:12.938Z</time></trkpt><trkpt lat="45.1811606" lon="11.7321321"><ele>4.0</ele><time>2026-04-11T08:16:13.938Z</time></trkpt><trkpt lat="45.1812437" lon="11.7320186"><ele>4.0</ele><time>2026-04-11T08:16:14.938Z</time></trkpt><trkpt lat="45.181326" lon="11.7319091"><ele>4.0</ele><time>2026-04-11T08:16:15.938Z</time></trkpt><trkpt lat="45.1814064" lon="11.7318022"><ele>4.0</ele><time>2026-04-11T08:16:16.938Z</time></trkpt><trkpt lat="45.1814825" lon="11.7316984"><ele>4.2</ele><time>2026-04-11T08:16:17.938Z</time></trkpt><trkpt lat="45.1815667" lon="11.7316016"><ele>4.4</ele><time>2026-04-11T08:16:18.938Z</time></trkpt><trkpt lat="45.1816488" lon="11.7314977"><ele>4.6</ele><time>2026-04-11T08:16:19.938Z</time></trkpt><trkpt lat="45.1817335" lon="11.7313963"><ele>4.8</ele><time>2026-04-11T08:16:20.937Z</time></trkpt><trkpt lat="45.1818158" lon="11.7312873"><ele>5.0</ele><time>2026-04-11T08:16:21.938Z</time></trkpt><trkpt lat="45.181895" lon="11.7311799"><ele>5.0</ele><time>2026-04-11T08:16:22.938Z</time></trkpt><trkpt lat="45.1819736" lon="11.7310788"><ele>5.0</ele><time>2026-04-11T08:16:23.938Z</time></trkpt><trkpt lat="45.1820507" lon="11.7309903"><ele>5.0</ele><time>2026-04-11T08:16:24.938Z</time></trkpt><trkpt lat="45.182122" lon="11.730898"><ele>5.0</ele><time>2026-04-11T08:16:25.938Z</time></trkpt><trkpt lat="45.1821973" lon="11.7308048"><ele>5.0</ele><time>2026-04-11T08:16:26.938Z</time></trkpt><trkpt lat="45.1822769" lon="11.7307124"><ele>4.75</ele><time>2026-04-11T08:16:27.938Z</time></trkpt><trkpt lat="45.182356" lon="11.7306026"><ele>4.5</ele><time>2026-04-11T08:16:28.937Z</time></trkpt><trkpt lat="45.1824428" lon="11.7304899"><ele>4.25</ele><time>2026-04-11T08:16:29.938Z</time></trkpt><trkpt lat="45.1825226" lon="11.7303596"><ele>4.0</ele><time>2026-04-11T08:16:30.938Z</time></trkpt><trkpt lat="45.1825962" lon="11.7302161"><ele>4.0</ele><time>2026-04-11T08:16:31.937Z</time></trkpt><trkpt lat="45.1826563" lon="11.7300713"><ele>4.0</ele><time>2026-04-11T08:16:32.937Z</time></trkpt><trkpt lat="45.182715" lon="11.7299282"><ele>4.0</ele><time>2026-04-11T08:16:33.938Z</time></trkpt><trkpt lat="45.1827689" lon="11.729794"><ele>4.0</ele><time>2026-04-11T08:16:34.938Z</time></trkpt><trkpt lat="45.1828219" lon="11.7296576"><ele>4.0</ele><time>2026-04-11T08:16:35.938Z</time></trkpt><trkpt lat="45.1828821" lon="11.7295184"><ele>4.0</ele><time>2026-04-11T08:16:36.938Z</time></trkpt><trkpt lat="45.1829385" lon="11.7293774"><ele>4.0</ele><time>2026-04-11T08:16:37.937Z</time></trkpt><trkpt lat="45.1829975" lon="11.7292313"><ele>4.0</ele><time>2026-04-11T08:16:38.938Z</time></trkpt><trkpt lat="45.1830544" lon="11.7290875"><ele>4.0</ele><time>2026-04-11T08:16:39.938Z</time></trkpt><trkpt lat="45.1831144" lon="11.7289382"><ele>4.0</ele><time>2026-04-11T08:16:40.938Z</time></trkpt><trkpt lat="45.183184" lon="11.7287858"><ele>4.0</ele><time>2026-04-11T08:16:41.937Z</time></trkpt><trkpt lat="45.1832521" lon="11.7286319"><ele>4.0</ele><time>2026-04-11T08:16:42.938Z</time></trkpt><trkpt lat="45.1833222" lon="11.7284708"><ele>4.25</ele><time>2026-04-11T08:16:43.938Z</time></trkpt><trkpt lat="45.1833979" lon="11.7283138"><ele>4.5</ele><time>2026-04-11T08:16:44.938Z</time></trkpt><trkpt lat="45.1834669" lon="11.7281597"><ele>4.75</ele><time>2026-04-11T08:16:45.938Z</time></trkpt><trkpt lat="45.1835356" lon="11.7280004"><ele>5.0</ele><time>2026-04-11T08:16:46.938Z</time></trkpt><trkpt lat="45.1836034" lon="11.7278444"><ele>5.5</ele><time>2026-04-11T08:16:47.938Z</time></trkpt><trkpt lat="45.1836608" lon="11.727683"><ele>6.0</ele><time>2026-04-11T08:16:48.938Z</time></trkpt><trkpt lat="45.1837081" lon="11.7275199"><ele>6.5</ele><time>2026-04-11T08:16:49.938Z</time></trkpt><trkpt lat="45.1837551" lon="11.727356"><ele>7.0</ele><time>2026-04-11T08:16:50.937Z</time></trkpt><trkpt lat="45.1837968" lon="11.7272017"><ele>7.0</ele><time>2026-04-11T08:16:51.938Z</time></trkpt><trkpt lat="45.1838388" lon="11.7270505"><ele>7.0</ele><time>2026-04-11T08:16:52.938Z</time></trkpt><trkpt lat="45.1838824" lon="11.726895"><ele>7.0</ele><time>2026-04-11T08:16:53.938Z</time></trkpt><trkpt lat="45.1839239" lon="11.7267264"><ele>7.0</ele><time>2026-04-11T08:16:54.938Z</time></trkpt><trkpt lat="45.1839658" lon="11.7265563"><ele>6.75</ele><time>2026-04-11T08:16:55.938Z</time></trkpt><trkpt lat="45.184006" lon="11.7263944"><ele>6.5</ele><time>2026-04-11T08:16:56.938Z</time></trkpt><trkpt lat="45.1840451" lon="11.7262273"><ele>6.25</ele><time>2026-04-11T08:16:57.938Z</time></trkpt><trkpt lat="45.1840878" lon="11.726076"><ele>6.0</ele><time>2026-04-11T08:16:58.938Z</time></trkpt><trkpt lat="45.1841277" lon="11.7259241"><ele>6.0</ele><time>2026-04-11T08:16:59.938Z</time></trkpt><trkpt lat="45.1841684" lon="11.7257886"><ele>6.0</ele><time>2026-04-11T08:17:00.938Z</time></trkpt><trkpt lat="45.1842086" lon="11.7256407"><ele>6.0</ele><time>2026-04-11T08:17:01.938Z</time></trkpt><trkpt lat="45.1842454" lon="11.7254947"><ele>6.0</ele><time>2026-04-11T08:17:02.937Z</time></trkpt><trkpt lat="45.184285" lon="11.7253511"><ele>6.0</ele><time>2026-04-11T08:17:03.938Z</time></trkpt><trkpt lat="45.1843202" lon="11.725197"><ele>6.25</ele><time>2026-04-11T08:17:04.938Z</time></trkpt><trkpt lat="45.18436" lon="11.725042"><ele>6.5</ele><time>2026-04-11T08:17:05.938Z</time></trkpt><trkpt lat="45.1844062" lon="11.724885"><ele>6.75</ele><time>2026-04-11T08:17:06.938Z</time></trkpt><trkpt lat="45.1844604" lon="11.7247243"><ele>7.0</ele><time>2026-04-11T08:17:07.938Z</time></trkpt><trkpt lat="45.1845191" lon="11.7245679"><ele>7.0</ele><time>2026-04-11T08:17:08.938Z</time></trkpt><trkpt lat="45.1845921" lon="11.7244241"><ele>7.0</ele><time>2026-04-11T08:17:09.938Z</time></trkpt><trkpt lat="45.1846756" lon="11.7242908"><ele>7.0</ele><time>2026-04-11T08:17:10.938Z</time></trkpt><trkpt lat="45.1847613" lon="11.7241581"><ele>7.0</ele><time>2026-04-11T08:17:11.938Z</time></trkpt><trkpt lat="45.1848535" lon="11.7240398"><ele>6.5</ele><time>2026-04-11T08:17:12.938Z</time></trkpt><trkpt lat="45.1849452" lon="11.7239126"><ele>6.0</ele><time>2026-04-11T08:17:13.938Z</time></trkpt><trkpt lat="45.1850389" lon="11.7237898"><ele>5.5</ele><time>2026-04-11T08:17:14.937Z</time></trkpt><trkpt lat="45.1851392" lon="11.7236638"><ele>5.0</ele><time>2026-04-11T08:17:15.938Z</time></trkpt><trkpt lat="45.1852319" lon="11.723538"><ele>4.75</ele><time>2026-04-11T08:17:16.938Z</time></trkpt><trkpt lat="45.1853302" lon="11.7234145"><ele>4.5</ele><time>2026-04-11T08:17:17.938Z</time></trkpt><trkpt lat="45.1854291" lon="11.7232918"><ele>4.25</ele><time>2026-04-11T08:17:18.938Z</time></trkpt><trkpt lat="45.1855264" lon="11.723172"><ele>4.0</ele><time>2026-04-11T08:17:19.938Z</time></trkpt><trkpt lat="45.1856138" lon="11.723054"><ele>4.0</ele><time>2026-04-11T08:17:20.938Z</time></trkpt><trkpt lat="45.1856917" lon="11.7229595"><ele>4.0</ele><time>2026-04-11T08:17:21.938Z</time></trkpt><trkpt lat="45.1857669" lon="11.7228745"><ele>4.0</ele><time>2026-04-11T08:17:22.938Z</time></trkpt><trkpt lat="45.1858376" lon="11.7227936"><ele>4.0</ele><time>2026-04-11T08:17:23.938Z</time></trkpt><trkpt lat="45.1859016" lon="11.7227044"><ele>4.0</ele><time>2026-04-11T08:17:24.938Z</time></trkpt><trkpt lat="45.1859703" lon="11.7226104"><ele>4.0</ele><time>2026-04-11T08:17:25.938Z</time></trkpt><trkpt lat="45.186054" lon="11.72251"><ele>4.0</ele><time>2026-04-11T08:17:26.938Z</time></trkpt><trkpt lat="45.1861364" lon="11.7223992"><ele>4.0</ele><time>2026-04-11T08:17:27.938Z</time></trkpt><trkpt lat="45.1862285" lon="11.7222721"><ele>4.0</ele><time>2026-04-11T08:17:28.938Z</time></trkpt><trkpt lat="45.1863256" lon="11.7221327"><ele>4.0</ele><time>2026-04-11T08:17:29.938Z</time></trkpt><trkpt lat="45.1864275" lon="11.721989"><ele>4.0</ele><time>2026-04-11T08:17:30.938Z</time></trkpt><trkpt lat="45.1865254" lon="11.7218496"><ele>4.0</ele><time>2026-04-11T08:17:31.938Z</time></trkpt><trkpt lat="45.1866235" lon="11.7216946"><ele>4.0</ele><time>2026-04-11T08:17:32.938Z</time></trkpt><trkpt lat="45.1867138" lon="11.7215225"><ele>4.333333333333333</ele><time>2026-04-11T08:17:33.938Z</time></trkpt><trkpt lat="45.1868012" lon="11.7213349"><ele>4.666666666666667</ele><time>2026-04-11T08:17:34.938Z</time></trkpt><trkpt lat="45.1868774" lon="11.7211385"><ele>5.0</ele><time>2026-04-11T08:17:35.938Z</time></trkpt><trkpt lat="45.1869437" lon="11.7209467"><ele>5.0</ele><time>2026-04-11T08:17:36.938Z</time></trkpt><trkpt lat="45.1870082" lon="11.7207556"><ele>5.0</ele><time>2026-04-11T08:17:37.938Z</time></trkpt><trkpt lat="45.1870686" lon="11.7205684"><ele>5.0</ele><time>2026-04-11T08:17:38.938Z</time></trkpt><trkpt lat="45.1871246" lon="11.7203929"><ele>5.0</ele><time>2026-04-11T08:17:39.938Z</time></trkpt><trkpt lat="45.1871777" lon="11.7202295"><ele>5.25</ele><time>2026-04-11T08:17:40.938Z</time></trkpt><trkpt lat="45.1872296" lon="11.720061"><ele>5.5</ele><time>2026-04-11T08:17:41.938Z</time></trkpt><trkpt lat="45.1872826" lon="11.7198948"><ele>5.75</ele><time>2026-04-11T08:17:42.938Z</time></trkpt><trkpt lat="45.1873336" lon="11.7197213"><ele>6.0</ele><time>2026-04-11T08:17:43.938Z</time></trkpt><trkpt lat="45.1873818" lon="11.7195484"><ele>5.75</ele><time>2026-04-11T08:17:44.938Z</time></trkpt><trkpt lat="45.1874242" lon="11.7193746"><ele>5.5</ele><time>2026-04-11T08:17:45.938Z</time></trkpt><trkpt lat="45.18746" lon="11.7191918"><ele>5.25</ele><time>2026-04-11T08:17:46.937Z</time></trkpt><trkpt lat="45.1874913" lon="11.7190124"><ele>5.0</ele><time>2026-04-11T08:17:47.938Z</time></trkpt><trkpt lat="45.1875172" lon="11.7188309"><ele>5.0</ele><time>2026-04-11T08:17:48.938Z</time></trkpt><trkpt lat="45.1875311" lon="11.7186532"><ele>5.0</ele><time>2026-04-11T08:17:49.938Z</time></trkpt><trkpt lat="45.187548" lon="11.7184727"><ele>5.0</ele><time>2026-04-11T08:17:50.938Z</time></trkpt><trkpt lat="45.1875805" lon="11.7182914"><ele>5.0</ele><time>2026-04-11T08:17:51.938Z</time></trkpt><trkpt lat="45.1876291" lon="11.7181248"><ele>4.75</ele><time>2026-04-11T08:17:52.938Z</time></trkpt><trkpt lat="45.1876957" lon="11.7179558"><ele>4.5</ele><time>2026-04-11T08:17:53.938Z</time></trkpt><trkpt lat="45.1877689" lon="11.7178019"><ele>4.25</ele><time>2026-04-11T08:17:54.938Z</time></trkpt><trkpt lat="45.1878624" lon="11.7176546"><ele>4.0</ele><time>2026-04-11T08:17:55.938Z</time></trkpt><trkpt lat="45.1879644" lon="11.7175191"><ele>4.0</ele><time>2026-04-11T08:17:56.938Z</time></trkpt><trkpt lat="45.1880721" lon="11.7173808"><ele>4.0</ele><time>2026-04-11T08:17:57.938Z</time></trkpt><trkpt lat="45.1881696" lon="11.7172446"><ele>4.0</ele><time>2026-04-11T08:17:58.938Z</time></trkpt><trkpt lat="45.1882661" lon="11.7171166"><ele>4.0</ele><time>2026-04-11T08:17:59.938Z</time></trkpt><trkpt lat="45.1883764" lon="11.7169992"><ele>4.0</ele><time>2026-04-11T08:18:00.938Z</time></trkpt><trkpt lat="45.1884766" lon="11.7168787"><ele>4.0</ele><time>2026-04-11T08:18:01.938Z</time></trkpt><trkpt lat="45.1885791" lon="11.7167561"><ele>4.0</ele><time>2026-04-11T08:18:02.937Z</time></trkpt><trkpt lat="45.1886813" lon="11.7166239"><ele>4.0</ele><time>2026-04-11T08:18:03.937Z</time></trkpt><trkpt lat="45.1887746" lon="11.7164839"><ele>4.0</ele><time>2026-04-11T08:18:04.938Z</time></trkpt><trkpt lat="45.1888591" lon="11.7163556"><ele>4.0</ele><time>2026-04-11T08:18:05.938Z</time></trkpt><trkpt lat="45.188936" lon="11.7162286"><ele>4.0</ele><time>2026-04-11T08:18:06.938Z</time></trkpt><trkpt lat="45.1890106" lon="11.7161106"><ele>4.0</ele><time>2026-04-11T08:18:07.938Z</time></trkpt><trkpt lat="45.1890738" lon="11.7159936"><ele>4.25</ele><time>2026-04-11T08:18:08.937Z</time></trkpt><trkpt lat="45.1891385" lon="11.7158783"><ele>4.5</ele><time>2026-04-11T08:18:09.938Z</time></trkpt><trkpt lat="45.1892026" lon="11.7157418"><ele>4.75</ele><time>2026-04-11T08:18:10.938Z</time></trkpt><trkpt lat="45.1892569" lon="11.7155895"><ele>5.0</ele><time>2026-04-11T08:18:11.938Z</time></trkpt><trkpt lat="45.1893135" lon="11.7154227"><ele>5.0</ele><time>2026-04-11T08:18:12.938Z</time></trkpt><trkpt lat="45.1893613" lon="11.7152459"><ele>5.0</ele><time>2026-04-11T08:18:13.938Z</time></trkpt><trkpt lat="45.1894003" lon="11.7150714"><ele>5.0</ele><time>2026-04-11T08:18:14.938Z</time></trkpt><trkpt lat="45.1894427" lon="11.7148987"><ele>5.0</ele><time>2026-04-11T08:18:15.938Z</time></trkpt><trkpt lat="45.1894863" lon="11.7147232"><ele>5.4</ele><time>2026-04-11T08:18:16.938Z</time></trkpt><trkpt lat="45.1895189" lon="11.7145512"><ele>5.8</ele><time>2026-04-11T08:18:17.938Z</time></trkpt><trkpt lat="45.1895554" lon="11.7143827"><ele>6.199999999999999</ele><time>2026-04-11T08:18:18.938Z</time></trkpt><trkpt lat="45.1895784" lon="11.7142452"><ele>6.6</ele><time>2026-04-11T08:18:19.938Z</time></trkpt><trkpt lat="45.1896074" lon="11.7141104"><ele>7.0</ele><time>2026-04-11T08:18:20.938Z</time></trkpt><trkpt lat="45.1896367" lon="11.7139709"><ele>7.199999999999999</ele><time>2026-04-11T08:18:21.938Z</time></trkpt><trkpt lat="45.1896683" lon="11.713837"><ele>7.3999999999999995</ele><time>2026-04-11T08:18:22.938Z</time></trkpt><trkpt lat="45.1896801" lon="11.713693"><ele>7.6000000000000005</ele><time>2026-04-11T08:18:23.938Z</time></trkpt><trkpt lat="45.1896798" lon="11.7135489"><ele>7.800000000000001</ele><time>2026-04-11T08:18:24.938Z</time></trkpt><trkpt lat="45.1896613" lon="11.7134056"><ele>8.0</ele><time>2026-04-11T08:18:25.938Z</time></trkpt><trkpt lat="45.1896328" lon="11.7132681"><ele>8.0</ele><time>2026-04-11T08:18:26.938Z</time></trkpt><trkpt lat="45.189594" lon="11.7131404"><ele>8.0</ele><time>2026-04-11T08:18:27.938Z</time></trkpt><trkpt lat="45.1895557" lon="11.7130298"><ele>8.0</ele><time>2026-04-11T08:18:28.938Z</time></trkpt><trkpt lat="45.1895175" lon="11.7129064"><ele>8.0</ele><time>2026-04-11T08:18:29.938Z</time></trkpt><trkpt lat="45.1894864" lon="11.7127687"><ele>8.0</ele><time>2026-04-11T08:18:30.938Z</time></trkpt><trkpt lat="45.1894625" lon="11.7126277"><ele>8.0</ele><time>2026-04-11T08:18:31.938Z</time></trkpt><trkpt lat="45.1894379" lon="11.7124871"><ele>8.0</ele><time>2026-04-11T08:18:32.938Z</time></trkpt><trkpt lat="45.189416" lon="11.7123419"><ele>8.0</ele><time>2026-04-11T08:18:33.938Z</time></trkpt><trkpt lat="45.1893918" lon="11.7121946"><ele>8.0</ele><time>2026-04-11T08:18:34.938Z</time></trkpt><trkpt lat="45.1893704" lon="11.7120344"><ele>8.0</ele><time>2026-04-11T08:18:35.938Z</time></trkpt><trkpt lat="45.1893409" lon="11.7118776"><ele>8.200000000000001</ele><time>2026-04-11T08:18:36.938Z</time></trkpt><trkpt lat="45.189304" lon="11.7117244"><ele>8.4</ele><time>2026-04-11T08:18:37.938Z</time></trkpt><trkpt lat="45.1892685" lon="11.7115775"><ele>8.600000000000001</ele><time>2026-04-11T08:18:38.938Z</time></trkpt><trkpt lat="45.1892224" lon="11.7114423"><ele>8.8</ele><time>2026-04-11T08:18:39.938Z</time></trkpt><trkpt lat="45.1891751" lon="11.7113021"><ele>9.0</ele><time>2026-04-11T08:18:40.938Z</time></trkpt><trkpt lat="45.189138" lon="11.7111734"><ele>8.833333333333334</ele><time>2026-04-11T08:18:41.938Z</time></trkpt><trkpt lat="45.1891034" lon="11.7110588"><ele>8.666666666666666</ele><time>2026-04-11T08:18:42.938Z</time></trkpt><trkpt lat="45.1890716" lon="11.7109647"><ele>8.5</ele><time>2026-04-11T08:18:43.938Z</time></trkpt><trkpt lat="45.1890328" lon="11.7108502"><ele>8.333333333333332</ele><time>2026-04-11T08:18:45.938Z</time></trkpt><trkpt lat="45.1890037" lon="11.7107483"><ele>8.166666666666666</ele><time>2026-04-11T08:18:47.938Z</time></trkpt><trkpt lat="45.1889812" lon="11.7106642"><ele>8.0</ele><time>2026-04-11T08:18:49.938Z</time></trkpt><trkpt lat="45.1889832" lon="11.7105449"><ele>8.0</ele><time>2026-04-11T08:18:51.938Z</time></trkpt><trkpt lat="45.1890254" lon="11.7104604"><ele>8.0</ele><time>2026-04-11T08:18:52.938Z</time></trkpt><trkpt lat="45.1890893" lon="11.7103755"><ele>8.0</ele><time>2026-04-11T08:18:53.938Z</time></trkpt><trkpt lat="45.1891647" lon="11.710273"><ele>8.0</ele><time>2026-04-11T08:18:54.937Z</time></trkpt><trkpt lat="45.1892536" lon="11.7101438"><ele>8.0</ele><time>2026-04-11T08:18:55.938Z</time></trkpt><trkpt lat="45.1893727" lon="11.7100017"><ele>8.0</ele><time>2026-04-11T08:18:56.938Z</time></trkpt><trkpt lat="45.1894683" lon="11.7098617"><ele>8.0</ele><time>2026-04-11T08:18:57.938Z</time></trkpt><trkpt lat="45.1895536" lon="11.7097136"><ele>8.0</ele><time>2026-04-11T08:18:58.938Z</time></trkpt><trkpt lat="45.1896353" lon="11.7095818"><ele>8.0</ele><time>2026-04-11T08:18:59.938Z</time></trkpt><trkpt lat="45.1897203" lon="11.7094449"><ele>7.5</ele><time>2026-04-11T08:19:00.938Z</time></trkpt><trkpt lat="45.1897921" lon="11.7092951"><ele>7.0</ele><time>2026-04-11T08:19:01.937Z</time></trkpt><trkpt lat="45.1898631" lon="11.7091275"><ele>6.5</ele><time>2026-04-11T08:19:02.938Z</time></trkpt><trkpt lat="45.1899216" lon="11.7089376"><ele>6.0</ele><time>2026-04-11T08:19:03.938Z</time></trkpt><trkpt lat="45.1899692" lon="11.7087295"><ele>5.5</ele><time>2026-04-11T08:19:04.938Z</time></trkpt><trkpt lat="45.1900091" lon="11.7085299"><ele>5.0</ele><time>2026-04-11T08:19:05.938Z</time></trkpt><trkpt lat="45.1900484" lon="11.7083239"><ele>4.5</ele><time>2026-04-11T08:19:06.938Z</time></trkpt><trkpt lat="45.1900862" lon="11.7081222"><ele>4.0</ele><time>2026-04-11T08:19:07.938Z</time></trkpt><trkpt lat="45.1901396" lon="11.7078581"><ele>4.0</ele><time>2026-04-11T08:19:08.938Z</time></trkpt><trkpt lat="45.1902033" lon="11.707577"><ele>4.0</ele><time>2026-04-11T08:19:09.938Z</time></trkpt><trkpt lat="45.1902584" lon="11.7073148"><ele>4.0</ele><time>2026-04-11T08:19:10.938Z</time></trkpt><trkpt lat="45.1902917" lon="11.7070886"><ele>4.5</ele><time>2026-04-11T08:19:11.938Z</time></trkpt><trkpt lat="45.1903021" lon="11.706873"><ele>5.0</ele><time>2026-04-11T08:19:12.938Z</time></trkpt><trkpt lat="45.1903095" lon="11.7066684"><ele>5.5</ele><time>2026-04-11T08:19:13.938Z</time></trkpt><trkpt lat="45.1903181" lon="11.706471"><ele>6.0</ele><time>2026-04-11T08:19:14.937Z</time></trkpt><trkpt lat="45.1903288" lon="11.7062688"><ele>6.0</ele><time>2026-04-11T08:19:15.938Z</time></trkpt><trkpt lat="45.1903548" lon="11.7060634"><ele>6.0</ele><time>2026-04-11T08:19:16.938Z</time></trkpt><trkpt lat="45.1903962" lon="11.7058477"><ele>6.0</ele><time>2026-04-11T08:19:17.938Z</time></trkpt><trkpt lat="45.1904352" lon="11.7056347"><ele>6.0</ele><time>2026-04-11T08:19:18.938Z</time></trkpt><trkpt lat="45.190474" lon="11.7054459"><ele>6.0</ele><time>2026-04-11T08:19:19.937Z</time></trkpt><trkpt lat="45.1905102" lon="11.7052747"><ele>6.0</ele><time>2026-04-11T08:19:20.938Z</time></trkpt><trkpt lat="45.1905406" lon="11.7051078"><ele>6.0</ele><time>2026-04-11T08:19:21.938Z</time></trkpt><trkpt lat="45.1905744" lon="11.7049375"><ele>6.0</ele><time>2026-04-11T08:19:22.938Z</time></trkpt><trkpt lat="45.1906155" lon="11.7047825"><ele>6.0</ele><time>2026-04-11T08:19:23.938Z</time></trkpt><trkpt lat="45.1906702" lon="11.7046372"><ele>6.0</ele><time>2026-04-11T08:19:24.938Z</time></trkpt><trkpt lat="45.1907523" lon="11.7045187"><ele>6.0</ele><time>2026-04-11T08:19:25.938Z</time></trkpt><trkpt lat="45.1908293" lon="11.7044072"><ele>6.25</ele><time>2026-04-11T08:19:26.938Z</time></trkpt><trkpt lat="45.1909375" lon="11.7043097"><ele>6.5</ele><time>2026-04-11T08:19:27.938Z</time></trkpt><trkpt lat="45.1910549" lon="11.704223"><ele>6.75</ele><time>2026-04-11T08:19:28.938Z</time></trkpt><trkpt lat="45.1911881" lon="11.704158"><ele>7.0</ele><time>2026-04-11T08:19:29.938Z</time></trkpt><trkpt lat="45.1913217" lon="11.7040973"><ele>7.0</ele><time>2026-04-11T08:19:30.938Z</time></trkpt><trkpt lat="45.1914536" lon="11.7040331"><ele>7.0</ele><time>2026-04-11T08:19:31.938Z</time></trkpt><trkpt lat="45.1915856" lon="11.7039661"><ele>7.0</ele><time>2026-04-11T08:19:32.938Z</time></trkpt><trkpt lat="45.1917004" lon="11.7038577"><ele>7.0</ele><time>2026-04-11T08:19:33.938Z</time></trkpt><trkpt lat="45.1917994" lon="11.7037428"><ele>7.0</ele><time>2026-04-11T08:19:34.938Z</time></trkpt><trkpt lat="45.1918899" lon="11.7036327"><ele>7.0</ele><time>2026-04-11T08:19:35.938Z</time></trkpt><trkpt lat="45.1919797" lon="11.7035285"><ele>7.0</ele><time>2026-04-11T08:19:36.938Z</time></trkpt><trkpt lat="45.1920656" lon="11.7034118"><ele>7.0</ele><time>2026-04-11T08:19:37.938Z</time></trkpt><trkpt lat="45.1921571" lon="11.7032902"><ele>6.8</ele><time>2026-04-11T08:19:38.938Z</time></trkpt><trkpt lat="45.1922418" lon="11.7031798"><ele>6.6</ele><time>2026-04-11T08:19:39.938Z</time></trkpt><trkpt lat="45.1923223" lon="11.7030747"><ele>6.3999999999999995</ele><time>2026-04-11T08:19:40.938Z</time></trkpt><trkpt lat="45.1924064" lon="11.7029736"><ele>6.199999999999999</ele><time>2026-04-11T08:19:41.938Z</time></trkpt><trkpt lat="45.1924914" lon="11.702864"><ele>6.0</ele><time>2026-04-11T08:19:42.938Z</time></trkpt><trkpt lat="45.1926044" lon="11.7027205"><ele>5.5</ele><time>2026-04-11T08:19:43.938Z</time></trkpt><trkpt lat="45.1927815" lon="11.702505"><ele>5.0</ele><time>2026-04-11T08:19:44.938Z</time></trkpt><trkpt lat="45.1929756" lon="11.7022578"><ele>5.0</ele><time>2026-04-11T08:19:45.938Z</time></trkpt><trkpt lat="45.1932121" lon="11.7020065"><ele>5.0</ele><time>2026-04-11T08:19:46.938Z</time></trkpt><trkpt lat="45.1934643" lon="11.7017362"><ele>5.5</ele><time>2026-04-11T08:19:47.938Z</time></trkpt><trkpt lat="45.1937088" lon="11.7014528"><ele>6.0</ele><time>2026-04-11T08:19:48.938Z</time></trkpt><trkpt lat="45.1939354" lon="11.7011738"><ele>5.5</ele><time>2026-04-11T08:19:49.938Z</time></trkpt><trkpt lat="45.1940986" lon="11.7009657"><ele>5.0</ele><time>2026-04-11T08:19:50.938Z</time></trkpt><trkpt lat="45.1942768" lon="11.7007479"><ele>5.0</ele><time>2026-04-11T08:19:51.938Z</time></trkpt><trkpt lat="45.1944329" lon="11.7005558"><ele>5.0</ele><time>2026-04-11T08:19:52.938Z</time></trkpt><trkpt lat="45.1945712" lon="11.7003588"><ele>5.0</ele><time>2026-04-11T08:19:53.938Z</time></trkpt><trkpt lat="45.1946822" lon="11.7001603"><ele>5.666666666666667</ele><time>2026-04-11T08:19:54.938Z</time></trkpt><trkpt lat="45.1947683" lon="11.6999629"><ele>6.333333333333334</ele><time>2026-04-11T08:19:55.938Z</time></trkpt><trkpt lat="45.1948371" lon="11.6997698"><ele>7.0</ele><time>2026-04-11T08:19:56.938Z</time></trkpt><trkpt lat="45.194895" lon="11.6995641"><ele>6.666666666666667</ele><time>2026-04-11T08:19:57.938Z</time></trkpt><trkpt lat="45.1949467" lon="11.699362"><ele>6.333333333333334</ele><time>2026-04-11T08:19:58.938Z</time></trkpt><trkpt lat="45.194981" lon="11.6991402"><ele>6.0</ele><time>2026-04-11T08:19:59.938Z</time></trkpt><trkpt lat="45.194996" lon="11.6988947"><ele>6.0</ele><time>2026-04-11T08:20:00.938Z</time></trkpt><trkpt lat="45.195041" lon="11.6985851"><ele>6.0</ele><time>2026-04-11T08:20:01.938Z</time></trkpt><trkpt lat="45.1950576" lon="11.6981395"><ele>5.0</ele><time>2026-04-11T08:20:02.938Z</time></trkpt><trkpt lat="45.1950642" lon="11.6977299"><ele>4.0</ele><time>2026-04-11T08:20:03.938Z</time></trkpt><trkpt lat="45.1950628" lon="11.6973233"><ele>4.0</ele><time>2026-04-11T08:20:04.938Z</time></trkpt><trkpt lat="45.1950739" lon="11.6969822"><ele>4.0</ele><time>2026-04-11T08:20:05.938Z</time></trkpt><trkpt lat="45.195086" lon="11.6966465"><ele>4.333333333333333</ele><time>2026-04-11T08:20:06.938Z</time></trkpt><trkpt lat="45.1950919" lon="11.6963539"><ele>4.666666666666667</ele><time>2026-04-11T08:20:07.938Z</time></trkpt><trkpt lat="45.195121" lon="11.6960826"><ele>5.0</ele><time>2026-04-11T08:20:08.938Z</time></trkpt><trkpt lat="45.1951619" lon="11.6958368"><ele>5.333333333333334</ele><time>2026-04-11T08:20:09.938Z</time></trkpt><trkpt lat="45.1952069" lon="11.6956095"><ele>5.666666666666667</ele><time>2026-04-11T08:20:10.937Z</time></trkpt><trkpt lat="45.1952679" lon="11.6953925"><ele>6.0</ele><time>2026-04-11T08:20:11.938Z</time></trkpt><trkpt lat="45.1953309" lon="11.6951842"><ele>6.333333333333334</ele><time>2026-04-11T08:20:12.938Z</time></trkpt><trkpt lat="45.1954037" lon="11.6949854"><ele>6.666666666666667</ele><time>2026-04-11T08:20:13.938Z</time></trkpt><trkpt lat="45.1954819" lon="11.6947948"><ele>7.0</ele><time>2026-04-11T08:20:14.938Z</time></trkpt><trkpt lat="45.1955603" lon="11.694613"><ele>7.0</ele><time>2026-04-11T08:20:15.938Z</time></trkpt><trkpt lat="45.1956405" lon="11.6944353"><ele>7.0</ele><time>2026-04-11T08:20:16.938Z</time></trkpt><trkpt lat="45.1957194" lon="11.6942587"><ele>7.0</ele><time>2026-04-11T08:20:17.938Z</time></trkpt><trkpt lat="45.1957956" lon="11.6940863"><ele>7.0</ele><time>2026-04-11T08:20:18.938Z</time></trkpt><trkpt lat="45.1958696" lon="11.6939184"><ele>7.0</ele><time>2026-04-11T08:20:19.938Z</time></trkpt><trkpt lat="45.1959429" lon="11.6937506"><ele>7.0</ele><time>2026-04-11T08:20:20.937Z</time></trkpt><trkpt lat="45.1960143" lon="11.6935808"><ele>7.0</ele><time>2026-04-11T08:20:21.938Z</time></trkpt><trkpt lat="45.1960859" lon="11.6934135"><ele>7.0</ele><time>2026-04-11T08:20:22.938Z</time></trkpt><trkpt lat="45.196159" lon="11.6932499"><ele>6.75</ele><time>2026-04-11T08:20:23.938Z</time></trkpt><trkpt lat="45.1962331" lon="11.6930875"><ele>6.5</ele><time>2026-04-11T08:20:24.938Z</time></trkpt><trkpt lat="45.1963057" lon="11.6929274"><ele>6.25</ele><time>2026-04-11T08:20:25.938Z</time></trkpt><trkpt lat="45.1963788" lon="11.6927579"><ele>6.0</ele><time>2026-04-11T08:20:26.938Z</time></trkpt><trkpt lat="45.1964491" lon="11.692597"><ele>6.75</ele><time>2026-04-11T08:20:27.938Z</time></trkpt><trkpt lat="45.1965182" lon="11.6924344"><ele>7.5</ele><time>2026-04-11T08:20:28.938Z</time></trkpt><trkpt lat="45.1965877" lon="11.692274"><ele>8.25</ele><time>2026-04-11T08:20:29.938Z</time></trkpt><trkpt lat="45.1966565" lon="11.6921177"><ele>9.0</ele><time>2026-04-11T08:20:30.938Z</time></trkpt><trkpt lat="45.1967297" lon="11.6919611"><ele>8.5</ele><time>2026-04-11T08:20:31.938Z</time></trkpt><trkpt lat="45.1968009" lon="11.6918065"><ele>8.0</ele><time>2026-04-11T08:20:32.938Z</time></trkpt><trkpt lat="45.1968735" lon="11.6916437"><ele>7.5</ele><time>2026-04-11T08:20:33.938Z</time></trkpt><trkpt lat="45.1969494" lon="11.6914755"><ele>7.0</ele><time>2026-04-11T08:20:34.938Z</time></trkpt><trkpt lat="45.1970249" lon="11.6913038"><ele>7.0</ele><time>2026-04-11T08:20:35.938Z</time></trkpt><trkpt lat="45.197097" lon="11.6911465"><ele>7.0</ele><time>2026-04-11T08:20:36.938Z</time></trkpt><trkpt lat="45.1971614" lon="11.6909985"><ele>7.0</ele><time>2026-04-11T08:20:37.938Z</time></trkpt><trkpt lat="45.1972268" lon="11.6908522"><ele>7.0</ele><time>2026-04-11T08:20:38.938Z</time></trkpt><trkpt lat="45.1972914" lon="11.6907077"><ele>7.0</ele><time>2026-04-11T08:20:39.938Z</time></trkpt><trkpt lat="45.1973589" lon="11.6905589"><ele>7.0</ele><time>2026-04-11T08:20:40.938Z</time></trkpt><trkpt lat="45.1974305" lon="11.6903999"><ele>7.0</ele><time>2026-04-11T08:20:41.938Z</time></trkpt><trkpt lat="45.1975028" lon="11.6902253"><ele>7.0</ele><time>2026-04-11T08:20:42.938Z</time></trkpt><trkpt lat="45.1975796" lon="11.6900489"><ele>7.333333333333334</ele><time>2026-04-11T08:20:43.938Z</time></trkpt><trkpt lat="45.1976587" lon="11.6898683"><ele>7.666666666666666</ele><time>2026-04-11T08:20:44.938Z</time></trkpt><trkpt lat="45.1977374" lon="11.6896883"><ele>8.0</ele><time>2026-04-11T08:20:45.938Z</time></trkpt><trkpt lat="45.1978188" lon="11.6895051"><ele>7.666666666666666</ele><time>2026-04-11T08:20:46.938Z</time></trkpt><trkpt lat="45.1978969" lon="11.6893209"><ele>7.333333333333334</ele><time>2026-04-11T08:20:47.938Z</time></trkpt><trkpt lat="45.1979806" lon="11.6891325"><ele>7.0</ele><time>2026-04-11T08:20:48.938Z</time></trkpt><trkpt lat="45.1980627" lon="11.6889462"><ele>7.0</ele><time>2026-04-11T08:20:49.938Z</time></trkpt><trkpt lat="45.1981477" lon="11.6887572"><ele>7.0</ele><time>2026-04-11T08:20:50.937Z</time></trkpt><trkpt lat="45.1982318" lon="11.6885721"><ele>7.0</ele><time>2026-04-11T08:20:51.938Z</time></trkpt><trkpt lat="45.198317" lon="11.6883855"><ele>7.333333333333334</ele><time>2026-04-11T08:20:52.938Z</time></trkpt><trkpt lat="45.1983989" lon="11.6882018"><ele>7.666666666666666</ele><time>2026-04-11T08:20:53.938Z</time></trkpt><trkpt lat="45.1984812" lon="11.6880155"><ele>8.0</ele><time>2026-04-11T08:20:54.938Z</time></trkpt><trkpt lat="45.1985593" lon="11.6878331"><ele>8.0</ele><time>2026-04-11T08:20:55.937Z</time></trkpt><trkpt lat="45.1986365" lon="11.6876652"><ele>8.0</ele><time>2026-04-11T08:20:56.938Z</time></trkpt><trkpt lat="45.198717" lon="11.6875191"><ele>8.0</ele><time>2026-04-11T08:20:57.938Z</time></trkpt><trkpt lat="45.1988007" lon="11.6873937"><ele>8.0</ele><time>2026-04-11T08:20:58.938Z</time></trkpt><trkpt lat="45.198899" lon="11.6872929"><ele>8.0</ele><time>2026-04-11T08:20:59.938Z</time></trkpt><trkpt lat="45.19901" lon="11.6872187"><ele>8.0</ele><time>2026-04-11T08:21:00.938Z</time></trkpt><trkpt lat="45.1991303" lon="11.6871711"><ele>8.0</ele><time>2026-04-11T08:21:01.938Z</time></trkpt><trkpt lat="45.1992608" lon="11.6871504"><ele>8.0</ele><time>2026-04-11T08:21:02.938Z</time></trkpt><trkpt lat="45.1993951" lon="11.6871573"><ele>8.0</ele><time>2026-04-11T08:21:03.938Z</time></trkpt><trkpt lat="45.1995286" lon="11.6871966"><ele>8.0</ele><time>2026-04-11T08:21:04.938Z</time></trkpt><trkpt lat="45.1996613" lon="11.6872505"><ele>8.0</ele><time>2026-04-11T08:21:05.938Z</time></trkpt><trkpt lat="45.1997946" lon="11.6873147"><ele>8.0</ele><time>2026-04-11T08:21:06.938Z</time></trkpt><trkpt lat="45.1999303" lon="11.6873841"><ele>8.5</ele><time>2026-04-11T08:21:07.937Z</time></trkpt><trkpt lat="45.2000659" lon="11.6874605"><ele>9.0</ele><time>2026-04-11T08:21:08.938Z</time></trkpt><trkpt lat="45.2001994" lon="11.6875319"><ele>9.5</ele><time>2026-04-11T08:21:09.938Z</time></trkpt><trkpt lat="45.2003193" lon="11.6876001"><ele>10.0</ele><time>2026-04-11T08:21:10.938Z</time></trkpt><trkpt lat="45.2004227" lon="11.6876604"><ele>10.0</ele><time>2026-04-11T08:21:11.938Z</time></trkpt><trkpt lat="45.2005213" lon="11.6877094"><ele>10.0</ele><time>2026-04-11T08:21:12.938Z</time></trkpt><trkpt lat="45.2006041" lon="11.6877478"><ele>10.0</ele><time>2026-04-11T08:21:13.938Z</time></trkpt><trkpt lat="45.2006826" lon="11.6877802"><ele>10.0</ele><time>2026-04-11T08:21:14.938Z</time></trkpt><trkpt lat="45.2007571" lon="11.6877871"><ele>10.0</ele><time>2026-04-11T08:21:15.938Z</time></trkpt><trkpt lat="45.2008246" lon="11.6877707"><ele>10.0</ele><time>2026-04-11T08:21:16.938Z</time></trkpt><trkpt lat="45.2008844" lon="11.6877409"><ele>10.2</ele><time>2026-04-11T08:21:17.938Z</time></trkpt><trkpt lat="45.200975" lon="11.6877161"><ele>10.4</ele><time>2026-04-11T08:21:19.938Z</time></trkpt><trkpt lat="45.2010816" lon="11.6877591"><ele>10.600000000000001</ele><time>2026-04-11T08:21:22.938Z</time></trkpt><trkpt lat="45.201143" lon="11.6878082"><ele>10.8</ele><time>2026-04-11T08:21:23.938Z</time></trkpt><trkpt lat="45.2012414" lon="11.6879322"><ele>11.0</ele><time>2026-04-11T08:21:24.938Z</time></trkpt><trkpt lat="45.2013273" lon="11.6880422"><ele>10.600000000000001</ele><time>2026-04-11T08:21:25.938Z</time></trkpt><trkpt lat="45.2014154" lon="11.6881503"><ele>10.200000000000001</ele><time>2026-04-11T08:21:26.938Z</time></trkpt><trkpt lat="45.2014981" lon="11.6882471"><ele>9.8</ele><time>2026-04-11T08:21:27.938Z</time></trkpt><trkpt lat="45.2015834" lon="11.688341"><ele>9.4</ele><time>2026-04-11T08:21:28.938Z</time></trkpt><trkpt lat="45.2016731" lon="11.6884117"><ele>9.0</ele><time>2026-04-11T08:21:29.938Z</time></trkpt><trkpt lat="45.2017697" lon="11.6884759"><ele>9.0</ele><time>2026-04-11T08:21:30.938Z</time></trkpt><trkpt lat="45.201868" lon="11.6885334"><ele>9.0</ele><time>2026-04-11T08:21:31.938Z</time></trkpt><trkpt lat="45.2019735" lon="11.6885892"><ele>9.0</ele><time>2026-04-11T08:21:32.938Z</time></trkpt><trkpt lat="45.2020865" lon="11.6886456"><ele>9.0</ele><time>2026-04-11T08:21:33.938Z</time></trkpt><trkpt lat="45.2021932" lon="11.6886974"><ele>8.75</ele><time>2026-04-11T08:21:34.938Z</time></trkpt><trkpt lat="45.2023079" lon="11.6887526"><ele>8.5</ele><time>2026-04-11T08:21:35.938Z</time></trkpt><trkpt lat="45.2024188" lon="11.6888051"><ele>8.25</ele><time>2026-04-11T08:21:36.938Z</time></trkpt><trkpt lat="45.202531" lon="11.6888629"><ele>8.0</ele><time>2026-04-11T08:21:37.938Z</time></trkpt><trkpt lat="45.2026441" lon="11.6889153"><ele>8.5</ele><time>2026-04-11T08:21:38.938Z</time></trkpt><trkpt lat="45.2027593" lon="11.6889706"><ele>9.0</ele><time>2026-04-11T08:21:39.938Z</time></trkpt><trkpt lat="45.2028748" lon="11.689026"><ele>9.5</ele><time>2026-04-11T08:21:40.938Z</time></trkpt><trkpt lat="45.2029918" lon="11.6890871"><ele>10.0</ele><time>2026-04-11T08:21:41.938Z</time></trkpt><trkpt lat="45.2031082" lon="11.6891522"><ele>9.75</ele><time>2026-04-11T08:21:42.938Z</time></trkpt><trkpt lat="45.2032195" lon="11.6892051"><ele>9.5</ele><time>2026-04-11T08:21:43.938Z</time></trkpt><trkpt lat="45.2033335" lon="11.6892553"><ele>9.25</ele><time>2026-04-11T08:21:44.938Z</time></trkpt><trkpt lat="45.2034482" lon="11.6893058"><ele>9.0</ele><time>2026-04-11T08:21:45.938Z</time></trkpt><trkpt lat="45.2035599" lon="11.6893532"><ele>9.0</ele><time>2026-04-11T08:21:46.938Z</time></trkpt><trkpt lat="45.2036704" lon="11.6894062"><ele>9.0</ele><time>2026-04-11T08:21:47.938Z</time></trkpt><trkpt lat="45.2037837" lon="11.6894499"><ele>9.0</ele><time>2026-04-11T08:21:48.938Z</time></trkpt><trkpt lat="45.2039005" lon="11.689489"><ele>9.0</ele><time>2026-04-11T08:21:49.937Z</time></trkpt><trkpt lat="45.2040211" lon="11.6895192"><ele>8.75</ele><time>2026-04-11T08:21:50.937Z</time></trkpt><trkpt lat="45.204146" lon="11.6895489"><ele>8.5</ele><time>2026-04-11T08:21:51.937Z</time></trkpt><trkpt lat="45.2042665" lon="11.6895759"><ele>8.25</ele><time>2026-04-11T08:21:52.938Z</time></trkpt><trkpt lat="45.2043891" lon="11.6896041"><ele>8.0</ele><time>2026-04-11T08:21:53.938Z</time></trkpt><trkpt lat="45.2045127" lon="11.6896208"><ele>8.0</ele><time>2026-04-11T08:21:54.938Z</time></trkpt><trkpt lat="45.2046449" lon="11.6896285"><ele>8.0</ele><time>2026-04-11T08:21:55.938Z</time></trkpt><trkpt lat="45.2047812" lon="11.6896279"><ele>8.0</ele><time>2026-04-11T08:21:56.938Z</time></trkpt><trkpt lat="45.2049168" lon="11.6896162"><ele>8.0</ele><time>2026-04-11T08:21:57.938Z</time></trkpt><trkpt lat="45.2050528" lon="11.6896083"><ele>8.0</ele><time>2026-04-11T08:21:58.938Z</time></trkpt><trkpt lat="45.2051924" lon="11.689593"><ele>8.0</ele><time>2026-04-11T08:21:59.938Z</time></trkpt><trkpt lat="45.2053346" lon="11.6895744"><ele>8.0</ele><time>2026-04-11T08:22:00.938Z</time></trkpt><trkpt lat="45.205472" lon="11.6895358"><ele>8.0</ele><time>2026-04-11T08:22:01.938Z</time></trkpt><trkpt lat="45.2056088" lon="11.6894777"><ele>8.0</ele><time>2026-04-11T08:22:02.938Z</time></trkpt><trkpt lat="45.2057355" lon="11.6893882"><ele>8.0</ele><time>2026-04-11T08:22:03.938Z</time></trkpt><trkpt lat="45.2058526" lon="11.6892786"><ele>8.0</ele><time>2026-04-11T08:22:04.938Z</time></trkpt><trkpt lat="45.2059583" lon="11.6891515"><ele>8.0</ele><time>2026-04-11T08:22:05.938Z</time></trkpt><trkpt lat="45.2060637" lon="11.6890203"><ele>8.0</ele><time>2026-04-11T08:22:06.938Z</time></trkpt><trkpt lat="45.2061589" lon="11.688895"><ele>8.0</ele><time>2026-04-11T08:22:07.937Z</time></trkpt><trkpt lat="45.2062464" lon="11.6887825"><ele>8.0</ele><time>2026-04-11T08:22:08.937Z</time></trkpt><trkpt lat="45.2063215" lon="11.6886884"><ele>8.0</ele><time>2026-04-11T08:22:09.937Z</time></trkpt><trkpt lat="45.2063866" lon="11.688614"><ele>8.0</ele><time>2026-04-11T08:22:10.938Z</time></trkpt><trkpt lat="45.2064416" lon="11.6885442"><ele>7.999999999999999</ele><time>2026-04-11T08:22:11.938Z</time></trkpt><trkpt lat="45.2065296" lon="11.6884416"><ele>8.0</ele><time>2026-04-11T08:22:13.938Z</time></trkpt><trkpt lat="45.2066313" lon="11.6884335"><ele>8.0</ele><time>2026-04-11T08:22:15.938Z</time></trkpt><trkpt lat="45.2066939" lon="11.6884637"><ele>8.0</ele><time>2026-04-11T08:22:16.938Z</time></trkpt><trkpt lat="45.2067651" lon="11.6885197"><ele>7.999999999999999</ele><time>2026-04-11T08:22:17.938Z</time></trkpt><trkpt lat="45.2068381" lon="11.6885571"><ele>8.0</ele><time>2026-04-11T08:22:18.938Z</time></trkpt><trkpt lat="45.2069087" lon="11.6885512"><ele>7.999999999999999</ele><time>2026-04-11T08:22:19.938Z</time></trkpt><trkpt lat="45.206981" lon="11.6885165"><ele>8.0</ele><time>2026-04-11T08:22:20.938Z</time></trkpt><trkpt lat="45.2070362" lon="11.6884568"><ele>8.0</ele><time>2026-04-11T08:22:21.938Z</time></trkpt><trkpt lat="45.2070819" lon="11.6883613"><ele>8.0</ele><time>2026-04-11T08:22:22.938Z</time></trkpt><trkpt lat="45.2071026" lon="11.6882447"><ele>7.999999999999999</ele><time>2026-04-11T08:22:23.938Z</time></trkpt><trkpt lat="45.2071071" lon="11.6881246"><ele>8.0</ele><time>2026-04-11T08:22:24.938Z</time></trkpt><trkpt lat="45.2071429" lon="11.6880009"><ele>8.0</ele><time>2026-04-11T08:22:25.938Z</time></trkpt><trkpt lat="45.2071774" lon="11.6878708"><ele>8.0</ele><time>2026-04-11T08:22:26.938Z</time></trkpt><trkpt lat="45.2072231" lon="11.687722"><ele>8.0</ele><time>2026-04-11T08:22:27.938Z</time></trkpt><trkpt lat="45.2072808" lon="11.6875771"><ele>8.0</ele><time>2026-04-11T08:22:28.938Z</time></trkpt><trkpt lat="45.2073503" lon="11.6874355"><ele>8.0</ele><time>2026-04-11T08:22:29.937Z</time></trkpt><trkpt lat="45.2074307" lon="11.6872823"><ele>8.0</ele><time>2026-04-11T08:22:30.938Z</time></trkpt><trkpt lat="45.207531" lon="11.6871083"><ele>8.0</ele><time>2026-04-11T08:22:31.938Z</time></trkpt><trkpt lat="45.2076511" lon="11.6868934"><ele>8.5</ele><time>2026-04-11T08:22:32.938Z</time></trkpt><trkpt lat="45.207803" lon="11.6866335"><ele>9.0</ele><time>2026-04-11T08:22:33.938Z</time></trkpt><trkpt lat="45.2079506" lon="11.6863967"><ele>9.0</ele><time>2026-04-11T08:22:34.938Z</time></trkpt><trkpt lat="45.2080846" lon="11.6861915"><ele>9.0</ele><time>2026-04-11T08:22:35.938Z</time></trkpt><trkpt lat="45.2081972" lon="11.6860141"><ele>9.0</ele><time>2026-04-11T08:22:36.938Z</time></trkpt><trkpt lat="45.2082896" lon="11.6858472"><ele>9.0</ele><time>2026-04-11T08:22:37.938Z</time></trkpt><trkpt lat="45.2083757" lon="11.6856998"><ele>9.0</ele><time>2026-04-11T08:22:38.938Z</time></trkpt><trkpt lat="45.2084641" lon="11.685559"><ele>9.0</ele><time>2026-04-11T08:22:39.938Z</time></trkpt><trkpt lat="45.2085545" lon="11.6854159"><ele>9.0</ele><time>2026-04-11T08:22:40.938Z</time></trkpt><trkpt lat="45.2086475" lon="11.6852616"><ele>9.0</ele><time>2026-04-11T08:22:41.938Z</time></trkpt><trkpt lat="45.2087513" lon="11.685093"><ele>9.0</ele><time>2026-04-11T08:22:42.938Z</time></trkpt><trkpt lat="45.2088603" lon="11.6849107"><ele>9.0</ele><time>2026-04-11T08:22:43.937Z</time></trkpt><trkpt lat="45.2090099" lon="11.6847"><ele>9.0</ele><time>2026-04-11T08:22:44.937Z</time></trkpt><trkpt lat="45.2091542" lon="11.6845175"><ele>9.0</ele><time>2026-04-11T08:22:45.938Z</time></trkpt><trkpt lat="45.2093013" lon="11.684334"><ele>9.0</ele><time>2026-04-11T08:22:46.938Z</time></trkpt><trkpt lat="45.2094328" lon="11.684157"><ele>9.0</ele><time>2026-04-11T08:22:47.938Z</time></trkpt><trkpt lat="45.2095621" lon="11.6839895"><ele>9.0</ele><time>2026-04-11T08:22:48.938Z</time></trkpt><trkpt lat="45.20968" lon="11.683837"><ele>9.0</ele><time>2026-04-11T08:22:49.937Z</time></trkpt><trkpt lat="45.2097974" lon="11.6836912"><ele>8.666666666666666</ele><time>2026-04-11T08:22:50.938Z</time></trkpt><trkpt lat="45.2099011" lon="11.6835299"><ele>8.333333333333332</ele><time>2026-04-11T08:22:51.938Z</time></trkpt><trkpt lat="45.2100006" lon="11.6833641"><ele>8.0</ele><time>2026-04-11T08:22:52.938Z</time></trkpt><trkpt lat="45.2100961" lon="11.683183"><ele>8.0</ele><time>2026-04-11T08:22:53.938Z</time></trkpt><trkpt lat="45.2101791" lon="11.6829901"><ele>8.0</ele><time>2026-04-11T08:22:54.938Z</time></trkpt><trkpt lat="45.2102477" lon="11.6827865"><ele>8.0</ele><time>2026-04-11T08:22:55.938Z</time></trkpt><trkpt lat="45.2103063" lon="11.6825767"><ele>8.0</ele><time>2026-04-11T08:22:56.938Z</time></trkpt><trkpt lat="45.2103568" lon="11.6823593"><ele>8.0</ele><time>2026-04-11T08:22:57.938Z</time></trkpt><trkpt lat="45.2103972" lon="11.6821308"><ele>8.0</ele><time>2026-04-11T08:22:58.938Z</time></trkpt><trkpt lat="45.2104266" lon="11.6819085"><ele>8.0</ele><time>2026-04-11T08:22:59.938Z</time></trkpt><trkpt lat="45.2104525" lon="11.6816936"><ele>8.0</ele><time>2026-04-11T08:23:00.938Z</time></trkpt><trkpt lat="45.2104822" lon="11.6814851"><ele>8.0</ele><time>2026-04-11T08:23:01.938Z</time></trkpt><trkpt lat="45.2105086" lon="11.6812761"><ele>8.0</ele><time>2026-04-11T08:23:02.938Z</time></trkpt><trkpt lat="45.2105332" lon="11.681075"><ele>8.0</ele><time>2026-04-11T08:23:03.937Z</time></trkpt><trkpt lat="45.2105663" lon="11.6808649"><ele>8.0</ele><time>2026-04-11T08:23:04.938Z</time></trkpt><trkpt lat="45.2105904" lon="11.6806586"><ele>8.0</ele><time>2026-04-11T08:23:05.938Z</time></trkpt><trkpt lat="45.2106171" lon="11.680454"><ele>8.0</ele><time>2026-04-11T08:23:06.938Z</time></trkpt><trkpt lat="45.2106458" lon="11.6802511"><ele>8.0</ele><time>2026-04-11T08:23:07.937Z</time></trkpt><trkpt lat="45.2106804" lon="11.6800554"><ele>8.0</ele><time>2026-04-11T08:23:08.938Z</time></trkpt><trkpt lat="45.2107225" lon="11.6798573"><ele>8.0</ele><time>2026-04-11T08:23:09.938Z</time></trkpt><trkpt lat="45.2107698" lon="11.6796621"><ele>8.25</ele><time>2026-04-11T08:23:10.938Z</time></trkpt><trkpt lat="45.2108148" lon="11.6794667"><ele>8.5</ele><time>2026-04-11T08:23:11.938Z</time></trkpt><trkpt lat="45.2108613" lon="11.6792752"><ele>8.75</ele><time>2026-04-11T08:23:12.938Z</time></trkpt><trkpt lat="45.2109132" lon="11.6790807"><ele>9.0</ele><time>2026-04-11T08:23:13.938Z</time></trkpt><trkpt lat="45.2109648" lon="11.6788901"><ele>9.0</ele><time>2026-04-11T08:23:14.938Z</time></trkpt><trkpt lat="45.2110224" lon="11.6787012"><ele>9.0</ele><time>2026-04-11T08:23:15.938Z</time></trkpt><trkpt lat="45.2110747" lon="11.678509"><ele>9.0</ele><time>2026-04-11T08:23:16.937Z</time></trkpt><trkpt lat="45.211126" lon="11.6783138"><ele>9.0</ele><time>2026-04-11T08:23:17.937Z</time></trkpt><trkpt lat="45.2111753" lon="11.6781165"><ele>9.0</ele><time>2026-04-11T08:23:18.938Z</time></trkpt><trkpt lat="45.2112214" lon="11.6779424"><ele>9.0</ele><time>2026-04-11T08:23:19.938Z</time></trkpt><trkpt lat="45.2112641" lon="11.6777713"><ele>9.0</ele><time>2026-04-11T08:23:20.938Z</time></trkpt><trkpt lat="45.2113037" lon="11.6776224"><ele>9.0</ele><time>2026-04-11T08:23:21.938Z</time></trkpt><trkpt lat="45.2113536" lon="11.6775033"><ele>9.0</ele><time>2026-04-11T08:23:22.937Z</time></trkpt><trkpt lat="45.2114194" lon="11.6774278"><ele>9.0</ele><time>2026-04-11T08:23:23.938Z</time></trkpt><trkpt lat="45.2114911" lon="11.6773985"><ele>9.0</ele><time>2026-04-11T08:23:24.938Z</time></trkpt><trkpt lat="45.2116031" lon="11.6773411"><ele>9.0</ele><time>2026-04-11T08:23:26.938Z</time></trkpt><trkpt lat="45.2116543" lon="11.6772091"><ele>9.0</ele><time>2026-04-11T08:23:28.938Z</time></trkpt><trkpt lat="45.2116106" lon="11.6770372"><ele>8.75</ele><time>2026-04-11T08:23:30.938Z</time></trkpt><trkpt lat="45.2115773" lon="11.6769219"><ele>8.5</ele><time>2026-04-11T08:23:31.938Z</time></trkpt><trkpt lat="45.2115747" lon="11.6767949"><ele>8.25</ele><time>2026-04-11T08:23:32.938Z</time></trkpt><trkpt lat="45.2116028" lon="11.6766359"><ele>8.0</ele><time>2026-04-11T08:23:33.938Z</time></trkpt><trkpt lat="45.2116699" lon="11.6764237"><ele>8.0</ele><time>2026-04-11T08:23:34.938Z</time></trkpt><trkpt lat="45.211735" lon="11.6761773"><ele>8.0</ele><time>2026-04-11T08:23:35.938Z</time></trkpt><trkpt lat="45.2117941" lon="11.6759183"><ele>8.0</ele><time>2026-04-11T08:23:36.938Z</time></trkpt><trkpt lat="45.2118539" lon="11.6756804"><ele>8.333333333333332</ele><time>2026-04-11T08:23:37.938Z</time></trkpt><trkpt lat="45.2119135" lon="11.6754542"><ele>8.666666666666666</ele><time>2026-04-11T08:23:38.938Z</time></trkpt><trkpt lat="45.2119682" lon="11.6752494"><ele>9.0</ele><time>2026-04-11T08:23:39.938Z</time></trkpt><trkpt lat="45.2120194" lon="11.6750589"><ele>9.5</ele><time>2026-04-11T08:23:40.938Z</time></trkpt><trkpt lat="45.212066" lon="11.6748783"><ele>10.0</ele><time>2026-04-11T08:23:41.938Z</time></trkpt><trkpt lat="45.2121128" lon="11.6746996"><ele>10.5</ele><time>2026-04-11T08:23:42.938Z</time></trkpt><trkpt lat="45.2121541" lon="11.674524"><ele>11.0</ele><time>2026-04-11T08:23:43.938Z</time></trkpt><trkpt lat="45.212205" lon="11.6743521"><ele>11.0</ele><time>2026-04-11T08:23:44.938Z</time></trkpt><trkpt lat="45.2122587" lon="11.6741732"><ele>11.0</ele><time>2026-04-11T08:23:45.938Z</time></trkpt><trkpt lat="45.2123185" lon="11.6740029"><ele>11.0</ele><time>2026-04-11T08:23:46.937Z</time></trkpt><trkpt lat="45.2123898" lon="11.6738328"><ele>11.0</ele><time>2026-04-11T08:23:47.938Z</time></trkpt><trkpt lat="45.2124714" lon="11.6736749"><ele>10.25</ele><time>2026-04-11T08:23:48.938Z</time></trkpt><trkpt lat="45.2125638" lon="11.673526"><ele>9.5</ele><time>2026-04-11T08:23:49.938Z</time></trkpt><trkpt lat="45.212668" lon="11.6733893"><ele>8.75</ele><time>2026-04-11T08:23:50.938Z</time></trkpt><trkpt lat="45.2127812" lon="11.6732616"><ele>8.0</ele><time>2026-04-11T08:23:51.938Z</time></trkpt><trkpt lat="45.2128946" lon="11.6731294"><ele>8.0</ele><time>2026-04-11T08:23:52.938Z</time></trkpt><trkpt lat="45.2130073" lon="11.6730089"><ele>8.0</ele><time>2026-04-11T08:23:53.938Z</time></trkpt><trkpt lat="45.2131184" lon="11.6728857"><ele>8.0</ele><time>2026-04-11T08:23:54.938Z</time></trkpt><trkpt lat="45.2132338" lon="11.6727719"><ele>8.0</ele><time>2026-04-11T08:23:55.938Z</time></trkpt><trkpt lat="45.2133442" lon="11.6726514"><ele>8.25</ele><time>2026-04-11T08:23:56.938Z</time></trkpt><trkpt lat="45.2134507" lon="11.6725294"><ele>8.5</ele><time>2026-04-11T08:23:57.938Z</time></trkpt><trkpt lat="45.2135546" lon="11.6724009"><ele>8.75</ele><time>2026-04-11T08:23:58.938Z</time></trkpt><trkpt lat="45.2136697" lon="11.672274"><ele>9.0</ele><time>2026-04-11T08:23:59.938Z</time></trkpt><trkpt lat="45.2137659" lon="11.6721335"><ele>9.0</ele><time>2026-04-11T08:24:00.938Z</time></trkpt><trkpt lat="45.213867" lon="11.6719847"><ele>9.0</ele><time>2026-04-11T08:24:01.938Z</time></trkpt><trkpt lat="45.2139686" lon="11.671841"><ele>9.0</ele><time>2026-04-11T08:24:02.937Z</time></trkpt><trkpt lat="45.2140747" lon="11.6716982"><ele>9.0</ele><time>2026-04-11T08:24:03.938Z</time></trkpt><trkpt lat="45.2141796" lon="11.6715484"><ele>9.0</ele><time>2026-04-11T08:24:04.938Z</time></trkpt><trkpt lat="45.214281" lon="11.6713961"><ele>9.0</ele><time>2026-04-11T08:24:05.938Z</time></trkpt><trkpt lat="45.2143886" lon="11.6712501"><ele>9.0</ele><time>2026-04-11T08:24:06.938Z</time></trkpt><trkpt lat="45.214491" lon="11.6710978"><ele>9.0</ele><time>2026-04-11T08:24:07.938Z</time></trkpt><trkpt lat="45.214593" lon="11.6709505"><ele>9.0</ele><time>2026-04-11T08:24:08.937Z</time></trkpt><trkpt lat="45.2146907" lon="11.6708013"><ele>9.0</ele><time>2026-04-11T08:24:09.938Z</time></trkpt><trkpt lat="45.2147922" lon="11.6706574"><ele>9.0</ele><time>2026-04-11T08:24:10.938Z</time></trkpt><trkpt lat="45.2148939" lon="11.670509"><ele>9.0</ele><time>2026-04-11T08:24:11.938Z</time></trkpt><trkpt lat="45.214995" lon="11.6703625"><ele>9.0</ele><time>2026-04-11T08:24:12.938Z</time></trkpt><trkpt lat="45.2150997" lon="11.6702125"><ele>9.0</ele><time>2026-04-11T08:24:13.938Z</time></trkpt><trkpt lat="45.2152073" lon="11.6700591"><ele>9.0</ele><time>2026-04-11T08:24:14.938Z</time></trkpt><trkpt lat="45.2153126" lon="11.669907"><ele>9.0</ele><time>2026-04-11T08:24:15.938Z</time></trkpt><trkpt lat="45.2154191" lon="11.6697499"><ele>9.0</ele><time>2026-04-11T08:24:16.937Z</time></trkpt><trkpt lat="45.215525" lon="11.6695965"><ele>9.0</ele><time>2026-04-11T08:24:17.938Z</time></trkpt><trkpt lat="45.215633" lon="11.6694389"><ele>8.75</ele><time>2026-04-11T08:24:18.937Z</time></trkpt><trkpt lat="45.2157371" lon="11.6692855"><ele>8.5</ele><time>2026-04-11T08:24:19.938Z</time></trkpt><trkpt lat="45.2158328" lon="11.6691355"><ele>8.25</ele><time>2026-04-11T08:24:20.938Z</time></trkpt><trkpt lat="45.2159205" lon="11.6690045"><ele>8.0</ele><time>2026-04-11T08:24:21.938Z</time></trkpt><trkpt lat="45.216007" lon="11.6689033"><ele>8.0</ele><time>2026-04-11T08:24:22.938Z</time></trkpt><trkpt lat="45.2160845" lon="11.6688003"><ele>8.0</ele><time>2026-04-11T08:24:23.938Z</time></trkpt><trkpt lat="45.216155" lon="11.6687159"><ele>8.0</ele><time>2026-04-11T08:24:24.938Z</time></trkpt><trkpt lat="45.2162085" lon="11.6686426"><ele>8.0</ele><time>2026-04-11T08:24:25.938Z</time></trkpt><trkpt lat="45.216261" lon="11.6685728"><ele>8.0</ele><time>2026-04-11T08:24:26.938Z</time></trkpt><trkpt lat="45.21635" lon="11.6684699"><ele>7.999999999999999</ele><time>2026-04-11T08:24:28.938Z</time></trkpt><trkpt lat="45.2164304" lon="11.6684038"><ele>8.0</ele><time>2026-04-11T08:24:30.938Z</time></trkpt><trkpt lat="45.2165012" lon="11.6683685"><ele>8.0</ele><time>2026-04-11T08:24:32.938Z</time></trkpt><trkpt lat="45.2165959" lon="11.6683753"><ele>8.0</ele><time>2026-04-11T08:24:34.938Z</time></trkpt><trkpt lat="45.2166492" lon="11.6683158"><ele>7.999999999999999</ele><time>2026-04-11T08:24:36.938Z</time></trkpt><trkpt lat="45.2166751" lon="11.6682044"><ele>8.0</ele><time>2026-04-11T08:24:38.938Z</time></trkpt><trkpt lat="45.2166818" lon="11.6681078"><ele>8.0</ele><time>2026-04-11T08:24:39.938Z</time></trkpt><trkpt lat="45.2167066" lon="11.6679956"><ele>8.0</ele><time>2026-04-11T08:24:40.938Z</time></trkpt><trkpt lat="45.2167438" lon="11.667887"><ele>8.0</ele><time>2026-04-11T08:24:41.938Z</time></trkpt><trkpt lat="45.2168085" lon="11.6678006"><ele>8.0</ele><time>2026-04-11T08:24:42.938Z</time></trkpt><trkpt lat="45.2168832" lon="11.6677023"><ele>8.0</ele><time>2026-04-11T08:24:43.938Z</time></trkpt><trkpt lat="45.2169502" lon="11.6676028"><ele>8.0</ele><time>2026-04-11T08:24:44.938Z</time></trkpt><trkpt lat="45.217011" lon="11.667507"><ele>8.0</ele><time>2026-04-11T08:24:45.938Z</time></trkpt><trkpt lat="45.217081" lon="11.6674096"><ele>8.0</ele><time>2026-04-11T08:24:46.938Z</time></trkpt><trkpt lat="45.2171496" lon="11.667305"><ele>8.0</ele><time>2026-04-11T08:24:47.938Z</time></trkpt><trkpt lat="45.2172256" lon="11.6671812"><ele>8.0</ele><time>2026-04-11T08:24:48.938Z</time></trkpt><trkpt lat="45.2173107" lon="11.6670531"><ele>8.25</ele><time>2026-04-11T08:24:49.938Z</time></trkpt><trkpt lat="45.2174025" lon="11.6669229"><ele>8.5</ele><time>2026-04-11T08:24:50.938Z</time></trkpt><trkpt lat="45.2174978" lon="11.6667926"><ele>8.75</ele><time>2026-04-11T08:24:51.938Z</time></trkpt><trkpt lat="45.2175878" lon="11.6666762"><ele>9.0</ele><time>2026-04-11T08:24:52.938Z</time></trkpt><trkpt lat="45.2176778" lon="11.6665459"><ele>9.0</ele><time>2026-04-11T08:24:53.938Z</time></trkpt><trkpt lat="45.2177613" lon="11.6664172"><ele>9.0</ele><time>2026-04-11T08:24:54.938Z</time></trkpt><trkpt lat="45.2178496" lon="11.6662932"><ele>9.0</ele><time>2026-04-11T08:24:55.938Z</time></trkpt><trkpt lat="45.2179381" lon="11.6661696"><ele>9.0</ele><time>2026-04-11T08:24:56.938Z</time></trkpt><trkpt lat="45.218032" lon="11.666047"><ele>9.0</ele><time>2026-04-11T08:24:57.938Z</time></trkpt><trkpt lat="45.2181204" lon="11.6659201"><ele>9.0</ele><time>2026-04-11T08:24:58.938Z</time></trkpt><trkpt lat="45.2182109" lon="11.6657931"><ele>9.0</ele><time>2026-04-11T08:24:59.938Z</time></trkpt><trkpt lat="45.2182997" lon="11.6656635"><ele>9.0</ele><time>2026-04-11T08:25:00.938Z</time></trkpt><trkpt lat="45.2183919" lon="11.6655344"><ele>9.0</ele><time>2026-04-11T08:25:01.938Z</time></trkpt><trkpt lat="45.218488" lon="11.6654031"><ele>9.0</ele><time>2026-04-11T08:25:02.938Z</time></trkpt><trkpt lat="45.2185807" lon="11.6652762"><ele>9.0</ele><time>2026-04-11T08:25:03.938Z</time></trkpt><trkpt lat="45.2186723" lon="11.6651515"><ele>9.0</ele><time>2026-04-11T08:25:04.938Z</time></trkpt><trkpt lat="45.2187624" lon="11.6650214"><ele>9.0</ele><time>2026-04-11T08:25:05.938Z</time></trkpt><trkpt lat="45.2188564" lon="11.6648892"><ele>9.0</ele><time>2026-04-11T08:25:06.938Z</time></trkpt><trkpt lat="45.2189584" lon="11.6647604"><ele>9.0</ele><time>2026-04-11T08:25:07.938Z</time></trkpt><trkpt lat="45.219054" lon="11.6646377"><ele>9.0</ele><time>2026-04-11T08:25:08.938Z</time></trkpt><trkpt lat="45.2191566" lon="11.6645186"><ele>9.5</ele><time>2026-04-11T08:25:09.938Z</time></trkpt><trkpt lat="45.2192579" lon="11.6644071"><ele>10.0</ele><time>2026-04-11T08:25:10.938Z</time></trkpt><trkpt lat="45.2193602" lon="11.6642866"><ele>10.5</ele><time>2026-04-11T08:25:11.938Z</time></trkpt><trkpt lat="45.2194666" lon="11.6641723"><ele>11.0</ele><time>2026-04-11T08:25:12.938Z</time></trkpt><trkpt lat="45.2195758" lon="11.6640587"><ele>11.0</ele><time>2026-04-11T08:25:13.938Z</time></trkpt><trkpt lat="45.2196821" lon="11.6639439"><ele>11.0</ele><time>2026-04-11T08:25:14.937Z</time></trkpt><trkpt lat="45.2197871" lon="11.663828"><ele>11.0</ele><time>2026-04-11T08:25:15.938Z</time></trkpt><trkpt lat="45.2198863" lon="11.6637044"><ele>11.0</ele><time>2026-04-11T08:25:16.938Z</time></trkpt><trkpt lat="45.2199823" lon="11.6635815"><ele>10.5</ele><time>2026-04-11T08:25:17.938Z</time></trkpt><trkpt lat="45.2200741" lon="11.6634418"><ele>10.0</ele><time>2026-04-11T08:25:18.938Z</time></trkpt><trkpt lat="45.2201545" lon="11.6632902"><ele>9.5</ele><time>2026-04-11T08:25:19.938Z</time></trkpt><trkpt lat="45.2202266" lon="11.6631313"><ele>9.0</ele><time>2026-04-11T08:25:20.938Z</time></trkpt><trkpt lat="45.2202868" lon="11.6629703"><ele>9.0</ele><time>2026-04-11T08:25:21.938Z</time></trkpt><trkpt lat="45.2203425" lon="11.6628146"><ele>9.0</ele><time>2026-04-11T08:25:22.938Z</time></trkpt><trkpt lat="45.2203914" lon="11.6626716"><ele>9.0</ele><time>2026-04-11T08:25:23.938Z</time></trkpt><trkpt lat="45.2204322" lon="11.6625331"><ele>9.0</ele><time>2026-04-11T08:25:24.938Z</time></trkpt><trkpt lat="45.2204632" lon="11.6624093"><ele>9.0</ele><time>2026-04-11T08:25:25.938Z</time></trkpt><trkpt lat="45.2204844" lon="11.6623221"><ele>9.0</ele><time>2026-04-11T08:25:26.938Z</time></trkpt><trkpt lat="45.2205172" lon="11.6621735"><ele>9.0</ele><time>2026-04-11T08:25:28.938Z</time></trkpt><trkpt lat="45.2205507" lon="11.6620216"><ele>9.0</ele><time>2026-04-11T08:25:30.938Z</time></trkpt><trkpt lat="45.2205747" lon="11.661916"><ele>9.0</ele><time>2026-04-11T08:25:31.937Z</time></trkpt><trkpt lat="45.2206048" lon="11.6617874"><ele>9.0</ele><time>2026-04-11T08:25:32.938Z</time></trkpt><trkpt lat="45.220632" lon="11.661656"><ele>8.8</ele><time>2026-04-11T08:25:33.938Z</time></trkpt><trkpt lat="45.2206665" lon="11.6614968"><ele>8.600000000000001</ele><time>2026-04-11T08:25:34.938Z</time></trkpt><trkpt lat="45.2206966" lon="11.661358"><ele>8.4</ele><time>2026-04-11T08:25:35.938Z</time></trkpt><trkpt lat="45.2207411" lon="11.6612414"><ele>8.200000000000001</ele><time>2026-04-11T08:25:36.938Z</time></trkpt><trkpt lat="45.2207957" lon="11.6611417"><ele>8.0</ele><time>2026-04-11T08:25:37.938Z</time></trkpt><trkpt lat="45.2208743" lon="11.6610604"><ele>8.333333333333332</ele><time>2026-04-11T08:25:38.938Z</time></trkpt><trkpt lat="45.2209606" lon="11.6610011"><ele>8.666666666666666</ele><time>2026-04-11T08:25:39.938Z</time></trkpt><trkpt lat="45.2210513" lon="11.6609834"><ele>9.0</ele><time>2026-04-11T08:25:40.938Z</time></trkpt><trkpt lat="45.2211345" lon="11.6609816"><ele>9.333333333333334</ele><time>2026-04-11T08:25:41.938Z</time></trkpt><trkpt lat="45.2212085" lon="11.6610018"><ele>9.666666666666668</ele><time>2026-04-11T08:25:42.938Z</time></trkpt><trkpt lat="45.2212706" lon="11.6610243"><ele>10.0</ele><time>2026-04-11T08:25:43.938Z</time></trkpt><trkpt lat="45.2213307" lon="11.6610648"><ele>10.2</ele><time>2026-04-11T08:25:44.938Z</time></trkpt><trkpt lat="45.2213932" lon="11.6611283"><ele>10.4</ele><time>2026-04-11T08:25:45.938Z</time></trkpt><trkpt lat="45.2214502" lon="11.6612003"><ele>10.600000000000001</ele><time>2026-04-11T08:25:46.938Z</time></trkpt><trkpt lat="45.2215066" lon="11.6612913"><ele>10.8</ele><time>2026-04-11T08:25:47.938Z</time></trkpt><trkpt lat="45.2215754" lon="11.661431"><ele>11.0</ele><time>2026-04-11T08:25:48.938Z</time></trkpt><trkpt lat="45.2216581" lon="11.6616516"><ele>11.0</ele><time>2026-04-11T08:25:49.938Z</time></trkpt><trkpt lat="45.2217282" lon="11.6618664"><ele>11.0</ele><time>2026-04-11T08:25:50.937Z</time></trkpt><trkpt lat="45.2217999" lon="11.6620729"><ele>11.0</ele><time>2026-04-11T08:25:51.938Z</time></trkpt><trkpt lat="45.2218377" lon="11.6622259"><ele>11.0</ele><time>2026-04-11T08:25:52.938Z</time></trkpt><trkpt lat="45.2218863" lon="11.6623651"><ele>11.166666666666666</ele><time>2026-04-11T08:25:53.938Z</time></trkpt><trkpt lat="45.2219187" lon="11.6624687"><ele>11.333333333333332</ele><time>2026-04-11T08:25:54.938Z</time></trkpt><trkpt lat="45.2219577" lon="11.6626074"><ele>11.5</ele><time>2026-04-11T08:25:56.938Z</time></trkpt><trkpt lat="45.2220294" lon="11.6626828"><ele>11.666666666666666</ele><time>2026-04-11T08:25:59.938Z</time></trkpt><trkpt lat="45.2220931" lon="11.6626692"><ele>11.833333333333334</ele><time>2026-04-11T08:26:00.938Z</time></trkpt><trkpt lat="45.2221693" lon="11.6626389"><ele>12.0</ele><time>2026-04-11T08:26:01.938Z</time></trkpt><trkpt lat="45.2222632" lon="11.6625913"><ele>12.0</ele><time>2026-04-11T08:26:02.938Z</time></trkpt><trkpt lat="45.22236" lon="11.6625437"><ele>12.0</ele><time>2026-04-11T08:26:03.938Z</time></trkpt><trkpt lat="45.2224559" lon="11.6624906"><ele>12.0</ele><time>2026-04-11T08:26:04.938Z</time></trkpt><trkpt lat="45.222541" lon="11.6624466"><ele>12.0</ele><time>2026-04-11T08:26:05.938Z</time></trkpt><trkpt lat="45.2226186" lon="11.6624232"><ele>12.0</ele><time>2026-04-11T08:26:06.938Z</time></trkpt><trkpt lat="45.2226847" lon="11.6623827"><ele>12.0</ele><time>2026-04-11T08:26:07.938Z</time></trkpt><trkpt lat="45.2227699" lon="11.6623344"><ele>12.0</ele><time>2026-04-11T08:26:09.938Z</time></trkpt><trkpt lat="45.2228217" lon="11.6622807"><ele>12.0</ele><time>2026-04-11T08:26:53.938Z</time></trkpt><trkpt lat="45.2228888" lon="11.6622652"><ele>12.0</ele><time>2026-04-11T08:26:54.938Z</time></trkpt><trkpt lat="45.2230001" lon="11.6622276"><ele>12.0</ele><time>2026-04-11T08:26:56.938Z</time></trkpt><trkpt lat="45.223089" lon="11.662192"><ele>12.0</ele><time>2026-04-11T08:26:58.938Z</time></trkpt><trkpt lat="45.2231632" lon="11.6621663"><ele>12.0</ele><time>2026-04-11T08:27:00.937Z</time></trkpt><trkpt lat="45.2232282" lon="11.6621323"><ele>12.0</ele><time>2026-04-11T08:27:01.938Z</time></trkpt><trkpt lat="45.223336" lon="11.6620958"><ele>12.0</ele><time>2026-04-11T08:27:02.938Z</time></trkpt><trkpt lat="45.2234397" lon="11.6620562"><ele>12.0</ele><time>2026-04-11T08:27:03.938Z</time></trkpt><trkpt lat="45.2235654" lon="11.6620148"><ele>12.0</ele><time>2026-04-11T08:27:04.938Z</time></trkpt><trkpt lat="45.223681" lon="11.6619766"><ele>12.0</ele><time>2026-04-11T08:27:05.937Z</time></trkpt><trkpt lat="45.2237933" lon="11.661934"><ele>12.0</ele><time>2026-04-11T08:27:06.938Z</time></trkpt><trkpt lat="45.223887" lon="11.6618931"><ele>12.0</ele><time>2026-04-11T08:27:07.938Z</time></trkpt><trkpt lat="45.2239806" lon="11.6618645"><ele>12.0</ele><time>2026-04-11T08:27:08.938Z</time></trkpt><trkpt lat="45.2240811" lon="11.6618291"><ele>12.0</ele><time>2026-04-11T08:27:09.938Z</time></trkpt><trkpt lat="45.2241758" lon="11.6617842"><ele>11.833333333333334</ele><time>2026-04-11T08:27:10.938Z</time></trkpt><trkpt lat="45.2242667" lon="11.6617563"><ele>11.666666666666666</ele><time>2026-04-11T08:27:11.938Z</time></trkpt><trkpt lat="45.2243505" lon="11.6617271"><ele>11.5</ele><time>2026-04-11T08:27:12.938Z</time></trkpt><trkpt lat="45.2244298" lon="11.6616975"><ele>11.333333333333332</ele><time>2026-04-11T08:27:13.938Z</time></trkpt><trkpt lat="45.2245096" lon="11.6616596"><ele>11.166666666666666</ele><time>2026-04-11T08:27:14.938Z</time></trkpt><trkpt lat="45.2245946" lon="11.6615993"><ele>11.0</ele><time>2026-04-11T08:27:15.938Z</time></trkpt><trkpt lat="45.2246917" lon="11.6615396"><ele>11.0</ele><time>2026-04-11T08:27:16.938Z</time></trkpt><trkpt lat="45.2247752" lon="11.661471"><ele>11.0</ele><time>2026-04-11T08:27:17.938Z</time></trkpt><trkpt lat="45.2248356" lon="11.6614081"><ele>11.0</ele><time>2026-04-11T08:27:18.938Z</time></trkpt><trkpt lat="45.2249227" lon="11.6613161"><ele>11.0</ele><time>2026-04-11T08:27:20.938Z</time></trkpt><trkpt lat="45.2249841" lon="11.6612652"><ele>11.0</ele><time>2026-04-11T08:27:23.937Z</time></trkpt><trkpt lat="45.2250564" lon="11.6612278"><ele>11.0</ele><time>2026-04-11T08:27:26.938Z</time></trkpt><trkpt lat="45.2251339" lon="11.6611541"><ele>11.0</ele><time>2026-04-11T08:27:28.938Z</time></trkpt><trkpt lat="45.2252065" lon="11.6610647"><ele>11.0</ele><time>2026-04-11T08:27:30.938Z</time></trkpt><trkpt lat="45.2252897" lon="11.6609233"><ele>11.0</ele><time>2026-04-11T08:27:32.938Z</time></trkpt><trkpt lat="45.2253586" lon="11.6608406"><ele>11.0</ele><time>2026-04-11T08:27:33.938Z</time></trkpt><trkpt lat="45.2254251" lon="11.660761"><ele>11.0</ele><time>2026-04-11T08:27:34.938Z</time></trkpt><trkpt lat="45.2254927" lon="11.6606838"><ele>11.0</ele><time>2026-04-11T08:27:35.938Z</time></trkpt><trkpt lat="45.2255523" lon="11.6606118"><ele>11.0</ele><time>2026-04-11T08:27:36.938Z</time></trkpt><trkpt lat="45.2256115" lon="11.6605292"><ele>11.0</ele><time>2026-04-11T08:27:37.938Z</time></trkpt><trkpt lat="45.2257075" lon="11.6604197"><ele>11.0</ele><time>2026-04-11T08:27:39.938Z</time></trkpt><trkpt lat="45.225785" lon="11.6603272"><ele>11.0</ele><time>2026-04-11T08:27:41.938Z</time></trkpt><trkpt lat="45.2258466" lon="11.6602535"><ele>11.5</ele><time>2026-04-11T08:27:43.938Z</time></trkpt><trkpt lat="45.2259133" lon="11.6602221"><ele>12.0</ele><time>2026-04-11T08:27:45.938Z</time></trkpt><trkpt lat="45.2260041" lon="11.6603039"><ele>12.5</ele><time>2026-04-11T08:27:47.938Z</time></trkpt><trkpt lat="45.2260634" lon="11.6603641"><ele>13.0</ele><time>2026-04-11T08:27:48.938Z</time></trkpt><trkpt lat="45.2261185" lon="11.6604079"><ele>13.500000000000002</ele><time>2026-04-11T08:27:49.938Z</time></trkpt><trkpt lat="45.2261943" lon="11.6604645"><ele>14.0</ele><time>2026-04-11T08:27:50.938Z</time></trkpt><trkpt lat="45.2262647" lon="11.6605099"><ele>14.0</ele><time>2026-04-11T08:27:51.937Z</time></trkpt><trkpt lat="45.2263809" lon="11.6605459"><ele>13.999999999999998</ele><time>2026-04-11T08:27:53.938Z</time></trkpt><trkpt lat="45.2264974" lon="11.6605744"><ele>13.999999999999998</ele><time>2026-04-11T08:27:55.938Z</time></trkpt><trkpt lat="45.2266041" lon="11.6606163"><ele>14.0</ele><time>2026-04-11T08:27:57.938Z</time></trkpt><trkpt lat="45.2266965" lon="11.6606729"><ele>14.0</ele><time>2026-04-11T08:27:59.938Z</time></trkpt><trkpt lat="45.2267839" lon="11.6607263"><ele>13.666666666666668</ele><time>2026-04-11T08:28:01.938Z</time></trkpt><trkpt lat="45.2268669" lon="11.6607383"><ele>13.333333333333334</ele><time>2026-04-11T08:28:03.938Z</time></trkpt><trkpt lat="45.2269398" lon="11.6606773"><ele>13.0</ele><time>2026-04-11T08:28:05.938Z</time></trkpt><trkpt lat="45.2269908" lon="11.6606074"><ele>12.666666666666668</ele><time>2026-04-11T08:28:07.938Z</time></trkpt><trkpt lat="45.2270379" lon="11.6605273"><ele>12.333333333333334</ele><time>2026-04-11T08:28:09.938Z</time></trkpt><trkpt lat="45.2271011" lon="11.6604138"><ele>12.0</ele><time>2026-04-11T08:28:11.937Z</time></trkpt><trkpt lat="45.2271618" lon="11.6603171"><ele>12.0</ele><time>2026-04-11T08:28:13.938Z</time></trkpt><trkpt lat="45.2272138" lon="11.6602261"><ele>12.0</ele><time>2026-04-11T08:28:15.938Z</time></trkpt><trkpt lat="45.227276" lon="11.6601099"><ele>12.0</ele><time>2026-04-11T08:28:17.938Z</time></trkpt><trkpt lat="45.2273397" lon="11.660004"><ele>12.0</ele><time>2026-04-11T08:28:19.938Z</time></trkpt><trkpt lat="45.2274019" lon="11.6598717"><ele>12.0</ele><time>2026-04-11T08:28:21.938Z</time></trkpt><trkpt lat="45.2274704" lon="11.6597464"><ele>11.8</ele><time>2026-04-11T08:28:23.938Z</time></trkpt><trkpt lat="45.2275376" lon="11.6596298"><ele>11.6</ele><time>2026-04-11T08:28:25.938Z</time></trkpt><trkpt lat="45.2276036" lon="11.6595257"><ele>11.4</ele><time>2026-04-11T08:28:27.938Z</time></trkpt><trkpt lat="45.2276635" lon="11.6594154"><ele>11.200000000000001</ele><time>2026-04-11T08:28:29.938Z</time></trkpt><trkpt lat="45.2276987" lon="11.6593409"><ele>11.0</ele><time>2026-04-11T08:28:31.938Z</time></trkpt><trkpt lat="45.2277474" lon="11.659241"><ele>11.0</ele><time>2026-04-11T08:28:33.938Z</time></trkpt><trkpt lat="45.2277991" lon="11.6591489"><ele>11.0</ele><time>2026-04-11T08:28:35.938Z</time></trkpt><trkpt lat="45.2278385" lon="11.6590659"><ele>11.0</ele><time>2026-04-11T08:28:37.938Z</time></trkpt><trkpt lat="45.2278657" lon="11.6589734"><ele>11.0</ele><time>2026-04-11T08:28:47.938Z</time></trkpt><trkpt lat="45.227905" lon="11.6588835"><ele>11.0</ele><time>2026-04-11T08:28:49.938Z</time></trkpt><trkpt lat="45.2279467" lon="11.6587791"><ele>11.0</ele><time>2026-04-11T08:28:51.938Z</time></trkpt><trkpt lat="45.2279991" lon="11.658654"><ele>11.166666666666666</ele><time>2026-04-11T08:28:53.938Z</time></trkpt><trkpt lat="45.2280617" lon="11.6585395"><ele>11.333333333333332</ele><time>2026-04-11T08:28:55.938Z</time></trkpt><trkpt lat="45.2281149" lon="11.658427"><ele>11.5</ele><time>2026-04-11T08:28:57.938Z</time></trkpt><trkpt lat="45.2281595" lon="11.6583401"><ele>11.666666666666666</ele><time>2026-04-11T08:28:59.938Z</time></trkpt><trkpt lat="45.2281938" lon="11.6582313"><ele>11.833333333333334</ele><time>2026-04-11T08:29:01.938Z</time></trkpt><trkpt lat="45.228222" lon="11.6581323"><ele>12.0</ele><time>2026-04-11T08:29:03.938Z</time></trkpt><trkpt lat="45.228253" lon="11.6580417"><ele>12.285714285714285</ele><time>2026-04-11T08:29:15.938Z</time></trkpt><trkpt lat="45.2283051" lon="11.6579627"><ele>12.571428571428571</ele><time>2026-04-11T08:29:18.938Z</time></trkpt><trkpt lat="45.2283587" lon="11.6579143"><ele>12.857142857142858</ele><time>2026-04-11T08:29:20.938Z</time></trkpt><trkpt lat="45.2283772" lon="11.6578139"><ele>13.142857142857142</ele><time>2026-04-11T08:29:24.938Z</time></trkpt><trkpt lat="45.2283971" lon="11.6577185"><ele>13.428571428571429</ele><time>2026-04-11T08:29:43.937Z</time></trkpt><trkpt lat="45.2284524" lon="11.657629"><ele>13.714285714285714</ele><time>2026-04-11T08:29:48.938Z</time></trkpt><trkpt lat="45.2285219" lon="11.6575655"><ele>14.0</ele><time>2026-04-11T08:29:57.938Z</time></trkpt><trkpt lat="45.2285728" lon="11.6574818"><ele>14.0</ele><time>2026-04-11T08:29:59.938Z</time></trkpt><trkpt lat="45.2286194" lon="11.6574017"><ele>13.999999999999998</ele><time>2026-04-11T08:30:01.938Z</time></trkpt><trkpt lat="45.2286738" lon="11.6572843"><ele>13.999999999999998</ele><time>2026-04-11T08:30:03.938Z</time></trkpt><trkpt lat="45.2287434" lon="11.6571543"><ele>14.0</ele><time>2026-04-11T08:30:05.938Z</time></trkpt><trkpt lat="45.2288182" lon="11.6570176"><ele>14.0</ele><time>2026-04-11T08:30:07.938Z</time></trkpt><trkpt lat="45.2288835" lon="11.6568802"><ele>14.0</ele><time>2026-04-11T08:30:09.938Z</time></trkpt><trkpt lat="45.2289466" lon="11.6567632"><ele>13.999999999999998</ele><time>2026-04-11T08:30:11.938Z</time></trkpt><trkpt lat="45.2290051" lon="11.6566605"><ele>13.999999999999998</ele><time>2026-04-11T08:30:13.938Z</time></trkpt><trkpt lat="45.2290716" lon="11.6565399"><ele>14.0</ele><time>2026-04-11T08:30:15.938Z</time></trkpt><trkpt lat="45.2291534" lon="11.6563908"><ele>14.0</ele><time>2026-04-11T08:30:17.938Z</time></trkpt><trkpt lat="45.2292022" lon="11.6563075"><ele>14.000000000000002</ele><time>2026-04-11T08:30:18.938Z</time></trkpt><trkpt lat="45.2292563" lon="11.6562072"><ele>14.0</ele><time>2026-04-11T08:30:19.938Z</time></trkpt><trkpt lat="45.2293129" lon="11.6561158"><ele>14.0</ele><time>2026-04-11T08:30:20.938Z</time></trkpt><trkpt lat="45.2293706" lon="11.6560179"><ele>14.0</ele><time>2026-04-11T08:30:21.938Z</time></trkpt><trkpt lat="45.2294287" lon="11.6559204"><ele>14.000000000000002</ele><time>2026-04-11T08:30:22.938Z</time></trkpt><trkpt lat="45.229485" lon="11.6558273"><ele>14.0</ele><time>2026-04-11T08:30:23.938Z</time></trkpt><trkpt lat="45.2295363" lon="11.6557397"><ele>14.000000000000002</ele><time>2026-04-11T08:30:24.938Z</time></trkpt><trkpt lat="45.2295862" lon="11.6556562"><ele>14.0</ele><time>2026-04-11T08:30:25.938Z</time></trkpt><trkpt lat="45.2296329" lon="11.6555801"><ele>14.0</ele><time>2026-04-11T08:30:26.938Z</time></trkpt><trkpt lat="45.2296839" lon="11.6554971"><ele>14.0</ele><time>2026-04-11T08:30:27.938Z</time></trkpt><trkpt lat="45.2297286" lon="11.6554019"><ele>14.000000000000002</ele><time>2026-04-11T08:30:28.938Z</time></trkpt><trkpt lat="45.2297806" lon="11.6553091"><ele>14.0</ele><time>2026-04-11T08:30:29.938Z</time></trkpt><trkpt lat="45.2298335" lon="11.6552193"><ele>13.714285714285714</ele><time>2026-04-11T08:30:30.938Z</time></trkpt><trkpt lat="45.2298822" lon="11.6551349"><ele>13.428571428571429</ele><time>2026-04-11T08:30:31.938Z</time></trkpt><trkpt lat="45.2299251" lon="11.6550628"><ele>13.142857142857142</ele><time>2026-04-11T08:30:32.938Z</time></trkpt><trkpt lat="45.2299857" lon="11.6549634"><ele>12.857142857142858</ele><time>2026-04-11T08:30:34.938Z</time></trkpt><trkpt lat="45.2300426" lon="11.6548809"><ele>12.571428571428571</ele><time>2026-04-11T08:30:37.938Z</time></trkpt><trkpt lat="45.2300842" lon="11.6548123"><ele>12.285714285714285</ele><time>2026-04-11T08:30:54.938Z</time></trkpt><trkpt lat="45.2301261" lon="11.6547373"><ele>12.0</ele><time>2026-04-11T08:30:57.938Z</time></trkpt><trkpt lat="45.2302137" lon="11.6546233"><ele>11.999999999999998</ele><time>2026-04-11T08:30:59.938Z</time></trkpt><trkpt lat="45.2302584" lon="11.6545513"><ele>12.0</ele><time>2026-04-11T08:31:00.938Z</time></trkpt><trkpt lat="45.2303048" lon="11.6544789"><ele>12.0</ele><time>2026-04-11T08:31:01.938Z</time></trkpt><trkpt lat="45.2303581" lon="11.6544009"><ele>12.0</ele><time>2026-04-11T08:31:02.938Z</time></trkpt><trkpt lat="45.2304138" lon="11.65433"><ele>12.0</ele><time>2026-04-11T08:31:03.938Z</time></trkpt><trkpt lat="45.2304712" lon="11.6542572"><ele>11.999999999999998</ele><time>2026-04-11T08:31:04.938Z</time></trkpt><trkpt lat="45.2305244" lon="11.6541779"><ele>12.0</ele><time>2026-04-11T08:31:05.938Z</time></trkpt><trkpt lat="45.2305795" lon="11.6540992"><ele>12.0</ele><time>2026-04-11T08:31:06.938Z</time></trkpt><trkpt lat="45.2306433" lon="11.654025"><ele>12.0</ele><time>2026-04-11T08:31:07.938Z</time></trkpt><trkpt lat="45.2307022" lon="11.6539365"><ele>12.0</ele><time>2026-04-11T08:31:08.938Z</time></trkpt><trkpt lat="45.2307676" lon="11.6538491"><ele>12.0</ele><time>2026-04-11T08:31:09.938Z</time></trkpt><trkpt lat="45.2308329" lon="11.6537633"><ele>12.0</ele><time>2026-04-11T08:31:10.938Z</time></trkpt><trkpt lat="45.2309001" lon="11.6536649"><ele>12.0</ele><time>2026-04-11T08:31:11.938Z</time></trkpt><trkpt lat="45.2309698" lon="11.6535713"><ele>12.0</ele><time>2026-04-11T08:31:12.938Z</time></trkpt><trkpt lat="45.2310382" lon="11.6534669"><ele>12.0</ele><time>2026-04-11T08:31:13.938Z</time></trkpt><trkpt lat="45.2311069" lon="11.6533689"><ele>12.0</ele><time>2026-04-11T08:31:14.938Z</time></trkpt><trkpt lat="45.2311753" lon="11.6532612"><ele>12.0</ele><time>2026-04-11T08:31:15.938Z</time></trkpt><trkpt lat="45.2312504" lon="11.6531627"><ele>12.0</ele><time>2026-04-11T08:31:16.938Z</time></trkpt><trkpt lat="45.2313265" lon="11.6530547"><ele>12.0</ele><time>2026-04-11T08:31:17.938Z</time></trkpt><trkpt lat="45.2314183" lon="11.6529249"><ele>12.0</ele><time>2026-04-11T08:31:18.938Z</time></trkpt><trkpt lat="45.2315358" lon="11.6527776"><ele>12.0</ele><time>2026-04-11T08:31:19.937Z</time></trkpt><trkpt lat="45.2316599" lon="11.6526341"><ele>12.0</ele><time>2026-04-11T08:31:20.938Z</time></trkpt><trkpt lat="45.2317906" lon="11.6525136"><ele>12.25</ele><time>2026-04-11T08:31:21.938Z</time></trkpt><trkpt lat="45.2319069" lon="11.6524167"><ele>12.5</ele><time>2026-04-11T08:31:22.938Z</time></trkpt><trkpt lat="45.2320103" lon="11.6523288"><ele>12.75</ele><time>2026-04-11T08:31:23.938Z</time></trkpt><trkpt lat="45.2321069" lon="11.6522471"><ele>13.0</ele><time>2026-04-11T08:31:24.938Z</time></trkpt><trkpt lat="45.2321825" lon="11.6521608"><ele>13.0</ele><time>2026-04-11T08:31:25.938Z</time></trkpt><trkpt lat="45.2322494" lon="11.6520603"><ele>13.0</ele><time>2026-04-11T08:31:26.938Z</time></trkpt><trkpt lat="45.2323267" lon="11.6519544"><ele>13.0</ele><time>2026-04-11T08:31:27.938Z</time></trkpt><trkpt lat="45.2323985" lon="11.6518446"><ele>13.0</ele><time>2026-04-11T08:31:28.938Z</time></trkpt><trkpt lat="45.2324716" lon="11.6517239"><ele>13.0</ele><time>2026-04-11T08:31:29.938Z</time></trkpt><trkpt lat="45.2325406" lon="11.6516038"><ele>12.999999999999998</ele><time>2026-04-11T08:31:30.938Z</time></trkpt><trkpt lat="45.2326013" lon="11.6514953"><ele>13.0</ele><time>2026-04-11T08:31:31.938Z</time></trkpt><trkpt lat="45.2326576" lon="11.6513943"><ele>13.0</ele><time>2026-04-11T08:31:32.938Z</time></trkpt><trkpt lat="45.2327145" lon="11.6512941"><ele>13.0</ele><time>2026-04-11T08:31:33.938Z</time></trkpt><trkpt lat="45.2327622" lon="11.6512126"><ele>12.999999999999998</ele><time>2026-04-11T08:31:34.938Z</time></trkpt><trkpt lat="45.2328081" lon="11.6511261"><ele>13.0</ele><time>2026-04-11T08:31:36.938Z</time></trkpt><trkpt lat="45.232873" lon="11.6510297"><ele>13.0</ele><time>2026-04-11T08:31:45.938Z</time></trkpt><trkpt lat="45.2329375" lon="11.6509109"><ele>13.0</ele><time>2026-04-11T08:31:47.938Z</time></trkpt><trkpt lat="45.2330067" lon="11.6507887"><ele>13.0</ele><time>2026-04-11T08:31:49.938Z</time></trkpt><trkpt lat="45.2330721" lon="11.6506681"><ele>13.0</ele><time>2026-04-11T08:31:51.938Z</time></trkpt><trkpt lat="45.233115" lon="11.6505994"><ele>13.0</ele><time>2026-04-11T08:31:52.938Z</time></trkpt><trkpt lat="45.2331691" lon="11.6505059"><ele>13.0</ele><time>2026-04-11T08:31:53.938Z</time></trkpt><trkpt lat="45.2332244" lon="11.6503988"><ele>13.0</ele><time>2026-04-11T08:31:54.938Z</time></trkpt><trkpt lat="45.2332869" lon="11.6502848"><ele>13.0</ele><time>2026-04-11T08:31:55.938Z</time></trkpt><trkpt lat="45.233354" lon="11.6501707"><ele>13.0</ele><time>2026-04-11T08:31:56.938Z</time></trkpt><trkpt lat="45.2334281" lon="11.6500725"><ele>13.0</ele><time>2026-04-11T08:31:57.938Z</time></trkpt><trkpt lat="45.233505" lon="11.6499772"><ele>13.0</ele><time>2026-04-11T08:31:58.938Z</time></trkpt><trkpt lat="45.233591" lon="11.6498869"><ele>13.0</ele><time>2026-04-11T08:31:59.938Z</time></trkpt><trkpt lat="45.2336853" lon="11.6498053"><ele>13.0</ele><time>2026-04-11T08:32:00.938Z</time></trkpt><trkpt lat="45.2337876" lon="11.6497408"><ele>13.0</ele><time>2026-04-11T08:32:01.938Z</time></trkpt><trkpt lat="45.2338937" lon="11.6496909"><ele>13.0</ele><time>2026-04-11T08:32:02.938Z</time></trkpt><trkpt lat="45.2340109" lon="11.6496471"><ele>13.0</ele><time>2026-04-11T08:32:03.938Z</time></trkpt><trkpt lat="45.2341356" lon="11.6496181"><ele>13.0</ele><time>2026-04-11T08:32:04.938Z</time></trkpt><trkpt lat="45.2342618" lon="11.649606"><ele>13.0</ele><time>2026-04-11T08:32:05.937Z</time></trkpt><trkpt lat="45.2343976" lon="11.6496134"><ele>13.0</ele><time>2026-04-11T08:32:06.938Z</time></trkpt><trkpt lat="45.2345398" lon="11.6496447"><ele>13.0</ele><time>2026-04-11T08:32:07.938Z</time></trkpt><trkpt lat="45.2346887" lon="11.6496956"><ele>13.0</ele><time>2026-04-11T08:32:08.938Z</time></trkpt><trkpt lat="45.2348289" lon="11.6497415"><ele>13.0</ele><time>2026-04-11T08:32:09.938Z</time></trkpt><trkpt lat="45.2349541" lon="11.6497601"><ele>13.0</ele><time>2026-04-11T08:32:10.938Z</time></trkpt><trkpt lat="45.2350867" lon="11.6497475"><ele>13.0</ele><time>2026-04-11T08:32:11.938Z</time></trkpt><trkpt lat="45.2352227" lon="11.6497184"><ele>13.0</ele><time>2026-04-11T08:32:12.938Z</time></trkpt><trkpt lat="45.2353371" lon="11.6496313"><ele>13.0</ele><time>2026-04-11T08:32:13.938Z</time></trkpt><trkpt lat="45.2354572" lon="11.6495484"><ele>13.0</ele><time>2026-04-11T08:32:14.938Z</time></trkpt><trkpt lat="45.2355805" lon="11.6494528"><ele>13.5</ele><time>2026-04-11T08:32:15.938Z</time></trkpt><trkpt lat="45.2357071" lon="11.6493584"><ele>14.0</ele><time>2026-04-11T08:32:16.938Z</time></trkpt><trkpt lat="45.23584" lon="11.6492651"><ele>14.5</ele><time>2026-04-11T08:32:17.938Z</time></trkpt><trkpt lat="45.2359642" lon="11.649177"><ele>15.0</ele><time>2026-04-11T08:32:18.938Z</time></trkpt><trkpt lat="45.2360859" lon="11.6490869"><ele>15.0</ele><time>2026-04-11T08:32:19.938Z</time></trkpt><trkpt lat="45.2361996" lon="11.6490015"><ele>15.0</ele><time>2026-04-11T08:32:20.938Z</time></trkpt><trkpt lat="45.2363135" lon="11.6489132"><ele>15.0</ele><time>2026-04-11T08:32:21.938Z</time></trkpt><trkpt lat="45.2364307" lon="11.64882"><ele>15.0</ele><time>2026-04-11T08:32:22.938Z</time></trkpt><trkpt lat="45.236555" lon="11.6487296"><ele>15.0</ele><time>2026-04-11T08:32:23.938Z</time></trkpt><trkpt lat="45.2366797" lon="11.6486365"><ele>15.0</ele><time>2026-04-11T08:32:24.938Z</time></trkpt><trkpt lat="45.2368031" lon="11.648541"><ele>15.0</ele><time>2026-04-11T08:32:25.938Z</time></trkpt><trkpt lat="45.2369297" lon="11.6484488"><ele>15.0</ele><time>2026-04-11T08:32:26.938Z</time></trkpt><trkpt lat="45.2370514" lon="11.6483594"><ele>15.0</ele><time>2026-04-11T08:32:27.938Z</time></trkpt><trkpt lat="45.2371719" lon="11.6482786"><ele>15.0</ele><time>2026-04-11T08:32:28.938Z</time></trkpt><trkpt lat="45.2373011" lon="11.6482048"><ele>15.0</ele><time>2026-04-11T08:32:29.938Z</time></trkpt><trkpt lat="45.237424" lon="11.6481189"><ele>15.0</ele><time>2026-04-11T08:32:30.938Z</time></trkpt><trkpt lat="45.2375523" lon="11.6480238"><ele>15.0</ele><time>2026-04-11T08:32:31.938Z</time></trkpt><trkpt lat="45.2376792" lon="11.6479329"><ele>15.0</ele><time>2026-04-11T08:32:32.938Z</time></trkpt><trkpt lat="45.2378084" lon="11.647837"><ele>15.0</ele><time>2026-04-11T08:32:33.938Z</time></trkpt><trkpt lat="45.2379367" lon="11.6477399"><ele>15.0</ele><time>2026-04-11T08:32:34.938Z</time></trkpt><trkpt lat="45.238057" lon="11.6476386"><ele>14.75</ele><time>2026-04-11T08:32:35.938Z</time></trkpt><trkpt lat="45.2381646" lon="11.6475084"><ele>14.5</ele><time>2026-04-11T08:32:36.938Z</time></trkpt><trkpt lat="45.2382586" lon="11.6473572"><ele>14.25</ele><time>2026-04-11T08:32:37.937Z</time></trkpt><trkpt lat="45.238335" lon="11.6471767"><ele>14.0</ele><time>2026-04-11T08:32:38.938Z</time></trkpt><trkpt lat="45.2384078" lon="11.646996"><ele>14.25</ele><time>2026-04-11T08:32:39.938Z</time></trkpt><trkpt lat="45.238481" lon="11.646821"><ele>14.5</ele><time>2026-04-11T08:32:40.938Z</time></trkpt><trkpt lat="45.2385575" lon="11.6466678"><ele>14.75</ele><time>2026-04-11T08:32:41.938Z</time></trkpt><trkpt lat="45.2386407" lon="11.6465229"><ele>15.0</ele><time>2026-04-11T08:32:42.937Z</time></trkpt><trkpt lat="45.2387425" lon="11.646386"><ele>15.0</ele><time>2026-04-11T08:32:43.938Z</time></trkpt><trkpt lat="45.2388546" lon="11.6462631"><ele>15.0</ele><time>2026-04-11T08:32:44.938Z</time></trkpt><trkpt lat="45.2389743" lon="11.6461494"><ele>15.0</ele><time>2026-04-11T08:32:45.938Z</time></trkpt><trkpt lat="45.2391119" lon="11.6460552"><ele>15.0</ele><time>2026-04-11T08:32:46.938Z</time></trkpt><trkpt lat="45.2392559" lon="11.6459622"><ele>14.666666666666668</ele><time>2026-04-11T08:32:47.938Z</time></trkpt><trkpt lat="45.2394052" lon="11.6458637"><ele>14.333333333333334</ele><time>2026-04-11T08:32:48.938Z</time></trkpt><trkpt lat="45.2395549" lon="11.6457697"><ele>14.0</ele><time>2026-04-11T08:32:49.938Z</time></trkpt><trkpt lat="45.2397012" lon="11.6456817"><ele>14.75</ele><time>2026-04-11T08:32:50.938Z</time></trkpt><trkpt lat="45.2398356" lon="11.6455978"><ele>15.5</ele><time>2026-04-11T08:32:51.938Z</time></trkpt><trkpt lat="45.2399706" lon="11.6455096"><ele>16.25</ele><time>2026-04-11T08:32:52.938Z</time></trkpt><trkpt lat="45.2401055" lon="11.6454274"><ele>17.0</ele><time>2026-04-11T08:32:53.938Z</time></trkpt><trkpt lat="45.240239" lon="11.645346"><ele>15.666666666666668</ele><time>2026-04-11T08:32:54.938Z</time></trkpt><trkpt lat="45.24038" lon="11.645253"><ele>14.333333333333332</ele><time>2026-04-11T08:32:55.938Z</time></trkpt><trkpt lat="45.2405337" lon="11.6451609"><ele>13.0</ele><time>2026-04-11T08:32:56.938Z</time></trkpt><trkpt lat="45.2406863" lon="11.6450621"><ele>13.0</ele><time>2026-04-11T08:32:57.938Z</time></trkpt><trkpt lat="45.2408485" lon="11.6449783"><ele>13.0</ele><time>2026-04-11T08:32:58.937Z</time></trkpt><trkpt lat="45.2409938" lon="11.6448824"><ele>13.0</ele><time>2026-04-11T08:32:59.938Z</time></trkpt><trkpt lat="45.2411454" lon="11.6447965"><ele>13.0</ele><time>2026-04-11T08:33:00.938Z</time></trkpt><trkpt lat="45.2412956" lon="11.6447184"><ele>13.0</ele><time>2026-04-11T08:33:01.938Z</time></trkpt><trkpt lat="45.2414448" lon="11.6446301"><ele>13.0</ele><time>2026-04-11T08:33:02.938Z</time></trkpt><trkpt lat="45.2415902" lon="11.64454"><ele>13.0</ele><time>2026-04-11T08:33:03.938Z</time></trkpt><trkpt lat="45.2417386" lon="11.6444698"><ele>13.0</ele><time>2026-04-11T08:33:04.937Z</time></trkpt><trkpt lat="45.2418755" lon="11.6443843"><ele>13.0</ele><time>2026-04-11T08:33:05.938Z</time></trkpt><trkpt lat="45.2420276" lon="11.6443067"><ele>13.0</ele><time>2026-04-11T08:33:06.938Z</time></trkpt><trkpt lat="45.2421842" lon="11.6442261"><ele>13.0</ele><time>2026-04-11T08:33:07.938Z</time></trkpt><trkpt lat="45.2423425" lon="11.644161"><ele>13.0</ele><time>2026-04-11T08:33:08.938Z</time></trkpt><trkpt lat="45.2425127" lon="11.6440934"><ele>13.666666666666666</ele><time>2026-04-11T08:33:09.938Z</time></trkpt><trkpt lat="45.2426789" lon="11.6440366"><ele>14.333333333333332</ele><time>2026-04-11T08:33:10.938Z</time></trkpt><trkpt lat="45.2428337" lon="11.6439778"><ele>15.0</ele><time>2026-04-11T08:33:11.938Z</time></trkpt><trkpt lat="45.2429888" lon="11.6439232"><ele>15.333333333333332</ele><time>2026-04-11T08:33:12.938Z</time></trkpt><trkpt lat="45.2431457" lon="11.6438736"><ele>15.666666666666666</ele><time>2026-04-11T08:33:13.938Z</time></trkpt><trkpt lat="45.2433026" lon="11.6438122"><ele>16.0</ele><time>2026-04-11T08:33:14.938Z</time></trkpt><trkpt lat="45.2434574" lon="11.6437578"><ele>16.0</ele><time>2026-04-11T08:33:15.938Z</time></trkpt><trkpt lat="45.2436131" lon="11.6436964"><ele>16.0</ele><time>2026-04-11T08:33:16.938Z</time></trkpt><trkpt lat="45.2437695" lon="11.6436339"><ele>16.0</ele><time>2026-04-11T08:33:17.938Z</time></trkpt><trkpt lat="45.2439182" lon="11.6435804"><ele>14.666666666666666</ele><time>2026-04-11T08:33:18.938Z</time></trkpt><trkpt lat="45.2440676" lon="11.6435146"><ele>13.333333333333332</ele><time>2026-04-11T08:33:19.938Z</time></trkpt><trkpt lat="45.2442181" lon="11.6434535"><ele>12.0</ele><time>2026-04-11T08:33:20.938Z</time></trkpt><trkpt lat="45.2443617" lon="11.6434049"><ele>12.0</ele><time>2026-04-11T08:33:21.938Z</time></trkpt><trkpt lat="45.2445118" lon="11.6433474"><ele>12.0</ele><time>2026-04-11T08:33:22.938Z</time></trkpt><trkpt lat="45.244665" lon="11.6432877"><ele>12.0</ele><time>2026-04-11T08:33:23.938Z</time></trkpt><trkpt lat="45.2448169" lon="11.6432328"><ele>12.75</ele><time>2026-04-11T08:33:24.938Z</time></trkpt><trkpt lat="45.2449626" lon="11.6431836"><ele>13.5</ele><time>2026-04-11T08:33:25.938Z</time></trkpt><trkpt lat="45.2450922" lon="11.6431366"><ele>14.25</ele><time>2026-04-11T08:33:26.938Z</time></trkpt><trkpt lat="45.2452242" lon="11.6430894"><ele>15.0</ele><time>2026-04-11T08:33:27.938Z</time></trkpt><trkpt lat="45.2453604" lon="11.6430438"><ele>15.0</ele><time>2026-04-11T08:33:28.938Z</time></trkpt><trkpt lat="45.2455144" lon="11.643012"><ele>15.0</ele><time>2026-04-11T08:33:29.938Z</time></trkpt><trkpt lat="45.2456576" lon="11.6429899"><ele>15.0</ele><time>2026-04-11T08:33:30.938Z</time></trkpt><trkpt lat="45.2457869" lon="11.6429733"><ele>15.0</ele><time>2026-04-11T08:33:31.937Z</time></trkpt><trkpt lat="45.2459121" lon="11.6429656"><ele>15.25</ele><time>2026-04-11T08:33:32.938Z</time></trkpt><trkpt lat="45.2460415" lon="11.6429546"><ele>15.5</ele><time>2026-04-11T08:33:33.938Z</time></trkpt><trkpt lat="45.246162" lon="11.6429443"><ele>15.75</ele><time>2026-04-11T08:33:34.938Z</time></trkpt><trkpt lat="45.2462918" lon="11.6429221"><ele>16.0</ele><time>2026-04-11T08:33:35.938Z</time></trkpt><trkpt lat="45.2464227" lon="11.6429091"><ele>16.0</ele><time>2026-04-11T08:33:36.938Z</time></trkpt><trkpt lat="45.2465522" lon="11.6428982"><ele>16.0</ele><time>2026-04-11T08:33:37.937Z</time></trkpt><trkpt lat="45.2466823" lon="11.6428827"><ele>16.0</ele><time>2026-04-11T08:33:38.937Z</time></trkpt><trkpt lat="45.2468055" lon="11.6428627"><ele>16.0</ele><time>2026-04-11T08:33:39.938Z</time></trkpt><trkpt lat="45.2469224" lon="11.6428425"><ele>16.0</ele><time>2026-04-11T08:33:40.938Z</time></trkpt><trkpt lat="45.2470371" lon="11.642819"><ele>16.0</ele><time>2026-04-11T08:33:41.938Z</time></trkpt><trkpt lat="45.2471571" lon="11.642802"><ele>16.0</ele><time>2026-04-11T08:33:42.938Z</time></trkpt><trkpt lat="45.2472896" lon="11.6427711"><ele>16.0</ele><time>2026-04-11T08:33:43.938Z</time></trkpt><trkpt lat="45.2474183" lon="11.6427322"><ele>15.25</ele><time>2026-04-11T08:33:44.937Z</time></trkpt><trkpt lat="45.2475428" lon="11.642684"><ele>14.5</ele><time>2026-04-11T08:33:45.938Z</time></trkpt><trkpt lat="45.2476719" lon="11.6426294"><ele>13.75</ele><time>2026-04-11T08:33:46.938Z</time></trkpt><trkpt lat="45.2477969" lon="11.6425694"><ele>13.0</ele><time>2026-04-11T08:33:47.938Z</time></trkpt><trkpt lat="45.2479189" lon="11.6425164"><ele>13.0</ele><time>2026-04-11T08:33:48.938Z</time></trkpt><trkpt lat="45.2480369" lon="11.6424537"><ele>13.0</ele><time>2026-04-11T08:33:49.938Z</time></trkpt><trkpt lat="45.2481482" lon="11.6423767"><ele>13.0</ele><time>2026-04-11T08:33:50.938Z</time></trkpt><trkpt lat="45.248264" lon="11.6423102"><ele>13.0</ele><time>2026-04-11T08:33:51.938Z</time></trkpt><trkpt lat="45.248382" lon="11.642248"><ele>13.5</ele><time>2026-04-11T08:33:52.938Z</time></trkpt><trkpt lat="45.2484972" lon="11.6421868"><ele>14.0</ele><time>2026-04-11T08:33:53.938Z</time></trkpt><trkpt lat="45.2486122" lon="11.6421223"><ele>14.5</ele><time>2026-04-11T08:33:54.938Z</time></trkpt><trkpt lat="45.2487269" lon="11.6420568"><ele>15.0</ele><time>2026-04-11T08:33:55.938Z</time></trkpt><trkpt lat="45.2488332" lon="11.6419981"><ele>14.6</ele><time>2026-04-11T08:33:56.938Z</time></trkpt><trkpt lat="45.2489331" lon="11.6419405"><ele>14.2</ele><time>2026-04-11T08:33:57.938Z</time></trkpt><trkpt lat="45.2490244" lon="11.6418797"><ele>13.8</ele><time>2026-04-11T08:33:58.938Z</time></trkpt><trkpt lat="45.2491116" lon="11.641805"><ele>13.4</ele><time>2026-04-11T08:33:59.938Z</time></trkpt><trkpt lat="45.2491878" lon="11.6417328"><ele>13.0</ele><time>2026-04-11T08:34:00.938Z</time></trkpt><trkpt lat="45.2492586" lon="11.6416605"><ele>12.999999999999998</ele><time>2026-04-11T08:34:01.938Z</time></trkpt><trkpt lat="45.2493245" lon="11.6415832"><ele>13.0</ele><time>2026-04-11T08:34:02.938Z</time></trkpt><trkpt lat="45.2493887" lon="11.6414878"><ele>13.0</ele><time>2026-04-11T08:34:03.938Z</time></trkpt><trkpt lat="45.2494456" lon="11.6413891"><ele>13.0</ele><time>2026-04-11T08:34:04.938Z</time></trkpt><trkpt lat="45.2494971" lon="11.6412958"><ele>12.999999999999998</ele><time>2026-04-11T08:34:05.938Z</time></trkpt><trkpt lat="45.2495354" lon="11.6412046"><ele>13.0</ele><time>2026-04-11T08:34:06.938Z</time></trkpt><trkpt lat="45.2495734" lon="11.6411041"><ele>13.0</ele><time>2026-04-11T08:34:07.938Z</time></trkpt><trkpt lat="45.2496138" lon="11.6410004"><ele>13.0</ele><time>2026-04-11T08:34:08.937Z</time></trkpt><trkpt lat="45.2496517" lon="11.6409081"><ele>13.0</ele><time>2026-04-11T08:34:09.937Z</time></trkpt><trkpt lat="45.2496875" lon="11.6408219"><ele>13.0</ele><time>2026-04-11T08:34:10.938Z</time></trkpt><trkpt lat="45.2497236" lon="11.6407367"><ele>13.0</ele><time>2026-04-11T08:34:11.938Z</time></trkpt><trkpt lat="45.2497636" lon="11.6406505"><ele>13.0</ele><time>2026-04-11T08:34:12.937Z</time></trkpt><trkpt lat="45.2498076" lon="11.6405702"><ele>13.0</ele><time>2026-04-11T08:34:13.938Z</time></trkpt><trkpt lat="45.2498513" lon="11.6404864"><ele>12.999999999999998</ele><time>2026-04-11T08:34:14.938Z</time></trkpt><trkpt lat="45.2499002" lon="11.6404133"><ele>13.0</ele><time>2026-04-11T08:34:15.938Z</time></trkpt><trkpt lat="45.2499607" lon="11.6403539"><ele>13.0</ele><time>2026-04-11T08:34:16.938Z</time></trkpt><trkpt lat="45.2500291" lon="11.6403069"><ele>13.0</ele><time>2026-04-11T08:34:17.938Z</time></trkpt><trkpt lat="45.2501075" lon="11.6402707"><ele>12.999999999999998</ele><time>2026-04-11T08:34:18.938Z</time></trkpt><trkpt lat="45.2501941" lon="11.640252"><ele>13.0</ele><time>2026-04-11T08:34:19.938Z</time></trkpt><trkpt lat="45.250275" lon="11.6402444"><ele>13.0</ele><time>2026-04-11T08:34:20.938Z</time></trkpt><trkpt lat="45.2503534" lon="11.6402228"><ele>13.0</ele><time>2026-04-11T08:34:21.938Z</time></trkpt><trkpt lat="45.2504363" lon="11.6402129"><ele>13.0</ele><time>2026-04-11T08:34:22.938Z</time></trkpt><trkpt lat="45.2505263" lon="11.6402044"><ele>13.0</ele><time>2026-04-11T08:34:23.938Z</time></trkpt><trkpt lat="45.2506318" lon="11.6401965"><ele>13.0</ele><time>2026-04-11T08:34:24.938Z</time></trkpt><trkpt lat="45.2507459" lon="11.6401901"><ele>13.25</ele><time>2026-04-11T08:34:25.938Z</time></trkpt><trkpt lat="45.2508689" lon="11.6401943"><ele>13.5</ele><time>2026-04-11T08:34:26.938Z</time></trkpt><trkpt lat="45.2509807" lon="11.6401875"><ele>13.75</ele><time>2026-04-11T08:34:27.937Z</time></trkpt><trkpt lat="45.2510952" lon="11.6401894"><ele>14.0</ele><time>2026-04-11T08:34:28.938Z</time></trkpt><trkpt lat="45.2512068" lon="11.6401864"><ele>14.0</ele><time>2026-04-11T08:34:29.938Z</time></trkpt><trkpt lat="45.2513238" lon="11.6402098"><ele>13.999999999999998</ele><time>2026-04-11T08:34:30.938Z</time></trkpt><trkpt lat="45.251432" lon="11.6402496"><ele>13.999999999999998</ele><time>2026-04-11T08:34:31.938Z</time></trkpt><trkpt lat="45.2515325" lon="11.6403132"><ele>14.0</ele><time>2026-04-11T08:34:32.938Z</time></trkpt><trkpt lat="45.2516261" lon="11.6403832"><ele>14.0</ele><time>2026-04-11T08:34:33.938Z</time></trkpt><trkpt lat="45.2517288" lon="11.6404708"><ele>14.25</ele><time>2026-04-11T08:34:34.938Z</time></trkpt><trkpt lat="45.2518269" lon="11.6405539"><ele>14.5</ele><time>2026-04-11T08:34:35.937Z</time></trkpt><trkpt lat="45.2519261" lon="11.640645"><ele>14.75</ele><time>2026-04-11T08:34:36.938Z</time></trkpt><trkpt lat="45.2520307" lon="11.6407316"><ele>15.0</ele><time>2026-04-11T08:34:37.938Z</time></trkpt><trkpt lat="45.252133" lon="11.6408295"><ele>15.0</ele><time>2026-04-11T08:34:38.938Z</time></trkpt><trkpt lat="45.2522316" lon="11.6409278"><ele>15.0</ele><time>2026-04-11T08:34:39.938Z</time></trkpt><trkpt lat="45.2523356" lon="11.6410184"><ele>15.0</ele><time>2026-04-11T08:34:40.938Z</time></trkpt><trkpt lat="45.2524378" lon="11.6411058"><ele>15.0</ele><time>2026-04-11T08:34:41.938Z</time></trkpt><trkpt lat="45.2525447" lon="11.6411826"><ele>15.25</ele><time>2026-04-11T08:34:42.938Z</time></trkpt><trkpt lat="45.2526555" lon="11.6412527"><ele>15.5</ele><time>2026-04-11T08:34:43.938Z</time></trkpt><trkpt lat="45.2527691" lon="11.641307"><ele>15.75</ele><time>2026-04-11T08:34:44.938Z</time></trkpt><trkpt lat="45.2528869" lon="11.6413484"><ele>16.0</ele><time>2026-04-11T08:34:45.938Z</time></trkpt><trkpt lat="45.2530061" lon="11.6413817"><ele>16.0</ele><time>2026-04-11T08:34:46.938Z</time></trkpt><trkpt lat="45.2531218" lon="11.6413964"><ele>16.0</ele><time>2026-04-11T08:34:47.937Z</time></trkpt><trkpt lat="45.2532274" lon="11.6414091"><ele>16.0</ele><time>2026-04-11T08:34:48.937Z</time></trkpt><trkpt lat="45.2533362" lon="11.6414333"><ele>16.0</ele><time>2026-04-11T08:34:49.938Z</time></trkpt><trkpt lat="45.2534448" lon="11.6414546"><ele>16.0</ele><time>2026-04-11T08:34:50.938Z</time></trkpt><trkpt lat="45.253553" lon="11.641467"><ele>16.0</ele><time>2026-04-11T08:34:51.938Z</time></trkpt><trkpt lat="45.2536629" lon="11.6414894"><ele>16.0</ele><time>2026-04-11T08:34:52.938Z</time></trkpt><trkpt lat="45.2537677" lon="11.6415316"><ele>16.0</ele><time>2026-04-11T08:34:53.938Z</time></trkpt><trkpt lat="45.2538632" lon="11.64158"><ele>16.0</ele><time>2026-04-11T08:34:54.938Z</time></trkpt><trkpt lat="45.2539581" lon="11.6416467"><ele>16.0</ele><time>2026-04-11T08:34:55.938Z</time></trkpt><trkpt lat="45.254051" lon="11.6417248"><ele>16.0</ele><time>2026-04-11T08:34:56.938Z</time></trkpt><trkpt lat="45.2541353" lon="11.641822"><ele>16.0</ele><time>2026-04-11T08:34:57.938Z</time></trkpt><trkpt lat="45.2542113" lon="11.6419269"><ele>16.0</ele><time>2026-04-11T08:34:58.938Z</time></trkpt><trkpt lat="45.2542857" lon="11.6420529"><ele>16.0</ele><time>2026-04-11T08:34:59.938Z</time></trkpt><trkpt lat="45.25435" lon="11.6422032"><ele>17.0</ele><time>2026-04-11T08:35:00.938Z</time></trkpt><trkpt lat="45.2543991" lon="11.6423593"><ele>18.0</ele><time>2026-04-11T08:35:01.938Z</time></trkpt><trkpt lat="45.2544485" lon="11.6425224"><ele>19.0</ele><time>2026-04-11T08:35:02.938Z</time></trkpt><trkpt lat="45.2544958" lon="11.6426769"><ele>20.0</ele><time>2026-04-11T08:35:03.938Z</time></trkpt><trkpt lat="45.2545365" lon="11.6428239"><ele>19.25</ele><time>2026-04-11T08:35:04.938Z</time></trkpt><trkpt lat="45.2545871" lon="11.6429496"><ele>18.5</ele><time>2026-04-11T08:35:05.938Z</time></trkpt><trkpt lat="45.2546533" lon="11.6430759"><ele>17.75</ele><time>2026-04-11T08:35:06.938Z</time></trkpt><trkpt lat="45.254721" lon="11.6431955"><ele>17.0</ele><time>2026-04-11T08:35:07.937Z</time></trkpt><trkpt lat="45.2548241" lon="11.6433298"><ele>17.0</ele><time>2026-04-11T08:35:08.938Z</time></trkpt><trkpt lat="45.2549269" lon="11.6434683"><ele>17.0</ele><time>2026-04-11T08:35:09.937Z</time></trkpt><trkpt lat="45.2550565" lon="11.6435762"><ele>17.0</ele><time>2026-04-11T08:35:10.938Z</time></trkpt><trkpt lat="45.2551831" lon="11.6436942"><ele>17.0</ele><time>2026-04-11T08:35:11.938Z</time></trkpt><trkpt lat="45.2552926" lon="11.6438194"><ele>17.0</ele><time>2026-04-11T08:35:12.938Z</time></trkpt><trkpt lat="45.255391" lon="11.6439473"><ele>17.0</ele><time>2026-04-11T08:35:13.938Z</time></trkpt><trkpt lat="45.2554815" lon="11.6440828"><ele>17.0</ele><time>2026-04-11T08:35:14.938Z</time></trkpt><trkpt lat="45.2555657" lon="11.6442236"><ele>17.0</ele><time>2026-04-11T08:35:15.938Z</time></trkpt><trkpt lat="45.2556563" lon="11.6443656"><ele>18.0</ele><time>2026-04-11T08:35:16.938Z</time></trkpt><trkpt lat="45.2557482" lon="11.6445228"><ele>19.0</ele><time>2026-04-11T08:35:17.938Z</time></trkpt><trkpt lat="45.2558292" lon="11.6446782"><ele>20.0</ele><time>2026-04-11T08:35:18.938Z</time></trkpt><trkpt lat="45.255919" lon="11.6448349"><ele>21.0</ele><time>2026-04-11T08:35:19.938Z</time></trkpt><trkpt lat="45.2560068" lon="11.6449962"><ele>21.0</ele><time>2026-04-11T08:35:20.937Z</time></trkpt><trkpt lat="45.2561034" lon="11.6451776"><ele>21.0</ele><time>2026-04-11T08:35:21.938Z</time></trkpt><trkpt lat="45.2562009" lon="11.6453441"><ele>21.0</ele><time>2026-04-11T08:35:22.938Z</time></trkpt><trkpt lat="45.2562895" lon="11.6454911"><ele>21.0</ele><time>2026-04-11T08:35:23.938Z</time></trkpt><trkpt lat="45.2563852" lon="11.6456285"><ele>20.5</ele><time>2026-04-11T08:35:24.938Z</time></trkpt><trkpt lat="45.2564805" lon="11.6457678"><ele>20.0</ele><time>2026-04-11T08:35:25.938Z</time></trkpt><trkpt lat="45.2565851" lon="11.6459067"><ele>19.5</ele><time>2026-04-11T08:35:26.938Z</time></trkpt><trkpt lat="45.2566981" lon="11.6460551"><ele>19.0</ele><time>2026-04-11T08:35:27.938Z</time></trkpt><trkpt lat="45.2568074" lon="11.6461904"><ele>19.0</ele><time>2026-04-11T08:35:28.938Z</time></trkpt><trkpt lat="45.2569187" lon="11.6463267"><ele>19.0</ele><time>2026-04-11T08:35:29.938Z</time></trkpt><trkpt lat="45.2570488" lon="11.6464524"><ele>19.0</ele><time>2026-04-11T08:35:30.938Z</time></trkpt><trkpt lat="45.2571792" lon="11.6465735"><ele>17.666666666666664</ele><time>2026-04-11T08:35:31.938Z</time></trkpt><trkpt lat="45.2573172" lon="11.6466794"><ele>16.333333333333332</ele><time>2026-04-11T08:35:32.938Z</time></trkpt><trkpt lat="45.2574554" lon="11.6467805"><ele>15.0</ele><time>2026-04-11T08:35:33.938Z</time></trkpt><trkpt lat="45.2575864" lon="11.6468904"><ele>15.666666666666668</ele><time>2026-04-11T08:35:34.938Z</time></trkpt><trkpt lat="45.2577137" lon="11.6470052"><ele>16.333333333333336</ele><time>2026-04-11T08:35:35.938Z</time></trkpt><trkpt lat="45.2578433" lon="11.6471464"><ele>17.0</ele><time>2026-04-11T08:35:36.938Z</time></trkpt><trkpt lat="45.2579613" lon="11.6472815"><ele>17.0</ele><time>2026-04-11T08:35:37.938Z</time></trkpt><trkpt lat="45.2580792" lon="11.6474369"><ele>17.0</ele><time>2026-04-11T08:35:38.938Z</time></trkpt><trkpt lat="45.2581915" lon="11.6476021"><ele>17.0</ele><time>2026-04-11T08:35:39.938Z</time></trkpt><trkpt lat="45.258298" lon="11.6477917"><ele>17.666666666666668</ele><time>2026-04-11T08:35:40.938Z</time></trkpt><trkpt lat="45.2583933" lon="11.6480008"><ele>18.333333333333332</ele><time>2026-04-11T08:35:41.938Z</time></trkpt><trkpt lat="45.2584686" lon="11.6481792"><ele>19.0</ele><time>2026-04-11T08:35:42.938Z</time></trkpt><trkpt lat="45.2585415" lon="11.6483475"><ele>19.0</ele><time>2026-04-11T08:35:43.938Z</time></trkpt><trkpt lat="45.2586144" lon="11.6484913"><ele>19.0</ele><time>2026-04-11T08:35:44.938Z</time></trkpt><trkpt lat="45.2586847" lon="11.6486348"><ele>19.0</ele><time>2026-04-11T08:35:45.938Z</time></trkpt><trkpt lat="45.2587669" lon="11.6487922"><ele>19.0</ele><time>2026-04-11T08:35:46.938Z</time></trkpt><trkpt lat="45.2588464" lon="11.6489493"><ele>19.25</ele><time>2026-04-11T08:35:47.937Z</time></trkpt><trkpt lat="45.2589351" lon="11.6491042"><ele>19.5</ele><time>2026-04-11T08:35:48.938Z</time></trkpt><trkpt lat="45.2590299" lon="11.6492654"><ele>19.75</ele><time>2026-04-11T08:35:49.938Z</time></trkpt><trkpt lat="45.2591461" lon="11.649416"><ele>20.0</ele><time>2026-04-11T08:35:50.937Z</time></trkpt><trkpt lat="45.2592608" lon="11.6495447"><ele>21.0</ele><time>2026-04-11T08:35:51.938Z</time></trkpt><trkpt lat="45.2593909" lon="11.6496645"><ele>22.0</ele><time>2026-04-11T08:35:52.938Z</time></trkpt><trkpt lat="45.2595412" lon="11.6497723"><ele>23.0</ele><time>2026-04-11T08:35:53.938Z</time></trkpt><trkpt lat="45.2597264" lon="11.6498618"><ele>22.666666666666668</ele><time>2026-04-11T08:35:54.938Z</time></trkpt><trkpt lat="45.2599076" lon="11.6499334"><ele>22.333333333333332</ele><time>2026-04-11T08:35:55.938Z</time></trkpt><trkpt lat="45.2600768" lon="11.6500045"><ele>22.0</ele><time>2026-04-11T08:35:56.938Z</time></trkpt><trkpt lat="45.2602347" lon="11.6500646"><ele>22.0</ele><time>2026-04-11T08:35:57.938Z</time></trkpt><trkpt lat="45.2603832" lon="11.6501051"><ele>22.0</ele><time>2026-04-11T08:35:58.938Z</time></trkpt><trkpt lat="45.2605342" lon="11.650164"><ele>22.0</ele><time>2026-04-11T08:35:59.938Z</time></trkpt><trkpt lat="45.2606816" lon="11.6502345"><ele>22.333333333333332</ele><time>2026-04-11T08:36:00.938Z</time></trkpt><trkpt lat="45.2608304" lon="11.6503196"><ele>22.666666666666668</ele><time>2026-04-11T08:36:01.938Z</time></trkpt><trkpt lat="45.2609668" lon="11.6504243"><ele>23.0</ele><time>2026-04-11T08:36:02.938Z</time></trkpt><trkpt lat="45.2610907" lon="11.6505404"><ele>23.0</ele><time>2026-04-11T08:36:03.938Z</time></trkpt><trkpt lat="45.2612149" lon="11.6506754"><ele>23.0</ele><time>2026-04-11T08:36:04.938Z</time></trkpt><trkpt lat="45.2613388" lon="11.6508367"><ele>23.0</ele><time>2026-04-11T08:36:05.938Z</time></trkpt><trkpt lat="45.2614619" lon="11.6510137"><ele>21.333333333333336</ele><time>2026-04-11T08:36:06.938Z</time></trkpt><trkpt lat="45.2615782" lon="11.6512182"><ele>19.666666666666668</ele><time>2026-04-11T08:36:07.938Z</time></trkpt><trkpt lat="45.261697" lon="11.6514194"><ele>18.0</ele><time>2026-04-11T08:36:08.938Z</time></trkpt><trkpt lat="45.2618125" lon="11.6516178"><ele>18.0</ele><time>2026-04-11T08:36:09.938Z</time></trkpt><trkpt lat="45.2619285" lon="11.6518191"><ele>18.0</ele><time>2026-04-11T08:36:10.938Z</time></trkpt><trkpt lat="45.2620423" lon="11.6520058"><ele>18.0</ele><time>2026-04-11T08:36:11.938Z</time></trkpt><trkpt lat="45.2621619" lon="11.6522024"><ele>18.333333333333332</ele><time>2026-04-11T08:36:12.938Z</time></trkpt><trkpt lat="45.2622753" lon="11.6524001"><ele>18.666666666666664</ele><time>2026-04-11T08:36:13.938Z</time></trkpt><trkpt lat="45.2623853" lon="11.6525875"><ele>19.0</ele><time>2026-04-11T08:36:14.938Z</time></trkpt><trkpt lat="45.2625009" lon="11.6527863"><ele>18.333333333333332</ele><time>2026-04-11T08:36:15.938Z</time></trkpt><trkpt lat="45.2626173" lon="11.6529858"><ele>17.666666666666668</ele><time>2026-04-11T08:36:16.938Z</time></trkpt><trkpt lat="45.2627334" lon="11.6531865"><ele>17.0</ele><time>2026-04-11T08:36:17.938Z</time></trkpt><trkpt lat="45.2628385" lon="11.6533708"><ele>17.0</ele><time>2026-04-11T08:36:18.938Z</time></trkpt><trkpt lat="45.2629507" lon="11.653545"><ele>17.0</ele><time>2026-04-11T08:36:19.938Z</time></trkpt><trkpt lat="45.2630622" lon="11.6537215"><ele>17.0</ele><time>2026-04-11T08:36:20.938Z</time></trkpt><trkpt lat="45.2631792" lon="11.6538807"><ele>16.333333333333336</ele><time>2026-04-11T08:36:21.937Z</time></trkpt><trkpt lat="45.2633068" lon="11.6540186"><ele>15.666666666666668</ele><time>2026-04-11T08:36:22.938Z</time></trkpt><trkpt lat="45.2634294" lon="11.654146"><ele>15.0</ele><time>2026-04-11T08:36:23.937Z</time></trkpt><trkpt lat="45.2635664" lon="11.6542644"><ele>15.0</ele><time>2026-04-11T08:36:24.937Z</time></trkpt><trkpt lat="45.2637104" lon="11.6543671"><ele>15.0</ele><time>2026-04-11T08:36:25.938Z</time></trkpt><trkpt lat="45.2638699" lon="11.6545009"><ele>15.0</ele><time>2026-04-11T08:36:26.938Z</time></trkpt><trkpt lat="45.2640232" lon="11.6546718"><ele>13.333333333333334</ele><time>2026-04-11T08:36:27.938Z</time></trkpt><trkpt lat="45.2641694" lon="11.6548493"><ele>11.666666666666668</ele><time>2026-04-11T08:36:28.938Z</time></trkpt><trkpt lat="45.2643097" lon="11.6550291"><ele>10.0</ele><time>2026-04-11T08:36:29.938Z</time></trkpt><trkpt lat="45.2644639" lon="11.6551979"><ele>9.5</ele><time>2026-04-11T08:36:30.938Z</time></trkpt><trkpt lat="45.2646519" lon="11.6554055"><ele>9.0</ele><time>2026-04-11T08:36:31.938Z</time></trkpt><trkpt lat="45.2648505" lon="11.655627"><ele>9.0</ele><time>2026-04-11T08:36:32.938Z</time></trkpt><trkpt lat="45.2651372" lon="11.655864"><ele>9.0</ele><time>2026-04-11T08:36:33.938Z</time></trkpt><trkpt lat="45.2654111" lon="11.6561043"><ele>9.0</ele><time>2026-04-11T08:36:34.938Z</time></trkpt><trkpt lat="45.2656936" lon="11.6563258"><ele>9.0</ele><time>2026-04-11T08:36:35.938Z</time></trkpt><trkpt lat="45.2659693" lon="11.6565477"><ele>9.0</ele><time>2026-04-11T08:36:36.937Z</time></trkpt><trkpt lat="45.2662436" lon="11.6567525"><ele>9.0</ele><time>2026-04-11T08:36:37.938Z</time></trkpt><trkpt lat="45.2665805" lon="11.6569645"><ele>8.5</ele><time>2026-04-11T08:36:38.938Z</time></trkpt><trkpt lat="45.2669122" lon="11.6571738"><ele>8.0</ele><time>2026-04-11T08:36:39.938Z</time></trkpt><trkpt lat="45.2672487" lon="11.6573892"><ele>8.5</ele><time>2026-04-11T08:36:40.938Z</time></trkpt><trkpt lat="45.2675944" lon="11.6576055"><ele>9.0</ele><time>2026-04-11T08:36:41.938Z</time></trkpt><trkpt lat="45.2679089" lon="11.6578054"><ele>9.0</ele><time>2026-04-11T08:36:42.938Z</time></trkpt><trkpt lat="45.2681855" lon="11.6579736"><ele>9.0</ele><time>2026-04-11T08:36:43.938Z</time></trkpt><trkpt lat="45.2684494" lon="11.6581365"><ele>9.0</ele><time>2026-04-11T08:36:44.938Z</time></trkpt><trkpt lat="45.2686967" lon="11.6582711"><ele>9.0</ele><time>2026-04-11T08:36:45.938Z</time></trkpt><trkpt lat="45.2689313" lon="11.6583943"><ele>9.666666666666666</ele><time>2026-04-11T08:36:46.938Z</time></trkpt><trkpt lat="45.2691586" lon="11.6585107"><ele>10.333333333333332</ele><time>2026-04-11T08:36:47.938Z</time></trkpt><trkpt lat="45.2693471" lon="11.6585913"><ele>11.0</ele><time>2026-04-11T08:36:48.938Z</time></trkpt><trkpt lat="45.269544" lon="11.6586574"><ele>11.333333333333332</ele><time>2026-04-11T08:36:49.938Z</time></trkpt><trkpt lat="45.269726" lon="11.658701"><ele>11.666666666666666</ele><time>2026-04-11T08:36:50.938Z</time></trkpt><trkpt lat="45.2698945" lon="11.6587152"><ele>12.0</ele><time>2026-04-11T08:36:51.938Z</time></trkpt><trkpt lat="45.2700583" lon="11.658701"><ele>11.666666666666666</ele><time>2026-04-11T08:36:52.938Z</time></trkpt><trkpt lat="45.2702183" lon="11.6586542"><ele>11.333333333333332</ele><time>2026-04-11T08:36:53.938Z</time></trkpt><trkpt lat="45.2703664" lon="11.6585614"><ele>11.0</ele><time>2026-04-11T08:36:54.938Z</time></trkpt><trkpt lat="45.2705085" lon="11.6584484"><ele>11.333333333333332</ele><time>2026-04-11T08:36:55.938Z</time></trkpt><trkpt lat="45.2706436" lon="11.6582978"><ele>11.666666666666666</ele><time>2026-04-11T08:36:56.938Z</time></trkpt><trkpt lat="45.2707736" lon="11.6581506"><ele>12.0</ele><time>2026-04-11T08:36:57.938Z</time></trkpt><trkpt lat="45.2709089" lon="11.6579878"><ele>12.0</ele><time>2026-04-11T08:36:58.937Z</time></trkpt><trkpt lat="45.2710459" lon="11.6578249"><ele>12.0</ele><time>2026-04-11T08:36:59.938Z</time></trkpt><trkpt lat="45.2711782" lon="11.6576547"><ele>12.0</ele><time>2026-04-11T08:37:00.938Z</time></trkpt><trkpt lat="45.2712947" lon="11.6574854"><ele>11.666666666666666</ele><time>2026-04-11T08:37:01.938Z</time></trkpt><trkpt lat="45.2714086" lon="11.65733"><ele>11.333333333333332</ele><time>2026-04-11T08:37:02.938Z</time></trkpt><trkpt lat="45.2715103" lon="11.6571797"><ele>11.0</ele><time>2026-04-11T08:37:03.938Z</time></trkpt><trkpt lat="45.2716147" lon="11.6570306"><ele>11.75</ele><time>2026-04-11T08:37:04.938Z</time></trkpt><trkpt lat="45.2717195" lon="11.6568791"><ele>12.5</ele><time>2026-04-11T08:37:05.938Z</time></trkpt><trkpt lat="45.2718175" lon="11.6567246"><ele>13.25</ele><time>2026-04-11T08:37:06.938Z</time></trkpt><trkpt lat="45.2719086" lon="11.6565757"><ele>14.0</ele><time>2026-04-11T08:37:07.938Z</time></trkpt><trkpt lat="45.2719919" lon="11.6564372"><ele>14.0</ele><time>2026-04-11T08:37:08.938Z</time></trkpt><trkpt lat="45.2720661" lon="11.6563219"><ele>13.999999999999998</ele><time>2026-04-11T08:37:09.938Z</time></trkpt><trkpt lat="45.2721386" lon="11.656239"><ele>13.999999999999998</ele><time>2026-04-11T08:37:10.938Z</time></trkpt><trkpt lat="45.2722144" lon="11.6561884"><ele>14.0</ele><time>2026-04-11T08:37:11.938Z</time></trkpt><trkpt lat="45.2722861" lon="11.6561431"><ele>14.0</ele><time>2026-04-11T08:37:12.938Z</time></trkpt><trkpt lat="45.2723478" lon="11.656"><ele>14.0</ele><time>2026-04-11T08:37:14.938Z</time></trkpt><trkpt lat="45.2723389" lon="11.655902"><ele>13.999999999999998</ele><time>2026-04-11T08:37:15.938Z</time></trkpt><trkpt lat="45.272306" lon="11.6557975"><ele>13.999999999999998</ele><time>2026-04-11T08:37:16.938Z</time></trkpt><trkpt lat="45.2722668" lon="11.6556817"><ele>14.0</ele><time>2026-04-11T08:37:17.938Z</time></trkpt><trkpt lat="45.2722506" lon="11.6555297"><ele>14.0</ele><time>2026-04-11T08:37:18.938Z</time></trkpt><trkpt lat="45.2722367" lon="11.6553509"><ele>14.0</ele><time>2026-04-11T08:37:19.938Z</time></trkpt><trkpt lat="45.2722348" lon="11.6551557"><ele>14.0</ele><time>2026-04-11T08:37:20.938Z</time></trkpt><trkpt lat="45.2722171" lon="11.6548693"><ele>14.0</ele><time>2026-04-11T08:37:21.938Z</time></trkpt><trkpt lat="45.2722128" lon="11.6545993"><ele>13.666666666666668</ele><time>2026-04-11T08:37:22.938Z</time></trkpt><trkpt lat="45.2722361" lon="11.6543336"><ele>13.333333333333332</ele><time>2026-04-11T08:37:23.938Z</time></trkpt><trkpt lat="45.272289" lon="11.6540672"><ele>13.0</ele><time>2026-04-11T08:37:24.938Z</time></trkpt><trkpt lat="45.2723655" lon="11.6537819"><ele>15.0</ele><time>2026-04-11T08:37:25.938Z</time></trkpt><trkpt lat="45.2724601" lon="11.6535001"><ele>17.0</ele><time>2026-04-11T08:37:26.938Z</time></trkpt><trkpt lat="45.2725577" lon="11.6532214"><ele>19.0</ele><time>2026-04-11T08:37:27.938Z</time></trkpt><trkpt lat="45.2726556" lon="11.6529197"><ele>17.0</ele><time>2026-04-11T08:37:28.938Z</time></trkpt><trkpt lat="45.2727484" lon="11.6526214"><ele>15.0</ele><time>2026-04-11T08:37:29.938Z</time></trkpt><trkpt lat="45.2728559" lon="11.6523204"><ele>15.0</ele><time>2026-04-11T08:37:30.938Z</time></trkpt><trkpt lat="45.2729601" lon="11.652016"><ele>15.0</ele><time>2026-04-11T08:37:31.938Z</time></trkpt><trkpt lat="45.2730597" lon="11.6517092"><ele>18.0</ele><time>2026-04-11T08:37:32.938Z</time></trkpt><trkpt lat="45.2731659" lon="11.6513954"><ele>21.0</ele><time>2026-04-11T08:37:33.938Z</time></trkpt><trkpt lat="45.2732886" lon="11.6510933"><ele>21.0</ele><time>2026-04-11T08:37:34.938Z</time></trkpt><trkpt lat="45.2734092" lon="11.6508093"><ele>21.0</ele><time>2026-04-11T08:37:35.938Z</time></trkpt><trkpt lat="45.2735275" lon="11.6505308"><ele>18.5</ele><time>2026-04-11T08:37:36.938Z</time></trkpt><trkpt lat="45.2736436" lon="11.6502603"><ele>16.0</ele><time>2026-04-11T08:37:37.938Z</time></trkpt><trkpt lat="45.2737653" lon="11.6499726"><ele>16.0</ele><time>2026-04-11T08:37:38.938Z</time></trkpt><trkpt lat="45.2738818" lon="11.6497051"><ele>16.0</ele><time>2026-04-11T08:37:39.938Z</time></trkpt><trkpt lat="45.274" lon="11.6494281"><ele>16.0</ele><time>2026-04-11T08:37:40.938Z</time></trkpt><trkpt lat="45.2741225" lon="11.6491496"><ele>16.333333333333332</ele><time>2026-04-11T08:37:41.938Z</time></trkpt><trkpt lat="45.2742299" lon="11.6488924"><ele>16.666666666666668</ele><time>2026-04-11T08:37:42.938Z</time></trkpt><trkpt lat="45.274337" lon="11.648677"><ele>17.0</ele><time>2026-04-11T08:37:43.938Z</time></trkpt><trkpt lat="45.2744593" lon="11.6484855"><ele>17.0</ele><time>2026-04-11T08:37:44.938Z</time></trkpt><trkpt lat="45.2746006" lon="11.648316"><ele>17.0</ele><time>2026-04-11T08:37:45.938Z</time></trkpt><trkpt lat="45.2747551" lon="11.6481486"><ele>17.0</ele><time>2026-04-11T08:37:46.938Z</time></trkpt><trkpt lat="45.2749197" lon="11.6479933"><ele>16.666666666666668</ele><time>2026-04-11T08:37:47.938Z</time></trkpt><trkpt lat="45.2750884" lon="11.6478448"><ele>16.333333333333332</ele><time>2026-04-11T08:37:48.938Z</time></trkpt><trkpt lat="45.2752769" lon="11.6477222"><ele>16.0</ele><time>2026-04-11T08:37:49.938Z</time></trkpt><trkpt lat="45.2754768" lon="11.6476145"><ele>18.0</ele><time>2026-04-11T08:37:50.938Z</time></trkpt><trkpt lat="45.2756847" lon="11.6475162"><ele>20.0</ele><time>2026-04-11T08:37:51.938Z</time></trkpt><trkpt lat="45.2759038" lon="11.6474251"><ele>22.0</ele><time>2026-04-11T08:37:52.938Z</time></trkpt><trkpt lat="45.2761151" lon="11.6473576"><ele>22.0</ele><time>2026-04-11T08:37:53.938Z</time></trkpt><trkpt lat="45.2763186" lon="11.6472953"><ele>22.0</ele><time>2026-04-11T08:37:54.938Z</time></trkpt><trkpt lat="45.2765019" lon="11.6472267"><ele>22.0</ele><time>2026-04-11T08:37:55.938Z</time></trkpt><trkpt lat="45.2766914" lon="11.6471844"><ele>23.333333333333332</ele><time>2026-04-11T08:37:56.938Z</time></trkpt><trkpt lat="45.2768704" lon="11.6471487"><ele>24.666666666666664</ele><time>2026-04-11T08:37:57.938Z</time></trkpt><trkpt lat="45.2770536" lon="11.6471326"><ele>26.0</ele><time>2026-04-11T08:37:58.938Z</time></trkpt><trkpt lat="45.2772385" lon="11.6471269"><ele>26.333333333333332</ele><time>2026-04-11T08:37:59.938Z</time></trkpt><trkpt lat="45.27743" lon="11.647121"><ele>26.666666666666664</ele><time>2026-04-11T08:38:00.938Z</time></trkpt><trkpt lat="45.2776259" lon="11.6471242"><ele>27.0</ele><time>2026-04-11T08:38:01.938Z</time></trkpt><trkpt lat="45.2778265" lon="11.6471345"><ele>27.0</ele><time>2026-04-11T08:38:02.938Z</time></trkpt><trkpt lat="45.2780284" lon="11.6471544"><ele>27.0</ele><time>2026-04-11T08:38:03.938Z</time></trkpt><trkpt lat="45.2782376" lon="11.6471798"><ele>27.0</ele><time>2026-04-11T08:38:04.938Z</time></trkpt><trkpt lat="45.2784454" lon="11.6472084"><ele>26.666666666666664</ele><time>2026-04-11T08:38:05.938Z</time></trkpt><trkpt lat="45.2786537" lon="11.6472315"><ele>26.333333333333332</ele><time>2026-04-11T08:38:06.938Z</time></trkpt><trkpt lat="45.2788594" lon="11.6472575"><ele>26.0</ele><time>2026-04-11T08:38:07.938Z</time></trkpt><trkpt lat="45.2790693" lon="11.6472824"><ele>26.0</ele><time>2026-04-11T08:38:08.938Z</time></trkpt><trkpt lat="45.2792711" lon="11.6473081"><ele>26.0</ele><time>2026-04-11T08:38:09.938Z</time></trkpt><trkpt lat="45.2794758" lon="11.6473415"><ele>26.0</ele><time>2026-04-11T08:38:10.938Z</time></trkpt><trkpt lat="45.2796757" lon="11.6473642"><ele>26.0</ele><time>2026-04-11T08:38:11.938Z</time></trkpt><trkpt lat="45.2798749" lon="11.6474036"><ele>26.0</ele><time>2026-04-11T08:38:12.938Z</time></trkpt><trkpt lat="45.2800775" lon="11.6474446"><ele>26.0</ele><time>2026-04-11T08:38:13.938Z</time></trkpt><trkpt lat="45.2802798" lon="11.6474804"><ele>26.0</ele><time>2026-04-11T08:38:14.938Z</time></trkpt><trkpt lat="45.2804826" lon="11.6475018"><ele>26.0</ele><time>2026-04-11T08:38:15.938Z</time></trkpt><trkpt lat="45.2806812" lon="11.6475282"><ele>26.0</ele><time>2026-04-11T08:38:16.938Z</time></trkpt><trkpt lat="45.2808792" lon="11.6475486"><ele>26.0</ele><time>2026-04-11T08:38:17.938Z</time></trkpt><trkpt lat="45.2810806" lon="11.6475791"><ele>26.0</ele><time>2026-04-11T08:38:18.938Z</time></trkpt><trkpt lat="45.2812707" lon="11.6475945"><ele>26.0</ele><time>2026-04-11T08:38:19.938Z</time></trkpt><trkpt lat="45.2814652" lon="11.6476054"><ele>26.0</ele><time>2026-04-11T08:38:20.938Z</time></trkpt><trkpt lat="45.2816536" lon="11.6476022"><ele>26.0</ele><time>2026-04-11T08:38:21.938Z</time></trkpt><trkpt lat="45.2818377" lon="11.6475889"><ele>26.0</ele><time>2026-04-11T08:38:22.938Z</time></trkpt><trkpt lat="45.282029" lon="11.6475366"><ele>26.0</ele><time>2026-04-11T08:38:23.938Z</time></trkpt><trkpt lat="45.282219" lon="11.6474646"><ele>26.0</ele><time>2026-04-11T08:38:24.938Z</time></trkpt><trkpt lat="45.2824094" lon="11.6473683"><ele>26.0</ele><time>2026-04-11T08:38:25.938Z</time></trkpt><trkpt lat="45.2825918" lon="11.647259"><ele>27.666666666666664</ele><time>2026-04-11T08:38:26.938Z</time></trkpt><trkpt lat="45.2827738" lon="11.6471251"><ele>29.333333333333336</ele><time>2026-04-11T08:38:27.938Z</time></trkpt><trkpt lat="45.2829458" lon="11.6469812"><ele>31.0</ele><time>2026-04-11T08:38:28.938Z</time></trkpt><trkpt lat="45.2831348" lon="11.646769"><ele>31.0</ele><time>2026-04-11T08:38:29.938Z</time></trkpt><trkpt lat="45.2832955" lon="11.646558"><ele>31.0</ele><time>2026-04-11T08:38:30.937Z</time></trkpt><trkpt lat="45.2834429" lon="11.6463689"><ele>31.0</ele><time>2026-04-11T08:38:31.938Z</time></trkpt><trkpt lat="45.2835743" lon="11.6461928"><ele>31.75</ele><time>2026-04-11T08:38:32.938Z</time></trkpt><trkpt lat="45.2836896" lon="11.6460599"><ele>32.5</ele><time>2026-04-11T08:38:33.938Z</time></trkpt><trkpt lat="45.2837908" lon="11.6459448"><ele>33.25</ele><time>2026-04-11T08:38:34.938Z</time></trkpt><trkpt lat="45.2838987" lon="11.6458445"><ele>34.0</ele><time>2026-04-11T08:38:35.938Z</time></trkpt><trkpt lat="45.284009" lon="11.6457816"><ele>34.0</ele><time>2026-04-11T08:38:36.938Z</time></trkpt><trkpt lat="45.2841343" lon="11.645747"><ele>34.0</ele><time>2026-04-11T08:38:37.938Z</time></trkpt><trkpt lat="45.284255" lon="11.6457331"><ele>34.0</ele><time>2026-04-11T08:38:38.938Z</time></trkpt><trkpt lat="45.284368" lon="11.6457265"><ele>34.0</ele><time>2026-04-11T08:38:39.938Z</time></trkpt><trkpt lat="45.2844673" lon="11.6457408"><ele>34.0</ele><time>2026-04-11T08:38:40.938Z</time></trkpt><trkpt lat="45.2845632" lon="11.6457944"><ele>34.0</ele><time>2026-04-11T08:38:41.938Z</time></trkpt><trkpt lat="45.2846375" lon="11.6458788"><ele>34.0</ele><time>2026-04-11T08:38:42.938Z</time></trkpt><trkpt lat="45.2847013" lon="11.646014"><ele>34.0</ele><time>2026-04-11T08:38:43.938Z</time></trkpt><trkpt lat="45.2847636" lon="11.6461939"><ele>30.333333333333336</ele><time>2026-04-11T08:38:44.938Z</time></trkpt><trkpt lat="45.284814" lon="11.6464412"><ele>26.666666666666668</ele><time>2026-04-11T08:38:45.938Z</time></trkpt><trkpt lat="45.2848465" lon="11.6466959"><ele>23.0</ele><time>2026-04-11T08:38:46.938Z</time></trkpt><trkpt lat="45.2848801" lon="11.646947"><ele>23.5</ele><time>2026-04-11T08:38:47.938Z</time></trkpt><trkpt lat="45.2849087" lon="11.6471702"><ele>24.0</ele><time>2026-04-11T08:38:48.938Z</time></trkpt><trkpt lat="45.2849308" lon="11.6473751"><ele>24.5</ele><time>2026-04-11T08:38:49.938Z</time></trkpt><trkpt lat="45.2849612" lon="11.6475673"><ele>25.0</ele><time>2026-04-11T08:38:50.938Z</time></trkpt><trkpt lat="45.2850148" lon="11.6477026"><ele>25.75</ele><time>2026-04-11T08:38:51.938Z</time></trkpt><trkpt lat="45.2850836" lon="11.6478293"><ele>26.5</ele><time>2026-04-11T08:38:52.938Z</time></trkpt><trkpt lat="45.2851768" lon="11.6479471"><ele>27.25</ele><time>2026-04-11T08:38:53.938Z</time></trkpt><trkpt lat="45.2853642" lon="11.648001"><ele>28.0</ele><time>2026-04-11T08:38:54.938Z</time></trkpt><trkpt lat="45.2855305" lon="11.6480653"><ele>24.333333333333336</ele><time>2026-04-11T08:38:55.938Z</time></trkpt><trkpt lat="45.2856897" lon="11.6481396"><ele>20.666666666666668</ele><time>2026-04-11T08:38:56.938Z</time></trkpt><trkpt lat="45.285856" lon="11.6481939"><ele>17.0</ele><time>2026-04-11T08:38:57.938Z</time></trkpt><trkpt lat="45.2860359" lon="11.6482384"><ele>17.0</ele><time>2026-04-11T08:38:58.938Z</time></trkpt><trkpt lat="45.2862195" lon="11.6482299"><ele>17.0</ele><time>2026-04-11T08:38:59.938Z</time></trkpt><trkpt lat="45.28641" lon="11.6481809"><ele>17.0</ele><time>2026-04-11T08:39:00.938Z</time></trkpt><trkpt lat="45.286597" lon="11.6481001"><ele>18.666666666666668</ele><time>2026-04-11T08:39:01.938Z</time></trkpt><trkpt lat="45.2867839" lon="11.6480069"><ele>20.333333333333332</ele><time>2026-04-11T08:39:02.938Z</time></trkpt><trkpt lat="45.2869669" lon="11.6478996"><ele>22.0</ele><time>2026-04-11T08:39:03.937Z</time></trkpt><trkpt lat="45.2871586" lon="11.6477953"><ele>20.666666666666664</ele><time>2026-04-11T08:39:04.938Z</time></trkpt><trkpt lat="45.287353" lon="11.6476848"><ele>19.333333333333332</ele><time>2026-04-11T08:39:05.938Z</time></trkpt><trkpt lat="45.2875511" lon="11.6475786"><ele>18.0</ele><time>2026-04-11T08:39:06.938Z</time></trkpt><trkpt lat="45.2877454" lon="11.6474553"><ele>18.0</ele><time>2026-04-11T08:39:07.938Z</time></trkpt><trkpt lat="45.287936" lon="11.6473036"><ele>18.0</ele><time>2026-04-11T08:39:08.937Z</time></trkpt><trkpt lat="45.2881153" lon="11.6471265"><ele>18.0</ele><time>2026-04-11T08:39:09.938Z</time></trkpt><trkpt lat="45.2882778" lon="11.6469259"><ele>18.0</ele><time>2026-04-11T08:39:10.938Z</time></trkpt><trkpt lat="45.2884282" lon="11.6467453"><ele>18.0</ele><time>2026-04-11T08:39:11.938Z</time></trkpt><trkpt lat="45.2885744" lon="11.6465746"><ele>18.0</ele><time>2026-04-11T08:39:12.938Z</time></trkpt><trkpt lat="45.2887129" lon="11.6464253"><ele>18.0</ele><time>2026-04-11T08:39:13.938Z</time></trkpt><trkpt lat="45.2888538" lon="11.6462958"><ele>18.0</ele><time>2026-04-11T08:39:14.938Z</time></trkpt><trkpt lat="45.2889942" lon="11.6461774"><ele>18.0</ele><time>2026-04-11T08:39:15.938Z</time></trkpt><trkpt lat="45.2891383" lon="11.6460917"><ele>18.0</ele><time>2026-04-11T08:39:16.938Z</time></trkpt><trkpt lat="45.2892889" lon="11.6460273"><ele>18.0</ele><time>2026-04-11T08:39:17.938Z</time></trkpt><trkpt lat="45.2894542" lon="11.6459858"><ele>18.0</ele><time>2026-04-11T08:39:18.938Z</time></trkpt><trkpt lat="45.2896248" lon="11.6459331"><ele>17.333333333333332</ele><time>2026-04-11T08:39:19.938Z</time></trkpt><trkpt lat="45.2898017" lon="11.6458884"><ele>16.666666666666664</ele><time>2026-04-11T08:39:20.938Z</time></trkpt><trkpt lat="45.289987" lon="11.6458411"><ele>16.0</ele><time>2026-04-11T08:39:21.938Z</time></trkpt><trkpt lat="45.2901789" lon="11.6457954"><ele>16.0</ele><time>2026-04-11T08:39:22.937Z</time></trkpt><trkpt lat="45.2903689" lon="11.6457535"><ele>16.0</ele><time>2026-04-11T08:39:23.938Z</time></trkpt><trkpt lat="45.2905558" lon="11.6457283"><ele>16.0</ele><time>2026-04-11T08:39:24.938Z</time></trkpt><trkpt lat="45.2907382" lon="11.6457187"><ele>16.666666666666664</ele><time>2026-04-11T08:39:25.938Z</time></trkpt><trkpt lat="45.2909305" lon="11.6457336"><ele>17.333333333333332</ele><time>2026-04-11T08:39:26.938Z</time></trkpt><trkpt lat="45.2911188" lon="11.6457656"><ele>18.0</ele><time>2026-04-11T08:39:27.937Z</time></trkpt><trkpt lat="45.2913014" lon="11.645793"><ele>18.333333333333332</ele><time>2026-04-11T08:39:28.938Z</time></trkpt><trkpt lat="45.2914828" lon="11.6458257"><ele>18.666666666666664</ele><time>2026-04-11T08:39:29.938Z</time></trkpt><trkpt lat="45.2916525" lon="11.6458547"><ele>19.0</ele><time>2026-04-11T08:39:30.938Z</time></trkpt><trkpt lat="45.2918227" lon="11.6458828"><ele>19.0</ele><time>2026-04-11T08:39:31.938Z</time></trkpt><trkpt lat="45.2919888" lon="11.6459117"><ele>19.0</ele><time>2026-04-11T08:39:32.938Z</time></trkpt><trkpt lat="45.2921521" lon="11.6459424"><ele>19.0</ele><time>2026-04-11T08:39:33.938Z</time></trkpt><trkpt lat="45.2923135" lon="11.6459701"><ele>19.0</ele><time>2026-04-11T08:39:34.938Z</time></trkpt><trkpt lat="45.2924775" lon="11.6459967"><ele>19.0</ele><time>2026-04-11T08:39:35.938Z</time></trkpt><trkpt lat="45.2926637" lon="11.646005"><ele>19.0</ele><time>2026-04-11T08:39:36.938Z</time></trkpt><trkpt lat="45.2928672" lon="11.6459987"><ele>19.333333333333332</ele><time>2026-04-11T08:39:37.938Z</time></trkpt><trkpt lat="45.2930911" lon="11.6459839"><ele>19.666666666666668</ele><time>2026-04-11T08:39:38.938Z</time></trkpt><trkpt lat="45.2933092" lon="11.6459623"><ele>20.0</ele><time>2026-04-11T08:39:39.938Z</time></trkpt><trkpt lat="45.2935288" lon="11.6459406"><ele>20.0</ele><time>2026-04-11T08:39:40.938Z</time></trkpt><trkpt lat="45.2937414" lon="11.6459054"><ele>20.0</ele><time>2026-04-11T08:39:41.938Z</time></trkpt><trkpt lat="45.2939411" lon="11.64587"><ele>20.0</ele><time>2026-04-11T08:39:42.938Z</time></trkpt><trkpt lat="45.2941287" lon="11.6458499"><ele>21.0</ele><time>2026-04-11T08:39:43.938Z</time></trkpt><trkpt lat="45.2943019" lon="11.6458274"><ele>22.0</ele><time>2026-04-11T08:39:44.938Z</time></trkpt><trkpt lat="45.2944592" lon="11.6458"><ele>23.0</ele><time>2026-04-11T08:39:45.938Z</time></trkpt><trkpt lat="45.2946243" lon="11.6457807"><ele>22.666666666666668</ele><time>2026-04-11T08:39:46.938Z</time></trkpt><trkpt lat="45.294785" lon="11.645737"><ele>22.333333333333332</ele><time>2026-04-11T08:39:47.938Z</time></trkpt><trkpt lat="45.2949479" lon="11.6456666"><ele>22.0</ele><time>2026-04-11T08:39:48.938Z</time></trkpt><trkpt lat="45.2951163" lon="11.6455758"><ele>22.0</ele><time>2026-04-11T08:39:49.938Z</time></trkpt><trkpt lat="45.2952877" lon="11.6454614"><ele>22.0</ele><time>2026-04-11T08:39:50.937Z</time></trkpt><trkpt lat="45.2954569" lon="11.6453258"><ele>22.0</ele><time>2026-04-11T08:39:51.938Z</time></trkpt><trkpt lat="45.295622" lon="11.6451546"><ele>22.0</ele><time>2026-04-11T08:39:52.938Z</time></trkpt><trkpt lat="45.2957824" lon="11.6449818"><ele>22.0</ele><time>2026-04-11T08:39:53.938Z</time></trkpt><trkpt lat="45.2959389" lon="11.6447703"><ele>22.0</ele><time>2026-04-11T08:39:54.938Z</time></trkpt><trkpt lat="45.296093" lon="11.6445483"><ele>21.666666666666664</ele><time>2026-04-11T08:39:55.938Z</time></trkpt><trkpt lat="45.2962513" lon="11.6443315"><ele>21.333333333333332</ele><time>2026-04-11T08:39:56.938Z</time></trkpt><trkpt lat="45.2964001" lon="11.6441212"><ele>21.0</ele><time>2026-04-11T08:39:57.938Z</time></trkpt><trkpt lat="45.29655" lon="11.6439185"><ele>21.0</ele><time>2026-04-11T08:39:58.938Z</time></trkpt><trkpt lat="45.2966966" lon="11.643722"><ele>21.0</ele><time>2026-04-11T08:39:59.938Z</time></trkpt><trkpt lat="45.2968421" lon="11.6435288"><ele>21.0</ele><time>2026-04-11T08:40:00.938Z</time></trkpt><trkpt lat="45.2969774" lon="11.6433436"><ele>21.0</ele><time>2026-04-11T08:40:01.938Z</time></trkpt><trkpt lat="45.2971077" lon="11.6431692"><ele>21.0</ele><time>2026-04-11T08:40:02.938Z</time></trkpt><trkpt lat="45.2972361" lon="11.6429997"><ele>21.0</ele><time>2026-04-11T08:40:03.938Z</time></trkpt><trkpt lat="45.2973677" lon="11.6428123"><ele>19.0</ele><time>2026-04-11T08:40:04.938Z</time></trkpt><trkpt lat="45.2975079" lon="11.642633"><ele>17.0</ele><time>2026-04-11T08:40:05.938Z</time></trkpt><trkpt lat="45.2976404" lon="11.6424473"><ele>15.0</ele><time>2026-04-11T08:40:06.938Z</time></trkpt><trkpt lat="45.2977804" lon="11.6422536"><ele>15.0</ele><time>2026-04-11T08:40:07.938Z</time></trkpt><trkpt lat="45.2979237" lon="11.6420607"><ele>15.0</ele><time>2026-04-11T08:40:08.938Z</time></trkpt><trkpt lat="45.2980649" lon="11.6418547"><ele>15.0</ele><time>2026-04-11T08:40:09.938Z</time></trkpt><trkpt lat="45.2982042" lon="11.6416544"><ele>15.333333333333332</ele><time>2026-04-11T08:40:10.938Z</time></trkpt><trkpt lat="45.2983384" lon="11.6414638"><ele>15.666666666666666</ele><time>2026-04-11T08:40:11.938Z</time></trkpt><trkpt lat="45.2984696" lon="11.6412946"><ele>16.0</ele><time>2026-04-11T08:40:12.938Z</time></trkpt><trkpt lat="45.298597" lon="11.641139"><ele>15.333333333333332</ele><time>2026-04-11T08:40:13.938Z</time></trkpt><trkpt lat="45.2987283" lon="11.6410042"><ele>14.666666666666668</ele><time>2026-04-11T08:40:14.938Z</time></trkpt><trkpt lat="45.2988595" lon="11.6408958"><ele>14.0</ele><time>2026-04-11T08:40:15.938Z</time></trkpt><trkpt lat="45.2989913" lon="11.6407902"><ele>14.0</ele><time>2026-04-11T08:40:16.938Z</time></trkpt><trkpt lat="45.299139" lon="11.6406872"><ele>14.0</ele><time>2026-04-11T08:40:17.938Z</time></trkpt><trkpt lat="45.2993067" lon="11.6405845"><ele>14.0</ele><time>2026-04-11T08:40:18.938Z</time></trkpt><trkpt lat="45.2994703" lon="11.640471"><ele>14.0</ele><time>2026-04-11T08:40:19.938Z</time></trkpt><trkpt lat="45.2996387" lon="11.6403498"><ele>14.0</ele><time>2026-04-11T08:40:20.938Z</time></trkpt><trkpt lat="45.2998079" lon="11.6402355"><ele>14.0</ele><time>2026-04-11T08:40:21.938Z</time></trkpt><trkpt lat="45.2999783" lon="11.6401135"><ele>13.666666666666668</ele><time>2026-04-11T08:40:22.938Z</time></trkpt><trkpt lat="45.3001497" lon="11.6399968"><ele>13.333333333333332</ele><time>2026-04-11T08:40:23.938Z</time></trkpt><trkpt lat="45.3003166" lon="11.639872"><ele>13.0</ele><time>2026-04-11T08:40:24.938Z</time></trkpt><trkpt lat="45.300481" lon="11.6397487"><ele>13.333333333333332</ele><time>2026-04-11T08:40:25.938Z</time></trkpt><trkpt lat="45.3006488" lon="11.6396197"><ele>13.666666666666668</ele><time>2026-04-11T08:40:26.938Z</time></trkpt><trkpt lat="45.3008087" lon="11.6394763"><ele>14.0</ele><time>2026-04-11T08:40:27.938Z</time></trkpt><trkpt lat="45.3009625" lon="11.6393385"><ele>14.0</ele><time>2026-04-11T08:40:28.938Z</time></trkpt><trkpt lat="45.3011109" lon="11.639216"><ele>14.0</ele><time>2026-04-11T08:40:29.938Z</time></trkpt><trkpt lat="45.3012665" lon="11.6391136"><ele>14.0</ele><time>2026-04-11T08:40:30.938Z</time></trkpt><trkpt lat="45.3014352" lon="11.6390337"><ele>17.0</ele><time>2026-04-11T08:40:31.938Z</time></trkpt><trkpt lat="45.3016096" lon="11.6389851"><ele>20.0</ele><time>2026-04-11T08:40:32.938Z</time></trkpt><trkpt lat="45.3017894" lon="11.6389452"><ele>23.0</ele><time>2026-04-11T08:40:33.938Z</time></trkpt><trkpt lat="45.3019733" lon="11.6389058"><ele>23.0</ele><time>2026-04-11T08:40:34.938Z</time></trkpt><trkpt lat="45.3021614" lon="11.6388674"><ele>23.0</ele><time>2026-04-11T08:40:35.938Z</time></trkpt><trkpt lat="45.3023554" lon="11.638831"><ele>23.0</ele><time>2026-04-11T08:40:36.938Z</time></trkpt><trkpt lat="45.3025523" lon="11.6388007"><ele>23.666666666666668</ele><time>2026-04-11T08:40:37.938Z</time></trkpt><trkpt lat="45.3027503" lon="11.6387684"><ele>24.333333333333336</ele><time>2026-04-11T08:40:38.938Z</time></trkpt><trkpt lat="45.3029469" lon="11.6387297"><ele>25.0</ele><time>2026-04-11T08:40:39.938Z</time></trkpt><trkpt lat="45.3031447" lon="11.638699"><ele>22.666666666666668</ele><time>2026-04-11T08:40:40.938Z</time></trkpt><trkpt lat="45.3033372" lon="11.6386766"><ele>20.333333333333336</ele><time>2026-04-11T08:40:41.937Z</time></trkpt><trkpt lat="45.303538" lon="11.6386472"><ele>18.0</ele><time>2026-04-11T08:40:42.938Z</time></trkpt><trkpt lat="45.3037304" lon="11.6386072"><ele>16.333333333333332</ele><time>2026-04-11T08:40:43.938Z</time></trkpt><trkpt lat="45.3039196" lon="11.6385726"><ele>14.666666666666666</ele><time>2026-04-11T08:40:44.938Z</time></trkpt><trkpt lat="45.3041008" lon="11.6385365"><ele>13.0</ele><time>2026-04-11T08:40:45.938Z</time></trkpt><trkpt lat="45.3042807" lon="11.6385174"><ele>13.0</ele><time>2026-04-11T08:40:46.938Z</time></trkpt><trkpt lat="45.3044663" lon="11.6385267"><ele>13.0</ele><time>2026-04-11T08:40:47.938Z</time></trkpt><trkpt lat="45.3046555" lon="11.6385549"><ele>13.0</ele><time>2026-04-11T08:40:48.938Z</time></trkpt><trkpt lat="45.3048469" lon="11.638593"><ele>13.0</ele><time>2026-04-11T08:40:49.938Z</time></trkpt><trkpt lat="45.3050377" lon="11.6386497"><ele>13.0</ele><time>2026-04-11T08:40:50.938Z</time></trkpt><trkpt lat="45.3052233" lon="11.6387359"><ele>13.0</ele><time>2026-04-11T08:40:51.938Z</time></trkpt><trkpt lat="45.3054163" lon="11.6388414"><ele>12.666666666666666</ele><time>2026-04-11T08:40:52.938Z</time></trkpt><trkpt lat="45.3056046" lon="11.6389395"><ele>12.333333333333332</ele><time>2026-04-11T08:40:53.938Z</time></trkpt><trkpt lat="45.3057968" lon="11.6390342"><ele>12.0</ele><time>2026-04-11T08:40:54.938Z</time></trkpt><trkpt lat="45.3059905" lon="11.6391327"><ele>12.0</ele><time>2026-04-11T08:40:55.938Z</time></trkpt><trkpt lat="45.3061764" lon="11.639218"><ele>12.0</ele><time>2026-04-11T08:40:56.938Z</time></trkpt><trkpt lat="45.3063608" lon="11.639309"><ele>12.0</ele><time>2026-04-11T08:40:57.938Z</time></trkpt><trkpt lat="45.306546" lon="11.6393883"><ele>12.333333333333332</ele><time>2026-04-11T08:40:58.938Z</time></trkpt><trkpt lat="45.3067317" lon="11.6394428"><ele>12.666666666666666</ele><time>2026-04-11T08:40:59.938Z</time></trkpt><trkpt lat="45.3069196" lon="11.6394877"><ele>13.0</ele><time>2026-04-11T08:41:00.938Z</time></trkpt><trkpt lat="45.3071136" lon="11.6395268"><ele>14.0</ele><time>2026-04-11T08:41:01.938Z</time></trkpt><trkpt lat="45.3072994" lon="11.6395626"><ele>15.0</ele><time>2026-04-11T08:41:02.938Z</time></trkpt><trkpt lat="45.3074724" lon="11.6395852"><ele>16.0</ele><time>2026-04-11T08:41:03.938Z</time></trkpt><trkpt lat="45.3076397" lon="11.6395761"><ele>16.0</ele><time>2026-04-11T08:41:04.938Z</time></trkpt><trkpt lat="45.307811" lon="11.6395554"><ele>16.0</ele><time>2026-04-11T08:41:05.938Z</time></trkpt><trkpt lat="45.3079866" lon="11.6395127"><ele>16.0</ele><time>2026-04-11T08:41:06.938Z</time></trkpt><trkpt lat="45.3081537" lon="11.6394298"><ele>15.666666666666666</ele><time>2026-04-11T08:41:07.938Z</time></trkpt><trkpt lat="45.3083245" lon="11.639333"><ele>15.333333333333332</ele><time>2026-04-11T08:41:08.938Z</time></trkpt><trkpt lat="45.3085027" lon="11.6392336"><ele>15.0</ele><time>2026-04-11T08:41:09.938Z</time></trkpt><trkpt lat="45.3086888" lon="11.6391448"><ele>15.0</ele><time>2026-04-11T08:41:10.938Z</time></trkpt><trkpt lat="45.3088723" lon="11.6390822"><ele>15.0</ele><time>2026-04-11T08:41:11.938Z</time></trkpt><trkpt lat="45.3090667" lon="11.6390484"><ele>15.0</ele><time>2026-04-11T08:41:12.937Z</time></trkpt><trkpt lat="45.3092646" lon="11.6390219"><ele>15.0</ele><time>2026-04-11T08:41:13.938Z</time></trkpt><trkpt lat="45.3094619" lon="11.6389942"><ele>15.0</ele><time>2026-04-11T08:41:14.938Z</time></trkpt><trkpt lat="45.3096581" lon="11.6389728"><ele>15.0</ele><time>2026-04-11T08:41:15.938Z</time></trkpt><trkpt lat="45.3098592" lon="11.6389494"><ele>15.0</ele><time>2026-04-11T08:41:16.938Z</time></trkpt><trkpt lat="45.3100489" lon="11.6389218"><ele>15.0</ele><time>2026-04-11T08:41:17.938Z</time></trkpt><trkpt lat="45.3102346" lon="11.6388965"><ele>15.0</ele><time>2026-04-11T08:41:18.938Z</time></trkpt><trkpt lat="45.3104113" lon="11.6388769"><ele>15.333333333333332</ele><time>2026-04-11T08:41:19.937Z</time></trkpt><trkpt lat="45.3105842" lon="11.6388547"><ele>15.666666666666666</ele><time>2026-04-11T08:41:20.938Z</time></trkpt><trkpt lat="45.3107592" lon="11.6388399"><ele>16.0</ele><time>2026-04-11T08:41:21.938Z</time></trkpt><trkpt lat="45.3109368" lon="11.6388192"><ele>16.0</ele><time>2026-04-11T08:41:22.938Z</time></trkpt><trkpt lat="45.3111101" lon="11.6387898"><ele>16.0</ele><time>2026-04-11T08:41:23.938Z</time></trkpt><trkpt lat="45.3112848" lon="11.6387619"><ele>16.0</ele><time>2026-04-11T08:41:24.938Z</time></trkpt><trkpt lat="45.3114678" lon="11.6387396"><ele>16.333333333333332</ele><time>2026-04-11T08:41:25.938Z</time></trkpt><trkpt lat="45.3116457" lon="11.6387178"><ele>16.666666666666668</ele><time>2026-04-11T08:41:26.938Z</time></trkpt><trkpt lat="45.3118211" lon="11.6386969"><ele>17.0</ele><time>2026-04-11T08:41:27.938Z</time></trkpt><trkpt lat="45.3120016" lon="11.6386893"><ele>17.0</ele><time>2026-04-11T08:41:28.938Z</time></trkpt><trkpt lat="45.3121844" lon="11.6386972"><ele>17.0</ele><time>2026-04-11T08:41:29.938Z</time></trkpt><trkpt lat="45.3123644" lon="11.6387084"><ele>17.0</ele><time>2026-04-11T08:41:30.938Z</time></trkpt><trkpt lat="45.3125383" lon="11.6387326"><ele>17.333333333333336</ele><time>2026-04-11T08:41:31.938Z</time></trkpt><trkpt lat="45.3127141" lon="11.6387566"><ele>17.666666666666668</ele><time>2026-04-11T08:41:32.938Z</time></trkpt><trkpt lat="45.3128852" lon="11.6387799"><ele>18.0</ele><time>2026-04-11T08:41:33.938Z</time></trkpt><trkpt lat="45.3130598" lon="11.6388022"><ele>18.0</ele><time>2026-04-11T08:41:34.938Z</time></trkpt><trkpt lat="45.3132289" lon="11.63883"><ele>18.0</ele><time>2026-04-11T08:41:35.938Z</time></trkpt><trkpt lat="45.3133989" lon="11.6388587"><ele>18.0</ele><time>2026-04-11T08:41:36.938Z</time></trkpt><trkpt lat="45.3135666" lon="11.6388803"><ele>18.0</ele><time>2026-04-11T08:41:37.938Z</time></trkpt><trkpt lat="45.313735" lon="11.6388996"><ele>18.0</ele><time>2026-04-11T08:41:38.938Z</time></trkpt><trkpt lat="45.3138996" lon="11.6389212"><ele>18.0</ele><time>2026-04-11T08:41:39.938Z</time></trkpt><trkpt lat="45.3140621" lon="11.6389431"><ele>18.0</ele><time>2026-04-11T08:41:40.938Z</time></trkpt><trkpt lat="45.3142252" lon="11.6389584"><ele>18.0</ele><time>2026-04-11T08:41:41.938Z</time></trkpt><trkpt lat="45.3143902" lon="11.6389691"><ele>18.0</ele><time>2026-04-11T08:41:42.938Z</time></trkpt><trkpt lat="45.3145635" lon="11.6389918"><ele>18.0</ele><time>2026-04-11T08:41:43.938Z</time></trkpt><trkpt lat="45.3147376" lon="11.6390154"><ele>18.0</ele><time>2026-04-11T08:41:44.938Z</time></trkpt><trkpt lat="45.3149087" lon="11.6390345"><ele>18.0</ele><time>2026-04-11T08:41:45.938Z</time></trkpt><trkpt lat="45.3150874" lon="11.6390593"><ele>18.0</ele><time>2026-04-11T08:41:46.938Z</time></trkpt><trkpt lat="45.3152635" lon="11.6390853"><ele>18.0</ele><time>2026-04-11T08:41:47.938Z</time></trkpt><trkpt lat="45.3154361" lon="11.6391144"><ele>18.0</ele><time>2026-04-11T08:41:48.938Z</time></trkpt><trkpt lat="45.3156053" lon="11.639156"><ele>17.333333333333332</ele><time>2026-04-11T08:41:49.938Z</time></trkpt><trkpt lat="45.3157751" lon="11.6392134"><ele>16.666666666666664</ele><time>2026-04-11T08:41:50.938Z</time></trkpt><trkpt lat="45.3159367" lon="11.6392718"><ele>16.0</ele><time>2026-04-11T08:41:51.938Z</time></trkpt><trkpt lat="45.3160982" lon="11.6393358"><ele>16.0</ele><time>2026-04-11T08:41:52.938Z</time></trkpt><trkpt lat="45.3162561" lon="11.6394029"><ele>16.0</ele><time>2026-04-11T08:41:53.938Z</time></trkpt><trkpt lat="45.3164132" lon="11.6394686"><ele>16.0</ele><time>2026-04-11T08:41:54.938Z</time></trkpt><trkpt lat="45.3165667" lon="11.6395288"><ele>17.0</ele><time>2026-04-11T08:41:55.938Z</time></trkpt><trkpt lat="45.3167176" lon="11.6395863"><ele>18.0</ele><time>2026-04-11T08:41:56.938Z</time></trkpt><trkpt lat="45.3168658" lon="11.6396461"><ele>19.0</ele><time>2026-04-11T08:41:57.938Z</time></trkpt><trkpt lat="45.317016" lon="11.6397055"><ele>19.0</ele><time>2026-04-11T08:41:58.938Z</time></trkpt><trkpt lat="45.3171649" lon="11.6397574"><ele>19.0</ele><time>2026-04-11T08:41:59.938Z</time></trkpt><trkpt lat="45.3173152" lon="11.6398062"><ele>19.0</ele><time>2026-04-11T08:42:00.938Z</time></trkpt><trkpt lat="45.3174734" lon="11.6398505"><ele>19.333333333333332</ele><time>2026-04-11T08:42:01.938Z</time></trkpt><trkpt lat="45.3176369" lon="11.6398676"><ele>19.666666666666668</ele><time>2026-04-11T08:42:02.938Z</time></trkpt><trkpt lat="45.3178006" lon="11.6398566"><ele>20.0</ele><time>2026-04-11T08:42:03.938Z</time></trkpt><trkpt lat="45.3179627" lon="11.6398176"><ele>19.0</ele><time>2026-04-11T08:42:04.938Z</time></trkpt><trkpt lat="45.3181219" lon="11.6397673"><ele>18.0</ele><time>2026-04-11T08:42:05.938Z</time></trkpt><trkpt lat="45.3182778" lon="11.6397158"><ele>17.0</ele><time>2026-04-11T08:42:06.938Z</time></trkpt><trkpt lat="45.3184333" lon="11.639656"><ele>17.0</ele><time>2026-04-11T08:42:07.938Z</time></trkpt><trkpt lat="45.318587" lon="11.639596"><ele>17.0</ele><time>2026-04-11T08:42:08.937Z</time></trkpt><trkpt lat="45.3187436" lon="11.6395398"><ele>17.0</ele><time>2026-04-11T08:42:09.938Z</time></trkpt><trkpt lat="45.3189002" lon="11.6394842"><ele>17.0</ele><time>2026-04-11T08:42:10.938Z</time></trkpt><trkpt lat="45.3190608" lon="11.6394286"><ele>17.0</ele><time>2026-04-11T08:42:11.938Z</time></trkpt><trkpt lat="45.3192193" lon="11.6393706"><ele>17.0</ele><time>2026-04-11T08:42:12.938Z</time></trkpt><trkpt lat="45.3193825" lon="11.6393129"><ele>17.0</ele><time>2026-04-11T08:42:13.937Z</time></trkpt><trkpt lat="45.3195421" lon="11.6392506"><ele>17.0</ele><time>2026-04-11T08:42:14.938Z</time></trkpt><trkpt lat="45.3197028" lon="11.6391866"><ele>17.0</ele><time>2026-04-11T08:42:15.938Z</time></trkpt><trkpt lat="45.3198684" lon="11.6391226"><ele>17.0</ele><time>2026-04-11T08:42:16.938Z</time></trkpt><trkpt lat="45.3200308" lon="11.6390516"><ele>17.0</ele><time>2026-04-11T08:42:17.938Z</time></trkpt><trkpt lat="45.3201913" lon="11.6389847"><ele>17.0</ele><time>2026-04-11T08:42:18.938Z</time></trkpt><trkpt lat="45.3203577" lon="11.6389309"><ele>17.0</ele><time>2026-04-11T08:42:19.938Z</time></trkpt><trkpt lat="45.320516" lon="11.6388664"><ele>17.0</ele><time>2026-04-11T08:42:20.938Z</time></trkpt><trkpt lat="45.3206666" lon="11.6387682"><ele>17.0</ele><time>2026-04-11T08:42:21.938Z</time></trkpt><trkpt lat="45.320803" lon="11.6386374"><ele>16.333333333333336</ele><time>2026-04-11T08:42:22.938Z</time></trkpt><trkpt lat="45.3209321" lon="11.6384902"><ele>15.666666666666668</ele><time>2026-04-11T08:42:23.938Z</time></trkpt><trkpt lat="45.3210614" lon="11.6383415"><ele>15.0</ele><time>2026-04-11T08:42:24.938Z</time></trkpt><trkpt lat="45.3211798" lon="11.6381973"><ele>15.0</ele><time>2026-04-11T08:42:25.938Z</time></trkpt><trkpt lat="45.3212936" lon="11.638067"><ele>15.0</ele><time>2026-04-11T08:42:26.938Z</time></trkpt><trkpt lat="45.321409" lon="11.6379503"><ele>15.0</ele><time>2026-04-11T08:42:27.938Z</time></trkpt><trkpt lat="45.3215274" lon="11.6378423"><ele>15.0</ele><time>2026-04-11T08:42:28.938Z</time></trkpt><trkpt lat="45.3216537" lon="11.6377566"><ele>15.5</ele><time>2026-04-11T08:42:29.938Z</time></trkpt><trkpt lat="45.321786" lon="11.6376877"><ele>16.0</ele><time>2026-04-11T08:42:30.938Z</time></trkpt><trkpt lat="45.3219195" lon="11.6376392"><ele>16.5</ele><time>2026-04-11T08:42:31.938Z</time></trkpt><trkpt lat="45.3220518" lon="11.6376082"><ele>17.0</ele><time>2026-04-11T08:42:32.938Z</time></trkpt><trkpt lat="45.3221882" lon="11.6376106"><ele>17.25</ele><time>2026-04-11T08:42:33.938Z</time></trkpt><trkpt lat="45.3223278" lon="11.6376358"><ele>17.5</ele><time>2026-04-11T08:42:34.938Z</time></trkpt><trkpt lat="45.3224536" lon="11.6376626"><ele>17.75</ele><time>2026-04-11T08:42:35.938Z</time></trkpt><trkpt lat="45.3225651" lon="11.63769"><ele>18.0</ele><time>2026-04-11T08:42:36.938Z</time></trkpt><trkpt lat="45.3226632" lon="11.63772"><ele>18.0</ele><time>2026-04-11T08:42:37.938Z</time></trkpt><trkpt lat="45.3227509" lon="11.6377431"><ele>18.0</ele><time>2026-04-11T08:42:38.938Z</time></trkpt><trkpt lat="45.322824" lon="11.637771"><ele>18.0</ele><time>2026-04-11T08:42:39.938Z</time></trkpt><trkpt lat="45.3228881" lon="11.6378088"><ele>18.0</ele><time>2026-04-11T08:42:40.938Z</time></trkpt><trkpt lat="45.3229693" lon="11.6379068"><ele>18.0</ele><time>2026-04-11T08:42:42.937Z</time></trkpt><trkpt lat="45.3230213" lon="11.6380477"><ele>17.833333333333332</ele><time>2026-04-11T08:42:44.938Z</time></trkpt><trkpt lat="45.3231153" lon="11.6381624"><ele>17.666666666666668</ele><time>2026-04-11T08:42:46.938Z</time></trkpt><trkpt lat="45.3231822" lon="11.6381666"><ele>17.5</ele><time>2026-04-11T08:42:47.938Z</time></trkpt><trkpt lat="45.323246" lon="11.638128"><ele>17.333333333333336</ele><time>2026-04-11T08:42:48.938Z</time></trkpt><trkpt lat="45.3233003" lon="11.6379885"><ele>17.166666666666668</ele><time>2026-04-11T08:42:50.938Z</time></trkpt><trkpt lat="45.3232969" lon="11.6378871"><ele>17.0</ele><time>2026-04-11T08:42:51.938Z</time></trkpt><trkpt lat="45.3232703" lon="11.6377659"><ele>17.0</ele><time>2026-04-11T08:42:52.938Z</time></trkpt><trkpt lat="45.3232348" lon="11.6376247"><ele>17.0</ele><time>2026-04-11T08:42:53.938Z</time></trkpt><trkpt lat="45.3232226" lon="11.637444"><ele>17.0</ele><time>2026-04-11T08:42:54.938Z</time></trkpt><trkpt lat="45.3232396" lon="11.6372345"><ele>17.0</ele><time>2026-04-11T08:42:55.938Z</time></trkpt><trkpt lat="45.3232745" lon="11.6369626"><ele>16.5</ele><time>2026-04-11T08:42:56.938Z</time></trkpt><trkpt lat="45.3233249" lon="11.636684"><ele>16.0</ele><time>2026-04-11T08:42:57.938Z</time></trkpt><trkpt lat="45.3233919" lon="11.6362817"><ele>15.0</ele><time>2026-04-11T08:42:58.938Z</time></trkpt><trkpt lat="45.3234082" lon="11.635806"><ele>14.0</ele><time>2026-04-11T08:42:59.938Z</time></trkpt><trkpt lat="45.3234435" lon="11.6353871"><ele>14.5</ele><time>2026-04-11T08:43:00.938Z</time></trkpt><trkpt lat="45.3234639" lon="11.6350033"><ele>15.0</ele><time>2026-04-11T08:43:01.938Z</time></trkpt><trkpt lat="45.3234818" lon="11.6346411"><ele>15.0</ele><time>2026-04-11T08:43:02.938Z</time></trkpt><trkpt lat="45.3234998" lon="11.6343123"><ele>15.0</ele><time>2026-04-11T08:43:03.938Z</time></trkpt><trkpt lat="45.3235103" lon="11.6339997"><ele>15.0</ele><time>2026-04-11T08:43:04.938Z</time></trkpt><trkpt lat="45.3235182" lon="11.6337062"><ele>15.0</ele><time>2026-04-11T08:43:05.938Z</time></trkpt><trkpt lat="45.3235303" lon="11.6334329"><ele>15.0</ele><time>2026-04-11T08:43:06.938Z</time></trkpt><trkpt lat="45.3235404" lon="11.6331773"><ele>14.0</ele><time>2026-04-11T08:43:07.938Z</time></trkpt><trkpt lat="45.3235471" lon="11.6329342"><ele>13.0</ele><time>2026-04-11T08:43:08.938Z</time></trkpt><trkpt lat="45.3235604" lon="11.6326873"><ele>12.0</ele><time>2026-04-11T08:43:09.938Z</time></trkpt><trkpt lat="45.3235696" lon="11.6324482"><ele>11.666666666666666</ele><time>2026-04-11T08:43:10.938Z</time></trkpt><trkpt lat="45.3235777" lon="11.6322088"><ele>11.333333333333332</ele><time>2026-04-11T08:43:11.938Z</time></trkpt><trkpt lat="45.3235885" lon="11.6319691"><ele>11.0</ele><time>2026-04-11T08:43:12.938Z</time></trkpt><trkpt lat="45.3236037" lon="11.6317257"><ele>11.0</ele><time>2026-04-11T08:43:13.938Z</time></trkpt><trkpt lat="45.3236131" lon="11.6314873"><ele>11.0</ele><time>2026-04-11T08:43:14.938Z</time></trkpt><trkpt lat="45.3236204" lon="11.6312396"><ele>11.0</ele><time>2026-04-11T08:43:15.938Z</time></trkpt><trkpt lat="45.3236321" lon="11.6309956"><ele>11.0</ele><time>2026-04-11T08:43:16.938Z</time></trkpt><trkpt lat="45.3236464" lon="11.6307433"><ele>11.0</ele><time>2026-04-11T08:43:17.938Z</time></trkpt><trkpt lat="45.3236506" lon="11.6304957"><ele>11.0</ele><time>2026-04-11T08:43:18.938Z</time></trkpt><trkpt lat="45.3236739" lon="11.6302641"><ele>10.75</ele><time>2026-04-11T08:43:19.938Z</time></trkpt><trkpt lat="45.3236868" lon="11.6300522"><ele>10.5</ele><time>2026-04-11T08:43:20.938Z</time></trkpt><trkpt lat="45.3237014" lon="11.6298608"><ele>10.25</ele><time>2026-04-11T08:43:21.938Z</time></trkpt><trkpt lat="45.323713" lon="11.6297049"><ele>10.0</ele><time>2026-04-11T08:43:22.938Z</time></trkpt><trkpt lat="45.3237608" lon="11.6295705"><ele>10.25</ele><time>2026-04-11T08:43:23.938Z</time></trkpt><trkpt lat="45.3238369" lon="11.6294499"><ele>10.5</ele><time>2026-04-11T08:43:24.938Z</time></trkpt><trkpt lat="45.3239415" lon="11.6293388"><ele>10.75</ele><time>2026-04-11T08:43:25.938Z</time></trkpt><trkpt lat="45.3240758" lon="11.6292489"><ele>11.0</ele><time>2026-04-11T08:43:26.938Z</time></trkpt><trkpt lat="45.3242149" lon="11.6291709"><ele>12.0</ele><time>2026-04-11T08:43:27.938Z</time></trkpt><trkpt lat="45.324428" lon="11.6291407"><ele>13.0</ele><time>2026-04-11T08:43:28.938Z</time></trkpt><trkpt lat="45.3246758" lon="11.6291701"><ele>11.5</ele><time>2026-04-11T08:43:29.938Z</time></trkpt><trkpt lat="45.3249416" lon="11.6292239"><ele>10.0</ele><time>2026-04-11T08:43:30.938Z</time></trkpt><trkpt lat="45.325234" lon="11.6293098"><ele>10.0</ele><time>2026-04-11T08:43:31.938Z</time></trkpt><trkpt lat="45.3255365" lon="11.629396"><ele>10.0</ele><time>2026-04-11T08:43:32.937Z</time></trkpt><trkpt lat="45.3258802" lon="11.6295174"><ele>10.0</ele><time>2026-04-11T08:43:33.938Z</time></trkpt><trkpt lat="45.3262172" lon="11.6296561"><ele>10.0</ele><time>2026-04-11T08:43:34.938Z</time></trkpt><trkpt lat="45.3265197" lon="11.6298094"><ele>10.0</ele><time>2026-04-11T08:43:35.938Z</time></trkpt><trkpt lat="45.326794" lon="11.6299843"><ele>10.0</ele><time>2026-04-11T08:43:36.938Z</time></trkpt><trkpt lat="45.3270367" lon="11.6301742"><ele>10.5</ele><time>2026-04-11T08:43:37.938Z</time></trkpt><trkpt lat="45.3272538" lon="11.6303577"><ele>11.0</ele><time>2026-04-11T08:43:38.938Z</time></trkpt><trkpt lat="45.3274565" lon="11.6305422"><ele>11.0</ele><time>2026-04-11T08:43:39.938Z</time></trkpt><trkpt lat="45.3276391" lon="11.6307134"><ele>11.0</ele><time>2026-04-11T08:43:40.938Z</time></trkpt><trkpt lat="45.3278221" lon="11.630885"><ele>11.0</ele><time>2026-04-11T08:43:41.938Z</time></trkpt><trkpt lat="45.3279962" lon="11.6310548"><ele>11.666666666666666</ele><time>2026-04-11T08:43:42.938Z</time></trkpt><trkpt lat="45.3281655" lon="11.631219"><ele>12.333333333333332</ele><time>2026-04-11T08:43:43.937Z</time></trkpt><trkpt lat="45.3283351" lon="11.6313774"><ele>13.0</ele><time>2026-04-11T08:43:44.938Z</time></trkpt><trkpt lat="45.3285006" lon="11.6315363"><ele>13.0</ele><time>2026-04-11T08:43:45.938Z</time></trkpt><trkpt lat="45.3286636" lon="11.6316982"><ele>13.0</ele><time>2026-04-11T08:43:46.938Z</time></trkpt><trkpt lat="45.3288232" lon="11.6318504"><ele>13.0</ele><time>2026-04-11T08:43:47.938Z</time></trkpt><trkpt lat="45.3289844" lon="11.6320127"><ele>11.666666666666666</ele><time>2026-04-11T08:43:48.938Z</time></trkpt><trkpt lat="45.3291421" lon="11.6321546"><ele>10.333333333333332</ele><time>2026-04-11T08:43:49.937Z</time></trkpt><trkpt lat="45.3292926" lon="11.6322893"><ele>9.0</ele><time>2026-04-11T08:43:50.938Z</time></trkpt><trkpt lat="45.329447" lon="11.6324123"><ele>9.0</ele><time>2026-04-11T08:43:51.937Z</time></trkpt><trkpt lat="45.3296095" lon="11.6325236"><ele>9.0</ele><time>2026-04-11T08:43:52.938Z</time></trkpt><trkpt lat="45.3297815" lon="11.6326236"><ele>9.0</ele><time>2026-04-11T08:43:53.938Z</time></trkpt><trkpt lat="45.3299598" lon="11.6327044"><ele>10.333333333333332</ele><time>2026-04-11T08:43:54.938Z</time></trkpt><trkpt lat="45.3301411" lon="11.6327921"><ele>11.666666666666666</ele><time>2026-04-11T08:43:55.938Z</time></trkpt><trkpt lat="45.33032" lon="11.632876"><ele>13.0</ele><time>2026-04-11T08:43:56.938Z</time></trkpt><trkpt lat="45.330509" lon="11.6329694"><ele>13.333333333333332</ele><time>2026-04-11T08:43:57.938Z</time></trkpt><trkpt lat="45.33071" lon="11.6330622"><ele>13.666666666666668</ele><time>2026-04-11T08:43:58.938Z</time></trkpt><trkpt lat="45.3309153" lon="11.6331516"><ele>14.0</ele><time>2026-04-11T08:43:59.938Z</time></trkpt><trkpt lat="45.331127" lon="11.6332387"><ele>14.0</ele><time>2026-04-11T08:44:00.938Z</time></trkpt><trkpt lat="45.3313342" lon="11.633316"><ele>14.0</ele><time>2026-04-11T08:44:01.938Z</time></trkpt><trkpt lat="45.3315435" lon="11.6333713"><ele>14.0</ele><time>2026-04-11T08:44:02.938Z</time></trkpt><trkpt lat="45.3317637" lon="11.6334074"><ele>13.0</ele><time>2026-04-11T08:44:03.938Z</time></trkpt><trkpt lat="45.331988" lon="11.6334211"><ele>12.0</ele><time>2026-04-11T08:44:04.938Z</time></trkpt><trkpt lat="45.332215" lon="11.6334181"><ele>12.333333333333332</ele><time>2026-04-11T08:44:05.938Z</time></trkpt><trkpt lat="45.3324398" lon="11.6334085"><ele>12.666666666666666</ele><time>2026-04-11T08:44:06.938Z</time></trkpt><trkpt lat="45.3326467" lon="11.6334001"><ele>13.0</ele><time>2026-04-11T08:44:07.938Z</time></trkpt><trkpt lat="45.3328364" lon="11.6333962"><ele>13.0</ele><time>2026-04-11T08:44:08.937Z</time></trkpt><trkpt lat="45.3330089" lon="11.6333932"><ele>13.0</ele><time>2026-04-11T08:44:09.938Z</time></trkpt><trkpt lat="45.3331549" lon="11.6333867"><ele>13.0</ele><time>2026-04-11T08:44:10.938Z</time></trkpt><trkpt lat="45.3332799" lon="11.6333873"><ele>13.0</ele><time>2026-04-11T08:44:11.938Z</time></trkpt><trkpt lat="45.3333925" lon="11.6334273"><ele>14.0</ele><time>2026-04-11T08:44:12.937Z</time></trkpt><trkpt lat="45.3334935" lon="11.6335023"><ele>15.0</ele><time>2026-04-11T08:44:13.938Z</time></trkpt><trkpt lat="45.3335835" lon="11.6336219"><ele>16.0</ele><time>2026-04-11T08:44:14.938Z</time></trkpt><trkpt lat="45.3336602" lon="11.6337858"><ele>17.0</ele><time>2026-04-11T08:44:15.938Z</time></trkpt><trkpt lat="45.3337141" lon="11.6339873"><ele>17.0</ele><time>2026-04-11T08:44:16.938Z</time></trkpt><trkpt lat="45.3337537" lon="11.6342145"><ele>17.0</ele><time>2026-04-11T08:44:17.938Z</time></trkpt><trkpt lat="45.3337997" lon="11.6344581"><ele>17.0</ele><time>2026-04-11T08:44:18.938Z</time></trkpt><trkpt lat="45.3338457" lon="11.6347126"><ele>17.0</ele><time>2026-04-11T08:44:19.938Z</time></trkpt><trkpt lat="45.3338919" lon="11.6349785"><ele>17.0</ele><time>2026-04-11T08:44:20.938Z</time></trkpt><trkpt lat="45.3339332" lon="11.6352421"><ele>17.0</ele><time>2026-04-11T08:44:21.937Z</time></trkpt><trkpt lat="45.3339667" lon="11.6354998"><ele>17.333333333333336</ele><time>2026-04-11T08:44:22.938Z</time></trkpt><trkpt lat="45.3340021" lon="11.6357554"><ele>17.666666666666668</ele><time>2026-04-11T08:44:23.938Z</time></trkpt><trkpt lat="45.3340356" lon="11.6360149"><ele>18.0</ele><time>2026-04-11T08:44:24.938Z</time></trkpt><trkpt lat="45.3340696" lon="11.6362763"><ele>18.0</ele><time>2026-04-11T08:44:25.938Z</time></trkpt><trkpt lat="45.3341036" lon="11.6365395"><ele>18.0</ele><time>2026-04-11T08:44:26.938Z</time></trkpt><trkpt lat="45.3341345" lon="11.636802"><ele>18.0</ele><time>2026-04-11T08:44:27.938Z</time></trkpt><trkpt lat="45.3341628" lon="11.6370613"><ele>18.0</ele><time>2026-04-11T08:44:28.938Z</time></trkpt><trkpt lat="45.3341906" lon="11.6373211"><ele>18.0</ele><time>2026-04-11T08:44:29.938Z</time></trkpt><trkpt lat="45.334209" lon="11.6375816"><ele>18.0</ele><time>2026-04-11T08:44:30.938Z</time></trkpt><trkpt lat="45.3342241" lon="11.6378446"><ele>18.0</ele><time>2026-04-11T08:44:31.938Z</time></trkpt><trkpt lat="45.3342375" lon="11.638109"><ele>18.0</ele><time>2026-04-11T08:44:32.938Z</time></trkpt><trkpt lat="45.3342473" lon="11.638378"><ele>18.0</ele><time>2026-04-11T08:44:33.938Z</time></trkpt><trkpt lat="45.334259" lon="11.6386443"><ele>18.0</ele><time>2026-04-11T08:44:34.938Z</time></trkpt><trkpt lat="45.3342635" lon="11.6389103"><ele>18.0</ele><time>2026-04-11T08:44:35.938Z</time></trkpt><trkpt lat="45.3342739" lon="11.6391712"><ele>18.0</ele><time>2026-04-11T08:44:36.938Z</time></trkpt><trkpt lat="45.334283" lon="11.6394285"><ele>18.333333333333332</ele><time>2026-04-11T08:44:37.938Z</time></trkpt><trkpt lat="45.3342917" lon="11.6396784"><ele>18.666666666666664</ele><time>2026-04-11T08:44:38.938Z</time></trkpt><trkpt lat="45.3342981" lon="11.63991"><ele>19.0</ele><time>2026-04-11T08:44:39.938Z</time></trkpt><trkpt lat="45.3343255" lon="11.6401098"><ele>19.0</ele><time>2026-04-11T08:44:40.938Z</time></trkpt><trkpt lat="45.3343515" lon="11.6402798"><ele>19.0</ele><time>2026-04-11T08:44:41.938Z</time></trkpt><trkpt lat="45.3343817" lon="11.6404292"><ele>19.0</ele><time>2026-04-11T08:44:42.938Z</time></trkpt><trkpt lat="45.3343821" lon="11.6405658"><ele>19.0</ele><time>2026-04-11T08:44:43.938Z</time></trkpt><trkpt lat="45.3343644" lon="11.6406859"><ele>19.0</ele><time>2026-04-11T08:44:44.938Z</time></trkpt><trkpt lat="45.3343477" lon="11.6407951"><ele>19.2</ele><time>2026-04-11T08:44:45.938Z</time></trkpt><trkpt lat="45.3343608" lon="11.640895"><ele>19.4</ele><time>2026-04-11T08:44:46.938Z</time></trkpt><trkpt lat="45.3344495" lon="11.6410217"><ele>19.6</ele><time>2026-04-11T08:44:48.938Z</time></trkpt><trkpt lat="45.3345795" lon="11.6410606"><ele>19.8</ele><time>2026-04-11T08:44:50.937Z</time></trkpt><trkpt lat="45.3346861" lon="11.6409925"><ele>20.0</ele><time>2026-04-11T08:44:51.938Z</time></trkpt><trkpt lat="45.334857" lon="11.6409493"><ele>20.0</ele><time>2026-04-11T08:44:52.938Z</time></trkpt><trkpt lat="45.335016" lon="11.6409276"><ele>20.0</ele><time>2026-04-11T08:44:53.938Z</time></trkpt><trkpt lat="45.3351817" lon="11.6409211"><ele>20.0</ele><time>2026-04-11T08:44:54.937Z</time></trkpt><trkpt lat="45.3353495" lon="11.6409418"><ele>20.0</ele><time>2026-04-11T08:44:55.938Z</time></trkpt><trkpt lat="45.335534" lon="11.6409137"><ele>20.0</ele><time>2026-04-11T08:44:56.938Z</time></trkpt><trkpt lat="45.3357058" lon="11.6408877"><ele>20.0</ele><time>2026-04-11T08:44:57.938Z</time></trkpt><trkpt lat="45.3358728" lon="11.6408719"><ele>20.333333333333336</ele><time>2026-04-11T08:44:58.938Z</time></trkpt><trkpt lat="45.3360439" lon="11.6408599"><ele>20.666666666666668</ele><time>2026-04-11T08:44:59.938Z</time></trkpt><trkpt lat="45.3362105" lon="11.6408468"><ele>21.0</ele><time>2026-04-11T08:45:00.938Z</time></trkpt><trkpt lat="45.3364017" lon="11.6408343"><ele>21.0</ele><time>2026-04-11T08:45:01.938Z</time></trkpt><trkpt lat="45.3366136" lon="11.6408237"><ele>21.0</ele><time>2026-04-11T08:45:02.938Z</time></trkpt><trkpt lat="45.3368194" lon="11.6408055"><ele>21.0</ele><time>2026-04-11T08:45:03.938Z</time></trkpt><trkpt lat="45.3370419" lon="11.6407889"><ele>20.666666666666668</ele><time>2026-04-11T08:45:04.938Z</time></trkpt><trkpt lat="45.3372575" lon="11.6407724"><ele>20.333333333333336</ele><time>2026-04-11T08:45:05.938Z</time></trkpt><trkpt lat="45.3374894" lon="11.6407587"><ele>20.0</ele><time>2026-04-11T08:45:06.938Z</time></trkpt><trkpt lat="45.3377164" lon="11.6407454"><ele>20.0</ele><time>2026-04-11T08:45:07.938Z</time></trkpt><trkpt lat="45.3379503" lon="11.6407255"><ele>20.0</ele><time>2026-04-11T08:45:08.938Z</time></trkpt><trkpt lat="45.3381915" lon="11.6406954"><ele>19.5</ele><time>2026-04-11T08:45:09.938Z</time></trkpt><trkpt lat="45.3384306" lon="11.6406615"><ele>19.0</ele><time>2026-04-11T08:45:10.937Z</time></trkpt><trkpt lat="45.3386667" lon="11.6406179"><ele>18.5</ele><time>2026-04-11T08:45:11.938Z</time></trkpt><trkpt lat="45.3389011" lon="11.6405562"><ele>18.0</ele><time>2026-04-11T08:45:12.938Z</time></trkpt><trkpt lat="45.3391174" lon="11.6405021"><ele>18.0</ele><time>2026-04-11T08:45:13.938Z</time></trkpt><trkpt lat="45.3393192" lon="11.6404372"><ele>18.0</ele><time>2026-04-11T08:45:14.938Z</time></trkpt><trkpt lat="45.3395029" lon="11.6403613"><ele>18.0</ele><time>2026-04-11T08:45:15.938Z</time></trkpt><trkpt lat="45.3396744" lon="11.6402894"><ele>18.0</ele><time>2026-04-11T08:45:16.938Z</time></trkpt><trkpt lat="45.3398293" lon="11.6402223"><ele>18.0</ele><time>2026-04-11T08:45:17.938Z</time></trkpt><trkpt lat="45.339962" lon="11.6401631"><ele>18.0</ele><time>2026-04-11T08:45:18.938Z</time></trkpt><trkpt lat="45.3400729" lon="11.6401091"><ele>18.0</ele><time>2026-04-11T08:45:19.938Z</time></trkpt><trkpt lat="45.3401635" lon="11.6400605"><ele>18.0</ele><time>2026-04-11T08:45:20.938Z</time></trkpt><trkpt lat="45.3402308" lon="11.640007"><ele>18.0</ele><time>2026-04-11T08:45:21.938Z</time></trkpt><trkpt lat="45.3402742" lon="11.639939"><ele>18.0</ele><time>2026-04-11T08:45:22.938Z</time></trkpt><trkpt lat="45.3402939" lon="11.6398495"><ele>18.0</ele><time>2026-04-11T08:45:23.938Z</time></trkpt><trkpt lat="45.3403101" lon="11.6397511"><ele>18.0</ele><time>2026-04-11T08:45:24.938Z</time></trkpt><trkpt lat="45.3402877" lon="11.6395864"><ele>18.0</ele><time>2026-04-11T08:45:25.938Z</time></trkpt><trkpt lat="45.340296" lon="11.6394014"><ele>17.666666666666668</ele><time>2026-04-11T08:45:26.938Z</time></trkpt><trkpt lat="45.3403301" lon="11.6391819"><ele>17.333333333333336</ele><time>2026-04-11T08:45:27.938Z</time></trkpt><trkpt lat="45.3403737" lon="11.6389215"><ele>17.0</ele><time>2026-04-11T08:45:28.938Z</time></trkpt><trkpt lat="45.3404141" lon="11.6386485"><ele>17.0</ele><time>2026-04-11T08:45:29.938Z</time></trkpt><trkpt lat="45.3404559" lon="11.6383689"><ele>17.0</ele><time>2026-04-11T08:45:30.937Z</time></trkpt><trkpt lat="45.3405013" lon="11.6380841"><ele>17.0</ele><time>2026-04-11T08:45:31.937Z</time></trkpt><trkpt lat="45.3405526" lon="11.6378084"><ele>17.0</ele><time>2026-04-11T08:45:32.938Z</time></trkpt><trkpt lat="45.3406108" lon="11.6375253"><ele>17.0</ele><time>2026-04-11T08:45:33.938Z</time></trkpt><trkpt lat="45.3406729" lon="11.6372422"><ele>17.0</ele><time>2026-04-11T08:45:34.938Z</time></trkpt><trkpt lat="45.3407423" lon="11.6369595"><ele>17.0</ele><time>2026-04-11T08:45:35.938Z</time></trkpt><trkpt lat="45.3408188" lon="11.636684"><ele>17.0</ele><time>2026-04-11T08:45:36.938Z</time></trkpt><trkpt lat="45.3409053" lon="11.6364031"><ele>17.0</ele><time>2026-04-11T08:45:37.938Z</time></trkpt><trkpt lat="45.3409921" lon="11.6361143"><ele>17.0</ele><time>2026-04-11T08:45:38.938Z</time></trkpt><trkpt lat="45.3410675" lon="11.6358254"><ele>17.0</ele><time>2026-04-11T08:45:39.938Z</time></trkpt><trkpt lat="45.3411379" lon="11.6355312"><ele>17.0</ele><time>2026-04-11T08:45:40.937Z</time></trkpt><trkpt lat="45.3412033" lon="11.6352293"><ele>16.666666666666668</ele><time>2026-04-11T08:45:41.938Z</time></trkpt><trkpt lat="45.341269" lon="11.634929"><ele>16.333333333333332</ele><time>2026-04-11T08:45:42.938Z</time></trkpt><trkpt lat="45.3413335" lon="11.6346431"><ele>16.0</ele><time>2026-04-11T08:45:43.938Z</time></trkpt><trkpt lat="45.3414047" lon="11.6343547"><ele>15.666666666666666</ele><time>2026-04-11T08:45:44.938Z</time></trkpt><trkpt lat="45.3414912" lon="11.6340768"><ele>15.333333333333332</ele><time>2026-04-11T08:45:45.937Z</time></trkpt><trkpt lat="45.3415824" lon="11.6337991"><ele>15.0</ele><time>2026-04-11T08:45:46.938Z</time></trkpt><trkpt lat="45.3416796" lon="11.6335328"><ele>14.666666666666668</ele><time>2026-04-11T08:45:47.938Z</time></trkpt><trkpt lat="45.3417876" lon="11.6332684"><ele>14.333333333333334</ele><time>2026-04-11T08:45:48.938Z</time></trkpt><trkpt lat="45.3418985" lon="11.6329964"><ele>14.0</ele><time>2026-04-11T08:45:49.938Z</time></trkpt><trkpt lat="45.3420046" lon="11.632727"><ele>14.0</ele><time>2026-04-11T08:45:50.937Z</time></trkpt><trkpt lat="45.3420968" lon="11.6324539"><ele>14.0</ele><time>2026-04-11T08:45:51.938Z</time></trkpt><trkpt lat="45.3421906" lon="11.6321718"><ele>14.0</ele><time>2026-04-11T08:45:52.938Z</time></trkpt><trkpt lat="45.3422846" lon="11.6318927"><ele>14.333333333333334</ele><time>2026-04-11T08:45:53.938Z</time></trkpt><trkpt lat="45.3423682" lon="11.6316159"><ele>14.666666666666668</ele><time>2026-04-11T08:45:54.938Z</time></trkpt><trkpt lat="45.3424544" lon="11.6313336"><ele>15.0</ele><time>2026-04-11T08:45:55.938Z</time></trkpt><trkpt lat="45.3425358" lon="11.6310532"><ele>15.0</ele><time>2026-04-11T08:45:56.938Z</time></trkpt><trkpt lat="45.3426186" lon="11.6307753"><ele>15.0</ele><time>2026-04-11T08:45:57.937Z</time></trkpt><trkpt lat="45.3427112" lon="11.6305041"><ele>15.0</ele><time>2026-04-11T08:45:58.937Z</time></trkpt><trkpt lat="45.3428142" lon="11.6302352"><ele>14.666666666666668</ele><time>2026-04-11T08:45:59.938Z</time></trkpt><trkpt lat="45.3429203" lon="11.6299744"><ele>14.333333333333334</ele><time>2026-04-11T08:46:00.938Z</time></trkpt><trkpt lat="45.3430282" lon="11.629714"><ele>14.0</ele><time>2026-04-11T08:46:01.938Z</time></trkpt><trkpt lat="45.3431312" lon="11.6294538"><ele>13.666666666666668</ele><time>2026-04-11T08:46:02.938Z</time></trkpt><trkpt lat="45.3432394" lon="11.6292064"><ele>13.333333333333332</ele><time>2026-04-11T08:46:03.938Z</time></trkpt><trkpt lat="45.3433418" lon="11.6289614"><ele>13.0</ele><time>2026-04-11T08:46:04.938Z</time></trkpt><trkpt lat="45.3434453" lon="11.6287184"><ele>12.666666666666666</ele><time>2026-04-11T08:46:05.938Z</time></trkpt><trkpt lat="45.3435519" lon="11.6284801"><ele>12.333333333333332</ele><time>2026-04-11T08:46:06.938Z</time></trkpt><trkpt lat="45.3436655" lon="11.6282466"><ele>12.0</ele><time>2026-04-11T08:46:07.938Z</time></trkpt><trkpt lat="45.3437666" lon="11.6280234"><ele>12.333333333333332</ele><time>2026-04-11T08:46:08.938Z</time></trkpt><trkpt lat="45.343868" lon="11.6278082"><ele>12.666666666666666</ele><time>2026-04-11T08:46:09.938Z</time></trkpt><trkpt lat="45.3439472" lon="11.6275963"><ele>13.0</ele><time>2026-04-11T08:46:10.938Z</time></trkpt><trkpt lat="45.3440128" lon="11.6273748"><ele>13.333333333333332</ele><time>2026-04-11T08:46:11.937Z</time></trkpt><trkpt lat="45.3440417" lon="11.6271527"><ele>13.666666666666668</ele><time>2026-04-11T08:46:12.938Z</time></trkpt><trkpt lat="45.3440554" lon="11.6269178"><ele>14.0</ele><time>2026-04-11T08:46:13.938Z</time></trkpt><trkpt lat="45.3440489" lon="11.6266768"><ele>14.0</ele><time>2026-04-11T08:46:14.938Z</time></trkpt><trkpt lat="45.3440191" lon="11.6264401"><ele>14.0</ele><time>2026-04-11T08:46:15.938Z</time></trkpt><trkpt lat="45.3439558" lon="11.6262007"><ele>14.0</ele><time>2026-04-11T08:46:16.938Z</time></trkpt><trkpt lat="45.3438801" lon="11.6259679"><ele>13.333333333333334</ele><time>2026-04-11T08:46:17.938Z</time></trkpt><trkpt lat="45.3437864" lon="11.6257487"><ele>12.666666666666668</ele><time>2026-04-11T08:46:18.938Z</time></trkpt><trkpt lat="45.3436965" lon="11.6255476"><ele>12.0</ele><time>2026-04-11T08:46:19.938Z</time></trkpt><trkpt lat="45.3436271" lon="11.6253757"><ele>11.6</ele><time>2026-04-11T08:46:20.938Z</time></trkpt><trkpt lat="45.3435816" lon="11.6252314"><ele>11.2</ele><time>2026-04-11T08:46:21.938Z</time></trkpt><trkpt lat="45.3435794" lon="11.6250975"><ele>10.8</ele><time>2026-04-11T08:46:22.938Z</time></trkpt><trkpt lat="45.3436113" lon="11.6249715"><ele>10.4</ele><time>2026-04-11T08:46:23.938Z</time></trkpt><trkpt lat="45.3436863" lon="11.6248304"><ele>10.0</ele><time>2026-04-11T08:46:24.938Z</time></trkpt><trkpt lat="45.3437981" lon="11.6246903"><ele>11.0</ele><time>2026-04-11T08:46:25.938Z</time></trkpt><trkpt lat="45.3439225" lon="11.6245304"><ele>12.0</ele><time>2026-04-11T08:46:26.938Z</time></trkpt><trkpt lat="45.3440365" lon="11.6243779"><ele>13.0</ele><time>2026-04-11T08:46:27.937Z</time></trkpt><trkpt lat="45.3441398" lon="11.6242443"><ele>13.0</ele><time>2026-04-11T08:46:28.938Z</time></trkpt><trkpt lat="45.3442376" lon="11.6241092"><ele>13.0</ele><time>2026-04-11T08:46:29.938Z</time></trkpt><trkpt lat="45.3443373" lon="11.6239764"><ele>13.0</ele><time>2026-04-11T08:46:30.938Z</time></trkpt><trkpt lat="45.3444449" lon="11.6238541"><ele>13.0</ele><time>2026-04-11T08:46:31.938Z</time></trkpt><trkpt lat="45.3445638" lon="11.6237521"><ele>13.0</ele><time>2026-04-11T08:46:32.938Z</time></trkpt><trkpt lat="45.3446893" lon="11.6236592"><ele>13.0</ele><time>2026-04-11T08:46:33.938Z</time></trkpt><trkpt lat="45.3448278" lon="11.6235655"><ele>13.0</ele><time>2026-04-11T08:46:34.938Z</time></trkpt><trkpt lat="45.3449523" lon="11.6234824"><ele>13.0</ele><time>2026-04-11T08:46:35.938Z</time></trkpt><trkpt lat="45.3450617" lon="11.6234038"><ele>13.499999999999998</ele><time>2026-04-11T08:46:36.938Z</time></trkpt><trkpt lat="45.345151" lon="11.62335"><ele>14.0</ele><time>2026-04-11T08:46:37.938Z</time></trkpt><trkpt lat="45.3452274" lon="11.6233067"><ele>14.5</ele><time>2026-04-11T08:46:38.938Z</time></trkpt><trkpt lat="45.3452754" lon="11.6232474"><ele>15.0</ele><time>2026-04-11T08:46:39.938Z</time></trkpt><trkpt lat="45.3452982" lon="11.6230968"><ele>15.499999999999998</ele><time>2026-04-11T08:46:41.938Z</time></trkpt><trkpt lat="45.3452753" lon="11.6229991"><ele>16.0</ele><time>2026-04-11T08:46:42.938Z</time></trkpt><trkpt lat="45.3452367" lon="11.622889"><ele>16.6</ele><time>2026-04-11T08:46:43.938Z</time></trkpt><trkpt lat="45.3451813" lon="11.6227746"><ele>17.200000000000003</ele><time>2026-04-11T08:46:44.938Z</time></trkpt><trkpt lat="45.3451059" lon="11.6226602"><ele>17.799999999999997</ele><time>2026-04-11T08:46:45.938Z</time></trkpt><trkpt lat="45.345025" lon="11.6225509"><ele>18.4</ele><time>2026-04-11T08:46:46.938Z</time></trkpt><trkpt lat="45.3449641" lon="11.6224308"><ele>19.0</ele><time>2026-04-11T08:46:47.938Z</time></trkpt><trkpt lat="45.3449033" lon="11.6223001"><ele>19.0</ele><time>2026-04-11T08:46:48.938Z</time></trkpt><trkpt lat="45.3448462" lon="11.6221579"><ele>19.0</ele><time>2026-04-11T08:46:49.938Z</time></trkpt><trkpt lat="45.3448028" lon="11.6220042"><ele>19.0</ele><time>2026-04-11T08:46:50.938Z</time></trkpt><trkpt lat="45.3447785" lon="11.6218299"><ele>19.0</ele><time>2026-04-11T08:46:51.937Z</time></trkpt><trkpt lat="45.3447678" lon="11.6216532"><ele>19.75</ele><time>2026-04-11T08:46:52.938Z</time></trkpt><trkpt lat="45.344778" lon="11.6214715"><ele>20.5</ele><time>2026-04-11T08:46:53.938Z</time></trkpt><trkpt lat="45.3448092" lon="11.6212662"><ele>21.25</ele><time>2026-04-11T08:46:54.938Z</time></trkpt><trkpt lat="45.3448697" lon="11.6210707"><ele>22.0</ele><time>2026-04-11T08:46:55.938Z</time></trkpt><trkpt lat="45.3449071" lon="11.6207557"><ele>23.0</ele><time>2026-04-11T08:46:56.938Z</time></trkpt><trkpt lat="45.344961" lon="11.6204321"><ele>24.0</ele><time>2026-04-11T08:46:57.938Z</time></trkpt><trkpt lat="45.3450079" lon="11.6200825"><ele>24.5</ele><time>2026-04-11T08:46:58.938Z</time></trkpt><trkpt lat="45.3450551" lon="11.6197501"><ele>25.0</ele><time>2026-04-11T08:46:59.938Z</time></trkpt><trkpt lat="45.3451062" lon="11.6194201"><ele>25.333333333333336</ele><time>2026-04-11T08:47:00.938Z</time></trkpt><trkpt lat="45.3451552" lon="11.6191176"><ele>25.666666666666664</ele><time>2026-04-11T08:47:01.938Z</time></trkpt><trkpt lat="45.3451064" lon="11.6189655"><ele>26.0</ele><time>2026-04-11T08:47:02.938Z</time></trkpt><trkpt lat="45.3450594" lon="11.6187489"><ele>28.333333333333332</ele><time>2026-04-11T08:47:03.938Z</time></trkpt><trkpt lat="45.3450196" lon="11.6185468"><ele>30.666666666666664</ele><time>2026-04-11T08:47:04.938Z</time></trkpt><trkpt lat="45.3449689" lon="11.6183381"><ele>33.0</ele><time>2026-04-11T08:47:05.938Z</time></trkpt><trkpt lat="45.3449144" lon="11.6181174"><ele>33.0</ele><time>2026-04-11T08:47:06.938Z</time></trkpt><trkpt lat="45.344859" lon="11.6178813"><ele>33.0</ele><time>2026-04-11T08:47:07.938Z</time></trkpt><trkpt lat="45.3447978" lon="11.6176431"><ele>33.0</ele><time>2026-04-11T08:47:08.938Z</time></trkpt><trkpt lat="45.3447377" lon="11.6173981"><ele>29.0</ele><time>2026-04-11T08:47:09.938Z</time></trkpt><trkpt lat="45.3446802" lon="11.617149"><ele>25.0</ele><time>2026-04-11T08:47:10.938Z</time></trkpt><trkpt lat="45.3446197" lon="11.6169083"><ele>21.0</ele><time>2026-04-11T08:47:11.938Z</time></trkpt><trkpt lat="45.3445566" lon="11.6166699"><ele>21.0</ele><time>2026-04-11T08:47:12.937Z</time></trkpt><trkpt lat="45.3444965" lon="11.6164315"><ele>21.0</ele><time>2026-04-11T08:47:13.938Z</time></trkpt><trkpt lat="45.3444479" lon="11.6161956"><ele>21.0</ele><time>2026-04-11T08:47:14.938Z</time></trkpt><trkpt lat="45.3444116" lon="11.6159577"><ele>21.0</ele><time>2026-04-11T08:47:15.938Z</time></trkpt><trkpt lat="45.3443808" lon="11.6156949"><ele>21.0</ele><time>2026-04-11T08:47:16.938Z</time></trkpt><trkpt lat="45.3443482" lon="11.6154281"><ele>21.0</ele><time>2026-04-11T08:47:17.938Z</time></trkpt><trkpt lat="45.3443176" lon="11.6151586"><ele>21.0</ele><time>2026-04-11T08:47:18.938Z</time></trkpt><trkpt lat="45.3442843" lon="11.6148921"><ele>21.0</ele><time>2026-04-11T08:47:19.938Z</time></trkpt><trkpt lat="45.3442481" lon="11.6146291"><ele>21.0</ele><time>2026-04-11T08:47:20.938Z</time></trkpt><trkpt lat="45.3442135" lon="11.6143704"><ele>21.0</ele><time>2026-04-11T08:47:21.938Z</time></trkpt><trkpt lat="45.3441871" lon="11.61411"><ele>21.0</ele><time>2026-04-11T08:47:22.938Z</time></trkpt><trkpt lat="45.3441571" lon="11.6138674"><ele>21.0</ele><time>2026-04-11T08:47:23.938Z</time></trkpt><trkpt lat="45.3441268" lon="11.6136404"><ele>20.666666666666668</ele><time>2026-04-11T08:47:24.938Z</time></trkpt><trkpt lat="45.3440992" lon="11.6134184"><ele>20.333333333333336</ele><time>2026-04-11T08:47:25.937Z</time></trkpt><trkpt lat="45.3440827" lon="11.6131967"><ele>20.0</ele><time>2026-04-11T08:47:26.938Z</time></trkpt><trkpt lat="45.3440719" lon="11.6129784"><ele>20.0</ele><time>2026-04-11T08:47:27.938Z</time></trkpt><trkpt lat="45.3440694" lon="11.6127715"><ele>20.0</ele><time>2026-04-11T08:47:28.938Z</time></trkpt><trkpt lat="45.3440632" lon="11.6125822"><ele>20.0</ele><time>2026-04-11T08:47:29.938Z</time></trkpt><trkpt lat="45.344055" lon="11.6124118"><ele>20.0</ele><time>2026-04-11T08:47:30.938Z</time></trkpt><trkpt lat="45.344048" lon="11.6122722"><ele>20.0</ele><time>2026-04-11T08:47:31.937Z</time></trkpt><trkpt lat="45.3440458" lon="11.6121544"><ele>20.0</ele><time>2026-04-11T08:47:32.938Z</time></trkpt><trkpt lat="45.3440406" lon="11.6120556"><ele>20.0</ele><time>2026-04-11T08:47:33.937Z</time></trkpt><trkpt lat="45.3440386" lon="11.6119592"><ele>20.0</ele><time>2026-04-11T08:47:34.938Z</time></trkpt><trkpt lat="45.3440354" lon="11.6118602"><ele>20.0</ele><time>2026-04-11T08:47:35.938Z</time></trkpt><trkpt lat="45.3440259" lon="11.6117514"><ele>20.0</ele><time>2026-04-11T08:47:36.938Z</time></trkpt><trkpt lat="45.3440232" lon="11.6116223"><ele>19.8</ele><time>2026-04-11T08:47:37.938Z</time></trkpt><trkpt lat="45.344022" lon="11.6114844"><ele>19.6</ele><time>2026-04-11T08:47:38.938Z</time></trkpt><trkpt lat="45.3440205" lon="11.6113446"><ele>19.4</ele><time>2026-04-11T08:47:39.938Z</time></trkpt><trkpt lat="45.3440177" lon="11.6112033"><ele>19.2</ele><time>2026-04-11T08:47:40.938Z</time></trkpt><trkpt lat="45.3440156" lon="11.61106"><ele>19.0</ele><time>2026-04-11T08:47:41.938Z</time></trkpt><trkpt lat="45.3440153" lon="11.6109206"><ele>19.4</ele><time>2026-04-11T08:47:42.938Z</time></trkpt><trkpt lat="45.3440133" lon="11.6107853"><ele>19.799999999999997</ele><time>2026-04-11T08:47:43.938Z</time></trkpt><trkpt lat="45.3440213" lon="11.6106374"><ele>20.200000000000003</ele><time>2026-04-11T08:47:44.938Z</time></trkpt><trkpt lat="45.3440318" lon="11.6104971"><ele>20.6</ele><time>2026-04-11T08:47:45.938Z</time></trkpt><trkpt lat="45.3440454" lon="11.6103476"><ele>21.0</ele><time>2026-04-11T08:47:46.938Z</time></trkpt><trkpt lat="45.3440626" lon="11.6102092"><ele>21.0</ele><time>2026-04-11T08:47:47.938Z</time></trkpt><trkpt lat="45.3440793" lon="11.6100715"><ele>21.0</ele><time>2026-04-11T08:47:48.938Z</time></trkpt><trkpt lat="45.344098" lon="11.6099224"><ele>21.0</ele><time>2026-04-11T08:47:49.938Z</time></trkpt><trkpt lat="45.3441178" lon="11.6097749"><ele>21.0</ele><time>2026-04-11T08:47:50.938Z</time></trkpt><trkpt lat="45.3441375" lon="11.6096198"><ele>21.0</ele><time>2026-04-11T08:47:51.938Z</time></trkpt><trkpt lat="45.3441548" lon="11.609463"><ele>20.6</ele><time>2026-04-11T08:47:52.938Z</time></trkpt><trkpt lat="45.3441733" lon="11.6093116"><ele>20.200000000000003</ele><time>2026-04-11T08:47:53.938Z</time></trkpt><trkpt lat="45.3441904" lon="11.609159"><ele>19.799999999999997</ele><time>2026-04-11T08:47:54.937Z</time></trkpt><trkpt lat="45.344205" lon="11.6090082"><ele>19.4</ele><time>2026-04-11T08:47:55.938Z</time></trkpt><trkpt lat="45.3442176" lon="11.6088542"><ele>19.0</ele><time>2026-04-11T08:47:56.938Z</time></trkpt><trkpt lat="45.3442371" lon="11.6087101"><ele>18.833333333333332</ele><time>2026-04-11T08:47:57.938Z</time></trkpt><trkpt lat="45.3442616" lon="11.6085755"><ele>18.666666666666664</ele><time>2026-04-11T08:47:58.938Z</time></trkpt><trkpt lat="45.3442765" lon="11.6084611"><ele>18.5</ele><time>2026-04-11T08:47:59.938Z</time></trkpt><trkpt lat="45.3442939" lon="11.6083535"><ele>18.333333333333332</ele><time>2026-04-11T08:48:00.938Z</time></trkpt><trkpt lat="45.3443115" lon="11.6082514"><ele>18.166666666666668</ele><time>2026-04-11T08:48:01.938Z</time></trkpt><trkpt lat="45.3443247" lon="11.608141"><ele>18.0</ele><time>2026-04-11T08:48:02.938Z</time></trkpt><trkpt lat="45.3443395" lon="11.6080199"><ele>18.0</ele><time>2026-04-11T08:48:03.938Z</time></trkpt><trkpt lat="45.3443598" lon="11.6078878"><ele>18.0</ele><time>2026-04-11T08:48:04.938Z</time></trkpt><trkpt lat="45.3443795" lon="11.6077445"><ele>18.0</ele><time>2026-04-11T08:48:05.938Z</time></trkpt><trkpt lat="45.3444042" lon="11.6076031"><ele>18.0</ele><time>2026-04-11T08:48:06.938Z</time></trkpt><trkpt lat="45.3444288" lon="11.6074722"><ele>18.0</ele><time>2026-04-11T08:48:07.938Z</time></trkpt><trkpt lat="45.3444701" lon="11.6073621"><ele>17.833333333333332</ele><time>2026-04-11T08:48:08.938Z</time></trkpt><trkpt lat="45.3445057" lon="11.6072738"><ele>17.666666666666668</ele><time>2026-04-11T08:48:09.938Z</time></trkpt><trkpt lat="45.3445507" lon="11.6071981"><ele>17.5</ele><time>2026-04-11T08:48:10.938Z</time></trkpt><trkpt lat="45.3446093" lon="11.6071283"><ele>17.333333333333336</ele><time>2026-04-11T08:48:11.938Z</time></trkpt><trkpt lat="45.3446777" lon="11.6070672"><ele>17.166666666666668</ele><time>2026-04-11T08:48:12.938Z</time></trkpt><trkpt lat="45.344749" lon="11.6070062"><ele>17.0</ele><time>2026-04-11T08:48:13.938Z</time></trkpt><trkpt lat="45.3448263" lon="11.6069386"><ele>17.333333333333336</ele><time>2026-04-11T08:48:14.938Z</time></trkpt><trkpt lat="45.3449159" lon="11.6068705"><ele>17.666666666666668</ele><time>2026-04-11T08:48:15.938Z</time></trkpt><trkpt lat="45.3449989" lon="11.6068138"><ele>18.0</ele><time>2026-04-11T08:48:16.938Z</time></trkpt><trkpt lat="45.3450723" lon="11.6067595"><ele>18.333333333333332</ele><time>2026-04-11T08:48:17.938Z</time></trkpt><trkpt lat="45.3451462" lon="11.606704"><ele>18.666666666666664</ele><time>2026-04-11T08:48:18.938Z</time></trkpt><trkpt lat="45.3452214" lon="11.6066444"><ele>19.0</ele><time>2026-04-11T08:48:19.938Z</time></trkpt><trkpt lat="45.3453031" lon="11.6065823"><ele>19.0</ele><time>2026-04-11T08:48:20.938Z</time></trkpt><trkpt lat="45.3453896" lon="11.6065216"><ele>19.0</ele><time>2026-04-11T08:48:21.938Z</time></trkpt><trkpt lat="45.3454732" lon="11.606459"><ele>19.0</ele><time>2026-04-11T08:48:22.938Z</time></trkpt><trkpt lat="45.3455604" lon="11.6063882"><ele>19.0</ele><time>2026-04-11T08:48:23.938Z</time></trkpt><trkpt lat="45.3456527" lon="11.606304"><ele>19.0</ele><time>2026-04-11T08:48:24.938Z</time></trkpt><trkpt lat="45.345752" lon="11.6062257"><ele>18.75</ele><time>2026-04-11T08:48:25.938Z</time></trkpt><trkpt lat="45.3458565" lon="11.6061427"><ele>18.5</ele><time>2026-04-11T08:48:26.938Z</time></trkpt><trkpt lat="45.3459697" lon="11.6060669"><ele>18.25</ele><time>2026-04-11T08:48:27.938Z</time></trkpt><trkpt lat="45.346082" lon="11.6059863"><ele>18.0</ele><time>2026-04-11T08:48:28.937Z</time></trkpt><trkpt lat="45.3461979" lon="11.6059043"><ele>18.0</ele><time>2026-04-11T08:48:29.938Z</time></trkpt><trkpt lat="45.3463178" lon="11.605824"><ele>18.0</ele><time>2026-04-11T08:48:30.938Z</time></trkpt><trkpt lat="45.346427" lon="11.6057363"><ele>18.0</ele><time>2026-04-11T08:48:31.938Z</time></trkpt><trkpt lat="45.3465305" lon="11.6056506"><ele>18.0</ele><time>2026-04-11T08:48:32.938Z</time></trkpt><trkpt lat="45.3466396" lon="11.6055463"><ele>18.0</ele><time>2026-04-11T08:48:33.938Z</time></trkpt><trkpt lat="45.3467459" lon="11.6054382"><ele>18.0</ele><time>2026-04-11T08:48:34.938Z</time></trkpt><trkpt lat="45.3468498" lon="11.6053234"><ele>18.0</ele><time>2026-04-11T08:48:35.938Z</time></trkpt><trkpt lat="45.3469549" lon="11.605201"><ele>18.0</ele><time>2026-04-11T08:48:36.938Z</time></trkpt><trkpt lat="45.3470538" lon="11.6050735"><ele>18.0</ele><time>2026-04-11T08:48:37.938Z</time></trkpt><trkpt lat="45.3471638" lon="11.6049426"><ele>18.0</ele><time>2026-04-11T08:48:38.938Z</time></trkpt><trkpt lat="45.3472701" lon="11.6048064"><ele>18.0</ele><time>2026-04-11T08:48:39.938Z</time></trkpt><trkpt lat="45.3473722" lon="11.604677"><ele>18.0</ele><time>2026-04-11T08:48:40.938Z</time></trkpt><trkpt lat="45.3474747" lon="11.6045469"><ele>18.25</ele><time>2026-04-11T08:48:41.937Z</time></trkpt><trkpt lat="45.3475722" lon="11.6044243"><ele>18.5</ele><time>2026-04-11T08:48:42.938Z</time></trkpt><trkpt lat="45.3476654" lon="11.6043049"><ele>18.75</ele><time>2026-04-11T08:48:43.938Z</time></trkpt><trkpt lat="45.3477564" lon="11.6042"><ele>19.0</ele><time>2026-04-11T08:48:44.938Z</time></trkpt><trkpt lat="45.3478447" lon="11.6041183"><ele>19.0</ele><time>2026-04-11T08:48:45.938Z</time></trkpt><trkpt lat="45.3479441" lon="11.6040491"><ele>19.0</ele><time>2026-04-11T08:48:46.938Z</time></trkpt><trkpt lat="45.3480541" lon="11.6040112"><ele>19.0</ele><time>2026-04-11T08:48:47.938Z</time></trkpt><trkpt lat="45.3481636" lon="11.6039954"><ele>19.0</ele><time>2026-04-11T08:48:48.938Z</time></trkpt><trkpt lat="45.3482742" lon="11.6040022"><ele>19.0</ele><time>2026-04-11T08:48:49.938Z</time></trkpt><trkpt lat="45.348391" lon="11.6040496"><ele>19.0</ele><time>2026-04-11T08:48:50.938Z</time></trkpt><trkpt lat="45.3484961" lon="11.6041051"><ele>19.0</ele><time>2026-04-11T08:48:51.937Z</time></trkpt><trkpt lat="45.348587" lon="11.604176"><ele>19.0</ele><time>2026-04-11T08:48:52.938Z</time></trkpt><trkpt lat="45.3486839" lon="11.6042464"><ele>19.0</ele><time>2026-04-11T08:48:53.938Z</time></trkpt><trkpt lat="45.3487599" lon="11.6042952"><ele>19.0</ele><time>2026-04-11T08:48:54.938Z</time></trkpt><trkpt lat="45.3488376" lon="11.6043046"><ele>18.2</ele><time>2026-04-11T08:48:55.938Z</time></trkpt><trkpt lat="45.3489187" lon="11.6042759"><ele>17.4</ele><time>2026-04-11T08:48:56.938Z</time></trkpt><trkpt lat="45.3490018" lon="11.6042118"><ele>16.6</ele><time>2026-04-11T08:48:57.938Z</time></trkpt><trkpt lat="45.3490862" lon="11.6040934"><ele>15.8</ele><time>2026-04-11T08:48:58.938Z</time></trkpt><trkpt lat="45.349167" lon="11.6039423"><ele>15.0</ele><time>2026-04-11T08:48:59.938Z</time></trkpt><trkpt lat="45.3492408" lon="11.6037807"><ele>14.25</ele><time>2026-04-11T08:49:00.938Z</time></trkpt><trkpt lat="45.3493214" lon="11.6036283"><ele>13.5</ele><time>2026-04-11T08:49:01.938Z</time></trkpt><trkpt lat="45.3493943" lon="11.603459"><ele>12.75</ele><time>2026-04-11T08:49:02.938Z</time></trkpt><trkpt lat="45.3494697" lon="11.6032846"><ele>12.0</ele><time>2026-04-11T08:49:03.938Z</time></trkpt><trkpt lat="45.3495521" lon="11.6031038"><ele>12.0</ele><time>2026-04-11T08:49:04.938Z</time></trkpt><trkpt lat="45.3496379" lon="11.6029311"><ele>12.0</ele><time>2026-04-11T08:49:05.938Z</time></trkpt><trkpt lat="45.3497315" lon="11.6027532"><ele>12.0</ele><time>2026-04-11T08:49:06.938Z</time></trkpt><trkpt lat="45.3498212" lon="11.6025305"><ele>12.5</ele><time>2026-04-11T08:49:07.938Z</time></trkpt><trkpt lat="45.3499447" lon="11.6022617"><ele>13.0</ele><time>2026-04-11T08:49:08.938Z</time></trkpt><trkpt lat="45.3500968" lon="11.6019742"><ele>13.0</ele><time>2026-04-11T08:49:09.937Z</time></trkpt><trkpt lat="45.3502642" lon="11.6016641"><ele>13.0</ele><time>2026-04-11T08:49:10.937Z</time></trkpt><trkpt lat="45.3504268" lon="11.6013418"><ele>13.0</ele><time>2026-04-11T08:49:11.938Z</time></trkpt><trkpt lat="45.3505914" lon="11.6010142"><ele>13.0</ele><time>2026-04-11T08:49:12.938Z</time></trkpt><trkpt lat="45.3507448" lon="11.6007047"><ele>13.0</ele><time>2026-04-11T08:49:13.938Z</time></trkpt><trkpt lat="45.3508918" lon="11.6004052"><ele>13.0</ele><time>2026-04-11T08:49:14.938Z</time></trkpt><trkpt lat="45.3510312" lon="11.6001207"><ele>13.0</ele><time>2026-04-11T08:49:15.937Z</time></trkpt><trkpt lat="45.351165" lon="11.5998405"><ele>13.0</ele><time>2026-04-11T08:49:16.938Z</time></trkpt><trkpt lat="45.3512984" lon="11.599565"><ele>13.0</ele><time>2026-04-11T08:49:17.938Z</time></trkpt><trkpt lat="45.3514221" lon="11.599303"><ele>13.0</ele><time>2026-04-11T08:49:18.938Z</time></trkpt><trkpt lat="45.3515465" lon="11.5990466"><ele>13.0</ele><time>2026-04-11T08:49:19.938Z</time></trkpt><trkpt lat="45.3516712" lon="11.5987921"><ele>13.333333333333332</ele><time>2026-04-11T08:49:20.938Z</time></trkpt><trkpt lat="45.3517961" lon="11.5985353"><ele>13.666666666666668</ele><time>2026-04-11T08:49:21.938Z</time></trkpt><trkpt lat="45.3519182" lon="11.5982858"><ele>14.0</ele><time>2026-04-11T08:49:22.938Z</time></trkpt><trkpt lat="45.352037" lon="11.5980283"><ele>14.333333333333334</ele><time>2026-04-11T08:49:23.938Z</time></trkpt><trkpt lat="45.3521604" lon="11.5977783"><ele>14.666666666666668</ele><time>2026-04-11T08:49:24.938Z</time></trkpt><trkpt lat="45.3522861" lon="11.5975462"><ele>15.0</ele><time>2026-04-11T08:49:25.938Z</time></trkpt><trkpt lat="45.3524314" lon="11.5973125"><ele>14.333333333333332</ele><time>2026-04-11T08:49:26.938Z</time></trkpt><trkpt lat="45.3525982" lon="11.597099"><ele>13.666666666666666</ele><time>2026-04-11T08:49:27.938Z</time></trkpt><trkpt lat="45.3527642" lon="11.5968905"><ele>13.0</ele><time>2026-04-11T08:49:28.937Z</time></trkpt><trkpt lat="45.3529307" lon="11.59668"><ele>12.333333333333332</ele><time>2026-04-11T08:49:29.938Z</time></trkpt><trkpt lat="45.3530911" lon="11.5964777"><ele>11.666666666666666</ele><time>2026-04-11T08:49:30.938Z</time></trkpt><trkpt lat="45.353242" lon="11.596283"><ele>11.0</ele><time>2026-04-11T08:49:31.938Z</time></trkpt><trkpt lat="45.3533919" lon="11.5960834"><ele>11.0</ele><time>2026-04-11T08:49:32.938Z</time></trkpt><trkpt lat="45.3535352" lon="11.5959012"><ele>11.0</ele><time>2026-04-11T08:49:33.938Z</time></trkpt><trkpt lat="45.3536604" lon="11.5957321"><ele>11.0</ele><time>2026-04-11T08:49:34.938Z</time></trkpt><trkpt lat="45.3537695" lon="11.5955709"><ele>11.0</ele><time>2026-04-11T08:49:35.938Z</time></trkpt><trkpt lat="45.3538683" lon="11.5954018"><ele>11.0</ele><time>2026-04-11T08:49:36.938Z</time></trkpt><trkpt lat="45.3539494" lon="11.5952234"><ele>11.0</ele><time>2026-04-11T08:49:37.938Z</time></trkpt><trkpt lat="45.3539873" lon="11.5949635"><ele>11.666666666666666</ele><time>2026-04-11T08:49:38.938Z</time></trkpt><trkpt lat="45.3540191" lon="11.5947268"><ele>12.333333333333332</ele><time>2026-04-11T08:49:39.938Z</time></trkpt><trkpt lat="45.3540427" lon="11.5944381"><ele>13.0</ele><time>2026-04-11T08:49:40.938Z</time></trkpt><trkpt lat="45.3540862" lon="11.5941516"><ele>13.0</ele><time>2026-04-11T08:49:41.937Z</time></trkpt><trkpt lat="45.354165" lon="11.5938807"><ele>13.0</ele><time>2026-04-11T08:49:42.938Z</time></trkpt><trkpt lat="45.3542566" lon="11.5936108"><ele>13.0</ele><time>2026-04-11T08:49:43.938Z</time></trkpt><trkpt lat="45.3543624" lon="11.5933418"><ele>13.0</ele><time>2026-04-11T08:49:44.938Z</time></trkpt><trkpt lat="45.3544757" lon="11.5930908"><ele>13.0</ele><time>2026-04-11T08:49:45.938Z</time></trkpt><trkpt lat="45.3545942" lon="11.5928286"><ele>13.0</ele><time>2026-04-11T08:49:46.938Z</time></trkpt><trkpt lat="45.3547169" lon="11.5925702"><ele>13.0</ele><time>2026-04-11T08:49:47.938Z</time></trkpt><trkpt lat="45.3548409" lon="11.5923074"><ele>13.0</ele><time>2026-04-11T08:49:48.938Z</time></trkpt><trkpt lat="45.3549643" lon="11.5920484"><ele>13.0</ele><time>2026-04-11T08:49:49.938Z</time></trkpt><trkpt lat="45.3550833" lon="11.5917937"><ele>13.0</ele><time>2026-04-11T08:49:50.938Z</time></trkpt><trkpt lat="45.3552095" lon="11.5915404"><ele>13.0</ele><time>2026-04-11T08:49:51.938Z</time></trkpt><trkpt lat="45.355326" lon="11.5912908"><ele>13.0</ele><time>2026-04-11T08:49:52.938Z</time></trkpt><trkpt lat="45.3554391" lon="11.5910516"><ele>14.0</ele><time>2026-04-11T08:49:53.938Z</time></trkpt><trkpt lat="45.3555512" lon="11.5908242"><ele>15.0</ele><time>2026-04-11T08:49:54.938Z</time></trkpt><trkpt lat="45.355656" lon="11.590607"><ele>16.0</ele><time>2026-04-11T08:49:55.938Z</time></trkpt><trkpt lat="45.3557623" lon="11.5903938"><ele>16.0</ele><time>2026-04-11T08:49:56.938Z</time></trkpt><trkpt lat="45.3558729" lon="11.5901724"><ele>16.0</ele><time>2026-04-11T08:49:57.938Z</time></trkpt><trkpt lat="45.3559906" lon="11.5899424"><ele>16.0</ele><time>2026-04-11T08:49:58.938Z</time></trkpt><trkpt lat="45.3561032" lon="11.5897215"><ele>16.0</ele><time>2026-04-11T08:49:59.938Z</time></trkpt><trkpt lat="45.3562181" lon="11.5895074"><ele>16.0</ele><time>2026-04-11T08:50:00.938Z</time></trkpt><trkpt lat="45.3563185" lon="11.5892859"><ele>16.0</ele><time>2026-04-11T08:50:01.938Z</time></trkpt><trkpt lat="45.3564288" lon="11.5890751"><ele>17.0</ele><time>2026-04-11T08:50:02.938Z</time></trkpt><trkpt lat="45.3565221" lon="11.5888676"><ele>18.0</ele><time>2026-04-11T08:50:03.938Z</time></trkpt><trkpt lat="45.3566113" lon="11.5886793"><ele>19.0</ele><time>2026-04-11T08:50:04.938Z</time></trkpt><trkpt lat="45.3567186" lon="11.5885144"><ele>19.0</ele><time>2026-04-11T08:50:05.938Z</time></trkpt><trkpt lat="45.3568351" lon="11.5883661"><ele>19.0</ele><time>2026-04-11T08:50:06.938Z</time></trkpt><trkpt lat="45.3569671" lon="11.5882305"><ele>19.0</ele><time>2026-04-11T08:50:07.938Z</time></trkpt><trkpt lat="45.3571014" lon="11.5880893"><ele>19.666666666666664</ele><time>2026-04-11T08:50:08.938Z</time></trkpt><trkpt lat="45.3572328" lon="11.5879368"><ele>20.333333333333332</ele><time>2026-04-11T08:50:09.938Z</time></trkpt><trkpt lat="45.3573453" lon="11.5877869"><ele>21.0</ele><time>2026-04-11T08:50:10.938Z</time></trkpt><trkpt lat="45.3574514" lon="11.5876398"><ele>21.0</ele><time>2026-04-11T08:50:11.938Z</time></trkpt><trkpt lat="45.3575529" lon="11.5875142"><ele>21.0</ele><time>2026-04-11T08:50:12.938Z</time></trkpt><trkpt lat="45.3576566" lon="11.5873968"><ele>21.0</ele><time>2026-04-11T08:50:13.938Z</time></trkpt><trkpt lat="45.3577549" lon="11.5872704"><ele>21.0</ele><time>2026-04-11T08:50:14.938Z</time></trkpt><trkpt lat="45.3578503" lon="11.5871497"><ele>21.0</ele><time>2026-04-11T08:50:15.938Z</time></trkpt><trkpt lat="45.3579433" lon="11.5870369"><ele>21.0</ele><time>2026-04-11T08:50:16.938Z</time></trkpt><trkpt lat="45.3580256" lon="11.5869317"><ele>21.0</ele><time>2026-04-11T08:50:17.938Z</time></trkpt><trkpt lat="45.3580984" lon="11.5868373"><ele>21.0</ele><time>2026-04-11T08:50:18.938Z</time></trkpt><trkpt lat="45.3581618" lon="11.5867618"><ele>21.0</ele><time>2026-04-11T08:50:19.938Z</time></trkpt><trkpt lat="45.3582139" lon="11.5867015"><ele>21.0</ele><time>2026-04-11T08:50:20.938Z</time></trkpt><trkpt lat="45.3582739" lon="11.5866422"><ele>21.0</ele><time>2026-04-11T08:50:22.938Z</time></trkpt><trkpt lat="45.3583435" lon="11.5865068"><ele>21.0</ele><time>2026-04-11T08:50:31.938Z</time></trkpt><trkpt lat="45.3583615" lon="11.5862639"><ele>21.0</ele><time>2026-04-11T08:50:33.938Z</time></trkpt><trkpt lat="45.3583739" lon="11.5861113"><ele>21.0</ele><time>2026-04-11T08:50:34.938Z</time></trkpt><trkpt lat="45.3583779" lon="11.5859454"><ele>21.0</ele><time>2026-04-11T08:50:35.938Z</time></trkpt><trkpt lat="45.3583811" lon="11.5857731"><ele>21.0</ele><time>2026-04-11T08:50:36.938Z</time></trkpt><trkpt lat="45.3583718" lon="11.5855953"><ele>21.0</ele><time>2026-04-11T08:50:37.938Z</time></trkpt><trkpt lat="45.3583697" lon="11.5854118"><ele>20.5</ele><time>2026-04-11T08:50:38.938Z</time></trkpt><trkpt lat="45.3583597" lon="11.585232"><ele>20.0</ele><time>2026-04-11T08:50:39.938Z</time></trkpt><trkpt lat="45.3583241" lon="11.5850433"><ele>19.5</ele><time>2026-04-11T08:50:40.938Z</time></trkpt><trkpt lat="45.3582772" lon="11.5848628"><ele>19.0</ele><time>2026-04-11T08:50:41.938Z</time></trkpt><trkpt lat="45.3582239" lon="11.5846802"><ele>19.0</ele><time>2026-04-11T08:50:42.938Z</time></trkpt><trkpt lat="45.3581737" lon="11.5844964"><ele>19.0</ele><time>2026-04-11T08:50:43.938Z</time></trkpt><trkpt lat="45.3581219" lon="11.5843123"><ele>19.0</ele><time>2026-04-11T08:50:44.937Z</time></trkpt><trkpt lat="45.3580681" lon="11.5841187"><ele>19.0</ele><time>2026-04-11T08:50:45.938Z</time></trkpt><trkpt lat="45.3580171" lon="11.5839228"><ele>19.0</ele><time>2026-04-11T08:50:46.938Z</time></trkpt><trkpt lat="45.3579756" lon="11.5837243"><ele>19.0</ele><time>2026-04-11T08:50:47.938Z</time></trkpt><trkpt lat="45.3579709" lon="11.5835322"><ele>19.0</ele><time>2026-04-11T08:50:48.938Z</time></trkpt><trkpt lat="45.3579906" lon="11.5833335"><ele>19.0</ele><time>2026-04-11T08:50:49.938Z</time></trkpt><trkpt lat="45.358032" lon="11.5831369"><ele>18.75</ele><time>2026-04-11T08:50:50.938Z</time></trkpt><trkpt lat="45.358076" lon="11.5829473"><ele>18.5</ele><time>2026-04-11T08:50:51.938Z</time></trkpt><trkpt lat="45.3581157" lon="11.582745"><ele>18.25</ele><time>2026-04-11T08:50:52.938Z</time></trkpt><trkpt lat="45.3581406" lon="11.5825602"><ele>18.0</ele><time>2026-04-11T08:50:53.938Z</time></trkpt><trkpt lat="45.3581535" lon="11.5823842"><ele>18.0</ele><time>2026-04-11T08:50:54.938Z</time></trkpt><trkpt lat="45.3581527" lon="11.5822183"><ele>18.0</ele><time>2026-04-11T08:50:55.938Z</time></trkpt><trkpt lat="45.3581401" lon="11.582069"><ele>18.0</ele><time>2026-04-11T08:50:56.938Z</time></trkpt><trkpt lat="45.3581276" lon="11.581932"><ele>18.0</ele><time>2026-04-11T08:50:57.938Z</time></trkpt><trkpt lat="45.3581263" lon="11.5817859"><ele>18.0</ele><time>2026-04-11T08:50:58.938Z</time></trkpt><trkpt lat="45.3581356" lon="11.5816321"><ele>17.5</ele><time>2026-04-11T08:50:59.938Z</time></trkpt><trkpt lat="45.3581482" lon="11.5814666"><ele>17.0</ele><time>2026-04-11T08:51:00.938Z</time></trkpt><trkpt lat="45.3581576" lon="11.581295"><ele>16.5</ele><time>2026-04-11T08:51:01.938Z</time></trkpt><trkpt lat="45.358168" lon="11.58112"><ele>16.0</ele><time>2026-04-11T08:51:02.938Z</time></trkpt><trkpt lat="45.3581714" lon="11.5809378"><ele>15.75</ele><time>2026-04-11T08:51:03.938Z</time></trkpt><trkpt lat="45.3581795" lon="11.580752"><ele>15.5</ele><time>2026-04-11T08:51:04.938Z</time></trkpt><trkpt lat="45.3581922" lon="11.5805681"><ele>15.25</ele><time>2026-04-11T08:51:05.938Z</time></trkpt><trkpt lat="45.3582024" lon="11.5803845"><ele>15.0</ele><time>2026-04-11T08:51:06.938Z</time></trkpt><trkpt lat="45.3582179" lon="11.5801912"><ele>15.0</ele><time>2026-04-11T08:51:07.938Z</time></trkpt><trkpt lat="45.3582378" lon="11.5800109"><ele>15.0</ele><time>2026-04-11T08:51:08.938Z</time></trkpt><trkpt lat="45.358265" lon="11.5798189"><ele>15.0</ele><time>2026-04-11T08:51:09.938Z</time></trkpt><trkpt lat="45.3582913" lon="11.5796271"><ele>15.0</ele><time>2026-04-11T08:51:10.938Z</time></trkpt><trkpt lat="45.3583109" lon="11.5794277"><ele>14.75</ele><time>2026-04-11T08:51:11.938Z</time></trkpt><trkpt lat="45.3583125" lon="11.5792259"><ele>14.5</ele><time>2026-04-11T08:51:12.938Z</time></trkpt><trkpt lat="45.3583062" lon="11.5790304"><ele>14.25</ele><time>2026-04-11T08:51:13.938Z</time></trkpt><trkpt lat="45.3582836" lon="11.5788279"><ele>14.0</ele><time>2026-04-11T08:51:14.938Z</time></trkpt><trkpt lat="45.3582669" lon="11.5785978"><ele>13.666666666666668</ele><time>2026-04-11T08:51:15.938Z</time></trkpt><trkpt lat="45.3582471" lon="11.5783762"><ele>13.333333333333332</ele><time>2026-04-11T08:51:16.938Z</time></trkpt><trkpt lat="45.3582196" lon="11.5781484"><ele>13.0</ele><time>2026-04-11T08:51:17.938Z</time></trkpt><trkpt lat="45.3581947" lon="11.5779086"><ele>13.0</ele><time>2026-04-11T08:51:18.938Z</time></trkpt><trkpt lat="45.3581658" lon="11.5776632"><ele>13.0</ele><time>2026-04-11T08:51:19.938Z</time></trkpt><trkpt lat="45.3581386" lon="11.5774327"><ele>13.0</ele><time>2026-04-11T08:51:20.937Z</time></trkpt><trkpt lat="45.3581175" lon="11.577229"><ele>13.0</ele><time>2026-04-11T08:51:21.938Z</time></trkpt><trkpt lat="45.3580997" lon="11.5770336"><ele>13.0</ele><time>2026-04-11T08:51:22.938Z</time></trkpt><trkpt lat="45.3580821" lon="11.5768594"><ele>13.0</ele><time>2026-04-11T08:51:23.938Z</time></trkpt><trkpt lat="45.3580659" lon="11.5767104"><ele>13.0</ele><time>2026-04-11T08:51:24.938Z</time></trkpt><trkpt lat="45.3580484" lon="11.5765658"><ele>13.0</ele><time>2026-04-11T08:51:25.938Z</time></trkpt><trkpt lat="45.3580315" lon="11.576434"><ele>13.0</ele><time>2026-04-11T08:51:26.938Z</time></trkpt><trkpt lat="45.3580178" lon="11.5763043"><ele>13.0</ele><time>2026-04-11T08:51:27.938Z</time></trkpt><trkpt lat="45.3579876" lon="11.5760822"><ele>13.0</ele><time>2026-04-11T08:51:28.938Z</time></trkpt><trkpt lat="45.3579544" lon="11.5758583"><ele>13.666666666666666</ele><time>2026-04-11T08:51:29.938Z</time></trkpt><trkpt lat="45.35792" lon="11.5756202"><ele>14.333333333333332</ele><time>2026-04-11T08:51:30.938Z</time></trkpt><trkpt lat="45.3578885" lon="11.5753683"><ele>15.0</ele><time>2026-04-11T08:51:31.938Z</time></trkpt><trkpt lat="45.3578614" lon="11.5751048"><ele>15.0</ele><time>2026-04-11T08:51:32.938Z</time></trkpt><trkpt lat="45.3578239" lon="11.5748304"><ele>15.0</ele><time>2026-04-11T08:51:33.938Z</time></trkpt><trkpt lat="45.357777" lon="11.5745559"><ele>15.0</ele><time>2026-04-11T08:51:34.938Z</time></trkpt><trkpt lat="45.357716" lon="11.5742767"><ele>15.0</ele><time>2026-04-11T08:51:35.938Z</time></trkpt><trkpt lat="45.3576551" lon="11.5740074"><ele>15.0</ele><time>2026-04-11T08:51:36.937Z</time></trkpt><trkpt lat="45.3576001" lon="11.5737418"><ele>15.0</ele><time>2026-04-11T08:51:37.938Z</time></trkpt><trkpt lat="45.357536" lon="11.5734939"><ele>14.666666666666668</ele><time>2026-04-11T08:51:38.938Z</time></trkpt><trkpt lat="45.3574797" lon="11.5732439"><ele>14.333333333333334</ele><time>2026-04-11T08:51:39.938Z</time></trkpt><trkpt lat="45.3574205" lon="11.5730036"><ele>14.0</ele><time>2026-04-11T08:51:40.938Z</time></trkpt><trkpt lat="45.3573682" lon="11.5727599"><ele>14.0</ele><time>2026-04-11T08:51:41.938Z</time></trkpt><trkpt lat="45.3573118" lon="11.5725237"><ele>14.0</ele><time>2026-04-11T08:51:42.937Z</time></trkpt><trkpt lat="45.3572526" lon="11.5722937"><ele>14.0</ele><time>2026-04-11T08:51:43.938Z</time></trkpt><trkpt lat="45.357191" lon="11.5720684"><ele>13.666666666666668</ele><time>2026-04-11T08:51:44.938Z</time></trkpt><trkpt lat="45.357133" lon="11.5718474"><ele>13.333333333333332</ele><time>2026-04-11T08:51:45.938Z</time></trkpt><trkpt lat="45.3570631" lon="11.571636"><ele>13.0</ele><time>2026-04-11T08:51:46.938Z</time></trkpt><trkpt lat="45.3570088" lon="11.5714136"><ele>13.0</ele><time>2026-04-11T08:51:47.938Z</time></trkpt><trkpt lat="45.3569635" lon="11.5711934"><ele>13.0</ele><time>2026-04-11T08:51:48.938Z</time></trkpt><trkpt lat="45.3569196" lon="11.5709669"><ele>13.0</ele><time>2026-04-11T08:51:49.938Z</time></trkpt><trkpt lat="45.356873" lon="11.5707469"><ele>13.0</ele><time>2026-04-11T08:51:50.938Z</time></trkpt><trkpt lat="45.3568243" lon="11.5705252"><ele>13.0</ele><time>2026-04-11T08:51:51.938Z</time></trkpt><trkpt lat="45.3567821" lon="11.5703006"><ele>13.0</ele><time>2026-04-11T08:51:52.938Z</time></trkpt><trkpt lat="45.3567454" lon="11.5700664"><ele>13.0</ele><time>2026-04-11T08:51:53.938Z</time></trkpt><trkpt lat="45.3567097" lon="11.5698453"><ele>13.0</ele><time>2026-04-11T08:51:54.938Z</time></trkpt><trkpt lat="45.3566677" lon="11.5696228"><ele>13.0</ele><time>2026-04-11T08:51:55.938Z</time></trkpt><trkpt lat="45.3566257" lon="11.5693978"><ele>13.0</ele><time>2026-04-11T08:51:56.937Z</time></trkpt><trkpt lat="45.3565826" lon="11.5691746"><ele>13.0</ele><time>2026-04-11T08:51:57.938Z</time></trkpt><trkpt lat="45.3565421" lon="11.5689559"><ele>13.0</ele><time>2026-04-11T08:51:58.938Z</time></trkpt><trkpt lat="45.3565023" lon="11.568734"><ele>13.0</ele><time>2026-04-11T08:51:59.938Z</time></trkpt><trkpt lat="45.3564735" lon="11.568506"><ele>13.0</ele><time>2026-04-11T08:52:00.938Z</time></trkpt><trkpt lat="45.3564469" lon="11.5682715"><ele>13.0</ele><time>2026-04-11T08:52:01.938Z</time></trkpt><trkpt lat="45.3564332" lon="11.5680418"><ele>13.333333333333332</ele><time>2026-04-11T08:52:02.938Z</time></trkpt><trkpt lat="45.3564185" lon="11.5678048"><ele>13.666666666666668</ele><time>2026-04-11T08:52:03.938Z</time></trkpt><trkpt lat="45.3564005" lon="11.5675654"><ele>14.0</ele><time>2026-04-11T08:52:04.938Z</time></trkpt><trkpt lat="45.3563745" lon="11.5673332"><ele>14.0</ele><time>2026-04-11T08:52:05.938Z</time></trkpt><trkpt lat="45.3563449" lon="11.5670864"><ele>14.0</ele><time>2026-04-11T08:52:06.938Z</time></trkpt><trkpt lat="45.3563065" lon="11.5668497"><ele>14.0</ele><time>2026-04-11T08:52:07.938Z</time></trkpt><trkpt lat="45.3562619" lon="11.566626"><ele>14.0</ele><time>2026-04-11T08:52:08.938Z</time></trkpt><trkpt lat="45.3562076" lon="11.5664148"><ele>14.0</ele><time>2026-04-11T08:52:09.938Z</time></trkpt><trkpt lat="45.3561385" lon="11.5662115"><ele>14.0</ele><time>2026-04-11T08:52:10.938Z</time></trkpt><trkpt lat="45.3560602" lon="11.5660066"><ele>14.333333333333334</ele><time>2026-04-11T08:52:11.938Z</time></trkpt><trkpt lat="45.3559781" lon="11.5658075"><ele>14.666666666666668</ele><time>2026-04-11T08:52:12.938Z</time></trkpt><trkpt lat="45.3558834" lon="11.5656124"><ele>15.0</ele><time>2026-04-11T08:52:13.938Z</time></trkpt><trkpt lat="45.3557773" lon="11.5654234"><ele>14.666666666666668</ele><time>2026-04-11T08:52:14.937Z</time></trkpt><trkpt lat="45.3556698" lon="11.5652462"><ele>14.333333333333334</ele><time>2026-04-11T08:52:15.937Z</time></trkpt><trkpt lat="45.3555619" lon="11.5650828"><ele>14.0</ele><time>2026-04-11T08:52:16.938Z</time></trkpt><trkpt lat="45.3554706" lon="11.564916"><ele>14.0</ele><time>2026-04-11T08:52:17.938Z</time></trkpt><trkpt lat="45.3553966" lon="11.5647588"><ele>14.0</ele><time>2026-04-11T08:52:18.938Z</time></trkpt><trkpt lat="45.355352" lon="11.5646037"><ele>14.0</ele><time>2026-04-11T08:52:19.938Z</time></trkpt><trkpt lat="45.3553258" lon="11.5644598"><ele>14.0</ele><time>2026-04-11T08:52:20.937Z</time></trkpt><trkpt lat="45.3553197" lon="11.5643222"><ele>14.2</ele><time>2026-04-11T08:52:21.938Z</time></trkpt><trkpt lat="45.3553283" lon="11.5642034"><ele>14.399999999999999</ele><time>2026-04-11T08:52:22.938Z</time></trkpt><trkpt lat="45.3553354" lon="11.5641003"><ele>14.6</ele><time>2026-04-11T08:52:23.938Z</time></trkpt><trkpt lat="45.3553614" lon="11.5640047"><ele>14.8</ele><time>2026-04-11T08:52:24.938Z</time></trkpt><trkpt lat="45.3553815" lon="11.5638397"><ele>15.0</ele><time>2026-04-11T08:52:26.938Z</time></trkpt><trkpt lat="45.355321" lon="11.5637035"><ele>15.0</ele><time>2026-04-11T08:52:28.938Z</time></trkpt><trkpt lat="45.3552576" lon="11.5636873"><ele>15.0</ele><time>2026-04-11T08:52:29.938Z</time></trkpt><trkpt lat="45.3551927" lon="11.5636913"><ele>15.0</ele><time>2026-04-11T08:52:30.938Z</time></trkpt><trkpt lat="45.3551171" lon="11.563708"><ele>15.0</ele><time>2026-04-11T08:52:31.938Z</time></trkpt><trkpt lat="45.3550265" lon="11.5637099"><ele>15.0</ele><time>2026-04-11T08:52:32.938Z</time></trkpt><trkpt lat="45.3549148" lon="11.5636959"><ele>15.0</ele><time>2026-04-11T08:52:33.938Z</time></trkpt><trkpt lat="45.3547993" lon="11.5636866"><ele>15.0</ele><time>2026-04-11T08:52:34.938Z</time></trkpt><trkpt lat="45.3546782" lon="11.5636799"><ele>15.0</ele><time>2026-04-11T08:52:35.938Z</time></trkpt><trkpt lat="45.3545553" lon="11.5636758"><ele>15.0</ele><time>2026-04-11T08:52:36.938Z</time></trkpt><trkpt lat="45.3544306" lon="11.5636691"><ele>15.0</ele><time>2026-04-11T08:52:37.938Z</time></trkpt><trkpt lat="45.3543104" lon="11.5636574"><ele>15.0</ele><time>2026-04-11T08:52:38.938Z</time></trkpt><trkpt lat="45.3541874" lon="11.563643"><ele>15.0</ele><time>2026-04-11T08:52:39.937Z</time></trkpt><trkpt lat="45.3540621" lon="11.5636378"><ele>15.0</ele><time>2026-04-11T08:52:40.938Z</time></trkpt><trkpt lat="45.3539334" lon="11.5636403"><ele>15.0</ele><time>2026-04-11T08:52:41.938Z</time></trkpt><trkpt lat="45.353803" lon="11.5636419"><ele>14.5</ele><time>2026-04-11T08:52:42.938Z</time></trkpt><trkpt lat="45.3536702" lon="11.5636464"><ele>14.0</ele><time>2026-04-11T08:52:43.938Z</time></trkpt><trkpt lat="45.3535331" lon="11.5636531"><ele>13.5</ele><time>2026-04-11T08:52:44.938Z</time></trkpt><trkpt lat="45.3534053" lon="11.5636693"><ele>13.0</ele><time>2026-04-11T08:52:45.938Z</time></trkpt><trkpt lat="45.3532907" lon="11.5636835"><ele>12.999999999999998</ele><time>2026-04-11T08:52:46.938Z</time></trkpt><trkpt lat="45.3531831" lon="11.5636981"><ele>13.0</ele><time>2026-04-11T08:52:47.938Z</time></trkpt><trkpt lat="45.353092" lon="11.5637098"><ele>13.0</ele><time>2026-04-11T08:52:48.938Z</time></trkpt><trkpt lat="45.3530077" lon="11.5637177"><ele>13.0</ele><time>2026-04-11T08:52:49.938Z</time></trkpt><trkpt lat="45.3529375" lon="11.5637191"><ele>12.999999999999998</ele><time>2026-04-11T08:52:50.938Z</time></trkpt><trkpt lat="45.3528762" lon="11.5636179"><ele>13.0</ele><time>2026-04-11T08:52:52.938Z</time></trkpt><trkpt lat="45.3528746" lon="11.5634976"><ele>13.0</ele><time>2026-04-11T08:52:53.938Z</time></trkpt><trkpt lat="45.3529037" lon="11.5633192"><ele>13.0</ele><time>2026-04-11T08:52:54.938Z</time></trkpt><trkpt lat="45.3529515" lon="11.5630724"><ele>13.0</ele><time>2026-04-11T08:52:55.938Z</time></trkpt><trkpt lat="45.3530025" lon="11.5627577"><ele>13.0</ele><time>2026-04-11T08:52:56.938Z</time></trkpt><trkpt lat="45.3530639" lon="11.5623795"><ele>13.0</ele><time>2026-04-11T08:52:57.938Z</time></trkpt><trkpt lat="45.3531357" lon="11.5619705"><ele>13.0</ele><time>2026-04-11T08:52:58.938Z</time></trkpt><trkpt lat="45.3532064" lon="11.5615378"><ele>13.0</ele><time>2026-04-11T08:52:59.938Z</time></trkpt><trkpt lat="45.3532682" lon="11.5611319"><ele>13.5</ele><time>2026-04-11T08:53:00.937Z</time></trkpt><trkpt lat="45.3533253" lon="11.5607835"><ele>14.0</ele><time>2026-04-11T08:53:01.938Z</time></trkpt><trkpt lat="45.353372" lon="11.5604731"><ele>13.666666666666668</ele><time>2026-04-11T08:53:02.938Z</time></trkpt><trkpt lat="45.3534204" lon="11.5602108"><ele>13.333333333333332</ele><time>2026-04-11T08:53:03.938Z</time></trkpt><trkpt lat="45.3534584" lon="11.5599994"><ele>13.0</ele><time>2026-04-11T08:53:04.938Z</time></trkpt><trkpt lat="45.3534973" lon="11.5597836"><ele>13.0</ele><time>2026-04-11T08:53:05.938Z</time></trkpt><trkpt lat="45.3535459" lon="11.5595374"><ele>13.0</ele><time>2026-04-11T08:53:06.938Z</time></trkpt><trkpt lat="45.3535919" lon="11.5592595"><ele>13.0</ele><time>2026-04-11T08:53:07.938Z</time></trkpt><trkpt lat="45.3536292" lon="11.5589739"><ele>13.333333333333332</ele><time>2026-04-11T08:53:08.938Z</time></trkpt><trkpt lat="45.3536766" lon="11.5587006"><ele>13.666666666666668</ele><time>2026-04-11T08:53:09.938Z</time></trkpt><trkpt lat="45.3537306" lon="11.5584267"><ele>14.0</ele><time>2026-04-11T08:53:10.938Z</time></trkpt><trkpt lat="45.3537812" lon="11.5581688"><ele>14.0</ele><time>2026-04-11T08:53:11.938Z</time></trkpt><trkpt lat="45.3538235" lon="11.5579092"><ele>14.0</ele><time>2026-04-11T08:53:12.938Z</time></trkpt><trkpt lat="45.3538648" lon="11.5576509"><ele>14.0</ele><time>2026-04-11T08:53:13.938Z</time></trkpt><trkpt lat="45.3539064" lon="11.5573936"><ele>14.0</ele><time>2026-04-11T08:53:14.938Z</time></trkpt><trkpt lat="45.3539449" lon="11.5571324"><ele>14.0</ele><time>2026-04-11T08:53:15.938Z</time></trkpt><trkpt lat="45.3539824" lon="11.5568625"><ele>14.0</ele><time>2026-04-11T08:53:16.938Z</time></trkpt><trkpt lat="45.3540232" lon="11.5565881"><ele>14.333333333333334</ele><time>2026-04-11T08:53:17.938Z</time></trkpt><trkpt lat="45.3540662" lon="11.5563144"><ele>14.666666666666668</ele><time>2026-04-11T08:53:18.938Z</time></trkpt><trkpt lat="45.354111" lon="11.556043"><ele>15.0</ele><time>2026-04-11T08:53:19.938Z</time></trkpt><trkpt lat="45.3541543" lon="11.5557642"><ele>14.333333333333332</ele><time>2026-04-11T08:53:20.938Z</time></trkpt><trkpt lat="45.3542004" lon="11.5554878"><ele>13.666666666666666</ele><time>2026-04-11T08:53:21.938Z</time></trkpt><trkpt lat="45.3542448" lon="11.5552244"><ele>13.0</ele><time>2026-04-11T08:53:22.938Z</time></trkpt><trkpt lat="45.3542892" lon="11.5549537"><ele>12.666666666666666</ele><time>2026-04-11T08:53:23.938Z</time></trkpt><trkpt lat="45.3543402" lon="11.5546826"><ele>12.333333333333332</ele><time>2026-04-11T08:53:24.938Z</time></trkpt><trkpt lat="45.3543814" lon="11.554405"><ele>12.0</ele><time>2026-04-11T08:53:25.938Z</time></trkpt><trkpt lat="45.3544187" lon="11.5541359"><ele>12.0</ele><time>2026-04-11T08:53:26.938Z</time></trkpt><trkpt lat="45.3544654" lon="11.553869"><ele>12.0</ele><time>2026-04-11T08:53:27.938Z</time></trkpt><trkpt lat="45.3545109" lon="11.5535831"><ele>12.0</ele><time>2026-04-11T08:53:28.938Z</time></trkpt><trkpt lat="45.3545626" lon="11.5532845"><ele>12.0</ele><time>2026-04-11T08:53:29.938Z</time></trkpt><trkpt lat="45.354616" lon="11.5529743"><ele>12.0</ele><time>2026-04-11T08:53:30.938Z</time></trkpt><trkpt lat="45.3546695" lon="11.5526516"><ele>12.5</ele><time>2026-04-11T08:53:31.937Z</time></trkpt><trkpt lat="45.3547275" lon="11.5523224"><ele>13.0</ele><time>2026-04-11T08:53:32.938Z</time></trkpt><trkpt lat="45.3547838" lon="11.5519924"><ele>13.0</ele><time>2026-04-11T08:53:33.938Z</time></trkpt><trkpt lat="45.3548412" lon="11.5516474"><ele>13.0</ele><time>2026-04-11T08:53:34.938Z</time></trkpt><trkpt lat="45.3549007" lon="11.5513079"><ele>12.5</ele><time>2026-04-11T08:53:35.938Z</time></trkpt><trkpt lat="45.3549604" lon="11.5509684"><ele>12.0</ele><time>2026-04-11T08:53:36.938Z</time></trkpt><trkpt lat="45.3550138" lon="11.5506189"><ele>11.5</ele><time>2026-04-11T08:53:37.938Z</time></trkpt><trkpt lat="45.3550689" lon="11.5502756"><ele>11.0</ele><time>2026-04-11T08:53:38.938Z</time></trkpt><trkpt lat="45.3551259" lon="11.5499201"><ele>11.0</ele><time>2026-04-11T08:53:39.938Z</time></trkpt><trkpt lat="45.3551778" lon="11.5495724"><ele>11.0</ele><time>2026-04-11T08:53:40.938Z</time></trkpt><trkpt lat="45.3552388" lon="11.5492236"><ele>11.5</ele><time>2026-04-11T08:53:41.938Z</time></trkpt><trkpt lat="45.3552973" lon="11.5488819"><ele>12.0</ele><time>2026-04-11T08:53:42.938Z</time></trkpt><trkpt lat="45.3553601" lon="11.5485344"><ele>13.0</ele><time>2026-04-11T08:53:43.938Z</time></trkpt><trkpt lat="45.3554143" lon="11.5481956"><ele>14.0</ele><time>2026-04-11T08:53:44.938Z</time></trkpt><trkpt lat="45.3554708" lon="11.5478535"><ele>14.0</ele><time>2026-04-11T08:53:45.938Z</time></trkpt><trkpt lat="45.355525" lon="11.5475183"><ele>14.0</ele><time>2026-04-11T08:53:46.938Z</time></trkpt><trkpt lat="45.3555832" lon="11.5471821"><ele>13.5</ele><time>2026-04-11T08:53:47.938Z</time></trkpt><trkpt lat="45.3556351" lon="11.546863"><ele>13.0</ele><time>2026-04-11T08:53:48.938Z</time></trkpt><trkpt lat="45.3556833" lon="11.5465378"><ele>13.0</ele><time>2026-04-11T08:53:49.938Z</time></trkpt><trkpt lat="45.3557312" lon="11.5462116"><ele>13.0</ele><time>2026-04-11T08:53:50.937Z</time></trkpt><trkpt lat="45.3557843" lon="11.5458947"><ele>13.0</ele><time>2026-04-11T08:53:51.938Z</time></trkpt><trkpt lat="45.355833" lon="11.5455648"><ele>13.0</ele><time>2026-04-11T08:53:52.938Z</time></trkpt><trkpt lat="45.3558845" lon="11.5452415"><ele>13.0</ele><time>2026-04-11T08:53:53.938Z</time></trkpt><trkpt lat="45.3559351" lon="11.5449227"><ele>13.0</ele><time>2026-04-11T08:53:54.938Z</time></trkpt><trkpt lat="45.3559856" lon="11.5446002"><ele>13.0</ele><time>2026-04-11T08:53:55.938Z</time></trkpt><trkpt lat="45.3560377" lon="11.5442785"><ele>13.0</ele><time>2026-04-11T08:53:56.938Z</time></trkpt><trkpt lat="45.3560849" lon="11.5439525"><ele>13.5</ele><time>2026-04-11T08:53:57.938Z</time></trkpt><trkpt lat="45.3561377" lon="11.5436361"><ele>14.0</ele><time>2026-04-11T08:53:58.938Z</time></trkpt><trkpt lat="45.3561879" lon="11.5433207"><ele>14.0</ele><time>2026-04-11T08:53:59.938Z</time></trkpt><trkpt lat="45.3562388" lon="11.5429964"><ele>14.0</ele><time>2026-04-11T08:54:00.938Z</time></trkpt><trkpt lat="45.3562854" lon="11.542672"><ele>14.0</ele><time>2026-04-11T08:54:01.938Z</time></trkpt><trkpt lat="45.3563347" lon="11.5423445"><ele>14.0</ele><time>2026-04-11T08:54:02.938Z</time></trkpt><trkpt lat="45.356394" lon="11.5420207"><ele>14.0</ele><time>2026-04-11T08:54:03.938Z</time></trkpt><trkpt lat="45.3564483" lon="11.5416969"><ele>14.0</ele><time>2026-04-11T08:54:04.938Z</time></trkpt><trkpt lat="45.3565014" lon="11.5413725"><ele>14.5</ele><time>2026-04-11T08:54:05.938Z</time></trkpt><trkpt lat="45.356552" lon="11.5410418"><ele>15.0</ele><time>2026-04-11T08:54:06.938Z</time></trkpt><trkpt lat="45.3566011" lon="11.5407117"><ele>15.0</ele><time>2026-04-11T08:54:07.938Z</time></trkpt><trkpt lat="45.3566534" lon="11.5403926"><ele>15.0</ele><time>2026-04-11T08:54:08.938Z</time></trkpt><trkpt lat="45.3567021" lon="11.540068"><ele>14.5</ele><time>2026-04-11T08:54:09.938Z</time></trkpt><trkpt lat="45.3567611" lon="11.5397437"><ele>14.0</ele><time>2026-04-11T08:54:10.938Z</time></trkpt><trkpt lat="45.3568161" lon="11.5394163"><ele>14.0</ele><time>2026-04-11T08:54:11.937Z</time></trkpt><trkpt lat="45.3568701" lon="11.5390921"><ele>14.0</ele><time>2026-04-11T08:54:12.938Z</time></trkpt><trkpt lat="45.3569209" lon="11.5387672"><ele>13.5</ele><time>2026-04-11T08:54:13.938Z</time></trkpt><trkpt lat="45.3569732" lon="11.5384433"><ele>13.0</ele><time>2026-04-11T08:54:14.938Z</time></trkpt><trkpt lat="45.357026" lon="11.5381228"><ele>12.5</ele><time>2026-04-11T08:54:15.938Z</time></trkpt><trkpt lat="45.3570765" lon="11.5378038"><ele>12.0</ele><time>2026-04-11T08:54:16.938Z</time></trkpt><trkpt lat="45.3571265" lon="11.5374823"><ele>12.0</ele><time>2026-04-11T08:54:17.938Z</time></trkpt><trkpt lat="45.3571787" lon="11.5371629"><ele>12.0</ele><time>2026-04-11T08:54:18.938Z</time></trkpt><trkpt lat="45.3572275" lon="11.5368351"><ele>13.5</ele><time>2026-04-11T08:54:19.938Z</time></trkpt><trkpt lat="45.3572762" lon="11.5365099"><ele>15.0</ele><time>2026-04-11T08:54:20.937Z</time></trkpt><trkpt lat="45.3573267" lon="11.536191"><ele>15.0</ele><time>2026-04-11T08:54:21.938Z</time></trkpt><trkpt lat="45.3573819" lon="11.5358699"><ele>15.0</ele><time>2026-04-11T08:54:22.938Z</time></trkpt><trkpt lat="45.3574378" lon="11.5355521"><ele>15.0</ele><time>2026-04-11T08:54:23.938Z</time></trkpt><trkpt lat="45.3574886" lon="11.5352336"><ele>15.0</ele><time>2026-04-11T08:54:24.938Z</time></trkpt><trkpt lat="45.35754" lon="11.5349159"><ele>15.0</ele><time>2026-04-11T08:54:25.938Z</time></trkpt><trkpt lat="45.3575906" lon="11.534597"><ele>15.0</ele><time>2026-04-11T08:54:26.938Z</time></trkpt><trkpt lat="45.3576432" lon="11.5342726"><ele>14.666666666666668</ele><time>2026-04-11T08:54:27.938Z</time></trkpt><trkpt lat="45.3576953" lon="11.5339597"><ele>14.333333333333334</ele><time>2026-04-11T08:54:28.938Z</time></trkpt><trkpt lat="45.3577428" lon="11.5336594"><ele>14.0</ele><time>2026-04-11T08:54:29.938Z</time></trkpt><trkpt lat="45.3577899" lon="11.5333792"><ele>13.666666666666668</ele><time>2026-04-11T08:54:30.938Z</time></trkpt><trkpt lat="45.3578348" lon="11.5330983"><ele>13.333333333333332</ele><time>2026-04-11T08:54:31.938Z</time></trkpt><trkpt lat="45.3578836" lon="11.5328138"><ele>13.0</ele><time>2026-04-11T08:54:32.938Z</time></trkpt><trkpt lat="45.3579269" lon="11.5325302"><ele>13.0</ele><time>2026-04-11T08:54:33.938Z</time></trkpt><trkpt lat="45.3579772" lon="11.5322364"><ele>13.0</ele><time>2026-04-11T08:54:34.938Z</time></trkpt><trkpt lat="45.3580349" lon="11.5319467"><ele>13.0</ele><time>2026-04-11T08:54:35.938Z</time></trkpt><trkpt lat="45.3581049" lon="11.531661"><ele>13.0</ele><time>2026-04-11T08:54:36.938Z</time></trkpt><trkpt lat="45.3581838" lon="11.5313764"><ele>13.0</ele><time>2026-04-11T08:54:37.938Z</time></trkpt><trkpt lat="45.3582739" lon="11.5310874"><ele>13.0</ele><time>2026-04-11T08:54:38.937Z</time></trkpt><trkpt lat="45.358362" lon="11.5307969"><ele>13.0</ele><time>2026-04-11T08:54:39.938Z</time></trkpt><trkpt lat="45.3584551" lon="11.5305002"><ele>13.0</ele><time>2026-04-11T08:54:40.938Z</time></trkpt><trkpt lat="45.3585456" lon="11.5302104"><ele>13.0</ele><time>2026-04-11T08:54:41.938Z</time></trkpt><trkpt lat="45.3586338" lon="11.5299187"><ele>13.0</ele><time>2026-04-11T08:54:42.938Z</time></trkpt><trkpt lat="45.3587184" lon="11.5296227"><ele>13.0</ele><time>2026-04-11T08:54:43.938Z</time></trkpt><trkpt lat="45.3588107" lon="11.5293298"><ele>13.0</ele><time>2026-04-11T08:54:44.938Z</time></trkpt><trkpt lat="45.358898" lon="11.5290325"><ele>13.0</ele><time>2026-04-11T08:54:45.938Z</time></trkpt><trkpt lat="45.3589914" lon="11.5287527"><ele>13.0</ele><time>2026-04-11T08:54:46.938Z</time></trkpt><trkpt lat="45.3590826" lon="11.5284645"><ele>13.333333333333332</ele><time>2026-04-11T08:54:47.938Z</time></trkpt><trkpt lat="45.3591744" lon="11.5281813"><ele>13.666666666666668</ele><time>2026-04-11T08:54:48.938Z</time></trkpt><trkpt lat="45.3592613" lon="11.5278904"><ele>14.0</ele><time>2026-04-11T08:54:49.938Z</time></trkpt><trkpt lat="45.3593452" lon="11.5276045"><ele>14.0</ele><time>2026-04-11T08:54:50.938Z</time></trkpt><trkpt lat="45.3594293" lon="11.5273202"><ele>14.0</ele><time>2026-04-11T08:54:51.938Z</time></trkpt><trkpt lat="45.3595105" lon="11.5270375"><ele>14.0</ele><time>2026-04-11T08:54:52.938Z</time></trkpt><trkpt lat="45.3596005" lon="11.5267574"><ele>14.333333333333334</ele><time>2026-04-11T08:54:53.938Z</time></trkpt><trkpt lat="45.3596849" lon="11.5264764"><ele>14.666666666666668</ele><time>2026-04-11T08:54:54.938Z</time></trkpt><trkpt lat="45.3597704" lon="11.5261976"><ele>15.0</ele><time>2026-04-11T08:54:55.938Z</time></trkpt><trkpt lat="45.3598576" lon="11.5259156"><ele>15.0</ele><time>2026-04-11T08:54:56.938Z</time></trkpt><trkpt lat="45.3599392" lon="11.5256325"><ele>15.0</ele><time>2026-04-11T08:54:57.938Z</time></trkpt><trkpt lat="45.3600197" lon="11.5253479"><ele>15.0</ele><time>2026-04-11T08:54:58.938Z</time></trkpt><trkpt lat="45.3601072" lon="11.5250624"><ele>15.0</ele><time>2026-04-11T08:54:59.938Z</time></trkpt><trkpt lat="45.360195" lon="11.5247793"><ele>15.0</ele><time>2026-04-11T08:55:00.938Z</time></trkpt><trkpt lat="45.3602876" lon="11.5244977"><ele>15.0</ele><time>2026-04-11T08:55:01.938Z</time></trkpt><trkpt lat="45.3603768" lon="11.5242186"><ele>15.0</ele><time>2026-04-11T08:55:02.937Z</time></trkpt><trkpt lat="45.3604519" lon="11.5239553"><ele>15.0</ele><time>2026-04-11T08:55:03.938Z</time></trkpt><trkpt lat="45.3605281" lon="11.5237077"><ele>15.0</ele><time>2026-04-11T08:55:04.938Z</time></trkpt><trkpt lat="45.3605967" lon="11.5234877"><ele>15.0</ele><time>2026-04-11T08:55:05.938Z</time></trkpt><trkpt lat="45.3606565" lon="11.5232962"><ele>15.0</ele><time>2026-04-11T08:55:06.938Z</time></trkpt><trkpt lat="45.3607071" lon="11.5231239"><ele>15.0</ele><time>2026-04-11T08:55:07.938Z</time></trkpt><trkpt lat="45.3607404" lon="11.5229788"><ele>15.0</ele><time>2026-04-11T08:55:08.938Z</time></trkpt><trkpt lat="45.3607609" lon="11.5228579"><ele>15.0</ele><time>2026-04-11T08:55:09.938Z</time></trkpt><trkpt lat="45.3608069" lon="11.5227613"><ele>15.0</ele><time>2026-04-11T08:55:10.938Z</time></trkpt><trkpt lat="45.3608658" lon="11.522686"><ele>15.0</ele><time>2026-04-11T08:55:11.938Z</time></trkpt><trkpt lat="45.3609391" lon="11.5226621"><ele>15.0</ele><time>2026-04-11T08:55:12.938Z</time></trkpt><trkpt lat="45.3610359" lon="11.5226767"><ele>15.0</ele><time>2026-04-11T08:55:13.938Z</time></trkpt><trkpt lat="45.3611402" lon="11.5227131"><ele>15.0</ele><time>2026-04-11T08:55:14.938Z</time></trkpt><trkpt lat="45.3612616" lon="11.5227659"><ele>15.0</ele><time>2026-04-11T08:55:15.938Z</time></trkpt><trkpt lat="45.3614022" lon="11.5228205"><ele>15.0</ele><time>2026-04-11T08:55:16.938Z</time></trkpt><trkpt lat="45.3615454" lon="11.5228742"><ele>15.0</ele><time>2026-04-11T08:55:17.938Z</time></trkpt><trkpt lat="45.361683" lon="11.5229127"><ele>15.0</ele><time>2026-04-11T08:55:18.938Z</time></trkpt><trkpt lat="45.361808" lon="11.5229561"><ele>15.0</ele><time>2026-04-11T08:55:19.938Z</time></trkpt><trkpt lat="45.3619101" lon="11.5230044"><ele>15.0</ele><time>2026-04-11T08:55:20.938Z</time></trkpt><trkpt lat="45.3619947" lon="11.523036"><ele>15.0</ele><time>2026-04-11T08:55:21.937Z</time></trkpt><trkpt lat="45.362067" lon="11.5230639"><ele>15.0</ele><time>2026-04-11T08:55:22.938Z</time></trkpt><trkpt lat="45.3621508" lon="11.5230509"><ele>15.0</ele><time>2026-04-11T08:55:24.937Z</time></trkpt><trkpt lat="45.3621972" lon="11.522957"><ele>15.0</ele><time>2026-04-11T08:55:26.938Z</time></trkpt><trkpt lat="45.3622187" lon="11.5228482"><ele>15.25</ele><time>2026-04-11T08:55:27.938Z</time></trkpt><trkpt lat="45.3622357" lon="11.5226972"><ele>15.5</ele><time>2026-04-11T08:55:28.938Z</time></trkpt><trkpt lat="45.3622495" lon="11.5225338"><ele>15.75</ele><time>2026-04-11T08:55:29.938Z</time></trkpt><trkpt lat="45.3622666" lon="11.5223579"><ele>16.0</ele><time>2026-04-11T08:55:30.938Z</time></trkpt><trkpt lat="45.3622847" lon="11.5221837"><ele>16.0</ele><time>2026-04-11T08:55:31.938Z</time></trkpt><trkpt lat="45.3623213" lon="11.5220108"><ele>16.0</ele><time>2026-04-11T08:55:32.938Z</time></trkpt><trkpt lat="45.3623367" lon="11.5218367"><ele>16.0</ele><time>2026-04-11T08:55:33.938Z</time></trkpt><trkpt lat="45.3623554" lon="11.5216607"><ele>16.0</ele><time>2026-04-11T08:55:34.938Z</time></trkpt><trkpt lat="45.3623723" lon="11.5214832"><ele>16.0</ele><time>2026-04-11T08:55:35.938Z</time></trkpt><trkpt lat="45.3623885" lon="11.5213023"><ele>16.0</ele><time>2026-04-11T08:55:36.938Z</time></trkpt><trkpt lat="45.3624075" lon="11.521137"><ele>16.0</ele><time>2026-04-11T08:55:37.938Z</time></trkpt><trkpt lat="45.3624355" lon="11.5209953"><ele>16.0</ele><time>2026-04-11T08:55:38.938Z</time></trkpt><trkpt lat="45.3624706" lon="11.5208722"><ele>16.0</ele><time>2026-04-11T08:55:39.938Z</time></trkpt><trkpt lat="45.3625154" lon="11.5207679"><ele>16.0</ele><time>2026-04-11T08:55:40.938Z</time></trkpt><trkpt lat="45.3625582" lon="11.5206822"><ele>16.0</ele><time>2026-04-11T08:55:41.938Z</time></trkpt><trkpt lat="45.3626054" lon="11.520583"><ele>16.0</ele><time>2026-04-11T08:55:42.938Z</time></trkpt><trkpt lat="45.3626514" lon="11.5204577"><ele>16.0</ele><time>2026-04-11T08:55:43.938Z</time></trkpt><trkpt lat="45.3626885" lon="11.5202968"><ele>16.0</ele><time>2026-04-11T08:55:44.938Z</time></trkpt><trkpt lat="45.3627142" lon="11.5200785"><ele>16.0</ele><time>2026-04-11T08:55:45.938Z</time></trkpt><trkpt lat="45.362731" lon="11.519848"><ele>16.0</ele><time>2026-04-11T08:55:46.938Z</time></trkpt><trkpt lat="45.3627724" lon="11.5196159"><ele>16.0</ele><time>2026-04-11T08:55:47.938Z</time></trkpt><trkpt lat="45.36283" lon="11.5193939"><ele>16.0</ele><time>2026-04-11T08:55:48.938Z</time></trkpt><trkpt lat="45.3628847" lon="11.5192056"><ele>16.0</ele><time>2026-04-11T08:55:49.938Z</time></trkpt><trkpt lat="45.3629437" lon="11.5190504"><ele>16.0</ele><time>2026-04-11T08:55:50.938Z</time></trkpt><trkpt lat="45.3630131" lon="11.5189376"><ele>16.0</ele><time>2026-04-11T08:55:51.938Z</time></trkpt><trkpt lat="45.3630814" lon="11.5188491"><ele>16.0</ele><time>2026-04-11T08:55:52.938Z</time></trkpt><trkpt lat="45.3631674" lon="11.5187676"><ele>16.0</ele><time>2026-04-11T08:55:53.938Z</time></trkpt><trkpt lat="45.3632637" lon="11.5187396"><ele>16.0</ele><time>2026-04-11T08:55:54.938Z</time></trkpt><trkpt lat="45.3633595" lon="11.5186964"><ele>16.0</ele><time>2026-04-11T08:55:55.938Z</time></trkpt><trkpt lat="45.3634499" lon="11.5186406"><ele>16.0</ele><time>2026-04-11T08:55:56.938Z</time></trkpt><trkpt lat="45.3635389" lon="11.5185757"><ele>16.0</ele><time>2026-04-11T08:55:57.938Z</time></trkpt><trkpt lat="45.3636149" lon="11.5184782"><ele>16.0</ele><time>2026-04-11T08:55:58.938Z</time></trkpt><trkpt lat="45.3636842" lon="11.5183674"><ele>16.0</ele><time>2026-04-11T08:55:59.938Z</time></trkpt><trkpt lat="45.3637464" lon="11.5182382"><ele>16.0</ele><time>2026-04-11T08:56:00.938Z</time></trkpt><trkpt lat="45.3638008" lon="11.5180958"><ele>16.0</ele><time>2026-04-11T08:56:01.938Z</time></trkpt><trkpt lat="45.3638472" lon="11.5179357"><ele>15.999999999999998</ele><time>2026-04-11T08:56:02.938Z</time></trkpt><trkpt lat="45.3638938" lon="11.5177803"><ele>16.0</ele><time>2026-04-11T08:56:03.938Z</time></trkpt><trkpt lat="45.3639292" lon="11.5176482"><ele>16.0</ele><time>2026-04-11T08:56:04.938Z</time></trkpt><trkpt lat="45.3639583" lon="11.5175469"><ele>16.0</ele><time>2026-04-11T08:56:05.938Z</time></trkpt><trkpt lat="45.3639891" lon="11.5174386"><ele>15.999999999999998</ele><time>2026-04-11T08:56:07.938Z</time></trkpt><trkpt lat="45.364048" lon="11.5173838"><ele>16.0</ele><time>2026-04-11T08:56:13.938Z</time></trkpt><trkpt lat="45.3641282" lon="11.517355"><ele>16.0</ele><time>2026-04-11T08:56:14.937Z</time></trkpt><trkpt lat="45.3642386" lon="11.5173606"><ele>16.0</ele><time>2026-04-11T08:56:15.938Z</time></trkpt><trkpt lat="45.3643525" lon="11.5173765"><ele>16.0</ele><time>2026-04-11T08:56:16.938Z</time></trkpt><trkpt lat="45.3644864" lon="11.5173965"><ele>16.0</ele><time>2026-04-11T08:56:17.938Z</time></trkpt><trkpt lat="45.3646339" lon="11.5174304"><ele>15.666666666666666</ele><time>2026-04-11T08:56:18.938Z</time></trkpt><trkpt lat="45.3647771" lon="11.5174667"><ele>15.333333333333332</ele><time>2026-04-11T08:56:19.938Z</time></trkpt><trkpt lat="45.3649195" lon="11.5175314"><ele>15.0</ele><time>2026-04-11T08:56:20.938Z</time></trkpt><trkpt lat="45.3650666" lon="11.5176058"><ele>15.0</ele><time>2026-04-11T08:56:21.938Z</time></trkpt><trkpt lat="45.3652148" lon="11.5176778"><ele>15.0</ele><time>2026-04-11T08:56:22.938Z</time></trkpt><trkpt lat="45.3653574" lon="11.517797"><ele>15.0</ele><time>2026-04-11T08:56:23.938Z</time></trkpt><trkpt lat="45.365501" lon="11.5179341"><ele>15.333333333333332</ele><time>2026-04-11T08:56:24.938Z</time></trkpt><trkpt lat="45.3656382" lon="11.5180787"><ele>15.666666666666666</ele><time>2026-04-11T08:56:25.938Z</time></trkpt><trkpt lat="45.3657746" lon="11.5182254"><ele>16.0</ele><time>2026-04-11T08:56:26.938Z</time></trkpt><trkpt lat="45.3659036" lon="11.5183733"><ele>16.0</ele><time>2026-04-11T08:56:27.938Z</time></trkpt><trkpt lat="45.3660503" lon="11.5185163"><ele>16.0</ele><time>2026-04-11T08:56:28.938Z</time></trkpt><trkpt lat="45.3661923" lon="11.5186696"><ele>16.0</ele><time>2026-04-11T08:56:29.938Z</time></trkpt><trkpt lat="45.366333" lon="11.5188211"><ele>16.0</ele><time>2026-04-11T08:56:30.938Z</time></trkpt><trkpt lat="45.3664734" lon="11.5189732"><ele>16.0</ele><time>2026-04-11T08:56:31.938Z</time></trkpt><trkpt lat="45.3666115" lon="11.5191208"><ele>16.0</ele><time>2026-04-11T08:56:32.938Z</time></trkpt><trkpt lat="45.3667523" lon="11.5192673"><ele>16.0</ele><time>2026-04-11T08:56:33.938Z</time></trkpt><trkpt lat="45.3668949" lon="11.5194192"><ele>16.0</ele><time>2026-04-11T08:56:34.938Z</time></trkpt><trkpt lat="45.3670406" lon="11.5195728"><ele>16.0</ele><time>2026-04-11T08:56:35.938Z</time></trkpt><trkpt lat="45.3671808" lon="11.5197335"><ele>16.0</ele><time>2026-04-11T08:56:36.938Z</time></trkpt><trkpt lat="45.3673187" lon="11.5199013"><ele>16.0</ele><time>2026-04-11T08:56:37.938Z</time></trkpt><trkpt lat="45.3674516" lon="11.5200769"><ele>16.0</ele><time>2026-04-11T08:56:38.938Z</time></trkpt><trkpt lat="45.3675832" lon="11.5202543"><ele>16.0</ele><time>2026-04-11T08:56:39.938Z</time></trkpt><trkpt lat="45.3677115" lon="11.5204325"><ele>16.0</ele><time>2026-04-11T08:56:40.938Z</time></trkpt><trkpt lat="45.3678385" lon="11.5206072"><ele>16.0</ele><time>2026-04-11T08:56:41.937Z</time></trkpt><trkpt lat="45.3679691" lon="11.5207784"><ele>16.0</ele><time>2026-04-11T08:56:42.938Z</time></trkpt><trkpt lat="45.368111" lon="11.5209325"><ele>16.0</ele><time>2026-04-11T08:56:43.938Z</time></trkpt><trkpt lat="45.3682668" lon="11.5210661"><ele>16.0</ele><time>2026-04-11T08:56:44.938Z</time></trkpt><trkpt lat="45.3684271" lon="11.5211788"><ele>16.0</ele><time>2026-04-11T08:56:45.938Z</time></trkpt><trkpt lat="45.3685954" lon="11.5212791"><ele>16.0</ele><time>2026-04-11T08:56:46.938Z</time></trkpt><trkpt lat="45.3687765" lon="11.5213808"><ele>16.0</ele><time>2026-04-11T08:56:47.938Z</time></trkpt><trkpt lat="45.3689541" lon="11.5214808"><ele>15.666666666666666</ele><time>2026-04-11T08:56:48.938Z</time></trkpt><trkpt lat="45.3691336" lon="11.521577"><ele>15.333333333333332</ele><time>2026-04-11T08:56:49.938Z</time></trkpt><trkpt lat="45.369308" lon="11.5216785"><ele>15.0</ele><time>2026-04-11T08:56:50.938Z</time></trkpt><trkpt lat="45.3694904" lon="11.5217695"><ele>15.0</ele><time>2026-04-11T08:56:51.938Z</time></trkpt><trkpt lat="45.3696716" lon="11.5218626"><ele>15.0</ele><time>2026-04-11T08:56:52.938Z</time></trkpt><trkpt lat="45.369848" lon="11.5219619"><ele>15.0</ele><time>2026-04-11T08:56:53.938Z</time></trkpt><trkpt lat="45.3700329" lon="11.5220608"><ele>16.0</ele><time>2026-04-11T08:56:54.938Z</time></trkpt><trkpt lat="45.3702023" lon="11.5221532"><ele>17.0</ele><time>2026-04-11T08:56:55.938Z</time></trkpt><trkpt lat="45.3703622" lon="11.5222499"><ele>18.0</ele><time>2026-04-11T08:56:56.938Z</time></trkpt><trkpt lat="45.370511" lon="11.5223372"><ele>17.333333333333332</ele><time>2026-04-11T08:56:57.938Z</time></trkpt><trkpt lat="45.3706592" lon="11.5224216"><ele>16.666666666666664</ele><time>2026-04-11T08:56:58.938Z</time></trkpt><trkpt lat="45.3707926" lon="11.522527"><ele>16.0</ele><time>2026-04-11T08:56:59.938Z</time></trkpt><trkpt lat="45.3709241" lon="11.5226593"><ele>16.0</ele><time>2026-04-11T08:57:00.938Z</time></trkpt><trkpt lat="45.3710506" lon="11.5228093"><ele>16.0</ele><time>2026-04-11T08:57:01.938Z</time></trkpt><trkpt lat="45.3711684" lon="11.5229775"><ele>16.0</ele><time>2026-04-11T08:57:02.938Z</time></trkpt><trkpt lat="45.3712653" lon="11.5231464"><ele>16.0</ele><time>2026-04-11T08:57:03.938Z</time></trkpt><trkpt lat="45.3713569" lon="11.5233132"><ele>16.0</ele><time>2026-04-11T08:57:04.938Z</time></trkpt><trkpt lat="45.3714565" lon="11.5234677"><ele>16.0</ele><time>2026-04-11T08:57:05.938Z</time></trkpt><trkpt lat="45.3715604" lon="11.52361"><ele>16.0</ele><time>2026-04-11T08:57:06.938Z</time></trkpt><trkpt lat="45.3716639" lon="11.523751"><ele>16.0</ele><time>2026-04-11T08:57:07.937Z</time></trkpt><trkpt lat="45.3717751" lon="11.523877"><ele>16.0</ele><time>2026-04-11T08:57:08.938Z</time></trkpt><trkpt lat="45.3718822" lon="11.5239784"><ele>16.0</ele><time>2026-04-11T08:57:09.938Z</time></trkpt><trkpt lat="45.3719856" lon="11.5240602"><ele>16.0</ele><time>2026-04-11T08:57:10.938Z</time></trkpt><trkpt lat="45.3720863" lon="11.5241284"><ele>16.0</ele><time>2026-04-11T08:57:11.938Z</time></trkpt><trkpt lat="45.3721848" lon="11.524211"><ele>16.0</ele><time>2026-04-11T08:57:12.938Z</time></trkpt><trkpt lat="45.3722963" lon="11.5243008"><ele>16.0</ele><time>2026-04-11T08:57:13.938Z</time></trkpt><trkpt lat="45.3724139" lon="11.5243898"><ele>16.0</ele><time>2026-04-11T08:57:14.938Z</time></trkpt><trkpt lat="45.3725457" lon="11.5244836"><ele>15.666666666666666</ele><time>2026-04-11T08:57:15.938Z</time></trkpt><trkpt lat="45.372692" lon="11.5245873"><ele>15.333333333333332</ele><time>2026-04-11T08:57:16.938Z</time></trkpt><trkpt lat="45.3728475" lon="11.5246969"><ele>15.0</ele><time>2026-04-11T08:57:17.938Z</time></trkpt><trkpt lat="45.3730066" lon="11.5248001"><ele>15.0</ele><time>2026-04-11T08:57:18.938Z</time></trkpt><trkpt lat="45.3731719" lon="11.5248971"><ele>15.0</ele><time>2026-04-11T08:57:19.938Z</time></trkpt><trkpt lat="45.3733402" lon="11.5249896"><ele>15.0</ele><time>2026-04-11T08:57:20.938Z</time></trkpt><trkpt lat="45.3735081" lon="11.5250726"><ele>15.0</ele><time>2026-04-11T08:57:21.938Z</time></trkpt><trkpt lat="45.3736775" lon="11.5251655"><ele>15.0</ele><time>2026-04-11T08:57:22.938Z</time></trkpt><trkpt lat="45.3738451" lon="11.5252832"><ele>15.0</ele><time>2026-04-11T08:57:23.938Z</time></trkpt><trkpt lat="45.3739952" lon="11.5254151"><ele>14.666666666666668</ele><time>2026-04-11T08:57:24.938Z</time></trkpt><trkpt lat="45.3741435" lon="11.5255631"><ele>14.333333333333334</ele><time>2026-04-11T08:57:25.937Z</time></trkpt><trkpt lat="45.374279" lon="11.5257044"><ele>14.0</ele><time>2026-04-11T08:57:26.938Z</time></trkpt><trkpt lat="45.3743876" lon="11.5258652"><ele>14.0</ele><time>2026-04-11T08:57:27.938Z</time></trkpt><trkpt lat="45.3744943" lon="11.5260333"><ele>14.0</ele><time>2026-04-11T08:57:28.937Z</time></trkpt><trkpt lat="45.3745923" lon="11.5262128"><ele>14.0</ele><time>2026-04-11T08:57:29.938Z</time></trkpt><trkpt lat="45.3746836" lon="11.5264069"><ele>14.666666666666668</ele><time>2026-04-11T08:57:30.938Z</time></trkpt><trkpt lat="45.3747637" lon="11.5266085"><ele>15.333333333333332</ele><time>2026-04-11T08:57:31.938Z</time></trkpt><trkpt lat="45.3748399" lon="11.5268108"><ele>16.0</ele><time>2026-04-11T08:57:32.938Z</time></trkpt><trkpt lat="45.374914" lon="11.527019"><ele>15.666666666666666</ele><time>2026-04-11T08:57:33.938Z</time></trkpt><trkpt lat="45.3749882" lon="11.5272266"><ele>15.333333333333332</ele><time>2026-04-11T08:57:34.938Z</time></trkpt><trkpt lat="45.3750609" lon="11.5274221"><ele>15.0</ele><time>2026-04-11T08:57:35.938Z</time></trkpt><trkpt lat="45.3751171" lon="11.5275974"><ele>15.0</ele><time>2026-04-11T08:57:36.938Z</time></trkpt><trkpt lat="45.375162" lon="11.527742"><ele>15.0</ele><time>2026-04-11T08:57:37.938Z</time></trkpt><trkpt lat="45.3751982" lon="11.5278514"><ele>15.0</ele><time>2026-04-11T08:57:38.938Z</time></trkpt><trkpt lat="45.3752396" lon="11.5279254"><ele>15.0</ele><time>2026-04-11T08:57:39.938Z</time></trkpt><trkpt lat="45.3752997" lon="11.5279856"><ele>15.0</ele><time>2026-04-11T08:57:40.938Z</time></trkpt><trkpt lat="45.3753652" lon="11.5279578"><ele>15.0</ele><time>2026-04-11T08:57:41.938Z</time></trkpt><trkpt lat="45.3754389" lon="11.5279241"><ele>15.25</ele><time>2026-04-11T08:57:42.938Z</time></trkpt><trkpt lat="45.3755359" lon="11.5278377"><ele>15.5</ele><time>2026-04-11T08:57:43.938Z</time></trkpt><trkpt lat="45.3756453" lon="11.5277439"><ele>15.75</ele><time>2026-04-11T08:57:44.938Z</time></trkpt><trkpt lat="45.3757655" lon="11.5276515"><ele>16.0</ele><time>2026-04-11T08:57:45.938Z</time></trkpt><trkpt lat="45.3759011" lon="11.5275549"><ele>16.0</ele><time>2026-04-11T08:57:46.938Z</time></trkpt><trkpt lat="45.3760389" lon="11.5274464"><ele>16.0</ele><time>2026-04-11T08:57:47.938Z</time></trkpt><trkpt lat="45.3761915" lon="11.527339"><ele>16.0</ele><time>2026-04-11T08:57:48.938Z</time></trkpt><trkpt lat="45.3763461" lon="11.5272228"><ele>16.0</ele><time>2026-04-11T08:57:49.937Z</time></trkpt><trkpt lat="45.3765056" lon="11.5271053"><ele>16.0</ele><time>2026-04-11T08:57:50.938Z</time></trkpt><trkpt lat="45.3766625" lon="11.5269921"><ele>16.0</ele><time>2026-04-11T08:57:51.938Z</time></trkpt><trkpt lat="45.3768185" lon="11.5268771"><ele>16.0</ele><time>2026-04-11T08:57:52.938Z</time></trkpt><trkpt lat="45.3769743" lon="11.5267673"><ele>16.0</ele><time>2026-04-11T08:57:53.938Z</time></trkpt><trkpt lat="45.3771254" lon="11.5266595"><ele>16.0</ele><time>2026-04-11T08:57:54.938Z</time></trkpt><trkpt lat="45.3772722" lon="11.5265419"><ele>16.0</ele><time>2026-04-11T08:57:55.938Z</time></trkpt><trkpt lat="45.3774227" lon="11.5264392"><ele>16.0</ele><time>2026-04-11T08:57:56.938Z</time></trkpt><trkpt lat="45.377571" lon="11.5263328"><ele>16.0</ele><time>2026-04-11T08:57:57.938Z</time></trkpt><trkpt lat="45.3777181" lon="11.5262217"><ele>16.0</ele><time>2026-04-11T08:57:58.938Z</time></trkpt><trkpt lat="45.3778672" lon="11.5261163"><ele>16.0</ele><time>2026-04-11T08:57:59.937Z</time></trkpt><trkpt lat="45.3780157" lon="11.5260128"><ele>16.0</ele><time>2026-04-11T08:58:00.938Z</time></trkpt><trkpt lat="45.3781633" lon="11.5259091"><ele>16.0</ele><time>2026-04-11T08:58:01.938Z</time></trkpt><trkpt lat="45.3783091" lon="11.5257975"><ele>16.0</ele><time>2026-04-11T08:58:02.938Z</time></trkpt><trkpt lat="45.3784642" lon="11.5256997"><ele>16.0</ele><time>2026-04-11T08:58:03.938Z</time></trkpt><trkpt lat="45.3786294" lon="11.5255804"><ele>16.0</ele><time>2026-04-11T08:58:04.938Z</time></trkpt><trkpt lat="45.3787984" lon="11.525447"><ele>16.0</ele><time>2026-04-11T08:58:05.938Z</time></trkpt><trkpt lat="45.378982" lon="11.5253217"><ele>16.0</ele><time>2026-04-11T08:58:06.937Z</time></trkpt><trkpt lat="45.3791718" lon="11.5251912"><ele>16.0</ele><time>2026-04-11T08:58:07.938Z</time></trkpt><trkpt lat="45.3793527" lon="11.5250535"><ele>16.0</ele><time>2026-04-11T08:58:08.938Z</time></trkpt><trkpt lat="45.3795338" lon="11.5249273"><ele>16.0</ele><time>2026-04-11T08:58:09.938Z</time></trkpt><trkpt lat="45.3797157" lon="11.5247948"><ele>16.333333333333332</ele><time>2026-04-11T08:58:10.938Z</time></trkpt><trkpt lat="45.3798997" lon="11.5246787"><ele>16.666666666666668</ele><time>2026-04-11T08:58:11.938Z</time></trkpt><trkpt lat="45.3800741" lon="11.5245595"><ele>17.0</ele><time>2026-04-11T08:58:12.938Z</time></trkpt><trkpt lat="45.3802407" lon="11.5244315"><ele>17.0</ele><time>2026-04-11T08:58:13.938Z</time></trkpt><trkpt lat="45.3804083" lon="11.524304"><ele>17.0</ele><time>2026-04-11T08:58:14.938Z</time></trkpt><trkpt lat="45.3805793" lon="11.5241767"><ele>17.0</ele><time>2026-04-11T08:58:15.937Z</time></trkpt><trkpt lat="45.3807458" lon="11.5240581"><ele>17.0</ele><time>2026-04-11T08:58:16.938Z</time></trkpt><trkpt lat="45.380913" lon="11.5239414"><ele>17.0</ele><time>2026-04-11T08:58:17.938Z</time></trkpt><trkpt lat="45.3810739" lon="11.5238277"><ele>17.0</ele><time>2026-04-11T08:58:18.938Z</time></trkpt><trkpt lat="45.3812453" lon="11.5237225"><ele>16.333333333333336</ele><time>2026-04-11T08:58:19.938Z</time></trkpt><trkpt lat="45.3813971" lon="11.5236058"><ele>15.666666666666668</ele><time>2026-04-11T08:58:20.938Z</time></trkpt><trkpt lat="45.3815617" lon="11.5234912"><ele>15.0</ele><time>2026-04-11T08:58:21.938Z</time></trkpt><trkpt lat="45.381728" lon="11.5233629"><ele>15.0</ele><time>2026-04-11T08:58:22.937Z</time></trkpt><trkpt lat="45.3819013" lon="11.5232439"><ele>15.0</ele><time>2026-04-11T08:58:23.938Z</time></trkpt><trkpt lat="45.3820685" lon="11.5231228"><ele>15.0</ele><time>2026-04-11T08:58:24.938Z</time></trkpt><trkpt lat="45.3822353" lon="11.5230026"><ele>14.666666666666668</ele><time>2026-04-11T08:58:25.938Z</time></trkpt><trkpt lat="45.382406" lon="11.5228704"><ele>14.333333333333334</ele><time>2026-04-11T08:58:26.938Z</time></trkpt><trkpt lat="45.3825846" lon="11.5227424"><ele>14.0</ele><time>2026-04-11T08:58:27.938Z</time></trkpt><trkpt lat="45.3827641" lon="11.52262"><ele>14.0</ele><time>2026-04-11T08:58:28.938Z</time></trkpt><trkpt lat="45.3829433" lon="11.5224828"><ele>14.0</ele><time>2026-04-11T08:58:29.938Z</time></trkpt><trkpt lat="45.3831294" lon="11.5223532"><ele>14.0</ele><time>2026-04-11T08:58:30.938Z</time></trkpt><trkpt lat="45.383314" lon="11.5222198"><ele>14.0</ele><time>2026-04-11T08:58:31.938Z</time></trkpt><trkpt lat="45.3835054" lon="11.5220791"><ele>14.0</ele><time>2026-04-11T08:58:32.938Z</time></trkpt><trkpt lat="45.3836937" lon="11.521942"><ele>14.0</ele><time>2026-04-11T08:58:33.938Z</time></trkpt><trkpt lat="45.3838856" lon="11.5218005"><ele>14.666666666666668</ele><time>2026-04-11T08:58:34.938Z</time></trkpt><trkpt lat="45.3840791" lon="11.5216616"><ele>15.333333333333332</ele><time>2026-04-11T08:58:35.937Z</time></trkpt><trkpt lat="45.3842744" lon="11.5215205"><ele>16.0</ele><time>2026-04-11T08:58:36.938Z</time></trkpt><trkpt lat="45.3844679" lon="11.5213908"><ele>16.0</ele><time>2026-04-11T08:58:37.938Z</time></trkpt><trkpt lat="45.3846557" lon="11.5212379"><ele>16.0</ele><time>2026-04-11T08:58:38.938Z</time></trkpt><trkpt lat="45.3848398" lon="11.5211008"><ele>16.0</ele><time>2026-04-11T08:58:39.938Z</time></trkpt><trkpt lat="45.3850343" lon="11.520965"><ele>15.666666666666666</ele><time>2026-04-11T08:58:40.938Z</time></trkpt><trkpt lat="45.3852275" lon="11.5208257"><ele>15.333333333333332</ele><time>2026-04-11T08:58:41.938Z</time></trkpt><trkpt lat="45.3854194" lon="11.5206912"><ele>15.0</ele><time>2026-04-11T08:58:42.938Z</time></trkpt><trkpt lat="45.3856131" lon="11.5205547"><ele>14.333333333333332</ele><time>2026-04-11T08:58:43.938Z</time></trkpt><trkpt lat="45.385799" lon="11.5204043"><ele>13.666666666666666</ele><time>2026-04-11T08:58:44.938Z</time></trkpt><trkpt lat="45.3859969" lon="11.5202629"><ele>13.0</ele><time>2026-04-11T08:58:45.938Z</time></trkpt><trkpt lat="45.386197" lon="11.5201292"><ele>14.0</ele><time>2026-04-11T08:58:46.938Z</time></trkpt><trkpt lat="45.386381" lon="11.5199839"><ele>15.0</ele><time>2026-04-11T08:58:47.938Z</time></trkpt><trkpt lat="45.3865707" lon="11.5198511"><ele>16.0</ele><time>2026-04-11T08:58:48.938Z</time></trkpt><trkpt lat="45.3867524" lon="11.5197137"><ele>16.0</ele><time>2026-04-11T08:58:49.938Z</time></trkpt><trkpt lat="45.3869279" lon="11.5195811"><ele>16.0</ele><time>2026-04-11T08:58:50.938Z</time></trkpt><trkpt lat="45.3871043" lon="11.5194537"><ele>16.0</ele><time>2026-04-11T08:58:51.938Z</time></trkpt><trkpt lat="45.3872712" lon="11.5193296"><ele>15.666666666666666</ele><time>2026-04-11T08:58:52.938Z</time></trkpt><trkpt lat="45.3874323" lon="11.5192109"><ele>15.333333333333332</ele><time>2026-04-11T08:58:53.938Z</time></trkpt><trkpt lat="45.3875926" lon="11.5191132"><ele>15.0</ele><time>2026-04-11T08:58:54.938Z</time></trkpt><trkpt lat="45.3877294" lon="11.5190127"><ele>15.0</ele><time>2026-04-11T08:58:55.938Z</time></trkpt><trkpt lat="45.3878546" lon="11.5189298"><ele>15.0</ele><time>2026-04-11T08:58:56.938Z</time></trkpt><trkpt lat="45.3879604" lon="11.5188416"><ele>15.0</ele><time>2026-04-11T08:58:57.938Z</time></trkpt><trkpt lat="45.3880589" lon="11.5187733"><ele>15.0</ele><time>2026-04-11T08:58:58.938Z</time></trkpt><trkpt lat="45.3881319" lon="11.5186729"><ele>15.75</ele><time>2026-04-11T08:58:59.938Z</time></trkpt><trkpt lat="45.3881844" lon="11.5185296"><ele>16.5</ele><time>2026-04-11T08:59:00.938Z</time></trkpt><trkpt lat="45.3882129" lon="11.518368"><ele>17.25</ele><time>2026-04-11T08:59:01.938Z</time></trkpt><trkpt lat="45.3882279" lon="11.5181832"><ele>18.0</ele><time>2026-04-11T08:59:02.938Z</time></trkpt><trkpt lat="45.3882465" lon="11.5179828"><ele>18.0</ele><time>2026-04-11T08:59:03.938Z</time></trkpt><trkpt lat="45.3882633" lon="11.517784"><ele>18.0</ele><time>2026-04-11T08:59:04.938Z</time></trkpt><trkpt lat="45.3882797" lon="11.5175839"><ele>18.0</ele><time>2026-04-11T08:59:05.938Z</time></trkpt><trkpt lat="45.3883033" lon="11.5174021"><ele>18.0</ele><time>2026-04-11T08:59:06.937Z</time></trkpt><trkpt lat="45.3883107" lon="11.5172299"><ele>18.5</ele><time>2026-04-11T08:59:07.938Z</time></trkpt><trkpt lat="45.3883054" lon="11.5170686"><ele>19.0</ele><time>2026-04-11T08:59:08.938Z</time></trkpt><trkpt lat="45.3882767" lon="11.5169049"><ele>19.5</ele><time>2026-04-11T08:59:09.938Z</time></trkpt><trkpt lat="45.3882273" lon="11.5167476"><ele>20.0</ele><time>2026-04-11T08:59:10.938Z</time></trkpt><trkpt lat="45.3881546" lon="11.5165889"><ele>20.0</ele><time>2026-04-11T08:59:11.938Z</time></trkpt><trkpt lat="45.3880546" lon="11.516449"><ele>20.0</ele><time>2026-04-11T08:59:12.938Z</time></trkpt><trkpt lat="45.3879434" lon="11.5163231"><ele>20.0</ele><time>2026-04-11T08:59:13.938Z</time></trkpt><trkpt lat="45.3878139" lon="11.5162062"><ele>20.0</ele><time>2026-04-11T08:59:14.938Z</time></trkpt><trkpt lat="45.387687" lon="11.5160907"><ele>19.0</ele><time>2026-04-11T08:59:15.938Z</time></trkpt><trkpt lat="45.3875522" lon="11.5159734"><ele>18.0</ele><time>2026-04-11T08:59:16.938Z</time></trkpt><trkpt lat="45.3874225" lon="11.5158525"><ele>17.0</ele><time>2026-04-11T08:59:17.938Z</time></trkpt><trkpt lat="45.387287" lon="11.5157319"><ele>16.666666666666668</ele><time>2026-04-11T08:59:18.938Z</time></trkpt><trkpt lat="45.3871491" lon="11.5156008"><ele>16.333333333333332</ele><time>2026-04-11T08:59:19.938Z</time></trkpt><trkpt lat="45.3870128" lon="11.5154726"><ele>16.0</ele><time>2026-04-11T08:59:20.938Z</time></trkpt><trkpt lat="45.3868771" lon="11.5153461"><ele>16.0</ele><time>2026-04-11T08:59:21.938Z</time></trkpt><trkpt lat="45.3867463" lon="11.5152268"><ele>16.0</ele><time>2026-04-11T08:59:22.938Z</time></trkpt><trkpt lat="45.3866215" lon="11.5150876"><ele>16.0</ele><time>2026-04-11T08:59:23.938Z</time></trkpt><trkpt lat="45.3865038" lon="11.51493"><ele>16.0</ele><time>2026-04-11T08:59:24.938Z</time></trkpt><trkpt lat="45.386391" lon="11.5147542"><ele>16.0</ele><time>2026-04-11T08:59:25.938Z</time></trkpt><trkpt lat="45.3862818" lon="11.5145779"><ele>16.0</ele><time>2026-04-11T08:59:26.938Z</time></trkpt><trkpt lat="45.3861751" lon="11.514419"><ele>17.0</ele><time>2026-04-11T08:59:27.938Z</time></trkpt><trkpt lat="45.3860718" lon="11.5142769"><ele>18.0</ele><time>2026-04-11T08:59:28.938Z</time></trkpt><trkpt lat="45.385969" lon="11.5141648"><ele>19.0</ele><time>2026-04-11T08:59:29.938Z</time></trkpt><trkpt lat="45.3858522" lon="11.514085"><ele>20.0</ele><time>2026-04-11T08:59:30.938Z</time></trkpt><trkpt lat="45.3857213" lon="11.5140579"><ele>20.0</ele><time>2026-04-11T08:59:31.938Z</time></trkpt><trkpt lat="45.385585" lon="11.5140747"><ele>20.0</ele><time>2026-04-11T08:59:32.938Z</time></trkpt><trkpt lat="45.3854454" lon="11.5141262"><ele>20.0</ele><time>2026-04-11T08:59:33.938Z</time></trkpt><trkpt lat="45.385311" lon="11.5142067"><ele>20.0</ele><time>2026-04-11T08:59:34.937Z</time></trkpt><trkpt lat="45.3852055" lon="11.5142823"><ele>23.2</ele><time>2026-04-11T08:59:35.938Z</time></trkpt><trkpt lat="45.38513" lon="11.5143537"><ele>26.4</ele><time>2026-04-11T08:59:36.938Z</time></trkpt><trkpt lat="45.3850236" lon="11.5143663"><ele>29.6</ele><time>2026-04-11T08:59:38.938Z</time></trkpt><trkpt lat="45.3849925" lon="11.514243"><ele>32.8</ele><time>2026-04-11T08:59:40.938Z</time></trkpt><trkpt lat="45.3850614" lon="11.5141104"><ele>36.0</ele><time>2026-04-11T08:59:42.938Z</time></trkpt><trkpt lat="45.3851135" lon="11.5140463"><ele>36.0</ele><time>2026-04-11T08:59:43.938Z</time></trkpt><trkpt lat="45.3852537" lon="11.5139313"><ele>36.0</ele><time>2026-04-11T08:59:44.938Z</time></trkpt><trkpt lat="45.3853381" lon="11.5137992"><ele>36.0</ele><time>2026-04-11T08:59:45.938Z</time></trkpt><trkpt lat="45.3854145" lon="11.5136291"><ele>36.0</ele><time>2026-04-11T08:59:46.938Z</time></trkpt><trkpt lat="45.385481" lon="11.513496"><ele>36.0</ele><time>2026-04-11T08:59:47.938Z</time></trkpt><trkpt lat="45.3855347" lon="11.5133963"><ele>36.0</ele><time>2026-04-11T08:59:48.938Z</time></trkpt><trkpt lat="45.3855777" lon="11.51324"><ele>36.0</ele><time>2026-04-11T08:59:50.938Z</time></trkpt><trkpt lat="45.3855267" lon="11.5131151"><ele>36.0</ele><time>2026-04-11T08:59:52.938Z</time></trkpt><trkpt lat="45.3854565" lon="11.51315"><ele>36.0</ele><time>2026-04-11T08:59:53.938Z</time></trkpt><trkpt lat="45.3854023" lon="11.5132102"><ele>43.5</ele><time>2026-04-11T08:59:54.938Z</time></trkpt><trkpt lat="45.3853664" lon="11.5133779"><ele>51.0</ele><time>2026-04-11T08:59:55.938Z</time></trkpt><trkpt lat="45.3853149" lon="11.5134981"><ele>58.5</ele><time>2026-04-11T08:59:56.938Z</time></trkpt><trkpt lat="45.3852429" lon="11.5136132"><ele>66.0</ele><time>2026-04-11T08:59:57.938Z</time></trkpt><trkpt lat="45.3851442" lon="11.5137126"><ele>60.0</ele><time>2026-04-11T08:59:58.938Z</time></trkpt><trkpt lat="45.3850349" lon="11.5137747"><ele>53.99999999999999</ele><time>2026-04-11T08:59:59.938Z</time></trkpt><trkpt lat="45.384915" lon="11.5138374"><ele>48.0</ele><time>2026-04-11T09:00:00.938Z</time></trkpt><trkpt lat="45.3848224" lon="11.5139203"><ele>42.0</ele><time>2026-04-11T09:00:01.938Z</time></trkpt><trkpt lat="45.3847641" lon="11.513994"><ele>36.0</ele><time>2026-04-11T09:00:02.938Z</time></trkpt><trkpt lat="45.3847111" lon="11.5140665"><ele>36.0</ele><time>2026-04-11T09:00:03.938Z</time></trkpt><trkpt lat="45.3846245" lon="11.5140586"><ele>36.0</ele><time>2026-04-11T09:00:05.938Z</time></trkpt><trkpt lat="45.3846071" lon="11.5139412"><ele>36.0</ele><time>2026-04-11T09:00:07.938Z</time></trkpt><trkpt lat="45.384729" lon="11.5137849"><ele>36.0</ele><time>2026-04-11T09:00:09.938Z</time></trkpt><trkpt lat="45.3848399" lon="11.5137273"><ele>43.5</ele><time>2026-04-11T09:00:10.938Z</time></trkpt><trkpt lat="45.3849579" lon="11.5136517"><ele>51.0</ele><time>2026-04-11T09:00:11.938Z</time></trkpt><trkpt lat="45.3850484" lon="11.5135622"><ele>58.5</ele><time>2026-04-11T09:00:12.938Z</time></trkpt><trkpt lat="45.385132" lon="11.5134662"><ele>66.0</ele><time>2026-04-11T09:00:13.938Z</time></trkpt><trkpt lat="45.3852112" lon="11.5132657"><ele>66.0</ele><time>2026-04-11T09:00:14.938Z</time></trkpt><trkpt lat="45.3852898" lon="11.5130317"><ele>66.0</ele><time>2026-04-11T09:00:15.938Z</time></trkpt><trkpt lat="45.3854054" lon="11.5128403"><ele>66.0</ele><time>2026-04-11T09:00:16.938Z</time></trkpt><trkpt lat="45.3855206" lon="11.5126245"><ele>65.33333333333333</ele><time>2026-04-11T09:00:17.938Z</time></trkpt><trkpt lat="45.3856936" lon="11.5124524"><ele>64.66666666666666</ele><time>2026-04-11T09:00:18.937Z</time></trkpt><trkpt lat="45.3858315" lon="11.512292"><ele>64.0</ele><time>2026-04-11T09:00:19.938Z</time></trkpt><trkpt lat="45.3860029" lon="11.5121677"><ele>75.5</ele><time>2026-04-11T09:00:20.938Z</time></trkpt><trkpt lat="45.3862221" lon="11.5120226"><ele>87.0</ele><time>2026-04-11T09:00:21.938Z</time></trkpt><trkpt lat="45.3864701" lon="11.5118869"><ele>87.0</ele><time>2026-04-11T09:00:22.938Z</time></trkpt><trkpt lat="45.3867231" lon="11.5117447"><ele>87.0</ele><time>2026-04-11T09:00:23.938Z</time></trkpt><trkpt lat="45.3869639" lon="11.511603"><ele>84.66666666666667</ele><time>2026-04-11T09:00:24.937Z</time></trkpt><trkpt lat="45.3871934" lon="11.5114923"><ele>82.33333333333334</ele><time>2026-04-11T09:00:25.938Z</time></trkpt><trkpt lat="45.387371" lon="11.5113855"><ele>80.0</ele><time>2026-04-11T09:00:26.938Z</time></trkpt><trkpt lat="45.3875442" lon="11.5114709"><ele>80.0</ele><time>2026-04-11T09:00:28.937Z</time></trkpt><trkpt lat="45.3876881" lon="11.511538"><ele>80.0</ele><time>2026-04-11T09:00:29.938Z</time></trkpt><trkpt lat="45.3878159" lon="11.5115745"><ele>80.0</ele><time>2026-04-11T09:00:30.938Z</time></trkpt><trkpt lat="45.3879382" lon="11.5115701"><ele>80.0</ele><time>2026-04-11T09:00:31.938Z</time></trkpt><trkpt lat="45.3880803" lon="11.5115228"><ele>80.66666666666667</ele><time>2026-04-11T09:00:32.938Z</time></trkpt><trkpt lat="45.3882118" lon="11.5114689"><ele>81.33333333333333</ele><time>2026-04-11T09:00:33.938Z</time></trkpt><trkpt lat="45.3883648" lon="11.5113835"><ele>82.0</ele><time>2026-04-11T09:00:34.938Z</time></trkpt><trkpt lat="45.3886453" lon="11.5112056"><ele>96.5</ele><time>2026-04-11T09:00:35.938Z</time></trkpt><trkpt lat="45.3888591" lon="11.5110574"><ele>111.0</ele><time>2026-04-11T09:00:36.938Z</time></trkpt><trkpt lat="45.3890556" lon="11.5108975"><ele>111.0</ele><time>2026-04-11T09:00:37.938Z</time></trkpt><trkpt lat="45.3892612" lon="11.5108179"><ele>111.0</ele><time>2026-04-11T09:00:38.938Z</time></trkpt><trkpt lat="45.3894605" lon="11.5107458"><ele>111.0</ele><time>2026-04-11T09:00:39.938Z</time></trkpt><trkpt lat="45.3896011" lon="11.510695"><ele>112.66666666666666</ele><time>2026-04-11T09:00:40.938Z</time></trkpt><trkpt lat="45.3897624" lon="11.5106501"><ele>114.33333333333333</ele><time>2026-04-11T09:00:41.938Z</time></trkpt><trkpt lat="45.3899316" lon="11.5106198"><ele>116.0</ele><time>2026-04-11T09:00:42.938Z</time></trkpt><trkpt lat="45.3901085" lon="11.5106342"><ele>116.0</ele><time>2026-04-11T09:00:43.938Z</time></trkpt><trkpt lat="45.3903025" lon="11.5106657"><ele>116.0</ele><time>2026-04-11T09:00:44.938Z</time></trkpt><trkpt lat="45.3905115" lon="11.5107447"><ele>116.0</ele><time>2026-04-11T09:00:45.938Z</time></trkpt><trkpt lat="45.3906676" lon="11.5108286"><ele>115.75</ele><time>2026-04-11T09:00:46.938Z</time></trkpt><trkpt lat="45.3907849" lon="11.510926"><ele>115.5</ele><time>2026-04-11T09:00:47.938Z</time></trkpt><trkpt lat="45.3908932" lon="11.5110601"><ele>115.25</ele><time>2026-04-11T09:00:48.938Z</time></trkpt><trkpt lat="45.3910036" lon="11.5112295"><ele>115.0</ele><time>2026-04-11T09:00:49.938Z</time></trkpt><trkpt lat="45.391101" lon="11.5114002"><ele>115.0</ele><time>2026-04-11T09:00:50.938Z</time></trkpt><trkpt lat="45.3911871" lon="11.5115949"><ele>115.0</ele><time>2026-04-11T09:00:51.938Z</time></trkpt><trkpt lat="45.3912401" lon="11.5117801"><ele>115.0</ele><time>2026-04-11T09:00:52.938Z</time></trkpt><trkpt lat="45.3912793" lon="11.5119438"><ele>115.0</ele><time>2026-04-11T09:00:53.938Z</time></trkpt><trkpt lat="45.3912937" lon="11.5120659"><ele>112.16666666666667</ele><time>2026-04-11T09:00:54.938Z</time></trkpt><trkpt lat="45.391318" lon="11.5121523"><ele>109.33333333333334</ele><time>2026-04-11T09:00:55.937Z</time></trkpt><trkpt lat="45.3914093" lon="11.5122075"><ele>106.5</ele><time>2026-04-11T09:00:57.938Z</time></trkpt><trkpt lat="45.3914958" lon="11.5121852"><ele>103.66666666666666</ele><time>2026-04-11T09:00:59.938Z</time></trkpt><trkpt lat="45.3914814" lon="11.5120654"><ele>100.83333333333333</ele><time>2026-04-11T09:01:00.938Z</time></trkpt><trkpt lat="45.3914477" lon="11.5119673"><ele>98.0</ele><time>2026-04-11T09:01:01.938Z</time></trkpt><trkpt lat="45.3914108" lon="11.5118731"><ele>100.42857142857143</ele><time>2026-04-11T09:01:02.938Z</time></trkpt><trkpt lat="45.391391" lon="11.5117737"><ele>102.85714285714286</ele><time>2026-04-11T09:01:03.938Z</time></trkpt><trkpt lat="45.391369" lon="11.511682"><ele>105.28571428571428</ele><time>2026-04-11T09:01:04.938Z</time></trkpt><trkpt lat="45.3913446" lon="11.51159"><ele>107.71428571428571</ele><time>2026-04-11T09:01:05.938Z</time></trkpt><trkpt lat="45.391325" lon="11.5114935"><ele>110.14285714285714</ele><time>2026-04-11T09:01:06.938Z</time></trkpt><trkpt lat="45.3913008" lon="11.5114054"><ele>112.57142857142856</ele><time>2026-04-11T09:01:07.938Z</time></trkpt><trkpt lat="45.3912859" lon="11.5113023"><ele>114.99999999999999</ele><time>2026-04-11T09:01:08.938Z</time></trkpt><trkpt lat="45.3912632" lon="11.511216"><ele>119.0</ele><time>2026-04-11T09:01:09.938Z</time></trkpt><trkpt lat="45.3912395" lon="11.5111283"><ele>123.0</ele><time>2026-04-11T09:01:10.938Z</time></trkpt><trkpt lat="45.3912145" lon="11.5110378"><ele>127.0</ele><time>2026-04-11T09:01:11.938Z</time></trkpt><trkpt lat="45.3911673" lon="11.5108743"><ele>131.0</ele><time>2026-04-11T09:01:13.938Z</time></trkpt><trkpt lat="45.3911119" lon="11.5107198"><ele>135.0</ele><time>2026-04-11T09:01:15.938Z</time></trkpt><trkpt lat="45.3910608" lon="11.5105511"><ele>135.0</ele><time>2026-04-11T09:01:17.938Z</time></trkpt><trkpt lat="45.3910457" lon="11.510458"><ele>135.0</ele><time>2026-04-11T09:01:18.937Z</time></trkpt><trkpt lat="45.3911127" lon="11.5103182"><ele>135.0</ele><time>2026-04-11T09:01:20.938Z</time></trkpt><trkpt lat="45.3912199" lon="11.5102665"><ele>135.0</ele><time>2026-04-11T09:01:22.938Z</time></trkpt><trkpt lat="45.3913171" lon="11.5102832"><ele>135.0</ele><time>2026-04-11T09:01:23.938Z</time></trkpt><trkpt lat="45.3914163" lon="11.510281"><ele>136.5</ele><time>2026-04-11T09:01:24.938Z</time></trkpt><trkpt lat="45.3915185" lon="11.5102624"><ele>138.0</ele><time>2026-04-11T09:01:25.938Z</time></trkpt><trkpt lat="45.3916225" lon="11.51022"><ele>139.5</ele><time>2026-04-11T09:01:26.938Z</time></trkpt><trkpt lat="45.3917383" lon="11.5101664"><ele>141.0</ele><time>2026-04-11T09:01:27.938Z</time></trkpt><trkpt lat="45.3918668" lon="11.5101061"><ele>141.0</ele><time>2026-04-11T09:01:28.938Z</time></trkpt><trkpt lat="45.3919985" lon="11.5100268"><ele>141.0</ele><time>2026-04-11T09:01:29.938Z</time></trkpt><trkpt lat="45.3921308" lon="11.5099427"><ele>141.0</ele><time>2026-04-11T09:01:30.938Z</time></trkpt><trkpt lat="45.3922667" lon="11.509844"><ele>141.0</ele><time>2026-04-11T09:01:31.938Z</time></trkpt><trkpt lat="45.3923972" lon="11.509754"><ele>141.75</ele><time>2026-04-11T09:01:32.938Z</time></trkpt><trkpt lat="45.392532" lon="11.5096527"><ele>142.5</ele><time>2026-04-11T09:01:33.938Z</time></trkpt><trkpt lat="45.3926625" lon="11.5095519"><ele>143.25</ele><time>2026-04-11T09:01:34.938Z</time></trkpt><trkpt lat="45.392782" lon="11.5094576"><ele>144.0</ele><time>2026-04-11T09:01:35.938Z</time></trkpt><trkpt lat="45.3928929" lon="11.5093675"><ele>144.0</ele><time>2026-04-11T09:01:36.937Z</time></trkpt><trkpt lat="45.3929872" lon="11.5092902"><ele>144.0</ele><time>2026-04-11T09:01:37.938Z</time></trkpt><trkpt lat="45.3930713" lon="11.5092189"><ele>144.0</ele><time>2026-04-11T09:01:38.938Z</time></trkpt><trkpt lat="45.3931668" lon="11.5091404"><ele>144.0</ele><time>2026-04-11T09:01:39.938Z</time></trkpt><trkpt lat="45.3932767" lon="11.5090545"><ele>144.0</ele><time>2026-04-11T09:01:40.938Z</time></trkpt><trkpt lat="45.3933921" lon="11.5089442"><ele>143.66666666666666</ele><time>2026-04-11T09:01:41.938Z</time></trkpt><trkpt lat="45.3935125" lon="11.5088268"><ele>143.33333333333331</ele><time>2026-04-11T09:01:42.938Z</time></trkpt><trkpt lat="45.3936333" lon="11.5086957"><ele>143.0</ele><time>2026-04-11T09:01:43.938Z</time></trkpt><trkpt lat="45.3937637" lon="11.5085423"><ele>142.33333333333331</ele><time>2026-04-11T09:01:44.938Z</time></trkpt><trkpt lat="45.3938989" lon="11.5083745"><ele>141.66666666666666</ele><time>2026-04-11T09:01:45.938Z</time></trkpt><trkpt lat="45.3940504" lon="11.5082125"><ele>141.0</ele><time>2026-04-11T09:01:46.938Z</time></trkpt><trkpt lat="45.3942018" lon="11.5080354"><ele>141.33333333333334</ele><time>2026-04-11T09:01:47.938Z</time></trkpt><trkpt lat="45.3943535" lon="11.5078424"><ele>141.66666666666669</ele><time>2026-04-11T09:01:48.938Z</time></trkpt><trkpt lat="45.3945108" lon="11.5076465"><ele>142.0</ele><time>2026-04-11T09:01:49.938Z</time></trkpt><trkpt lat="45.3946757" lon="11.5074446"><ele>142.0</ele><time>2026-04-11T09:01:50.938Z</time></trkpt><trkpt lat="45.3948415" lon="11.5072452"><ele>142.0</ele><time>2026-04-11T09:01:51.938Z</time></trkpt><trkpt lat="45.3950048" lon="11.5070418"><ele>142.0</ele><time>2026-04-11T09:01:52.938Z</time></trkpt><trkpt lat="45.3951707" lon="11.5068355"><ele>142.5</ele><time>2026-04-11T09:01:53.938Z</time></trkpt><trkpt lat="45.3953417" lon="11.5066265"><ele>143.0</ele><time>2026-04-11T09:01:54.938Z</time></trkpt><trkpt lat="45.3955183" lon="11.5064129"><ele>144.5</ele><time>2026-04-11T09:01:55.938Z</time></trkpt><trkpt lat="45.395685" lon="11.5062076"><ele>146.0</ele><time>2026-04-11T09:01:56.938Z</time></trkpt><trkpt lat="45.3958566" lon="11.5059873"><ele>146.0</ele><time>2026-04-11T09:01:57.938Z</time></trkpt><trkpt lat="45.3960227" lon="11.5057739"><ele>146.0</ele><time>2026-04-11T09:01:58.938Z</time></trkpt><trkpt lat="45.3961954" lon="11.5055538"><ele>147.0</ele><time>2026-04-11T09:01:59.938Z</time></trkpt><trkpt lat="45.3963673" lon="11.505345"><ele>148.0</ele><time>2026-04-11T09:02:00.938Z</time></trkpt><trkpt lat="45.3965438" lon="11.5051327"><ele>148.0</ele><time>2026-04-11T09:02:01.938Z</time></trkpt><trkpt lat="45.3967105" lon="11.5049316"><ele>148.0</ele><time>2026-04-11T09:02:02.938Z</time></trkpt><trkpt lat="45.3968884" lon="11.5047306"><ele>148.0</ele><time>2026-04-11T09:02:03.938Z</time></trkpt><trkpt lat="45.3970628" lon="11.5045434"><ele>149.66666666666669</ele><time>2026-04-11T09:02:04.938Z</time></trkpt><trkpt lat="45.3972601" lon="11.5043977"><ele>151.33333333333334</ele><time>2026-04-11T09:02:05.938Z</time></trkpt><trkpt lat="45.3974445" lon="11.50425"><ele>153.0</ele><time>2026-04-11T09:02:06.938Z</time></trkpt><trkpt lat="45.3976382" lon="11.504099"><ele>153.0</ele><time>2026-04-11T09:02:07.938Z</time></trkpt><trkpt lat="45.3978063" lon="11.5039711"><ele>153.0</ele><time>2026-04-11T09:02:08.938Z</time></trkpt><trkpt lat="45.3979643" lon="11.5038719"><ele>153.0</ele><time>2026-04-11T09:02:09.938Z</time></trkpt><trkpt lat="45.3981465" lon="11.5038058"><ele>154.66666666666666</ele><time>2026-04-11T09:02:10.938Z</time></trkpt><trkpt lat="45.3983371" lon="11.5037682"><ele>156.33333333333331</ele><time>2026-04-11T09:02:11.938Z</time></trkpt><trkpt lat="45.3985323" lon="11.5037685"><ele>158.0</ele><time>2026-04-11T09:02:12.937Z</time></trkpt><trkpt lat="45.3987356" lon="11.5037951"><ele>160.33333333333331</ele><time>2026-04-11T09:02:13.938Z</time></trkpt><trkpt lat="45.3989371" lon="11.5038142"><ele>162.66666666666666</ele><time>2026-04-11T09:02:14.938Z</time></trkpt><trkpt lat="45.3991405" lon="11.5037992"><ele>165.0</ele><time>2026-04-11T09:02:15.937Z</time></trkpt><trkpt lat="45.3993476" lon="11.5037568"><ele>165.0</ele><time>2026-04-11T09:02:16.938Z</time></trkpt><trkpt lat="45.3995495" lon="11.5036787"><ele>165.0</ele><time>2026-04-11T09:02:17.938Z</time></trkpt><trkpt lat="45.399744" lon="11.5035671"><ele>165.0</ele><time>2026-04-11T09:02:18.938Z</time></trkpt><trkpt lat="45.3999351" lon="11.5034299"><ele>165.0</ele><time>2026-04-11T09:02:19.938Z</time></trkpt><trkpt lat="45.4001227" lon="11.5032872"><ele>165.0</ele><time>2026-04-11T09:02:20.938Z</time></trkpt><trkpt lat="45.400312" lon="11.5031487"><ele>165.0</ele><time>2026-04-11T09:02:21.938Z</time></trkpt><trkpt lat="45.4004995" lon="11.502998"><ele>165.66666666666666</ele><time>2026-04-11T09:02:22.938Z</time></trkpt><trkpt lat="45.4006718" lon="11.5028624"><ele>166.33333333333331</ele><time>2026-04-11T09:02:23.937Z</time></trkpt><trkpt lat="45.4008188" lon="11.5027412"><ele>167.0</ele><time>2026-04-11T09:02:24.938Z</time></trkpt><trkpt lat="45.400948" lon="11.502642"><ele>167.0</ele><time>2026-04-11T09:02:25.938Z</time></trkpt><trkpt lat="45.4010691" lon="11.5025224"><ele>167.0</ele><time>2026-04-11T09:02:26.938Z</time></trkpt><trkpt lat="45.401172" lon="11.5023564"><ele>167.0</ele><time>2026-04-11T09:02:27.938Z</time></trkpt><trkpt lat="45.4012676" lon="11.5021678"><ele>167.33333333333331</ele><time>2026-04-11T09:02:28.938Z</time></trkpt><trkpt lat="45.4013537" lon="11.5019315"><ele>167.66666666666666</ele><time>2026-04-11T09:02:29.937Z</time></trkpt><trkpt lat="45.4014664" lon="11.5017068"><ele>168.0</ele><time>2026-04-11T09:02:30.938Z</time></trkpt><trkpt lat="45.4015963" lon="11.5014894"><ele>168.0</ele><time>2026-04-11T09:02:31.938Z</time></trkpt><trkpt lat="45.401741" lon="11.5012852"><ele>168.0</ele><time>2026-04-11T09:02:32.938Z</time></trkpt><trkpt lat="45.4019286" lon="11.5010913"><ele>168.0</ele><time>2026-04-11T09:02:33.938Z</time></trkpt><trkpt lat="45.4021368" lon="11.5009144"><ele>166.5</ele><time>2026-04-11T09:02:34.938Z</time></trkpt><trkpt lat="45.4023496" lon="11.5007503"><ele>165.0</ele><time>2026-04-11T09:02:35.937Z</time></trkpt><trkpt lat="45.4025647" lon="11.5005778"><ele>165.0</ele><time>2026-04-11T09:02:36.938Z</time></trkpt><trkpt lat="45.4027738" lon="11.5004164"><ele>165.0</ele><time>2026-04-11T09:02:37.938Z</time></trkpt><trkpt lat="45.402971" lon="11.5002696"><ele>163.0</ele><time>2026-04-11T09:02:38.938Z</time></trkpt><trkpt lat="45.4031735" lon="11.5001123"><ele>161.0</ele><time>2026-04-11T09:02:39.937Z</time></trkpt><trkpt lat="45.4033586" lon="11.5000531"><ele>159.0</ele><time>2026-04-11T09:02:40.938Z</time></trkpt><trkpt lat="45.403568" lon="11.4999987"><ele>159.0</ele><time>2026-04-11T09:02:41.938Z</time></trkpt><trkpt lat="45.4037758" lon="11.4999794"><ele>159.0</ele><time>2026-04-11T09:02:42.938Z</time></trkpt><trkpt lat="45.4039707" lon="11.4999524"><ele>159.0</ele><time>2026-04-11T09:02:43.938Z</time></trkpt><trkpt lat="45.4041488" lon="11.499916"><ele>160.0</ele><time>2026-04-11T09:02:44.937Z</time></trkpt><trkpt lat="45.4043135" lon="11.4998858"><ele>161.0</ele><time>2026-04-11T09:02:45.938Z</time></trkpt><trkpt lat="45.4044712" lon="11.499835"><ele>162.0</ele><time>2026-04-11T09:02:46.938Z</time></trkpt><trkpt lat="45.4046127" lon="11.4997613"><ele>162.75</ele><time>2026-04-11T09:02:47.938Z</time></trkpt><trkpt lat="45.4047564" lon="11.4996747"><ele>163.5</ele><time>2026-04-11T09:02:48.938Z</time></trkpt><trkpt lat="45.4048929" lon="11.4995873"><ele>164.25</ele><time>2026-04-11T09:02:49.938Z</time></trkpt><trkpt lat="45.4050181" lon="11.4994971"><ele>165.0</ele><time>2026-04-11T09:02:50.938Z</time></trkpt><trkpt lat="45.4051275" lon="11.4993964"><ele>163.5</ele><time>2026-04-11T09:02:51.938Z</time></trkpt><trkpt lat="45.405226" lon="11.4992969"><ele>162.0</ele><time>2026-04-11T09:02:52.938Z</time></trkpt><trkpt lat="45.4053284" lon="11.4991853"><ele>160.5</ele><time>2026-04-11T09:02:53.938Z</time></trkpt><trkpt lat="45.4054401" lon="11.4990723"><ele>159.0</ele><time>2026-04-11T09:02:54.938Z</time></trkpt><trkpt lat="45.4055622" lon="11.4989665"><ele>159.0</ele><time>2026-04-11T09:02:55.938Z</time></trkpt><trkpt lat="45.4056844" lon="11.4988512"><ele>159.0</ele><time>2026-04-11T09:02:56.938Z</time></trkpt><trkpt lat="45.4058166" lon="11.498747"><ele>159.0</ele><time>2026-04-11T09:02:57.938Z</time></trkpt><trkpt lat="45.4059449" lon="11.4986353"><ele>159.0</ele><time>2026-04-11T09:02:58.938Z</time></trkpt><trkpt lat="45.4060782" lon="11.4985349"><ele>158.5</ele><time>2026-04-11T09:02:59.938Z</time></trkpt><trkpt lat="45.406214" lon="11.4984394"><ele>158.0</ele><time>2026-04-11T09:03:00.938Z</time></trkpt><trkpt lat="45.4063451" lon="11.4983489"><ele>157.5</ele><time>2026-04-11T09:03:01.938Z</time></trkpt><trkpt lat="45.4064747" lon="11.4982724"><ele>157.0</ele><time>2026-04-11T09:03:02.938Z</time></trkpt><trkpt lat="45.4066024" lon="11.4982126"><ele>157.0</ele><time>2026-04-11T09:03:03.938Z</time></trkpt><trkpt lat="45.4067416" lon="11.4981664"><ele>157.0</ele><time>2026-04-11T09:03:04.938Z</time></trkpt><trkpt lat="45.4068821" lon="11.4981319"><ele>157.0</ele><time>2026-04-11T09:03:05.938Z</time></trkpt><trkpt lat="45.4070216" lon="11.4980978"><ele>157.0</ele><time>2026-04-11T09:03:06.938Z</time></trkpt><trkpt lat="45.4071635" lon="11.4980722"><ele>157.25</ele><time>2026-04-11T09:03:07.938Z</time></trkpt><trkpt lat="45.4073083" lon="11.498048"><ele>157.5</ele><time>2026-04-11T09:03:08.938Z</time></trkpt><trkpt lat="45.4074405" lon="11.4979888"><ele>157.75</ele><time>2026-04-11T09:03:09.938Z</time></trkpt><trkpt lat="45.407561" lon="11.4979185"><ele>158.0</ele><time>2026-04-11T09:03:10.938Z</time></trkpt><trkpt lat="45.4076708" lon="11.4978309"><ele>158.0</ele><time>2026-04-11T09:03:11.938Z</time></trkpt><trkpt lat="45.4077794" lon="11.4977346"><ele>158.0</ele><time>2026-04-11T09:03:12.938Z</time></trkpt><trkpt lat="45.4078864" lon="11.4976244"><ele>158.0</ele><time>2026-04-11T09:03:13.938Z</time></trkpt><trkpt lat="45.4079872" lon="11.4975003"><ele>158.0</ele><time>2026-04-11T09:03:14.938Z</time></trkpt><trkpt lat="45.4080849" lon="11.497358"><ele>158.0</ele><time>2026-04-11T09:03:15.938Z</time></trkpt><trkpt lat="45.4081835" lon="11.4972086"><ele>158.0</ele><time>2026-04-11T09:03:16.938Z</time></trkpt><trkpt lat="45.4082916" lon="11.4970743"><ele>158.0</ele><time>2026-04-11T09:03:17.938Z</time></trkpt><trkpt lat="45.4084258" lon="11.4969597"><ele>158.0</ele><time>2026-04-11T09:03:18.938Z</time></trkpt><trkpt lat="45.4085508" lon="11.496853"><ele>157.75</ele><time>2026-04-11T09:03:19.938Z</time></trkpt><trkpt lat="45.4086591" lon="11.4967356"><ele>157.5</ele><time>2026-04-11T09:03:20.938Z</time></trkpt><trkpt lat="45.4087665" lon="11.4966196"><ele>157.25</ele><time>2026-04-11T09:03:21.938Z</time></trkpt><trkpt lat="45.4088765" lon="11.4965073"><ele>157.0</ele><time>2026-04-11T09:03:22.938Z</time></trkpt><trkpt lat="45.4089946" lon="11.4963887"><ele>157.0</ele><time>2026-04-11T09:03:23.937Z</time></trkpt><trkpt lat="45.409098" lon="11.4962844"><ele>157.0</ele><time>2026-04-11T09:03:24.938Z</time></trkpt><trkpt lat="45.4091925" lon="11.496189"><ele>157.0</ele><time>2026-04-11T09:03:25.937Z</time></trkpt><trkpt lat="45.4093026" lon="11.4960998"><ele>157.0</ele><time>2026-04-11T09:03:26.938Z</time></trkpt><trkpt lat="45.409405" lon="11.4960019"><ele>156.6</ele><time>2026-04-11T09:03:27.937Z</time></trkpt><trkpt lat="45.4095017" lon="11.4959063"><ele>156.2</ele><time>2026-04-11T09:03:28.938Z</time></trkpt><trkpt lat="45.4095818" lon="11.4958184"><ele>155.8</ele><time>2026-04-11T09:03:29.938Z</time></trkpt><trkpt lat="45.4096724" lon="11.495735"><ele>155.4</ele><time>2026-04-11T09:03:30.938Z</time></trkpt><trkpt lat="45.4097639" lon="11.4956506"><ele>155.0</ele><time>2026-04-11T09:03:31.938Z</time></trkpt><trkpt lat="45.4098578" lon="11.4955633"><ele>155.25</ele><time>2026-04-11T09:03:32.938Z</time></trkpt><trkpt lat="45.4099525" lon="11.4954754"><ele>155.5</ele><time>2026-04-11T09:03:33.937Z</time></trkpt><trkpt lat="45.410048" lon="11.4953856"><ele>155.75</ele><time>2026-04-11T09:03:34.938Z</time></trkpt><trkpt lat="45.4101447" lon="11.4952954"><ele>156.0</ele><time>2026-04-11T09:03:35.937Z</time></trkpt><trkpt lat="45.4102532" lon="11.4951924"><ele>156.0</ele><time>2026-04-11T09:03:36.938Z</time></trkpt><trkpt lat="45.4103821" lon="11.4950756"><ele>156.0</ele><time>2026-04-11T09:03:37.937Z</time></trkpt><trkpt lat="45.4105339" lon="11.4949978"><ele>156.0</ele><time>2026-04-11T09:03:38.938Z</time></trkpt><trkpt lat="45.4107654" lon="11.4949011"><ele>157.66666666666666</ele><time>2026-04-11T09:03:39.938Z</time></trkpt><trkpt lat="45.4109735" lon="11.4947797"><ele>159.33333333333331</ele><time>2026-04-11T09:03:40.938Z</time></trkpt><trkpt lat="45.411172" lon="11.4946439"><ele>161.0</ele><time>2026-04-11T09:03:41.938Z</time></trkpt><trkpt lat="45.4113623" lon="11.4945057"><ele>161.33333333333331</ele><time>2026-04-11T09:03:42.938Z</time></trkpt><trkpt lat="45.4115311" lon="11.4944047"><ele>161.66666666666666</ele><time>2026-04-11T09:03:43.938Z</time></trkpt><trkpt lat="45.4116779" lon="11.4943103"><ele>162.0</ele><time>2026-04-11T09:03:44.938Z</time></trkpt><trkpt lat="45.4118239" lon="11.4942059"><ele>162.0</ele><time>2026-04-11T09:03:45.937Z</time></trkpt><trkpt lat="45.4119373" lon="11.4940788"><ele>162.0</ele><time>2026-04-11T09:03:46.938Z</time></trkpt><trkpt lat="45.4120296" lon="11.493959"><ele>162.0</ele><time>2026-04-11T09:03:47.938Z</time></trkpt><trkpt lat="45.4121118" lon="11.4938559"><ele>162.0</ele><time>2026-04-11T09:03:48.938Z</time></trkpt><trkpt lat="45.412187" lon="11.4937371"><ele>161.5</ele><time>2026-04-11T09:03:49.938Z</time></trkpt><trkpt lat="45.412253" lon="11.4936181"><ele>161.0</ele><time>2026-04-11T09:03:50.938Z</time></trkpt><trkpt lat="45.4123113" lon="11.4934916"><ele>160.5</ele><time>2026-04-11T09:03:51.938Z</time></trkpt><trkpt lat="45.4123441" lon="11.4933129"><ele>160.0</ele><time>2026-04-11T09:03:52.938Z</time></trkpt><trkpt lat="45.4123401" lon="11.4930891"><ele>159.66666666666669</ele><time>2026-04-11T09:03:53.938Z</time></trkpt><trkpt lat="45.4123453" lon="11.4928444"><ele>159.33333333333334</ele><time>2026-04-11T09:03:54.938Z</time></trkpt><trkpt lat="45.4123645" lon="11.4925848"><ele>159.0</ele><time>2026-04-11T09:03:55.938Z</time></trkpt><trkpt lat="45.4123988" lon="11.4923733"><ele>159.0</ele><time>2026-04-11T09:03:56.938Z</time></trkpt><trkpt lat="45.412427" lon="11.4921874"><ele>159.0</ele><time>2026-04-11T09:03:57.938Z</time></trkpt><trkpt lat="45.4124817" lon="11.4920329"><ele>159.0</ele><time>2026-04-11T09:03:58.938Z</time></trkpt><trkpt lat="45.4125669" lon="11.4918974"><ele>159.0</ele><time>2026-04-11T09:03:59.938Z</time></trkpt><trkpt lat="45.4126697" lon="11.4917643"><ele>160.33333333333334</ele><time>2026-04-11T09:04:00.938Z</time></trkpt><trkpt lat="45.41279" lon="11.4916384"><ele>161.66666666666669</ele><time>2026-04-11T09:04:01.938Z</time></trkpt><trkpt lat="45.4129109" lon="11.4914785"><ele>163.0</ele><time>2026-04-11T09:04:02.938Z</time></trkpt><trkpt lat="45.4130304" lon="11.4912866"><ele>159.33333333333334</ele><time>2026-04-11T09:04:03.938Z</time></trkpt><trkpt lat="45.413161" lon="11.4910713"><ele>155.66666666666666</ele><time>2026-04-11T09:04:04.938Z</time></trkpt><trkpt lat="45.4132833" lon="11.4908607"><ele>152.0</ele><time>2026-04-11T09:04:05.938Z</time></trkpt><trkpt lat="45.413411" lon="11.4906711"><ele>152.0</ele><time>2026-04-11T09:04:06.938Z</time></trkpt><trkpt lat="45.4135649" lon="11.4904743"><ele>152.0</ele><time>2026-04-11T09:04:07.937Z</time></trkpt><trkpt lat="45.4137394" lon="11.4902933"><ele>152.0</ele><time>2026-04-11T09:04:08.938Z</time></trkpt><trkpt lat="45.4138928" lon="11.4900943"><ele>146.0</ele><time>2026-04-11T09:04:09.938Z</time></trkpt><trkpt lat="45.414018" lon="11.4899057"><ele>140.0</ele><time>2026-04-11T09:04:10.938Z</time></trkpt><trkpt lat="45.4141575" lon="11.4897473"><ele>134.0</ele><time>2026-04-11T09:04:11.938Z</time></trkpt><trkpt lat="45.4143031" lon="11.4896207"><ele>135.33333333333331</ele><time>2026-04-11T09:04:12.938Z</time></trkpt><trkpt lat="45.4144685" lon="11.4895241"><ele>136.66666666666666</ele><time>2026-04-11T09:04:13.937Z</time></trkpt><trkpt lat="45.4146383" lon="11.4894085"><ele>138.0</ele><time>2026-04-11T09:04:14.938Z</time></trkpt><trkpt lat="45.4148311" lon="11.4893506"><ele>138.0</ele><time>2026-04-11T09:04:15.938Z</time></trkpt><trkpt lat="45.4149917" lon="11.4893032"><ele>138.0</ele><time>2026-04-11T09:04:16.938Z</time></trkpt><trkpt lat="45.4151247" lon="11.4892657"><ele>138.0</ele><time>2026-04-11T09:04:17.938Z</time></trkpt><trkpt lat="45.4152386" lon="11.4892205"><ele>138.0</ele><time>2026-04-11T09:04:18.938Z</time></trkpt><trkpt lat="45.4153194" lon="11.4891458"><ele>138.0</ele><time>2026-04-11T09:04:19.938Z</time></trkpt><trkpt lat="45.4153945" lon="11.4890174"><ele>138.0</ele><time>2026-04-11T09:04:20.938Z</time></trkpt><trkpt lat="45.4154883" lon="11.4888519"><ele>138.0</ele><time>2026-04-11T09:04:21.938Z</time></trkpt><trkpt lat="45.4155752" lon="11.4886912"><ele>138.0</ele><time>2026-04-11T09:04:22.938Z</time></trkpt><trkpt lat="45.415653" lon="11.4885563"><ele>136.4</ele><time>2026-04-11T09:04:23.938Z</time></trkpt><trkpt lat="45.4157251" lon="11.4884266"><ele>134.8</ele><time>2026-04-11T09:04:24.938Z</time></trkpt><trkpt lat="45.4157916" lon="11.4883149"><ele>133.2</ele><time>2026-04-11T09:04:25.938Z</time></trkpt><trkpt lat="45.4158559" lon="11.4882038"><ele>131.6</ele><time>2026-04-11T09:04:26.938Z</time></trkpt><trkpt lat="45.4159359" lon="11.4880956"><ele>130.0</ele><time>2026-04-11T09:04:27.938Z</time></trkpt><trkpt lat="45.4160443" lon="11.4879832"><ele>127.66666666666667</ele><time>2026-04-11T09:04:28.938Z</time></trkpt><trkpt lat="45.4161661" lon="11.4878634"><ele>125.33333333333334</ele><time>2026-04-11T09:04:29.938Z</time></trkpt><trkpt lat="45.4162965" lon="11.4877628"><ele>123.0</ele><time>2026-04-11T09:04:30.938Z</time></trkpt><trkpt lat="45.4164408" lon="11.4876833"><ele>123.0</ele><time>2026-04-11T09:04:31.938Z</time></trkpt><trkpt lat="45.4165989" lon="11.4876297"><ele>123.0</ele><time>2026-04-11T09:04:32.938Z</time></trkpt><trkpt lat="45.4167501" lon="11.4875947"><ele>123.0</ele><time>2026-04-11T09:04:33.938Z</time></trkpt><trkpt lat="45.416885" lon="11.4875711"><ele>123.0</ele><time>2026-04-11T09:04:34.938Z</time></trkpt><trkpt lat="45.4170069" lon="11.4875826"><ele>123.0</ele><time>2026-04-11T09:04:35.938Z</time></trkpt><trkpt lat="45.4171162" lon="11.487627"><ele>123.0</ele><time>2026-04-11T09:04:36.938Z</time></trkpt><trkpt lat="45.4172122" lon="11.4877147"><ele>123.0</ele><time>2026-04-11T09:04:37.938Z</time></trkpt><trkpt lat="45.4172916" lon="11.4878481"><ele>117.0</ele><time>2026-04-11T09:04:38.938Z</time></trkpt><trkpt lat="45.4173722" lon="11.4879781"><ele>111.00000000000001</ele><time>2026-04-11T09:04:39.938Z</time></trkpt><trkpt lat="45.4174615" lon="11.4880775"><ele>105.0</ele><time>2026-04-11T09:04:40.938Z</time></trkpt><trkpt lat="45.4175536" lon="11.4881495"><ele>99.0</ele><time>2026-04-11T09:04:41.938Z</time></trkpt><trkpt lat="45.4176508" lon="11.4881816"><ele>93.0</ele><time>2026-04-11T09:04:42.938Z</time></trkpt><trkpt lat="45.4177535" lon="11.4881654"><ele>93.0</ele><time>2026-04-11T09:04:43.938Z</time></trkpt><trkpt lat="45.4178582" lon="11.4881438"><ele>93.0</ele><time>2026-04-11T09:04:44.938Z</time></trkpt><trkpt lat="45.4179726" lon="11.4881048"><ele>93.0</ele><time>2026-04-11T09:04:45.938Z</time></trkpt><trkpt lat="45.4180869" lon="11.4880939"><ele>93.0</ele><time>2026-04-11T09:04:46.938Z</time></trkpt><trkpt lat="45.4181979" lon="11.4881033"><ele>93.0</ele><time>2026-04-11T09:04:47.938Z</time></trkpt><trkpt lat="45.4183012" lon="11.4881365"><ele>92.60000000000001</ele><time>2026-04-11T09:04:48.938Z</time></trkpt><trkpt lat="45.4184038" lon="11.4881606"><ele>92.2</ele><time>2026-04-11T09:04:49.938Z</time></trkpt><trkpt lat="45.4184707" lon="11.4880957"><ele>91.8</ele><time>2026-04-11T09:04:50.938Z</time></trkpt><trkpt lat="45.4185367" lon="11.4879971"><ele>91.4</ele><time>2026-04-11T09:04:51.938Z</time></trkpt><trkpt lat="45.4186194" lon="11.4878417"><ele>91.0</ele><time>2026-04-11T09:04:52.938Z</time></trkpt><trkpt lat="45.418709" lon="11.4876834"><ele>88.75</ele><time>2026-04-11T09:04:53.938Z</time></trkpt><trkpt lat="45.4188085" lon="11.487542"><ele>86.5</ele><time>2026-04-11T09:04:54.938Z</time></trkpt><trkpt lat="45.4189104" lon="11.4874281"><ele>84.25</ele><time>2026-04-11T09:04:55.938Z</time></trkpt><trkpt lat="45.4190312" lon="11.4873476"><ele>82.0</ele><time>2026-04-11T09:04:56.938Z</time></trkpt><trkpt lat="45.4191383" lon="11.4872475"><ele>82.0</ele><time>2026-04-11T09:04:57.938Z</time></trkpt><trkpt lat="45.4192184" lon="11.4871381"><ele>82.0</ele><time>2026-04-11T09:04:58.938Z</time></trkpt><trkpt lat="45.4192879" lon="11.4870053"><ele>82.0</ele><time>2026-04-11T09:04:59.938Z</time></trkpt><trkpt lat="45.419365" lon="11.4868758"><ele>82.0</ele><time>2026-04-11T09:05:00.938Z</time></trkpt><trkpt lat="45.4194089" lon="11.4866708"><ele>87.0</ele><time>2026-04-11T09:05:01.938Z</time></trkpt><trkpt lat="45.4195282" lon="11.4863329"><ele>92.0</ele><time>2026-04-11T09:05:02.938Z</time></trkpt><trkpt lat="45.4196659" lon="11.4860208"><ele>80.5</ele><time>2026-04-11T09:05:03.938Z</time></trkpt><trkpt lat="45.4198028" lon="11.4857134"><ele>69.0</ele><time>2026-04-11T09:05:04.938Z</time></trkpt><trkpt lat="45.4199225" lon="11.4854471"><ele>70.33333333333333</ele><time>2026-04-11T09:05:05.938Z</time></trkpt><trkpt lat="45.4200305" lon="11.4852305"><ele>71.66666666666666</ele><time>2026-04-11T09:05:06.938Z</time></trkpt><trkpt lat="45.420135" lon="11.485039"><ele>73.0</ele><time>2026-04-11T09:05:07.938Z</time></trkpt><trkpt lat="45.4202249" lon="11.4848704"><ele>73.0</ele><time>2026-04-11T09:05:08.938Z</time></trkpt><trkpt lat="45.4203008" lon="11.484686"><ele>73.0</ele><time>2026-04-11T09:05:09.938Z</time></trkpt><trkpt lat="45.4203354" lon="11.4844612"><ele>73.0</ele><time>2026-04-11T09:05:10.938Z</time></trkpt><trkpt lat="45.4203571" lon="11.4842317"><ele>74.33333333333333</ele><time>2026-04-11T09:05:11.938Z</time></trkpt><trkpt lat="45.4203858" lon="11.4840078"><ele>75.66666666666667</ele><time>2026-04-11T09:05:12.938Z</time></trkpt><trkpt lat="45.4204143" lon="11.4837914"><ele>77.0</ele><time>2026-04-11T09:05:13.938Z</time></trkpt><trkpt lat="45.4204475" lon="11.4835627"><ele>71.66666666666667</ele><time>2026-04-11T09:05:14.937Z</time></trkpt><trkpt lat="45.4204851" lon="11.4833411"><ele>66.33333333333333</ele><time>2026-04-11T09:05:15.938Z</time></trkpt><trkpt lat="45.4205302" lon="11.4831284"><ele>61.0</ele><time>2026-04-11T09:05:16.937Z</time></trkpt><trkpt lat="45.4205706" lon="11.4829224"><ele>61.0</ele><time>2026-04-11T09:05:17.938Z</time></trkpt><trkpt lat="45.420602" lon="11.4827091"><ele>61.0</ele><time>2026-04-11T09:05:18.938Z</time></trkpt><trkpt lat="45.420646" lon="11.4825097"><ele>61.0</ele><time>2026-04-11T09:05:19.938Z</time></trkpt><trkpt lat="45.4207009" lon="11.4823235"><ele>61.0</ele><time>2026-04-11T09:05:20.938Z</time></trkpt><trkpt lat="45.420775" lon="11.482145"><ele>62.5</ele><time>2026-04-11T09:05:21.937Z</time></trkpt><trkpt lat="45.420848" lon="11.4819875"><ele>64.0</ele><time>2026-04-11T09:05:22.937Z</time></trkpt><trkpt lat="45.4209629" lon="11.4818368"><ele>65.5</ele><time>2026-04-11T09:05:23.938Z</time></trkpt><trkpt lat="45.421083" lon="11.4816882"><ele>67.0</ele><time>2026-04-11T09:05:24.938Z</time></trkpt><trkpt lat="45.4211938" lon="11.4815264"><ele>67.0</ele><time>2026-04-11T09:05:25.938Z</time></trkpt><trkpt lat="45.4213033" lon="11.4813098"><ele>67.0</ele><time>2026-04-11T09:05:26.938Z</time></trkpt><trkpt lat="45.4214219" lon="11.4810598"><ele>67.0</ele><time>2026-04-11T09:05:27.937Z</time></trkpt><trkpt lat="45.4215632" lon="11.4807954"><ele>64.0</ele><time>2026-04-11T09:05:28.938Z</time></trkpt><trkpt lat="45.4217331" lon="11.4805362"><ele>61.0</ele><time>2026-04-11T09:05:29.938Z</time></trkpt><trkpt lat="45.4219206" lon="11.4802975"><ele>58.0</ele><time>2026-04-11T09:05:30.938Z</time></trkpt><trkpt lat="45.4221276" lon="11.4800668"><ele>55.0</ele><time>2026-04-11T09:05:31.938Z</time></trkpt><trkpt lat="45.4223324" lon="11.4798267"><ele>55.0</ele><time>2026-04-11T09:05:32.938Z</time></trkpt><trkpt lat="45.4225386" lon="11.4796076"><ele>55.0</ele><time>2026-04-11T09:05:33.938Z</time></trkpt><trkpt lat="45.4227249" lon="11.4793814"><ele>55.0</ele><time>2026-04-11T09:05:34.938Z</time></trkpt><trkpt lat="45.4228937" lon="11.4791699"><ele>55.0</ele><time>2026-04-11T09:05:35.938Z</time></trkpt><trkpt lat="45.4230559" lon="11.4789578"><ele>55.0</ele><time>2026-04-11T09:05:36.938Z</time></trkpt><trkpt lat="45.4232068" lon="11.4787635"><ele>55.0</ele><time>2026-04-11T09:05:37.938Z</time></trkpt><trkpt lat="45.4233469" lon="11.4785761"><ele>55.0</ele><time>2026-04-11T09:05:38.938Z</time></trkpt><trkpt lat="45.423477" lon="11.4783996"><ele>55.0</ele><time>2026-04-11T09:05:39.938Z</time></trkpt><trkpt lat="45.4236024" lon="11.4782325"><ele>55.0</ele><time>2026-04-11T09:05:40.938Z</time></trkpt><trkpt lat="45.4237145" lon="11.4780755"><ele>55.0</ele><time>2026-04-11T09:05:41.937Z</time></trkpt><trkpt lat="45.4238221" lon="11.4779271"><ele>55.0</ele><time>2026-04-11T09:05:42.938Z</time></trkpt><trkpt lat="45.4239252" lon="11.4777876"><ele>55.0</ele><time>2026-04-11T09:05:43.938Z</time></trkpt><trkpt lat="45.424012" lon="11.4776444"><ele>54.0</ele><time>2026-04-11T09:05:44.938Z</time></trkpt><trkpt lat="45.4240792" lon="11.4774973"><ele>53.0</ele><time>2026-04-11T09:05:45.938Z</time></trkpt><trkpt lat="45.4241238" lon="11.4773391"><ele>52.0</ele><time>2026-04-11T09:05:46.937Z</time></trkpt><trkpt lat="45.4241681" lon="11.4771688"><ele>51.0</ele><time>2026-04-11T09:05:47.938Z</time></trkpt><trkpt lat="45.4241965" lon="11.4769782"><ele>51.0</ele><time>2026-04-11T09:05:48.938Z</time></trkpt><trkpt lat="45.4242088" lon="11.4767714"><ele>51.0</ele><time>2026-04-11T09:05:49.938Z</time></trkpt><trkpt lat="45.4242241" lon="11.4765748"><ele>51.0</ele><time>2026-04-11T09:05:50.938Z</time></trkpt><trkpt lat="45.4242473" lon="11.4763754"><ele>51.0</ele><time>2026-04-11T09:05:51.938Z</time></trkpt><trkpt lat="45.4242855" lon="11.4761928"><ele>49.4</ele><time>2026-04-11T09:05:52.938Z</time></trkpt><trkpt lat="45.4243366" lon="11.4760254"><ele>47.8</ele><time>2026-04-11T09:05:53.938Z</time></trkpt><trkpt lat="45.4243956" lon="11.4758802"><ele>46.199999999999996</ele><time>2026-04-11T09:05:54.938Z</time></trkpt><trkpt lat="45.4244548" lon="11.4757498"><ele>44.599999999999994</ele><time>2026-04-11T09:05:55.938Z</time></trkpt><trkpt lat="45.4245018" lon="11.4756398"><ele>43.0</ele><time>2026-04-11T09:05:56.938Z</time></trkpt><trkpt lat="45.4245406" lon="11.4755557"><ele>43.0</ele><time>2026-04-11T09:05:57.938Z</time></trkpt><trkpt lat="45.4246318" lon="11.4754996"><ele>43.0</ele><time>2026-04-11T09:05:59.938Z</time></trkpt><trkpt lat="45.4246897" lon="11.4755591"><ele>43.0</ele><time>2026-04-11T09:06:01.938Z</time></trkpt><trkpt lat="45.4247085" lon="11.4756738"><ele>43.0</ele><time>2026-04-11T09:06:03.938Z</time></trkpt><trkpt lat="45.4247334" lon="11.4758189"><ele>43.0</ele><time>2026-04-11T09:06:05.938Z</time></trkpt><trkpt lat="45.4247579" lon="11.4759679"><ele>42.8</ele><time>2026-04-11T09:06:07.938Z</time></trkpt><trkpt lat="45.4247794" lon="11.4760592"><ele>42.599999999999994</ele><time>2026-04-11T09:06:08.937Z</time></trkpt><trkpt lat="45.4247976" lon="11.47616"><ele>42.400000000000006</ele><time>2026-04-11T09:06:09.938Z</time></trkpt><trkpt lat="45.424831" lon="11.4762977"><ele>42.2</ele><time>2026-04-11T09:06:10.938Z</time></trkpt><trkpt lat="45.4248898" lon="11.4764389"><ele>42.0</ele><time>2026-04-11T09:06:11.938Z</time></trkpt><trkpt lat="45.424974" lon="11.4766117"><ele>42.0</ele><time>2026-04-11T09:06:12.938Z</time></trkpt><trkpt lat="45.4251437" lon="11.4767948"><ele>42.0</ele><time>2026-04-11T09:06:13.938Z</time></trkpt><trkpt lat="45.42532" lon="11.4769994"><ele>42.0</ele><time>2026-04-11T09:06:14.938Z</time></trkpt><trkpt lat="45.4255055" lon="11.4772005"><ele>44.0</ele><time>2026-04-11T09:06:15.938Z</time></trkpt><trkpt lat="45.4256649" lon="11.4773776"><ele>46.0</ele><time>2026-04-11T09:06:16.938Z</time></trkpt><trkpt lat="45.4258161" lon="11.4775277"><ele>48.0</ele><time>2026-04-11T09:06:17.938Z</time></trkpt><trkpt lat="45.4259547" lon="11.4776264"><ele>48.0</ele><time>2026-04-11T09:06:18.938Z</time></trkpt><trkpt lat="45.4261153" lon="11.4776712"><ele>48.0</ele><time>2026-04-11T09:06:19.938Z</time></trkpt><trkpt lat="45.4263204" lon="11.4777156"><ele>48.0</ele><time>2026-04-11T09:06:20.938Z</time></trkpt><trkpt lat="45.4264522" lon="11.4776911"><ele>49.333333333333336</ele><time>2026-04-11T09:06:21.938Z</time></trkpt><trkpt lat="45.4265358" lon="11.4776669"><ele>50.66666666666667</ele><time>2026-04-11T09:06:22.938Z</time></trkpt><trkpt lat="45.4266323" lon="11.4776742"><ele>52.0</ele><time>2026-04-11T09:06:24.938Z</time></trkpt><trkpt lat="45.4266187" lon="11.4777618"><ele>53.333333333333336</ele><time>2026-04-11T09:06:25.938Z</time></trkpt><trkpt lat="45.4265488" lon="11.4778523"><ele>54.66666666666667</ele><time>2026-04-11T09:06:27.938Z</time></trkpt><trkpt lat="45.4264426" lon="11.4778497"><ele>56.0</ele><time>2026-04-11T09:06:28.938Z</time></trkpt><trkpt lat="45.4263302" lon="11.4778907"><ele>57.25</ele><time>2026-04-11T09:06:29.938Z</time></trkpt><trkpt lat="45.4262041" lon="11.4779682"><ele>58.5</ele><time>2026-04-11T09:06:30.938Z</time></trkpt><trkpt lat="45.4261107" lon="11.4780493"><ele>59.75</ele><time>2026-04-11T09:06:31.938Z</time></trkpt><trkpt lat="45.426027" lon="11.4781519"><ele>61.0</ele><time>2026-04-11T09:06:32.938Z</time></trkpt><trkpt lat="45.4259916" lon="11.4783167"><ele>61.0</ele><time>2026-04-11T09:06:33.938Z</time></trkpt><trkpt lat="45.4259892" lon="11.4785155"><ele>61.0</ele><time>2026-04-11T09:06:34.938Z</time></trkpt><trkpt lat="45.4260026" lon="11.4787738"><ele>61.0</ele><time>2026-04-11T09:06:35.938Z</time></trkpt><trkpt lat="45.42605" lon="11.4790375"><ele>63.666666666666664</ele><time>2026-04-11T09:06:36.938Z</time></trkpt><trkpt lat="45.4260878" lon="11.4792707"><ele>66.33333333333333</ele><time>2026-04-11T09:06:37.938Z</time></trkpt><trkpt lat="45.4260948" lon="11.4794791"><ele>69.0</ele><time>2026-04-11T09:06:38.938Z</time></trkpt><trkpt lat="45.4261119" lon="11.4796874"><ele>72.0</ele><time>2026-04-11T09:06:39.938Z</time></trkpt><trkpt lat="45.4261031" lon="11.4799004"><ele>75.0</ele><time>2026-04-11T09:06:40.938Z</time></trkpt><trkpt lat="45.4260954" lon="11.4800978"><ele>78.0</ele><time>2026-04-11T09:06:41.938Z</time></trkpt><trkpt lat="45.4260842" lon="11.4802084"><ele>81.0</ele><time>2026-04-11T09:06:42.938Z</time></trkpt><trkpt lat="45.4260421" lon="11.4803162"><ele>81.0</ele><time>2026-04-11T09:06:43.938Z</time></trkpt><trkpt lat="45.425991" lon="11.4804197"><ele>81.0</ele><time>2026-04-11T09:06:44.938Z</time></trkpt><trkpt lat="45.4259158" lon="11.4805065"><ele>81.0</ele><time>2026-04-11T09:06:45.938Z</time></trkpt><trkpt lat="45.4258452" lon="11.4805567"><ele>81.0</ele><time>2026-04-11T09:06:46.938Z</time></trkpt><trkpt lat="45.4256941" lon="11.4806681"><ele>81.0</ele><time>2026-04-11T09:06:47.938Z</time></trkpt><trkpt lat="45.425384" lon="11.4808486"><ele>84.33333333333333</ele><time>2026-04-11T09:06:48.938Z</time></trkpt><trkpt lat="45.4251871" lon="11.4809674"><ele>87.66666666666666</ele><time>2026-04-11T09:06:49.938Z</time></trkpt><trkpt lat="45.4250239" lon="11.4810879"><ele>91.0</ele><time>2026-04-11T09:06:50.937Z</time></trkpt><trkpt lat="45.4248665" lon="11.4812261"><ele>95.0</ele><time>2026-04-11T09:06:51.938Z</time></trkpt><trkpt lat="45.4247164" lon="11.4814027"><ele>99.0</ele><time>2026-04-11T09:06:52.938Z</time></trkpt><trkpt lat="45.4246062" lon="11.4815315"><ele>103.0</ele><time>2026-04-11T09:06:53.938Z</time></trkpt><trkpt lat="45.424513" lon="11.4816013"><ele>107.0</ele><time>2026-04-11T09:06:54.938Z</time></trkpt><trkpt lat="45.4244119" lon="11.4816538"><ele>107.0</ele><time>2026-04-11T09:06:55.938Z</time></trkpt><trkpt lat="45.4243046" lon="11.4816687"><ele>107.0</ele><time>2026-04-11T09:06:56.938Z</time></trkpt><trkpt lat="45.4241301" lon="11.4816229"><ele>107.0</ele><time>2026-04-11T09:06:57.938Z</time></trkpt><trkpt lat="45.424001" lon="11.4815886"><ele>107.0</ele><time>2026-04-11T09:06:58.938Z</time></trkpt><trkpt lat="45.42391" lon="11.4815766"><ele>106.8</ele><time>2026-04-11T09:06:59.938Z</time></trkpt><trkpt lat="45.4238094" lon="11.4815699"><ele>106.6</ele><time>2026-04-11T09:07:00.938Z</time></trkpt><trkpt lat="45.4237418" lon="11.4816569"><ele>106.39999999999999</ele><time>2026-04-11T09:07:01.938Z</time></trkpt><trkpt lat="45.4236993" lon="11.4818082"><ele>106.19999999999999</ele><time>2026-04-11T09:07:02.938Z</time></trkpt><trkpt lat="45.4236591" lon="11.4819832"><ele>106.0</ele><time>2026-04-11T09:07:03.937Z</time></trkpt><trkpt lat="45.423589" lon="11.482206"><ele>106.0</ele><time>2026-04-11T09:07:04.938Z</time></trkpt><trkpt lat="45.4234948" lon="11.4825262"><ele>106.0</ele><time>2026-04-11T09:07:05.938Z</time></trkpt><trkpt lat="45.4234289" lon="11.4828766"><ele>109.33333333333334</ele><time>2026-04-11T09:07:06.938Z</time></trkpt><trkpt lat="45.4234117" lon="11.4831505"><ele>112.66666666666666</ele><time>2026-04-11T09:07:07.938Z</time></trkpt><trkpt lat="45.4233938" lon="11.4833511"><ele>116.0</ele><time>2026-04-11T09:07:08.938Z</time></trkpt><trkpt lat="45.4233853" lon="11.4835186"><ele>115.99999999999999</ele><time>2026-04-11T09:07:09.938Z</time></trkpt><trkpt lat="45.4233801" lon="11.4836264"><ele>116.0</ele><time>2026-04-11T09:07:10.938Z</time></trkpt><trkpt lat="45.4233905" lon="11.4837442"><ele>116.0</ele><time>2026-04-11T09:07:12.938Z</time></trkpt><trkpt lat="45.4234335" lon="11.4838136"><ele>116.0</ele><time>2026-04-11T09:07:17.938Z</time></trkpt><trkpt lat="45.4234972" lon="11.4838932"><ele>115.99999999999999</ele><time>2026-04-11T09:07:19.938Z</time></trkpt><trkpt lat="45.4235724" lon="11.4838964"><ele>116.0</ele><time>2026-04-11T09:07:20.938Z</time></trkpt><trkpt lat="45.4236883" lon="11.4838032"><ele>116.0</ele><time>2026-04-11T09:07:22.937Z</time></trkpt><trkpt lat="45.4237591" lon="11.4837589"><ele>116.0</ele><time>2026-04-11T09:07:23.938Z</time></trkpt><trkpt lat="45.4238336" lon="11.4837226"><ele>116.0</ele><time>2026-04-11T09:07:24.938Z</time></trkpt><trkpt lat="45.4239272" lon="11.4836706"><ele>116.0</ele><time>2026-04-11T09:07:25.938Z</time></trkpt><trkpt lat="45.4241166" lon="11.4835172"><ele>122.33333333333333</ele><time>2026-04-11T09:07:26.938Z</time></trkpt><trkpt lat="45.4243015" lon="11.4833738"><ele>128.66666666666666</ele><time>2026-04-11T09:07:27.938Z</time></trkpt><trkpt lat="45.4244921" lon="11.4832189"><ele>135.0</ele><time>2026-04-11T09:07:28.938Z</time></trkpt><trkpt lat="45.4247173" lon="11.4829934"><ele>137.0</ele><time>2026-04-11T09:07:29.938Z</time></trkpt><trkpt lat="45.4249253" lon="11.4827732"><ele>139.0</ele><time>2026-04-11T09:07:30.938Z</time></trkpt><trkpt lat="45.4250952" lon="11.4825828"><ele>139.0</ele><time>2026-04-11T09:07:31.938Z</time></trkpt><trkpt lat="45.4252681" lon="11.4823788"><ele>139.0</ele><time>2026-04-11T09:07:32.938Z</time></trkpt><trkpt lat="45.4254219" lon="11.482308"><ele>139.0</ele><time>2026-04-11T09:07:33.938Z</time></trkpt><trkpt lat="45.4255939" lon="11.4822345"><ele>139.5</ele><time>2026-04-11T09:07:34.938Z</time></trkpt><trkpt lat="45.4257378" lon="11.4821556"><ele>140.0</ele><time>2026-04-11T09:07:35.938Z</time></trkpt><trkpt lat="45.4258665" lon="11.4820798"><ele>140.5</ele><time>2026-04-11T09:07:36.938Z</time></trkpt><trkpt lat="45.4260041" lon="11.4820536"><ele>141.0</ele><time>2026-04-11T09:07:37.938Z</time></trkpt><trkpt lat="45.4261425" lon="11.4820669"><ele>141.0</ele><time>2026-04-11T09:07:38.938Z</time></trkpt><trkpt lat="45.4263015" lon="11.4820775"><ele>141.0</ele><time>2026-04-11T09:07:39.938Z</time></trkpt><trkpt lat="45.4264606" lon="11.4820456"><ele>141.0</ele><time>2026-04-11T09:07:40.938Z</time></trkpt><trkpt lat="45.4266542" lon="11.4819648"><ele>146.33333333333334</ele><time>2026-04-11T09:07:41.938Z</time></trkpt><trkpt lat="45.4268208" lon="11.4819055"><ele>151.66666666666669</ele><time>2026-04-11T09:07:42.938Z</time></trkpt><trkpt lat="45.4269975" lon="11.4817987"><ele>157.0</ele><time>2026-04-11T09:07:43.938Z</time></trkpt><trkpt lat="45.4271582" lon="11.4816627"><ele>162.25</ele><time>2026-04-11T09:07:44.938Z</time></trkpt><trkpt lat="45.4273061" lon="11.48154"><ele>167.5</ele><time>2026-04-11T09:07:45.938Z</time></trkpt><trkpt lat="45.4274325" lon="11.4814355"><ele>172.75</ele><time>2026-04-11T09:07:46.937Z</time></trkpt><trkpt lat="45.4275458" lon="11.4813657"><ele>178.0</ele><time>2026-04-11T09:07:47.937Z</time></trkpt><trkpt lat="45.4276507" lon="11.4813057"><ele>178.0</ele><time>2026-04-11T09:07:48.938Z</time></trkpt><trkpt lat="45.4277597" lon="11.4812957"><ele>178.0</ele><time>2026-04-11T09:07:49.938Z</time></trkpt><trkpt lat="45.4278901" lon="11.4812989"><ele>178.0</ele><time>2026-04-11T09:07:50.938Z</time></trkpt><trkpt lat="45.4280634" lon="11.4813562"><ele>178.0</ele><time>2026-04-11T09:07:51.938Z</time></trkpt><trkpt lat="45.4282274" lon="11.4814266"><ele>179.66666666666669</ele><time>2026-04-11T09:07:52.938Z</time></trkpt><trkpt lat="45.4284207" lon="11.4815008"><ele>181.33333333333334</ele><time>2026-04-11T09:07:53.938Z</time></trkpt><trkpt lat="45.4286064" lon="11.4815789"><ele>183.0</ele><time>2026-04-11T09:07:54.938Z</time></trkpt><trkpt lat="45.4287651" lon="11.4816357"><ele>182.4</ele><time>2026-04-11T09:07:55.938Z</time></trkpt><trkpt lat="45.428916" lon="11.4816846"><ele>181.8</ele><time>2026-04-11T09:07:56.938Z</time></trkpt><trkpt lat="45.4289769" lon="11.4817195"><ele>181.2</ele><time>2026-04-11T09:07:57.938Z</time></trkpt><trkpt lat="45.4290413" lon="11.4818364"><ele>180.6</ele><time>2026-04-11T09:07:59.938Z</time></trkpt><trkpt lat="45.4289977" lon="11.4819461"><ele>180.0</ele><time>2026-04-11T09:08:01.938Z</time></trkpt><trkpt lat="45.4288805" lon="11.4820179"><ele>180.6</ele><time>2026-04-11T09:08:03.938Z</time></trkpt><trkpt lat="45.4287889" lon="11.4820632"><ele>181.2</ele><time>2026-04-11T09:08:04.938Z</time></trkpt><trkpt lat="45.4286843" lon="11.4820642"><ele>181.8</ele><time>2026-04-11T09:08:05.938Z</time></trkpt><trkpt lat="45.4285835" lon="11.4820766"><ele>182.4</ele><time>2026-04-11T09:08:06.938Z</time></trkpt><trkpt lat="45.428448" lon="11.4821125"><ele>183.0</ele><time>2026-04-11T09:08:08.938Z</time></trkpt><trkpt lat="45.4283784" lon="11.4821303"><ele>185.60000000000002</ele><time>2026-04-11T09:08:09.938Z</time></trkpt><trkpt lat="45.4282996" lon="11.4821458"><ele>188.20000000000002</ele><time>2026-04-11T09:08:10.938Z</time></trkpt><trkpt lat="45.4282259" lon="11.4821677"><ele>190.8</ele><time>2026-04-11T09:08:11.938Z</time></trkpt><trkpt lat="45.4281556" lon="11.4821972"><ele>193.4</ele><time>2026-04-11T09:08:12.938Z</time></trkpt><trkpt lat="45.4280787" lon="11.4822322"><ele>196.0</ele><time>2026-04-11T09:08:13.938Z</time></trkpt><trkpt lat="45.4279517" lon="11.4823334"><ele>195.99999999999997</ele><time>2026-04-11T09:08:15.938Z</time></trkpt><trkpt lat="45.4278752" lon="11.4824041"><ele>196.0</ele><time>2026-04-11T09:08:16.938Z</time></trkpt><trkpt lat="45.4278097" lon="11.4824673"><ele>196.0</ele><time>2026-04-11T09:08:17.938Z</time></trkpt><trkpt lat="45.4277385" lon="11.4825383"><ele>196.0</ele><time>2026-04-11T09:08:18.937Z</time></trkpt><trkpt lat="45.4276664" lon="11.4826152"><ele>195.99999999999997</ele><time>2026-04-11T09:08:19.938Z</time></trkpt><trkpt lat="45.4275912" lon="11.4826922"><ele>196.0</ele><time>2026-04-11T09:08:20.938Z</time></trkpt><trkpt lat="45.4275084" lon="11.4827824"><ele>196.0</ele><time>2026-04-11T09:08:21.938Z</time></trkpt><trkpt lat="45.4274124" lon="11.4828902"><ele>196.0</ele><time>2026-04-11T09:08:22.938Z</time></trkpt><trkpt lat="45.4273" lon="11.4830107"><ele>196.0</ele><time>2026-04-11T09:08:23.938Z</time></trkpt><trkpt lat="45.4271628" lon="11.4831366"><ele>196.0</ele><time>2026-04-11T09:08:24.938Z</time></trkpt><trkpt lat="45.4270411" lon="11.4832704"><ele>197.0</ele><time>2026-04-11T09:08:25.938Z</time></trkpt><trkpt lat="45.4269468" lon="11.4833749"><ele>198.0</ele><time>2026-04-11T09:08:26.938Z</time></trkpt><trkpt lat="45.4268688" lon="11.4834761"><ele>199.0</ele><time>2026-04-11T09:08:27.938Z</time></trkpt><trkpt lat="45.4267958" lon="11.4835779"><ele>200.0</ele><time>2026-04-11T09:08:28.938Z</time></trkpt><trkpt lat="45.4268203" lon="11.4836878"><ele>201.0</ele><time>2026-04-11T09:08:29.938Z</time></trkpt><trkpt lat="45.4268311" lon="11.4837798"><ele>204.75</ele><time>2026-04-11T09:08:30.938Z</time></trkpt><trkpt lat="45.4268739" lon="11.4838608"><ele>208.5</ele><time>2026-04-11T09:08:31.938Z</time></trkpt><trkpt lat="45.4269608" lon="11.4839187"><ele>212.25</ele><time>2026-04-11T09:08:32.938Z</time></trkpt><trkpt lat="45.4270541" lon="11.4839507"><ele>216.0</ele><time>2026-04-11T09:08:33.938Z</time></trkpt><trkpt lat="45.4272628" lon="11.4838899"><ele>218.0</ele><time>2026-04-11T09:08:34.938Z</time></trkpt><trkpt lat="45.4274578" lon="11.4838678"><ele>220.0</ele><time>2026-04-11T09:08:35.938Z</time></trkpt><trkpt lat="45.4276222" lon="11.483861"><ele>222.0</ele><time>2026-04-11T09:08:36.938Z</time></trkpt><trkpt lat="45.4277521" lon="11.4838571"><ele>222.0</ele><time>2026-04-11T09:08:37.938Z</time></trkpt><trkpt lat="45.427862" lon="11.4838631"><ele>222.0</ele><time>2026-04-11T09:08:38.938Z</time></trkpt><trkpt lat="45.4279584" lon="11.4838615"><ele>222.0</ele><time>2026-04-11T09:08:39.938Z</time></trkpt><trkpt lat="45.4280555" lon="11.4838962"><ele>222.0</ele><time>2026-04-11T09:08:40.938Z</time></trkpt><trkpt lat="45.4281224" lon="11.4839498"><ele>222.0</ele><time>2026-04-11T09:08:41.938Z</time></trkpt><trkpt lat="45.4281592" lon="11.4840492"><ele>222.0</ele><time>2026-04-11T09:08:42.938Z</time></trkpt><trkpt lat="45.4281875" lon="11.4841462"><ele>222.0</ele><time>2026-04-11T09:08:43.937Z</time></trkpt><trkpt lat="45.4281584" lon="11.484262"><ele>222.0</ele><time>2026-04-11T09:08:44.938Z</time></trkpt><trkpt lat="45.4281126" lon="11.4843838"><ele>222.0</ele><time>2026-04-11T09:08:45.938Z</time></trkpt><trkpt lat="45.4280269" lon="11.4844842"><ele>222.0</ele><time>2026-04-11T09:08:46.938Z</time></trkpt><trkpt lat="45.4279389" lon="11.4845752"><ele>225.0</ele><time>2026-04-11T09:08:47.938Z</time></trkpt><trkpt lat="45.4278305" lon="11.4846952"><ele>228.0</ele><time>2026-04-11T09:08:48.938Z</time></trkpt><trkpt lat="45.42774" lon="11.4848221"><ele>231.0</ele><time>2026-04-11T09:08:49.938Z</time></trkpt><trkpt lat="45.427622" lon="11.4849405"><ele>234.0</ele><time>2026-04-11T09:08:50.938Z</time></trkpt><trkpt lat="45.4275003" lon="11.4850642"><ele>234.0</ele><time>2026-04-11T09:08:51.938Z</time></trkpt><trkpt lat="45.4273673" lon="11.4852075"><ele>234.0</ele><time>2026-04-11T09:08:52.937Z</time></trkpt><trkpt lat="45.4272304" lon="11.4853436"><ele>234.0</ele><time>2026-04-11T09:08:53.938Z</time></trkpt><trkpt lat="45.4270966" lon="11.4854942"><ele>238.33333333333331</ele><time>2026-04-11T09:08:54.938Z</time></trkpt><trkpt lat="45.4269488" lon="11.4856493"><ele>242.66666666666666</ele><time>2026-04-11T09:08:55.938Z</time></trkpt><trkpt lat="45.4267959" lon="11.4857785"><ele>247.0</ele><time>2026-04-11T09:08:56.938Z</time></trkpt><trkpt lat="45.426628" lon="11.4859101"><ele>247.0</ele><time>2026-04-11T09:08:57.938Z</time></trkpt><trkpt lat="45.426465" lon="11.486034"><ele>247.0</ele><time>2026-04-11T09:08:58.938Z</time></trkpt><trkpt lat="45.4262957" lon="11.4861602"><ele>247.0</ele><time>2026-04-11T09:08:59.938Z</time></trkpt><trkpt lat="45.426131" lon="11.486276"><ele>250.0</ele><time>2026-04-11T09:09:00.938Z</time></trkpt><trkpt lat="45.4259761" lon="11.4863843"><ele>253.0</ele><time>2026-04-11T09:09:01.938Z</time></trkpt><trkpt lat="45.4258485" lon="11.4864975"><ele>256.0</ele><time>2026-04-11T09:09:02.938Z</time></trkpt><trkpt lat="45.4257333" lon="11.4866317"><ele>256.0</ele><time>2026-04-11T09:09:03.938Z</time></trkpt><trkpt lat="45.4256319" lon="11.4867879"><ele>256.0</ele><time>2026-04-11T09:09:04.938Z</time></trkpt><trkpt lat="45.4255327" lon="11.4869495"><ele>256.0</ele><time>2026-04-11T09:09:05.938Z</time></trkpt><trkpt lat="45.4254484" lon="11.4871213"><ele>256.0</ele><time>2026-04-11T09:09:06.938Z</time></trkpt><trkpt lat="45.4253723" lon="11.4872858"><ele>255.60000000000002</ele><time>2026-04-11T09:09:07.938Z</time></trkpt><trkpt lat="45.4253026" lon="11.4874295"><ele>255.20000000000002</ele><time>2026-04-11T09:09:08.938Z</time></trkpt><trkpt lat="45.4252498" lon="11.4875621"><ele>254.79999999999998</ele><time>2026-04-11T09:09:09.938Z</time></trkpt><trkpt lat="45.4251969" lon="11.487701"><ele>254.39999999999998</ele><time>2026-04-11T09:09:10.938Z</time></trkpt><trkpt lat="45.4251667" lon="11.4878439"><ele>254.0</ele><time>2026-04-11T09:09:11.938Z</time></trkpt><trkpt lat="45.4252029" lon="11.4879968"><ele>254.0</ele><time>2026-04-11T09:09:12.938Z</time></trkpt><trkpt lat="45.4252319" lon="11.4881749"><ele>254.0</ele><time>2026-04-11T09:09:13.938Z</time></trkpt><trkpt lat="45.4252858" lon="11.4883586"><ele>254.0</ele><time>2026-04-11T09:09:14.938Z</time></trkpt><trkpt lat="45.4253328" lon="11.4885484"><ele>254.0</ele><time>2026-04-11T09:09:15.938Z</time></trkpt><trkpt lat="45.4253839" lon="11.4887372"><ele>254.66666666666669</ele><time>2026-04-11T09:09:16.938Z</time></trkpt><trkpt lat="45.4254402" lon="11.4889397"><ele>255.33333333333331</ele><time>2026-04-11T09:09:17.938Z</time></trkpt><trkpt lat="45.4254948" lon="11.4891468"><ele>256.0</ele><time>2026-04-11T09:09:18.938Z</time></trkpt><trkpt lat="45.4255536" lon="11.4893576"><ele>259.3333333333333</ele><time>2026-04-11T09:09:19.938Z</time></trkpt><trkpt lat="45.4256309" lon="11.4895627"><ele>262.6666666666667</ele><time>2026-04-11T09:09:20.938Z</time></trkpt><trkpt lat="45.4257119" lon="11.4897592"><ele>266.0</ele><time>2026-04-11T09:09:21.938Z</time></trkpt><trkpt lat="45.4257954" lon="11.4899533"><ele>266.0</ele><time>2026-04-11T09:09:22.938Z</time></trkpt><trkpt lat="45.4258843" lon="11.4901461"><ele>266.0</ele><time>2026-04-11T09:09:23.938Z</time></trkpt><trkpt lat="45.425974" lon="11.4903355"><ele>266.0</ele><time>2026-04-11T09:09:24.938Z</time></trkpt><trkpt lat="45.4260479" lon="11.4905201"><ele>267.25</ele><time>2026-04-11T09:09:25.938Z</time></trkpt><trkpt lat="45.4261275" lon="11.4906881"><ele>268.5</ele><time>2026-04-11T09:09:26.938Z</time></trkpt><trkpt lat="45.4262076" lon="11.4908432"><ele>269.75</ele><time>2026-04-11T09:09:27.938Z</time></trkpt><trkpt lat="45.4262855" lon="11.491001"><ele>271.0</ele><time>2026-04-11T09:09:28.938Z</time></trkpt><trkpt lat="45.4263772" lon="11.4911481"><ele>273.0</ele><time>2026-04-11T09:09:29.938Z</time></trkpt><trkpt lat="45.4264769" lon="11.4912867"><ele>275.0</ele><time>2026-04-11T09:09:30.938Z</time></trkpt><trkpt lat="45.4265822" lon="11.4914202"><ele>277.0</ele><time>2026-04-11T09:09:31.938Z</time></trkpt><trkpt lat="45.4266954" lon="11.4915443"><ele>279.0</ele><time>2026-04-11T09:09:32.938Z</time></trkpt><trkpt lat="45.4268062" lon="11.4916753"><ele>279.0</ele><time>2026-04-11T09:09:33.938Z</time></trkpt><trkpt lat="45.426918" lon="11.4918052"><ele>279.0</ele><time>2026-04-11T09:09:34.938Z</time></trkpt><trkpt lat="45.4270238" lon="11.4919336"><ele>279.0</ele><time>2026-04-11T09:09:35.938Z</time></trkpt><trkpt lat="45.4271301" lon="11.4920561"><ele>279.0</ele><time>2026-04-11T09:09:36.938Z</time></trkpt><trkpt lat="45.4272428" lon="11.4921779"><ele>280.25</ele><time>2026-04-11T09:09:37.938Z</time></trkpt><trkpt lat="45.4273513" lon="11.4923"><ele>281.5</ele><time>2026-04-11T09:09:38.938Z</time></trkpt><trkpt lat="45.4274586" lon="11.4924163"><ele>282.75</ele><time>2026-04-11T09:09:39.938Z</time></trkpt><trkpt lat="45.4275702" lon="11.492532"><ele>284.0</ele><time>2026-04-11T09:09:40.938Z</time></trkpt><trkpt lat="45.4276843" lon="11.4926467"><ele>284.0</ele><time>2026-04-11T09:09:41.937Z</time></trkpt><trkpt lat="45.4277887" lon="11.4927601"><ele>284.0</ele><time>2026-04-11T09:09:42.938Z</time></trkpt><trkpt lat="45.4278994" lon="11.4928847"><ele>284.0</ele><time>2026-04-11T09:09:43.938Z</time></trkpt><trkpt lat="45.4280083" lon="11.4930021"><ele>284.0</ele><time>2026-04-11T09:09:44.938Z</time></trkpt><trkpt lat="45.4281561" lon="11.4931647"><ele>285.33333333333337</ele><time>2026-04-11T09:09:45.938Z</time></trkpt><trkpt lat="45.4282933" lon="11.4933179"><ele>286.6666666666667</ele><time>2026-04-11T09:09:46.938Z</time></trkpt><trkpt lat="45.4284157" lon="11.4934545"><ele>288.0</ele><time>2026-04-11T09:09:47.938Z</time></trkpt><trkpt lat="45.4285303" lon="11.4935956"><ele>288.0</ele><time>2026-04-11T09:09:48.938Z</time></trkpt><trkpt lat="45.4286259" lon="11.4937455"><ele>288.0</ele><time>2026-04-11T09:09:49.938Z</time></trkpt><trkpt lat="45.4286912" lon="11.4938984"><ele>288.0</ele><time>2026-04-11T09:09:50.938Z</time></trkpt><trkpt lat="45.428741" lon="11.4940631"><ele>288.0</ele><time>2026-04-11T09:09:51.938Z</time></trkpt><trkpt lat="45.4287637" lon="11.4942329"><ele>287.5</ele><time>2026-04-11T09:09:52.938Z</time></trkpt><trkpt lat="45.4287566" lon="11.4944266"><ele>287.0</ele><time>2026-04-11T09:09:53.938Z</time></trkpt><trkpt lat="45.4287235" lon="11.4946256"><ele>286.5</ele><time>2026-04-11T09:09:54.938Z</time></trkpt><trkpt lat="45.4286663" lon="11.494819"><ele>286.0</ele><time>2026-04-11T09:09:55.938Z</time></trkpt><trkpt lat="45.4285954" lon="11.4949794"><ele>286.0</ele><time>2026-04-11T09:09:56.938Z</time></trkpt><trkpt lat="45.428527" lon="11.4951122"><ele>286.0</ele><time>2026-04-11T09:09:57.938Z</time></trkpt><trkpt lat="45.4284662" lon="11.4952317"><ele>286.0</ele><time>2026-04-11T09:09:58.938Z</time></trkpt><trkpt lat="45.4284136" lon="11.4953557"><ele>286.0</ele><time>2026-04-11T09:09:59.938Z</time></trkpt><trkpt lat="45.4283864" lon="11.4954816"><ele>286.0</ele><time>2026-04-11T09:10:00.937Z</time></trkpt><trkpt lat="45.4283845" lon="11.4956068"><ele>286.2</ele><time>2026-04-11T09:10:01.938Z</time></trkpt><trkpt lat="45.42842" lon="11.495706"><ele>286.40000000000003</ele><time>2026-04-11T09:10:02.938Z</time></trkpt><trkpt lat="45.4284797" lon="11.4957953"><ele>286.6</ele><time>2026-04-11T09:10:03.938Z</time></trkpt><trkpt lat="45.4285607" lon="11.4958562"><ele>286.8</ele><time>2026-04-11T09:10:04.937Z</time></trkpt><trkpt lat="45.4286412" lon="11.4959268"><ele>287.0</ele><time>2026-04-11T09:10:05.938Z</time></trkpt><trkpt lat="45.428756" lon="11.4959587"><ele>286.5</ele><time>2026-04-11T09:10:06.938Z</time></trkpt><trkpt lat="45.428858" lon="11.4958924"><ele>286.0</ele><time>2026-04-11T09:10:07.938Z</time></trkpt><trkpt lat="45.4289496" lon="11.4958595"><ele>285.5</ele><time>2026-04-11T09:10:08.938Z</time></trkpt><trkpt lat="45.4290114" lon="11.4958396"><ele>285.0</ele><time>2026-04-11T09:10:09.938Z</time></trkpt><trkpt lat="45.4290863" lon="11.495821"><ele>284.5</ele><time>2026-04-11T09:10:11.938Z</time></trkpt><trkpt lat="45.4291492" lon="11.4958035"><ele>284.0</ele><time>2026-04-11T09:10:25.938Z</time></trkpt><trkpt lat="45.429214" lon="11.4957756"><ele>284.0</ele><time>2026-04-11T09:10:28.938Z</time></trkpt><trkpt lat="45.4292841" lon="11.4957595"><ele>284.0</ele><time>2026-04-11T09:10:31.938Z</time></trkpt></trkseg><trkseg><trkpt lat="45.429375" lon="11.4956937"><ele>284.0</ele><time>2026-04-11T09:30:43.921Z</time></trkpt><trkpt lat="45.4294585" lon="11.4956213"><ele>284.0</ele><time>2026-04-11T09:31:44.921Z</time></trkpt><trkpt lat="45.4295403" lon="11.495675"><ele>284.0</ele><time>2026-04-11T09:31:46.921Z</time></trkpt><trkpt lat="45.4295992" lon="11.4957852"><ele>284.0</ele><time>2026-04-11T09:31:48.921Z</time></trkpt><trkpt lat="45.4295762" lon="11.4959319"><ele>284.0</ele><time>2026-04-11T09:31:50.92Z</time></trkpt><trkpt lat="45.4295352" lon="11.496011"><ele>284.0</ele><time>2026-04-11T09:31:51.921Z</time></trkpt><trkpt lat="45.4295018" lon="11.496088"><ele>284.0</ele><time>2026-04-11T09:31:52.921Z</time></trkpt><trkpt lat="45.429469" lon="11.4961762"><ele>284.0</ele><time>2026-04-11T09:31:53.921Z</time></trkpt><trkpt lat="45.4294274" lon="11.4962789"><ele>284.0</ele><time>2026-04-11T09:31:54.921Z</time></trkpt><trkpt lat="45.4293842" lon="11.4963951"><ele>284.0</ele><time>2026-04-11T09:31:55.92Z</time></trkpt><trkpt lat="45.4293546" lon="11.4965074"><ele>284.0</ele><time>2026-04-11T09:31:56.921Z</time></trkpt><trkpt lat="45.4293285" lon="11.4966218"><ele>282.2</ele><time>2026-04-11T09:31:57.921Z</time></trkpt><trkpt lat="45.4293087" lon="11.496738"><ele>280.4</ele><time>2026-04-11T09:31:58.921Z</time></trkpt><trkpt lat="45.4292846" lon="11.4968583"><ele>278.6</ele><time>2026-04-11T09:31:59.921Z</time></trkpt><trkpt lat="45.4292559" lon="11.4969749"><ele>276.8</ele><time>2026-04-11T09:32:00.921Z</time></trkpt><trkpt lat="45.4292241" lon="11.4971061"><ele>275.0</ele><time>2026-04-11T09:32:01.921Z</time></trkpt><trkpt lat="45.4291811" lon="11.4972958"><ele>274.75</ele><time>2026-04-11T09:32:02.921Z</time></trkpt><trkpt lat="45.4291307" lon="11.497481"><ele>274.5</ele><time>2026-04-11T09:32:03.921Z</time></trkpt><trkpt lat="45.4290694" lon="11.4976642"><ele>274.25</ele><time>2026-04-11T09:32:04.921Z</time></trkpt><trkpt lat="45.4290011" lon="11.4978443"><ele>274.0</ele><time>2026-04-11T09:32:05.921Z</time></trkpt><trkpt lat="45.4289248" lon="11.4980329"><ele>275.0</ele><time>2026-04-11T09:32:06.921Z</time></trkpt><trkpt lat="45.4288424" lon="11.4982213"><ele>276.0</ele><time>2026-04-11T09:32:07.921Z</time></trkpt><trkpt lat="45.428754" lon="11.498413"><ele>277.0</ele><time>2026-04-11T09:32:08.921Z</time></trkpt><trkpt lat="45.4286641" lon="11.4986023"><ele>273.25</ele><time>2026-04-11T09:32:09.921Z</time></trkpt><trkpt lat="45.4285713" lon="11.4987913"><ele>269.5</ele><time>2026-04-11T09:32:10.921Z</time></trkpt><trkpt lat="45.4284882" lon="11.4989696"><ele>265.75</ele><time>2026-04-11T09:32:11.921Z</time></trkpt><trkpt lat="45.4284119" lon="11.4991319"><ele>262.0</ele><time>2026-04-11T09:32:12.92Z</time></trkpt><trkpt lat="45.4283478" lon="11.4992843"><ele>262.0</ele><time>2026-04-11T09:32:13.921Z</time></trkpt><trkpt lat="45.4282921" lon="11.4994383"><ele>262.0</ele><time>2026-04-11T09:32:14.921Z</time></trkpt><trkpt lat="45.428249" lon="11.4996018"><ele>262.0</ele><time>2026-04-11T09:32:15.921Z</time></trkpt><trkpt lat="45.4282283" lon="11.4997747"><ele>262.0</ele><time>2026-04-11T09:32:16.921Z</time></trkpt><trkpt lat="45.4282305" lon="11.499946"><ele>262.6</ele><time>2026-04-11T09:32:17.921Z</time></trkpt><trkpt lat="45.4282468" lon="11.5000901"><ele>263.2</ele><time>2026-04-11T09:32:18.921Z</time></trkpt><trkpt lat="45.428287" lon="11.5002275"><ele>263.8</ele><time>2026-04-11T09:32:19.921Z</time></trkpt><trkpt lat="45.4283374" lon="11.5003639"><ele>264.4</ele><time>2026-04-11T09:32:20.921Z</time></trkpt><trkpt lat="45.4284013" lon="11.5005003"><ele>265.0</ele><time>2026-04-11T09:32:21.921Z</time></trkpt><trkpt lat="45.4284707" lon="11.5006215"><ele>265.0</ele><time>2026-04-11T09:32:22.921Z</time></trkpt><trkpt lat="45.4285391" lon="11.5007308"><ele>265.0</ele><time>2026-04-11T09:32:23.921Z</time></trkpt><trkpt lat="45.4285964" lon="11.5008312"><ele>265.0</ele><time>2026-04-11T09:32:24.921Z</time></trkpt><trkpt lat="45.4286489" lon="11.5009074"><ele>265.0</ele><time>2026-04-11T09:32:25.921Z</time></trkpt><trkpt lat="45.4286937" lon="11.5009734"><ele>265.0</ele><time>2026-04-11T09:32:26.921Z</time></trkpt><trkpt lat="45.4287919" lon="11.5010581"><ele>265.0</ele><time>2026-04-11T09:32:28.921Z</time></trkpt><trkpt lat="45.4288987" lon="11.5011186"><ele>265.8333333333333</ele><time>2026-04-11T09:32:30.92Z</time></trkpt><trkpt lat="45.4289642" lon="11.501145"><ele>266.66666666666663</ele><time>2026-04-11T09:32:31.921Z</time></trkpt><trkpt lat="45.4290384" lon="11.5011685"><ele>267.5</ele><time>2026-04-11T09:32:32.921Z</time></trkpt><trkpt lat="45.4291091" lon="11.5011969"><ele>268.3333333333333</ele><time>2026-04-11T09:32:33.921Z</time></trkpt><trkpt lat="45.4291612" lon="11.5012525"><ele>269.1666666666667</ele><time>2026-04-11T09:32:34.921Z</time></trkpt><trkpt lat="45.4291775" lon="11.5014077"><ele>270.0</ele><time>2026-04-11T09:32:36.921Z</time></trkpt><trkpt lat="45.429138" lon="11.5014932"><ele>270.0</ele><time>2026-04-11T09:32:37.921Z</time></trkpt><trkpt lat="45.4290854" lon="11.501564"><ele>270.0</ele><time>2026-04-11T09:32:38.921Z</time></trkpt><trkpt lat="45.4290088" lon="11.5016289"><ele>270.0</ele><time>2026-04-11T09:32:39.92Z</time></trkpt><trkpt lat="45.4289048" lon="11.5016898"><ele>270.0</ele><time>2026-04-11T09:32:40.921Z</time></trkpt><trkpt lat="45.4287954" lon="11.5017634"><ele>270.0</ele><time>2026-04-11T09:32:41.921Z</time></trkpt><trkpt lat="45.4286924" lon="11.5018423"><ele>270.0</ele><time>2026-04-11T09:32:42.921Z</time></trkpt><trkpt lat="45.4285884" lon="11.5019276"><ele>270.0</ele><time>2026-04-11T09:32:43.921Z</time></trkpt><trkpt lat="45.4284866" lon="11.5020358"><ele>270.0</ele><time>2026-04-11T09:32:44.921Z</time></trkpt><trkpt lat="45.4283792" lon="11.5021373"><ele>270.0</ele><time>2026-04-11T09:32:45.921Z</time></trkpt><trkpt lat="45.4282872" lon="11.5022161"><ele>272.4</ele><time>2026-04-11T09:32:46.921Z</time></trkpt><trkpt lat="45.4282021" lon="11.502275"><ele>274.8</ele><time>2026-04-11T09:32:47.921Z</time></trkpt><trkpt lat="45.4281149" lon="11.5023052"><ele>277.2</ele><time>2026-04-11T09:32:48.921Z</time></trkpt><trkpt lat="45.4280218" lon="11.5022889"><ele>279.6</ele><time>2026-04-11T09:32:49.92Z</time></trkpt><trkpt lat="45.4279321" lon="11.5022316"><ele>282.0</ele><time>2026-04-11T09:32:50.921Z</time></trkpt><trkpt lat="45.4278456" lon="11.5021445"><ele>282.0</ele><time>2026-04-11T09:32:51.921Z</time></trkpt><trkpt lat="45.4277721" lon="11.5020457"><ele>282.0</ele><time>2026-04-11T09:32:52.921Z</time></trkpt><trkpt lat="45.4277042" lon="11.501983"><ele>282.0</ele><time>2026-04-11T09:32:53.921Z</time></trkpt><trkpt lat="45.4276254" lon="11.5020084"><ele>282.0</ele><time>2026-04-11T09:32:55.921Z</time></trkpt><trkpt lat="45.4276484" lon="11.5021645"><ele>282.0</ele><time>2026-04-11T09:32:57.921Z</time></trkpt><trkpt lat="45.4276912" lon="11.5022703"><ele>282.0</ele><time>2026-04-11T09:32:58.921Z</time></trkpt><trkpt lat="45.4277557" lon="11.5024001"><ele>282.0</ele><time>2026-04-11T09:32:59.921Z</time></trkpt><trkpt lat="45.427832" lon="11.5025265"><ele>282.0</ele><time>2026-04-11T09:33:00.921Z</time></trkpt><trkpt lat="45.4279133" lon="11.5026491"><ele>282.0</ele><time>2026-04-11T09:33:01.92Z</time></trkpt><trkpt lat="45.427993" lon="11.5027659"><ele>283.0</ele><time>2026-04-11T09:33:02.921Z</time></trkpt><trkpt lat="45.4281052" lon="11.502796"><ele>284.0</ele><time>2026-04-11T09:33:03.921Z</time></trkpt><trkpt lat="45.4281884" lon="11.5028082"><ele>285.0</ele><time>2026-04-11T09:33:04.92Z</time></trkpt><trkpt lat="45.4282889" lon="11.502842"><ele>286.0</ele><time>2026-04-11T09:33:06.921Z</time></trkpt><trkpt lat="45.4282973" lon="11.5029408"><ele>287.0</ele><time>2026-04-11T09:33:08.921Z</time></trkpt><trkpt lat="45.4281519" lon="11.5029661"><ele>286.6666666666667</ele><time>2026-04-11T09:33:10.921Z</time></trkpt><trkpt lat="45.4280636" lon="11.5029669"><ele>286.33333333333337</ele><time>2026-04-11T09:33:11.921Z</time></trkpt><trkpt lat="45.4279772" lon="11.5029598"><ele>286.0</ele><time>2026-04-11T09:33:12.921Z</time></trkpt><trkpt lat="45.4279203" lon="11.5030149"><ele>285.6666666666667</ele><time>2026-04-11T09:33:13.921Z</time></trkpt><trkpt lat="45.42786" lon="11.5031354"><ele>285.3333333333333</ele><time>2026-04-11T09:33:14.921Z</time></trkpt><trkpt lat="45.427798" lon="11.5032346"><ele>285.0</ele><time>2026-04-11T09:33:15.921Z</time></trkpt><trkpt lat="45.4277445" lon="11.5033709"><ele>285.0</ele><time>2026-04-11T09:33:16.921Z</time></trkpt><trkpt lat="45.4276945" lon="11.5034898"><ele>285.0</ele><time>2026-04-11T09:33:17.921Z</time></trkpt><trkpt lat="45.4276661" lon="11.5035937"><ele>285.0</ele><time>2026-04-11T09:33:18.921Z</time></trkpt><trkpt lat="45.4276651" lon="11.5036989"><ele>285.0</ele><time>2026-04-11T09:33:19.921Z</time></trkpt><trkpt lat="45.4277093" lon="11.5037888"><ele>285.0</ele><time>2026-04-11T09:33:20.921Z</time></trkpt><trkpt lat="45.4277521" lon="11.5038685"><ele>285.0</ele><time>2026-04-11T09:33:21.921Z</time></trkpt><trkpt lat="45.4278404" lon="11.5039115"><ele>283.0</ele><time>2026-04-11T09:33:22.921Z</time></trkpt><trkpt lat="45.427938" lon="11.5039291"><ele>281.0</ele><time>2026-04-11T09:33:23.921Z</time></trkpt><trkpt lat="45.4280407" lon="11.503944"><ele>279.0</ele><time>2026-04-11T09:33:24.921Z</time></trkpt><trkpt lat="45.4281436" lon="11.5039519"><ele>277.0</ele><time>2026-04-11T09:33:25.92Z</time></trkpt><trkpt lat="45.4282446" lon="11.5039727"><ele>275.0</ele><time>2026-04-11T09:33:26.92Z</time></trkpt><trkpt lat="45.4283425" lon="11.504019"><ele>282.5</ele><time>2026-04-11T09:33:27.921Z</time></trkpt><trkpt lat="45.4284434" lon="11.5040889"><ele>290.0</ele><time>2026-04-11T09:33:28.921Z</time></trkpt><trkpt lat="45.4285396" lon="11.5041679"><ele>297.5</ele><time>2026-04-11T09:33:29.921Z</time></trkpt><trkpt lat="45.4286369" lon="11.5042504"><ele>305.0</ele><time>2026-04-11T09:33:30.921Z</time></trkpt><trkpt lat="45.4287329" lon="11.5043383"><ele>306.0</ele><time>2026-04-11T09:33:31.921Z</time></trkpt><trkpt lat="45.4288335" lon="11.5044202"><ele>307.0</ele><time>2026-04-11T09:33:32.921Z</time></trkpt><trkpt lat="45.4289355" lon="11.5045014"><ele>308.0</ele><time>2026-04-11T09:33:33.921Z</time></trkpt><trkpt lat="45.4290466" lon="11.5045751"><ele>309.0</ele><time>2026-04-11T09:33:34.921Z</time></trkpt><trkpt lat="45.4291555" lon="11.5046405"><ele>310.75</ele><time>2026-04-11T09:33:35.921Z</time></trkpt><trkpt lat="45.4292743" lon="11.5046858"><ele>312.5</ele><time>2026-04-11T09:33:36.921Z</time></trkpt><trkpt lat="45.4293997" lon="11.5047025"><ele>314.25</ele><time>2026-04-11T09:33:37.921Z</time></trkpt><trkpt lat="45.4295098" lon="11.5046929"><ele>316.0</ele><time>2026-04-11T09:33:38.921Z</time></trkpt><trkpt lat="45.429603" lon="11.5046945"><ele>316.8</ele><time>2026-04-11T09:33:39.921Z</time></trkpt><trkpt lat="45.429694" lon="11.504702"><ele>317.6</ele><time>2026-04-11T09:33:40.921Z</time></trkpt><trkpt lat="45.4297583" lon="11.5047908"><ele>318.4</ele><time>2026-04-11T09:33:41.92Z</time></trkpt><trkpt lat="45.4298191" lon="11.5049166"><ele>319.2</ele><time>2026-04-11T09:33:42.921Z</time></trkpt><trkpt lat="45.4298713" lon="11.5050814"><ele>320.0</ele><time>2026-04-11T09:33:43.921Z</time></trkpt><trkpt lat="45.4299154" lon="11.5052686"><ele>321.75</ele><time>2026-04-11T09:33:44.921Z</time></trkpt><trkpt lat="45.4299614" lon="11.5054659"><ele>323.5</ele><time>2026-04-11T09:33:45.921Z</time></trkpt><trkpt lat="45.4300022" lon="11.5056699"><ele>325.25</ele><time>2026-04-11T09:33:46.921Z</time></trkpt><trkpt lat="45.4300364" lon="11.5058766"><ele>327.0</ele><time>2026-04-11T09:33:47.921Z</time></trkpt><trkpt lat="45.4300628" lon="11.5060932"><ele>328.5</ele><time>2026-04-11T09:33:48.921Z</time></trkpt><trkpt lat="45.4300729" lon="11.5063147"><ele>330.0</ele><time>2026-04-11T09:33:49.921Z</time></trkpt><trkpt lat="45.430073" lon="11.5065308"><ele>331.5</ele><time>2026-04-11T09:33:50.921Z</time></trkpt><trkpt lat="45.4300726" lon="11.5067236"><ele>333.0</ele><time>2026-04-11T09:33:51.921Z</time></trkpt><trkpt lat="45.4300793" lon="11.5068813"><ele>333.0</ele><time>2026-04-11T09:33:52.921Z</time></trkpt><trkpt lat="45.430132" lon="11.5070128"><ele>333.0</ele><time>2026-04-11T09:33:53.921Z</time></trkpt><trkpt lat="45.4302085" lon="11.507135"><ele>333.0</ele><time>2026-04-11T09:33:54.921Z</time></trkpt><trkpt lat="45.4302981" lon="11.507256"><ele>333.0</ele><time>2026-04-11T09:33:55.921Z</time></trkpt><trkpt lat="45.4304087" lon="11.507345"><ele>336.5</ele><time>2026-04-11T09:33:56.921Z</time></trkpt><trkpt lat="45.4305155" lon="11.507445"><ele>340.0</ele><time>2026-04-11T09:33:57.921Z</time></trkpt><trkpt lat="45.4306182" lon="11.5075456"><ele>343.5</ele><time>2026-04-11T09:33:58.921Z</time></trkpt><trkpt lat="45.4307178" lon="11.507623"><ele>347.0</ele><time>2026-04-11T09:33:59.921Z</time></trkpt><trkpt lat="45.4308166" lon="11.5076914"><ele>347.0</ele><time>2026-04-11T09:34:00.921Z</time></trkpt><trkpt lat="45.4309172" lon="11.507726"><ele>347.0</ele><time>2026-04-11T09:34:01.921Z</time></trkpt><trkpt lat="45.4310123" lon="11.5077722"><ele>347.0</ele><time>2026-04-11T09:34:02.921Z</time></trkpt><trkpt lat="45.4311077" lon="11.5078391"><ele>347.0</ele><time>2026-04-11T09:34:03.921Z</time></trkpt><trkpt lat="45.4311981" lon="11.5079125"><ele>347.0</ele><time>2026-04-11T09:34:04.921Z</time></trkpt><trkpt lat="45.4312894" lon="11.508026"><ele>347.6</ele><time>2026-04-11T09:34:05.921Z</time></trkpt><trkpt lat="45.4313765" lon="11.5081218"><ele>348.20000000000005</ele><time>2026-04-11T09:34:06.921Z</time></trkpt><trkpt lat="45.4314457" lon="11.5082177"><ele>348.8</ele><time>2026-04-11T09:34:07.921Z</time></trkpt><trkpt lat="45.4315011" lon="11.5083215"><ele>349.4</ele><time>2026-04-11T09:34:08.921Z</time></trkpt><trkpt lat="45.4315464" lon="11.5084473"><ele>350.0</ele><time>2026-04-11T09:34:09.921Z</time></trkpt><trkpt lat="45.4315851" lon="11.5085806"><ele>350.0</ele><time>2026-04-11T09:34:10.921Z</time></trkpt><trkpt lat="45.4316106" lon="11.5087356"><ele>350.0</ele><time>2026-04-11T09:34:11.921Z</time></trkpt><trkpt lat="45.4316339" lon="11.5089019"><ele>350.0</ele><time>2026-04-11T09:34:12.921Z</time></trkpt><trkpt lat="45.4316443" lon="11.5090696"><ele>350.0</ele><time>2026-04-11T09:34:13.921Z</time></trkpt><trkpt lat="45.4316555" lon="11.5092235"><ele>350.4</ele><time>2026-04-11T09:34:14.921Z</time></trkpt><trkpt lat="45.4316699" lon="11.5093561"><ele>350.8</ele><time>2026-04-11T09:34:15.92Z</time></trkpt><trkpt lat="45.4316846" lon="11.509461"><ele>351.20000000000005</ele><time>2026-04-11T09:34:16.921Z</time></trkpt><trkpt lat="45.4317296" lon="11.5095828"><ele>351.6</ele><time>2026-04-11T09:34:18.921Z</time></trkpt><trkpt lat="45.4318171" lon="11.5096788"><ele>352.0</ele><time>2026-04-11T09:34:29.921Z</time></trkpt><trkpt lat="45.4318962" lon="11.5097917"><ele>352.75</ele><time>2026-04-11T09:34:30.921Z</time></trkpt><trkpt lat="45.4319669" lon="11.5099376"><ele>353.5</ele><time>2026-04-11T09:34:31.921Z</time></trkpt><trkpt lat="45.4320286" lon="11.51008"><ele>354.25</ele><time>2026-04-11T09:34:32.921Z</time></trkpt><trkpt lat="45.4320953" lon="11.5102102"><ele>355.0</ele><time>2026-04-11T09:34:33.921Z</time></trkpt><trkpt lat="45.4322093" lon="11.5102935"><ele>356.25</ele><time>2026-04-11T09:34:34.921Z</time></trkpt><trkpt lat="45.4323197" lon="11.5103811"><ele>357.5</ele><time>2026-04-11T09:34:35.921Z</time></trkpt><trkpt lat="45.4324304" lon="11.510452"><ele>358.75</ele><time>2026-04-11T09:34:36.92Z</time></trkpt><trkpt lat="45.432533" lon="11.5105071"><ele>360.0</ele><time>2026-04-11T09:34:37.921Z</time></trkpt><trkpt lat="45.4326286" lon="11.5105579"><ele>360.2</ele><time>2026-04-11T09:34:38.921Z</time></trkpt><trkpt lat="45.4327083" lon="11.5105818"><ele>360.4</ele><time>2026-04-11T09:34:39.921Z</time></trkpt><trkpt lat="45.4327982" lon="11.5105653"><ele>360.6</ele><time>2026-04-11T09:34:40.921Z</time></trkpt><trkpt lat="45.4329009" lon="11.5105047"><ele>360.8</ele><time>2026-04-11T09:34:41.921Z</time></trkpt><trkpt lat="45.4330201" lon="11.510397"><ele>361.0</ele><time>2026-04-11T09:34:42.921Z</time></trkpt><trkpt lat="45.4331244" lon="11.5102531"><ele>358.3333333333333</ele><time>2026-04-11T09:34:43.921Z</time></trkpt><trkpt lat="45.4332313" lon="11.510082"><ele>355.6666666666667</ele><time>2026-04-11T09:34:44.921Z</time></trkpt><trkpt lat="45.4333458" lon="11.5099035"><ele>353.0</ele><time>2026-04-11T09:34:45.921Z</time></trkpt><trkpt lat="45.4334523" lon="11.5097384"><ele>353.0</ele><time>2026-04-11T09:34:46.921Z</time></trkpt><trkpt lat="45.4335535" lon="11.5095953"><ele>353.0</ele><time>2026-04-11T09:34:47.921Z</time></trkpt><trkpt lat="45.4336683" lon="11.5094864"><ele>353.0</ele><time>2026-04-11T09:34:48.921Z</time></trkpt><trkpt lat="45.4337832" lon="11.5093807"><ele>353.0</ele><time>2026-04-11T09:34:49.921Z</time></trkpt><trkpt lat="45.4339101" lon="11.5093109"><ele>351.33333333333337</ele><time>2026-04-11T09:34:50.921Z</time></trkpt><trkpt lat="45.4340656" lon="11.5092749"><ele>349.6666666666667</ele><time>2026-04-11T09:34:51.92Z</time></trkpt><trkpt lat="45.4342298" lon="11.5092616"><ele>348.0</ele><time>2026-04-11T09:34:52.921Z</time></trkpt><trkpt lat="45.4344244" lon="11.5092645"><ele>348.0</ele><time>2026-04-11T09:34:53.921Z</time></trkpt><trkpt lat="45.4345947" lon="11.5092331"><ele>348.0</ele><time>2026-04-11T09:34:54.921Z</time></trkpt><trkpt lat="45.4347738" lon="11.5092207"><ele>348.0</ele><time>2026-04-11T09:34:55.921Z</time></trkpt><trkpt lat="45.4349505" lon="11.5093079"><ele>345.0</ele><time>2026-04-11T09:34:56.921Z</time></trkpt><trkpt lat="45.4351197" lon="11.5094001"><ele>342.0</ele><time>2026-04-11T09:34:57.921Z</time></trkpt><trkpt lat="45.4352584" lon="11.5094777"><ele>339.0</ele><time>2026-04-11T09:34:58.921Z</time></trkpt><trkpt lat="45.4353994" lon="11.5095221"><ele>338.5</ele><time>2026-04-11T09:34:59.921Z</time></trkpt><trkpt lat="45.4355514" lon="11.5095302"><ele>338.0</ele><time>2026-04-11T09:35:00.92Z</time></trkpt><trkpt lat="45.4357017" lon="11.5095258"><ele>337.5</ele><time>2026-04-11T09:35:01.921Z</time></trkpt><trkpt lat="45.4358161" lon="11.5095333"><ele>337.0</ele><time>2026-04-11T09:35:02.92Z</time></trkpt><trkpt lat="45.4359228" lon="11.5095754"><ele>336.5</ele><time>2026-04-11T09:35:03.921Z</time></trkpt><trkpt lat="45.4360309" lon="11.5096565"><ele>336.0</ele><time>2026-04-11T09:35:04.921Z</time></trkpt><trkpt lat="45.4361412" lon="11.5097779"><ele>335.5</ele><time>2026-04-11T09:35:05.921Z</time></trkpt><trkpt lat="45.4362523" lon="11.509909"><ele>335.0</ele><time>2026-04-11T09:35:06.921Z</time></trkpt><trkpt lat="45.4363594" lon="11.5100475"><ele>335.0</ele><time>2026-04-11T09:35:07.921Z</time></trkpt><trkpt lat="45.4364492" lon="11.510205"><ele>335.0</ele><time>2026-04-11T09:35:08.921Z</time></trkpt><trkpt lat="45.4365225" lon="11.5104099"><ele>335.0</ele><time>2026-04-11T09:35:09.921Z</time></trkpt><trkpt lat="45.4365851" lon="11.5106533"><ele>333.33333333333337</ele><time>2026-04-11T09:35:10.921Z</time></trkpt><trkpt lat="45.4366345" lon="11.5108976"><ele>331.6666666666667</ele><time>2026-04-11T09:35:11.921Z</time></trkpt><trkpt lat="45.4366851" lon="11.5111409"><ele>330.0</ele><time>2026-04-11T09:35:12.921Z</time></trkpt><trkpt lat="45.43674" lon="11.5113468"><ele>330.0</ele><time>2026-04-11T09:35:13.921Z</time></trkpt><trkpt lat="45.4368126" lon="11.5115537"><ele>330.0</ele><time>2026-04-11T09:35:14.921Z</time></trkpt><trkpt lat="45.4369201" lon="11.5117439"><ele>330.0</ele><time>2026-04-11T09:35:15.921Z</time></trkpt><trkpt lat="45.4370813" lon="11.5119188"><ele>328.75</ele><time>2026-04-11T09:35:16.921Z</time></trkpt><trkpt lat="45.4371941" lon="11.512074"><ele>327.5</ele><time>2026-04-11T09:35:17.921Z</time></trkpt><trkpt lat="45.4373006" lon="11.5121829"><ele>326.25</ele><time>2026-04-11T09:35:18.92Z</time></trkpt><trkpt lat="45.4374101" lon="11.5122937"><ele>325.0</ele><time>2026-04-11T09:35:19.921Z</time></trkpt><trkpt lat="45.4375402" lon="11.5123538"><ele>325.0</ele><time>2026-04-11T09:35:20.921Z</time></trkpt><trkpt lat="45.437741" lon="11.5123391"><ele>325.0</ele><time>2026-04-11T09:35:21.92Z</time></trkpt><trkpt lat="45.4379193" lon="11.5123326"><ele>325.0</ele><time>2026-04-11T09:35:22.921Z</time></trkpt><trkpt lat="45.4380911" lon="11.5122933"><ele>326.3333333333333</ele><time>2026-04-11T09:35:23.921Z</time></trkpt><trkpt lat="45.4382515" lon="11.512273"><ele>327.6666666666667</ele><time>2026-04-11T09:35:24.921Z</time></trkpt><trkpt lat="45.4384111" lon="11.5122851"><ele>329.0</ele><time>2026-04-11T09:35:25.921Z</time></trkpt><trkpt lat="45.4385613" lon="11.5123411"><ele>329.0</ele><time>2026-04-11T09:35:26.921Z</time></trkpt><trkpt lat="45.4387054" lon="11.5124445"><ele>329.0</ele><time>2026-04-11T09:35:27.921Z</time></trkpt><trkpt lat="45.438846" lon="11.5125635"><ele>329.0</ele><time>2026-04-11T09:35:28.921Z</time></trkpt><trkpt lat="45.4389881" lon="11.5126518"><ele>332.25</ele><time>2026-04-11T09:35:29.921Z</time></trkpt><trkpt lat="45.4391309" lon="11.5127313"><ele>335.5</ele><time>2026-04-11T09:35:30.921Z</time></trkpt><trkpt lat="45.4392644" lon="11.5128107"><ele>338.75</ele><time>2026-04-11T09:35:31.921Z</time></trkpt><trkpt lat="45.4393755" lon="11.5128671"><ele>342.0</ele><time>2026-04-11T09:35:32.921Z</time></trkpt><trkpt lat="45.4394941" lon="11.5129097"><ele>342.0</ele><time>2026-04-11T09:35:33.921Z</time></trkpt><trkpt lat="45.4396201" lon="11.5129496"><ele>342.0</ele><time>2026-04-11T09:35:34.921Z</time></trkpt><trkpt lat="45.4397553" lon="11.5129487"><ele>342.0</ele><time>2026-04-11T09:35:35.921Z</time></trkpt><trkpt lat="45.4399107" lon="11.5129096"><ele>342.0</ele><time>2026-04-11T09:35:36.92Z</time></trkpt><trkpt lat="45.4400724" lon="11.5128383"><ele>342.3333333333333</ele><time>2026-04-11T09:35:37.921Z</time></trkpt><trkpt lat="45.4402413" lon="11.5127371"><ele>342.66666666666663</ele><time>2026-04-11T09:35:38.921Z</time></trkpt><trkpt lat="45.440415" lon="11.512629"><ele>343.0</ele><time>2026-04-11T09:35:39.921Z</time></trkpt><trkpt lat="45.4405912" lon="11.5125191"><ele>346.66666666666663</ele><time>2026-04-11T09:35:40.921Z</time></trkpt><trkpt lat="45.4407735" lon="11.5124128"><ele>350.3333333333333</ele><time>2026-04-11T09:35:41.921Z</time></trkpt><trkpt lat="45.440957" lon="11.5123034"><ele>354.0</ele><time>2026-04-11T09:35:42.921Z</time></trkpt><trkpt lat="45.4411411" lon="11.5121763"><ele>355.0</ele><time>2026-04-11T09:35:43.921Z</time></trkpt><trkpt lat="45.441309" lon="11.5120321"><ele>356.0</ele><time>2026-04-11T09:35:44.921Z</time></trkpt><trkpt lat="45.4414761" lon="11.5118779"><ele>357.0</ele><time>2026-04-11T09:35:45.921Z</time></trkpt><trkpt lat="45.4416442" lon="11.5117393"><ele>357.0</ele><time>2026-04-11T09:35:46.921Z</time></trkpt><trkpt lat="45.4418045" lon="11.5116123"><ele>357.0</ele><time>2026-04-11T09:35:47.921Z</time></trkpt><trkpt lat="45.4419228" lon="11.5114942"><ele>357.0</ele><time>2026-04-11T09:35:48.921Z</time></trkpt><trkpt lat="45.4420243" lon="11.5113906"><ele>357.0</ele><time>2026-04-11T09:35:49.921Z</time></trkpt><trkpt lat="45.4421148" lon="11.5113151"><ele>357.0</ele><time>2026-04-11T09:35:50.921Z</time></trkpt><trkpt lat="45.4422013" lon="11.5112806"><ele>357.0</ele><time>2026-04-11T09:35:51.921Z</time></trkpt><trkpt lat="45.442274" lon="11.5113037"><ele>357.0</ele><time>2026-04-11T09:35:52.92Z</time></trkpt><trkpt lat="45.4423413" lon="11.5113788"><ele>357.0</ele><time>2026-04-11T09:35:53.921Z</time></trkpt><trkpt lat="45.4423929" lon="11.5114953"><ele>360.75</ele><time>2026-04-11T09:35:54.921Z</time></trkpt><trkpt lat="45.4424459" lon="11.5116386"><ele>364.5</ele><time>2026-04-11T09:35:55.921Z</time></trkpt><trkpt lat="45.4425125" lon="11.5117747"><ele>368.25</ele><time>2026-04-11T09:35:56.921Z</time></trkpt><trkpt lat="45.4425907" lon="11.511899"><ele>372.0</ele><time>2026-04-11T09:35:57.921Z</time></trkpt><trkpt lat="45.4426845" lon="11.5120054"><ele>372.75</ele><time>2026-04-11T09:35:58.921Z</time></trkpt><trkpt lat="45.4428048" lon="11.5120881"><ele>373.5</ele><time>2026-04-11T09:35:59.92Z</time></trkpt><trkpt lat="45.4429342" lon="11.5121862"><ele>374.25</ele><time>2026-04-11T09:36:00.921Z</time></trkpt><trkpt lat="45.443068" lon="11.5122528"><ele>375.0</ele><time>2026-04-11T09:36:01.921Z</time></trkpt><trkpt lat="45.4431993" lon="11.5122984"><ele>376.2</ele><time>2026-04-11T09:36:02.921Z</time></trkpt><trkpt lat="45.4433399" lon="11.5123135"><ele>377.4</ele><time>2026-04-11T09:36:03.92Z</time></trkpt><trkpt lat="45.4434513" lon="11.5123184"><ele>378.6</ele><time>2026-04-11T09:36:04.921Z</time></trkpt><trkpt lat="45.4435465" lon="11.5123343"><ele>379.8</ele><time>2026-04-11T09:36:05.921Z</time></trkpt><trkpt lat="45.4436329" lon="11.5123884"><ele>381.0</ele><time>2026-04-11T09:36:06.921Z</time></trkpt><trkpt lat="45.4437178" lon="11.5124703"><ele>380.75</ele><time>2026-04-11T09:36:07.921Z</time></trkpt><trkpt lat="45.4438019" lon="11.5125754"><ele>380.5</ele><time>2026-04-11T09:36:08.921Z</time></trkpt><trkpt lat="45.4438934" lon="11.5126714"><ele>380.25</ele><time>2026-04-11T09:36:09.921Z</time></trkpt><trkpt lat="45.4440015" lon="11.5127517"><ele>380.0</ele><time>2026-04-11T09:36:10.921Z</time></trkpt><trkpt lat="45.4441233" lon="11.5128124"><ele>380.0</ele><time>2026-04-11T09:36:11.921Z</time></trkpt><trkpt lat="45.4442521" lon="11.5128646"><ele>380.0</ele><time>2026-04-11T09:36:12.921Z</time></trkpt><trkpt lat="45.4443818" lon="11.5129089"><ele>380.0</ele><time>2026-04-11T09:36:13.921Z</time></trkpt><trkpt lat="45.4445021" lon="11.5129341"><ele>380.0</ele><time>2026-04-11T09:36:14.921Z</time></trkpt><trkpt lat="45.4446099" lon="11.5129309"><ele>379.25</ele><time>2026-04-11T09:36:15.92Z</time></trkpt><trkpt lat="45.4447147" lon="11.5128881"><ele>378.5</ele><time>2026-04-11T09:36:16.921Z</time></trkpt><trkpt lat="45.4448219" lon="11.5128299"><ele>377.75</ele><time>2026-04-11T09:36:17.921Z</time></trkpt><trkpt lat="45.4449238" lon="11.5127294"><ele>377.0</ele><time>2026-04-11T09:36:18.921Z</time></trkpt><trkpt lat="45.4450236" lon="11.5126028"><ele>377.0</ele><time>2026-04-11T09:36:19.921Z</time></trkpt><trkpt lat="45.445122" lon="11.5124516"><ele>377.0</ele><time>2026-04-11T09:36:20.921Z</time></trkpt><trkpt lat="45.4452083" lon="11.5122806"><ele>377.0</ele><time>2026-04-11T09:36:21.921Z</time></trkpt><trkpt lat="45.4452893" lon="11.512095"><ele>377.0</ele><time>2026-04-11T09:36:22.921Z</time></trkpt><trkpt lat="45.4453662" lon="11.5119013"><ele>373.33333333333337</ele><time>2026-04-11T09:36:23.921Z</time></trkpt><trkpt lat="45.4454873" lon="11.5117327"><ele>369.6666666666667</ele><time>2026-04-11T09:36:24.921Z</time></trkpt><trkpt lat="45.4456147" lon="11.5115642"><ele>366.0</ele><time>2026-04-11T09:36:25.921Z</time></trkpt><trkpt lat="45.4457546" lon="11.5113865"><ele>365.6666666666667</ele><time>2026-04-11T09:36:26.921Z</time></trkpt><trkpt lat="45.4459057" lon="11.5112382"><ele>365.33333333333337</ele><time>2026-04-11T09:36:27.921Z</time></trkpt><trkpt lat="45.4460247" lon="11.5111031"><ele>365.0</ele><time>2026-04-11T09:36:28.921Z</time></trkpt><trkpt lat="45.4461069" lon="11.5109741"><ele>365.0</ele><time>2026-04-11T09:36:29.921Z</time></trkpt><trkpt lat="45.4461465" lon="11.5108218"><ele>365.0</ele><time>2026-04-11T09:36:30.921Z</time></trkpt><trkpt lat="45.4461692" lon="11.5106797"><ele>365.0</ele><time>2026-04-11T09:36:31.921Z</time></trkpt><trkpt lat="45.4461583" lon="11.5105146"><ele>365.0</ele><time>2026-04-11T09:36:32.921Z</time></trkpt><trkpt lat="45.4460926" lon="11.5103362"><ele>364.2</ele><time>2026-04-11T09:36:33.921Z</time></trkpt><trkpt lat="45.4460482" lon="11.5101753"><ele>363.4</ele><time>2026-04-11T09:36:34.921Z</time></trkpt><trkpt lat="45.4460326" lon="11.5100304"><ele>362.6</ele><time>2026-04-11T09:36:35.921Z</time></trkpt><trkpt lat="45.4460442" lon="11.5099037"><ele>361.8</ele><time>2026-04-11T09:36:36.921Z</time></trkpt><trkpt lat="45.4460848" lon="11.5097784"><ele>361.0</ele><time>2026-04-11T09:36:37.921Z</time></trkpt><trkpt lat="45.4461477" lon="11.5096512"><ele>359.25</ele><time>2026-04-11T09:36:38.921Z</time></trkpt><trkpt lat="45.446237" lon="11.5095223"><ele>357.5</ele><time>2026-04-11T09:36:39.921Z</time></trkpt><trkpt lat="45.4463446" lon="11.5093897"><ele>355.75</ele><time>2026-04-11T09:36:40.92Z</time></trkpt><trkpt lat="45.44646" lon="11.5092477"><ele>354.0</ele><time>2026-04-11T09:36:41.921Z</time></trkpt><trkpt lat="45.4465829" lon="11.5090909"><ele>356.3333333333333</ele><time>2026-04-11T09:36:42.921Z</time></trkpt><trkpt lat="45.4467136" lon="11.5089179"><ele>358.66666666666663</ele><time>2026-04-11T09:36:43.921Z</time></trkpt><trkpt lat="45.4468417" lon="11.5087399"><ele>361.0</ele><time>2026-04-11T09:36:44.921Z</time></trkpt><trkpt lat="45.4469544" lon="11.5085788"><ele>361.0</ele><time>2026-04-11T09:36:45.921Z</time></trkpt><trkpt lat="45.4470546" lon="11.5084587"><ele>361.0</ele><time>2026-04-11T09:36:46.921Z</time></trkpt><trkpt lat="45.4471567" lon="11.5083818"><ele>361.0</ele><time>2026-04-11T09:36:47.921Z</time></trkpt><trkpt lat="45.4472738" lon="11.5083468"><ele>361.0</ele><time>2026-04-11T09:36:48.921Z</time></trkpt><trkpt lat="45.4474029" lon="11.5083472"><ele>363.25</ele><time>2026-04-11T09:36:49.921Z</time></trkpt><trkpt lat="45.4475493" lon="11.5083656"><ele>365.5</ele><time>2026-04-11T09:36:50.921Z</time></trkpt><trkpt lat="45.4476904" lon="11.5083706"><ele>367.75</ele><time>2026-04-11T09:36:51.92Z</time></trkpt><trkpt lat="45.4478155" lon="11.5083572"><ele>370.0</ele><time>2026-04-11T09:36:52.921Z</time></trkpt><trkpt lat="45.4479309" lon="11.508298"><ele>371.2</ele><time>2026-04-11T09:36:53.921Z</time></trkpt><trkpt lat="45.448027" lon="11.5082099"><ele>372.4</ele><time>2026-04-11T09:36:54.921Z</time></trkpt><trkpt lat="45.4481224" lon="11.5081009"><ele>373.6</ele><time>2026-04-11T09:36:55.921Z</time></trkpt><trkpt lat="45.4481831" lon="11.5079888"><ele>374.8</ele><time>2026-04-11T09:36:56.921Z</time></trkpt><trkpt lat="45.4482182" lon="11.5078413"><ele>376.0</ele><time>2026-04-11T09:36:57.92Z</time></trkpt><trkpt lat="45.448209" lon="11.5076782"><ele>376.0</ele><time>2026-04-11T09:36:58.921Z</time></trkpt><trkpt lat="45.448166" lon="11.5074937"><ele>376.0</ele><time>2026-04-11T09:36:59.921Z</time></trkpt><trkpt lat="45.4481117" lon="11.5073067"><ele>376.0</ele><time>2026-04-11T09:37:00.921Z</time></trkpt><trkpt lat="45.4480542" lon="11.5071154"><ele>376.0</ele><time>2026-04-11T09:37:01.921Z</time></trkpt><trkpt lat="45.448004" lon="11.5069301"><ele>374.6</ele><time>2026-04-11T09:37:02.921Z</time></trkpt><trkpt lat="45.4479704" lon="11.5067714"><ele>373.20000000000005</ele><time>2026-04-11T09:37:03.921Z</time></trkpt><trkpt lat="45.4479702" lon="11.5066209"><ele>371.79999999999995</ele><time>2026-04-11T09:37:04.921Z</time></trkpt><trkpt lat="45.4480099" lon="11.5064857"><ele>370.4</ele><time>2026-04-11T09:37:05.921Z</time></trkpt><trkpt lat="45.4480831" lon="11.5063717"><ele>369.0</ele><time>2026-04-11T09:37:06.921Z</time></trkpt><trkpt lat="45.4481633" lon="11.5062605"><ele>366.0</ele><time>2026-04-11T09:37:07.921Z</time></trkpt><trkpt lat="45.448285" lon="11.5061631"><ele>363.0</ele><time>2026-04-11T09:37:08.921Z</time></trkpt><trkpt lat="45.4483874" lon="11.5060652"><ele>360.0</ele><time>2026-04-11T09:37:09.921Z</time></trkpt><trkpt lat="45.4485212" lon="11.5059291"><ele>357.0</ele><time>2026-04-11T09:37:10.921Z</time></trkpt><trkpt lat="45.4486425" lon="11.5058072"><ele>357.0</ele><time>2026-04-11T09:37:11.921Z</time></trkpt><trkpt lat="45.4487507" lon="11.5056629"><ele>357.0</ele><time>2026-04-11T09:37:12.921Z</time></trkpt><trkpt lat="45.4488505" lon="11.5055364"><ele>357.0</ele><time>2026-04-11T09:37:13.921Z</time></trkpt><trkpt lat="45.44895" lon="11.5054328"><ele>357.0</ele><time>2026-04-11T09:37:14.921Z</time></trkpt><trkpt lat="45.4490787" lon="11.5053833"><ele>356.0</ele><time>2026-04-11T09:37:15.921Z</time></trkpt><trkpt lat="45.4492251" lon="11.5053612"><ele>355.0</ele><time>2026-04-11T09:37:16.921Z</time></trkpt><trkpt lat="45.4493764" lon="11.5053389"><ele>354.0</ele><time>2026-04-11T09:37:17.921Z</time></trkpt><trkpt lat="45.4495164" lon="11.5052578"><ele>356.0</ele><time>2026-04-11T09:37:18.921Z</time></trkpt><trkpt lat="45.449644" lon="11.505126"><ele>358.0</ele><time>2026-04-11T09:37:19.921Z</time></trkpt><trkpt lat="45.4497628" lon="11.5049858"><ele>360.0</ele><time>2026-04-11T09:37:20.921Z</time></trkpt><trkpt lat="45.4498898" lon="11.5048412"><ele>360.0</ele><time>2026-04-11T09:37:21.921Z</time></trkpt><trkpt lat="45.4500163" lon="11.5046984"><ele>360.0</ele><time>2026-04-11T09:37:22.921Z</time></trkpt><trkpt lat="45.4501422" lon="11.5045498"><ele>360.0</ele><time>2026-04-11T09:37:23.921Z</time></trkpt><trkpt lat="45.4502615" lon="11.5044123"><ele>359.5</ele><time>2026-04-11T09:37:24.921Z</time></trkpt><trkpt lat="45.450364" lon="11.5042684"><ele>359.0</ele><time>2026-04-11T09:37:25.921Z</time></trkpt><trkpt lat="45.4504423" lon="11.504104"><ele>358.5</ele><time>2026-04-11T09:37:26.921Z</time></trkpt><trkpt lat="45.4505196" lon="11.5039387"><ele>358.0</ele><time>2026-04-11T09:37:27.921Z</time></trkpt><trkpt lat="45.4505976" lon="11.5038055"><ele>358.5</ele><time>2026-04-11T09:37:28.921Z</time></trkpt><trkpt lat="45.4506855" lon="11.5036799"><ele>359.0</ele><time>2026-04-11T09:37:29.921Z</time></trkpt><trkpt lat="45.450796" lon="11.5035614"><ele>359.5</ele><time>2026-04-11T09:37:30.921Z</time></trkpt><trkpt lat="45.4509151" lon="11.5034533"><ele>360.0</ele><time>2026-04-11T09:37:31.921Z</time></trkpt><trkpt lat="45.4510494" lon="11.503344"><ele>360.0</ele><time>2026-04-11T09:37:32.921Z</time></trkpt><trkpt lat="45.4511714" lon="11.5032188"><ele>360.0</ele><time>2026-04-11T09:37:33.921Z</time></trkpt><trkpt lat="45.4512917" lon="11.5030895"><ele>360.0</ele><time>2026-04-11T09:37:34.921Z</time></trkpt><trkpt lat="45.4514109" lon="11.5029512"><ele>359.3333333333333</ele><time>2026-04-11T09:37:35.921Z</time></trkpt><trkpt lat="45.4515322" lon="11.5028099"><ele>358.66666666666663</ele><time>2026-04-11T09:37:36.921Z</time></trkpt><trkpt lat="45.4516619" lon="11.5026664"><ele>358.0</ele><time>2026-04-11T09:37:37.921Z</time></trkpt><trkpt lat="45.4517891" lon="11.5025253"><ele>358.0</ele><time>2026-04-11T09:37:38.921Z</time></trkpt><trkpt lat="45.4519173" lon="11.5023588"><ele>358.0</ele><time>2026-04-11T09:37:39.921Z</time></trkpt><trkpt lat="45.4520416" lon="11.5021889"><ele>358.0</ele><time>2026-04-11T09:37:40.921Z</time></trkpt><trkpt lat="45.4521582" lon="11.502026"><ele>360.25</ele><time>2026-04-11T09:37:41.921Z</time></trkpt><trkpt lat="45.4522686" lon="11.5018614"><ele>362.5</ele><time>2026-04-11T09:37:42.921Z</time></trkpt><trkpt lat="45.452374" lon="11.5017041"><ele>364.75</ele><time>2026-04-11T09:37:43.921Z</time></trkpt><trkpt lat="45.4524496" lon="11.5015493"><ele>367.0</ele><time>2026-04-11T09:37:44.921Z</time></trkpt><trkpt lat="45.4525111" lon="11.5013994"><ele>368.5</ele><time>2026-04-11T09:37:45.921Z</time></trkpt><trkpt lat="45.452552" lon="11.5012326"><ele>370.0</ele><time>2026-04-11T09:37:46.921Z</time></trkpt><trkpt lat="45.4525769" lon="11.5010659"><ele>371.5</ele><time>2026-04-11T09:37:47.921Z</time></trkpt><trkpt lat="45.4525947" lon="11.5008988"><ele>373.0</ele><time>2026-04-11T09:37:48.921Z</time></trkpt><trkpt lat="45.452607" lon="11.5007244"><ele>373.0</ele><time>2026-04-11T09:37:49.921Z</time></trkpt><trkpt lat="45.4526351" lon="11.5005309"><ele>373.0</ele><time>2026-04-11T09:37:50.921Z</time></trkpt><trkpt lat="45.4526777" lon="11.5003441"><ele>373.0</ele><time>2026-04-11T09:37:51.921Z</time></trkpt><trkpt lat="45.4527214" lon="11.5001616"><ele>373.0</ele><time>2026-04-11T09:37:52.921Z</time></trkpt><trkpt lat="45.4527539" lon="11.4999636"><ele>373.25</ele><time>2026-04-11T09:37:53.921Z</time></trkpt><trkpt lat="45.4528043" lon="11.4997945"><ele>373.5</ele><time>2026-04-11T09:37:54.92Z</time></trkpt><trkpt lat="45.4528365" lon="11.4996003"><ele>373.75</ele><time>2026-04-11T09:37:55.921Z</time></trkpt><trkpt lat="45.4528558" lon="11.4994032"><ele>374.0</ele><time>2026-04-11T09:37:56.92Z</time></trkpt><trkpt lat="45.4528718" lon="11.4992183"><ele>374.0</ele><time>2026-04-11T09:37:57.921Z</time></trkpt><trkpt lat="45.4528695" lon="11.499044"><ele>374.0</ele><time>2026-04-11T09:37:58.92Z</time></trkpt><trkpt lat="45.4528334" lon="11.4988861"><ele>374.0</ele><time>2026-04-11T09:37:59.921Z</time></trkpt><trkpt lat="45.4527729" lon="11.4987366"><ele>374.0</ele><time>2026-04-11T09:38:00.921Z</time></trkpt><trkpt lat="45.4527075" lon="11.4985893"><ele>373.0</ele><time>2026-04-11T09:38:01.921Z</time></trkpt><trkpt lat="45.4526503" lon="11.4984328"><ele>372.0</ele><time>2026-04-11T09:38:02.921Z</time></trkpt><trkpt lat="45.4526646" lon="11.4982731"><ele>371.0</ele><time>2026-04-11T09:38:03.921Z</time></trkpt><trkpt lat="45.4526903" lon="11.4981213"><ele>370.0</ele><time>2026-04-11T09:38:04.921Z</time></trkpt><trkpt lat="45.4527317" lon="11.4979703"><ele>370.5</ele><time>2026-04-11T09:38:05.921Z</time></trkpt><trkpt lat="45.4527983" lon="11.4978274"><ele>371.0</ele><time>2026-04-11T09:38:06.921Z</time></trkpt><trkpt lat="45.4528884" lon="11.4977003"><ele>371.5</ele><time>2026-04-11T09:38:07.921Z</time></trkpt><trkpt lat="45.4530049" lon="11.497589"><ele>372.0</ele><time>2026-04-11T09:38:08.92Z</time></trkpt><trkpt lat="45.453127" lon="11.4974868"><ele>372.0</ele><time>2026-04-11T09:38:09.921Z</time></trkpt><trkpt lat="45.4532389" lon="11.4973793"><ele>372.0</ele><time>2026-04-11T09:38:10.921Z</time></trkpt><trkpt lat="45.4533363" lon="11.4972641"><ele>372.0</ele><time>2026-04-11T09:38:11.921Z</time></trkpt><trkpt lat="45.4534218" lon="11.4971381"><ele>372.0</ele><time>2026-04-11T09:38:12.921Z</time></trkpt><trkpt lat="45.4534868" lon="11.4969971"><ele>371.75</ele><time>2026-04-11T09:38:13.921Z</time></trkpt><trkpt lat="45.453521" lon="11.4968331"><ele>371.5</ele><time>2026-04-11T09:38:14.921Z</time></trkpt><trkpt lat="45.4535283" lon="11.4966603"><ele>371.25</ele><time>2026-04-11T09:38:15.921Z</time></trkpt><trkpt lat="45.4535283" lon="11.4964842"><ele>371.0</ele><time>2026-04-11T09:38:16.921Z</time></trkpt><trkpt lat="45.4535396" lon="11.4963108"><ele>370.25</ele><time>2026-04-11T09:38:17.921Z</time></trkpt><trkpt lat="45.4535759" lon="11.4961284"><ele>369.5</ele><time>2026-04-11T09:38:18.921Z</time></trkpt><trkpt lat="45.4536155" lon="11.4959334"><ele>368.75</ele><time>2026-04-11T09:38:19.921Z</time></trkpt><trkpt lat="45.4536555" lon="11.4957206"><ele>368.0</ele><time>2026-04-11T09:38:20.921Z</time></trkpt><trkpt lat="45.4536964" lon="11.4955079"><ele>367.25</ele><time>2026-04-11T09:38:21.921Z</time></trkpt><trkpt lat="45.453731" lon="11.4953255"><ele>366.5</ele><time>2026-04-11T09:38:22.921Z</time></trkpt><trkpt lat="45.4537707" lon="11.4951724"><ele>365.75</ele><time>2026-04-11T09:38:23.921Z</time></trkpt><trkpt lat="45.4538314" lon="11.4950356"><ele>365.0</ele><time>2026-04-11T09:38:24.921Z</time></trkpt><trkpt lat="45.4539033" lon="11.4949126"><ele>366.0</ele><time>2026-04-11T09:38:25.921Z</time></trkpt><trkpt lat="45.4539803" lon="11.4948001"><ele>367.0</ele><time>2026-04-11T09:38:26.92Z</time></trkpt><trkpt lat="45.4540591" lon="11.494687"><ele>368.0</ele><time>2026-04-11T09:38:27.92Z</time></trkpt><trkpt lat="45.4541316" lon="11.4945753"><ele>369.0</ele><time>2026-04-11T09:38:28.921Z</time></trkpt><trkpt lat="45.4541878" lon="11.4944691"><ele>370.0</ele><time>2026-04-11T09:38:29.921Z</time></trkpt><trkpt lat="45.4542319" lon="11.4943587"><ele>370.0</ele><time>2026-04-11T09:38:30.921Z</time></trkpt><trkpt lat="45.4542665" lon="11.4942614"><ele>370.0</ele><time>2026-04-11T09:38:31.921Z</time></trkpt><trkpt lat="45.4543138" lon="11.4941949"><ele>370.0</ele><time>2026-04-11T09:38:32.921Z</time></trkpt><trkpt lat="45.4543726" lon="11.4941582"><ele>370.0</ele><time>2026-04-11T09:38:33.921Z</time></trkpt><trkpt lat="45.4545344" lon="11.4941823"><ele>370.0</ele><time>2026-04-11T09:38:35.921Z</time></trkpt><trkpt lat="45.4546444" lon="11.4942346"><ele>368.5</ele><time>2026-04-11T09:38:36.921Z</time></trkpt><trkpt lat="45.4547596" lon="11.4942892"><ele>367.0</ele><time>2026-04-11T09:38:37.92Z</time></trkpt><trkpt lat="45.4548879" lon="11.494334"><ele>365.5</ele><time>2026-04-11T09:38:38.921Z</time></trkpt><trkpt lat="45.4550352" lon="11.4943672"><ele>364.0</ele><time>2026-04-11T09:38:39.921Z</time></trkpt><trkpt lat="45.4551786" lon="11.4943762"><ele>364.0</ele><time>2026-04-11T09:38:40.921Z</time></trkpt><trkpt lat="45.4553188" lon="11.4943673"><ele>364.0</ele><time>2026-04-11T09:38:41.921Z</time></trkpt><trkpt lat="45.4554478" lon="11.4943289"><ele>364.0</ele><time>2026-04-11T09:38:42.921Z</time></trkpt><trkpt lat="45.4555674" lon="11.4942685"><ele>364.0</ele><time>2026-04-11T09:38:43.921Z</time></trkpt><trkpt lat="45.4556834" lon="11.4942193"><ele>360.5</ele><time>2026-04-11T09:38:44.921Z</time></trkpt><trkpt lat="45.4557971" lon="11.4941813"><ele>357.0</ele><time>2026-04-11T09:38:45.921Z</time></trkpt><trkpt lat="45.4559177" lon="11.4941827"><ele>353.5</ele><time>2026-04-11T09:38:46.92Z</time></trkpt><trkpt lat="45.4560442" lon="11.4941884"><ele>350.0</ele><time>2026-04-11T09:38:47.921Z</time></trkpt><trkpt lat="45.4561775" lon="11.4941945"><ele>348.5</ele><time>2026-04-11T09:38:48.921Z</time></trkpt><trkpt lat="45.4563131" lon="11.4941736"><ele>347.0</ele><time>2026-04-11T09:38:49.921Z</time></trkpt><trkpt lat="45.4564423" lon="11.4941298"><ele>345.5</ele><time>2026-04-11T09:38:50.921Z</time></trkpt><trkpt lat="45.4565689" lon="11.4940833"><ele>344.0</ele><time>2026-04-11T09:38:51.921Z</time></trkpt><trkpt lat="45.4566959" lon="11.4940548"><ele>344.0</ele><time>2026-04-11T09:38:52.921Z</time></trkpt><trkpt lat="45.4568306" lon="11.494038"><ele>344.0</ele><time>2026-04-11T09:38:53.921Z</time></trkpt><trkpt lat="45.4569699" lon="11.4940251"><ele>344.0</ele><time>2026-04-11T09:38:54.921Z</time></trkpt><trkpt lat="45.4571057" lon="11.4940121"><ele>344.0</ele><time>2026-04-11T09:38:55.921Z</time></trkpt><trkpt lat="45.4572405" lon="11.493996"><ele>343.0</ele><time>2026-04-11T09:38:56.921Z</time></trkpt><trkpt lat="45.457364" lon="11.4939749"><ele>342.0</ele><time>2026-04-11T09:38:57.921Z</time></trkpt><trkpt lat="45.4574768" lon="11.4939653"><ele>341.0</ele><time>2026-04-11T09:38:58.921Z</time></trkpt><trkpt lat="45.4575862" lon="11.4939752"><ele>340.0</ele><time>2026-04-11T09:38:59.921Z</time></trkpt><trkpt lat="45.4576935" lon="11.4940186"><ele>340.0</ele><time>2026-04-11T09:39:00.921Z</time></trkpt><trkpt lat="45.457804" lon="11.4940633"><ele>340.0</ele><time>2026-04-11T09:39:01.921Z</time></trkpt><trkpt lat="45.4579271" lon="11.4940842"><ele>340.0</ele><time>2026-04-11T09:39:02.921Z</time></trkpt><trkpt lat="45.4580496" lon="11.494086"><ele>340.0</ele><time>2026-04-11T09:39:03.921Z</time></trkpt><trkpt lat="45.4581703" lon="11.4940457"><ele>340.2</ele><time>2026-04-11T09:39:04.921Z</time></trkpt><trkpt lat="45.4582874" lon="11.4940072"><ele>340.4</ele><time>2026-04-11T09:39:05.92Z</time></trkpt><trkpt lat="45.4583894" lon="11.4939453"><ele>340.6</ele><time>2026-04-11T09:39:06.921Z</time></trkpt><trkpt lat="45.4584871" lon="11.4939002"><ele>340.8</ele><time>2026-04-11T09:39:07.921Z</time></trkpt><trkpt lat="45.4585779" lon="11.4938697"><ele>341.0</ele><time>2026-04-11T09:39:08.921Z</time></trkpt><trkpt lat="45.4586804" lon="11.4938469"><ele>339.0</ele><time>2026-04-11T09:39:09.921Z</time></trkpt><trkpt lat="45.4587925" lon="11.4938365"><ele>337.0</ele><time>2026-04-11T09:39:10.921Z</time></trkpt><trkpt lat="45.4589087" lon="11.4938311"><ele>335.0</ele><time>2026-04-11T09:39:11.921Z</time></trkpt><trkpt lat="45.4590267" lon="11.4938183"><ele>333.0</ele><time>2026-04-11T09:39:12.921Z</time></trkpt><trkpt lat="45.4591469" lon="11.4938022"><ele>333.0</ele><time>2026-04-11T09:39:13.92Z</time></trkpt><trkpt lat="45.4592655" lon="11.4937773"><ele>333.0</ele><time>2026-04-11T09:39:14.921Z</time></trkpt><trkpt lat="45.4593773" lon="11.4937457"><ele>333.0</ele><time>2026-04-11T09:39:15.921Z</time></trkpt><trkpt lat="45.4594905" lon="11.4936999"><ele>333.0</ele><time>2026-04-11T09:39:16.921Z</time></trkpt><trkpt lat="45.4596185" lon="11.4936555"><ele>332.0</ele><time>2026-04-11T09:39:17.921Z</time></trkpt><trkpt lat="45.4597438" lon="11.4936032"><ele>331.0</ele><time>2026-04-11T09:39:18.92Z</time></trkpt><trkpt lat="45.4598814" lon="11.4935541"><ele>330.0</ele><time>2026-04-11T09:39:19.92Z</time></trkpt><trkpt lat="45.4600325" lon="11.4935306"><ele>329.0</ele><time>2026-04-11T09:39:20.921Z</time></trkpt><trkpt lat="45.4601833" lon="11.4935246"><ele>329.0</ele><time>2026-04-11T09:39:21.921Z</time></trkpt><trkpt lat="45.4603358" lon="11.4935246"><ele>329.0</ele><time>2026-04-11T09:39:22.921Z</time></trkpt><trkpt lat="45.4604845" lon="11.4935315"><ele>329.0</ele><time>2026-04-11T09:39:23.921Z</time></trkpt><trkpt lat="45.460633" lon="11.4935522"><ele>330.5</ele><time>2026-04-11T09:39:24.921Z</time></trkpt><trkpt lat="45.4607773" lon="11.493564"><ele>332.0</ele><time>2026-04-11T09:39:25.921Z</time></trkpt><trkpt lat="45.4609152" lon="11.4936142"><ele>333.5</ele><time>2026-04-11T09:39:26.921Z</time></trkpt><trkpt lat="45.4610577" lon="11.4936693"><ele>335.0</ele><time>2026-04-11T09:39:27.921Z</time></trkpt><trkpt lat="45.4612032" lon="11.4937222"><ele>325.33333333333337</ele><time>2026-04-11T09:39:28.921Z</time></trkpt><trkpt lat="45.4613474" lon="11.4937705"><ele>315.6666666666667</ele><time>2026-04-11T09:39:29.92Z</time></trkpt><trkpt lat="45.4615015" lon="11.4937994"><ele>306.0</ele><time>2026-04-11T09:39:30.921Z</time></trkpt><trkpt lat="45.4616507" lon="11.4938186"><ele>306.0</ele><time>2026-04-11T09:39:31.921Z</time></trkpt><trkpt lat="45.4618041" lon="11.4938244"><ele>306.0</ele><time>2026-04-11T09:39:32.921Z</time></trkpt><trkpt lat="45.461958" lon="11.493837"><ele>306.0</ele><time>2026-04-11T09:39:33.921Z</time></trkpt><trkpt lat="45.4621041" lon="11.4938634"><ele>309.25</ele><time>2026-04-11T09:39:34.921Z</time></trkpt><trkpt lat="45.4622439" lon="11.4939081"><ele>312.5</ele><time>2026-04-11T09:39:35.921Z</time></trkpt><trkpt lat="45.46238" lon="11.4939818"><ele>315.75</ele><time>2026-04-11T09:39:36.921Z</time></trkpt><trkpt lat="45.462514" lon="11.4940669"><ele>319.0</ele><time>2026-04-11T09:39:37.921Z</time></trkpt><trkpt lat="45.4626414" lon="11.494158"><ele>319.0</ele><time>2026-04-11T09:39:38.921Z</time></trkpt><trkpt lat="45.4627632" lon="11.4942555"><ele>319.0</ele><time>2026-04-11T09:39:39.921Z</time></trkpt><trkpt lat="45.4628713" lon="11.4943566"><ele>319.0</ele><time>2026-04-11T09:39:40.921Z</time></trkpt><trkpt lat="45.4629839" lon="11.4944531"><ele>319.0</ele><time>2026-04-11T09:39:41.921Z</time></trkpt><trkpt lat="45.463082" lon="11.4945448"><ele>315.75</ele><time>2026-04-11T09:39:42.921Z</time></trkpt><trkpt lat="45.4631878" lon="11.4946139"><ele>312.5</ele><time>2026-04-11T09:39:43.921Z</time></trkpt><trkpt lat="45.4633146" lon="11.4946587"><ele>309.25</ele><time>2026-04-11T09:39:44.921Z</time></trkpt><trkpt lat="45.4634489" lon="11.4946921"><ele>306.0</ele><time>2026-04-11T09:39:45.921Z</time></trkpt><trkpt lat="45.4635912" lon="11.494707"><ele>306.0</ele><time>2026-04-11T09:39:46.921Z</time></trkpt><trkpt lat="45.4637376" lon="11.4947325"><ele>306.0</ele><time>2026-04-11T09:39:47.921Z</time></trkpt><trkpt lat="45.4638812" lon="11.494762"><ele>306.0</ele><time>2026-04-11T09:39:48.921Z</time></trkpt><trkpt lat="45.4640213" lon="11.494798"><ele>306.0</ele><time>2026-04-11T09:39:49.921Z</time></trkpt><trkpt lat="45.4641578" lon="11.4948482"><ele>306.25</ele><time>2026-04-11T09:39:50.921Z</time></trkpt><trkpt lat="45.4642889" lon="11.494904"><ele>306.5</ele><time>2026-04-11T09:39:51.921Z</time></trkpt><trkpt lat="45.4644233" lon="11.4949609"><ele>306.75</ele><time>2026-04-11T09:39:52.921Z</time></trkpt><trkpt lat="45.4645532" lon="11.4950024"><ele>307.0</ele><time>2026-04-11T09:39:53.921Z</time></trkpt><trkpt lat="45.4646848" lon="11.4950421"><ele>308.0</ele><time>2026-04-11T09:39:54.921Z</time></trkpt><trkpt lat="45.4648066" lon="11.49507"><ele>309.0</ele><time>2026-04-11T09:39:55.921Z</time></trkpt><trkpt lat="45.4649378" lon="11.4950927"><ele>310.0</ele><time>2026-04-11T09:39:56.921Z</time></trkpt><trkpt lat="45.4650718" lon="11.49512"><ele>311.0</ele><time>2026-04-11T09:39:57.921Z</time></trkpt><trkpt lat="45.4652108" lon="11.4951558"><ele>311.0</ele><time>2026-04-11T09:39:58.921Z</time></trkpt><trkpt lat="45.4653507" lon="11.4952015"><ele>311.0</ele><time>2026-04-11T09:39:59.921Z</time></trkpt><trkpt lat="45.4654972" lon="11.495247"><ele>311.0</ele><time>2026-04-11T09:40:00.921Z</time></trkpt><trkpt lat="45.465641" lon="11.4952895"><ele>311.0</ele><time>2026-04-11T09:40:01.921Z</time></trkpt><trkpt lat="45.4657808" lon="11.4953224"><ele>310.5</ele><time>2026-04-11T09:40:02.921Z</time></trkpt><trkpt lat="45.4659237" lon="11.4953448"><ele>310.0</ele><time>2026-04-11T09:40:03.921Z</time></trkpt><trkpt lat="45.4660571" lon="11.4953489"><ele>309.5</ele><time>2026-04-11T09:40:04.92Z</time></trkpt><trkpt lat="45.4661809" lon="11.495357"><ele>309.0</ele><time>2026-04-11T09:40:05.921Z</time></trkpt><trkpt lat="45.4662872" lon="11.495385"><ele>304.2</ele><time>2026-04-11T09:40:06.92Z</time></trkpt><trkpt lat="45.4663842" lon="11.4954445"><ele>299.4</ele><time>2026-04-11T09:40:07.921Z</time></trkpt><trkpt lat="45.4664703" lon="11.495537"><ele>294.6</ele><time>2026-04-11T09:40:08.921Z</time></trkpt><trkpt lat="45.4665354" lon="11.4956693"><ele>289.8</ele><time>2026-04-11T09:40:09.921Z</time></trkpt><trkpt lat="45.4665858" lon="11.4958058"><ele>285.0</ele><time>2026-04-11T09:40:10.921Z</time></trkpt><trkpt lat="45.4666341" lon="11.4959206"><ele>285.0</ele><time>2026-04-11T09:40:11.921Z</time></trkpt><trkpt lat="45.4667029" lon="11.4960005"><ele>285.0</ele><time>2026-04-11T09:40:12.921Z</time></trkpt><trkpt lat="45.466784" lon="11.4960487"><ele>285.0</ele><time>2026-04-11T09:40:13.92Z</time></trkpt><trkpt lat="45.4668837" lon="11.4960621"><ele>285.0</ele><time>2026-04-11T09:40:14.921Z</time></trkpt><trkpt lat="45.4669981" lon="11.4960452"><ele>285.0</ele><time>2026-04-11T09:40:15.921Z</time></trkpt><trkpt lat="45.4671094" lon="11.4960508"><ele>284.0</ele><time>2026-04-11T09:40:16.921Z</time></trkpt><trkpt lat="45.4672259" lon="11.4960741"><ele>283.0</ele><time>2026-04-11T09:40:17.921Z</time></trkpt><trkpt lat="45.4673441" lon="11.4961433"><ele>282.0</ele><time>2026-04-11T09:40:18.921Z</time></trkpt><trkpt lat="45.4674589" lon="11.4962214"><ele>281.0</ele><time>2026-04-11T09:40:19.92Z</time></trkpt><trkpt lat="45.4675734" lon="11.4963279"><ele>280.5</ele><time>2026-04-11T09:40:20.921Z</time></trkpt><trkpt lat="45.4676788" lon="11.4964465"><ele>280.0</ele><time>2026-04-11T09:40:21.921Z</time></trkpt><trkpt lat="45.4677843" lon="11.496571"><ele>279.5</ele><time>2026-04-11T09:40:22.921Z</time></trkpt><trkpt lat="45.4678816" lon="11.4966884"><ele>279.0</ele><time>2026-04-11T09:40:23.921Z</time></trkpt><trkpt lat="45.4679791" lon="11.4967868"><ele>278.5</ele><time>2026-04-11T09:40:24.921Z</time></trkpt><trkpt lat="45.4680883" lon="11.4968575"><ele>278.0</ele><time>2026-04-11T09:40:25.921Z</time></trkpt><trkpt lat="45.4681985" lon="11.4968977"><ele>277.5</ele><time>2026-04-11T09:40:26.921Z</time></trkpt><trkpt lat="45.4683037" lon="11.4969186"><ele>277.0</ele><time>2026-04-11T09:40:27.921Z</time></trkpt><trkpt lat="45.4684237" lon="11.4968755"><ele>277.0</ele><time>2026-04-11T09:40:28.921Z</time></trkpt><trkpt lat="45.4685278" lon="11.4968386"><ele>277.0</ele><time>2026-04-11T09:40:29.921Z</time></trkpt><trkpt lat="45.4686408" lon="11.4968086"><ele>277.0</ele><time>2026-04-11T09:40:30.921Z</time></trkpt><trkpt lat="45.4687642" lon="11.4967971"><ele>277.0</ele><time>2026-04-11T09:40:31.921Z</time></trkpt><trkpt lat="45.4688907" lon="11.4968033"><ele>276.5</ele><time>2026-04-11T09:40:32.921Z</time></trkpt><trkpt lat="45.4690156" lon="11.4968085"><ele>276.0</ele><time>2026-04-11T09:40:33.921Z</time></trkpt><trkpt lat="45.4691426" lon="11.4968233"><ele>275.5</ele><time>2026-04-11T09:40:34.92Z</time></trkpt><trkpt lat="45.4692722" lon="11.4968599"><ele>275.0</ele><time>2026-04-11T09:40:35.921Z</time></trkpt><trkpt lat="45.4693986" lon="11.4969008"><ele>275.0</ele><time>2026-04-11T09:40:36.921Z</time></trkpt><trkpt lat="45.4695334" lon="11.4969643"><ele>275.0</ele><time>2026-04-11T09:40:37.921Z</time></trkpt><trkpt lat="45.4697018" lon="11.4970347"><ele>275.0</ele><time>2026-04-11T09:40:38.921Z</time></trkpt><trkpt lat="45.4699056" lon="11.497076"><ele>273.0</ele><time>2026-04-11T09:40:39.921Z</time></trkpt><trkpt lat="45.4701368" lon="11.497086"><ele>271.0</ele><time>2026-04-11T09:40:40.921Z</time></trkpt><trkpt lat="45.4703637" lon="11.4970869"><ele>270.0</ele><time>2026-04-11T09:40:41.921Z</time></trkpt><trkpt lat="45.4705505" lon="11.4970728"><ele>269.0</ele><time>2026-04-11T09:40:42.921Z</time></trkpt><trkpt lat="45.4707297" lon="11.4970675"><ele>268.0</ele><time>2026-04-11T09:40:43.921Z</time></trkpt><trkpt lat="45.4709006" lon="11.4970665"><ele>268.0</ele><time>2026-04-11T09:40:44.92Z</time></trkpt><trkpt lat="45.4710645" lon="11.4970653"><ele>268.0</ele><time>2026-04-11T09:40:45.921Z</time></trkpt><trkpt lat="45.4712263" lon="11.4970797"><ele>268.0</ele><time>2026-04-11T09:40:46.921Z</time></trkpt><trkpt lat="45.4713812" lon="11.4970861"><ele>266.0</ele><time>2026-04-11T09:40:47.921Z</time></trkpt><trkpt lat="45.4715315" lon="11.4970834"><ele>264.0</ele><time>2026-04-11T09:40:48.921Z</time></trkpt><trkpt lat="45.4716748" lon="11.4970727"><ele>262.0</ele><time>2026-04-11T09:40:49.921Z</time></trkpt><trkpt lat="45.4718088" lon="11.4970393"><ele>260.0</ele><time>2026-04-11T09:40:50.921Z</time></trkpt><trkpt lat="45.4719383" lon="11.4969919"><ele>260.0</ele><time>2026-04-11T09:40:51.921Z</time></trkpt><trkpt lat="45.4720631" lon="11.496953"><ele>260.0</ele><time>2026-04-11T09:40:52.921Z</time></trkpt><trkpt lat="45.4721891" lon="11.4969073"><ele>260.0</ele><time>2026-04-11T09:40:53.921Z</time></trkpt><trkpt lat="45.4723138" lon="11.4968533"><ele>260.0</ele><time>2026-04-11T09:40:54.921Z</time></trkpt><trkpt lat="45.4724375" lon="11.4967979"><ele>259.25</ele><time>2026-04-11T09:40:55.92Z</time></trkpt><trkpt lat="45.4725576" lon="11.4967486"><ele>258.5</ele><time>2026-04-11T09:40:56.921Z</time></trkpt><trkpt lat="45.4726781" lon="11.4966972"><ele>257.75</ele><time>2026-04-11T09:40:57.921Z</time></trkpt><trkpt lat="45.4728058" lon="11.496648"><ele>257.0</ele><time>2026-04-11T09:40:58.92Z</time></trkpt><trkpt lat="45.4729323" lon="11.496594"><ele>256.5</ele><time>2026-04-11T09:40:59.921Z</time></trkpt><trkpt lat="45.4730609" lon="11.4965381"><ele>256.0</ele><time>2026-04-11T09:41:00.921Z</time></trkpt><trkpt lat="45.4731913" lon="11.4964834"><ele>255.5</ele><time>2026-04-11T09:41:01.921Z</time></trkpt><trkpt lat="45.4733215" lon="11.4964302"><ele>255.0</ele><time>2026-04-11T09:41:02.921Z</time></trkpt><trkpt lat="45.4734497" lon="11.4963875"><ele>255.0</ele><time>2026-04-11T09:41:03.921Z</time></trkpt><trkpt lat="45.4735687" lon="11.4963527"><ele>255.0</ele><time>2026-04-11T09:41:04.921Z</time></trkpt><trkpt lat="45.4736703" lon="11.4963157"><ele>255.0</ele><time>2026-04-11T09:41:05.921Z</time></trkpt><trkpt lat="45.4737515" lon="11.4962916"><ele>255.0</ele><time>2026-04-11T09:41:06.921Z</time></trkpt><trkpt lat="45.4738235" lon="11.4962724"><ele>255.0</ele><time>2026-04-11T09:41:07.921Z</time></trkpt><trkpt lat="45.4738895" lon="11.4962604"><ele>255.0</ele><time>2026-04-11T09:41:08.921Z</time></trkpt><trkpt lat="45.4739634" lon="11.4962687"><ele>255.2</ele><time>2026-04-11T09:41:09.921Z</time></trkpt><trkpt lat="45.4740468" lon="11.4962952"><ele>255.4</ele><time>2026-04-11T09:41:10.92Z</time></trkpt><trkpt lat="45.4741337" lon="11.4963315"><ele>255.60000000000002</ele><time>2026-04-11T09:41:11.921Z</time></trkpt><trkpt lat="45.4742291" lon="11.4963947"><ele>255.8</ele><time>2026-04-11T09:41:12.921Z</time></trkpt><trkpt lat="45.4743242" lon="11.4964686"><ele>256.0</ele><time>2026-04-11T09:41:13.921Z</time></trkpt><trkpt lat="45.4744133" lon="11.4965526"><ele>256.0</ele><time>2026-04-11T09:41:14.921Z</time></trkpt><trkpt lat="45.4744937" lon="11.4966582"><ele>256.0</ele><time>2026-04-11T09:41:15.921Z</time></trkpt><trkpt lat="45.4745726" lon="11.4967604"><ele>256.0</ele><time>2026-04-11T09:41:16.921Z</time></trkpt><trkpt lat="45.4746481" lon="11.4968662"><ele>256.0</ele><time>2026-04-11T09:41:17.921Z</time></trkpt><trkpt lat="45.4747258" lon="11.4969641"><ele>256.0</ele><time>2026-04-11T09:41:18.921Z</time></trkpt><trkpt lat="45.4748043" lon="11.4970553"><ele>253.60000000000002</ele><time>2026-04-11T09:41:19.921Z</time></trkpt><trkpt lat="45.4748927" lon="11.4971329"><ele>251.20000000000002</ele><time>2026-04-11T09:41:20.921Z</time></trkpt><trkpt lat="45.474985" lon="11.4971955"><ele>248.79999999999998</ele><time>2026-04-11T09:41:21.921Z</time></trkpt><trkpt lat="45.4750799" lon="11.4972594"><ele>246.39999999999998</ele><time>2026-04-11T09:41:22.921Z</time></trkpt><trkpt lat="45.4751714" lon="11.4973188"><ele>244.0</ele><time>2026-04-11T09:41:23.921Z</time></trkpt><trkpt lat="45.4752584" lon="11.4973821"><ele>244.0</ele><time>2026-04-11T09:41:24.92Z</time></trkpt><trkpt lat="45.4753286" lon="11.4974424"><ele>243.99999999999997</ele><time>2026-04-11T09:41:25.921Z</time></trkpt><trkpt lat="45.4753799" lon="11.497509"><ele>243.99999999999997</ele><time>2026-04-11T09:41:26.921Z</time></trkpt><trkpt lat="45.4754562" lon="11.4976429"><ele>244.0</ele><time>2026-04-11T09:41:28.921Z</time></trkpt><trkpt lat="45.475497" lon="11.4977717"><ele>244.0</ele><time>2026-04-11T09:41:29.921Z</time></trkpt><trkpt lat="45.4755273" lon="11.49797"><ele>243.75</ele><time>2026-04-11T09:41:30.921Z</time></trkpt><trkpt lat="45.4755649" lon="11.4981805"><ele>243.5</ele><time>2026-04-11T09:41:31.921Z</time></trkpt><trkpt lat="45.4756045" lon="11.4983648"><ele>243.25</ele><time>2026-04-11T09:41:32.92Z</time></trkpt><trkpt lat="45.4756379" lon="11.4985233"><ele>243.0</ele><time>2026-04-11T09:41:33.921Z</time></trkpt><trkpt lat="45.4756644" lon="11.4986587"><ele>242.5</ele><time>2026-04-11T09:41:34.921Z</time></trkpt><trkpt lat="45.4756859" lon="11.498774"><ele>242.0</ele><time>2026-04-11T09:41:35.921Z</time></trkpt><trkpt lat="45.4757085" lon="11.4988818"><ele>241.5</ele><time>2026-04-11T09:41:36.921Z</time></trkpt><trkpt lat="45.4757356" lon="11.4989892"><ele>241.0</ele><time>2026-04-11T09:41:37.921Z</time></trkpt><trkpt lat="45.475756" lon="11.4990949"><ele>240.5</ele><time>2026-04-11T09:41:38.921Z</time></trkpt><trkpt lat="45.4757878" lon="11.4992075"><ele>240.0</ele><time>2026-04-11T09:41:39.921Z</time></trkpt><trkpt lat="45.4758115" lon="11.4993304"><ele>240.0</ele><time>2026-04-11T09:41:40.921Z</time></trkpt><trkpt lat="45.4758356" lon="11.4994766"><ele>240.0</ele><time>2026-04-11T09:41:41.921Z</time></trkpt><trkpt lat="45.4758536" lon="11.4996601"><ele>240.0</ele><time>2026-04-11T09:41:42.921Z</time></trkpt><trkpt lat="45.4758838" lon="11.4998637"><ele>240.0</ele><time>2026-04-11T09:41:43.921Z</time></trkpt><trkpt lat="45.4759069" lon="11.5001036"><ele>239.66666666666669</ele><time>2026-04-11T09:41:44.921Z</time></trkpt><trkpt lat="45.4759314" lon="11.5003406"><ele>239.33333333333334</ele><time>2026-04-11T09:41:45.921Z</time></trkpt><trkpt lat="45.4759433" lon="11.5005722"><ele>239.0</ele><time>2026-04-11T09:41:46.921Z</time></trkpt><trkpt lat="45.4759535" lon="11.5008"><ele>237.33333333333334</ele><time>2026-04-11T09:41:47.921Z</time></trkpt><trkpt lat="45.4759517" lon="11.501023"><ele>235.66666666666669</ele><time>2026-04-11T09:41:48.921Z</time></trkpt><trkpt lat="45.4759531" lon="11.501246"><ele>234.0</ele><time>2026-04-11T09:41:49.921Z</time></trkpt><trkpt lat="45.4759493" lon="11.5014695"><ele>233.66666666666669</ele><time>2026-04-11T09:41:50.921Z</time></trkpt><trkpt lat="45.4759379" lon="11.501692"><ele>233.33333333333334</ele><time>2026-04-11T09:41:51.921Z</time></trkpt><trkpt lat="45.4759349" lon="11.5019119"><ele>233.0</ele><time>2026-04-11T09:41:52.921Z</time></trkpt><trkpt lat="45.4759346" lon="11.5021254"><ele>232.66666666666669</ele><time>2026-04-11T09:41:53.921Z</time></trkpt><trkpt lat="45.4759339" lon="11.5023365"><ele>232.33333333333331</ele><time>2026-04-11T09:41:54.921Z</time></trkpt><trkpt lat="45.4759429" lon="11.5025554"><ele>232.0</ele><time>2026-04-11T09:41:55.921Z</time></trkpt><trkpt lat="45.4759546" lon="11.5027761"><ele>230.66666666666666</ele><time>2026-04-11T09:41:56.921Z</time></trkpt><trkpt lat="45.4759748" lon="11.5030012"><ele>229.33333333333331</ele><time>2026-04-11T09:41:57.921Z</time></trkpt><trkpt lat="45.4759964" lon="11.5032298"><ele>228.0</ele><time>2026-04-11T09:41:58.92Z</time></trkpt><trkpt lat="45.4760124" lon="11.5034448"><ele>228.0</ele><time>2026-04-11T09:41:59.921Z</time></trkpt><trkpt lat="45.476035" lon="11.5036339"><ele>228.0</ele><time>2026-04-11T09:42:00.921Z</time></trkpt><trkpt lat="45.4760659" lon="11.5037982"><ele>228.0</ele><time>2026-04-11T09:42:01.921Z</time></trkpt><trkpt lat="45.4761318" lon="11.5039376"><ele>228.0</ele><time>2026-04-11T09:42:02.921Z</time></trkpt><trkpt lat="45.4762199" lon="11.504066"><ele>226.25</ele><time>2026-04-11T09:42:03.921Z</time></trkpt><trkpt lat="45.4763034" lon="11.5041876"><ele>224.5</ele><time>2026-04-11T09:42:04.921Z</time></trkpt><trkpt lat="45.4764201" lon="11.5043041"><ele>222.75</ele><time>2026-04-11T09:42:05.921Z</time></trkpt><trkpt lat="45.476537" lon="11.5044088"><ele>221.0</ele><time>2026-04-11T09:42:06.921Z</time></trkpt><trkpt lat="45.4766592" lon="11.5044929"><ele>221.0</ele><time>2026-04-11T09:42:07.921Z</time></trkpt><trkpt lat="45.4767928" lon="11.5045614"><ele>221.0</ele><time>2026-04-11T09:42:08.921Z</time></trkpt><trkpt lat="45.4769371" lon="11.5045811"><ele>221.0</ele><time>2026-04-11T09:42:09.921Z</time></trkpt><trkpt lat="45.4770898" lon="11.5045512"><ele>221.0</ele><time>2026-04-11T09:42:10.921Z</time></trkpt><trkpt lat="45.4772404" lon="11.5044899"><ele>220.33333333333334</ele><time>2026-04-11T09:42:11.921Z</time></trkpt><trkpt lat="45.4773961" lon="11.5044137"><ele>219.66666666666669</ele><time>2026-04-11T09:42:12.921Z</time></trkpt><trkpt lat="45.4775436" lon="11.5043409"><ele>219.0</ele><time>2026-04-11T09:42:13.921Z</time></trkpt><trkpt lat="45.4776856" lon="11.5042792"><ele>219.0</ele><time>2026-04-11T09:42:14.921Z</time></trkpt><trkpt lat="45.4778314" lon="11.5042544"><ele>219.0</ele><time>2026-04-11T09:42:15.921Z</time></trkpt><trkpt lat="45.4779841" lon="11.5042475"><ele>219.0</ele><time>2026-04-11T09:42:16.921Z</time></trkpt><trkpt lat="45.4781213" lon="11.5042454"><ele>219.0</ele><time>2026-04-11T09:42:17.921Z</time></trkpt><trkpt lat="45.4782461" lon="11.5042506"><ele>219.2</ele><time>2026-04-11T09:42:18.921Z</time></trkpt><trkpt lat="45.4783605" lon="11.5042747"><ele>219.39999999999998</ele><time>2026-04-11T09:42:19.921Z</time></trkpt><trkpt lat="45.4784482" lon="11.5043206"><ele>219.6</ele><time>2026-04-11T09:42:20.921Z</time></trkpt><trkpt lat="45.4785107" lon="11.5044109"><ele>219.8</ele><time>2026-04-11T09:42:21.921Z</time></trkpt><trkpt lat="45.4785433" lon="11.5045263"><ele>220.0</ele><time>2026-04-11T09:42:22.921Z</time></trkpt><trkpt lat="45.4785585" lon="11.504673"><ele>220.0</ele><time>2026-04-11T09:42:23.921Z</time></trkpt><trkpt lat="45.4785614" lon="11.5048516"><ele>220.0</ele><time>2026-04-11T09:42:24.921Z</time></trkpt><trkpt lat="45.4785609" lon="11.5050453"><ele>220.0</ele><time>2026-04-11T09:42:25.921Z</time></trkpt><trkpt lat="45.4785563" lon="11.5052258"><ele>220.0</ele><time>2026-04-11T09:42:26.921Z</time></trkpt><trkpt lat="45.4785713" lon="11.5053774"><ele>219.2</ele><time>2026-04-11T09:42:27.921Z</time></trkpt><trkpt lat="45.4786107" lon="11.5055096"><ele>218.4</ele><time>2026-04-11T09:42:28.921Z</time></trkpt><trkpt lat="45.4786623" lon="11.5056127"><ele>217.60000000000002</ele><time>2026-04-11T09:42:29.921Z</time></trkpt><trkpt lat="45.478737" lon="11.5056863"><ele>216.8</ele><time>2026-04-11T09:42:30.921Z</time></trkpt><trkpt lat="45.4788313" lon="11.5057267"><ele>216.0</ele><time>2026-04-11T09:42:31.921Z</time></trkpt><trkpt lat="45.478932" lon="11.5057236"><ele>215.75</ele><time>2026-04-11T09:42:32.921Z</time></trkpt><trkpt lat="45.4790381" lon="11.5056806"><ele>215.5</ele><time>2026-04-11T09:42:33.921Z</time></trkpt><trkpt lat="45.479145" lon="11.5056117"><ele>215.25</ele><time>2026-04-11T09:42:34.921Z</time></trkpt><trkpt lat="45.4792497" lon="11.5055414"><ele>215.0</ele><time>2026-04-11T09:42:35.921Z</time></trkpt><trkpt lat="45.4793545" lon="11.5054666"><ele>213.5</ele><time>2026-04-11T09:42:36.921Z</time></trkpt><trkpt lat="45.4794564" lon="11.5053854"><ele>212.0</ele><time>2026-04-11T09:42:37.921Z</time></trkpt><trkpt lat="45.4795607" lon="11.5052894"><ele>210.5</ele><time>2026-04-11T09:42:38.921Z</time></trkpt><trkpt lat="45.4796604" lon="11.5051917"><ele>209.0</ele><time>2026-04-11T09:42:39.921Z</time></trkpt><trkpt lat="45.4797534" lon="11.505063"><ele>208.5</ele><time>2026-04-11T09:42:40.92Z</time></trkpt><trkpt lat="45.4798484" lon="11.5049257"><ele>208.0</ele><time>2026-04-11T09:42:41.921Z</time></trkpt><trkpt lat="45.4799396" lon="11.5047906"><ele>207.5</ele><time>2026-04-11T09:42:42.921Z</time></trkpt><trkpt lat="45.4800293" lon="11.5046767"><ele>207.0</ele><time>2026-04-11T09:42:43.921Z</time></trkpt><trkpt lat="45.4801226" lon="11.5045888"><ele>206.0</ele><time>2026-04-11T09:42:44.921Z</time></trkpt><trkpt lat="45.4802137" lon="11.5045196"><ele>205.0</ele><time>2026-04-11T09:42:45.92Z</time></trkpt><trkpt lat="45.4803004" lon="11.5044709"><ele>204.0</ele><time>2026-04-11T09:42:46.921Z</time></trkpt><trkpt lat="45.4803731" lon="11.5044469"><ele>203.0</ele><time>2026-04-11T09:42:47.921Z</time></trkpt><trkpt lat="45.4804461" lon="11.5044623"><ele>202.0</ele><time>2026-04-11T09:42:48.921Z</time></trkpt><trkpt lat="45.4805171" lon="11.5045204"><ele>201.0</ele><time>2026-04-11T09:42:49.921Z</time></trkpt><trkpt lat="45.48059" lon="11.5045903"><ele>201.0</ele><time>2026-04-11T09:42:50.921Z</time></trkpt><trkpt lat="45.4806772" lon="11.5046661"><ele>201.0</ele><time>2026-04-11T09:42:51.921Z</time></trkpt><trkpt lat="45.4807606" lon="11.5047528"><ele>201.0</ele><time>2026-04-11T09:42:52.921Z</time></trkpt><trkpt lat="45.4808335" lon="11.5048382"><ele>201.0</ele><time>2026-04-11T09:42:53.921Z</time></trkpt><trkpt lat="45.4808928" lon="11.5049153"><ele>201.0</ele><time>2026-04-11T09:42:54.921Z</time></trkpt><trkpt lat="45.4809322" lon="11.5050103"><ele>201.0</ele><time>2026-04-11T09:42:55.921Z</time></trkpt><trkpt lat="45.4809431" lon="11.505114"><ele>201.0</ele><time>2026-04-11T09:42:56.92Z</time></trkpt><trkpt lat="45.4809282" lon="11.505222"><ele>201.0</ele><time>2026-04-11T09:42:57.921Z</time></trkpt><trkpt lat="45.4808938" lon="11.50533"><ele>201.0</ele><time>2026-04-11T09:42:58.921Z</time></trkpt><trkpt lat="45.4808418" lon="11.5054382"><ele>201.0</ele><time>2026-04-11T09:42:59.921Z</time></trkpt><trkpt lat="45.4807755" lon="11.5055559"><ele>201.0</ele><time>2026-04-11T09:43:00.921Z</time></trkpt><trkpt lat="45.4807042" lon="11.5056724"><ele>199.8</ele><time>2026-04-11T09:43:01.921Z</time></trkpt><trkpt lat="45.4806415" lon="11.5057879"><ele>198.60000000000002</ele><time>2026-04-11T09:43:02.921Z</time></trkpt><trkpt lat="45.4805995" lon="11.5059167"><ele>197.4</ele><time>2026-04-11T09:43:03.921Z</time></trkpt><trkpt lat="45.4805723" lon="11.5060607"><ele>196.2</ele><time>2026-04-11T09:43:04.921Z</time></trkpt><trkpt lat="45.4805844" lon="11.5062144"><ele>195.0</ele><time>2026-04-11T09:43:05.921Z</time></trkpt><trkpt lat="45.4806024" lon="11.5063744"><ele>192.66666666666666</ele><time>2026-04-11T09:43:06.921Z</time></trkpt><trkpt lat="45.4806541" lon="11.5065886"><ele>190.33333333333331</ele><time>2026-04-11T09:43:07.921Z</time></trkpt><trkpt lat="45.4806997" lon="11.5067992"><ele>188.0</ele><time>2026-04-11T09:43:08.921Z</time></trkpt><trkpt lat="45.4807386" lon="11.5070185"><ele>186.0</ele><time>2026-04-11T09:43:09.921Z</time></trkpt><trkpt lat="45.4807777" lon="11.5072511"><ele>184.0</ele><time>2026-04-11T09:43:10.921Z</time></trkpt><trkpt lat="45.4808137" lon="11.5074831"><ele>182.0</ele><time>2026-04-11T09:43:11.921Z</time></trkpt><trkpt lat="45.4808416" lon="11.5077164"><ele>181.0</ele><time>2026-04-11T09:43:12.921Z</time></trkpt><trkpt lat="45.480861" lon="11.5079426"><ele>180.0</ele><time>2026-04-11T09:43:13.921Z</time></trkpt><trkpt lat="45.4808744" lon="11.5081559"><ele>179.0</ele><time>2026-04-11T09:43:14.921Z</time></trkpt><trkpt lat="45.4808919" lon="11.5083561"><ele>179.0</ele><time>2026-04-11T09:43:15.921Z</time></trkpt><trkpt lat="45.4809301" lon="11.5085446"><ele>179.0</ele><time>2026-04-11T09:43:16.921Z</time></trkpt><trkpt lat="45.4809893" lon="11.5087294"><ele>179.0</ele><time>2026-04-11T09:43:17.921Z</time></trkpt><trkpt lat="45.4810739" lon="11.5089107"><ele>179.0</ele><time>2026-04-11T09:43:18.921Z</time></trkpt><trkpt lat="45.4811773" lon="11.509084"><ele>177.0</ele><time>2026-04-11T09:43:19.921Z</time></trkpt><trkpt lat="45.4812856" lon="11.5092609"><ele>175.0</ele><time>2026-04-11T09:43:20.921Z</time></trkpt><trkpt lat="45.4813986" lon="11.5094487"><ele>173.0</ele><time>2026-04-11T09:43:21.921Z</time></trkpt><trkpt lat="45.4815066" lon="11.5096407"><ele>172.33333333333331</ele><time>2026-04-11T09:43:22.921Z</time></trkpt><trkpt lat="45.4816167" lon="11.5098287"><ele>171.66666666666666</ele><time>2026-04-11T09:43:23.921Z</time></trkpt><trkpt lat="45.4817303" lon="11.510017"><ele>171.0</ele><time>2026-04-11T09:43:24.921Z</time></trkpt><trkpt lat="45.4818444" lon="11.5102006"><ele>171.0</ele><time>2026-04-11T09:43:25.921Z</time></trkpt><trkpt lat="45.4819571" lon="11.5103742"><ele>171.0</ele><time>2026-04-11T09:43:26.921Z</time></trkpt><trkpt lat="45.4820673" lon="11.5105384"><ele>171.0</ele><time>2026-04-11T09:43:27.921Z</time></trkpt><trkpt lat="45.4821843" lon="11.510695"><ele>171.0</ele><time>2026-04-11T09:43:28.921Z</time></trkpt><trkpt lat="45.4823022" lon="11.5108476"><ele>171.0</ele><time>2026-04-11T09:43:29.921Z</time></trkpt><trkpt lat="45.4824209" lon="11.5110005"><ele>171.0</ele><time>2026-04-11T09:43:30.921Z</time></trkpt><trkpt lat="45.4825435" lon="11.5111643"><ele>169.0</ele><time>2026-04-11T09:43:31.921Z</time></trkpt><trkpt lat="45.4826621" lon="11.5113381"><ele>167.0</ele><time>2026-04-11T09:43:32.921Z</time></trkpt><trkpt lat="45.4827823" lon="11.5115191"><ele>165.0</ele><time>2026-04-11T09:43:33.921Z</time></trkpt><trkpt lat="45.482903" lon="11.5117104"><ele>165.0</ele><time>2026-04-11T09:43:34.921Z</time></trkpt><trkpt lat="45.4830246" lon="11.5118973"><ele>165.0</ele><time>2026-04-11T09:43:35.921Z</time></trkpt><trkpt lat="45.4831385" lon="11.512073"><ele>165.0</ele><time>2026-04-11T09:43:36.921Z</time></trkpt><trkpt lat="45.483246" lon="11.5122387"><ele>165.0</ele><time>2026-04-11T09:43:37.92Z</time></trkpt><trkpt lat="45.4833459" lon="11.5123875"><ele>165.0</ele><time>2026-04-11T09:43:38.921Z</time></trkpt><trkpt lat="45.4834483" lon="11.5125216"><ele>165.0</ele><time>2026-04-11T09:43:39.921Z</time></trkpt><trkpt lat="45.4835575" lon="11.5126478"><ele>165.0</ele><time>2026-04-11T09:43:40.921Z</time></trkpt><trkpt lat="45.4836938" lon="11.5127647"><ele>164.33333333333334</ele><time>2026-04-11T09:43:41.921Z</time></trkpt><trkpt lat="45.4838597" lon="11.512888"><ele>163.66666666666669</ele><time>2026-04-11T09:43:42.921Z</time></trkpt><trkpt lat="45.4840504" lon="11.5130303"><ele>163.0</ele><time>2026-04-11T09:43:43.921Z</time></trkpt><trkpt lat="45.4842555" lon="11.5131819"><ele>161.33333333333334</ele><time>2026-04-11T09:43:44.921Z</time></trkpt><trkpt lat="45.484459" lon="11.5133355"><ele>159.66666666666666</ele><time>2026-04-11T09:43:45.921Z</time></trkpt><trkpt lat="45.4846364" lon="11.5134842"><ele>158.0</ele><time>2026-04-11T09:43:46.92Z</time></trkpt><trkpt lat="45.4847951" lon="11.5136539"><ele>157.66666666666666</ele><time>2026-04-11T09:43:47.921Z</time></trkpt><trkpt lat="45.4849515" lon="11.513842"><ele>157.33333333333334</ele><time>2026-04-11T09:43:48.921Z</time></trkpt><trkpt lat="45.4851054" lon="11.5140333"><ele>157.0</ele><time>2026-04-11T09:43:49.921Z</time></trkpt><trkpt lat="45.4852575" lon="11.5142271"><ele>157.0</ele><time>2026-04-11T09:43:50.921Z</time></trkpt><trkpt lat="45.4854047" lon="11.5144172"><ele>157.0</ele><time>2026-04-11T09:43:51.921Z</time></trkpt><trkpt lat="45.4855412" lon="11.5146053"><ele>157.0</ele><time>2026-04-11T09:43:52.921Z</time></trkpt><trkpt lat="45.4856704" lon="11.5147963"><ele>157.33333333333334</ele><time>2026-04-11T09:43:53.921Z</time></trkpt><trkpt lat="45.4857902" lon="11.5149976"><ele>157.66666666666666</ele><time>2026-04-11T09:43:54.921Z</time></trkpt><trkpt lat="45.4859085" lon="11.5152015"><ele>158.0</ele><time>2026-04-11T09:43:55.921Z</time></trkpt><trkpt lat="45.4860224" lon="11.5153989"><ele>158.0</ele><time>2026-04-11T09:43:56.921Z</time></trkpt><trkpt lat="45.4861325" lon="11.51559"><ele>158.0</ele><time>2026-04-11T09:43:57.92Z</time></trkpt><trkpt lat="45.4862451" lon="11.5157785"><ele>158.0</ele><time>2026-04-11T09:43:58.921Z</time></trkpt><trkpt lat="45.4863664" lon="11.5159543"><ele>158.66666666666666</ele><time>2026-04-11T09:43:59.921Z</time></trkpt><trkpt lat="45.4864976" lon="11.5161214"><ele>159.33333333333334</ele><time>2026-04-11T09:44:00.92Z</time></trkpt><trkpt lat="45.486625" lon="11.5162886"><ele>160.0</ele><time>2026-04-11T09:44:01.921Z</time></trkpt><trkpt lat="45.4867554" lon="11.5164544"><ele>160.0</ele><time>2026-04-11T09:44:02.921Z</time></trkpt><trkpt lat="45.4868876" lon="11.5166233"><ele>160.0</ele><time>2026-04-11T09:44:03.921Z</time></trkpt><trkpt lat="45.4870209" lon="11.5167883"><ele>160.0</ele><time>2026-04-11T09:44:04.921Z</time></trkpt><trkpt lat="45.4871533" lon="11.5169518"><ele>161.66666666666669</ele><time>2026-04-11T09:44:05.921Z</time></trkpt><trkpt lat="45.4872795" lon="11.5171088"><ele>163.33333333333334</ele><time>2026-04-11T09:44:06.921Z</time></trkpt><trkpt lat="45.4873896" lon="11.5172689"><ele>165.0</ele><time>2026-04-11T09:44:07.921Z</time></trkpt><trkpt lat="45.4874793" lon="11.5174605"><ele>165.0</ele><time>2026-04-11T09:44:08.921Z</time></trkpt><trkpt lat="45.4875592" lon="11.5176649"><ele>165.0</ele><time>2026-04-11T09:44:09.921Z</time></trkpt><trkpt lat="45.4876379" lon="11.5178714"><ele>165.0</ele><time>2026-04-11T09:44:10.921Z</time></trkpt><trkpt lat="45.4877276" lon="11.5180722"><ele>164.33333333333334</ele><time>2026-04-11T09:44:11.921Z</time></trkpt><trkpt lat="45.4878371" lon="11.5182629"><ele>163.66666666666669</ele><time>2026-04-11T09:44:12.921Z</time></trkpt><trkpt lat="45.4879535" lon="11.5184482"><ele>163.0</ele><time>2026-04-11T09:44:13.921Z</time></trkpt><trkpt lat="45.4880703" lon="11.5186306"><ele>162.0</ele><time>2026-04-11T09:44:14.921Z</time></trkpt><trkpt lat="45.4881969" lon="11.5188185"><ele>161.0</ele><time>2026-04-11T09:44:15.921Z</time></trkpt><trkpt lat="45.4882879" lon="11.518976"><ele>160.0</ele><time>2026-04-11T09:44:16.921Z</time></trkpt><trkpt lat="45.4883751" lon="11.5191409"><ele>160.0</ele><time>2026-04-11T09:44:17.921Z</time></trkpt><trkpt lat="45.4884473" lon="11.5192986"><ele>160.0</ele><time>2026-04-11T09:44:18.921Z</time></trkpt><trkpt lat="45.488489" lon="11.5194617"><ele>160.0</ele><time>2026-04-11T09:44:19.921Z</time></trkpt><trkpt lat="45.4884978" lon="11.5196344"><ele>160.0</ele><time>2026-04-11T09:44:20.921Z</time></trkpt><trkpt lat="45.488497" lon="11.5198075"><ele>159.5</ele><time>2026-04-11T09:44:21.921Z</time></trkpt><trkpt lat="45.4884522" lon="11.5200064"><ele>159.0</ele><time>2026-04-11T09:44:22.921Z</time></trkpt><trkpt lat="45.4884023" lon="11.5202004"><ele>158.5</ele><time>2026-04-11T09:44:23.921Z</time></trkpt><trkpt lat="45.4883518" lon="11.5203975"><ele>158.0</ele><time>2026-04-11T09:44:24.921Z</time></trkpt><trkpt lat="45.4883107" lon="11.5206069"><ele>158.66666666666666</ele><time>2026-04-11T09:44:25.921Z</time></trkpt><trkpt lat="45.488285" lon="11.5208089"><ele>159.33333333333334</ele><time>2026-04-11T09:44:26.921Z</time></trkpt><trkpt lat="45.4882854" lon="11.5210196"><ele>160.0</ele><time>2026-04-11T09:44:27.921Z</time></trkpt><trkpt lat="45.4882982" lon="11.5212484"><ele>160.0</ele><time>2026-04-11T09:44:28.921Z</time></trkpt><trkpt lat="45.4883284" lon="11.5214695"><ele>160.0</ele><time>2026-04-11T09:44:29.921Z</time></trkpt><trkpt lat="45.4883799" lon="11.5216819"><ele>160.0</ele><time>2026-04-11T09:44:30.921Z</time></trkpt><trkpt lat="45.4884456" lon="11.5218921"><ele>156.66666666666669</ele><time>2026-04-11T09:44:31.921Z</time></trkpt><trkpt lat="45.488516" lon="11.5221086"><ele>153.33333333333334</ele><time>2026-04-11T09:44:32.921Z</time></trkpt><trkpt lat="45.4885871" lon="11.5223178"><ele>150.0</ele><time>2026-04-11T09:44:33.921Z</time></trkpt><trkpt lat="45.4886527" lon="11.5225116"><ele>150.0</ele><time>2026-04-11T09:44:34.921Z</time></trkpt><trkpt lat="45.4887176" lon="11.522694"><ele>150.0</ele><time>2026-04-11T09:44:35.921Z</time></trkpt><trkpt lat="45.4887834" lon="11.5228539"><ele>150.0</ele><time>2026-04-11T09:44:36.921Z</time></trkpt><trkpt lat="45.4888494" lon="11.5229963"><ele>150.0</ele><time>2026-04-11T09:44:37.921Z</time></trkpt><trkpt lat="45.4889275" lon="11.5231005"><ele>151.25</ele><time>2026-04-11T09:44:38.921Z</time></trkpt><trkpt lat="45.4890435" lon="11.5231654"><ele>152.5</ele><time>2026-04-11T09:44:39.921Z</time></trkpt><trkpt lat="45.489157" lon="11.5232306"><ele>153.75</ele><time>2026-04-11T09:44:40.921Z</time></trkpt><trkpt lat="45.4893135" lon="11.5232531"><ele>155.0</ele><time>2026-04-11T09:44:41.921Z</time></trkpt><trkpt lat="45.4894708" lon="11.5232708"><ele>157.25</ele><time>2026-04-11T09:44:42.921Z</time></trkpt><trkpt lat="45.4896227" lon="11.5232974"><ele>159.5</ele><time>2026-04-11T09:44:43.921Z</time></trkpt><trkpt lat="45.489769" lon="11.5233444"><ele>161.75</ele><time>2026-04-11T09:44:44.921Z</time></trkpt><trkpt lat="45.4898948" lon="11.5234141"><ele>164.0</ele><time>2026-04-11T09:44:45.921Z</time></trkpt><trkpt lat="45.4900024" lon="11.5234839"><ele>164.0</ele><time>2026-04-11T09:44:46.92Z</time></trkpt><trkpt lat="45.4900914" lon="11.5235797"><ele>164.0</ele><time>2026-04-11T09:44:47.921Z</time></trkpt><trkpt lat="45.4901462" lon="11.5237031"><ele>164.0</ele><time>2026-04-11T09:44:48.92Z</time></trkpt><trkpt lat="45.4901689" lon="11.5238518"><ele>164.0</ele><time>2026-04-11T09:44:49.921Z</time></trkpt><trkpt lat="45.4901623" lon="11.524013"><ele>164.0</ele><time>2026-04-11T09:44:50.921Z</time></trkpt><trkpt lat="45.4901465" lon="11.5241799"><ele>161.6</ele><time>2026-04-11T09:44:51.921Z</time></trkpt><trkpt lat="45.4901429" lon="11.524341"><ele>159.2</ele><time>2026-04-11T09:44:52.921Z</time></trkpt><trkpt lat="45.4901607" lon="11.5244944"><ele>156.79999999999998</ele><time>2026-04-11T09:44:53.921Z</time></trkpt><trkpt lat="45.4901921" lon="11.5246259"><ele>154.39999999999998</ele><time>2026-04-11T09:44:54.921Z</time></trkpt><trkpt lat="45.4902445" lon="11.524739"><ele>152.0</ele><time>2026-04-11T09:44:55.921Z</time></trkpt><trkpt lat="45.4903171" lon="11.5248379"><ele>152.0</ele><time>2026-04-11T09:44:56.921Z</time></trkpt><trkpt lat="45.4903964" lon="11.52492"><ele>152.0</ele><time>2026-04-11T09:44:57.921Z</time></trkpt><trkpt lat="45.4904878" lon="11.5249794"><ele>152.0</ele><time>2026-04-11T09:44:58.921Z</time></trkpt><trkpt lat="45.4905857" lon="11.5249971"><ele>152.0</ele><time>2026-04-11T09:44:59.921Z</time></trkpt><trkpt lat="45.4906851" lon="11.5249998"><ele>152.0</ele><time>2026-04-11T09:45:00.921Z</time></trkpt><trkpt lat="45.4907901" lon="11.5249558"><ele>152.0</ele><time>2026-04-11T09:45:01.921Z</time></trkpt><trkpt lat="45.4908899" lon="11.5249014"><ele>152.0</ele><time>2026-04-11T09:45:02.921Z</time></trkpt><trkpt lat="45.4909805" lon="11.5248437"><ele>152.0</ele><time>2026-04-11T09:45:03.921Z</time></trkpt><trkpt lat="45.491076" lon="11.5247895"><ele>152.0</ele><time>2026-04-11T09:45:04.921Z</time></trkpt><trkpt lat="45.4911749" lon="11.5247282"><ele>152.0</ele><time>2026-04-11T09:45:05.921Z</time></trkpt><trkpt lat="45.4912724" lon="11.5246745"><ele>151.6</ele><time>2026-04-11T09:45:06.921Z</time></trkpt><trkpt lat="45.4913654" lon="11.5246191"><ele>151.2</ele><time>2026-04-11T09:45:07.921Z</time></trkpt><trkpt lat="45.4914598" lon="11.5245675"><ele>150.8</ele><time>2026-04-11T09:45:08.921Z</time></trkpt><trkpt lat="45.4915569" lon="11.5245354"><ele>150.4</ele><time>2026-04-11T09:45:09.921Z</time></trkpt><trkpt lat="45.4916631" lon="11.5245259"><ele>150.0</ele><time>2026-04-11T09:45:10.921Z</time></trkpt><trkpt lat="45.4917645" lon="11.524531"><ele>150.0</ele><time>2026-04-11T09:45:11.921Z</time></trkpt><trkpt lat="45.4918668" lon="11.5245708"><ele>150.0</ele><time>2026-04-11T09:45:12.921Z</time></trkpt><trkpt lat="45.4919669" lon="11.5246273"><ele>150.0</ele><time>2026-04-11T09:45:13.921Z</time></trkpt><trkpt lat="45.4920622" lon="11.524705"><ele>150.0</ele><time>2026-04-11T09:45:14.921Z</time></trkpt><trkpt lat="45.4921575" lon="11.5247943"><ele>150.0</ele><time>2026-04-11T09:45:15.921Z</time></trkpt><trkpt lat="45.4922526" lon="11.5248992"><ele>151.5</ele><time>2026-04-11T09:45:16.921Z</time></trkpt><trkpt lat="45.4923452" lon="11.5249939"><ele>153.0</ele><time>2026-04-11T09:45:17.921Z</time></trkpt><trkpt lat="45.4924392" lon="11.5250909"><ele>154.5</ele><time>2026-04-11T09:45:18.921Z</time></trkpt><trkpt lat="45.4925319" lon="11.5251762"><ele>156.0</ele><time>2026-04-11T09:45:19.921Z</time></trkpt><trkpt lat="45.4926305" lon="11.5252526"><ele>156.0</ele><time>2026-04-11T09:45:20.921Z</time></trkpt><trkpt lat="45.4927365" lon="11.525298"><ele>156.0</ele><time>2026-04-11T09:45:21.921Z</time></trkpt><trkpt lat="45.4928527" lon="11.5253185"><ele>156.0</ele><time>2026-04-11T09:45:22.921Z</time></trkpt><trkpt lat="45.4929672" lon="11.5253281"><ele>156.0</ele><time>2026-04-11T09:45:23.921Z</time></trkpt><trkpt lat="45.4930803" lon="11.5253387"><ele>156.4</ele><time>2026-04-11T09:45:24.921Z</time></trkpt><trkpt lat="45.4931901" lon="11.5253475"><ele>156.8</ele><time>2026-04-11T09:45:25.921Z</time></trkpt><trkpt lat="45.4932829" lon="11.5253607"><ele>157.20000000000002</ele><time>2026-04-11T09:45:26.921Z</time></trkpt><trkpt lat="45.4933729" lon="11.5253688"><ele>157.6</ele><time>2026-04-11T09:45:27.921Z</time></trkpt><trkpt lat="45.4934484" lon="11.5253524"><ele>158.0</ele><time>2026-04-11T09:45:28.921Z</time></trkpt><trkpt lat="45.4935206" lon="11.5253039"><ele>158.0</ele><time>2026-04-11T09:45:29.921Z</time></trkpt><trkpt lat="45.4935746" lon="11.5252384"><ele>158.0</ele><time>2026-04-11T09:45:30.921Z</time></trkpt><trkpt lat="45.4936121" lon="11.5251522"><ele>158.0</ele><time>2026-04-11T09:45:31.92Z</time></trkpt><trkpt lat="45.4936499" lon="11.5250599"><ele>158.0</ele><time>2026-04-11T09:45:32.921Z</time></trkpt><trkpt lat="45.4936751" lon="11.5249424"><ele>158.0</ele><time>2026-04-11T09:45:33.92Z</time></trkpt><trkpt lat="45.4936973" lon="11.5248319"><ele>158.0</ele><time>2026-04-11T09:45:34.921Z</time></trkpt><trkpt lat="45.4937105" lon="11.5247218"><ele>158.0</ele><time>2026-04-11T09:45:35.921Z</time></trkpt><trkpt lat="45.4937236" lon="11.5246335"><ele>158.0</ele><time>2026-04-11T09:45:36.921Z</time></trkpt><trkpt lat="45.493749" lon="11.5245313"><ele>158.0</ele><time>2026-04-11T09:45:37.921Z</time></trkpt><trkpt lat="45.4937969" lon="11.5244039"><ele>158.0</ele><time>2026-04-11T09:45:38.921Z</time></trkpt><trkpt lat="45.493856" lon="11.5242724"><ele>158.0</ele><time>2026-04-11T09:45:39.921Z</time></trkpt><trkpt lat="45.4939402" lon="11.5241599"><ele>157.0</ele><time>2026-04-11T09:45:40.921Z</time></trkpt><trkpt lat="45.4940351" lon="11.5240709"><ele>156.0</ele><time>2026-04-11T09:45:41.921Z</time></trkpt><trkpt lat="45.4941415" lon="11.5240217"><ele>155.0</ele><time>2026-04-11T09:45:42.921Z</time></trkpt><trkpt lat="45.4942411" lon="11.5239926"><ele>154.0</ele><time>2026-04-11T09:45:43.921Z</time></trkpt><trkpt lat="45.4943265" lon="11.52398"><ele>153.0</ele><time>2026-04-11T09:45:44.921Z</time></trkpt><trkpt lat="45.4944087" lon="11.5240061"><ele>153.0</ele><time>2026-04-11T09:45:45.921Z</time></trkpt><trkpt lat="45.4944952" lon="11.5240862"><ele>153.0</ele><time>2026-04-11T09:45:46.921Z</time></trkpt><trkpt lat="45.4945745" lon="11.5241787"><ele>153.0</ele><time>2026-04-11T09:45:47.921Z</time></trkpt><trkpt lat="45.4946575" lon="11.5242726"><ele>153.0</ele><time>2026-04-11T09:45:48.921Z</time></trkpt><trkpt lat="45.4947455" lon="11.5243708"><ele>153.0</ele><time>2026-04-11T09:45:49.92Z</time></trkpt><trkpt lat="45.4948376" lon="11.5244775"><ele>152.8</ele><time>2026-04-11T09:45:50.921Z</time></trkpt><trkpt lat="45.4949147" lon="11.5246144"><ele>152.60000000000002</ele><time>2026-04-11T09:45:51.92Z</time></trkpt><trkpt lat="45.4949633" lon="11.5247775"><ele>152.39999999999998</ele><time>2026-04-11T09:45:52.921Z</time></trkpt><trkpt lat="45.4949978" lon="11.5249213"><ele>152.2</ele><time>2026-04-11T09:45:53.921Z</time></trkpt><trkpt lat="45.4950041" lon="11.5250212"><ele>152.0</ele><time>2026-04-11T09:45:54.921Z</time></trkpt><trkpt lat="45.4949949" lon="11.525156"><ele>152.0</ele><time>2026-04-11T09:45:56.921Z</time></trkpt><trkpt lat="45.4950472" lon="11.5252178"><ele>152.0</ele><time>2026-04-11T09:46:00.921Z</time></trkpt><trkpt lat="45.4950735" lon="11.5251096"><ele>152.0</ele><time>2026-04-11T09:46:11.921Z</time></trkpt><trkpt lat="45.4950476" lon="11.5250039"><ele>152.0</ele><time>2026-04-11T09:46:12.921Z</time></trkpt><trkpt lat="45.4950235" lon="11.5248536"><ele>152.0</ele><time>2026-04-11T09:46:13.921Z</time></trkpt><trkpt lat="45.4949819" lon="11.524706"><ele>152.0</ele><time>2026-04-11T09:46:14.921Z</time></trkpt><trkpt lat="45.4949439" lon="11.5245641"><ele>152.2</ele><time>2026-04-11T09:46:15.921Z</time></trkpt><trkpt lat="45.4948809" lon="11.5244402"><ele>152.39999999999998</ele><time>2026-04-11T09:46:16.921Z</time></trkpt><trkpt lat="45.4947938" lon="11.5243454"><ele>152.60000000000002</ele><time>2026-04-11T09:46:17.921Z</time></trkpt><trkpt lat="45.4946999" lon="11.5242519"><ele>152.8</ele><time>2026-04-11T09:46:18.921Z</time></trkpt><trkpt lat="45.4946132" lon="11.5241507"><ele>153.0</ele><time>2026-04-11T09:46:19.921Z</time></trkpt><trkpt lat="45.4945264" lon="11.5240494"><ele>153.0</ele><time>2026-04-11T09:46:20.92Z</time></trkpt><trkpt lat="45.4944371" lon="11.5239784"><ele>153.0</ele><time>2026-04-11T09:46:21.921Z</time></trkpt><trkpt lat="45.4943359" lon="11.5239328"><ele>153.0</ele><time>2026-04-11T09:46:22.921Z</time></trkpt><trkpt lat="45.4942235" lon="11.5239515"><ele>153.0</ele><time>2026-04-11T09:46:23.921Z</time></trkpt><trkpt lat="45.4941108" lon="11.5239988"><ele>153.0</ele><time>2026-04-11T09:46:24.921Z</time></trkpt><trkpt lat="45.4940086" lon="11.5240576"><ele>153.0</ele><time>2026-04-11T09:46:25.921Z</time></trkpt><trkpt lat="45.4939193" lon="11.5241401"><ele>153.0</ele><time>2026-04-11T09:46:26.921Z</time></trkpt><trkpt lat="45.4938485" lon="11.5242418"><ele>153.0</ele><time>2026-04-11T09:46:27.921Z</time></trkpt><trkpt lat="45.4938101" lon="11.5243376"><ele>153.0</ele><time>2026-04-11T09:46:28.92Z</time></trkpt><trkpt lat="45.4938011" lon="11.5244329"><ele>153.0</ele><time>2026-04-11T09:46:29.921Z</time></trkpt><trkpt lat="45.4938003" lon="11.5245867"><ele>151.0</ele><time>2026-04-11T09:46:31.921Z</time></trkpt><trkpt lat="45.4937927" lon="11.5247072"><ele>149.0</ele><time>2026-04-11T09:46:33.921Z</time></trkpt><trkpt lat="45.4937883" lon="11.524827"><ele>147.0</ele><time>2026-04-11T09:46:35.921Z</time></trkpt><trkpt lat="45.4937808" lon="11.5249336"><ele>145.0</ele><time>2026-04-11T09:46:37.921Z</time></trkpt><trkpt lat="45.4937698" lon="11.5250517"><ele>143.0</ele><time>2026-04-11T09:46:39.921Z</time></trkpt><trkpt lat="45.4937588" lon="11.525247"><ele>143.0</ele><time>2026-04-11T09:46:41.921Z</time></trkpt><trkpt lat="45.493763" lon="11.5253643"><ele>143.0</ele><time>2026-04-11T09:46:42.921Z</time></trkpt><trkpt lat="45.4937611" lon="11.5254618"><ele>143.0</ele><time>2026-04-11T09:46:43.921Z</time></trkpt><trkpt lat="45.4937602" lon="11.5255682"><ele>143.0</ele><time>2026-04-11T09:46:44.921Z</time></trkpt><trkpt lat="45.4937509" lon="11.5256729"><ele>143.0</ele><time>2026-04-11T09:46:45.921Z</time></trkpt><trkpt lat="45.4937339" lon="11.525779"><ele>143.0</ele><time>2026-04-11T09:46:46.921Z</time></trkpt><trkpt lat="45.4937003" lon="11.525884"><ele>143.33333333333331</ele><time>2026-04-11T09:46:47.921Z</time></trkpt><trkpt lat="45.4936678" lon="11.5259643"><ele>143.66666666666666</ele><time>2026-04-11T09:46:48.92Z</time></trkpt><trkpt lat="45.4936115" lon="11.5260878"><ele>144.0</ele><time>2026-04-11T09:46:50.921Z</time></trkpt><trkpt lat="45.4935245" lon="11.5261255"><ele>144.33333333333334</ele><time>2026-04-11T09:46:52.921Z</time></trkpt><trkpt lat="45.4934307" lon="11.5260608"><ele>144.66666666666669</ele><time>2026-04-11T09:46:54.921Z</time></trkpt><trkpt lat="45.4933916" lon="11.5259706"><ele>145.0</ele><time>2026-04-11T09:46:55.921Z</time></trkpt><trkpt lat="45.4933478" lon="11.5258964"><ele>145.0</ele><time>2026-04-11T09:46:56.921Z</time></trkpt><trkpt lat="45.4932401" lon="11.5258357"><ele>145.0</ele><time>2026-04-11T09:46:58.921Z</time></trkpt><trkpt lat="45.4931684" lon="11.525864"><ele>145.0</ele><time>2026-04-11T09:46:59.921Z</time></trkpt><trkpt lat="45.4931031" lon="11.5259069"><ele>145.0</ele><time>2026-04-11T09:47:00.921Z</time></trkpt><trkpt lat="45.493031" lon="11.5259505"><ele>145.0</ele><time>2026-04-11T09:47:01.921Z</time></trkpt><trkpt lat="45.4929531" lon="11.5259686"><ele>145.0</ele><time>2026-04-11T09:47:02.921Z</time></trkpt><trkpt lat="45.4928739" lon="11.5259671"><ele>144.0</ele><time>2026-04-11T09:47:03.921Z</time></trkpt><trkpt lat="45.4927875" lon="11.5259526"><ele>143.0</ele><time>2026-04-11T09:47:04.921Z</time></trkpt><trkpt lat="45.4927046" lon="11.5259162"><ele>142.0</ele><time>2026-04-11T09:47:05.921Z</time></trkpt><trkpt lat="45.4926165" lon="11.525857"><ele>141.0</ele><time>2026-04-11T09:47:06.921Z</time></trkpt><trkpt lat="45.4925361" lon="11.5257999"><ele>140.0</ele><time>2026-04-11T09:47:07.921Z</time></trkpt><trkpt lat="45.4924594" lon="11.5257402"><ele>139.0</ele><time>2026-04-11T09:47:08.921Z</time></trkpt><trkpt lat="45.4923857" lon="11.5256796"><ele>139.0</ele><time>2026-04-11T09:47:09.921Z</time></trkpt><trkpt lat="45.4923158" lon="11.5256165"><ele>139.0</ele><time>2026-04-11T09:47:10.921Z</time></trkpt><trkpt lat="45.4922511" lon="11.5255514"><ele>139.0</ele><time>2026-04-11T09:47:11.921Z</time></trkpt><trkpt lat="45.4921893" lon="11.525486"><ele>139.0</ele><time>2026-04-11T09:47:12.921Z</time></trkpt><trkpt lat="45.4921293" lon="11.5254307"><ele>139.0</ele><time>2026-04-11T09:47:13.921Z</time></trkpt><trkpt lat="45.4920662" lon="11.5253824"><ele>139.0</ele><time>2026-04-11T09:47:14.921Z</time></trkpt><trkpt lat="45.4919914" lon="11.5253646"><ele>138.0</ele><time>2026-04-11T09:47:15.921Z</time></trkpt><trkpt lat="45.4919065" lon="11.525361"><ele>137.0</ele><time>2026-04-11T09:47:16.921Z</time></trkpt><trkpt lat="45.4918244" lon="11.5253653"><ele>136.0</ele><time>2026-04-11T09:47:17.921Z</time></trkpt><trkpt lat="45.491751" lon="11.5253814"><ele>135.0</ele><time>2026-04-11T09:47:18.921Z</time></trkpt><trkpt lat="45.4916826" lon="11.5254104"><ele>134.0</ele><time>2026-04-11T09:47:19.921Z</time></trkpt><trkpt lat="45.4916206" lon="11.5254612"><ele>133.0</ele><time>2026-04-11T09:47:20.921Z</time></trkpt><trkpt lat="45.4915658" lon="11.5255245"><ele>133.0</ele><time>2026-04-11T09:47:21.921Z</time></trkpt><trkpt lat="45.4915246" lon="11.5255978"><ele>133.0</ele><time>2026-04-11T09:47:22.921Z</time></trkpt><trkpt lat="45.4914885" lon="11.5256976"><ele>133.0</ele><time>2026-04-11T09:47:23.921Z</time></trkpt><trkpt lat="45.4914561" lon="11.5258005"><ele>133.0</ele><time>2026-04-11T09:47:24.921Z</time></trkpt><trkpt lat="45.4914199" lon="11.5258928"><ele>133.0</ele><time>2026-04-11T09:47:25.921Z</time></trkpt><trkpt lat="45.4913754" lon="11.5259687"><ele>133.0</ele><time>2026-04-11T09:47:26.921Z</time></trkpt><trkpt lat="45.4913235" lon="11.5260487"><ele>133.0</ele><time>2026-04-11T09:47:27.921Z</time></trkpt><trkpt lat="45.4912683" lon="11.5261196"><ele>132.85714285714286</ele><time>2026-04-11T09:47:28.921Z</time></trkpt><trkpt lat="45.4912136" lon="11.5261894"><ele>132.71428571428572</ele><time>2026-04-11T09:47:29.921Z</time></trkpt><trkpt lat="45.4911574" lon="11.5262623"><ele>132.57142857142856</ele><time>2026-04-11T09:47:30.921Z</time></trkpt><trkpt lat="45.4911085" lon="11.5263394"><ele>132.42857142857144</ele><time>2026-04-11T09:47:31.92Z</time></trkpt><trkpt lat="45.4910606" lon="11.5264197"><ele>132.28571428571428</ele><time>2026-04-11T09:47:32.921Z</time></trkpt><trkpt lat="45.4910147" lon="11.5264958"><ele>132.14285714285714</ele><time>2026-04-11T09:47:33.921Z</time></trkpt><trkpt lat="45.4909693" lon="11.5265764"><ele>132.0</ele><time>2026-04-11T09:47:34.921Z</time></trkpt><trkpt lat="45.4909252" lon="11.526659"><ele>132.0</ele><time>2026-04-11T09:47:35.921Z</time></trkpt><trkpt lat="45.4908782" lon="11.5267545"><ele>132.0</ele><time>2026-04-11T09:47:36.921Z</time></trkpt><trkpt lat="45.490836" lon="11.5268381"><ele>132.0</ele><time>2026-04-11T09:47:37.92Z</time></trkpt><trkpt lat="45.4907869" lon="11.5269324"><ele>132.0</ele><time>2026-04-11T09:47:38.921Z</time></trkpt><trkpt lat="45.4907362" lon="11.5270276"><ele>132.0</ele><time>2026-04-11T09:47:39.921Z</time></trkpt><trkpt lat="45.4906837" lon="11.5271312"><ele>132.0</ele><time>2026-04-11T09:47:40.921Z</time></trkpt><trkpt lat="45.4906316" lon="11.5272323"><ele>130.83333333333334</ele><time>2026-04-11T09:47:41.921Z</time></trkpt><trkpt lat="45.4905719" lon="11.5273351"><ele>129.66666666666666</ele><time>2026-04-11T09:47:42.921Z</time></trkpt><trkpt lat="45.4905174" lon="11.5274294"><ele>128.5</ele><time>2026-04-11T09:47:43.921Z</time></trkpt><trkpt lat="45.4904644" lon="11.5275141"><ele>127.33333333333333</ele><time>2026-04-11T09:47:44.921Z</time></trkpt><trkpt lat="45.4904027" lon="11.5275986"><ele>126.16666666666666</ele><time>2026-04-11T09:47:45.921Z</time></trkpt><trkpt lat="45.4903595" lon="11.5276855"><ele>125.0</ele><time>2026-04-11T09:47:46.921Z</time></trkpt><trkpt lat="45.4903224" lon="11.5277821"><ele>125.0</ele><time>2026-04-11T09:47:47.921Z</time></trkpt><trkpt lat="45.490297" lon="11.5278712"><ele>125.0</ele><time>2026-04-11T09:47:48.921Z</time></trkpt><trkpt lat="45.4902675" lon="11.5279526"><ele>125.0</ele><time>2026-04-11T09:47:49.921Z</time></trkpt><trkpt lat="45.4901991" lon="11.5280957"><ele>125.0</ele><time>2026-04-11T09:47:51.921Z</time></trkpt><trkpt lat="45.4901087" lon="11.528175"><ele>125.0</ele><time>2026-04-11T09:47:53.921Z</time></trkpt><trkpt lat="45.489999" lon="11.528189"><ele>123.8</ele><time>2026-04-11T09:47:55.921Z</time></trkpt><trkpt lat="45.4898807" lon="11.5281432"><ele>122.6</ele><time>2026-04-11T09:47:57.921Z</time></trkpt><trkpt lat="45.4898183" lon="11.5281257"><ele>121.4</ele><time>2026-04-11T09:47:58.921Z</time></trkpt><trkpt lat="45.4897602" lon="11.5280886"><ele>120.2</ele><time>2026-04-11T09:47:59.921Z</time></trkpt><trkpt lat="45.4896673" lon="11.5280322"><ele>119.0</ele><time>2026-04-11T09:48:01.921Z</time></trkpt><trkpt lat="45.4895655" lon="11.5279994"><ele>115.83333333333333</ele><time>2026-04-11T09:48:03.921Z</time></trkpt><trkpt lat="45.4895016" lon="11.5280106"><ele>112.66666666666666</ele><time>2026-04-11T09:48:04.92Z</time></trkpt><trkpt lat="45.4893946" lon="11.5280718"><ele>109.5</ele><time>2026-04-11T09:48:06.921Z</time></trkpt><trkpt lat="45.4893446" lon="11.5281396"><ele>106.33333333333334</ele><time>2026-04-11T09:48:07.921Z</time></trkpt><trkpt lat="45.4892735" lon="11.5282755"><ele>103.16666666666667</ele><time>2026-04-11T09:48:09.921Z</time></trkpt><trkpt lat="45.4892181" lon="11.5283566"><ele>100.0</ele><time>2026-04-11T09:48:10.921Z</time></trkpt><trkpt lat="45.4892055" lon="11.5285206"><ele>100.0</ele><time>2026-04-11T09:48:12.921Z</time></trkpt><trkpt lat="45.4891988" lon="11.5286987"><ele>100.0</ele><time>2026-04-11T09:48:14.921Z</time></trkpt><trkpt lat="45.4891909" lon="11.5287891"><ele>100.0</ele><time>2026-04-11T09:48:15.921Z</time></trkpt><trkpt lat="45.4891778" lon="11.5289467"><ele>100.0</ele><time>2026-04-11T09:48:17.921Z</time></trkpt><trkpt lat="45.4891128" lon="11.5290504"><ele>100.0</ele><time>2026-04-11T09:48:19.921Z</time></trkpt><trkpt lat="45.4889926" lon="11.5290734"><ele>98.4</ele><time>2026-04-11T09:48:21.921Z</time></trkpt><trkpt lat="45.4889308" lon="11.5290553"><ele>96.8</ele><time>2026-04-11T09:48:22.921Z</time></trkpt><trkpt lat="45.4888056" lon="11.5290184"><ele>95.19999999999999</ele><time>2026-04-11T09:48:24.921Z</time></trkpt><trkpt lat="45.4887421" lon="11.5289961"><ele>93.6</ele><time>2026-04-11T09:48:25.92Z</time></trkpt><trkpt lat="45.4886299" lon="11.5289241"><ele>92.0</ele><time>2026-04-11T09:48:27.921Z</time></trkpt><trkpt lat="45.4885284" lon="11.5288531"><ele>89.8</ele><time>2026-04-11T09:48:29.921Z</time></trkpt><trkpt lat="45.4884237" lon="11.5287969"><ele>87.6</ele><time>2026-04-11T09:48:31.921Z</time></trkpt><trkpt lat="45.4883283" lon="11.5287119"><ele>85.39999999999999</ele><time>2026-04-11T09:48:33.921Z</time></trkpt><trkpt lat="45.4882318" lon="11.5286009"><ele>83.19999999999999</ele><time>2026-04-11T09:48:35.92Z</time></trkpt><trkpt lat="45.4881768" lon="11.5285382"><ele>81.0</ele><time>2026-04-11T09:48:36.921Z</time></trkpt><trkpt lat="45.4881038" lon="11.5284329"><ele>81.0</ele><time>2026-04-11T09:48:38.921Z</time></trkpt><trkpt lat="45.4880487" lon="11.5283666"><ele>81.0</ele><time>2026-04-11T09:48:40.921Z</time></trkpt><trkpt lat="45.4879889" lon="11.5282527"><ele>81.0</ele><time>2026-04-11T09:48:43.921Z</time></trkpt><trkpt lat="45.4879462" lon="11.5280927"><ele>81.0</ele><time>2026-04-11T09:48:45.921Z</time></trkpt><trkpt lat="45.4878923" lon="11.5279429"><ele>81.0</ele><time>2026-04-11T09:48:47.921Z</time></trkpt><trkpt lat="45.4878213" lon="11.5278901"><ele>77.5</ele><time>2026-04-11T09:48:49.921Z</time></trkpt><trkpt lat="45.4877034" lon="11.5278425"><ele>74.0</ele><time>2026-04-11T09:48:51.921Z</time></trkpt><trkpt lat="45.4875937" lon="11.5278062"><ele>70.5</ele><time>2026-04-11T09:48:53.921Z</time></trkpt><trkpt lat="45.4875153" lon="11.5278744"><ele>67.0</ele><time>2026-04-11T09:48:55.921Z</time></trkpt><trkpt lat="45.4875185" lon="11.5280623"><ele>65.33333333333333</ele><time>2026-04-11T09:48:57.921Z</time></trkpt><trkpt lat="45.4875099" lon="11.5281911"><ele>63.666666666666664</ele><time>2026-04-11T09:48:58.921Z</time></trkpt><trkpt lat="45.4875046" lon="11.5283032"><ele>62.0</ele><time>2026-04-11T09:48:59.921Z</time></trkpt><trkpt lat="45.4874762" lon="11.5284395"><ele>60.33333333333333</ele><time>2026-04-11T09:49:00.921Z</time></trkpt><trkpt lat="45.4874679" lon="11.5285505"><ele>58.666666666666664</ele><time>2026-04-11T09:49:01.921Z</time></trkpt><trkpt lat="45.4874524" lon="11.5286686"><ele>57.0</ele><time>2026-04-11T09:49:02.921Z</time></trkpt><trkpt lat="45.487453" lon="11.5288037"><ele>56.14285714285714</ele><time>2026-04-11T09:49:03.921Z</time></trkpt><trkpt lat="45.4874482" lon="11.5289136"><ele>55.28571428571428</ele><time>2026-04-11T09:49:04.921Z</time></trkpt><trkpt lat="45.4874449" lon="11.5290046"><ele>54.42857142857143</ele><time>2026-04-11T09:49:05.921Z</time></trkpt><trkpt lat="45.4874425" lon="11.5290977"><ele>53.57142857142857</ele><time>2026-04-11T09:49:06.921Z</time></trkpt><trkpt lat="45.4874376" lon="11.5292001"><ele>52.714285714285715</ele><time>2026-04-11T09:49:07.921Z</time></trkpt><trkpt lat="45.4874352" lon="11.5293074"><ele>51.85714285714286</ele><time>2026-04-11T09:49:08.921Z</time></trkpt><trkpt lat="45.4874353" lon="11.5294223"><ele>51.0</ele><time>2026-04-11T09:49:09.921Z</time></trkpt><trkpt lat="45.4874532" lon="11.5295376"><ele>49.5</ele><time>2026-04-11T09:49:10.921Z</time></trkpt><trkpt lat="45.4874547" lon="11.5296552"><ele>48.0</ele><time>2026-04-11T09:49:11.921Z</time></trkpt><trkpt lat="45.4874756" lon="11.5297864"><ele>46.5</ele><time>2026-04-11T09:49:12.92Z</time></trkpt><trkpt lat="45.4874756" lon="11.5299099"><ele>45.0</ele><time>2026-04-11T09:49:13.921Z</time></trkpt><trkpt lat="45.4874967" lon="11.5300333"><ele>43.5</ele><time>2026-04-11T09:49:14.921Z</time></trkpt><trkpt lat="45.487508" lon="11.5301429"><ele>42.0</ele><time>2026-04-11T09:49:15.921Z</time></trkpt><trkpt lat="45.4875204" lon="11.5302502"><ele>42.0</ele><time>2026-04-11T09:49:16.921Z</time></trkpt><trkpt lat="45.4875318" lon="11.5303502"><ele>42.0</ele><time>2026-04-11T09:49:17.921Z</time></trkpt><trkpt lat="45.4875467" lon="11.5304413"><ele>42.0</ele><time>2026-04-11T09:49:18.92Z</time></trkpt><trkpt lat="45.4875645" lon="11.5305965"><ele>42.0</ele><time>2026-04-11T09:49:20.921Z</time></trkpt><trkpt lat="45.4875702" lon="11.5307177"><ele>42.0</ele><time>2026-04-11T09:49:22.921Z</time></trkpt><trkpt lat="45.4875712" lon="11.5308232"><ele>42.0</ele><time>2026-04-11T09:49:25.921Z</time></trkpt><trkpt lat="45.4875552" lon="11.5309788"><ele>40.25</ele><time>2026-04-11T09:49:27.921Z</time></trkpt><trkpt lat="45.4875453" lon="11.5311385"><ele>38.5</ele><time>2026-04-11T09:49:28.921Z</time></trkpt><trkpt lat="45.4875523" lon="11.5313117"><ele>36.75</ele><time>2026-04-11T09:49:29.92Z</time></trkpt><trkpt lat="45.4875596" lon="11.5314895"><ele>35.0</ele><time>2026-04-11T09:49:30.921Z</time></trkpt><trkpt lat="45.4875673" lon="11.5316608"><ele>33.75</ele><time>2026-04-11T09:49:31.92Z</time></trkpt><trkpt lat="45.4875769" lon="11.5318403"><ele>32.5</ele><time>2026-04-11T09:49:32.921Z</time></trkpt><trkpt lat="45.4875839" lon="11.5320242"><ele>31.25</ele><time>2026-04-11T09:49:33.92Z</time></trkpt><trkpt lat="45.4875918" lon="11.5322021"><ele>30.0</ele><time>2026-04-11T09:49:34.921Z</time></trkpt><trkpt lat="45.4876048" lon="11.5323831"><ele>28.0</ele><time>2026-04-11T09:49:35.921Z</time></trkpt><trkpt lat="45.4876179" lon="11.5325646"><ele>26.0</ele><time>2026-04-11T09:49:36.921Z</time></trkpt><trkpt lat="45.4876342" lon="11.5327467"><ele>24.0</ele><time>2026-04-11T09:49:37.921Z</time></trkpt><trkpt lat="45.4876499" lon="11.53293"><ele>22.0</ele><time>2026-04-11T09:49:38.921Z</time></trkpt><trkpt lat="45.4876655" lon="11.5331152"><ele>21.6</ele><time>2026-04-11T09:49:39.921Z</time></trkpt><trkpt lat="45.48768" lon="11.5332968"><ele>21.200000000000003</ele><time>2026-04-11T09:49:40.921Z</time></trkpt><trkpt lat="45.4877" lon="11.533453"><ele>20.8</ele><time>2026-04-11T09:49:41.921Z</time></trkpt><trkpt lat="45.4877186" lon="11.5335928"><ele>20.4</ele><time>2026-04-11T09:49:42.921Z</time></trkpt><trkpt lat="45.4877335" lon="11.5337386"><ele>20.0</ele><time>2026-04-11T09:49:43.921Z</time></trkpt><trkpt lat="45.4877545" lon="11.5338998"><ele>20.0</ele><time>2026-04-11T09:49:44.921Z</time></trkpt><trkpt lat="45.487776" lon="11.5340638"><ele>20.0</ele><time>2026-04-11T09:49:45.921Z</time></trkpt><trkpt lat="45.487801" lon="11.5342361"><ele>20.0</ele><time>2026-04-11T09:49:46.921Z</time></trkpt><trkpt lat="45.4878334" lon="11.5344069"><ele>20.0</ele><time>2026-04-11T09:49:47.921Z</time></trkpt><trkpt lat="45.4878631" lon="11.5345738"><ele>20.25</ele><time>2026-04-11T09:49:48.921Z</time></trkpt><trkpt lat="45.4878921" lon="11.5347356"><ele>20.5</ele><time>2026-04-11T09:49:49.921Z</time></trkpt><trkpt lat="45.4879271" lon="11.5348972"><ele>20.75</ele><time>2026-04-11T09:49:50.921Z</time></trkpt><trkpt lat="45.487961" lon="11.535062"><ele>21.0</ele><time>2026-04-11T09:49:51.921Z</time></trkpt><trkpt lat="45.4879953" lon="11.5352368"><ele>21.75</ele><time>2026-04-11T09:49:52.921Z</time></trkpt><trkpt lat="45.4880337" lon="11.5354164"><ele>22.5</ele><time>2026-04-11T09:49:53.921Z</time></trkpt><trkpt lat="45.4880715" lon="11.5356031"><ele>23.25</ele><time>2026-04-11T09:49:54.921Z</time></trkpt><trkpt lat="45.4881234" lon="11.5358194"><ele>24.0</ele><time>2026-04-11T09:49:55.921Z</time></trkpt><trkpt lat="45.4881976" lon="11.5360701"><ele>25.0</ele><time>2026-04-11T09:49:56.921Z</time></trkpt><trkpt lat="45.4882807" lon="11.536379"><ele>26.0</ele><time>2026-04-11T09:49:57.92Z</time></trkpt><trkpt lat="45.4883714" lon="11.5367325"><ele>26.0</ele><time>2026-04-11T09:49:58.921Z</time></trkpt><trkpt lat="45.4884613" lon="11.5371171"><ele>26.0</ele><time>2026-04-11T09:49:59.921Z</time></trkpt><trkpt lat="45.4885535" lon="11.5374751"><ele>26.0</ele><time>2026-04-11T09:50:00.921Z</time></trkpt><trkpt lat="45.4886466" lon="11.5378151"><ele>26.0</ele><time>2026-04-11T09:50:01.921Z</time></trkpt><trkpt lat="45.4887341" lon="11.5381275"><ele>34.5</ele><time>2026-04-11T09:50:02.921Z</time></trkpt><trkpt lat="45.4888305" lon="11.5384463"><ele>43.0</ele><time>2026-04-11T09:50:03.921Z</time></trkpt><trkpt lat="45.4889199" lon="11.5387691"><ele>43.0</ele><time>2026-04-11T09:50:04.921Z</time></trkpt><trkpt lat="45.4889969" lon="11.5390584"><ele>43.0</ele><time>2026-04-11T09:50:05.921Z</time></trkpt><trkpt lat="45.489071" lon="11.5393234"><ele>43.0</ele><time>2026-04-11T09:50:06.921Z</time></trkpt><trkpt lat="45.4891447" lon="11.5395718"><ele>40.0</ele><time>2026-04-11T09:50:07.921Z</time></trkpt><trkpt lat="45.489214" lon="11.5398026"><ele>37.0</ele><time>2026-04-11T09:50:08.921Z</time></trkpt><trkpt lat="45.4892717" lon="11.5400277"><ele>34.0</ele><time>2026-04-11T09:50:09.921Z</time></trkpt><trkpt lat="45.4893152" lon="11.5402495"><ele>32.0</ele><time>2026-04-11T09:50:10.921Z</time></trkpt><trkpt lat="45.4893518" lon="11.5404642"><ele>30.0</ele><time>2026-04-11T09:50:11.921Z</time></trkpt><trkpt lat="45.4893961" lon="11.5406687"><ele>28.0</ele><time>2026-04-11T09:50:12.921Z</time></trkpt><trkpt lat="45.4894547" lon="11.5408738"><ele>28.0</ele><time>2026-04-11T09:50:13.921Z</time></trkpt><trkpt lat="45.4895218" lon="11.541078"><ele>28.0</ele><time>2026-04-11T09:50:14.921Z</time></trkpt><trkpt lat="45.4895853" lon="11.541275"><ele>28.0</ele><time>2026-04-11T09:50:15.921Z</time></trkpt><trkpt lat="45.4896404" lon="11.5414767"><ele>34.333333333333336</ele><time>2026-04-11T09:50:16.921Z</time></trkpt><trkpt lat="45.4896804" lon="11.5416901"><ele>40.666666666666664</ele><time>2026-04-11T09:50:17.921Z</time></trkpt><trkpt lat="45.4897165" lon="11.5419053"><ele>47.0</ele><time>2026-04-11T09:50:18.921Z</time></trkpt><trkpt lat="45.4897484" lon="11.542111"><ele>47.0</ele><time>2026-04-11T09:50:19.921Z</time></trkpt><trkpt lat="45.4897815" lon="11.542309"><ele>47.0</ele><time>2026-04-11T09:50:20.921Z</time></trkpt><trkpt lat="45.4898094" lon="11.5424864"><ele>47.0</ele><time>2026-04-11T09:50:21.921Z</time></trkpt><trkpt lat="45.4898379" lon="11.5426462"><ele>47.0</ele><time>2026-04-11T09:50:22.921Z</time></trkpt><trkpt lat="45.4898628" lon="11.5427941"><ele>45.4</ele><time>2026-04-11T09:50:23.921Z</time></trkpt><trkpt lat="45.4898848" lon="11.5429335"><ele>43.800000000000004</ele><time>2026-04-11T09:50:24.921Z</time></trkpt><trkpt lat="45.48991" lon="11.5430588"><ele>42.2</ele><time>2026-04-11T09:50:25.921Z</time></trkpt><trkpt lat="45.4899287" lon="11.543172"><ele>40.6</ele><time>2026-04-11T09:50:26.921Z</time></trkpt><trkpt lat="45.4899492" lon="11.5433266"><ele>39.0</ele><time>2026-04-11T09:50:28.921Z</time></trkpt><trkpt lat="45.4899496" lon="11.5434349"><ele>39.0</ele><time>2026-04-11T09:50:30.921Z</time></trkpt><trkpt lat="45.4898762" lon="11.5435217"><ele>39.0</ele><time>2026-04-11T09:50:37.921Z</time></trkpt><trkpt lat="45.4897832" lon="11.5435527"><ele>39.0</ele><time>2026-04-11T09:50:39.921Z</time></trkpt><trkpt lat="45.4896659" lon="11.5435288"><ele>39.0</ele><time>2026-04-11T09:50:41.921Z</time></trkpt><trkpt lat="45.4895879" lon="11.543508"><ele>39.0</ele><time>2026-04-11T09:50:42.921Z</time></trkpt><trkpt lat="45.4894796" lon="11.5434748"><ele>34.0</ele><time>2026-04-11T09:50:43.92Z</time></trkpt><trkpt lat="45.489336" lon="11.5434137"><ele>29.0</ele><time>2026-04-11T09:50:44.921Z</time></trkpt><trkpt lat="45.489157" lon="11.5433501"><ele>24.0</ele><time>2026-04-11T09:50:45.921Z</time></trkpt><trkpt lat="45.4889518" lon="11.5432793"><ele>23.5</ele><time>2026-04-11T09:50:46.921Z</time></trkpt><trkpt lat="45.4887259" lon="11.5431883"><ele>23.0</ele><time>2026-04-11T09:50:47.921Z</time></trkpt><trkpt lat="45.4884975" lon="11.5431095"><ele>23.0</ele><time>2026-04-11T09:50:48.921Z</time></trkpt><trkpt lat="45.4882875" lon="11.5430359"><ele>23.0</ele><time>2026-04-11T09:50:49.921Z</time></trkpt><trkpt lat="45.488093" lon="11.5429636"><ele>23.0</ele><time>2026-04-11T09:50:50.921Z</time></trkpt><trkpt lat="45.4879091" lon="11.5428936"><ele>22.666666666666668</ele><time>2026-04-11T09:50:51.921Z</time></trkpt><trkpt lat="45.4877228" lon="11.542824"><ele>22.333333333333332</ele><time>2026-04-11T09:50:52.921Z</time></trkpt><trkpt lat="45.4875415" lon="11.5427587"><ele>22.0</ele><time>2026-04-11T09:50:53.921Z</time></trkpt><trkpt lat="45.4873631" lon="11.5426987"><ele>22.0</ele><time>2026-04-11T09:50:54.921Z</time></trkpt><trkpt lat="45.4871854" lon="11.5426383"><ele>22.0</ele><time>2026-04-11T09:50:55.921Z</time></trkpt><trkpt lat="45.4870123" lon="11.5425815"><ele>22.0</ele><time>2026-04-11T09:50:56.921Z</time></trkpt><trkpt lat="45.4868442" lon="11.5425238"><ele>22.333333333333332</ele><time>2026-04-11T09:50:57.921Z</time></trkpt><trkpt lat="45.4866822" lon="11.5424657"><ele>22.666666666666668</ele><time>2026-04-11T09:50:58.921Z</time></trkpt><trkpt lat="45.4865227" lon="11.5424091"><ele>23.0</ele><time>2026-04-11T09:50:59.921Z</time></trkpt><trkpt lat="45.4863639" lon="11.5423508"><ele>23.0</ele><time>2026-04-11T09:51:00.921Z</time></trkpt><trkpt lat="45.4862092" lon="11.5422986"><ele>23.0</ele><time>2026-04-11T09:51:01.921Z</time></trkpt><trkpt lat="45.4860554" lon="11.5422434"><ele>23.0</ele><time>2026-04-11T09:51:02.921Z</time></trkpt><trkpt lat="45.4858965" lon="11.5421869"><ele>23.0</ele><time>2026-04-11T09:51:03.921Z</time></trkpt><trkpt lat="45.4857417" lon="11.5421255"><ele>23.0</ele><time>2026-04-11T09:51:04.921Z</time></trkpt><trkpt lat="45.485589" lon="11.5420675"><ele>23.0</ele><time>2026-04-11T09:51:05.921Z</time></trkpt><trkpt lat="45.4854383" lon="11.5420109"><ele>23.666666666666668</ele><time>2026-04-11T09:51:06.921Z</time></trkpt><trkpt lat="45.4852908" lon="11.5419567"><ele>24.333333333333336</ele><time>2026-04-11T09:51:07.921Z</time></trkpt><trkpt lat="45.4851464" lon="11.5418965"><ele>25.0</ele><time>2026-04-11T09:51:08.921Z</time></trkpt><trkpt lat="45.4850035" lon="11.5418204"><ele>25.0</ele><time>2026-04-11T09:51:09.921Z</time></trkpt><trkpt lat="45.4848667" lon="11.5417199"><ele>25.0</ele><time>2026-04-11T09:51:10.921Z</time></trkpt><trkpt lat="45.4847367" lon="11.5415985"><ele>25.0</ele><time>2026-04-11T09:51:11.921Z</time></trkpt><trkpt lat="45.4846187" lon="11.5414517"><ele>24.666666666666668</ele><time>2026-04-11T09:51:12.921Z</time></trkpt><trkpt lat="45.484506" lon="11.5412848"><ele>24.333333333333336</ele><time>2026-04-11T09:51:13.921Z</time></trkpt><trkpt lat="45.4844006" lon="11.5411037"><ele>24.0</ele><time>2026-04-11T09:51:14.921Z</time></trkpt><trkpt lat="45.4843067" lon="11.5409049"><ele>24.0</ele><time>2026-04-11T09:51:15.921Z</time></trkpt><trkpt lat="45.4842259" lon="11.5406912"><ele>24.0</ele><time>2026-04-11T09:51:16.921Z</time></trkpt><trkpt lat="45.4841589" lon="11.5404685"><ele>24.0</ele><time>2026-04-11T09:51:17.921Z</time></trkpt><trkpt lat="45.4840953" lon="11.5402486"><ele>23.0</ele><time>2026-04-11T09:51:18.921Z</time></trkpt><trkpt lat="45.4840316" lon="11.5400289"><ele>22.0</ele><time>2026-04-11T09:51:19.921Z</time></trkpt><trkpt lat="45.4839646" lon="11.5398187"><ele>21.0</ele><time>2026-04-11T09:51:20.921Z</time></trkpt><trkpt lat="45.4839024" lon="11.5396086"><ele>21.0</ele><time>2026-04-11T09:51:21.921Z</time></trkpt><trkpt lat="45.4838407" lon="11.5394069"><ele>21.0</ele><time>2026-04-11T09:51:22.921Z</time></trkpt><trkpt lat="45.4837806" lon="11.5392106"><ele>21.0</ele><time>2026-04-11T09:51:23.921Z</time></trkpt><trkpt lat="45.4837226" lon="11.5390235"><ele>21.0</ele><time>2026-04-11T09:51:24.921Z</time></trkpt><trkpt lat="45.4836721" lon="11.5388502"><ele>21.5</ele><time>2026-04-11T09:51:25.921Z</time></trkpt><trkpt lat="45.4836227" lon="11.5386851"><ele>22.0</ele><time>2026-04-11T09:51:26.921Z</time></trkpt><trkpt lat="45.4835733" lon="11.5385225"><ele>22.5</ele><time>2026-04-11T09:51:27.921Z</time></trkpt><trkpt lat="45.4835265" lon="11.5383566"><ele>23.0</ele><time>2026-04-11T09:51:28.921Z</time></trkpt><trkpt lat="45.4834752" lon="11.5381855"><ele>23.0</ele><time>2026-04-11T09:51:29.921Z</time></trkpt><trkpt lat="45.4834179" lon="11.5380099"><ele>23.0</ele><time>2026-04-11T09:51:30.92Z</time></trkpt><trkpt lat="45.4833608" lon="11.5378292"><ele>23.0</ele><time>2026-04-11T09:51:31.921Z</time></trkpt><trkpt lat="45.4833045" lon="11.5376488"><ele>23.0</ele><time>2026-04-11T09:51:32.921Z</time></trkpt><trkpt lat="45.4832335" lon="11.5374765"><ele>23.25</ele><time>2026-04-11T09:51:33.921Z</time></trkpt><trkpt lat="45.4831459" lon="11.5373234"><ele>23.5</ele><time>2026-04-11T09:51:34.921Z</time></trkpt><trkpt lat="45.4830399" lon="11.5371936"><ele>23.75</ele><time>2026-04-11T09:51:35.921Z</time></trkpt><trkpt lat="45.4829249" lon="11.5370931"><ele>24.0</ele><time>2026-04-11T09:51:36.921Z</time></trkpt><trkpt lat="45.4828089" lon="11.5370118"><ele>26.799999999999997</ele><time>2026-04-11T09:51:37.921Z</time></trkpt><trkpt lat="45.4827047" lon="11.5369495"><ele>29.599999999999998</ele><time>2026-04-11T09:51:38.921Z</time></trkpt><trkpt lat="45.4826092" lon="11.5369113"><ele>32.4</ele><time>2026-04-11T09:51:39.921Z</time></trkpt><trkpt lat="45.4825126" lon="11.5368992"><ele>35.199999999999996</ele><time>2026-04-11T09:51:40.921Z</time></trkpt><trkpt lat="45.4824121" lon="11.5369337"><ele>38.0</ele><time>2026-04-11T09:51:41.921Z</time></trkpt><trkpt lat="45.4823052" lon="11.5369913"><ele>36.0</ele><time>2026-04-11T09:51:42.921Z</time></trkpt><trkpt lat="45.4821834" lon="11.5370624"><ele>34.0</ele><time>2026-04-11T09:51:43.921Z</time></trkpt><trkpt lat="45.4820377" lon="11.5371636"><ele>32.0</ele><time>2026-04-11T09:51:44.921Z</time></trkpt><trkpt lat="45.4818641" lon="11.5372705"><ele>32.0</ele><time>2026-04-11T09:51:45.921Z</time></trkpt><trkpt lat="45.4816677" lon="11.5373688"><ele>32.0</ele><time>2026-04-11T09:51:46.921Z</time></trkpt><trkpt lat="45.4814567" lon="11.5374725"><ele>32.0</ele><time>2026-04-11T09:51:47.921Z</time></trkpt><trkpt lat="45.4812401" lon="11.5375903"><ele>42.0</ele><time>2026-04-11T09:51:48.921Z</time></trkpt><trkpt lat="45.481027" lon="11.5377139"><ele>52.0</ele><time>2026-04-11T09:51:49.921Z</time></trkpt><trkpt lat="45.4808192" lon="11.537843"><ele>51.5</ele><time>2026-04-11T09:51:50.92Z</time></trkpt><trkpt lat="45.4806192" lon="11.5379876"><ele>51.0</ele><time>2026-04-11T09:51:51.921Z</time></trkpt><trkpt lat="45.4804171" lon="11.5381499"><ele>51.0</ele><time>2026-04-11T09:51:52.921Z</time></trkpt><trkpt lat="45.4802224" lon="11.5383277"><ele>51.0</ele><time>2026-04-11T09:51:53.921Z</time></trkpt><trkpt lat="45.4800373" lon="11.5385125"><ele>51.0</ele><time>2026-04-11T09:51:54.921Z</time></trkpt><trkpt lat="45.4798669" lon="11.5386894"><ele>51.0</ele><time>2026-04-11T09:51:55.921Z</time></trkpt><trkpt lat="45.4797064" lon="11.5388512"><ele>51.0</ele><time>2026-04-11T09:51:56.921Z</time></trkpt><trkpt lat="45.4795592" lon="11.5390104"><ele>50.33333333333333</ele><time>2026-04-11T09:51:57.921Z</time></trkpt><trkpt lat="45.4794244" lon="11.5391628"><ele>49.666666666666664</ele><time>2026-04-11T09:51:58.92Z</time></trkpt><trkpt lat="45.4792999" lon="11.5393152"><ele>49.0</ele><time>2026-04-11T09:51:59.92Z</time></trkpt><trkpt lat="45.4791831" lon="11.5394561"><ele>48.75</ele><time>2026-04-11T09:52:00.921Z</time></trkpt><trkpt lat="45.4790689" lon="11.539587"><ele>48.5</ele><time>2026-04-11T09:52:01.921Z</time></trkpt><trkpt lat="45.4789541" lon="11.5397101"><ele>48.25</ele><time>2026-04-11T09:52:02.921Z</time></trkpt><trkpt lat="45.478834" lon="11.5398235"><ele>48.0</ele><time>2026-04-11T09:52:03.921Z</time></trkpt><trkpt lat="45.4787186" lon="11.5399273"><ele>48.0</ele><time>2026-04-11T09:52:04.921Z</time></trkpt><trkpt lat="45.4786128" lon="11.5400223"><ele>48.0</ele><time>2026-04-11T09:52:05.921Z</time></trkpt><trkpt lat="45.4785206" lon="11.5401003"><ele>48.0</ele><time>2026-04-11T09:52:06.921Z</time></trkpt><trkpt lat="45.4784395" lon="11.5401674"><ele>48.0</ele><time>2026-04-11T09:52:07.92Z</time></trkpt><trkpt lat="45.4783658" lon="11.5402307"><ele>48.0</ele><time>2026-04-11T09:52:08.921Z</time></trkpt><trkpt lat="45.4782985" lon="11.5402896"><ele>48.0</ele><time>2026-04-11T09:52:09.921Z</time></trkpt><trkpt lat="45.4782394" lon="11.5403481"><ele>48.0</ele><time>2026-04-11T09:52:10.921Z</time></trkpt><trkpt lat="45.4781822" lon="11.5403998"><ele>48.0</ele><time>2026-04-11T09:52:11.921Z</time></trkpt><trkpt lat="45.4780728" lon="11.5404698"><ele>48.0</ele><time>2026-04-11T09:52:13.921Z</time></trkpt><trkpt lat="45.4779912" lon="11.5404712"><ele>48.0</ele><time>2026-04-11T09:52:14.921Z</time></trkpt><trkpt lat="45.477894" lon="11.5404564"><ele>48.0</ele><time>2026-04-11T09:52:15.921Z</time></trkpt><trkpt lat="45.4777873" lon="11.5404416"><ele>51.2</ele><time>2026-04-11T09:52:16.921Z</time></trkpt><trkpt lat="45.4776778" lon="11.540435"><ele>54.4</ele><time>2026-04-11T09:52:17.921Z</time></trkpt><trkpt lat="45.4775708" lon="11.5404281"><ele>57.60000000000001</ele><time>2026-04-11T09:52:18.921Z</time></trkpt><trkpt lat="45.4774666" lon="11.5404104"><ele>60.800000000000004</ele><time>2026-04-11T09:52:19.921Z</time></trkpt><trkpt lat="45.4773617" lon="11.5403856"><ele>64.0</ele><time>2026-04-11T09:52:20.92Z</time></trkpt><trkpt lat="45.4772589" lon="11.5403535"><ele>64.0</ele><time>2026-04-11T09:52:21.921Z</time></trkpt><trkpt lat="45.4771524" lon="11.5403159"><ele>64.0</ele><time>2026-04-11T09:52:22.921Z</time></trkpt><trkpt lat="45.4770276" lon="11.5402764"><ele>64.0</ele><time>2026-04-11T09:52:23.921Z</time></trkpt><trkpt lat="45.4769009" lon="11.5402374"><ele>64.0</ele><time>2026-04-11T09:52:24.921Z</time></trkpt><trkpt lat="45.4767768" lon="11.5402072"><ele>64.5</ele><time>2026-04-11T09:52:25.921Z</time></trkpt><trkpt lat="45.4766445" lon="11.5401652"><ele>65.0</ele><time>2026-04-11T09:52:26.921Z</time></trkpt><trkpt lat="45.476521" lon="11.540123"><ele>65.5</ele><time>2026-04-11T09:52:27.921Z</time></trkpt><trkpt lat="45.476399" lon="11.5400628"><ele>66.0</ele><time>2026-04-11T09:52:28.921Z</time></trkpt><trkpt lat="45.4762785" lon="11.5399998"><ele>65.25</ele><time>2026-04-11T09:52:29.921Z</time></trkpt><trkpt lat="45.4761558" lon="11.5399501"><ele>64.5</ele><time>2026-04-11T09:52:30.921Z</time></trkpt><trkpt lat="45.4760361" lon="11.539899"><ele>63.75</ele><time>2026-04-11T09:52:31.921Z</time></trkpt><trkpt lat="45.475922" lon="11.5398446"><ele>63.0</ele><time>2026-04-11T09:52:32.921Z</time></trkpt><trkpt lat="45.475812" lon="11.5397929"><ele>63.0</ele><time>2026-04-11T09:52:33.921Z</time></trkpt><trkpt lat="45.4757035" lon="11.5397603"><ele>63.0</ele><time>2026-04-11T09:52:34.921Z</time></trkpt><trkpt lat="45.4755929" lon="11.5397094"><ele>63.0</ele><time>2026-04-11T09:52:35.921Z</time></trkpt><trkpt lat="45.4754798" lon="11.5396741"><ele>63.0</ele><time>2026-04-11T09:52:36.921Z</time></trkpt><trkpt lat="45.4753708" lon="11.5396299"><ele>63.0</ele><time>2026-04-11T09:52:37.921Z</time></trkpt><trkpt lat="45.4752636" lon="11.5395904"><ele>63.0</ele><time>2026-04-11T09:52:38.92Z</time></trkpt><trkpt lat="45.4751798" lon="11.5395662"><ele>63.0</ele><time>2026-04-11T09:52:39.921Z</time></trkpt><trkpt lat="45.4751066" lon="11.5395277"><ele>63.0</ele><time>2026-04-11T09:52:40.921Z</time></trkpt><trkpt lat="45.4750435" lon="11.5394891"><ele>63.0</ele><time>2026-04-11T09:52:41.921Z</time></trkpt><trkpt lat="45.4749645" lon="11.5394112"><ele>63.0</ele><time>2026-04-11T09:52:43.921Z</time></trkpt><trkpt lat="45.4750049" lon="11.5395035"><ele>63.0</ele><time>2026-04-11T09:52:52.921Z</time></trkpt><trkpt lat="45.4750781" lon="11.539547"><ele>63.0</ele><time>2026-04-11T09:52:55.921Z</time></trkpt><trkpt lat="45.4751406" lon="11.5395807"><ele>63.0</ele><time>2026-04-11T09:52:57.921Z</time></trkpt><trkpt lat="45.4752145" lon="11.5396147"><ele>63.0</ele><time>2026-04-11T09:52:59.921Z</time></trkpt><trkpt lat="45.4752931" lon="11.5396462"><ele>63.0</ele><time>2026-04-11T09:53:01.921Z</time></trkpt><trkpt lat="45.4753857" lon="11.5396628"><ele>63.0</ele><time>2026-04-11T09:53:03.921Z</time></trkpt><trkpt lat="45.475483" lon="11.5397028"><ele>63.0</ele><time>2026-04-11T09:53:05.921Z</time></trkpt><trkpt lat="45.47559" lon="11.5397442"><ele>63.0</ele><time>2026-04-11T09:53:07.921Z</time></trkpt><trkpt lat="45.4757045" lon="11.5397942"><ele>63.0</ele><time>2026-04-11T09:53:09.921Z</time></trkpt><trkpt lat="45.4758134" lon="11.5398369"><ele>63.0</ele><time>2026-04-11T09:53:11.921Z</time></trkpt><trkpt lat="45.4758786" lon="11.5398595"><ele>63.0</ele><time>2026-04-11T09:53:12.921Z</time></trkpt><trkpt lat="45.4759464" lon="11.5398842"><ele>63.0</ele><time>2026-04-11T09:53:13.921Z</time></trkpt><trkpt lat="45.476015" lon="11.5399108"><ele>63.0</ele><time>2026-04-11T09:53:14.921Z</time></trkpt><trkpt lat="45.4760918" lon="11.5399402"><ele>63.0</ele><time>2026-04-11T09:53:15.921Z</time></trkpt><trkpt lat="45.4761672" lon="11.5399714"><ele>63.0</ele><time>2026-04-11T09:53:16.921Z</time></trkpt><trkpt lat="45.4762438" lon="11.5400041"><ele>63.0</ele><time>2026-04-11T09:53:17.921Z</time></trkpt><trkpt lat="45.4763193" lon="11.5400377"><ele>63.0</ele><time>2026-04-11T09:53:18.921Z</time></trkpt><trkpt lat="45.4763998" lon="11.5400733"><ele>63.599999999999994</ele><time>2026-04-11T09:53:19.92Z</time></trkpt><trkpt lat="45.4764773" lon="11.5401098"><ele>64.19999999999999</ele><time>2026-04-11T09:53:20.921Z</time></trkpt><trkpt lat="45.4765671" lon="11.5401438"><ele>64.8</ele><time>2026-04-11T09:53:21.921Z</time></trkpt><trkpt lat="45.4766572" lon="11.5401708"><ele>65.39999999999999</ele><time>2026-04-11T09:53:22.921Z</time></trkpt><trkpt lat="45.4767468" lon="11.5401958"><ele>66.0</ele><time>2026-04-11T09:53:23.921Z</time></trkpt><trkpt lat="45.4768403" lon="11.5402178"><ele>66.0</ele><time>2026-04-11T09:53:24.921Z</time></trkpt><trkpt lat="45.4769283" lon="11.5402446"><ele>66.0</ele><time>2026-04-11T09:53:25.921Z</time></trkpt><trkpt lat="45.4770179" lon="11.5402652"><ele>66.0</ele><time>2026-04-11T09:53:26.921Z</time></trkpt><trkpt lat="45.4770998" lon="11.5402941"><ele>66.0</ele><time>2026-04-11T09:53:27.921Z</time></trkpt><trkpt lat="45.4771855" lon="11.5403287"><ele>66.0</ele><time>2026-04-11T09:53:28.921Z</time></trkpt><trkpt lat="45.4772705" lon="11.5403567"><ele>66.0</ele><time>2026-04-11T09:53:29.921Z</time></trkpt><trkpt lat="45.4773667" lon="11.5403836"><ele>60.0</ele><time>2026-04-11T09:53:30.921Z</time></trkpt><trkpt lat="45.4774535" lon="11.5404023"><ele>54.0</ele><time>2026-04-11T09:53:31.921Z</time></trkpt><trkpt lat="45.477545" lon="11.5404175"><ele>48.0</ele><time>2026-04-11T09:53:32.921Z</time></trkpt><trkpt lat="45.4776378" lon="11.5404271"><ele>42.0</ele><time>2026-04-11T09:53:33.921Z</time></trkpt><trkpt lat="45.4777197" lon="11.5404316"><ele>36.0</ele><time>2026-04-11T09:53:34.921Z</time></trkpt><trkpt lat="45.4777997" lon="11.5404413"><ele>30.0</ele><time>2026-04-11T09:53:35.921Z</time></trkpt><trkpt lat="45.4778715" lon="11.5404471"><ele>30.0</ele><time>2026-04-11T09:53:36.921Z</time></trkpt><trkpt lat="45.4779723" lon="11.5404791"><ele>30.0</ele><time>2026-04-11T09:53:38.921Z</time></trkpt><trkpt lat="45.4780079" lon="11.5405595"><ele>30.0</ele><time>2026-04-11T09:53:40.921Z</time></trkpt><trkpt lat="45.4779521" lon="11.5406508"><ele>30.0</ele><time>2026-04-11T09:53:43.921Z</time></trkpt><trkpt lat="45.4778806" lon="11.5407168"><ele>30.0</ele><time>2026-04-11T09:53:45.921Z</time></trkpt><trkpt lat="45.477776" lon="11.540728"><ele>30.0</ele><time>2026-04-11T09:53:47.921Z</time></trkpt><trkpt lat="45.4776864" lon="11.5407265"><ele>30.0</ele><time>2026-04-11T09:53:49.921Z</time></trkpt><trkpt lat="45.4775767" lon="11.5407105"><ele>30.0</ele><time>2026-04-11T09:53:51.921Z</time></trkpt><trkpt lat="45.4775107" lon="11.5406985"><ele>30.0</ele><time>2026-04-11T09:53:52.921Z</time></trkpt><trkpt lat="45.4774365" lon="11.5406913"><ele>30.0</ele><time>2026-04-11T09:53:53.921Z</time></trkpt><trkpt lat="45.4773568" lon="11.5406773"><ele>30.0</ele><time>2026-04-11T09:53:54.921Z</time></trkpt><trkpt lat="45.4772692" lon="11.5406692"><ele>30.0</ele><time>2026-04-11T09:53:55.921Z</time></trkpt><trkpt lat="45.4771788" lon="11.5406637"><ele>30.0</ele><time>2026-04-11T09:53:56.921Z</time></trkpt><trkpt lat="45.4770825" lon="11.5406496"><ele>30.0</ele><time>2026-04-11T09:53:57.921Z</time></trkpt><trkpt lat="45.4769851" lon="11.5406339"><ele>30.0</ele><time>2026-04-11T09:53:58.921Z</time></trkpt><trkpt lat="45.4768833" lon="11.5406184"><ele>30.0</ele><time>2026-04-11T09:53:59.921Z</time></trkpt><trkpt lat="45.4767713" lon="11.5405982"><ele>30.0</ele><time>2026-04-11T09:54:00.921Z</time></trkpt><trkpt lat="45.4766579" lon="11.54058"><ele>30.0</ele><time>2026-04-11T09:54:01.921Z</time></trkpt><trkpt lat="45.4765422" lon="11.5405626"><ele>30.0</ele><time>2026-04-11T09:54:02.921Z</time></trkpt><trkpt lat="45.476421" lon="11.5405518"><ele>30.0</ele><time>2026-04-11T09:54:03.921Z</time></trkpt><trkpt lat="45.4763069" lon="11.5405442"><ele>30.0</ele><time>2026-04-11T09:54:04.921Z</time></trkpt><trkpt lat="45.4761954" lon="11.5405404"><ele>29.5</ele><time>2026-04-11T09:54:05.921Z</time></trkpt><trkpt lat="45.4760761" lon="11.5405443"><ele>29.0</ele><time>2026-04-11T09:54:06.921Z</time></trkpt><trkpt lat="45.4759579" lon="11.5405501"><ele>28.5</ele><time>2026-04-11T09:54:07.921Z</time></trkpt><trkpt lat="45.4758443" lon="11.540553"><ele>28.0</ele><time>2026-04-11T09:54:08.921Z</time></trkpt><trkpt lat="45.475727" lon="11.5405521"><ele>28.0</ele><time>2026-04-11T09:54:09.921Z</time></trkpt><trkpt lat="45.4756114" lon="11.5405481"><ele>27.999999999999996</ele><time>2026-04-11T09:54:10.921Z</time></trkpt><trkpt lat="45.4755003" lon="11.5405401"><ele>27.999999999999996</ele><time>2026-04-11T09:54:11.921Z</time></trkpt><trkpt lat="45.4753866" lon="11.540533"><ele>28.0</ele><time>2026-04-11T09:54:12.921Z</time></trkpt><trkpt lat="45.4752797" lon="11.5405331"><ele>28.0</ele><time>2026-04-11T09:54:13.921Z</time></trkpt><trkpt lat="45.4751756" lon="11.5405433"><ele>28.599999999999998</ele><time>2026-04-11T09:54:14.921Z</time></trkpt><trkpt lat="45.4750772" lon="11.5405574"><ele>29.199999999999996</ele><time>2026-04-11T09:54:15.921Z</time></trkpt><trkpt lat="45.4749843" lon="11.5405956"><ele>29.8</ele><time>2026-04-11T09:54:16.921Z</time></trkpt><trkpt lat="45.4748988" lon="11.540632"><ele>30.4</ele><time>2026-04-11T09:54:17.921Z</time></trkpt><trkpt lat="45.4748159" lon="11.5406585"><ele>31.0</ele><time>2026-04-11T09:54:18.921Z</time></trkpt><trkpt lat="45.4747307" lon="11.5406798"><ele>31.000000000000004</ele><time>2026-04-11T09:54:19.921Z</time></trkpt><trkpt lat="45.4746442" lon="11.5407083"><ele>31.0</ele><time>2026-04-11T09:54:20.921Z</time></trkpt><trkpt lat="45.4745597" lon="11.5407238"><ele>31.0</ele><time>2026-04-11T09:54:21.92Z</time></trkpt><trkpt lat="45.4744752" lon="11.5407434"><ele>31.0</ele><time>2026-04-11T09:54:22.921Z</time></trkpt><trkpt lat="45.4743834" lon="11.5407769"><ele>31.000000000000004</ele><time>2026-04-11T09:54:23.92Z</time></trkpt><trkpt lat="45.4742994" lon="11.5408183"><ele>31.0</ele><time>2026-04-11T09:54:24.921Z</time></trkpt><trkpt lat="45.4742253" lon="11.5408536"><ele>31.8</ele><time>2026-04-11T09:54:25.921Z</time></trkpt><trkpt lat="45.4741616" lon="11.5409085"><ele>32.6</ele><time>2026-04-11T09:54:26.921Z</time></trkpt><trkpt lat="45.4741016" lon="11.5409679"><ele>33.4</ele><time>2026-04-11T09:54:27.921Z</time></trkpt><trkpt lat="45.4740018" lon="11.5410561"><ele>34.2</ele><time>2026-04-11T09:54:29.921Z</time></trkpt><trkpt lat="45.4739151" lon="11.5411407"><ele>35.0</ele><time>2026-04-11T09:54:31.921Z</time></trkpt><trkpt lat="45.4738248" lon="11.5412132"><ele>34.4</ele><time>2026-04-11T09:54:33.921Z</time></trkpt><trkpt lat="45.4737293" lon="11.5412849"><ele>33.8</ele><time>2026-04-11T09:54:35.921Z</time></trkpt><trkpt lat="45.4736318" lon="11.5413385"><ele>33.2</ele><time>2026-04-11T09:54:37.921Z</time></trkpt><trkpt lat="45.473547" lon="11.5413128"><ele>32.6</ele><time>2026-04-11T09:54:39.921Z</time></trkpt><trkpt lat="45.4734787" lon="11.5412154"><ele>32.0</ele><time>2026-04-11T09:54:41.921Z</time></trkpt><trkpt lat="45.4734255" lon="11.541105"><ele>31.999999999999996</ele><time>2026-04-11T09:54:43.921Z</time></trkpt><trkpt lat="45.4733526" lon="11.540967"><ele>32.0</ele><time>2026-04-11T09:54:45.921Z</time></trkpt><trkpt lat="45.4733066" lon="11.5408965"><ele>32.0</ele><time>2026-04-11T09:54:46.921Z</time></trkpt><trkpt lat="45.4732605" lon="11.5408219"><ele>32.0</ele><time>2026-04-11T09:54:47.921Z</time></trkpt><trkpt lat="45.4732185" lon="11.5407544"><ele>31.999999999999996</ele><time>2026-04-11T09:54:48.921Z</time></trkpt><trkpt lat="45.4731719" lon="11.54069"><ele>32.0</ele><time>2026-04-11T09:54:49.921Z</time></trkpt><trkpt lat="45.4731226" lon="11.5406232"><ele>32.0</ele><time>2026-04-11T09:54:50.921Z</time></trkpt><trkpt lat="45.4730719" lon="11.5405618"><ele>31.999999999999996</ele><time>2026-04-11T09:54:51.92Z</time></trkpt><trkpt lat="45.473017" lon="11.5405072"><ele>32.0</ele><time>2026-04-11T09:54:52.921Z</time></trkpt><trkpt lat="45.4729533" lon="11.5404673"><ele>32.0</ele><time>2026-04-11T09:54:53.921Z</time></trkpt><trkpt lat="45.4728906" lon="11.5404328"><ele>31.999999999999996</ele><time>2026-04-11T09:54:54.921Z</time></trkpt><trkpt lat="45.472816" lon="11.5403889"><ele>32.0</ele><time>2026-04-11T09:54:55.921Z</time></trkpt><trkpt lat="45.4727502" lon="11.5403442"><ele>32.0</ele><time>2026-04-11T09:54:56.921Z</time></trkpt><trkpt lat="45.472683" lon="11.5402918"><ele>32.5</ele><time>2026-04-11T09:54:57.921Z</time></trkpt><trkpt lat="45.4726159" lon="11.5402351"><ele>33.0</ele><time>2026-04-11T09:54:58.921Z</time></trkpt><trkpt lat="45.4725446" lon="11.5401779"><ele>33.5</ele><time>2026-04-11T09:54:59.921Z</time></trkpt><trkpt lat="45.4724735" lon="11.5401248"><ele>34.0</ele><time>2026-04-11T09:55:00.92Z</time></trkpt><trkpt lat="45.4723966" lon="11.5400858"><ele>34.5</ele><time>2026-04-11T09:55:01.921Z</time></trkpt><trkpt lat="45.4723175" lon="11.5400514"><ele>35.0</ele><time>2026-04-11T09:55:02.921Z</time></trkpt><trkpt lat="45.4722412" lon="11.5400272"><ele>35.0</ele><time>2026-04-11T09:55:03.921Z</time></trkpt><trkpt lat="45.4721629" lon="11.5399982"><ele>35.0</ele><time>2026-04-11T09:55:04.921Z</time></trkpt><trkpt lat="45.4720811" lon="11.5399686"><ele>35.0</ele><time>2026-04-11T09:55:05.921Z</time></trkpt><trkpt lat="45.4720032" lon="11.5399422"><ele>35.0</ele><time>2026-04-11T09:55:06.921Z</time></trkpt><trkpt lat="45.4719211" lon="11.5399144"><ele>35.0</ele><time>2026-04-11T09:55:07.921Z</time></trkpt><trkpt lat="45.4718441" lon="11.5398874"><ele>35.0</ele><time>2026-04-11T09:55:08.921Z</time></trkpt><trkpt lat="45.4717663" lon="11.5398556"><ele>33.83333333333333</ele><time>2026-04-11T09:55:09.921Z</time></trkpt><trkpt lat="45.4716862" lon="11.5398199"><ele>32.666666666666664</ele><time>2026-04-11T09:55:10.92Z</time></trkpt><trkpt lat="45.4716113" lon="11.5397771"><ele>31.5</ele><time>2026-04-11T09:55:11.921Z</time></trkpt><trkpt lat="45.471529" lon="11.5397369"><ele>30.333333333333336</ele><time>2026-04-11T09:55:12.921Z</time></trkpt><trkpt lat="45.4714436" lon="11.5397"><ele>29.166666666666668</ele><time>2026-04-11T09:55:13.92Z</time></trkpt><trkpt lat="45.4713581" lon="11.5396701"><ele>28.0</ele><time>2026-04-11T09:55:14.921Z</time></trkpt><trkpt lat="45.4712688" lon="11.5396444"><ele>27.500000000000004</ele><time>2026-04-11T09:55:15.921Z</time></trkpt><trkpt lat="45.4711817" lon="11.5396077"><ele>27.0</ele><time>2026-04-11T09:55:16.921Z</time></trkpt><trkpt lat="45.4711038" lon="11.5395742"><ele>26.5</ele><time>2026-04-11T09:55:17.921Z</time></trkpt><trkpt lat="45.4710276" lon="11.5395451"><ele>26.0</ele><time>2026-04-11T09:55:18.921Z</time></trkpt><trkpt lat="45.4709635" lon="11.5395211"><ele>25.500000000000004</ele><time>2026-04-11T09:55:19.921Z</time></trkpt><trkpt lat="45.4709" lon="11.5395274"><ele>25.0</ele><time>2026-04-11T09:55:20.921Z</time></trkpt><trkpt lat="45.4707867" lon="11.5395915"><ele>25.000000000000004</ele><time>2026-04-11T09:55:22.921Z</time></trkpt><trkpt lat="45.4707247" lon="11.5396324"><ele>25.0</ele><time>2026-04-11T09:55:23.921Z</time></trkpt><trkpt lat="45.4706587" lon="11.5396607"><ele>25.0</ele><time>2026-04-11T09:55:24.921Z</time></trkpt><trkpt lat="45.4705985" lon="11.5396927"><ele>25.0</ele><time>2026-04-11T09:55:25.921Z</time></trkpt><trkpt lat="45.4705331" lon="11.5397233"><ele>25.000000000000004</ele><time>2026-04-11T09:55:26.921Z</time></trkpt><trkpt lat="45.4704699" lon="11.5397463"><ele>25.0</ele><time>2026-04-11T09:55:27.921Z</time></trkpt><trkpt lat="45.4703593" lon="11.53981"><ele>24.833333333333336</ele><time>2026-04-11T09:55:29.921Z</time></trkpt><trkpt lat="45.470306" lon="11.5399211"><ele>24.666666666666668</ele><time>2026-04-11T09:55:31.921Z</time></trkpt><trkpt lat="45.4702818" lon="11.5400393"><ele>24.5</ele><time>2026-04-11T09:55:33.921Z</time></trkpt><trkpt lat="45.4702668" lon="11.5401535"><ele>24.333333333333336</ele><time>2026-04-11T09:55:35.921Z</time></trkpt><trkpt lat="45.4702444" lon="11.5402428"><ele>24.166666666666668</ele><time>2026-04-11T09:55:37.921Z</time></trkpt><trkpt lat="45.4702696" lon="11.5403314"><ele>24.0</ele><time>2026-04-11T09:55:41.921Z</time></trkpt><trkpt lat="45.4702769" lon="11.5402418"><ele>24.0</ele><time>2026-04-11T10:07:06.921Z</time></trkpt><trkpt lat="45.4703425" lon="11.5402441"><ele>24.0</ele><time>2026-04-11T10:07:17.921Z</time></trkpt><trkpt lat="45.4704116" lon="11.5402657"><ele>24.0</ele><time>2026-04-11T10:07:19.921Z</time></trkpt><trkpt lat="45.470482" lon="11.5403029"><ele>24.0</ele><time>2026-04-11T10:07:21.921Z</time></trkpt><trkpt lat="45.4705522" lon="11.5403468"><ele>24.0</ele><time>2026-04-11T10:07:23.921Z</time></trkpt><trkpt lat="45.4706294" lon="11.5403901"><ele>24.0</ele><time>2026-04-11T10:07:25.921Z</time></trkpt><trkpt lat="45.4707136" lon="11.5404415"><ele>23.6</ele><time>2026-04-11T10:07:27.921Z</time></trkpt><trkpt lat="45.4708048" lon="11.5405008"><ele>23.2</ele><time>2026-04-11T10:07:29.921Z</time></trkpt><trkpt lat="45.470901" lon="11.5405628"><ele>22.8</ele><time>2026-04-11T10:07:31.921Z</time></trkpt><trkpt lat="45.4709992" lon="11.5406236"><ele>22.400000000000002</ele><time>2026-04-11T10:07:33.921Z</time></trkpt><trkpt lat="45.4710898" lon="11.5406848"><ele>22.0</ele><time>2026-04-11T10:07:35.921Z</time></trkpt><trkpt lat="45.4711826" lon="11.5407448"><ele>22.0</ele><time>2026-04-11T10:07:37.921Z</time></trkpt><trkpt lat="45.4712763" lon="11.5408077"><ele>22.0</ele><time>2026-04-11T10:07:39.921Z</time></trkpt><trkpt lat="45.4713731" lon="11.5408705"><ele>22.0</ele><time>2026-04-11T10:07:41.921Z</time></trkpt><trkpt lat="45.4714706" lon="11.5409307"><ele>22.0</ele><time>2026-04-11T10:07:43.921Z</time></trkpt><trkpt lat="45.4715386" lon="11.5409759"><ele>22.0</ele><time>2026-04-11T10:07:45.921Z</time></trkpt><trkpt lat="45.4715977" lon="11.5410073"><ele>22.0</ele><time>2026-04-11T10:07:47.921Z</time></trkpt><trkpt lat="45.4716938" lon="11.541069"><ele>22.0</ele><time>2026-04-11T10:07:49.921Z</time></trkpt><trkpt lat="45.4717561" lon="11.5411099"><ele>22.0</ele><time>2026-04-11T10:07:50.921Z</time></trkpt><trkpt lat="45.47182" lon="11.5411463"><ele>22.0</ele><time>2026-04-11T10:07:51.921Z</time></trkpt><trkpt lat="45.4718828" lon="11.541184"><ele>22.0</ele><time>2026-04-11T10:07:52.921Z</time></trkpt><trkpt lat="45.4719482" lon="11.5412224"><ele>22.0</ele><time>2026-04-11T10:07:53.921Z</time></trkpt><trkpt lat="45.4720171" lon="11.5412636"><ele>22.0</ele><time>2026-04-11T10:07:54.92Z</time></trkpt><trkpt lat="45.4720862" lon="11.5413041"><ele>22.0</ele><time>2026-04-11T10:07:55.921Z</time></trkpt><trkpt lat="45.4721598" lon="11.5413481"><ele>22.0</ele><time>2026-04-11T10:07:56.921Z</time></trkpt><trkpt lat="45.4722266" lon="11.5413897"><ele>22.0</ele><time>2026-04-11T10:07:57.921Z</time></trkpt><trkpt lat="45.4722888" lon="11.5414285"><ele>22.0</ele><time>2026-04-11T10:07:58.92Z</time></trkpt><trkpt lat="45.4723598" lon="11.5414719"><ele>22.0</ele><time>2026-04-11T10:07:59.921Z</time></trkpt><trkpt lat="45.4724264" lon="11.5415106"><ele>22.0</ele><time>2026-04-11T10:08:00.921Z</time></trkpt><trkpt lat="45.4724999" lon="11.5415496"><ele>22.166666666666664</ele><time>2026-04-11T10:08:01.921Z</time></trkpt><trkpt lat="45.4725756" lon="11.5415888"><ele>22.333333333333332</ele><time>2026-04-11T10:08:02.921Z</time></trkpt><trkpt lat="45.4726589" lon="11.5416277"><ele>22.5</ele><time>2026-04-11T10:08:03.921Z</time></trkpt><trkpt lat="45.4727412" lon="11.5416647"><ele>22.666666666666668</ele><time>2026-04-11T10:08:04.921Z</time></trkpt><trkpt lat="45.472825" lon="11.5417014"><ele>22.833333333333336</ele><time>2026-04-11T10:08:05.921Z</time></trkpt><trkpt lat="45.4729103" lon="11.5417338"><ele>23.0</ele><time>2026-04-11T10:08:06.921Z</time></trkpt><trkpt lat="45.4729953" lon="11.5417624"><ele>23.666666666666668</ele><time>2026-04-11T10:08:07.921Z</time></trkpt><trkpt lat="45.4730832" lon="11.5417821"><ele>24.333333333333336</ele><time>2026-04-11T10:08:08.921Z</time></trkpt><trkpt lat="45.4731738" lon="11.5417959"><ele>25.0</ele><time>2026-04-11T10:08:09.921Z</time></trkpt><trkpt lat="45.473263" lon="11.5418076"><ele>25.666666666666668</ele><time>2026-04-11T10:08:10.921Z</time></trkpt><trkpt lat="45.4733556" lon="11.5418149"><ele>26.333333333333332</ele><time>2026-04-11T10:08:11.921Z</time></trkpt><trkpt lat="45.4734412" lon="11.5418157"><ele>27.0</ele><time>2026-04-11T10:08:12.921Z</time></trkpt><trkpt lat="45.4735271" lon="11.5418187"><ele>27.0</ele><time>2026-04-11T10:08:13.921Z</time></trkpt><trkpt lat="45.4736199" lon="11.541817"><ele>27.000000000000004</ele><time>2026-04-11T10:08:14.921Z</time></trkpt><trkpt lat="45.4737117" lon="11.5418213"><ele>27.000000000000004</ele><time>2026-04-11T10:08:15.921Z</time></trkpt><trkpt lat="45.4738038" lon="11.5418213"><ele>27.0</ele><time>2026-04-11T10:08:16.921Z</time></trkpt><trkpt lat="45.4739009" lon="11.5418166"><ele>27.0</ele><time>2026-04-11T10:08:17.921Z</time></trkpt><trkpt lat="45.4739965" lon="11.5418092"><ele>26.400000000000002</ele><time>2026-04-11T10:08:18.921Z</time></trkpt><trkpt lat="45.4740907" lon="11.5418059"><ele>25.800000000000004</ele><time>2026-04-11T10:08:19.921Z</time></trkpt><trkpt lat="45.4741838" lon="11.5418011"><ele>25.2</ele><time>2026-04-11T10:08:20.921Z</time></trkpt><trkpt lat="45.4742789" lon="11.5417859"><ele>24.6</ele><time>2026-04-11T10:08:21.921Z</time></trkpt><trkpt lat="45.4743691" lon="11.5417794"><ele>24.0</ele><time>2026-04-11T10:08:22.921Z</time></trkpt><trkpt lat="45.4744664" lon="11.5417692"><ele>24.0</ele><time>2026-04-11T10:08:23.921Z</time></trkpt><trkpt lat="45.4745582" lon="11.5417551"><ele>24.0</ele><time>2026-04-11T10:08:24.92Z</time></trkpt><trkpt lat="45.4746465" lon="11.5417446"><ele>24.0</ele><time>2026-04-11T10:08:25.921Z</time></trkpt><trkpt lat="45.474734" lon="11.5417345"><ele>24.0</ele><time>2026-04-11T10:08:26.921Z</time></trkpt><trkpt lat="45.4748131" lon="11.5417248"><ele>24.0</ele><time>2026-04-11T10:08:27.921Z</time></trkpt><trkpt lat="45.4748863" lon="11.5417151"><ele>24.0</ele><time>2026-04-11T10:08:28.921Z</time></trkpt><trkpt lat="45.4749578" lon="11.541709"><ele>24.0</ele><time>2026-04-11T10:08:29.921Z</time></trkpt><trkpt lat="45.475033" lon="11.5417052"><ele>24.0</ele><time>2026-04-11T10:08:30.921Z</time></trkpt><trkpt lat="45.475117" lon="11.5417091"><ele>24.0</ele><time>2026-04-11T10:08:31.921Z</time></trkpt><trkpt lat="45.4752092" lon="11.5417177"><ele>24.0</ele><time>2026-04-11T10:08:32.921Z</time></trkpt><trkpt lat="45.4753007" lon="11.5417272"><ele>24.0</ele><time>2026-04-11T10:08:33.92Z</time></trkpt><trkpt lat="45.4753984" lon="11.5417321"><ele>24.0</ele><time>2026-04-11T10:08:34.921Z</time></trkpt><trkpt lat="45.4754946" lon="11.5417384"><ele>24.0</ele><time>2026-04-11T10:08:35.921Z</time></trkpt><trkpt lat="45.4755989" lon="11.5417416"><ele>24.0</ele><time>2026-04-11T10:08:36.921Z</time></trkpt><trkpt lat="45.4757055" lon="11.5417492"><ele>24.0</ele><time>2026-04-11T10:08:37.921Z</time></trkpt><trkpt lat="45.4758184" lon="11.541754"><ele>24.0</ele><time>2026-04-11T10:08:38.921Z</time></trkpt><trkpt lat="45.4759325" lon="11.5417599"><ele>24.0</ele><time>2026-04-11T10:08:39.921Z</time></trkpt><trkpt lat="45.4760451" lon="11.5417645"><ele>24.0</ele><time>2026-04-11T10:08:40.921Z</time></trkpt><trkpt lat="45.4761636" lon="11.541769"><ele>24.0</ele><time>2026-04-11T10:08:41.921Z</time></trkpt><trkpt lat="45.4762812" lon="11.5417697"><ele>24.0</ele><time>2026-04-11T10:08:42.921Z</time></trkpt><trkpt lat="45.4763966" lon="11.5417687"><ele>24.0</ele><time>2026-04-11T10:08:43.921Z</time></trkpt><trkpt lat="45.4765145" lon="11.5417629"><ele>23.5</ele><time>2026-04-11T10:08:44.921Z</time></trkpt><trkpt lat="45.4766341" lon="11.5417522"><ele>23.0</ele><time>2026-04-11T10:08:45.921Z</time></trkpt><trkpt lat="45.4767537" lon="11.5417275"><ele>22.5</ele><time>2026-04-11T10:08:46.921Z</time></trkpt><trkpt lat="45.4768734" lon="11.5416947"><ele>22.0</ele><time>2026-04-11T10:08:47.921Z</time></trkpt><trkpt lat="45.4769926" lon="11.5416436"><ele>21.75</ele><time>2026-04-11T10:08:48.921Z</time></trkpt><trkpt lat="45.4771097" lon="11.5415789"><ele>21.5</ele><time>2026-04-11T10:08:49.921Z</time></trkpt><trkpt lat="45.4772227" lon="11.5415023"><ele>21.25</ele><time>2026-04-11T10:08:50.921Z</time></trkpt><trkpt lat="45.4773457" lon="11.5413913"><ele>21.0</ele><time>2026-04-11T10:08:51.921Z</time></trkpt><trkpt lat="45.4774793" lon="11.5412439"><ele>24.0</ele><time>2026-04-11T10:08:52.921Z</time></trkpt><trkpt lat="45.4776249" lon="11.5410802"><ele>27.0</ele><time>2026-04-11T10:08:53.921Z</time></trkpt><trkpt lat="45.4777721" lon="11.5409084"><ele>30.0</ele><time>2026-04-11T10:08:54.921Z</time></trkpt><trkpt lat="45.4779051" lon="11.5407512"><ele>28.333333333333336</ele><time>2026-04-11T10:08:55.921Z</time></trkpt><trkpt lat="45.4780321" lon="11.5406068"><ele>26.666666666666668</ele><time>2026-04-11T10:08:56.921Z</time></trkpt><trkpt lat="45.4781508" lon="11.5404794"><ele>25.0</ele><time>2026-04-11T10:08:57.921Z</time></trkpt><trkpt lat="45.4782695" lon="11.5403516"><ele>25.25</ele><time>2026-04-11T10:08:58.921Z</time></trkpt><trkpt lat="45.47839" lon="11.540234"><ele>25.5</ele><time>2026-04-11T10:08:59.921Z</time></trkpt><trkpt lat="45.478517" lon="11.540121"><ele>25.75</ele><time>2026-04-11T10:09:00.921Z</time></trkpt><trkpt lat="45.478647" lon="11.5400072"><ele>26.0</ele><time>2026-04-11T10:09:01.921Z</time></trkpt><trkpt lat="45.4787722" lon="11.5398946"><ele>26.0</ele><time>2026-04-11T10:09:02.921Z</time></trkpt><trkpt lat="45.4789022" lon="11.5397662"><ele>26.0</ele><time>2026-04-11T10:09:03.921Z</time></trkpt><trkpt lat="45.4790253" lon="11.5396294"><ele>26.0</ele><time>2026-04-11T10:09:04.921Z</time></trkpt><trkpt lat="45.47915" lon="11.5394855"><ele>33.666666666666664</ele><time>2026-04-11T10:09:05.921Z</time></trkpt><trkpt lat="45.4792746" lon="11.5393386"><ele>41.33333333333333</ele><time>2026-04-11T10:09:06.921Z</time></trkpt><trkpt lat="45.4793932" lon="11.5391915"><ele>49.0</ele><time>2026-04-11T10:09:07.921Z</time></trkpt><trkpt lat="45.4795166" lon="11.5390471"><ele>49.666666666666664</ele><time>2026-04-11T10:09:08.921Z</time></trkpt><trkpt lat="45.4796468" lon="11.5389135"><ele>50.33333333333333</ele><time>2026-04-11T10:09:09.921Z</time></trkpt><trkpt lat="45.4797724" lon="11.5387766"><ele>51.0</ele><time>2026-04-11T10:09:10.921Z</time></trkpt><trkpt lat="45.4799005" lon="11.5386408"><ele>51.0</ele><time>2026-04-11T10:09:11.921Z</time></trkpt><trkpt lat="45.4800311" lon="11.5385091"><ele>51.0</ele><time>2026-04-11T10:09:12.921Z</time></trkpt><trkpt lat="45.4801649" lon="11.5383785"><ele>51.0</ele><time>2026-04-11T10:09:13.921Z</time></trkpt><trkpt lat="45.4803037" lon="11.5382486"><ele>43.0</ele><time>2026-04-11T10:09:14.92Z</time></trkpt><trkpt lat="45.4804407" lon="11.5381256"><ele>35.0</ele><time>2026-04-11T10:09:15.921Z</time></trkpt><trkpt lat="45.4805858" lon="11.5380084"><ele>27.0</ele><time>2026-04-11T10:09:16.921Z</time></trkpt><trkpt lat="45.480738" lon="11.5379054"><ele>35.33333333333333</ele><time>2026-04-11T10:09:17.921Z</time></trkpt><trkpt lat="45.480893" lon="11.5378102"><ele>43.666666666666664</ele><time>2026-04-11T10:09:18.921Z</time></trkpt><trkpt lat="45.4810462" lon="11.5377221"><ele>52.0</ele><time>2026-04-11T10:09:19.921Z</time></trkpt><trkpt lat="45.481201" lon="11.5376395"><ele>45.33333333333333</ele><time>2026-04-11T10:09:20.921Z</time></trkpt><trkpt lat="45.481352" lon="11.5375553"><ele>38.666666666666664</ele><time>2026-04-11T10:09:21.921Z</time></trkpt><trkpt lat="45.4814972" lon="11.5374669"><ele>32.0</ele><time>2026-04-11T10:09:22.921Z</time></trkpt><trkpt lat="45.4816373" lon="11.5373876"><ele>32.0</ele><time>2026-04-11T10:09:23.921Z</time></trkpt><trkpt lat="45.4817678" lon="11.5373162"><ele>32.0</ele><time>2026-04-11T10:09:24.921Z</time></trkpt><trkpt lat="45.4818864" lon="11.5372453"><ele>32.0</ele><time>2026-04-11T10:09:25.921Z</time></trkpt><trkpt lat="45.4820043" lon="11.5371804"><ele>32.0</ele><time>2026-04-11T10:09:26.921Z</time></trkpt><trkpt lat="45.482108" lon="11.5371217"><ele>33.0</ele><time>2026-04-11T10:09:27.921Z</time></trkpt><trkpt lat="45.4821922" lon="11.5370743"><ele>34.0</ele><time>2026-04-11T10:09:28.921Z</time></trkpt><trkpt lat="45.4822592" lon="11.5370287"><ele>35.0</ele><time>2026-04-11T10:09:29.921Z</time></trkpt><trkpt lat="45.4823363" lon="11.5369719"><ele>36.0</ele><time>2026-04-11T10:09:31.921Z</time></trkpt><trkpt lat="45.4824052" lon="11.5369253"><ele>37.0</ele><time>2026-04-11T10:09:34.921Z</time></trkpt><trkpt lat="45.4824694" lon="11.5368427"><ele>38.0</ele><time>2026-04-11T10:09:36.921Z</time></trkpt><trkpt lat="45.4825386" lon="11.5366914"><ele>38.0</ele><time>2026-04-11T10:09:37.921Z</time></trkpt><trkpt lat="45.4826184" lon="11.5365691"><ele>38.0</ele><time>2026-04-11T10:09:38.921Z</time></trkpt><trkpt lat="45.4826801" lon="11.5364547"><ele>38.0</ele><time>2026-04-11T10:09:39.921Z</time></trkpt><trkpt lat="45.482704" lon="11.5363403"><ele>38.0</ele><time>2026-04-11T10:09:40.921Z</time></trkpt><trkpt lat="45.4827122" lon="11.5362188"><ele>38.0</ele><time>2026-04-11T10:09:41.921Z</time></trkpt><trkpt lat="45.4826911" lon="11.5360703"><ele>42.0</ele><time>2026-04-11T10:09:42.921Z</time></trkpt><trkpt lat="45.4826516" lon="11.5359057"><ele>46.0</ele><time>2026-04-11T10:09:43.921Z</time></trkpt><trkpt lat="45.4826051" lon="11.5357107"><ele>50.0</ele><time>2026-04-11T10:09:44.921Z</time></trkpt><trkpt lat="45.4825542" lon="11.5354443"><ele>50.333333333333336</ele><time>2026-04-11T10:09:45.92Z</time></trkpt><trkpt lat="45.4824962" lon="11.5351935"><ele>50.66666666666667</ele><time>2026-04-11T10:09:46.921Z</time></trkpt><trkpt lat="45.4824498" lon="11.534973"><ele>51.0</ele><time>2026-04-11T10:09:47.921Z</time></trkpt><trkpt lat="45.4823965" lon="11.5347896"><ele>51.0</ele><time>2026-04-11T10:09:48.92Z</time></trkpt><trkpt lat="45.4823367" lon="11.5346333"><ele>51.0</ele><time>2026-04-11T10:09:49.921Z</time></trkpt><trkpt lat="45.4822616" lon="11.5344883"><ele>51.0</ele><time>2026-04-11T10:09:50.921Z</time></trkpt><trkpt lat="45.4821765" lon="11.5343572"><ele>51.0</ele><time>2026-04-11T10:09:51.921Z</time></trkpt><trkpt lat="45.4820941" lon="11.5342266"><ele>55.5</ele><time>2026-04-11T10:09:52.921Z</time></trkpt><trkpt lat="45.4820272" lon="11.5340804"><ele>60.0</ele><time>2026-04-11T10:09:53.92Z</time></trkpt><trkpt lat="45.4819897" lon="11.533903"><ele>64.5</ele><time>2026-04-11T10:09:54.92Z</time></trkpt><trkpt lat="45.4819373" lon="11.533734"><ele>69.0</ele><time>2026-04-11T10:09:55.921Z</time></trkpt><trkpt lat="45.4818831" lon="11.5335785"><ele>69.0</ele><time>2026-04-11T10:09:56.921Z</time></trkpt><trkpt lat="45.4818344" lon="11.5334577"><ele>69.0</ele><time>2026-04-11T10:09:57.921Z</time></trkpt><trkpt lat="45.4817879" lon="11.5333787"><ele>69.0</ele><time>2026-04-11T10:09:58.921Z</time></trkpt><trkpt lat="45.4817017" lon="11.5333232"><ele>69.0</ele><time>2026-04-11T10:10:00.921Z</time></trkpt><trkpt lat="45.4816561" lon="11.5334821"><ele>69.0</ele><time>2026-04-11T10:10:02.921Z</time></trkpt><trkpt lat="45.4816652" lon="11.5336225"><ele>72.0</ele><time>2026-04-11T10:10:03.921Z</time></trkpt><trkpt lat="45.4816796" lon="11.5338056"><ele>75.0</ele><time>2026-04-11T10:10:04.921Z</time></trkpt><trkpt lat="45.481671" lon="11.534034"><ele>78.0</ele><time>2026-04-11T10:10:05.921Z</time></trkpt><trkpt lat="45.4816498" lon="11.534242"><ele>81.0</ele><time>2026-04-11T10:10:06.921Z</time></trkpt><trkpt lat="45.4816436" lon="11.5344102"><ele>82.0</ele><time>2026-04-11T10:10:07.921Z</time></trkpt><trkpt lat="45.4816605" lon="11.5345687"><ele>83.0</ele><time>2026-04-11T10:10:08.921Z</time></trkpt><trkpt lat="45.4817006" lon="11.5347133"><ele>84.0</ele><time>2026-04-11T10:10:09.921Z</time></trkpt><trkpt lat="45.4817703" lon="11.5348415"><ele>85.0</ele><time>2026-04-11T10:10:10.921Z</time></trkpt><trkpt lat="45.481825" lon="11.5349479"><ele>86.0</ele><time>2026-04-11T10:10:11.92Z</time></trkpt><trkpt lat="45.481861" lon="11.5350428"><ele>86.0</ele><time>2026-04-11T10:10:12.921Z</time></trkpt><trkpt lat="45.4818311" lon="11.5352112"><ele>86.0</ele><time>2026-04-11T10:10:14.921Z</time></trkpt><trkpt lat="45.4817796" lon="11.535269"><ele>86.0</ele><time>2026-04-11T10:10:15.921Z</time></trkpt><trkpt lat="45.4816522" lon="11.5352381"><ele>86.0</ele><time>2026-04-11T10:10:17.921Z</time></trkpt><trkpt lat="45.4815835" lon="11.5351543"><ele>86.0</ele><time>2026-04-11T10:10:18.921Z</time></trkpt><trkpt lat="45.481511" lon="11.535027"><ele>86.0</ele><time>2026-04-11T10:10:19.921Z</time></trkpt><trkpt lat="45.4814358" lon="11.5348632"><ele>86.0</ele><time>2026-04-11T10:10:20.921Z</time></trkpt><trkpt lat="45.4813664" lon="11.5346775"><ele>86.0</ele><time>2026-04-11T10:10:21.921Z</time></trkpt><trkpt lat="45.4813071" lon="11.5344695"><ele>86.0</ele><time>2026-04-11T10:10:22.921Z</time></trkpt><trkpt lat="45.4812713" lon="11.5342654"><ele>85.6</ele><time>2026-04-11T10:10:23.921Z</time></trkpt><trkpt lat="45.4812364" lon="11.5340912"><ele>85.19999999999999</ele><time>2026-04-11T10:10:24.921Z</time></trkpt><trkpt lat="45.4812134" lon="11.5339441"><ele>84.80000000000001</ele><time>2026-04-11T10:10:25.921Z</time></trkpt><trkpt lat="45.4811746" lon="11.5338363"><ele>84.4</ele><time>2026-04-11T10:10:26.921Z</time></trkpt><trkpt lat="45.4811139" lon="11.5337705"><ele>84.0</ele><time>2026-04-11T10:10:27.921Z</time></trkpt><trkpt lat="45.4810264" lon="11.5337209"><ele>84.0</ele><time>2026-04-11T10:10:28.921Z</time></trkpt><trkpt lat="45.4809215" lon="11.5337149"><ele>84.0</ele><time>2026-04-11T10:10:29.921Z</time></trkpt><trkpt lat="45.4808147" lon="11.5337319"><ele>84.0</ele><time>2026-04-11T10:10:30.921Z</time></trkpt><trkpt lat="45.4807001" lon="11.5337829"><ele>84.0</ele><time>2026-04-11T10:10:31.921Z</time></trkpt><trkpt lat="45.480579" lon="11.5338359"><ele>87.5</ele><time>2026-04-11T10:10:32.921Z</time></trkpt><trkpt lat="45.4804513" lon="11.533888"><ele>91.0</ele><time>2026-04-11T10:10:33.921Z</time></trkpt><trkpt lat="45.4803149" lon="11.5339524"><ele>94.5</ele><time>2026-04-11T10:10:34.921Z</time></trkpt><trkpt lat="45.4801809" lon="11.5340161"><ele>98.0</ele><time>2026-04-11T10:10:35.921Z</time></trkpt><trkpt lat="45.4800485" lon="11.5340804"><ele>97.5</ele><time>2026-04-11T10:10:36.921Z</time></trkpt><trkpt lat="45.479918" lon="11.5341529"><ele>97.0</ele><time>2026-04-11T10:10:37.921Z</time></trkpt><trkpt lat="45.4797947" lon="11.5342436"><ele>96.5</ele><time>2026-04-11T10:10:38.921Z</time></trkpt><trkpt lat="45.4796797" lon="11.5343588"><ele>96.0</ele><time>2026-04-11T10:10:39.921Z</time></trkpt><trkpt lat="45.4795759" lon="11.5344987"><ele>99.5</ele><time>2026-04-11T10:10:40.921Z</time></trkpt><trkpt lat="45.4794864" lon="11.5346488"><ele>103.0</ele><time>2026-04-11T10:10:41.921Z</time></trkpt><trkpt lat="45.4794004" lon="11.5347925"><ele>106.5</ele><time>2026-04-11T10:10:42.921Z</time></trkpt><trkpt lat="45.4793091" lon="11.5349207"><ele>110.0</ele><time>2026-04-11T10:10:43.921Z</time></trkpt><trkpt lat="45.4792164" lon="11.5350149"><ele>110.0</ele><time>2026-04-11T10:10:44.921Z</time></trkpt><trkpt lat="45.4791196" lon="11.5350686"><ele>110.0</ele><time>2026-04-11T10:10:45.92Z</time></trkpt><trkpt lat="45.479014" lon="11.535087"><ele>110.0</ele><time>2026-04-11T10:10:46.921Z</time></trkpt><trkpt lat="45.4789021" lon="11.5350651"><ele>110.0</ele><time>2026-04-11T10:10:47.921Z</time></trkpt><trkpt lat="45.478791" lon="11.5350077"><ele>110.0</ele><time>2026-04-11T10:10:48.92Z</time></trkpt><trkpt lat="45.4786826" lon="11.5349323"><ele>112.0</ele><time>2026-04-11T10:10:49.921Z</time></trkpt><trkpt lat="45.4785732" lon="11.5348558"><ele>114.0</ele><time>2026-04-11T10:10:50.921Z</time></trkpt><trkpt lat="45.4784596" lon="11.5347944"><ele>116.0</ele><time>2026-04-11T10:10:51.921Z</time></trkpt><trkpt lat="45.4783403" lon="11.5347565"><ele>118.0</ele><time>2026-04-11T10:10:52.921Z</time></trkpt><trkpt lat="45.4782305" lon="11.5347326"><ele>118.0</ele><time>2026-04-11T10:10:53.921Z</time></trkpt><trkpt lat="45.4781162" lon="11.5346985"><ele>118.0</ele><time>2026-04-11T10:10:54.921Z</time></trkpt><trkpt lat="45.4780048" lon="11.5346772"><ele>118.0</ele><time>2026-04-11T10:10:55.921Z</time></trkpt><trkpt lat="45.4778693" lon="11.5346977"><ele>118.0</ele><time>2026-04-11T10:10:56.92Z</time></trkpt><trkpt lat="45.4777274" lon="11.5347433"><ele>121.66666666666667</ele><time>2026-04-11T10:10:57.921Z</time></trkpt><trkpt lat="45.4775624" lon="11.5348224"><ele>125.33333333333334</ele><time>2026-04-11T10:10:58.921Z</time></trkpt><trkpt lat="45.4774127" lon="11.5349074"><ele>129.0</ele><time>2026-04-11T10:10:59.921Z</time></trkpt><trkpt lat="45.4772654" lon="11.5349866"><ele>129.0</ele><time>2026-04-11T10:11:00.921Z</time></trkpt><trkpt lat="45.4771213" lon="11.5350665"><ele>129.0</ele><time>2026-04-11T10:11:01.921Z</time></trkpt><trkpt lat="45.4769741" lon="11.535154"><ele>129.0</ele><time>2026-04-11T10:11:02.921Z</time></trkpt><trkpt lat="45.4768376" lon="11.535243"><ele>130.0</ele><time>2026-04-11T10:11:03.921Z</time></trkpt><trkpt lat="45.4767025" lon="11.535325"><ele>131.0</ele><time>2026-04-11T10:11:04.921Z</time></trkpt><trkpt lat="45.4765755" lon="11.5354013"><ele>132.0</ele><time>2026-04-11T10:11:05.921Z</time></trkpt><trkpt lat="45.4764546" lon="11.5354701"><ele>133.0</ele><time>2026-04-11T10:11:06.921Z</time></trkpt><trkpt lat="45.476345" lon="11.5355288"><ele>136.6</ele><time>2026-04-11T10:11:07.921Z</time></trkpt><trkpt lat="45.4762492" lon="11.5355833"><ele>140.20000000000002</ele><time>2026-04-11T10:11:08.921Z</time></trkpt><trkpt lat="45.4761603" lon="11.535637"><ele>143.8</ele><time>2026-04-11T10:11:09.921Z</time></trkpt><trkpt lat="45.4760849" lon="11.5356833"><ele>147.4</ele><time>2026-04-11T10:11:10.921Z</time></trkpt><trkpt lat="45.4760116" lon="11.535721"><ele>151.0</ele><time>2026-04-11T10:11:11.921Z</time></trkpt><trkpt lat="45.4759172" lon="11.5357866"><ele>151.0</ele><time>2026-04-11T10:11:12.921Z</time></trkpt><trkpt lat="45.4758349" lon="11.5358422"><ele>151.0</ele><time>2026-04-11T10:11:13.921Z</time></trkpt><trkpt lat="45.4757512" lon="11.5358842"><ele>151.0</ele><time>2026-04-11T10:11:14.921Z</time></trkpt><trkpt lat="45.475663" lon="11.5359014"><ele>151.0</ele><time>2026-04-11T10:11:15.921Z</time></trkpt><trkpt lat="45.475573" lon="11.5359011"><ele>151.0</ele><time>2026-04-11T10:11:16.921Z</time></trkpt><trkpt lat="45.4754829" lon="11.5358864"><ele>151.0</ele><time>2026-04-11T10:11:17.921Z</time></trkpt><trkpt lat="45.4753942" lon="11.5358644"><ele>153.2</ele><time>2026-04-11T10:11:18.921Z</time></trkpt><trkpt lat="45.4753074" lon="11.5358435"><ele>155.39999999999998</ele><time>2026-04-11T10:11:19.921Z</time></trkpt><trkpt lat="45.4752167" lon="11.5358295"><ele>157.6</ele><time>2026-04-11T10:11:20.921Z</time></trkpt><trkpt lat="45.4751196" lon="11.535816"><ele>159.79999999999998</ele><time>2026-04-11T10:11:21.921Z</time></trkpt><trkpt lat="45.4750184" lon="11.535789"><ele>162.0</ele><time>2026-04-11T10:11:22.921Z</time></trkpt><trkpt lat="45.4749136" lon="11.535754"><ele>162.0</ele><time>2026-04-11T10:11:23.921Z</time></trkpt><trkpt lat="45.4748116" lon="11.535708"><ele>162.0</ele><time>2026-04-11T10:11:24.921Z</time></trkpt><trkpt lat="45.4747045" lon="11.5356817"><ele>162.0</ele><time>2026-04-11T10:11:25.921Z</time></trkpt><trkpt lat="45.4745991" lon="11.5356819"><ele>162.0</ele><time>2026-04-11T10:11:26.921Z</time></trkpt><trkpt lat="45.474495" lon="11.5357024"><ele>162.0</ele><time>2026-04-11T10:11:27.921Z</time></trkpt><trkpt lat="45.4743988" lon="11.5357339"><ele>162.83333333333334</ele><time>2026-04-11T10:11:28.921Z</time></trkpt><trkpt lat="45.4743104" lon="11.5357821"><ele>163.66666666666666</ele><time>2026-04-11T10:11:29.921Z</time></trkpt><trkpt lat="45.4742368" lon="11.5358438"><ele>164.5</ele><time>2026-04-11T10:11:30.921Z</time></trkpt><trkpt lat="45.4741741" lon="11.5359147"><ele>165.33333333333331</ele><time>2026-04-11T10:11:31.921Z</time></trkpt><trkpt lat="45.4741179" lon="11.5359597"><ele>166.16666666666666</ele><time>2026-04-11T10:11:32.921Z</time></trkpt><trkpt lat="45.4740586" lon="11.5359918"><ele>167.0</ele><time>2026-04-11T10:11:33.921Z</time></trkpt><trkpt lat="45.473996" lon="11.5360099"><ele>167.0</ele><time>2026-04-11T10:11:34.921Z</time></trkpt><trkpt lat="45.4739317" lon="11.5359986"><ele>167.0</ele><time>2026-04-11T10:11:35.921Z</time></trkpt><trkpt lat="45.4738107" lon="11.5359343"><ele>167.0</ele><time>2026-04-11T10:11:37.921Z</time></trkpt><trkpt lat="45.4737449" lon="11.5358876"><ele>167.0</ele><time>2026-04-11T10:11:38.921Z</time></trkpt><trkpt lat="45.4736768" lon="11.5358407"><ele>167.0</ele><time>2026-04-11T10:11:39.921Z</time></trkpt><trkpt lat="45.4736038" lon="11.5357979"><ele>167.0</ele><time>2026-04-11T10:11:40.92Z</time></trkpt><trkpt lat="45.473528" lon="11.5357529"><ele>168.16666666666666</ele><time>2026-04-11T10:11:41.921Z</time></trkpt><trkpt lat="45.4734576" lon="11.5356968"><ele>169.33333333333331</ele><time>2026-04-11T10:11:42.921Z</time></trkpt><trkpt lat="45.4734013" lon="11.5356203"><ele>170.5</ele><time>2026-04-11T10:11:43.921Z</time></trkpt><trkpt lat="45.4733565" lon="11.5355099"><ele>171.66666666666666</ele><time>2026-04-11T10:11:44.921Z</time></trkpt><trkpt lat="45.4733169" lon="11.5353908"><ele>172.83333333333334</ele><time>2026-04-11T10:11:45.921Z</time></trkpt><trkpt lat="45.4732716" lon="11.535275"><ele>174.0</ele><time>2026-04-11T10:11:46.921Z</time></trkpt><trkpt lat="45.4732196" lon="11.5351643"><ele>174.5</ele><time>2026-04-11T10:11:47.921Z</time></trkpt><trkpt lat="45.4731686" lon="11.5350516"><ele>175.0</ele><time>2026-04-11T10:11:48.921Z</time></trkpt><trkpt lat="45.4731158" lon="11.5349658"><ele>175.5</ele><time>2026-04-11T10:11:49.921Z</time></trkpt><trkpt lat="45.473054" lon="11.5348797"><ele>176.0</ele><time>2026-04-11T10:11:50.921Z</time></trkpt><trkpt lat="45.4729864" lon="11.5348124"><ele>176.5</ele><time>2026-04-11T10:11:51.92Z</time></trkpt><trkpt lat="45.4729118" lon="11.5347442"><ele>177.0</ele><time>2026-04-11T10:11:52.921Z</time></trkpt><trkpt lat="45.4728319" lon="11.5346914"><ele>177.16666666666666</ele><time>2026-04-11T10:11:53.921Z</time></trkpt><trkpt lat="45.4727505" lon="11.5346388"><ele>177.33333333333334</ele><time>2026-04-11T10:11:54.921Z</time></trkpt><trkpt lat="45.4726696" lon="11.5345866"><ele>177.5</ele><time>2026-04-11T10:11:55.921Z</time></trkpt><trkpt lat="45.4725931" lon="11.5345281"><ele>177.66666666666669</ele><time>2026-04-11T10:11:56.921Z</time></trkpt><trkpt lat="45.4725278" lon="11.5344677"><ele>177.83333333333334</ele><time>2026-04-11T10:11:57.921Z</time></trkpt><trkpt lat="45.472473" lon="11.5344057"><ele>178.0</ele><time>2026-04-11T10:11:58.921Z</time></trkpt><trkpt lat="45.472413" lon="11.534339"><ele>177.83333333333334</ele><time>2026-04-11T10:11:59.921Z</time></trkpt><trkpt lat="45.472354" lon="11.5342618"><ele>177.66666666666669</ele><time>2026-04-11T10:12:00.921Z</time></trkpt><trkpt lat="45.4722952" lon="11.5341918"><ele>177.5</ele><time>2026-04-11T10:12:01.921Z</time></trkpt><trkpt lat="45.4722425" lon="11.5341267"><ele>177.33333333333334</ele><time>2026-04-11T10:12:02.921Z</time></trkpt><trkpt lat="45.4721653" lon="11.5340624"><ele>177.16666666666666</ele><time>2026-04-11T10:12:03.921Z</time></trkpt><trkpt lat="45.4720572" lon="11.5339977"><ele>177.0</ele><time>2026-04-11T10:12:04.921Z</time></trkpt><trkpt lat="45.471904" lon="11.5339334"><ele>177.0</ele><time>2026-04-11T10:12:05.921Z</time></trkpt><trkpt lat="45.4717025" lon="11.5338586"><ele>177.0</ele><time>2026-04-11T10:12:06.921Z</time></trkpt><trkpt lat="45.4714725" lon="11.5337695"><ele>177.0</ele><time>2026-04-11T10:12:07.921Z</time></trkpt><trkpt lat="45.471249" lon="11.5336849"><ele>185.0</ele><time>2026-04-11T10:12:08.921Z</time></trkpt><trkpt lat="45.4710601" lon="11.5336197"><ele>193.0</ele><time>2026-04-11T10:12:09.921Z</time></trkpt><trkpt lat="45.4708943" lon="11.5335755"><ele>201.0</ele><time>2026-04-11T10:12:10.921Z</time></trkpt><trkpt lat="45.470746" lon="11.5335488"><ele>201.0</ele><time>2026-04-11T10:12:11.921Z</time></trkpt><trkpt lat="45.4706097" lon="11.5335437"><ele>201.0</ele><time>2026-04-11T10:12:12.921Z</time></trkpt><trkpt lat="45.4704804" lon="11.5335662"><ele>201.0</ele><time>2026-04-11T10:12:13.921Z</time></trkpt><trkpt lat="45.4703636" lon="11.5336545"><ele>201.0</ele><time>2026-04-11T10:12:14.921Z</time></trkpt><trkpt lat="45.4702519" lon="11.5337638"><ele>198.25</ele><time>2026-04-11T10:12:15.921Z</time></trkpt><trkpt lat="45.4701392" lon="11.5338646"><ele>195.5</ele><time>2026-04-11T10:12:16.921Z</time></trkpt><trkpt lat="45.4700191" lon="11.5339411"><ele>192.75</ele><time>2026-04-11T10:12:17.921Z</time></trkpt><trkpt lat="45.4699117" lon="11.5339974"><ele>190.0</ele><time>2026-04-11T10:12:18.921Z</time></trkpt><trkpt lat="45.4698212" lon="11.5340329"><ele>190.0</ele><time>2026-04-11T10:12:19.92Z</time></trkpt><trkpt lat="45.4697333" lon="11.5340612"><ele>190.0</ele><time>2026-04-11T10:12:20.921Z</time></trkpt><trkpt lat="45.4696702" lon="11.5340409"><ele>190.0</ele><time>2026-04-11T10:12:21.921Z</time></trkpt><trkpt lat="45.4696115" lon="11.533992"><ele>190.0</ele><time>2026-04-11T10:12:22.921Z</time></trkpt><trkpt lat="45.4695571" lon="11.5338923"><ele>190.0</ele><time>2026-04-11T10:12:23.921Z</time></trkpt><trkpt lat="45.4695086" lon="11.5337691"><ele>190.0</ele><time>2026-04-11T10:12:24.921Z</time></trkpt><trkpt lat="45.4694571" lon="11.5336311"><ele>193.0</ele><time>2026-04-11T10:12:25.921Z</time></trkpt><trkpt lat="45.4694072" lon="11.5334727"><ele>196.0</ele><time>2026-04-11T10:12:26.921Z</time></trkpt><trkpt lat="45.4693558" lon="11.5333105"><ele>199.0</ele><time>2026-04-11T10:12:27.921Z</time></trkpt><trkpt lat="45.4693012" lon="11.5331492"><ele>202.0</ele><time>2026-04-11T10:12:28.921Z</time></trkpt><trkpt lat="45.4692418" lon="11.5330049"><ele>205.0</ele><time>2026-04-11T10:12:29.921Z</time></trkpt><trkpt lat="45.4691613" lon="11.5328872"><ele>208.0</ele><time>2026-04-11T10:12:30.921Z</time></trkpt><trkpt lat="45.4690541" lon="11.5328045"><ele>211.0</ele><time>2026-04-11T10:12:31.921Z</time></trkpt><trkpt lat="45.4689379" lon="11.5327509"><ele>214.0</ele><time>2026-04-11T10:12:32.921Z</time></trkpt><trkpt lat="45.468815" lon="11.5327316"><ele>214.0</ele><time>2026-04-11T10:12:33.921Z</time></trkpt><trkpt lat="45.4687039" lon="11.5327469"><ele>213.99999999999997</ele><time>2026-04-11T10:12:34.921Z</time></trkpt><trkpt lat="45.4685989" lon="11.5327849"><ele>213.99999999999997</ele><time>2026-04-11T10:12:35.921Z</time></trkpt><trkpt lat="45.4685031" lon="11.5328107"><ele>214.0</ele><time>2026-04-11T10:12:36.921Z</time></trkpt><trkpt lat="45.4684182" lon="11.5327962"><ele>214.0</ele><time>2026-04-11T10:12:37.921Z</time></trkpt><trkpt lat="45.4683345" lon="11.5327574"><ele>214.0</ele><time>2026-04-11T10:12:38.921Z</time></trkpt><trkpt lat="45.4682466" lon="11.5326869"><ele>214.0</ele><time>2026-04-11T10:12:39.921Z</time></trkpt><trkpt lat="45.4681566" lon="11.532586"><ele>214.0</ele><time>2026-04-11T10:12:40.921Z</time></trkpt><trkpt lat="45.4680423" lon="11.5324497"><ele>214.0</ele><time>2026-04-11T10:12:41.921Z</time></trkpt><trkpt lat="45.4679111" lon="11.5322958"><ele>215.66666666666666</ele><time>2026-04-11T10:12:42.921Z</time></trkpt><trkpt lat="45.4677771" lon="11.5321505"><ele>217.33333333333331</ele><time>2026-04-11T10:12:43.921Z</time></trkpt><trkpt lat="45.4676346" lon="11.5319875"><ele>219.0</ele><time>2026-04-11T10:12:44.921Z</time></trkpt><trkpt lat="45.4674912" lon="11.5318357"><ele>219.0</ele><time>2026-04-11T10:12:45.921Z</time></trkpt><trkpt lat="45.4673498" lon="11.5316849"><ele>219.0</ele><time>2026-04-11T10:12:46.921Z</time></trkpt><trkpt lat="45.4672131" lon="11.531525"><ele>219.0</ele><time>2026-04-11T10:12:47.921Z</time></trkpt><trkpt lat="45.4670825" lon="11.5313773"><ele>217.0</ele><time>2026-04-11T10:12:48.921Z</time></trkpt><trkpt lat="45.4669416" lon="11.5312538"><ele>215.0</ele><time>2026-04-11T10:12:49.921Z</time></trkpt><trkpt lat="45.4667848" lon="11.5311533"><ele>213.0</ele><time>2026-04-11T10:12:50.921Z</time></trkpt><trkpt lat="45.4666218" lon="11.5310775"><ele>218.0</ele><time>2026-04-11T10:12:51.92Z</time></trkpt><trkpt lat="45.4664606" lon="11.5310189"><ele>223.0</ele><time>2026-04-11T10:12:52.92Z</time></trkpt><trkpt lat="45.4663036" lon="11.5309415"><ele>228.0</ele><time>2026-04-11T10:12:53.921Z</time></trkpt><trkpt lat="45.4661659" lon="11.5308272"><ele>228.5</ele><time>2026-04-11T10:12:54.921Z</time></trkpt><trkpt lat="45.4660435" lon="11.5307241"><ele>229.0</ele><time>2026-04-11T10:12:55.921Z</time></trkpt><trkpt lat="45.4659261" lon="11.5306633"><ele>229.5</ele><time>2026-04-11T10:12:56.921Z</time></trkpt><trkpt lat="45.4658235" lon="11.5306149"><ele>230.0</ele><time>2026-04-11T10:12:57.92Z</time></trkpt><trkpt lat="45.4657246" lon="11.5305366"><ele>230.0</ele><time>2026-04-11T10:12:58.921Z</time></trkpt><trkpt lat="45.4656186" lon="11.5304204"><ele>230.0</ele><time>2026-04-11T10:12:59.921Z</time></trkpt><trkpt lat="45.4655162" lon="11.5303075"><ele>230.0</ele><time>2026-04-11T10:13:00.921Z</time></trkpt><trkpt lat="45.4654249" lon="11.530196"><ele>230.0</ele><time>2026-04-11T10:13:01.921Z</time></trkpt><trkpt lat="45.4653441" lon="11.5300917"><ele>232.0</ele><time>2026-04-11T10:13:02.921Z</time></trkpt><trkpt lat="45.4652426" lon="11.5300242"><ele>234.0</ele><time>2026-04-11T10:13:03.921Z</time></trkpt><trkpt lat="45.4651365" lon="11.5299958"><ele>236.0</ele><time>2026-04-11T10:13:04.921Z</time></trkpt><trkpt lat="45.4650316" lon="11.5299865"><ele>238.0</ele><time>2026-04-11T10:13:05.921Z</time></trkpt><trkpt lat="45.4649419" lon="11.5300027"><ele>240.0</ele><time>2026-04-11T10:13:06.921Z</time></trkpt><trkpt lat="45.4648454" lon="11.5300434"><ele>240.0</ele><time>2026-04-11T10:13:07.921Z</time></trkpt><trkpt lat="45.4647482" lon="11.5300934"><ele>240.0</ele><time>2026-04-11T10:13:08.921Z</time></trkpt><trkpt lat="45.4646552" lon="11.5301988"><ele>240.0</ele><time>2026-04-11T10:13:09.921Z</time></trkpt><trkpt lat="45.4645774" lon="11.5303299"><ele>240.0</ele><time>2026-04-11T10:13:10.921Z</time></trkpt><trkpt lat="45.4645054" lon="11.5304633"><ele>241.75</ele><time>2026-04-11T10:13:11.921Z</time></trkpt><trkpt lat="45.4644492" lon="11.5306164"><ele>243.5</ele><time>2026-04-11T10:13:12.921Z</time></trkpt><trkpt lat="45.464399" lon="11.5307653"><ele>245.25</ele><time>2026-04-11T10:13:13.92Z</time></trkpt><trkpt lat="45.4643266" lon="11.5309154"><ele>247.0</ele><time>2026-04-11T10:13:14.921Z</time></trkpt><trkpt lat="45.4642514" lon="11.5310634"><ele>247.0</ele><time>2026-04-11T10:13:15.921Z</time></trkpt><trkpt lat="45.4641729" lon="11.5312104"><ele>247.0</ele><time>2026-04-11T10:13:16.921Z</time></trkpt><trkpt lat="45.464081" lon="11.5313083"><ele>247.0</ele><time>2026-04-11T10:13:17.921Z</time></trkpt><trkpt lat="45.4639863" lon="11.5313704"><ele>247.0</ele><time>2026-04-11T10:13:18.921Z</time></trkpt><trkpt lat="45.4638955" lon="11.5314065"><ele>247.0</ele><time>2026-04-11T10:13:19.921Z</time></trkpt><trkpt lat="45.4637964" lon="11.5314174"><ele>247.5</ele><time>2026-04-11T10:13:20.921Z</time></trkpt><trkpt lat="45.4636689" lon="11.5314117"><ele>248.0</ele><time>2026-04-11T10:13:21.92Z</time></trkpt><trkpt lat="45.463538" lon="11.5314131"><ele>248.5</ele><time>2026-04-11T10:13:22.921Z</time></trkpt><trkpt lat="45.4634105" lon="11.5314214"><ele>249.0</ele><time>2026-04-11T10:13:23.921Z</time></trkpt><trkpt lat="45.4632804" lon="11.531458"><ele>249.0</ele><time>2026-04-11T10:13:24.921Z</time></trkpt><trkpt lat="45.463147" lon="11.5315107"><ele>249.0</ele><time>2026-04-11T10:13:25.921Z</time></trkpt><trkpt lat="45.4630191" lon="11.5315807"><ele>249.0</ele><time>2026-04-11T10:13:26.921Z</time></trkpt><trkpt lat="45.4628889" lon="11.5316591"><ele>249.0</ele><time>2026-04-11T10:13:27.921Z</time></trkpt><trkpt lat="45.4627511" lon="11.5317298"><ele>251.0</ele><time>2026-04-11T10:13:28.921Z</time></trkpt><trkpt lat="45.4626221" lon="11.5318045"><ele>253.0</ele><time>2026-04-11T10:13:29.92Z</time></trkpt><trkpt lat="45.4625138" lon="11.5318738"><ele>255.0</ele><time>2026-04-11T10:13:30.921Z</time></trkpt><trkpt lat="45.462411" lon="11.5319275"><ele>257.0</ele><time>2026-04-11T10:13:31.921Z</time></trkpt><trkpt lat="45.4622947" lon="11.5319486"><ele>257.0</ele><time>2026-04-11T10:13:32.921Z</time></trkpt><trkpt lat="45.4621829" lon="11.5319466"><ele>257.0</ele><time>2026-04-11T10:13:33.921Z</time></trkpt><trkpt lat="45.4620768" lon="11.5319103"><ele>257.0</ele><time>2026-04-11T10:13:34.921Z</time></trkpt><trkpt lat="45.4619702" lon="11.53187"><ele>257.0</ele><time>2026-04-11T10:13:35.921Z</time></trkpt><trkpt lat="45.4618862" lon="11.5317766"><ele>257.0</ele><time>2026-04-11T10:13:36.921Z</time></trkpt><trkpt lat="45.4618035" lon="11.5316539"><ele>256.8</ele><time>2026-04-11T10:13:37.921Z</time></trkpt><trkpt lat="45.4617374" lon="11.5315277"><ele>256.6</ele><time>2026-04-11T10:13:38.921Z</time></trkpt><trkpt lat="45.4616734" lon="11.5314289"><ele>256.40000000000003</ele><time>2026-04-11T10:13:39.92Z</time></trkpt><trkpt lat="45.4616094" lon="11.5313483"><ele>256.2</ele><time>2026-04-11T10:13:40.921Z</time></trkpt><trkpt lat="45.4615306" lon="11.5312952"><ele>256.0</ele><time>2026-04-11T10:13:41.921Z</time></trkpt><trkpt lat="45.4614278" lon="11.531283"><ele>256.0</ele><time>2026-04-11T10:13:42.921Z</time></trkpt><trkpt lat="45.4613065" lon="11.5312738"><ele>256.0</ele><time>2026-04-11T10:13:43.921Z</time></trkpt><trkpt lat="45.4611547" lon="11.5313122"><ele>256.0</ele><time>2026-04-11T10:13:44.921Z</time></trkpt><trkpt lat="45.4610074" lon="11.5313713"><ele>256.0</ele><time>2026-04-11T10:13:45.92Z</time></trkpt><trkpt lat="45.4608967" lon="11.5314663"><ele>255.8</ele><time>2026-04-11T10:13:46.921Z</time></trkpt><trkpt lat="45.4607993" lon="11.5315448"><ele>255.60000000000002</ele><time>2026-04-11T10:13:47.921Z</time></trkpt><trkpt lat="45.460713" lon="11.5315555"><ele>255.4</ele><time>2026-04-11T10:13:48.921Z</time></trkpt><trkpt lat="45.4606334" lon="11.5315283"><ele>255.2</ele><time>2026-04-11T10:13:49.921Z</time></trkpt><trkpt lat="45.4605741" lon="11.5314531"><ele>255.0</ele><time>2026-04-11T10:13:50.921Z</time></trkpt><trkpt lat="45.4605179" lon="11.5313315"><ele>256.5</ele><time>2026-04-11T10:13:51.921Z</time></trkpt><trkpt lat="45.4604635" lon="11.5311771"><ele>258.0</ele><time>2026-04-11T10:13:52.921Z</time></trkpt><trkpt lat="45.4604049" lon="11.5310357"><ele>259.5</ele><time>2026-04-11T10:13:53.921Z</time></trkpt><trkpt lat="45.4603379" lon="11.5309109"><ele>261.0</ele><time>2026-04-11T10:13:54.921Z</time></trkpt><trkpt lat="45.4602331" lon="11.530828"><ele>263.2</ele><time>2026-04-11T10:13:55.921Z</time></trkpt><trkpt lat="45.4601323" lon="11.5307642"><ele>265.40000000000003</ele><time>2026-04-11T10:13:56.921Z</time></trkpt><trkpt lat="45.4600262" lon="11.5307066"><ele>267.6</ele><time>2026-04-11T10:13:57.921Z</time></trkpt><trkpt lat="45.4599214" lon="11.5306617"><ele>269.8</ele><time>2026-04-11T10:13:58.921Z</time></trkpt><trkpt lat="45.4598175" lon="11.5306405"><ele>272.0</ele><time>2026-04-11T10:13:59.92Z</time></trkpt><trkpt lat="45.4597272" lon="11.5306475"><ele>272.0</ele><time>2026-04-11T10:14:00.921Z</time></trkpt><trkpt lat="45.459645" lon="11.5306896"><ele>272.0</ele><time>2026-04-11T10:14:01.921Z</time></trkpt><trkpt lat="45.4595772" lon="11.5307863"><ele>272.0</ele><time>2026-04-11T10:14:02.921Z</time></trkpt><trkpt lat="45.4595243" lon="11.5309042"><ele>272.0</ele><time>2026-04-11T10:14:03.921Z</time></trkpt><trkpt lat="45.4594781" lon="11.5310329"><ele>272.0</ele><time>2026-04-11T10:14:04.921Z</time></trkpt><trkpt lat="45.4594241" lon="11.5311539"><ele>272.4</ele><time>2026-04-11T10:14:05.921Z</time></trkpt><trkpt lat="45.4593415" lon="11.5312486"><ele>272.79999999999995</ele><time>2026-04-11T10:14:06.921Z</time></trkpt><trkpt lat="45.4592514" lon="11.5312976"><ele>273.2</ele><time>2026-04-11T10:14:07.92Z</time></trkpt><trkpt lat="45.4591491" lon="11.5313177"><ele>273.59999999999997</ele><time>2026-04-11T10:14:08.921Z</time></trkpt><trkpt lat="45.4590549" lon="11.5312808"><ele>274.0</ele><time>2026-04-11T10:14:09.921Z</time></trkpt><trkpt lat="45.4589625" lon="11.5312118"><ele>275.0</ele><time>2026-04-11T10:14:10.921Z</time></trkpt><trkpt lat="45.4588565" lon="11.5311365"><ele>276.0</ele><time>2026-04-11T10:14:11.921Z</time></trkpt><trkpt lat="45.4587539" lon="11.5310492"><ele>277.0</ele><time>2026-04-11T10:14:12.921Z</time></trkpt><trkpt lat="45.4586348" lon="11.5309433"><ele>278.0</ele><time>2026-04-11T10:14:13.921Z</time></trkpt><trkpt lat="45.4585078" lon="11.5307925"><ele>278.0</ele><time>2026-04-11T10:14:14.921Z</time></trkpt><trkpt lat="45.4583613" lon="11.5306006"><ele>278.0</ele><time>2026-04-11T10:14:15.921Z</time></trkpt><trkpt lat="45.4582118" lon="11.5304091"><ele>278.0</ele><time>2026-04-11T10:14:16.921Z</time></trkpt><trkpt lat="45.4580395" lon="11.5302481"><ele>280.0</ele><time>2026-04-11T10:14:17.921Z</time></trkpt><trkpt lat="45.4578852" lon="11.5301079"><ele>282.0</ele><time>2026-04-11T10:14:18.921Z</time></trkpt><trkpt lat="45.4577491" lon="11.5299916"><ele>284.0</ele><time>2026-04-11T10:14:19.921Z</time></trkpt><trkpt lat="45.4576321" lon="11.5298813"><ele>284.0</ele><time>2026-04-11T10:14:20.92Z</time></trkpt><trkpt lat="45.4575267" lon="11.529803"><ele>284.0</ele><time>2026-04-11T10:14:21.921Z</time></trkpt><trkpt lat="45.4574239" lon="11.5297772"><ele>284.0</ele><time>2026-04-11T10:14:22.921Z</time></trkpt><trkpt lat="45.4573137" lon="11.5297938"><ele>284.0</ele><time>2026-04-11T10:14:23.921Z</time></trkpt><trkpt lat="45.4571954" lon="11.5298505"><ele>286.6666666666667</ele><time>2026-04-11T10:14:24.921Z</time></trkpt><trkpt lat="45.4570521" lon="11.5299049"><ele>289.3333333333333</ele><time>2026-04-11T10:14:25.921Z</time></trkpt><trkpt lat="45.4568688" lon="11.5299524"><ele>292.0</ele><time>2026-04-11T10:14:26.921Z</time></trkpt><trkpt lat="45.4566796" lon="11.5299868"><ele>292.0</ele><time>2026-04-11T10:14:27.921Z</time></trkpt><trkpt lat="45.45646" lon="11.5300557"><ele>292.0</ele><time>2026-04-11T10:14:28.921Z</time></trkpt><trkpt lat="45.4562643" lon="11.5301262"><ele>292.0</ele><time>2026-04-11T10:14:29.921Z</time></trkpt><trkpt lat="45.4560982" lon="11.5301923"><ele>290.66666666666663</ele><time>2026-04-11T10:14:30.921Z</time></trkpt><trkpt lat="45.4559421" lon="11.5302346"><ele>289.3333333333333</ele><time>2026-04-11T10:14:31.921Z</time></trkpt><trkpt lat="45.4557825" lon="11.5302306"><ele>288.0</ele><time>2026-04-11T10:14:32.921Z</time></trkpt><trkpt lat="45.4555965" lon="11.5302339"><ele>289.0</ele><time>2026-04-11T10:14:33.921Z</time></trkpt><trkpt lat="45.4554352" lon="11.5301987"><ele>290.0</ele><time>2026-04-11T10:14:34.921Z</time></trkpt><trkpt lat="45.4552727" lon="11.5301568"><ele>291.0</ele><time>2026-04-11T10:14:35.921Z</time></trkpt><trkpt lat="45.4551223" lon="11.5301152"><ele>291.0</ele><time>2026-04-11T10:14:36.921Z</time></trkpt><trkpt lat="45.4549864" lon="11.5301084"><ele>291.0</ele><time>2026-04-11T10:14:37.921Z</time></trkpt><trkpt lat="45.4548665" lon="11.5301095"><ele>291.0</ele><time>2026-04-11T10:14:38.921Z</time></trkpt><trkpt lat="45.4547607" lon="11.5301657"><ele>291.0</ele><time>2026-04-11T10:14:39.921Z</time></trkpt><trkpt lat="45.4546578" lon="11.5302531"><ele>292.75</ele><time>2026-04-11T10:14:40.921Z</time></trkpt><trkpt lat="45.4545429" lon="11.5303597"><ele>294.5</ele><time>2026-04-11T10:14:41.921Z</time></trkpt><trkpt lat="45.4544211" lon="11.5304736"><ele>296.25</ele><time>2026-04-11T10:14:42.921Z</time></trkpt><trkpt lat="45.4543116" lon="11.5305938"><ele>298.0</ele><time>2026-04-11T10:14:43.921Z</time></trkpt><trkpt lat="45.4542072" lon="11.5307306"><ele>299.4</ele><time>2026-04-11T10:14:44.921Z</time></trkpt><trkpt lat="45.4541213" lon="11.5308606"><ele>300.8</ele><time>2026-04-11T10:14:45.921Z</time></trkpt><trkpt lat="45.4540542" lon="11.5309783"><ele>302.2</ele><time>2026-04-11T10:14:46.921Z</time></trkpt><trkpt lat="45.4540035" lon="11.5310865"><ele>303.6</ele><time>2026-04-11T10:14:47.921Z</time></trkpt><trkpt lat="45.4539478" lon="11.5311861"><ele>305.0</ele><time>2026-04-11T10:14:48.921Z</time></trkpt><trkpt lat="45.4538817" lon="11.5312696"><ele>305.5</ele><time>2026-04-11T10:14:49.921Z</time></trkpt><trkpt lat="45.4537911" lon="11.5313445"><ele>306.0</ele><time>2026-04-11T10:14:50.921Z</time></trkpt><trkpt lat="45.4536699" lon="11.5313865"><ele>306.5</ele><time>2026-04-11T10:14:51.921Z</time></trkpt><trkpt lat="45.4535405" lon="11.5314301"><ele>307.0</ele><time>2026-04-11T10:14:52.921Z</time></trkpt><trkpt lat="45.4533897" lon="11.5315257"><ele>307.3333333333333</ele><time>2026-04-11T10:14:53.921Z</time></trkpt><trkpt lat="45.453241" lon="11.5316492"><ele>307.6666666666667</ele><time>2026-04-11T10:14:54.921Z</time></trkpt><trkpt lat="45.4530959" lon="11.5317743"><ele>308.0</ele><time>2026-04-11T10:14:55.921Z</time></trkpt><trkpt lat="45.4529435" lon="11.5318599"><ele>310.75</ele><time>2026-04-11T10:14:56.921Z</time></trkpt><trkpt lat="45.4528077" lon="11.5319229"><ele>313.5</ele><time>2026-04-11T10:14:57.921Z</time></trkpt><trkpt lat="45.4526972" lon="11.5319682"><ele>316.25</ele><time>2026-04-11T10:14:58.921Z</time></trkpt><trkpt lat="45.452578" lon="11.5320104"><ele>319.0</ele><time>2026-04-11T10:14:59.921Z</time></trkpt><trkpt lat="45.4524707" lon="11.5320405"><ele>317.25</ele><time>2026-04-11T10:15:00.921Z</time></trkpt><trkpt lat="45.4523356" lon="11.5320714"><ele>315.5</ele><time>2026-04-11T10:15:01.921Z</time></trkpt><trkpt lat="45.4522009" lon="11.5320967"><ele>313.75</ele><time>2026-04-11T10:15:02.921Z</time></trkpt><trkpt lat="45.4520714" lon="11.5321266"><ele>312.0</ele><time>2026-04-11T10:15:03.92Z</time></trkpt><trkpt lat="45.4519424" lon="11.5321573"><ele>316.6666666666667</ele><time>2026-04-11T10:15:04.921Z</time></trkpt><trkpt lat="45.4518035" lon="11.5321885"><ele>321.33333333333337</ele><time>2026-04-11T10:15:05.92Z</time></trkpt><trkpt lat="45.4516525" lon="11.5322087"><ele>326.0</ele><time>2026-04-11T10:15:06.921Z</time></trkpt><trkpt lat="45.4514913" lon="11.5322568"><ele>326.0</ele><time>2026-04-11T10:15:07.921Z</time></trkpt><trkpt lat="45.4513199" lon="11.5323127"><ele>326.0</ele><time>2026-04-11T10:15:08.921Z</time></trkpt><trkpt lat="45.4511473" lon="11.5323492"><ele>326.0</ele><time>2026-04-11T10:15:09.921Z</time></trkpt><trkpt lat="45.450962" lon="11.5323831"><ele>330.0</ele><time>2026-04-11T10:15:10.921Z</time></trkpt><trkpt lat="45.4507734" lon="11.5324135"><ele>334.0</ele><time>2026-04-11T10:15:11.921Z</time></trkpt><trkpt lat="45.4505842" lon="11.5324689"><ele>338.0</ele><time>2026-04-11T10:15:12.921Z</time></trkpt><trkpt lat="45.4504005" lon="11.5325203"><ele>339.4</ele><time>2026-04-11T10:15:13.921Z</time></trkpt><trkpt lat="45.4502549" lon="11.532559"><ele>340.79999999999995</ele><time>2026-04-11T10:15:14.92Z</time></trkpt><trkpt lat="45.4501443" lon="11.532591"><ele>342.2</ele><time>2026-04-11T10:15:15.921Z</time></trkpt><trkpt lat="45.45005" lon="11.5326111"><ele>343.6</ele><time>2026-04-11T10:15:16.921Z</time></trkpt><trkpt lat="45.4499619" lon="11.5325987"><ele>345.0</ele><time>2026-04-11T10:15:17.921Z</time></trkpt><trkpt lat="45.4498808" lon="11.5325481"><ele>345.0</ele><time>2026-04-11T10:15:18.921Z</time></trkpt><trkpt lat="45.4498123" lon="11.5324621"><ele>345.0</ele><time>2026-04-11T10:15:19.921Z</time></trkpt><trkpt lat="45.4497405" lon="11.5323688"><ele>345.0</ele><time>2026-04-11T10:15:20.921Z</time></trkpt><trkpt lat="45.449653" lon="11.5322829"><ele>345.0</ele><time>2026-04-11T10:15:21.921Z</time></trkpt><trkpt lat="45.4495491" lon="11.5322114"><ele>345.0</ele><time>2026-04-11T10:15:22.921Z</time></trkpt><trkpt lat="45.4494294" lon="11.5321607"><ele>345.5</ele><time>2026-04-11T10:15:23.921Z</time></trkpt><trkpt lat="45.4492996" lon="11.5321127"><ele>346.0</ele><time>2026-04-11T10:15:24.921Z</time></trkpt><trkpt lat="45.4491582" lon="11.5320758"><ele>346.5</ele><time>2026-04-11T10:15:25.921Z</time></trkpt><trkpt lat="45.449017" lon="11.5320698"><ele>347.0</ele><time>2026-04-11T10:15:26.921Z</time></trkpt><trkpt lat="45.4488723" lon="11.5320807"><ele>349.5</ele><time>2026-04-11T10:15:27.921Z</time></trkpt><trkpt lat="45.4487326" lon="11.5321024"><ele>352.0</ele><time>2026-04-11T10:15:28.921Z</time></trkpt><trkpt lat="45.4486049" lon="11.5321294"><ele>354.5</ele><time>2026-04-11T10:15:29.921Z</time></trkpt><trkpt lat="45.4484836" lon="11.5321442"><ele>357.0</ele><time>2026-04-11T10:15:30.921Z</time></trkpt><trkpt lat="45.4483684" lon="11.5321158"><ele>357.0</ele><time>2026-04-11T10:15:31.921Z</time></trkpt><trkpt lat="45.4482461" lon="11.5320717"><ele>357.0</ele><time>2026-04-11T10:15:32.921Z</time></trkpt><trkpt lat="45.4481143" lon="11.5320301"><ele>357.0</ele><time>2026-04-11T10:15:33.921Z</time></trkpt><trkpt lat="45.4479746" lon="11.5320061"><ele>357.0</ele><time>2026-04-11T10:15:34.921Z</time></trkpt><trkpt lat="45.4478279" lon="11.5320001"><ele>356.6666666666667</ele><time>2026-04-11T10:15:35.921Z</time></trkpt><trkpt lat="45.447674" lon="11.5320183"><ele>356.33333333333337</ele><time>2026-04-11T10:15:36.921Z</time></trkpt><trkpt lat="45.4475298" lon="11.5320514"><ele>356.0</ele><time>2026-04-11T10:15:37.921Z</time></trkpt><trkpt lat="45.4473819" lon="11.5321273"><ele>356.0</ele><time>2026-04-11T10:15:38.921Z</time></trkpt><trkpt lat="45.4472377" lon="11.5322029"><ele>356.0</ele><time>2026-04-11T10:15:39.921Z</time></trkpt><trkpt lat="45.4470956" lon="11.5323172"><ele>356.0</ele><time>2026-04-11T10:15:40.921Z</time></trkpt><trkpt lat="45.4469507" lon="11.5324169"><ele>359.0</ele><time>2026-04-11T10:15:41.921Z</time></trkpt><trkpt lat="45.4468043" lon="11.5324991"><ele>362.0</ele><time>2026-04-11T10:15:42.921Z</time></trkpt><trkpt lat="45.4466638" lon="11.5325892"><ele>365.0</ele><time>2026-04-11T10:15:43.921Z</time></trkpt><trkpt lat="45.446527" lon="11.5327087"><ele>365.0</ele><time>2026-04-11T10:15:44.921Z</time></trkpt><trkpt lat="45.4463983" lon="11.532838"><ele>365.0</ele><time>2026-04-11T10:15:45.921Z</time></trkpt><trkpt lat="45.4462777" lon="11.532982"><ele>365.0</ele><time>2026-04-11T10:15:46.921Z</time></trkpt><trkpt lat="45.4461724" lon="11.5331268"><ele>363.0</ele><time>2026-04-11T10:15:47.921Z</time></trkpt><trkpt lat="45.4460525" lon="11.5333405"><ele>361.0</ele><time>2026-04-11T10:15:48.921Z</time></trkpt><trkpt lat="45.4459227" lon="11.5335453"><ele>359.0</ele><time>2026-04-11T10:15:49.921Z</time></trkpt><trkpt lat="45.445768" lon="11.5337586"><ele>359.0</ele><time>2026-04-11T10:15:50.921Z</time></trkpt><trkpt lat="45.4456049" lon="11.5339778"><ele>359.0</ele><time>2026-04-11T10:15:51.921Z</time></trkpt><trkpt lat="45.4454653" lon="11.5341939"><ele>359.0</ele><time>2026-04-11T10:15:52.921Z</time></trkpt><trkpt lat="45.4453428" lon="11.5344164"><ele>365.6666666666667</ele><time>2026-04-11T10:15:53.921Z</time></trkpt><trkpt lat="45.4452322" lon="11.5346513"><ele>372.3333333333333</ele><time>2026-04-11T10:15:54.921Z</time></trkpt><trkpt lat="45.445133" lon="11.5348851"><ele>379.0</ele><time>2026-04-11T10:15:55.921Z</time></trkpt><trkpt lat="45.4450449" lon="11.5351157"><ele>379.0</ele><time>2026-04-11T10:15:56.921Z</time></trkpt><trkpt lat="45.4449681" lon="11.5353221"><ele>379.0</ele><time>2026-04-11T10:15:57.921Z</time></trkpt><trkpt lat="45.4449012" lon="11.5354984"><ele>379.0</ele><time>2026-04-11T10:15:58.921Z</time></trkpt><trkpt lat="45.4448346" lon="11.5356419"><ele>379.0</ele><time>2026-04-11T10:15:59.921Z</time></trkpt><trkpt lat="45.444759" lon="11.5357408"><ele>377.6</ele><time>2026-04-11T10:16:00.921Z</time></trkpt><trkpt lat="45.4446804" lon="11.5357943"><ele>376.2</ele><time>2026-04-11T10:16:01.921Z</time></trkpt><trkpt lat="45.4446051" lon="11.5358367"><ele>374.8</ele><time>2026-04-11T10:16:02.921Z</time></trkpt><trkpt lat="45.4445156" lon="11.5358024"><ele>373.40000000000003</ele><time>2026-04-11T10:16:03.921Z</time></trkpt><trkpt lat="45.4444156" lon="11.535746"><ele>372.0</ele><time>2026-04-11T10:16:04.921Z</time></trkpt><trkpt lat="45.4443076" lon="11.535668"><ele>372.0</ele><time>2026-04-11T10:16:05.92Z</time></trkpt><trkpt lat="45.4442147" lon="11.5355878"><ele>372.0</ele><time>2026-04-11T10:16:06.921Z</time></trkpt><trkpt lat="45.4441475" lon="11.5354917"><ele>372.0</ele><time>2026-04-11T10:16:07.921Z</time></trkpt><trkpt lat="45.4441007" lon="11.5353703"><ele>372.0</ele><time>2026-04-11T10:16:08.921Z</time></trkpt><trkpt lat="45.4440622" lon="11.5352127"><ele>372.0</ele><time>2026-04-11T10:16:09.921Z</time></trkpt><trkpt lat="45.4440194" lon="11.535031"><ele>374.5</ele><time>2026-04-11T10:16:10.921Z</time></trkpt><trkpt lat="45.4439798" lon="11.5348383"><ele>377.0</ele><time>2026-04-11T10:16:11.921Z</time></trkpt><trkpt lat="45.4439484" lon="11.5346624"><ele>379.5</ele><time>2026-04-11T10:16:12.921Z</time></trkpt><trkpt lat="45.443938" lon="11.5344908"><ele>382.0</ele><time>2026-04-11T10:16:13.921Z</time></trkpt><trkpt lat="45.4439286" lon="11.5343239"><ele>382.6</ele><time>2026-04-11T10:16:14.921Z</time></trkpt><trkpt lat="45.4439197" lon="11.5341675"><ele>383.20000000000005</ele><time>2026-04-11T10:16:15.921Z</time></trkpt><trkpt lat="45.4438941" lon="11.5340319"><ele>383.8</ele><time>2026-04-11T10:16:16.921Z</time></trkpt><trkpt lat="45.4438316" lon="11.5339045"><ele>384.4</ele><time>2026-04-11T10:16:17.921Z</time></trkpt><trkpt lat="45.4437308" lon="11.533806"><ele>385.0</ele><time>2026-04-11T10:16:18.921Z</time></trkpt><trkpt lat="45.4435821" lon="11.5337069"><ele>380.33333333333337</ele><time>2026-04-11T10:16:19.921Z</time></trkpt><trkpt lat="45.4434138" lon="11.5336171"><ele>375.6666666666667</ele><time>2026-04-11T10:16:20.921Z</time></trkpt><trkpt lat="45.4432261" lon="11.5335046"><ele>371.0</ele><time>2026-04-11T10:16:21.921Z</time></trkpt><trkpt lat="45.4430458" lon="11.5333986"><ele>371.75</ele><time>2026-04-11T10:16:22.92Z</time></trkpt><trkpt lat="45.4428843" lon="11.5333112"><ele>372.5</ele><time>2026-04-11T10:16:23.921Z</time></trkpt><trkpt lat="45.4427641" lon="11.5332358"><ele>373.25</ele><time>2026-04-11T10:16:24.921Z</time></trkpt><trkpt lat="45.4426675" lon="11.5331916"><ele>374.0</ele><time>2026-04-11T10:16:25.921Z</time></trkpt><trkpt lat="45.4425769" lon="11.5331807"><ele>374.0</ele><time>2026-04-11T10:16:26.921Z</time></trkpt><trkpt lat="45.4424735" lon="11.5332123"><ele>374.0</ele><time>2026-04-11T10:16:27.921Z</time></trkpt><trkpt lat="45.4423564" lon="11.5332549"><ele>374.0</ele><time>2026-04-11T10:16:28.921Z</time></trkpt><trkpt lat="45.4422283" lon="11.5332656"><ele>374.0</ele><time>2026-04-11T10:16:29.921Z</time></trkpt><trkpt lat="45.4421168" lon="11.5332788"><ele>376.0</ele><time>2026-04-11T10:16:30.921Z</time></trkpt><trkpt lat="45.4420189" lon="11.5333508"><ele>378.0</ele><time>2026-04-11T10:16:31.921Z</time></trkpt><trkpt lat="45.441933" lon="11.533498"><ele>380.0</ele><time>2026-04-11T10:16:32.921Z</time></trkpt><trkpt lat="45.4418508" lon="11.5337008"><ele>382.0</ele><time>2026-04-11T10:16:33.921Z</time></trkpt><trkpt lat="45.4417602" lon="11.5339552"><ele>382.66666666666663</ele><time>2026-04-11T10:16:34.921Z</time></trkpt><trkpt lat="45.4416623" lon="11.5342153"><ele>383.3333333333333</ele><time>2026-04-11T10:16:35.921Z</time></trkpt><trkpt lat="45.4415793" lon="11.5344238"><ele>384.0</ele><time>2026-04-11T10:16:36.921Z</time></trkpt><trkpt lat="45.4415161" lon="11.5345769"><ele>384.0</ele><time>2026-04-11T10:16:37.92Z</time></trkpt><trkpt lat="45.4414606" lon="11.5346868"><ele>384.0</ele><time>2026-04-11T10:16:38.92Z</time></trkpt><trkpt lat="45.4413947" lon="11.5347636"><ele>384.0</ele><time>2026-04-11T10:16:39.921Z</time></trkpt><trkpt lat="45.4413133" lon="11.5348134"><ele>384.0</ele><time>2026-04-11T10:16:40.921Z</time></trkpt><trkpt lat="45.4411952" lon="11.5348613"><ele>384.0</ele><time>2026-04-11T10:16:41.921Z</time></trkpt><trkpt lat="45.4410469" lon="11.5349167"><ele>389.0</ele><time>2026-04-11T10:16:42.92Z</time></trkpt><trkpt lat="45.440875" lon="11.5350008"><ele>394.0</ele><time>2026-04-11T10:16:43.921Z</time></trkpt><trkpt lat="45.4407107" lon="11.5350846"><ele>399.0</ele><time>2026-04-11T10:16:44.921Z</time></trkpt><trkpt lat="45.4405434" lon="11.5351968"><ele>400.33333333333337</ele><time>2026-04-11T10:16:45.921Z</time></trkpt><trkpt lat="45.4403788" lon="11.5353098"><ele>401.6666666666667</ele><time>2026-04-11T10:16:46.921Z</time></trkpt><trkpt lat="45.4402282" lon="11.5353948"><ele>403.0</ele><time>2026-04-11T10:16:47.921Z</time></trkpt><trkpt lat="45.4400853" lon="11.5354751"><ele>403.0</ele><time>2026-04-11T10:16:48.921Z</time></trkpt><trkpt lat="45.4399899" lon="11.5354895"><ele>403.0</ele><time>2026-04-11T10:16:49.921Z</time></trkpt><trkpt lat="45.4399112" lon="11.5355133"><ele>403.0</ele><time>2026-04-11T10:16:50.921Z</time></trkpt><trkpt lat="45.4398107" lon="11.5355289"><ele>403.0</ele><time>2026-04-11T10:16:52.921Z</time></trkpt><trkpt lat="45.4397544" lon="11.5356276"><ele>403.0</ele><time>2026-04-11T10:16:57.921Z</time></trkpt><trkpt lat="45.4397501" lon="11.535747"><ele>403.0</ele><time>2026-04-11T10:16:59.921Z</time></trkpt><trkpt lat="45.4397579" lon="11.5359759"><ele>403.0</ele><time>2026-04-11T10:17:00.921Z</time></trkpt><trkpt lat="45.4397545" lon="11.5361583"><ele>403.0</ele><time>2026-04-11T10:17:01.921Z</time></trkpt><trkpt lat="45.43975" lon="11.5363364"><ele>403.0</ele><time>2026-04-11T10:17:02.921Z</time></trkpt><trkpt lat="45.4397313" lon="11.5364721"><ele>403.0</ele><time>2026-04-11T10:17:03.921Z</time></trkpt><trkpt lat="45.4396943" lon="11.5365656"><ele>403.0</ele><time>2026-04-11T10:17:04.921Z</time></trkpt><trkpt lat="45.4396305" lon="11.5366532"><ele>403.0</ele><time>2026-04-11T10:17:05.921Z</time></trkpt><trkpt lat="45.4395397" lon="11.5367062"><ele>403.0</ele><time>2026-04-11T10:17:06.921Z</time></trkpt><trkpt lat="45.4394143" lon="11.5367487"><ele>403.0</ele><time>2026-04-11T10:17:07.92Z</time></trkpt><trkpt lat="45.4392577" lon="11.5368083"><ele>401.0</ele><time>2026-04-11T10:17:08.921Z</time></trkpt><trkpt lat="45.4390968" lon="11.5368946"><ele>399.0</ele><time>2026-04-11T10:17:09.921Z</time></trkpt><trkpt lat="45.4389325" lon="11.5370231"><ele>397.0</ele><time>2026-04-11T10:17:10.921Z</time></trkpt><trkpt lat="45.4387854" lon="11.5371654"><ele>396.0</ele><time>2026-04-11T10:17:11.921Z</time></trkpt><trkpt lat="45.4386572" lon="11.5373067"><ele>395.0</ele><time>2026-04-11T10:17:12.921Z</time></trkpt><trkpt lat="45.4385485" lon="11.5374591"><ele>394.0</ele><time>2026-04-11T10:17:13.921Z</time></trkpt><trkpt lat="45.4384526" lon="11.5376303"><ele>394.0</ele><time>2026-04-11T10:17:14.921Z</time></trkpt><trkpt lat="45.4383744" lon="11.5378071"><ele>394.0</ele><time>2026-04-11T10:17:15.921Z</time></trkpt><trkpt lat="45.4382997" lon="11.537978"><ele>394.0</ele><time>2026-04-11T10:17:16.921Z</time></trkpt><trkpt lat="45.4382487" lon="11.5381395"><ele>394.0</ele><time>2026-04-11T10:17:17.921Z</time></trkpt><trkpt lat="45.4382065" lon="11.5382931"><ele>392.75</ele><time>2026-04-11T10:17:18.921Z</time></trkpt><trkpt lat="45.438179" lon="11.5384535"><ele>391.5</ele><time>2026-04-11T10:17:19.921Z</time></trkpt><trkpt lat="45.4381615" lon="11.5386207"><ele>390.25</ele><time>2026-04-11T10:17:20.921Z</time></trkpt><trkpt lat="45.4381772" lon="11.5388411"><ele>389.0</ele><time>2026-04-11T10:17:21.921Z</time></trkpt><trkpt lat="45.4382218" lon="11.5391147"><ele>387.0</ele><time>2026-04-11T10:17:22.921Z</time></trkpt><trkpt lat="45.4382298" lon="11.5394305"><ele>385.0</ele><time>2026-04-11T10:17:23.921Z</time></trkpt><trkpt lat="45.4382414" lon="11.5397099"><ele>383.0</ele><time>2026-04-11T10:17:24.921Z</time></trkpt><trkpt lat="45.4382202" lon="11.5399474"><ele>381.5</ele><time>2026-04-11T10:17:25.921Z</time></trkpt><trkpt lat="45.4381913" lon="11.5401462"><ele>380.0</ele><time>2026-04-11T10:17:26.921Z</time></trkpt><trkpt lat="45.4381681" lon="11.5403296"><ele>378.5</ele><time>2026-04-11T10:17:27.921Z</time></trkpt><trkpt lat="45.4381897" lon="11.5405202"><ele>377.0</ele><time>2026-04-11T10:17:28.921Z</time></trkpt><trkpt lat="45.4382424" lon="11.5407199"><ele>375.75</ele><time>2026-04-11T10:17:29.921Z</time></trkpt><trkpt lat="45.4383078" lon="11.5409031"><ele>374.5</ele><time>2026-04-11T10:17:30.921Z</time></trkpt><trkpt lat="45.4383724" lon="11.5410594"><ele>373.25</ele><time>2026-04-11T10:17:31.921Z</time></trkpt><trkpt lat="45.4384355" lon="11.5411947"><ele>372.0</ele><time>2026-04-11T10:17:32.921Z</time></trkpt><trkpt lat="45.4385304" lon="11.5413138"><ele>371.5</ele><time>2026-04-11T10:17:33.921Z</time></trkpt><trkpt lat="45.4386481" lon="11.54141"><ele>371.0</ele><time>2026-04-11T10:17:34.921Z</time></trkpt><trkpt lat="45.4387917" lon="11.5414766"><ele>370.5</ele><time>2026-04-11T10:17:35.921Z</time></trkpt><trkpt lat="45.4389533" lon="11.5414881"><ele>370.0</ele><time>2026-04-11T10:17:36.921Z</time></trkpt><trkpt lat="45.4391039" lon="11.5414881"><ele>368.0</ele><time>2026-04-11T10:17:37.921Z</time></trkpt><trkpt lat="45.4392384" lon="11.5414951"><ele>366.0</ele><time>2026-04-11T10:17:38.921Z</time></trkpt><trkpt lat="45.4393888" lon="11.5415713"><ele>364.0</ele><time>2026-04-11T10:17:39.92Z</time></trkpt><trkpt lat="45.4395687" lon="11.5416594"><ele>363.0</ele><time>2026-04-11T10:17:40.921Z</time></trkpt><trkpt lat="45.4397647" lon="11.5417448"><ele>362.0</ele><time>2026-04-11T10:17:41.921Z</time></trkpt><trkpt lat="45.4399673" lon="11.5418454"><ele>361.0</ele><time>2026-04-11T10:17:42.921Z</time></trkpt><trkpt lat="45.4401569" lon="11.5419384"><ele>361.0</ele><time>2026-04-11T10:17:43.921Z</time></trkpt><trkpt lat="45.4403346" lon="11.5420203"><ele>361.0</ele><time>2026-04-11T10:17:44.921Z</time></trkpt><trkpt lat="45.4404986" lon="11.5420941"><ele>361.0</ele><time>2026-04-11T10:17:45.921Z</time></trkpt><trkpt lat="45.4406559" lon="11.5421699"><ele>359.66666666666663</ele><time>2026-04-11T10:17:46.921Z</time></trkpt><trkpt lat="45.4408049" lon="11.5422518"><ele>358.3333333333333</ele><time>2026-04-11T10:17:47.921Z</time></trkpt><trkpt lat="45.4409603" lon="11.5423222"><ele>357.0</ele><time>2026-04-11T10:17:48.921Z</time></trkpt><trkpt lat="45.4410881" lon="11.5424171"><ele>357.0</ele><time>2026-04-11T10:17:49.921Z</time></trkpt><trkpt lat="45.4412127" lon="11.5425109"><ele>357.0</ele><time>2026-04-11T10:17:50.921Z</time></trkpt><trkpt lat="45.4413234" lon="11.5426208"><ele>357.0</ele><time>2026-04-11T10:17:51.921Z</time></trkpt><trkpt lat="45.4414181" lon="11.5427664"><ele>357.0</ele><time>2026-04-11T10:17:52.921Z</time></trkpt><trkpt lat="45.4414954" lon="11.5429383"><ele>355.6666666666667</ele><time>2026-04-11T10:17:53.921Z</time></trkpt><trkpt lat="45.4415549" lon="11.5431347"><ele>354.33333333333337</ele><time>2026-04-11T10:17:54.921Z</time></trkpt><trkpt lat="45.4415959" lon="11.5433513"><ele>353.0</ele><time>2026-04-11T10:17:55.921Z</time></trkpt><trkpt lat="45.4416148" lon="11.543581"><ele>354.0</ele><time>2026-04-11T10:17:56.921Z</time></trkpt><trkpt lat="45.4416134" lon="11.543822"><ele>355.0</ele><time>2026-04-11T10:17:57.921Z</time></trkpt><trkpt lat="45.4416134" lon="11.544037"><ele>356.0</ele><time>2026-04-11T10:17:58.921Z</time></trkpt><trkpt lat="45.4416072" lon="11.5442317"><ele>356.0</ele><time>2026-04-11T10:17:59.921Z</time></trkpt><trkpt lat="45.4415683" lon="11.5444208"><ele>356.0</ele><time>2026-04-11T10:18:00.921Z</time></trkpt><trkpt lat="45.4415029" lon="11.5446068"><ele>356.0</ele><time>2026-04-11T10:18:01.921Z</time></trkpt><trkpt lat="45.4414258" lon="11.5447884"><ele>356.0</ele><time>2026-04-11T10:18:02.921Z</time></trkpt><trkpt lat="45.4413322" lon="11.5449658"><ele>358.0</ele><time>2026-04-11T10:18:03.921Z</time></trkpt><trkpt lat="45.4412499" lon="11.5451459"><ele>360.0</ele><time>2026-04-11T10:18:04.921Z</time></trkpt><trkpt lat="45.4411858" lon="11.5453236"><ele>362.0</ele><time>2026-04-11T10:18:05.921Z</time></trkpt><trkpt lat="45.4411463" lon="11.5455108"><ele>364.0</ele><time>2026-04-11T10:18:06.921Z</time></trkpt><trkpt lat="45.4411226" lon="11.5457069"><ele>364.0</ele><time>2026-04-11T10:18:07.921Z</time></trkpt><trkpt lat="45.4411177" lon="11.5459116"><ele>364.0</ele><time>2026-04-11T10:18:08.921Z</time></trkpt><trkpt lat="45.4411199" lon="11.5461179"><ele>364.0</ele><time>2026-04-11T10:18:09.921Z</time></trkpt><trkpt lat="45.4411378" lon="11.5463273"><ele>364.0</ele><time>2026-04-11T10:18:10.921Z</time></trkpt><trkpt lat="45.4411537" lon="11.5465171"><ele>363.0</ele><time>2026-04-11T10:18:11.921Z</time></trkpt><trkpt lat="45.4411581" lon="11.546702"><ele>362.0</ele><time>2026-04-11T10:18:12.921Z</time></trkpt><trkpt lat="45.4411416" lon="11.5468771"><ele>361.0</ele><time>2026-04-11T10:18:13.921Z</time></trkpt><trkpt lat="45.4411256" lon="11.5470589"><ele>360.0</ele><time>2026-04-11T10:18:14.921Z</time></trkpt><trkpt lat="45.4410812" lon="11.5472461"><ele>360.0</ele><time>2026-04-11T10:18:15.921Z</time></trkpt><trkpt lat="45.4410446" lon="11.5474278"><ele>360.0</ele><time>2026-04-11T10:18:16.921Z</time></trkpt><trkpt lat="45.4410058" lon="11.5476101"><ele>360.0</ele><time>2026-04-11T10:18:17.921Z</time></trkpt><trkpt lat="45.4409822" lon="11.547764"><ele>360.0</ele><time>2026-04-11T10:18:18.921Z</time></trkpt><trkpt lat="45.4409736" lon="11.5478934"><ele>359.8</ele><time>2026-04-11T10:18:19.92Z</time></trkpt><trkpt lat="45.4409836" lon="11.5480283"><ele>359.6</ele><time>2026-04-11T10:18:20.921Z</time></trkpt><trkpt lat="45.4410395" lon="11.5481217"><ele>359.4</ele><time>2026-04-11T10:18:21.921Z</time></trkpt><trkpt lat="45.4410921" lon="11.5482248"><ele>359.2</ele><time>2026-04-11T10:18:22.92Z</time></trkpt><trkpt lat="45.4411161" lon="11.5483641"><ele>359.0</ele><time>2026-04-11T10:18:23.921Z</time></trkpt><trkpt lat="45.4411186" lon="11.5485057"><ele>359.0</ele><time>2026-04-11T10:18:24.921Z</time></trkpt><trkpt lat="45.4410923" lon="11.548649"><ele>359.0</ele><time>2026-04-11T10:18:25.921Z</time></trkpt><trkpt lat="45.4410396" lon="11.5487876"><ele>359.0</ele><time>2026-04-11T10:18:26.921Z</time></trkpt><trkpt lat="45.4409619" lon="11.548913"><ele>359.0</ele><time>2026-04-11T10:18:27.92Z</time></trkpt><trkpt lat="45.4408858" lon="11.5490279"><ele>359.0</ele><time>2026-04-11T10:18:28.921Z</time></trkpt><trkpt lat="45.4408338" lon="11.5491461"><ele>358.6</ele><time>2026-04-11T10:18:29.921Z</time></trkpt><trkpt lat="45.4408011" lon="11.5492816"><ele>358.2</ele><time>2026-04-11T10:18:30.921Z</time></trkpt><trkpt lat="45.4408048" lon="11.5494391"><ele>357.8</ele><time>2026-04-11T10:18:31.921Z</time></trkpt><trkpt lat="45.4408056" lon="11.549604"><ele>357.40000000000003</ele><time>2026-04-11T10:18:32.921Z</time></trkpt><trkpt lat="45.4407794" lon="11.549773"><ele>357.0</ele><time>2026-04-11T10:18:33.921Z</time></trkpt><trkpt lat="45.4407389" lon="11.5499232"><ele>357.0</ele><time>2026-04-11T10:18:34.921Z</time></trkpt><trkpt lat="45.4406728" lon="11.5500573"><ele>357.0</ele><time>2026-04-11T10:18:35.92Z</time></trkpt><trkpt lat="45.4405841" lon="11.5501678"><ele>357.0</ele><time>2026-04-11T10:18:36.921Z</time></trkpt><trkpt lat="45.4405071" lon="11.550273"><ele>357.0</ele><time>2026-04-11T10:18:37.921Z</time></trkpt><trkpt lat="45.4404651" lon="11.5503971"><ele>357.0</ele><time>2026-04-11T10:18:38.921Z</time></trkpt><trkpt lat="45.440438" lon="11.5505445"><ele>355.5</ele><time>2026-04-11T10:18:39.921Z</time></trkpt><trkpt lat="45.4404299" lon="11.550722"><ele>354.0</ele><time>2026-04-11T10:18:40.921Z</time></trkpt><trkpt lat="45.4404351" lon="11.5509087"><ele>352.5</ele><time>2026-04-11T10:18:41.921Z</time></trkpt><trkpt lat="45.4404314" lon="11.5511483"><ele>351.0</ele><time>2026-04-11T10:18:42.921Z</time></trkpt><trkpt lat="45.4404005" lon="11.551349"><ele>349.5</ele><time>2026-04-11T10:18:43.921Z</time></trkpt><trkpt lat="45.4403776" lon="11.5515391"><ele>348.0</ele><time>2026-04-11T10:18:44.921Z</time></trkpt><trkpt lat="45.4403648" lon="11.5517313"><ele>346.5</ele><time>2026-04-11T10:18:45.921Z</time></trkpt><trkpt lat="45.4403693" lon="11.551956"><ele>345.0</ele><time>2026-04-11T10:18:46.921Z</time></trkpt><trkpt lat="45.4403988" lon="11.5522348"><ele>342.3333333333333</ele><time>2026-04-11T10:18:47.921Z</time></trkpt><trkpt lat="45.4404209" lon="11.552539"><ele>339.66666666666663</ele><time>2026-04-11T10:18:48.921Z</time></trkpt><trkpt lat="45.4404202" lon="11.552858"><ele>337.0</ele><time>2026-04-11T10:18:49.921Z</time></trkpt><trkpt lat="45.4404186" lon="11.5531464"><ele>333.66666666666663</ele><time>2026-04-11T10:18:50.921Z</time></trkpt><trkpt lat="45.4404159" lon="11.5533987"><ele>330.3333333333333</ele><time>2026-04-11T10:18:51.921Z</time></trkpt><trkpt lat="45.4404345" lon="11.5536229"><ele>327.0</ele><time>2026-04-11T10:18:52.921Z</time></trkpt><trkpt lat="45.4404647" lon="11.5538411"><ele>326.5</ele><time>2026-04-11T10:18:53.921Z</time></trkpt><trkpt lat="45.4404907" lon="11.5540281"><ele>326.0</ele><time>2026-04-11T10:18:54.921Z</time></trkpt><trkpt lat="45.4405029" lon="11.5541899"><ele>325.5</ele><time>2026-04-11T10:18:55.921Z</time></trkpt><trkpt lat="45.4404759" lon="11.5543459"><ele>325.0</ele><time>2026-04-11T10:18:56.921Z</time></trkpt><trkpt lat="45.4404151" lon="11.5544898"><ele>323.66666666666663</ele><time>2026-04-11T10:18:57.921Z</time></trkpt><trkpt lat="45.440304" lon="11.5546295"><ele>322.3333333333333</ele><time>2026-04-11T10:18:58.921Z</time></trkpt><trkpt lat="45.4401921" lon="11.554757"><ele>321.0</ele><time>2026-04-11T10:18:59.921Z</time></trkpt><trkpt lat="45.4400293" lon="11.5549154"><ele>321.0</ele><time>2026-04-11T10:19:00.921Z</time></trkpt><trkpt lat="45.4398927" lon="11.5550718"><ele>321.0</ele><time>2026-04-11T10:19:01.921Z</time></trkpt><trkpt lat="45.4397566" lon="11.5552094"><ele>321.0</ele><time>2026-04-11T10:19:02.921Z</time></trkpt><trkpt lat="45.4396242" lon="11.5553805"><ele>317.3333333333333</ele><time>2026-04-11T10:19:03.921Z</time></trkpt><trkpt lat="45.4394962" lon="11.5556228"><ele>313.66666666666663</ele><time>2026-04-11T10:19:04.921Z</time></trkpt><trkpt lat="45.4393767" lon="11.5558516"><ele>310.0</ele><time>2026-04-11T10:19:05.921Z</time></trkpt><trkpt lat="45.4392454" lon="11.5560403"><ele>310.3333333333333</ele><time>2026-04-11T10:19:06.921Z</time></trkpt><trkpt lat="45.4391206" lon="11.5562199"><ele>310.6666666666667</ele><time>2026-04-11T10:19:07.921Z</time></trkpt><trkpt lat="45.4390203" lon="11.556384"><ele>311.0</ele><time>2026-04-11T10:19:08.921Z</time></trkpt><trkpt lat="45.4389588" lon="11.5565493"><ele>311.0</ele><time>2026-04-11T10:19:09.921Z</time></trkpt><trkpt lat="45.4389193" lon="11.5567403"><ele>311.0</ele><time>2026-04-11T10:19:10.921Z</time></trkpt><trkpt lat="45.4388914" lon="11.5569377"><ele>311.0</ele><time>2026-04-11T10:19:11.921Z</time></trkpt><trkpt lat="45.4388466" lon="11.5571118"><ele>311.0</ele><time>2026-04-11T10:19:12.921Z</time></trkpt><trkpt lat="45.438777" lon="11.5572494"><ele>310.0</ele><time>2026-04-11T10:19:13.921Z</time></trkpt><trkpt lat="45.4386963" lon="11.5573864"><ele>309.0</ele><time>2026-04-11T10:19:14.921Z</time></trkpt><trkpt lat="45.4385932" lon="11.5574796"><ele>308.0</ele><time>2026-04-11T10:19:15.921Z</time></trkpt><trkpt lat="45.4384826" lon="11.5575246"><ele>307.0</ele><time>2026-04-11T10:19:16.921Z</time></trkpt><trkpt lat="45.4383662" lon="11.5575216"><ele>307.0</ele><time>2026-04-11T10:19:17.921Z</time></trkpt><trkpt lat="45.4382327" lon="11.5574821"><ele>307.0</ele><time>2026-04-11T10:19:18.921Z</time></trkpt><trkpt lat="45.4380862" lon="11.5574139"><ele>307.0</ele><time>2026-04-11T10:19:19.921Z</time></trkpt><trkpt lat="45.437939" lon="11.5573413"><ele>307.0</ele><time>2026-04-11T10:19:20.921Z</time></trkpt><trkpt lat="45.4378109" lon="11.557291"><ele>307.0</ele><time>2026-04-11T10:19:21.921Z</time></trkpt><trkpt lat="45.4376973" lon="11.5572952"><ele>307.0</ele><time>2026-04-11T10:19:22.921Z</time></trkpt><trkpt lat="45.4375764" lon="11.5573091"><ele>307.0</ele><time>2026-04-11T10:19:23.921Z</time></trkpt><trkpt lat="45.4374285" lon="11.557439"><ele>307.0</ele><time>2026-04-11T10:19:24.921Z</time></trkpt><trkpt lat="45.4372491" lon="11.5575744"><ele>303.3333333333333</ele><time>2026-04-11T10:19:25.921Z</time></trkpt><trkpt lat="45.4370518" lon="11.5577318"><ele>299.6666666666667</ele><time>2026-04-11T10:19:26.921Z</time></trkpt><trkpt lat="45.4368626" lon="11.5579"><ele>296.0</ele><time>2026-04-11T10:19:27.921Z</time></trkpt><trkpt lat="45.4366983" lon="11.5580517"><ele>296.0</ele><time>2026-04-11T10:19:28.921Z</time></trkpt><trkpt lat="45.4365543" lon="11.5582107"><ele>296.0</ele><time>2026-04-11T10:19:29.921Z</time></trkpt><trkpt lat="45.4364361" lon="11.558373"><ele>296.0</ele><time>2026-04-11T10:19:30.921Z</time></trkpt><trkpt lat="45.4363425" lon="11.5585321"><ele>287.25</ele><time>2026-04-11T10:19:31.921Z</time></trkpt><trkpt lat="45.4362777" lon="11.5587025"><ele>278.5</ele><time>2026-04-11T10:19:32.921Z</time></trkpt><trkpt lat="45.4362148" lon="11.5588958"><ele>269.75</ele><time>2026-04-11T10:19:33.921Z</time></trkpt><trkpt lat="45.4361497" lon="11.5590764"><ele>261.0</ele><time>2026-04-11T10:19:34.921Z</time></trkpt><trkpt lat="45.4360994" lon="11.559304"><ele>261.0</ele><time>2026-04-11T10:19:35.921Z</time></trkpt><trkpt lat="45.4360595" lon="11.5595125"><ele>261.0</ele><time>2026-04-11T10:19:36.921Z</time></trkpt><trkpt lat="45.4360286" lon="11.5597194"><ele>261.0</ele><time>2026-04-11T10:19:37.921Z</time></trkpt><trkpt lat="45.4359898" lon="11.5599038"><ele>261.0</ele><time>2026-04-11T10:19:38.921Z</time></trkpt><trkpt lat="45.4359637" lon="11.5600872"><ele>262.75</ele><time>2026-04-11T10:19:39.921Z</time></trkpt><trkpt lat="45.4359329" lon="11.5602535"><ele>264.5</ele><time>2026-04-11T10:19:40.921Z</time></trkpt><trkpt lat="45.4358973" lon="11.5604223"><ele>266.25</ele><time>2026-04-11T10:19:41.921Z</time></trkpt><trkpt lat="45.4358651" lon="11.5605996"><ele>268.0</ele><time>2026-04-11T10:19:42.92Z</time></trkpt><trkpt lat="45.4358314" lon="11.5607895"><ele>269.25</ele><time>2026-04-11T10:19:43.921Z</time></trkpt><trkpt lat="45.435791" lon="11.560984"><ele>270.5</ele><time>2026-04-11T10:19:44.921Z</time></trkpt><trkpt lat="45.435736" lon="11.5611803"><ele>271.75</ele><time>2026-04-11T10:19:45.921Z</time></trkpt><trkpt lat="45.4356731" lon="11.5613774"><ele>273.0</ele><time>2026-04-11T10:19:46.921Z</time></trkpt><trkpt lat="45.4356045" lon="11.5615592"><ele>274.5</ele><time>2026-04-11T10:19:47.921Z</time></trkpt><trkpt lat="45.4355327" lon="11.5617249"><ele>276.0</ele><time>2026-04-11T10:19:48.921Z</time></trkpt><trkpt lat="45.4354468" lon="11.5618677"><ele>277.5</ele><time>2026-04-11T10:19:49.921Z</time></trkpt><trkpt lat="45.4353462" lon="11.5619978"><ele>279.0</ele><time>2026-04-11T10:19:50.921Z</time></trkpt><trkpt lat="45.4352363" lon="11.5621288"><ele>271.0</ele><time>2026-04-11T10:19:51.921Z</time></trkpt><trkpt lat="45.4351365" lon="11.5622884"><ele>263.0</ele><time>2026-04-11T10:19:52.921Z</time></trkpt><trkpt lat="45.435054" lon="11.5624742"><ele>255.0</ele><time>2026-04-11T10:19:53.92Z</time></trkpt><trkpt lat="45.4349747" lon="11.5627085"><ele>256.3333333333333</ele><time>2026-04-11T10:19:54.92Z</time></trkpt><trkpt lat="45.4349057" lon="11.5629417"><ele>257.66666666666663</ele><time>2026-04-11T10:19:55.921Z</time></trkpt><trkpt lat="45.4348246" lon="11.5631765"><ele>259.0</ele><time>2026-04-11T10:19:56.921Z</time></trkpt><trkpt lat="45.4347251" lon="11.5634002"><ele>251.33333333333331</ele><time>2026-04-11T10:19:57.921Z</time></trkpt><trkpt lat="45.4346221" lon="11.563627"><ele>243.66666666666669</ele><time>2026-04-11T10:19:58.921Z</time></trkpt><trkpt lat="45.4345165" lon="11.5638476"><ele>236.0</ele><time>2026-04-11T10:19:59.921Z</time></trkpt><trkpt lat="45.4344122" lon="11.5640617"><ele>236.0</ele><time>2026-04-11T10:20:00.921Z</time></trkpt><trkpt lat="45.4343058" lon="11.5642573"><ele>236.0</ele><time>2026-04-11T10:20:01.921Z</time></trkpt><trkpt lat="45.4342086" lon="11.5644459"><ele>236.0</ele><time>2026-04-11T10:20:02.921Z</time></trkpt><trkpt lat="45.4341295" lon="11.5646377"><ele>235.75</ele><time>2026-04-11T10:20:03.921Z</time></trkpt><trkpt lat="45.4340694" lon="11.5648183"><ele>235.5</ele><time>2026-04-11T10:20:04.921Z</time></trkpt><trkpt lat="45.4340228" lon="11.5649724"><ele>235.25</ele><time>2026-04-11T10:20:05.921Z</time></trkpt><trkpt lat="45.4339968" lon="11.5651162"><ele>235.0</ele><time>2026-04-11T10:20:06.921Z</time></trkpt><trkpt lat="45.4340017" lon="11.5652627"><ele>232.7142857142857</ele><time>2026-04-11T10:20:07.921Z</time></trkpt><trkpt lat="45.4340181" lon="11.5653903"><ele>230.4285714285714</ele><time>2026-04-11T10:20:08.921Z</time></trkpt><trkpt lat="45.4340435" lon="11.565489"><ele>228.14285714285714</ele><time>2026-04-11T10:20:09.921Z</time></trkpt><trkpt lat="45.4340838" lon="11.565569"><ele>225.85714285714283</ele><time>2026-04-11T10:20:10.921Z</time></trkpt><trkpt lat="45.4341353" lon="11.5656367"><ele>223.57142857142856</ele><time>2026-04-11T10:20:11.921Z</time></trkpt><trkpt lat="45.4341966" lon="11.5656938"><ele>221.28571428571428</ele><time>2026-04-11T10:20:12.921Z</time></trkpt><trkpt lat="45.4342577" lon="11.5657451"><ele>219.0</ele><time>2026-04-11T10:20:13.921Z</time></trkpt><trkpt lat="45.4343224" lon="11.5658031"><ele>219.0</ele><time>2026-04-11T10:20:14.921Z</time></trkpt><trkpt lat="45.4343986" lon="11.5658617"><ele>219.0</ele><time>2026-04-11T10:20:15.921Z</time></trkpt><trkpt lat="45.4344723" lon="11.5659186"><ele>219.0</ele><time>2026-04-11T10:20:16.92Z</time></trkpt><trkpt lat="45.4345431" lon="11.565974"><ele>219.0</ele><time>2026-04-11T10:20:17.921Z</time></trkpt><trkpt lat="45.4346142" lon="11.5660248"><ele>219.0</ele><time>2026-04-11T10:20:18.921Z</time></trkpt><trkpt lat="45.4346816" lon="11.566074"><ele>219.0</ele><time>2026-04-11T10:20:19.921Z</time></trkpt><trkpt lat="45.4347469" lon="11.5661235"><ele>220.33333333333334</ele><time>2026-04-11T10:20:20.921Z</time></trkpt><trkpt lat="45.4348097" lon="11.5661694"><ele>221.66666666666669</ele><time>2026-04-11T10:20:21.921Z</time></trkpt><trkpt lat="45.4348721" lon="11.5662119"><ele>223.0</ele><time>2026-04-11T10:20:22.921Z</time></trkpt><trkpt lat="45.4349385" lon="11.5662664"><ele>224.33333333333334</ele><time>2026-04-11T10:20:23.921Z</time></trkpt><trkpt lat="45.4350072" lon="11.5663303"><ele>225.66666666666669</ele><time>2026-04-11T10:20:24.921Z</time></trkpt><trkpt lat="45.4350741" lon="11.566427"><ele>227.0</ele><time>2026-04-11T10:20:25.921Z</time></trkpt><trkpt lat="45.4351421" lon="11.5665586"><ele>223.39999999999998</ele><time>2026-04-11T10:20:26.921Z</time></trkpt><trkpt lat="45.4352092" lon="11.5666899"><ele>219.79999999999998</ele><time>2026-04-11T10:20:27.921Z</time></trkpt><trkpt lat="45.4352815" lon="11.5668044"><ele>216.2</ele><time>2026-04-11T10:20:28.921Z</time></trkpt><trkpt lat="45.4353692" lon="11.566889"><ele>212.6</ele><time>2026-04-11T10:20:29.921Z</time></trkpt><trkpt lat="45.4354609" lon="11.5669381"><ele>209.0</ele><time>2026-04-11T10:20:30.921Z</time></trkpt><trkpt lat="45.4355486" lon="11.566947"><ele>208.79999999999998</ele><time>2026-04-11T10:20:31.921Z</time></trkpt><trkpt lat="45.4356192" lon="11.5669569"><ele>208.6</ele><time>2026-04-11T10:20:32.921Z</time></trkpt><trkpt lat="45.4356729" lon="11.56701"><ele>208.4</ele><time>2026-04-11T10:20:33.921Z</time></trkpt><trkpt lat="45.4356537" lon="11.567148"><ele>208.2</ele><time>2026-04-11T10:20:35.921Z</time></trkpt><trkpt lat="45.4355247" lon="11.5672305"><ele>208.0</ele><time>2026-04-11T10:20:37.921Z</time></trkpt><trkpt lat="45.435449" lon="11.5672814"><ele>205.2</ele><time>2026-04-11T10:20:38.921Z</time></trkpt><trkpt lat="45.4353915" lon="11.5673305"><ele>202.4</ele><time>2026-04-11T10:20:39.921Z</time></trkpt><trkpt lat="45.4353593" lon="11.5674516"><ele>199.6</ele><time>2026-04-11T10:20:41.921Z</time></trkpt><trkpt lat="45.4354529" lon="11.5675147"><ele>196.79999999999998</ele><time>2026-04-11T10:20:43.921Z</time></trkpt><trkpt lat="45.4355305" lon="11.5675018"><ele>194.0</ele><time>2026-04-11T10:20:44.921Z</time></trkpt><trkpt lat="45.4356506" lon="11.5674384"><ele>193.66666666666669</ele><time>2026-04-11T10:20:45.92Z</time></trkpt><trkpt lat="45.4357823" lon="11.5673388"><ele>193.33333333333331</ele><time>2026-04-11T10:20:46.921Z</time></trkpt><trkpt lat="45.435904" lon="11.5672062"><ele>193.0</ele><time>2026-04-11T10:20:47.921Z</time></trkpt><trkpt lat="45.4360267" lon="11.5670268"><ele>198.0</ele><time>2026-04-11T10:20:48.921Z</time></trkpt><trkpt lat="45.4361348" lon="11.566827"><ele>203.0</ele><time>2026-04-11T10:20:49.921Z</time></trkpt><trkpt lat="45.4362329" lon="11.566604"><ele>208.0</ele><time>2026-04-11T10:20:50.921Z</time></trkpt><trkpt lat="45.4363186" lon="11.566367"><ele>201.0</ele><time>2026-04-11T10:20:51.921Z</time></trkpt><trkpt lat="45.4363738" lon="11.5661222"><ele>194.0</ele><time>2026-04-11T10:20:52.921Z</time></trkpt><trkpt lat="45.4364856" lon="11.5659328"><ele>187.0</ele><time>2026-04-11T10:20:53.921Z</time></trkpt><trkpt lat="45.4365677" lon="11.5657436"><ele>187.0</ele><time>2026-04-11T10:20:54.921Z</time></trkpt><trkpt lat="45.4366516" lon="11.5655881"><ele>187.0</ele><time>2026-04-11T10:20:55.921Z</time></trkpt><trkpt lat="45.4367374" lon="11.5654581"><ele>187.0</ele><time>2026-04-11T10:20:56.921Z</time></trkpt><trkpt lat="45.4368398" lon="11.5653585"><ele>187.0</ele><time>2026-04-11T10:20:57.921Z</time></trkpt><trkpt lat="45.4369515" lon="11.5652944"><ele>186.5</ele><time>2026-04-11T10:20:58.921Z</time></trkpt><trkpt lat="45.4370757" lon="11.5652524"><ele>186.0</ele><time>2026-04-11T10:20:59.921Z</time></trkpt><trkpt lat="45.4372145" lon="11.5652183"><ele>185.5</ele><time>2026-04-11T10:21:00.921Z</time></trkpt><trkpt lat="45.4373402" lon="11.5651859"><ele>185.0</ele><time>2026-04-11T10:21:01.921Z</time></trkpt><trkpt lat="45.4374489" lon="11.5651563"><ele>185.0</ele><time>2026-04-11T10:21:02.921Z</time></trkpt><trkpt lat="45.4375474" lon="11.5651545"><ele>185.0</ele><time>2026-04-11T10:21:03.921Z</time></trkpt><trkpt lat="45.4376339" lon="11.5651951"><ele>185.0</ele><time>2026-04-11T10:21:04.921Z</time></trkpt><trkpt lat="45.4377156" lon="11.5652764"><ele>185.0</ele><time>2026-04-11T10:21:05.921Z</time></trkpt><trkpt lat="45.4377974" lon="11.5654036"><ele>185.0</ele><time>2026-04-11T10:21:06.921Z</time></trkpt><trkpt lat="45.4378538" lon="11.5655926"><ele>183.66666666666666</ele><time>2026-04-11T10:21:07.921Z</time></trkpt><trkpt lat="45.4378909" lon="11.5658247"><ele>182.33333333333334</ele><time>2026-04-11T10:21:08.921Z</time></trkpt><trkpt lat="45.4379387" lon="11.5660666"><ele>181.0</ele><time>2026-04-11T10:21:09.921Z</time></trkpt><trkpt lat="45.4379891" lon="11.5664176"><ele>181.0</ele><time>2026-04-11T10:21:10.921Z</time></trkpt><trkpt lat="45.4380521" lon="11.5667752"><ele>181.0</ele><time>2026-04-11T10:21:11.921Z</time></trkpt><trkpt lat="45.4381286" lon="11.5671502"><ele>172.5</ele><time>2026-04-11T10:21:12.921Z</time></trkpt><trkpt lat="45.438208" lon="11.567519"><ele>164.0</ele><time>2026-04-11T10:21:13.921Z</time></trkpt><trkpt lat="45.4382817" lon="11.5678496"><ele>158.66666666666666</ele><time>2026-04-11T10:21:14.921Z</time></trkpt><trkpt lat="45.4383446" lon="11.5681513"><ele>153.33333333333334</ele><time>2026-04-11T10:21:15.921Z</time></trkpt><trkpt lat="45.4383948" lon="11.5684307"><ele>148.0</ele><time>2026-04-11T10:21:16.921Z</time></trkpt><trkpt lat="45.4384136" lon="11.5686952"><ele>144.66666666666669</ele><time>2026-04-11T10:21:17.92Z</time></trkpt><trkpt lat="45.4384225" lon="11.5689505"><ele>141.33333333333334</ele><time>2026-04-11T10:21:18.921Z</time></trkpt><trkpt lat="45.4384327" lon="11.569199"><ele>138.0</ele><time>2026-04-11T10:21:19.921Z</time></trkpt><trkpt lat="45.4384519" lon="11.5694398"><ele>136.0</ele><time>2026-04-11T10:21:20.921Z</time></trkpt><trkpt lat="45.4384441" lon="11.5696692"><ele>134.0</ele><time>2026-04-11T10:21:21.921Z</time></trkpt><trkpt lat="45.43843" lon="11.5698918"><ele>132.0</ele><time>2026-04-11T10:21:22.921Z</time></trkpt><trkpt lat="45.4384249" lon="11.5701084"><ele>132.0</ele><time>2026-04-11T10:21:23.921Z</time></trkpt><trkpt lat="45.4384333" lon="11.5703198"><ele>132.0</ele><time>2026-04-11T10:21:24.921Z</time></trkpt><trkpt lat="45.4384418" lon="11.5705292"><ele>132.0</ele><time>2026-04-11T10:21:25.921Z</time></trkpt><trkpt lat="45.4384774" lon="11.5707321"><ele>132.0</ele><time>2026-04-11T10:21:26.921Z</time></trkpt><trkpt lat="45.4385156" lon="11.5709366"><ele>129.33333333333334</ele><time>2026-04-11T10:21:27.921Z</time></trkpt><trkpt lat="45.4385571" lon="11.5711515"><ele>126.66666666666667</ele><time>2026-04-11T10:21:28.921Z</time></trkpt><trkpt lat="45.4385975" lon="11.5713732"><ele>124.0</ele><time>2026-04-11T10:21:29.921Z</time></trkpt><trkpt lat="45.4386178" lon="11.5716083"><ele>121.66666666666667</ele><time>2026-04-11T10:21:30.921Z</time></trkpt><trkpt lat="45.4386142" lon="11.5718693"><ele>119.33333333333334</ele><time>2026-04-11T10:21:31.921Z</time></trkpt><trkpt lat="45.4385988" lon="11.5721421"><ele>117.0</ele><time>2026-04-11T10:21:32.921Z</time></trkpt><trkpt lat="45.4385801" lon="11.5724066"><ele>116.0</ele><time>2026-04-11T10:21:33.921Z</time></trkpt><trkpt lat="45.438566" lon="11.5726792"><ele>115.0</ele><time>2026-04-11T10:21:34.921Z</time></trkpt><trkpt lat="45.4385541" lon="11.5729267"><ele>114.0</ele><time>2026-04-11T10:21:35.921Z</time></trkpt><trkpt lat="45.4385451" lon="11.5731422"><ele>114.0</ele><time>2026-04-11T10:21:36.921Z</time></trkpt><trkpt lat="45.4385518" lon="11.5733436"><ele>114.0</ele><time>2026-04-11T10:21:37.921Z</time></trkpt><trkpt lat="45.4385744" lon="11.5735449"><ele>114.0</ele><time>2026-04-11T10:21:38.921Z</time></trkpt><trkpt lat="45.4386423" lon="11.5737362"><ele>114.0</ele><time>2026-04-11T10:21:39.921Z</time></trkpt><trkpt lat="45.4387232" lon="11.5739436"><ele>116.33333333333334</ele><time>2026-04-11T10:21:40.921Z</time></trkpt><trkpt lat="45.4388134" lon="11.5741541"><ele>118.66666666666667</ele><time>2026-04-11T10:21:41.921Z</time></trkpt><trkpt lat="45.4388895" lon="11.5743806"><ele>121.0</ele><time>2026-04-11T10:21:42.921Z</time></trkpt><trkpt lat="45.438942" lon="11.5746132"><ele>116.0</ele><time>2026-04-11T10:21:43.921Z</time></trkpt><trkpt lat="45.4389835" lon="11.5748543"><ele>111.0</ele><time>2026-04-11T10:21:44.921Z</time></trkpt><trkpt lat="45.4390521" lon="11.5750945"><ele>106.0</ele><time>2026-04-11T10:21:45.921Z</time></trkpt><trkpt lat="45.4391375" lon="11.5753239"><ele>103.75</ele><time>2026-04-11T10:21:46.921Z</time></trkpt><trkpt lat="45.4392174" lon="11.5755388"><ele>101.5</ele><time>2026-04-11T10:21:47.921Z</time></trkpt><trkpt lat="45.4392599" lon="11.5757365"><ele>99.25</ele><time>2026-04-11T10:21:48.921Z</time></trkpt><trkpt lat="45.4392708" lon="11.575915"><ele>97.0</ele><time>2026-04-11T10:21:49.921Z</time></trkpt><trkpt lat="45.4392571" lon="11.5760634"><ele>95.39999999999999</ele><time>2026-04-11T10:21:50.921Z</time></trkpt><trkpt lat="45.4392234" lon="11.5761918"><ele>93.8</ele><time>2026-04-11T10:21:51.921Z</time></trkpt><trkpt lat="45.4391676" lon="11.5763218"><ele>92.2</ele><time>2026-04-11T10:21:52.921Z</time></trkpt><trkpt lat="45.4390971" lon="11.5764605"><ele>90.6</ele><time>2026-04-11T10:21:53.921Z</time></trkpt><trkpt lat="45.4390174" lon="11.5765876"><ele>89.0</ele><time>2026-04-11T10:21:54.921Z</time></trkpt><trkpt lat="45.438924" lon="11.5766934"><ele>89.0</ele><time>2026-04-11T10:21:55.921Z</time></trkpt><trkpt lat="45.438806" lon="11.5767726"><ele>89.0</ele><time>2026-04-11T10:21:56.921Z</time></trkpt><trkpt lat="45.4386684" lon="11.5768176"><ele>89.0</ele><time>2026-04-11T10:21:57.921Z</time></trkpt><trkpt lat="45.4385233" lon="11.576857"><ele>89.0</ele><time>2026-04-11T10:21:58.921Z</time></trkpt><trkpt lat="45.4383839" lon="11.5768766"><ele>87.75</ele><time>2026-04-11T10:21:59.921Z</time></trkpt><trkpt lat="45.4382482" lon="11.576884"><ele>86.5</ele><time>2026-04-11T10:22:00.921Z</time></trkpt><trkpt lat="45.4380992" lon="11.5768642"><ele>85.25</ele><time>2026-04-11T10:22:01.921Z</time></trkpt><trkpt lat="45.4379375" lon="11.5768331"><ele>84.0</ele><time>2026-04-11T10:22:02.921Z</time></trkpt><trkpt lat="45.4377687" lon="11.5768195"><ele>80.0</ele><time>2026-04-11T10:22:03.921Z</time></trkpt><trkpt lat="45.4375905" lon="11.5768258"><ele>76.0</ele><time>2026-04-11T10:22:04.921Z</time></trkpt><trkpt lat="45.4373905" lon="11.5768861"><ele>72.0</ele><time>2026-04-11T10:22:05.921Z</time></trkpt><trkpt lat="45.4371722" lon="11.5769783"><ele>69.0</ele><time>2026-04-11T10:22:06.921Z</time></trkpt><trkpt lat="45.4369492" lon="11.5770983"><ele>66.0</ele><time>2026-04-11T10:22:07.921Z</time></trkpt><trkpt lat="45.4367421" lon="11.5772105"><ele>66.0</ele><time>2026-04-11T10:22:08.921Z</time></trkpt><trkpt lat="45.4365573" lon="11.5772879"><ele>66.0</ele><time>2026-04-11T10:22:09.921Z</time></trkpt><trkpt lat="45.4363931" lon="11.5773358"><ele>66.0</ele><time>2026-04-11T10:22:10.921Z</time></trkpt><trkpt lat="45.4362413" lon="11.5773469"><ele>64.5</ele><time>2026-04-11T10:22:11.921Z</time></trkpt><trkpt lat="45.4360924" lon="11.5773283"><ele>63.0</ele><time>2026-04-11T10:22:12.92Z</time></trkpt><trkpt lat="45.4359591" lon="11.5773008"><ele>61.5</ele><time>2026-04-11T10:22:13.921Z</time></trkpt><trkpt lat="45.435835" lon="11.5773001"><ele>60.0</ele><time>2026-04-11T10:22:14.921Z</time></trkpt><trkpt lat="45.4357389" lon="11.5773292"><ele>60.0</ele><time>2026-04-11T10:22:15.921Z</time></trkpt><trkpt lat="45.4356485" lon="11.5774047"><ele>60.0</ele><time>2026-04-11T10:22:16.921Z</time></trkpt><trkpt lat="45.4355645" lon="11.5775364"><ele>60.0</ele><time>2026-04-11T10:22:17.921Z</time></trkpt><trkpt lat="45.4354742" lon="11.5776774"><ele>60.0</ele><time>2026-04-11T10:22:18.921Z</time></trkpt><trkpt lat="45.4354215" lon="11.5778305"><ele>54.25</ele><time>2026-04-11T10:22:19.921Z</time></trkpt><trkpt lat="45.4353882" lon="11.5779846"><ele>48.5</ele><time>2026-04-11T10:22:20.921Z</time></trkpt><trkpt lat="45.4353684" lon="11.5781618"><ele>42.75</ele><time>2026-04-11T10:22:21.921Z</time></trkpt><trkpt lat="45.4353401" lon="11.5783429"><ele>37.0</ele><time>2026-04-11T10:22:22.921Z</time></trkpt><trkpt lat="45.4353026" lon="11.5785247"><ele>38.0</ele><time>2026-04-11T10:22:23.92Z</time></trkpt><trkpt lat="45.4352498" lon="11.5787113"><ele>39.0</ele><time>2026-04-11T10:22:24.921Z</time></trkpt><trkpt lat="45.4351874" lon="11.5788999"><ele>40.0</ele><time>2026-04-11T10:22:25.921Z</time></trkpt><trkpt lat="45.4351217" lon="11.5790887"><ele>41.0</ele><time>2026-04-11T10:22:26.921Z</time></trkpt><trkpt lat="45.4350569" lon="11.5792742"><ele>41.0</ele><time>2026-04-11T10:22:27.921Z</time></trkpt><trkpt lat="45.4349983" lon="11.5794541"><ele>41.0</ele><time>2026-04-11T10:22:28.921Z</time></trkpt><trkpt lat="45.4349451" lon="11.5796117"><ele>41.0</ele><time>2026-04-11T10:22:29.92Z</time></trkpt><trkpt lat="45.4348968" lon="11.5797527"><ele>41.0</ele><time>2026-04-11T10:22:30.921Z</time></trkpt><trkpt lat="45.4348424" lon="11.5798878"><ele>42.0</ele><time>2026-04-11T10:22:31.921Z</time></trkpt><trkpt lat="45.4347738" lon="11.5799935"><ele>43.0</ele><time>2026-04-11T10:22:32.921Z</time></trkpt><trkpt lat="45.4347013" lon="11.5800862"><ele>44.0</ele><time>2026-04-11T10:22:33.921Z</time></trkpt><trkpt lat="45.4346023" lon="11.5801216"><ele>45.0</ele><time>2026-04-11T10:22:34.921Z</time></trkpt><trkpt lat="45.434493" lon="11.5801429"><ele>46.0</ele><time>2026-04-11T10:22:35.921Z</time></trkpt><trkpt lat="45.4343815" lon="11.580184"><ele>44.5</ele><time>2026-04-11T10:22:36.921Z</time></trkpt><trkpt lat="45.4342648" lon="11.5802413"><ele>43.0</ele><time>2026-04-11T10:22:37.92Z</time></trkpt><trkpt lat="45.4341457" lon="11.5803175"><ele>41.5</ele><time>2026-04-11T10:22:38.921Z</time></trkpt><trkpt lat="45.4340281" lon="11.5803909"><ele>40.0</ele><time>2026-04-11T10:22:39.921Z</time></trkpt><trkpt lat="45.4339003" lon="11.5804838"><ele>37.25</ele><time>2026-04-11T10:22:40.921Z</time></trkpt><trkpt lat="45.4337764" lon="11.5805886"><ele>34.5</ele><time>2026-04-11T10:22:41.921Z</time></trkpt><trkpt lat="45.4336519" lon="11.580696"><ele>31.75</ele><time>2026-04-11T10:22:42.921Z</time></trkpt><trkpt lat="45.4335266" lon="11.5808106"><ele>29.0</ele><time>2026-04-11T10:22:43.921Z</time></trkpt><trkpt lat="45.4334029" lon="11.5809308"><ele>29.0</ele><time>2026-04-11T10:22:44.921Z</time></trkpt><trkpt lat="45.4332886" lon="11.581061"><ele>29.0</ele><time>2026-04-11T10:22:45.921Z</time></trkpt><trkpt lat="45.4331766" lon="11.5811946"><ele>29.0</ele><time>2026-04-11T10:22:46.921Z</time></trkpt><trkpt lat="45.43307" lon="11.5813197"><ele>29.0</ele><time>2026-04-11T10:22:47.921Z</time></trkpt><trkpt lat="45.4329689" lon="11.5814305"><ele>27.75</ele><time>2026-04-11T10:22:48.921Z</time></trkpt><trkpt lat="45.4328654" lon="11.5815122"><ele>26.5</ele><time>2026-04-11T10:22:49.921Z</time></trkpt><trkpt lat="45.4327515" lon="11.5815635"><ele>25.25</ele><time>2026-04-11T10:22:50.921Z</time></trkpt><trkpt lat="45.4326281" lon="11.5816079"><ele>24.0</ele><time>2026-04-11T10:22:51.921Z</time></trkpt><trkpt lat="45.4324986" lon="11.5816617"><ele>24.0</ele><time>2026-04-11T10:22:52.921Z</time></trkpt><trkpt lat="45.4323694" lon="11.5817355"><ele>24.0</ele><time>2026-04-11T10:22:53.921Z</time></trkpt><trkpt lat="45.4322422" lon="11.5818276"><ele>24.0</ele><time>2026-04-11T10:22:54.921Z</time></trkpt><trkpt lat="45.4321174" lon="11.5819271"><ele>24.0</ele><time>2026-04-11T10:22:55.921Z</time></trkpt><trkpt lat="45.4319917" lon="11.5820276"><ele>24.0</ele><time>2026-04-11T10:22:56.921Z</time></trkpt><trkpt lat="45.4318712" lon="11.5821375"><ele>24.0</ele><time>2026-04-11T10:22:57.921Z</time></trkpt><trkpt lat="45.4317605" lon="11.5822511"><ele>24.0</ele><time>2026-04-11T10:22:58.921Z</time></trkpt><trkpt lat="45.4316506" lon="11.5823693"><ele>24.0</ele><time>2026-04-11T10:22:59.92Z</time></trkpt><trkpt lat="45.4315402" lon="11.5824901"><ele>24.0</ele><time>2026-04-11T10:23:00.921Z</time></trkpt><trkpt lat="45.4314332" lon="11.5826126"><ele>24.0</ele><time>2026-04-11T10:23:01.921Z</time></trkpt><trkpt lat="45.4313231" lon="11.5827348"><ele>24.0</ele><time>2026-04-11T10:23:02.921Z</time></trkpt><trkpt lat="45.4312151" lon="11.5828553"><ele>24.0</ele><time>2026-04-11T10:23:03.921Z</time></trkpt><trkpt lat="45.4311085" lon="11.5829834"><ele>22.75</ele><time>2026-04-11T10:23:04.921Z</time></trkpt><trkpt lat="45.4310097" lon="11.5831207"><ele>21.5</ele><time>2026-04-11T10:23:05.921Z</time></trkpt><trkpt lat="45.4309211" lon="11.5832809"><ele>20.25</ele><time>2026-04-11T10:23:06.921Z</time></trkpt><trkpt lat="45.4308297" lon="11.5834457"><ele>19.0</ele><time>2026-04-11T10:23:07.921Z</time></trkpt><trkpt lat="45.4307351" lon="11.5836085"><ele>19.0</ele><time>2026-04-11T10:23:08.921Z</time></trkpt><trkpt lat="45.4306439" lon="11.5837727"><ele>19.0</ele><time>2026-04-11T10:23:09.921Z</time></trkpt><trkpt lat="45.4305535" lon="11.5839333"><ele>19.0</ele><time>2026-04-11T10:23:10.921Z</time></trkpt><trkpt lat="45.4304651" lon="11.584093"><ele>19.0</ele><time>2026-04-11T10:23:11.921Z</time></trkpt><trkpt lat="45.4303787" lon="11.5842599"><ele>19.0</ele><time>2026-04-11T10:23:12.921Z</time></trkpt><trkpt lat="45.430288" lon="11.5844299"><ele>19.0</ele><time>2026-04-11T10:23:13.921Z</time></trkpt><trkpt lat="45.4301997" lon="11.5845916"><ele>19.0</ele><time>2026-04-11T10:23:14.921Z</time></trkpt><trkpt lat="45.4301086" lon="11.5847562"><ele>19.0</ele><time>2026-04-11T10:23:15.921Z</time></trkpt><trkpt lat="45.4300158" lon="11.584922"><ele>19.25</ele><time>2026-04-11T10:23:16.921Z</time></trkpt><trkpt lat="45.4299281" lon="11.5850851"><ele>19.5</ele><time>2026-04-11T10:23:17.921Z</time></trkpt><trkpt lat="45.4298385" lon="11.5852543"><ele>19.75</ele><time>2026-04-11T10:23:18.921Z</time></trkpt><trkpt lat="45.429747" lon="11.5854256"><ele>20.0</ele><time>2026-04-11T10:23:19.921Z</time></trkpt><trkpt lat="45.4296567" lon="11.5855929"><ele>19.333333333333336</ele><time>2026-04-11T10:23:20.921Z</time></trkpt><trkpt lat="45.4295643" lon="11.5857599"><ele>18.666666666666668</ele><time>2026-04-11T10:23:21.921Z</time></trkpt><trkpt lat="45.4294715" lon="11.5859316"><ele>18.0</ele><time>2026-04-11T10:23:22.921Z</time></trkpt><trkpt lat="45.4293858" lon="11.5861141"><ele>19.0</ele><time>2026-04-11T10:23:23.92Z</time></trkpt><trkpt lat="45.4293041" lon="11.5862957"><ele>20.0</ele><time>2026-04-11T10:23:24.92Z</time></trkpt><trkpt lat="45.429221" lon="11.586483"><ele>21.0</ele><time>2026-04-11T10:23:25.921Z</time></trkpt><trkpt lat="45.4291417" lon="11.5866779"><ele>21.0</ele><time>2026-04-11T10:23:26.921Z</time></trkpt><trkpt lat="45.4290483" lon="11.5868891"><ele>21.0</ele><time>2026-04-11T10:23:27.92Z</time></trkpt><trkpt lat="45.4289456" lon="11.5871104"><ele>21.0</ele><time>2026-04-11T10:23:28.921Z</time></trkpt><trkpt lat="45.4288356" lon="11.5873322"><ele>20.666666666666668</ele><time>2026-04-11T10:23:29.921Z</time></trkpt><trkpt lat="45.4287239" lon="11.5875479"><ele>20.333333333333336</ele><time>2026-04-11T10:23:30.921Z</time></trkpt><trkpt lat="45.4286137" lon="11.5877591"><ele>20.0</ele><time>2026-04-11T10:23:31.921Z</time></trkpt><trkpt lat="45.4285017" lon="11.5879534"><ele>19.666666666666668</ele><time>2026-04-11T10:23:32.921Z</time></trkpt><trkpt lat="45.4283993" lon="11.5881403"><ele>19.333333333333332</ele><time>2026-04-11T10:23:33.921Z</time></trkpt><trkpt lat="45.4282941" lon="11.588314"><ele>19.0</ele><time>2026-04-11T10:23:34.921Z</time></trkpt><trkpt lat="45.4281825" lon="11.5884841"><ele>19.0</ele><time>2026-04-11T10:23:35.921Z</time></trkpt><trkpt lat="45.4280668" lon="11.5886465"><ele>19.0</ele><time>2026-04-11T10:23:36.921Z</time></trkpt><trkpt lat="45.4279512" lon="11.588793"><ele>19.0</ele><time>2026-04-11T10:23:37.921Z</time></trkpt><trkpt lat="45.42783" lon="11.5889332"><ele>18.666666666666664</ele><time>2026-04-11T10:23:38.921Z</time></trkpt><trkpt lat="45.4277069" lon="11.589073"><ele>18.333333333333332</ele><time>2026-04-11T10:23:39.921Z</time></trkpt><trkpt lat="45.4275854" lon="11.5892129"><ele>18.0</ele><time>2026-04-11T10:23:40.921Z</time></trkpt><trkpt lat="45.4274684" lon="11.5893548"><ele>18.0</ele><time>2026-04-11T10:23:41.921Z</time></trkpt><trkpt lat="45.4273551" lon="11.5895059"><ele>18.0</ele><time>2026-04-11T10:23:42.921Z</time></trkpt><trkpt lat="45.4272419" lon="11.5896607"><ele>18.0</ele><time>2026-04-11T10:23:43.921Z</time></trkpt><trkpt lat="45.4271299" lon="11.5898099"><ele>18.0</ele><time>2026-04-11T10:23:44.921Z</time></trkpt><trkpt lat="45.4270236" lon="11.5899429"><ele>18.0</ele><time>2026-04-11T10:23:45.921Z</time></trkpt><trkpt lat="45.4269249" lon="11.5900706"><ele>18.0</ele><time>2026-04-11T10:23:46.921Z</time></trkpt><trkpt lat="45.4268325" lon="11.5901889"><ele>18.0</ele><time>2026-04-11T10:23:47.921Z</time></trkpt><trkpt lat="45.4267421" lon="11.5903082"><ele>18.25</ele><time>2026-04-11T10:23:48.921Z</time></trkpt><trkpt lat="45.4266548" lon="11.590429"><ele>18.5</ele><time>2026-04-11T10:23:49.921Z</time></trkpt><trkpt lat="45.4265712" lon="11.5905379"><ele>18.75</ele><time>2026-04-11T10:23:50.921Z</time></trkpt><trkpt lat="45.4264878" lon="11.5906495"><ele>19.0</ele><time>2026-04-11T10:23:51.921Z</time></trkpt><trkpt lat="45.4263984" lon="11.5907607"><ele>19.0</ele><time>2026-04-11T10:23:52.921Z</time></trkpt><trkpt lat="45.4263064" lon="11.5908735"><ele>19.0</ele><time>2026-04-11T10:23:53.921Z</time></trkpt><trkpt lat="45.4262112" lon="11.5909896"><ele>19.0</ele><time>2026-04-11T10:23:54.921Z</time></trkpt><trkpt lat="45.4261092" lon="11.5910992"><ele>19.0</ele><time>2026-04-11T10:23:55.921Z</time></trkpt><trkpt lat="45.4259978" lon="11.5911947"><ele>19.25</ele><time>2026-04-11T10:23:56.921Z</time></trkpt><trkpt lat="45.4258794" lon="11.5912814"><ele>19.5</ele><time>2026-04-11T10:23:57.92Z</time></trkpt><trkpt lat="45.4257605" lon="11.5913588"><ele>19.75</ele><time>2026-04-11T10:23:58.921Z</time></trkpt><trkpt lat="45.4256397" lon="11.5914229"><ele>20.0</ele><time>2026-04-11T10:23:59.92Z</time></trkpt><trkpt lat="45.4255184" lon="11.5914818"><ele>20.25</ele><time>2026-04-11T10:24:00.921Z</time></trkpt><trkpt lat="45.4254005" lon="11.5915408"><ele>20.5</ele><time>2026-04-11T10:24:01.921Z</time></trkpt><trkpt lat="45.4252888" lon="11.5916082"><ele>20.75</ele><time>2026-04-11T10:24:02.921Z</time></trkpt><trkpt lat="45.4251768" lon="11.5916918"><ele>21.0</ele><time>2026-04-11T10:24:03.921Z</time></trkpt><trkpt lat="45.425067" lon="11.5917888"><ele>21.0</ele><time>2026-04-11T10:24:04.92Z</time></trkpt><trkpt lat="45.4249568" lon="11.5918968"><ele>21.0</ele><time>2026-04-11T10:24:05.921Z</time></trkpt><trkpt lat="45.4248504" lon="11.5920051"><ele>21.0</ele><time>2026-04-11T10:24:06.921Z</time></trkpt><trkpt lat="45.4247464" lon="11.5921095"><ele>21.0</ele><time>2026-04-11T10:24:07.921Z</time></trkpt><trkpt lat="45.4246507" lon="11.5922166"><ele>21.0</ele><time>2026-04-11T10:24:08.921Z</time></trkpt><trkpt lat="45.4245664" lon="11.5923173"><ele>21.0</ele><time>2026-04-11T10:24:09.921Z</time></trkpt><trkpt lat="45.42449" lon="11.5924234"><ele>21.0</ele><time>2026-04-11T10:24:10.921Z</time></trkpt><trkpt lat="45.4244194" lon="11.5925302"><ele>21.0</ele><time>2026-04-11T10:24:11.921Z</time></trkpt><trkpt lat="45.4243505" lon="11.5926314"><ele>21.0</ele><time>2026-04-11T10:24:12.921Z</time></trkpt><trkpt lat="45.4242946" lon="11.5927234"><ele>21.0</ele><time>2026-04-11T10:24:13.921Z</time></trkpt><trkpt lat="45.4242429" lon="11.5928073"><ele>21.0</ele><time>2026-04-11T10:24:14.921Z</time></trkpt><trkpt lat="45.4241943" lon="11.592885"><ele>21.0</ele><time>2026-04-11T10:24:15.92Z</time></trkpt><trkpt lat="45.4241491" lon="11.592957"><ele>21.0</ele><time>2026-04-11T10:24:16.921Z</time></trkpt><trkpt lat="45.4240729" lon="11.5930882"><ele>21.0</ele><time>2026-04-11T10:24:18.921Z</time></trkpt><trkpt lat="45.4240136" lon="11.5932093"><ele>21.0</ele><time>2026-04-11T10:24:20.92Z</time></trkpt><trkpt lat="45.4239718" lon="11.5932854"><ele>21.0</ele><time>2026-04-11T10:24:22.921Z</time></trkpt><trkpt lat="45.4239274" lon="11.5933908"><ele>21.0</ele><time>2026-04-11T10:24:55.921Z</time></trkpt><trkpt lat="45.4238837" lon="11.5935096"><ele>21.0</ele><time>2026-04-11T10:24:56.921Z</time></trkpt><trkpt lat="45.4238385" lon="11.5936055"><ele>21.0</ele><time>2026-04-11T10:24:57.92Z</time></trkpt><trkpt lat="45.4238009" lon="11.5936822"><ele>21.0</ele><time>2026-04-11T10:24:58.921Z</time></trkpt><trkpt lat="45.4237692" lon="11.5937599"><ele>21.0</ele><time>2026-04-11T10:24:59.921Z</time></trkpt><trkpt lat="45.4237446" lon="11.5938467"><ele>21.0</ele><time>2026-04-11T10:25:00.92Z</time></trkpt><trkpt lat="45.4237169" lon="11.5939409"><ele>21.0</ele><time>2026-04-11T10:25:01.921Z</time></trkpt><trkpt lat="45.4236779" lon="11.5940584"><ele>21.0</ele><time>2026-04-11T10:25:02.921Z</time></trkpt><trkpt lat="45.423622" lon="11.5941854"><ele>21.0</ele><time>2026-04-11T10:25:03.921Z</time></trkpt><trkpt lat="45.4235735" lon="11.5943307"><ele>21.0</ele><time>2026-04-11T10:25:04.921Z</time></trkpt><trkpt lat="45.4235245" lon="11.5944794"><ele>20.75</ele><time>2026-04-11T10:25:05.921Z</time></trkpt><trkpt lat="45.4234721" lon="11.5946403"><ele>20.5</ele><time>2026-04-11T10:25:06.921Z</time></trkpt><trkpt lat="45.4234201" lon="11.5948027"><ele>20.25</ele><time>2026-04-11T10:25:07.921Z</time></trkpt><trkpt lat="45.4233681" lon="11.5949677"><ele>20.0</ele><time>2026-04-11T10:25:08.921Z</time></trkpt><trkpt lat="45.4233096" lon="11.5951485"><ele>20.0</ele><time>2026-04-11T10:25:09.921Z</time></trkpt><trkpt lat="45.4232499" lon="11.5953301"><ele>20.0</ele><time>2026-04-11T10:25:10.921Z</time></trkpt><trkpt lat="45.423192" lon="11.5955134"><ele>20.0</ele><time>2026-04-11T10:25:11.921Z</time></trkpt><trkpt lat="45.4231366" lon="11.5956949"><ele>20.0</ele><time>2026-04-11T10:25:12.921Z</time></trkpt><trkpt lat="45.4230814" lon="11.5958796"><ele>20.0</ele><time>2026-04-11T10:25:13.921Z</time></trkpt><trkpt lat="45.423015" lon="11.5960651"><ele>20.0</ele><time>2026-04-11T10:25:14.921Z</time></trkpt><trkpt lat="45.4229485" lon="11.5962567"><ele>20.0</ele><time>2026-04-11T10:25:15.921Z</time></trkpt><trkpt lat="45.4228814" lon="11.5964516"><ele>20.0</ele><time>2026-04-11T10:25:16.921Z</time></trkpt><trkpt lat="45.422804" lon="11.5966761"><ele>20.0</ele><time>2026-04-11T10:25:17.921Z</time></trkpt><trkpt lat="45.4227217" lon="11.5969324"><ele>20.0</ele><time>2026-04-11T10:25:18.921Z</time></trkpt><trkpt lat="45.4226331" lon="11.5972083"><ele>20.0</ele><time>2026-04-11T10:25:19.921Z</time></trkpt><trkpt lat="45.4225368" lon="11.5974723"><ele>20.0</ele><time>2026-04-11T10:25:20.921Z</time></trkpt><trkpt lat="45.4224496" lon="11.5977222"><ele>20.0</ele><time>2026-04-11T10:25:21.921Z</time></trkpt><trkpt lat="45.4223672" lon="11.5979571"><ele>20.0</ele><time>2026-04-11T10:25:22.921Z</time></trkpt><trkpt lat="45.4222941" lon="11.5981758"><ele>20.333333333333336</ele><time>2026-04-11T10:25:23.921Z</time></trkpt><trkpt lat="45.4222186" lon="11.5983834"><ele>20.666666666666668</ele><time>2026-04-11T10:25:24.921Z</time></trkpt><trkpt lat="45.4221446" lon="11.5985845"><ele>21.0</ele><time>2026-04-11T10:25:25.921Z</time></trkpt><trkpt lat="45.4220551" lon="11.5987786"><ele>21.0</ele><time>2026-04-11T10:25:26.921Z</time></trkpt><trkpt lat="45.4219469" lon="11.5989598"><ele>21.0</ele><time>2026-04-11T10:25:27.921Z</time></trkpt><trkpt lat="45.4218283" lon="11.5991254"><ele>21.0</ele><time>2026-04-11T10:25:28.921Z</time></trkpt><trkpt lat="45.4216919" lon="11.5992827"><ele>21.0</ele><time>2026-04-11T10:25:29.921Z</time></trkpt><trkpt lat="45.4215483" lon="11.5994264"><ele>21.0</ele><time>2026-04-11T10:25:30.921Z</time></trkpt><trkpt lat="45.4213962" lon="11.5995523"><ele>21.0</ele><time>2026-04-11T10:25:31.92Z</time></trkpt><trkpt lat="45.4212384" lon="11.599676"><ele>20.666666666666668</ele><time>2026-04-11T10:25:32.921Z</time></trkpt><trkpt lat="45.4210875" lon="11.5998053"><ele>20.333333333333336</ele><time>2026-04-11T10:25:33.921Z</time></trkpt><trkpt lat="45.4209439" lon="11.5999523"><ele>20.0</ele><time>2026-04-11T10:25:34.92Z</time></trkpt><trkpt lat="45.4208032" lon="11.6001048"><ele>20.0</ele><time>2026-04-11T10:25:35.92Z</time></trkpt><trkpt lat="45.4206651" lon="11.6002645"><ele>20.0</ele><time>2026-04-11T10:25:36.92Z</time></trkpt><trkpt lat="45.4205265" lon="11.6004229"><ele>20.0</ele><time>2026-04-11T10:25:37.921Z</time></trkpt><trkpt lat="45.4203828" lon="11.6005807"><ele>20.0</ele><time>2026-04-11T10:25:38.921Z</time></trkpt><trkpt lat="45.4202336" lon="11.6007331"><ele>20.0</ele><time>2026-04-11T10:25:39.921Z</time></trkpt><trkpt lat="45.4200865" lon="11.60089"><ele>20.0</ele><time>2026-04-11T10:25:40.921Z</time></trkpt><trkpt lat="45.4199439" lon="11.6010563"><ele>20.0</ele><time>2026-04-11T10:25:41.92Z</time></trkpt><trkpt lat="45.4198009" lon="11.6012332"><ele>20.0</ele><time>2026-04-11T10:25:42.921Z</time></trkpt><trkpt lat="45.4196625" lon="11.6014276"><ele>20.0</ele><time>2026-04-11T10:25:43.921Z</time></trkpt><trkpt lat="45.4195279" lon="11.601625"><ele>20.0</ele><time>2026-04-11T10:25:44.921Z</time></trkpt><trkpt lat="45.4193788" lon="11.6018169"><ele>20.0</ele><time>2026-04-11T10:25:45.921Z</time></trkpt><trkpt lat="45.4192129" lon="11.6019932"><ele>20.0</ele><time>2026-04-11T10:25:46.921Z</time></trkpt><trkpt lat="45.419031" lon="11.6021558"><ele>19.666666666666668</ele><time>2026-04-11T10:25:47.921Z</time></trkpt><trkpt lat="45.4188406" lon="11.6023148"><ele>19.333333333333332</ele><time>2026-04-11T10:25:48.921Z</time></trkpt><trkpt lat="45.4186532" lon="11.6024796"><ele>19.0</ele><time>2026-04-11T10:25:49.921Z</time></trkpt><trkpt lat="45.4184598" lon="11.6026421"><ele>19.0</ele><time>2026-04-11T10:25:50.921Z</time></trkpt><trkpt lat="45.4182777" lon="11.6027998"><ele>19.0</ele><time>2026-04-11T10:25:51.921Z</time></trkpt><trkpt lat="45.4181022" lon="11.6029476"><ele>19.0</ele><time>2026-04-11T10:25:52.92Z</time></trkpt><trkpt lat="45.4179301" lon="11.6030946"><ele>19.333333333333332</ele><time>2026-04-11T10:25:53.921Z</time></trkpt><trkpt lat="45.4177665" lon="11.6032372"><ele>19.666666666666668</ele><time>2026-04-11T10:25:54.921Z</time></trkpt><trkpt lat="45.4176099" lon="11.6033749"><ele>20.0</ele><time>2026-04-11T10:25:55.921Z</time></trkpt><trkpt lat="45.4174582" lon="11.6035147"><ele>20.0</ele><time>2026-04-11T10:25:56.921Z</time></trkpt><trkpt lat="45.4173111" lon="11.6036596"><ele>20.0</ele><time>2026-04-11T10:25:57.921Z</time></trkpt><trkpt lat="45.4171701" lon="11.6038142"><ele>20.0</ele><time>2026-04-11T10:25:58.921Z</time></trkpt><trkpt lat="45.4170356" lon="11.6039783"><ele>20.0</ele><time>2026-04-11T10:25:59.921Z</time></trkpt><trkpt lat="45.4169012" lon="11.6041481"><ele>20.0</ele><time>2026-04-11T10:26:00.921Z</time></trkpt><trkpt lat="45.4167692" lon="11.6043286"><ele>20.0</ele><time>2026-04-11T10:26:01.921Z</time></trkpt><trkpt lat="45.4166443" lon="11.6045146"><ele>20.0</ele><time>2026-04-11T10:26:02.921Z</time></trkpt><trkpt lat="45.416524" lon="11.604705"><ele>20.0</ele><time>2026-04-11T10:26:03.921Z</time></trkpt><trkpt lat="45.4164142" lon="11.6049016"><ele>20.0</ele><time>2026-04-11T10:26:04.921Z</time></trkpt><trkpt lat="45.4163098" lon="11.6050972"><ele>20.0</ele><time>2026-04-11T10:26:05.921Z</time></trkpt><trkpt lat="45.4162157" lon="11.6052945"><ele>20.0</ele><time>2026-04-11T10:26:06.921Z</time></trkpt><trkpt lat="45.4161266" lon="11.6054845"><ele>20.0</ele><time>2026-04-11T10:26:07.921Z</time></trkpt><trkpt lat="45.416042" lon="11.6056661"><ele>20.25</ele><time>2026-04-11T10:26:08.921Z</time></trkpt><trkpt lat="45.4159625" lon="11.6058418"><ele>20.5</ele><time>2026-04-11T10:26:09.921Z</time></trkpt><trkpt lat="45.4158919" lon="11.6060055"><ele>20.75</ele><time>2026-04-11T10:26:10.92Z</time></trkpt><trkpt lat="45.4158262" lon="11.6061619"><ele>21.0</ele><time>2026-04-11T10:26:11.921Z</time></trkpt><trkpt lat="45.4157629" lon="11.6063226"><ele>21.0</ele><time>2026-04-11T10:26:12.921Z</time></trkpt><trkpt lat="45.415688" lon="11.6064873"><ele>21.0</ele><time>2026-04-11T10:26:13.921Z</time></trkpt><trkpt lat="45.4156024" lon="11.6066554"><ele>21.0</ele><time>2026-04-11T10:26:14.921Z</time></trkpt><trkpt lat="45.4155028" lon="11.6068303"><ele>21.0</ele><time>2026-04-11T10:26:15.921Z</time></trkpt><trkpt lat="45.4153983" lon="11.6070159"><ele>20.333333333333332</ele><time>2026-04-11T10:26:16.921Z</time></trkpt><trkpt lat="45.4152972" lon="11.6072144"><ele>19.666666666666664</ele><time>2026-04-11T10:26:17.921Z</time></trkpt><trkpt lat="45.4152007" lon="11.6074298"><ele>19.0</ele><time>2026-04-11T10:26:18.921Z</time></trkpt><trkpt lat="45.4151105" lon="11.6076622"><ele>18.666666666666664</ele><time>2026-04-11T10:26:19.921Z</time></trkpt><trkpt lat="45.4150288" lon="11.607904"><ele>18.333333333333332</ele><time>2026-04-11T10:26:20.921Z</time></trkpt><trkpt lat="45.4149501" lon="11.608155"><ele>18.0</ele><time>2026-04-11T10:26:21.921Z</time></trkpt><trkpt lat="45.4148748" lon="11.6084074"><ele>18.0</ele><time>2026-04-11T10:26:22.921Z</time></trkpt><trkpt lat="45.4148009" lon="11.6086605"><ele>18.0</ele><time>2026-04-11T10:26:23.921Z</time></trkpt><trkpt lat="45.4147267" lon="11.6089054"><ele>18.0</ele><time>2026-04-11T10:26:24.921Z</time></trkpt><trkpt lat="45.4146535" lon="11.6091441"><ele>18.0</ele><time>2026-04-11T10:26:25.921Z</time></trkpt><trkpt lat="45.4145837" lon="11.6093767"><ele>18.0</ele><time>2026-04-11T10:26:26.921Z</time></trkpt><trkpt lat="45.4145181" lon="11.6096019"><ele>18.0</ele><time>2026-04-11T10:26:27.921Z</time></trkpt><trkpt lat="45.4144631" lon="11.6098234"><ele>18.0</ele><time>2026-04-11T10:26:28.921Z</time></trkpt><trkpt lat="45.4144246" lon="11.6100454"><ele>18.0</ele><time>2026-04-11T10:26:29.921Z</time></trkpt><trkpt lat="45.4144015" lon="11.6102715"><ele>18.0</ele><time>2026-04-11T10:26:30.921Z</time></trkpt><trkpt lat="45.4143912" lon="11.6104908"><ele>18.0</ele><time>2026-04-11T10:26:31.921Z</time></trkpt><trkpt lat="45.4143923" lon="11.6107047"><ele>18.0</ele><time>2026-04-11T10:26:32.921Z</time></trkpt><trkpt lat="45.4143946" lon="11.6109178"><ele>18.0</ele><time>2026-04-11T10:26:33.921Z</time></trkpt><trkpt lat="45.4143781" lon="11.6111328"><ele>18.666666666666668</ele><time>2026-04-11T10:26:34.921Z</time></trkpt><trkpt lat="45.4143461" lon="11.6113414"><ele>19.333333333333336</ele><time>2026-04-11T10:26:35.921Z</time></trkpt><trkpt lat="45.4143048" lon="11.6115535"><ele>20.0</ele><time>2026-04-11T10:26:36.921Z</time></trkpt><trkpt lat="45.414249" lon="11.6117529"><ele>20.0</ele><time>2026-04-11T10:26:37.921Z</time></trkpt><trkpt lat="45.4141823" lon="11.6119488"><ele>20.0</ele><time>2026-04-11T10:26:38.921Z</time></trkpt><trkpt lat="45.4141065" lon="11.612136"><ele>20.0</ele><time>2026-04-11T10:26:39.921Z</time></trkpt><trkpt lat="45.4140275" lon="11.6123191"><ele>20.0</ele><time>2026-04-11T10:26:40.92Z</time></trkpt><trkpt lat="45.4139495" lon="11.6124924"><ele>20.0</ele><time>2026-04-11T10:26:41.921Z</time></trkpt><trkpt lat="45.413865" lon="11.6126628"><ele>20.0</ele><time>2026-04-11T10:26:42.921Z</time></trkpt><trkpt lat="45.4137782" lon="11.6128214"><ele>20.0</ele><time>2026-04-11T10:26:43.921Z</time></trkpt><trkpt lat="45.4136941" lon="11.6129831"><ele>20.0</ele><time>2026-04-11T10:26:44.921Z</time></trkpt><trkpt lat="45.4136115" lon="11.6131438"><ele>20.0</ele><time>2026-04-11T10:26:45.921Z</time></trkpt><trkpt lat="45.4135334" lon="11.6133075"><ele>20.0</ele><time>2026-04-11T10:26:46.921Z</time></trkpt><trkpt lat="45.4134639" lon="11.6134816"><ele>20.0</ele><time>2026-04-11T10:26:47.921Z</time></trkpt><trkpt lat="45.4134039" lon="11.6136659"><ele>20.0</ele><time>2026-04-11T10:26:48.921Z</time></trkpt><trkpt lat="45.4133484" lon="11.6138598"><ele>20.0</ele><time>2026-04-11T10:26:49.921Z</time></trkpt><trkpt lat="45.413296" lon="11.6140448"><ele>20.0</ele><time>2026-04-11T10:26:50.921Z</time></trkpt><trkpt lat="45.4132482" lon="11.6142266"><ele>20.0</ele><time>2026-04-11T10:26:51.921Z</time></trkpt><trkpt lat="45.4131997" lon="11.6144111"><ele>19.75</ele><time>2026-04-11T10:26:52.921Z</time></trkpt><trkpt lat="45.4131499" lon="11.6145876"><ele>19.5</ele><time>2026-04-11T10:26:53.921Z</time></trkpt><trkpt lat="45.4130985" lon="11.6147611"><ele>19.25</ele><time>2026-04-11T10:26:54.921Z</time></trkpt><trkpt lat="45.4130388" lon="11.6149238"><ele>19.0</ele><time>2026-04-11T10:26:55.921Z</time></trkpt><trkpt lat="45.4129713" lon="11.6150792"><ele>19.0</ele><time>2026-04-11T10:26:56.921Z</time></trkpt><trkpt lat="45.4128963" lon="11.6152265"><ele>19.0</ele><time>2026-04-11T10:26:57.921Z</time></trkpt><trkpt lat="45.4128183" lon="11.6153695"><ele>19.0</ele><time>2026-04-11T10:26:58.921Z</time></trkpt><trkpt lat="45.4127332" lon="11.6155107"><ele>19.0</ele><time>2026-04-11T10:26:59.921Z</time></trkpt><trkpt lat="45.4126431" lon="11.6156432"><ele>19.0</ele><time>2026-04-11T10:27:00.921Z</time></trkpt><trkpt lat="45.4125593" lon="11.6157635"><ele>19.0</ele><time>2026-04-11T10:27:01.921Z</time></trkpt><trkpt lat="45.4124699" lon="11.6158768"><ele>19.0</ele><time>2026-04-11T10:27:02.921Z</time></trkpt><trkpt lat="45.4123647" lon="11.6159713"><ele>19.0</ele><time>2026-04-11T10:27:03.921Z</time></trkpt><trkpt lat="45.4122482" lon="11.616051"><ele>19.25</ele><time>2026-04-11T10:27:04.921Z</time></trkpt><trkpt lat="45.4121222" lon="11.6161246"><ele>19.5</ele><time>2026-04-11T10:27:05.921Z</time></trkpt><trkpt lat="45.4120042" lon="11.6162024"><ele>19.75</ele><time>2026-04-11T10:27:06.921Z</time></trkpt><trkpt lat="45.4118839" lon="11.6162834"><ele>20.0</ele><time>2026-04-11T10:27:07.921Z</time></trkpt><trkpt lat="45.4117608" lon="11.6163612"><ele>20.0</ele><time>2026-04-11T10:27:08.921Z</time></trkpt><trkpt lat="45.4116456" lon="11.6164313"><ele>20.0</ele><time>2026-04-11T10:27:09.921Z</time></trkpt><trkpt lat="45.4115292" lon="11.6165022"><ele>20.0</ele><time>2026-04-11T10:27:10.92Z</time></trkpt><trkpt lat="45.4114249" lon="11.6165662"><ele>20.0</ele><time>2026-04-11T10:27:11.921Z</time></trkpt><trkpt lat="45.4113322" lon="11.6166455"><ele>19.75</ele><time>2026-04-11T10:27:12.921Z</time></trkpt><trkpt lat="45.4112308" lon="11.6167244"><ele>19.5</ele><time>2026-04-11T10:27:13.921Z</time></trkpt><trkpt lat="45.4111099" lon="11.6167914"><ele>19.25</ele><time>2026-04-11T10:27:14.921Z</time></trkpt><trkpt lat="45.4109806" lon="11.6168515"><ele>19.0</ele><time>2026-04-11T10:27:15.921Z</time></trkpt><trkpt lat="45.4108491" lon="11.6169276"><ele>19.25</ele><time>2026-04-11T10:27:16.921Z</time></trkpt><trkpt lat="45.4107243" lon="11.6170197"><ele>19.5</ele><time>2026-04-11T10:27:17.921Z</time></trkpt><trkpt lat="45.4106019" lon="11.6171042"><ele>19.75</ele><time>2026-04-11T10:27:18.921Z</time></trkpt><trkpt lat="45.410482" lon="11.6171799"><ele>20.0</ele><time>2026-04-11T10:27:19.921Z</time></trkpt><trkpt lat="45.4103638" lon="11.6172475"><ele>20.0</ele><time>2026-04-11T10:27:20.921Z</time></trkpt><trkpt lat="45.4102494" lon="11.6173229"><ele>20.0</ele><time>2026-04-11T10:27:21.921Z</time></trkpt><trkpt lat="45.4101385" lon="11.6173973"><ele>20.0</ele><time>2026-04-11T10:27:22.921Z</time></trkpt><trkpt lat="45.4100289" lon="11.6174741"><ele>20.0</ele><time>2026-04-11T10:27:23.921Z</time></trkpt><trkpt lat="45.4099261" lon="11.6175665"><ele>20.0</ele><time>2026-04-11T10:27:24.921Z</time></trkpt><trkpt lat="45.4098242" lon="11.6176794"><ele>20.0</ele><time>2026-04-11T10:27:25.921Z</time></trkpt><trkpt lat="45.4097304" lon="11.6178189"><ele>20.0</ele><time>2026-04-11T10:27:26.92Z</time></trkpt><trkpt lat="45.4096472" lon="11.6179778"><ele>20.0</ele><time>2026-04-11T10:27:27.921Z</time></trkpt><trkpt lat="45.4095507" lon="11.6181334"><ele>19.333333333333336</ele><time>2026-04-11T10:27:28.921Z</time></trkpt><trkpt lat="45.409439" lon="11.6182623"><ele>18.666666666666668</ele><time>2026-04-11T10:27:29.921Z</time></trkpt><trkpt lat="45.4093073" lon="11.6183725"><ele>18.0</ele><time>2026-04-11T10:27:30.921Z</time></trkpt><trkpt lat="45.4091526" lon="11.6184686"><ele>18.0</ele><time>2026-04-11T10:27:31.921Z</time></trkpt><trkpt lat="45.4089977" lon="11.6185681"><ele>18.0</ele><time>2026-04-11T10:27:32.921Z</time></trkpt><trkpt lat="45.4088384" lon="11.6186752"><ele>18.0</ele><time>2026-04-11T10:27:33.921Z</time></trkpt><trkpt lat="45.4086798" lon="11.61878"><ele>18.333333333333332</ele><time>2026-04-11T10:27:34.921Z</time></trkpt><trkpt lat="45.4085276" lon="11.6188858"><ele>18.666666666666664</ele><time>2026-04-11T10:27:35.921Z</time></trkpt><trkpt lat="45.4083818" lon="11.6189925"><ele>19.0</ele><time>2026-04-11T10:27:36.921Z</time></trkpt><trkpt lat="45.4082404" lon="11.6191048"><ele>19.0</ele><time>2026-04-11T10:27:37.921Z</time></trkpt><trkpt lat="45.4081197" lon="11.6192334"><ele>19.0</ele><time>2026-04-11T10:27:38.921Z</time></trkpt><trkpt lat="45.4080337" lon="11.6194384"><ele>19.0</ele><time>2026-04-11T10:27:39.921Z</time></trkpt><trkpt lat="45.4079432" lon="11.6196399"><ele>19.333333333333332</ele><time>2026-04-11T10:27:40.921Z</time></trkpt><trkpt lat="45.4078497" lon="11.6198357"><ele>19.666666666666668</ele><time>2026-04-11T10:27:41.921Z</time></trkpt><trkpt lat="45.4077535" lon="11.6200346"><ele>20.0</ele><time>2026-04-11T10:27:42.921Z</time></trkpt><trkpt lat="45.4076573" lon="11.6202365"><ele>19.333333333333336</ele><time>2026-04-11T10:27:43.921Z</time></trkpt><trkpt lat="45.4075624" lon="11.62044"><ele>18.666666666666668</ele><time>2026-04-11T10:27:44.921Z</time></trkpt><trkpt lat="45.407474" lon="11.6206585"><ele>18.0</ele><time>2026-04-11T10:27:45.921Z</time></trkpt><trkpt lat="45.4073976" lon="11.6208951"><ele>18.0</ele><time>2026-04-11T10:27:46.92Z</time></trkpt><trkpt lat="45.4073345" lon="11.6211426"><ele>18.0</ele><time>2026-04-11T10:27:47.921Z</time></trkpt><trkpt lat="45.4072781" lon="11.6214164"><ele>18.0</ele><time>2026-04-11T10:27:48.921Z</time></trkpt><trkpt lat="45.4072141" lon="11.6217116"><ele>17.0</ele><time>2026-04-11T10:27:49.921Z</time></trkpt><trkpt lat="45.4071444" lon="11.6220337"><ele>16.0</ele><time>2026-04-11T10:27:50.921Z</time></trkpt><trkpt lat="45.4070715" lon="11.622383"><ele>16.0</ele><time>2026-04-11T10:27:51.921Z</time></trkpt><trkpt lat="45.4069933" lon="11.6227563"><ele>16.0</ele><time>2026-04-11T10:27:52.921Z</time></trkpt><trkpt lat="45.4069259" lon="11.623149"><ele>15.5</ele><time>2026-04-11T10:27:53.921Z</time></trkpt><trkpt lat="45.4068625" lon="11.6235557"><ele>15.0</ele><time>2026-04-11T10:27:54.921Z</time></trkpt><trkpt lat="45.4068049" lon="11.6239467"><ele>16.0</ele><time>2026-04-11T10:27:55.921Z</time></trkpt><trkpt lat="45.4067473" lon="11.6243064"><ele>17.0</ele><time>2026-04-11T10:27:56.921Z</time></trkpt><trkpt lat="45.4066914" lon="11.6246366"><ele>17.333333333333336</ele><time>2026-04-11T10:27:57.921Z</time></trkpt><trkpt lat="45.4066432" lon="11.6249376"><ele>17.666666666666668</ele><time>2026-04-11T10:27:58.921Z</time></trkpt><trkpt lat="45.4066111" lon="11.6252054"><ele>18.0</ele><time>2026-04-11T10:27:59.921Z</time></trkpt><trkpt lat="45.406577" lon="11.6254437"><ele>18.0</ele><time>2026-04-11T10:28:00.921Z</time></trkpt><trkpt lat="45.4065356" lon="11.6256469"><ele>18.0</ele><time>2026-04-11T10:28:01.921Z</time></trkpt><trkpt lat="45.4064783" lon="11.6258116"><ele>18.0</ele><time>2026-04-11T10:28:02.921Z</time></trkpt><trkpt lat="45.4064015" lon="11.6259389"><ele>18.0</ele><time>2026-04-11T10:28:03.921Z</time></trkpt><trkpt lat="45.4063039" lon="11.6260256"><ele>18.0</ele><time>2026-04-11T10:28:04.921Z</time></trkpt><trkpt lat="45.4061884" lon="11.6260682"><ele>18.0</ele><time>2026-04-11T10:28:05.921Z</time></trkpt><trkpt lat="45.40606" lon="11.6260711"><ele>18.0</ele><time>2026-04-11T10:28:06.921Z</time></trkpt><trkpt lat="45.4059219" lon="11.6260514"><ele>18.0</ele><time>2026-04-11T10:28:07.921Z</time></trkpt><trkpt lat="45.4057732" lon="11.6260263"><ele>18.0</ele><time>2026-04-11T10:28:08.921Z</time></trkpt><trkpt lat="45.4056156" lon="11.6260012"><ele>18.0</ele><time>2026-04-11T10:28:09.921Z</time></trkpt><trkpt lat="45.405448" lon="11.6259802"><ele>18.0</ele><time>2026-04-11T10:28:10.921Z</time></trkpt><trkpt lat="45.4052729" lon="11.6259516"><ele>18.0</ele><time>2026-04-11T10:28:11.921Z</time></trkpt><trkpt lat="45.405091" lon="11.6259313"><ele>18.0</ele><time>2026-04-11T10:28:12.921Z</time></trkpt><trkpt lat="45.4049061" lon="11.6259131"><ele>18.0</ele><time>2026-04-11T10:28:13.921Z</time></trkpt><trkpt lat="45.4047195" lon="11.6258961"><ele>17.666666666666668</ele><time>2026-04-11T10:28:14.921Z</time></trkpt><trkpt lat="45.4045275" lon="11.6258939"><ele>17.333333333333336</ele><time>2026-04-11T10:28:15.921Z</time></trkpt><trkpt lat="45.4043312" lon="11.6259157"><ele>17.0</ele><time>2026-04-11T10:28:16.921Z</time></trkpt><trkpt lat="45.4041307" lon="11.6259387"><ele>17.0</ele><time>2026-04-11T10:28:17.921Z</time></trkpt><trkpt lat="45.403928" lon="11.6259586"><ele>17.0</ele><time>2026-04-11T10:28:18.921Z</time></trkpt><trkpt lat="45.4037242" lon="11.6259868"><ele>17.0</ele><time>2026-04-11T10:28:19.921Z</time></trkpt><trkpt lat="45.4035286" lon="11.6260148"><ele>17.333333333333336</ele><time>2026-04-11T10:28:20.921Z</time></trkpt><trkpt lat="45.4033415" lon="11.6260348"><ele>17.666666666666668</ele><time>2026-04-11T10:28:21.921Z</time></trkpt><trkpt lat="45.403166" lon="11.6260515"><ele>18.0</ele><time>2026-04-11T10:28:22.921Z</time></trkpt><trkpt lat="45.4030042" lon="11.6260687"><ele>17.75</ele><time>2026-04-11T10:28:23.921Z</time></trkpt><trkpt lat="45.4028734" lon="11.6260764"><ele>17.5</ele><time>2026-04-11T10:28:24.921Z</time></trkpt><trkpt lat="45.402754" lon="11.626079"><ele>17.25</ele><time>2026-04-11T10:28:25.921Z</time></trkpt><trkpt lat="45.4026405" lon="11.6260737"><ele>17.0</ele><time>2026-04-11T10:28:26.921Z</time></trkpt><trkpt lat="45.402536" lon="11.6260665"><ele>17.0</ele><time>2026-04-11T10:28:27.921Z</time></trkpt><trkpt lat="45.4024377" lon="11.6260463"><ele>17.0</ele><time>2026-04-11T10:28:28.921Z</time></trkpt><trkpt lat="45.4023436" lon="11.6260381"><ele>17.0</ele><time>2026-04-11T10:28:29.921Z</time></trkpt><trkpt lat="45.4022561" lon="11.6260431"><ele>17.0</ele><time>2026-04-11T10:28:30.921Z</time></trkpt><trkpt lat="45.4021846" lon="11.6260838"><ele>17.0</ele><time>2026-04-11T10:28:31.921Z</time></trkpt><trkpt lat="45.4021341" lon="11.6261657"><ele>17.0</ele><time>2026-04-11T10:28:32.921Z</time></trkpt><trkpt lat="45.4021121" lon="11.6262743"><ele>17.0</ele><time>2026-04-11T10:28:33.921Z</time></trkpt><trkpt lat="45.4020999" lon="11.626403"><ele>17.0</ele><time>2026-04-11T10:28:34.921Z</time></trkpt><trkpt lat="45.4020955" lon="11.6265461"><ele>17.0</ele><time>2026-04-11T10:28:35.921Z</time></trkpt><trkpt lat="45.4020948" lon="11.6267022"><ele>17.0</ele><time>2026-04-11T10:28:36.921Z</time></trkpt><trkpt lat="45.4020953" lon="11.6268886"><ele>17.0</ele><time>2026-04-11T10:28:37.921Z</time></trkpt><trkpt lat="45.4020949" lon="11.6271081"><ele>17.0</ele><time>2026-04-11T10:28:38.921Z</time></trkpt><trkpt lat="45.4020956" lon="11.627362"><ele>17.0</ele><time>2026-04-11T10:28:39.92Z</time></trkpt><trkpt lat="45.402102" lon="11.6276503"><ele>17.0</ele><time>2026-04-11T10:28:40.921Z</time></trkpt><trkpt lat="45.4021115" lon="11.6279655"><ele>17.0</ele><time>2026-04-11T10:28:41.921Z</time></trkpt><trkpt lat="45.4021157" lon="11.6282965"><ele>17.0</ele><time>2026-04-11T10:28:42.921Z</time></trkpt><trkpt lat="45.4021083" lon="11.6286388"><ele>16.5</ele><time>2026-04-11T10:28:43.921Z</time></trkpt><trkpt lat="45.4020916" lon="11.628994"><ele>16.0</ele><time>2026-04-11T10:28:44.921Z</time></trkpt><trkpt lat="45.4020663" lon="11.6293497"><ele>15.5</ele><time>2026-04-11T10:28:45.921Z</time></trkpt><trkpt lat="45.4020251" lon="11.6297046"><ele>15.0</ele><time>2026-04-11T10:28:46.921Z</time></trkpt><trkpt lat="45.4019819" lon="11.6300425"><ele>14.5</ele><time>2026-04-11T10:28:47.921Z</time></trkpt><trkpt lat="45.4019486" lon="11.6303564"><ele>14.0</ele><time>2026-04-11T10:28:48.921Z</time></trkpt><trkpt lat="45.4019077" lon="11.6306784"><ele>14.0</ele><time>2026-04-11T10:28:49.921Z</time></trkpt><trkpt lat="45.4018703" lon="11.6309519"><ele>14.0</ele><time>2026-04-11T10:28:50.921Z</time></trkpt><trkpt lat="45.4018336" lon="11.6312413"><ele>14.0</ele><time>2026-04-11T10:28:51.921Z</time></trkpt><trkpt lat="45.4017992" lon="11.6315332"><ele>13.666666666666668</ele><time>2026-04-11T10:28:52.921Z</time></trkpt><trkpt lat="45.4017634" lon="11.631823"><ele>13.333333333333332</ele><time>2026-04-11T10:28:53.921Z</time></trkpt><trkpt lat="45.4017275" lon="11.6321156"><ele>13.0</ele><time>2026-04-11T10:28:54.921Z</time></trkpt><trkpt lat="45.4016933" lon="11.632399"><ele>14.0</ele><time>2026-04-11T10:28:55.921Z</time></trkpt><trkpt lat="45.4016624" lon="11.6326782"><ele>15.0</ele><time>2026-04-11T10:28:56.921Z</time></trkpt><trkpt lat="45.4016305" lon="11.6329519"><ele>16.0</ele><time>2026-04-11T10:28:57.921Z</time></trkpt><trkpt lat="45.4016002" lon="11.6332192"><ele>16.0</ele><time>2026-04-11T10:28:58.921Z</time></trkpt><trkpt lat="45.4015659" lon="11.6334758"><ele>16.0</ele><time>2026-04-11T10:28:59.921Z</time></trkpt><trkpt lat="45.4015336" lon="11.6337228"><ele>16.0</ele><time>2026-04-11T10:29:00.921Z</time></trkpt><trkpt lat="45.4014986" lon="11.6339503"><ele>16.0</ele><time>2026-04-11T10:29:01.921Z</time></trkpt><trkpt lat="45.4014609" lon="11.6341588"><ele>16.0</ele><time>2026-04-11T10:29:02.921Z</time></trkpt><trkpt lat="45.4014092" lon="11.6343529"><ele>16.0</ele><time>2026-04-11T10:29:03.921Z</time></trkpt><trkpt lat="45.4013374" lon="11.6345236"><ele>16.0</ele><time>2026-04-11T10:29:04.921Z</time></trkpt><trkpt lat="45.4012427" lon="11.6346824"><ele>16.666666666666664</ele><time>2026-04-11T10:29:05.921Z</time></trkpt><trkpt lat="45.4011359" lon="11.6348337"><ele>17.333333333333332</ele><time>2026-04-11T10:29:06.921Z</time></trkpt><trkpt lat="45.4010269" lon="11.6349874"><ele>18.0</ele><time>2026-04-11T10:29:07.921Z</time></trkpt><trkpt lat="45.400914" lon="11.6351469"><ele>18.0</ele><time>2026-04-11T10:29:08.92Z</time></trkpt><trkpt lat="45.4008006" lon="11.6353079"><ele>18.0</ele><time>2026-04-11T10:29:09.921Z</time></trkpt><trkpt lat="45.4006857" lon="11.635477"><ele>18.0</ele><time>2026-04-11T10:29:10.921Z</time></trkpt><trkpt lat="45.4005642" lon="11.6356504"><ele>17.666666666666668</ele><time>2026-04-11T10:29:11.921Z</time></trkpt><trkpt lat="45.4004461" lon="11.6358252"><ele>17.333333333333336</ele><time>2026-04-11T10:29:12.921Z</time></trkpt><trkpt lat="45.4003272" lon="11.6360036"><ele>17.0</ele><time>2026-04-11T10:29:13.921Z</time></trkpt><trkpt lat="45.4002083" lon="11.6361817"><ele>17.0</ele><time>2026-04-11T10:29:14.921Z</time></trkpt><trkpt lat="45.4000896" lon="11.6363583"><ele>17.0</ele><time>2026-04-11T10:29:15.921Z</time></trkpt><trkpt lat="45.3999686" lon="11.6365436"><ele>17.0</ele><time>2026-04-11T10:29:16.921Z</time></trkpt><trkpt lat="45.3998453" lon="11.6367293"><ele>17.0</ele><time>2026-04-11T10:29:17.921Z</time></trkpt><trkpt lat="45.3997196" lon="11.6369158"><ele>17.0</ele><time>2026-04-11T10:29:18.921Z</time></trkpt><trkpt lat="45.3995913" lon="11.6371054"><ele>17.0</ele><time>2026-04-11T10:29:19.921Z</time></trkpt><trkpt lat="45.3994615" lon="11.6372966"><ele>17.0</ele><time>2026-04-11T10:29:20.921Z</time></trkpt><trkpt lat="45.3993347" lon="11.6374889"><ele>17.0</ele><time>2026-04-11T10:29:21.921Z</time></trkpt><trkpt lat="45.3992067" lon="11.6376788"><ele>17.0</ele><time>2026-04-11T10:29:22.921Z</time></trkpt><trkpt lat="45.3990779" lon="11.6378714"><ele>16.666666666666668</ele><time>2026-04-11T10:29:23.921Z</time></trkpt><trkpt lat="45.3989464" lon="11.6380668"><ele>16.333333333333332</ele><time>2026-04-11T10:29:24.921Z</time></trkpt><trkpt lat="45.398815" lon="11.6382611"><ele>16.0</ele><time>2026-04-11T10:29:25.921Z</time></trkpt><trkpt lat="45.3986823" lon="11.6384523"><ele>16.0</ele><time>2026-04-11T10:29:26.92Z</time></trkpt><trkpt lat="45.3985499" lon="11.6386462"><ele>16.0</ele><time>2026-04-11T10:29:27.921Z</time></trkpt><trkpt lat="45.3984176" lon="11.6388348"><ele>16.0</ele><time>2026-04-11T10:29:28.921Z</time></trkpt><trkpt lat="45.3982893" lon="11.6390238"><ele>16.0</ele><time>2026-04-11T10:29:29.921Z</time></trkpt><trkpt lat="45.3981616" lon="11.6392067"><ele>16.0</ele><time>2026-04-11T10:29:30.921Z</time></trkpt><trkpt lat="45.3980363" lon="11.6393965"><ele>16.0</ele><time>2026-04-11T10:29:31.92Z</time></trkpt><trkpt lat="45.3979121" lon="11.6395834"><ele>16.666666666666664</ele><time>2026-04-11T10:29:32.921Z</time></trkpt><trkpt lat="45.3977854" lon="11.6397685"><ele>17.333333333333332</ele><time>2026-04-11T10:29:33.921Z</time></trkpt><trkpt lat="45.397659" lon="11.6399552"><ele>18.0</ele><time>2026-04-11T10:29:34.92Z</time></trkpt><trkpt lat="45.3975326" lon="11.6401404"><ele>18.666666666666668</ele><time>2026-04-11T10:29:35.921Z</time></trkpt><trkpt lat="45.3974126" lon="11.6403303"><ele>19.333333333333336</ele><time>2026-04-11T10:29:36.92Z</time></trkpt><trkpt lat="45.3972947" lon="11.6405271"><ele>20.0</ele><time>2026-04-11T10:29:37.921Z</time></trkpt><trkpt lat="45.3971816" lon="11.6407211"><ele>20.0</ele><time>2026-04-11T10:29:38.921Z</time></trkpt><trkpt lat="45.397069" lon="11.640918"><ele>20.0</ele><time>2026-04-11T10:29:39.921Z</time></trkpt><trkpt lat="45.3969566" lon="11.6411089"><ele>20.0</ele><time>2026-04-11T10:29:40.921Z</time></trkpt><trkpt lat="45.3968416" lon="11.6413019"><ele>20.0</ele><time>2026-04-11T10:29:41.921Z</time></trkpt><trkpt lat="45.3967241" lon="11.6414954"><ele>20.0</ele><time>2026-04-11T10:29:42.921Z</time></trkpt><trkpt lat="45.3966081" lon="11.6416932"><ele>20.0</ele><time>2026-04-11T10:29:43.921Z</time></trkpt><trkpt lat="45.3964945" lon="11.6418858"><ele>19.0</ele><time>2026-04-11T10:29:44.92Z</time></trkpt><trkpt lat="45.3963824" lon="11.6420755"><ele>18.0</ele><time>2026-04-11T10:29:45.921Z</time></trkpt><trkpt lat="45.3962739" lon="11.6422571"><ele>17.0</ele><time>2026-04-11T10:29:46.921Z</time></trkpt><trkpt lat="45.3961562" lon="11.6424501"><ele>16.666666666666668</ele><time>2026-04-11T10:29:47.921Z</time></trkpt><trkpt lat="45.3960419" lon="11.6426433"><ele>16.333333333333332</ele><time>2026-04-11T10:29:48.921Z</time></trkpt><trkpt lat="45.3959263" lon="11.6428399"><ele>16.0</ele><time>2026-04-11T10:29:49.921Z</time></trkpt><trkpt lat="45.3958104" lon="11.6430381"><ele>16.0</ele><time>2026-04-11T10:29:50.92Z</time></trkpt><trkpt lat="45.3956928" lon="11.6432366"><ele>16.0</ele><time>2026-04-11T10:29:51.921Z</time></trkpt><trkpt lat="45.3955786" lon="11.6434354"><ele>16.0</ele><time>2026-04-11T10:29:52.921Z</time></trkpt><trkpt lat="45.3954612" lon="11.6436354"><ele>16.666666666666664</ele><time>2026-04-11T10:29:53.921Z</time></trkpt><trkpt lat="45.3953454" lon="11.6438421"><ele>17.333333333333332</ele><time>2026-04-11T10:29:54.921Z</time></trkpt><trkpt lat="45.3952206" lon="11.6440642"><ele>18.0</ele><time>2026-04-11T10:29:55.921Z</time></trkpt><trkpt lat="45.3950795" lon="11.6443025"><ele>17.5</ele><time>2026-04-11T10:29:56.921Z</time></trkpt><trkpt lat="45.394928" lon="11.64455"><ele>17.0</ele><time>2026-04-11T10:29:57.921Z</time></trkpt><trkpt lat="45.3947792" lon="11.6448012"><ele>16.5</ele><time>2026-04-11T10:29:58.921Z</time></trkpt><trkpt lat="45.3946376" lon="11.6450508"><ele>16.0</ele><time>2026-04-11T10:29:59.921Z</time></trkpt><trkpt lat="45.3944942" lon="11.6452969"><ele>16.0</ele><time>2026-04-11T10:30:00.921Z</time></trkpt><trkpt lat="45.3943574" lon="11.6455336"><ele>16.0</ele><time>2026-04-11T10:30:01.921Z</time></trkpt><trkpt lat="45.3942194" lon="11.645765"><ele>16.0</ele><time>2026-04-11T10:30:02.921Z</time></trkpt><trkpt lat="45.3940901" lon="11.6459968"><ele>16.0</ele><time>2026-04-11T10:30:03.921Z</time></trkpt><trkpt lat="45.3939586" lon="11.6462207"><ele>16.0</ele><time>2026-04-11T10:30:04.921Z</time></trkpt><trkpt lat="45.3938254" lon="11.6464354"><ele>16.0</ele><time>2026-04-11T10:30:05.921Z</time></trkpt><trkpt lat="45.3936978" lon="11.6466513"><ele>16.0</ele><time>2026-04-11T10:30:06.92Z</time></trkpt><trkpt lat="45.3935733" lon="11.6468733"><ele>16.0</ele><time>2026-04-11T10:30:07.921Z</time></trkpt><trkpt lat="45.3934465" lon="11.6470891"><ele>16.0</ele><time>2026-04-11T10:30:08.92Z</time></trkpt><trkpt lat="45.3933215" lon="11.6473048"><ele>16.0</ele><time>2026-04-11T10:30:09.921Z</time></trkpt><trkpt lat="45.3931978" lon="11.647518"><ele>16.0</ele><time>2026-04-11T10:30:10.921Z</time></trkpt><trkpt lat="45.3930729" lon="11.6477329"><ele>16.0</ele><time>2026-04-11T10:30:11.921Z</time></trkpt><trkpt lat="45.3929484" lon="11.6479431"><ele>16.0</ele><time>2026-04-11T10:30:12.921Z</time></trkpt><trkpt lat="45.3928274" lon="11.6481484"><ele>16.0</ele><time>2026-04-11T10:30:13.921Z</time></trkpt><trkpt lat="45.3927124" lon="11.6483455"><ele>16.0</ele><time>2026-04-11T10:30:14.921Z</time></trkpt><trkpt lat="45.3925948" lon="11.6485432"><ele>16.0</ele><time>2026-04-11T10:30:15.921Z</time></trkpt><trkpt lat="45.3924807" lon="11.6487343"><ele>16.0</ele><time>2026-04-11T10:30:16.921Z</time></trkpt><trkpt lat="45.3923701" lon="11.6489216"><ele>16.0</ele><time>2026-04-11T10:30:17.921Z</time></trkpt><trkpt lat="45.3922714" lon="11.6490901"><ele>16.0</ele><time>2026-04-11T10:30:18.921Z</time></trkpt><trkpt lat="45.3921783" lon="11.6492532"><ele>16.0</ele><time>2026-04-11T10:30:19.921Z</time></trkpt><trkpt lat="45.3920867" lon="11.6494097"><ele>16.0</ele><time>2026-04-11T10:30:20.921Z</time></trkpt><trkpt lat="45.3919923" lon="11.6495622"><ele>16.0</ele><time>2026-04-11T10:30:21.921Z</time></trkpt><trkpt lat="45.3919003" lon="11.6497128"><ele>16.0</ele><time>2026-04-11T10:30:22.921Z</time></trkpt><trkpt lat="45.3918069" lon="11.6498798"><ele>16.0</ele><time>2026-04-11T10:30:23.921Z</time></trkpt><trkpt lat="45.3917114" lon="11.6500584"><ele>16.0</ele><time>2026-04-11T10:30:24.921Z</time></trkpt><trkpt lat="45.3916052" lon="11.650235"><ele>16.0</ele><time>2026-04-11T10:30:25.921Z</time></trkpt><trkpt lat="45.3914991" lon="11.6504123"><ele>16.0</ele><time>2026-04-11T10:30:26.921Z</time></trkpt><trkpt lat="45.3913978" lon="11.6505863"><ele>16.0</ele><time>2026-04-11T10:30:27.921Z</time></trkpt><trkpt lat="45.3912929" lon="11.6507495"><ele>16.0</ele><time>2026-04-11T10:30:28.921Z</time></trkpt><trkpt lat="45.3911896" lon="11.6508941"><ele>16.0</ele><time>2026-04-11T10:30:29.921Z</time></trkpt><trkpt lat="45.3910728" lon="11.6510132"><ele>16.0</ele><time>2026-04-11T10:30:30.921Z</time></trkpt><trkpt lat="45.3909442" lon="11.6511094"><ele>16.0</ele><time>2026-04-11T10:30:31.921Z</time></trkpt><trkpt lat="45.3908063" lon="11.6511783"><ele>15.666666666666666</ele><time>2026-04-11T10:30:32.921Z</time></trkpt><trkpt lat="45.390659" lon="11.6512122"><ele>15.333333333333332</ele><time>2026-04-11T10:30:33.921Z</time></trkpt><trkpt lat="45.3905079" lon="11.6512259"><ele>15.0</ele><time>2026-04-11T10:30:34.921Z</time></trkpt><trkpt lat="45.3903565" lon="11.6512257"><ele>14.75</ele><time>2026-04-11T10:30:35.921Z</time></trkpt><trkpt lat="45.3902036" lon="11.6512169"><ele>14.5</ele><time>2026-04-11T10:30:36.92Z</time></trkpt><trkpt lat="45.3900573" lon="11.6512008"><ele>14.25</ele><time>2026-04-11T10:30:37.921Z</time></trkpt><trkpt lat="45.3899151" lon="11.6511812"><ele>14.0</ele><time>2026-04-11T10:30:38.921Z</time></trkpt><trkpt lat="45.3897784" lon="11.6511605"><ele>14.25</ele><time>2026-04-11T10:30:39.921Z</time></trkpt><trkpt lat="45.3896426" lon="11.651138"><ele>14.5</ele><time>2026-04-11T10:30:40.92Z</time></trkpt><trkpt lat="45.3895148" lon="11.6511217"><ele>14.75</ele><time>2026-04-11T10:30:41.921Z</time></trkpt><trkpt lat="45.3893919" lon="11.6510957"><ele>15.0</ele><time>2026-04-11T10:30:42.921Z</time></trkpt><trkpt lat="45.3892701" lon="11.651075"><ele>15.0</ele><time>2026-04-11T10:30:43.921Z</time></trkpt><trkpt lat="45.3891515" lon="11.6510626"><ele>15.0</ele><time>2026-04-11T10:30:44.921Z</time></trkpt><trkpt lat="45.3890335" lon="11.6510483"><ele>15.0</ele><time>2026-04-11T10:30:45.921Z</time></trkpt><trkpt lat="45.3889172" lon="11.6510374"><ele>15.0</ele><time>2026-04-11T10:30:46.921Z</time></trkpt><trkpt lat="45.3887973" lon="11.6510271"><ele>15.25</ele><time>2026-04-11T10:30:47.921Z</time></trkpt><trkpt lat="45.3886779" lon="11.6510105"><ele>15.5</ele><time>2026-04-11T10:30:48.921Z</time></trkpt><trkpt lat="45.3885614" lon="11.6509908"><ele>15.75</ele><time>2026-04-11T10:30:49.921Z</time></trkpt><trkpt lat="45.3884395" lon="11.6509747"><ele>16.0</ele><time>2026-04-11T10:30:50.921Z</time></trkpt><trkpt lat="45.3883142" lon="11.6509686"><ele>16.0</ele><time>2026-04-11T10:30:51.921Z</time></trkpt><trkpt lat="45.3881878" lon="11.6509746"><ele>16.0</ele><time>2026-04-11T10:30:52.921Z</time></trkpt><trkpt lat="45.3880578" lon="11.6509833"><ele>16.0</ele><time>2026-04-11T10:30:53.921Z</time></trkpt><trkpt lat="45.3879271" lon="11.6509994"><ele>16.0</ele><time>2026-04-11T10:30:54.92Z</time></trkpt><trkpt lat="45.387798" lon="11.6510113"><ele>16.0</ele><time>2026-04-11T10:30:55.921Z</time></trkpt><trkpt lat="45.3876647" lon="11.6510282"><ele>16.0</ele><time>2026-04-11T10:30:56.921Z</time></trkpt><trkpt lat="45.3875248" lon="11.6510424"><ele>16.0</ele><time>2026-04-11T10:30:57.921Z</time></trkpt><trkpt lat="45.38739" lon="11.6510588"><ele>16.0</ele><time>2026-04-11T10:30:58.921Z</time></trkpt><trkpt lat="45.3872484" lon="11.6510731"><ele>16.25</ele><time>2026-04-11T10:30:59.921Z</time></trkpt><trkpt lat="45.387113" lon="11.6510835"><ele>16.5</ele><time>2026-04-11T10:31:00.921Z</time></trkpt><trkpt lat="45.3869806" lon="11.6510909"><ele>16.75</ele><time>2026-04-11T10:31:01.921Z</time></trkpt><trkpt lat="45.3868505" lon="11.6510959"><ele>17.0</ele><time>2026-04-11T10:31:02.921Z</time></trkpt><trkpt lat="45.3867191" lon="11.6511015"><ele>17.0</ele><time>2026-04-11T10:31:03.921Z</time></trkpt><trkpt lat="45.3865898" lon="11.6511121"><ele>17.0</ele><time>2026-04-11T10:31:04.921Z</time></trkpt><trkpt lat="45.3864682" lon="11.6511254"><ele>17.0</ele><time>2026-04-11T10:31:05.92Z</time></trkpt><trkpt lat="45.3863594" lon="11.6511433"><ele>17.0</ele><time>2026-04-11T10:31:06.921Z</time></trkpt><trkpt lat="45.3862503" lon="11.6511773"><ele>17.25</ele><time>2026-04-11T10:31:07.921Z</time></trkpt><trkpt lat="45.3861433" lon="11.6512352"><ele>17.5</ele><time>2026-04-11T10:31:08.921Z</time></trkpt><trkpt lat="45.3860384" lon="11.6513011"><ele>17.75</ele><time>2026-04-11T10:31:09.921Z</time></trkpt><trkpt lat="45.3859295" lon="11.6513666"><ele>18.0</ele><time>2026-04-11T10:31:10.921Z</time></trkpt><trkpt lat="45.3858206" lon="11.6514346"><ele>18.0</ele><time>2026-04-11T10:31:11.921Z</time></trkpt><trkpt lat="45.3857187" lon="11.6515023"><ele>18.0</ele><time>2026-04-11T10:31:12.921Z</time></trkpt><trkpt lat="45.3856367" lon="11.6515552"><ele>18.0</ele><time>2026-04-11T10:31:13.92Z</time></trkpt><trkpt lat="45.3855688" lon="11.6516014"><ele>18.0</ele><time>2026-04-11T10:31:14.921Z</time></trkpt><trkpt lat="45.385477" lon="11.6516429"><ele>18.0</ele><time>2026-04-11T10:31:16.92Z</time></trkpt><trkpt lat="45.3854053" lon="11.6516822"><ele>18.0</ele><time>2026-04-11T10:31:20.921Z</time></trkpt><trkpt lat="45.3853685" lon="11.6517641"><ele>18.0</ele><time>2026-04-11T10:31:22.921Z</time></trkpt><trkpt lat="45.3853818" lon="11.651875"><ele>18.0</ele><time>2026-04-11T10:31:24.921Z</time></trkpt><trkpt lat="45.3854459" lon="11.6520129"><ele>18.0</ele><time>2026-04-11T10:31:26.92Z</time></trkpt><trkpt lat="45.3855083" lon="11.6521526"><ele>18.0</ele><time>2026-04-11T10:31:28.921Z</time></trkpt><trkpt lat="45.3855627" lon="11.652282"><ele>18.0</ele><time>2026-04-11T10:31:30.921Z</time></trkpt><trkpt lat="45.3855701" lon="11.652426"><ele>18.0</ele><time>2026-04-11T10:31:32.921Z</time></trkpt><trkpt lat="45.3855483" lon="11.6525775"><ele>18.0</ele><time>2026-04-11T10:31:34.921Z</time></trkpt><trkpt lat="45.3855916" lon="11.6527096"><ele>18.0</ele><time>2026-04-11T10:31:36.921Z</time></trkpt><trkpt lat="45.3857005" lon="11.6527727"><ele>18.0</ele><time>2026-04-11T10:31:38.921Z</time></trkpt><trkpt lat="45.3857783" lon="11.6528068"><ele>17.6</ele><time>2026-04-11T10:31:39.921Z</time></trkpt><trkpt lat="45.3858467" lon="11.6528567"><ele>17.200000000000003</ele><time>2026-04-11T10:31:40.921Z</time></trkpt><trkpt lat="45.3859578" lon="11.6529356"><ele>16.8</ele><time>2026-04-11T10:31:41.92Z</time></trkpt><trkpt lat="45.3860563" lon="11.6530115"><ele>16.400000000000002</ele><time>2026-04-11T10:31:42.921Z</time></trkpt><trkpt lat="45.3861583" lon="11.6530838"><ele>16.0</ele><time>2026-04-11T10:31:43.921Z</time></trkpt><trkpt lat="45.3862665" lon="11.6531835"><ele>16.5</ele><time>2026-04-11T10:31:44.921Z</time></trkpt><trkpt lat="45.3863764" lon="11.6532792"><ele>17.0</ele><time>2026-04-11T10:31:45.921Z</time></trkpt><trkpt lat="45.3864884" lon="11.6533739"><ele>17.5</ele><time>2026-04-11T10:31:46.921Z</time></trkpt><trkpt lat="45.3865994" lon="11.6534643"><ele>18.0</ele><time>2026-04-11T10:31:47.921Z</time></trkpt><trkpt lat="45.3867118" lon="11.6535562"><ele>17.75</ele><time>2026-04-11T10:31:48.921Z</time></trkpt><trkpt lat="45.3868179" lon="11.6536496"><ele>17.5</ele><time>2026-04-11T10:31:49.921Z</time></trkpt><trkpt lat="45.3869282" lon="11.6537496"><ele>17.25</ele><time>2026-04-11T10:31:50.921Z</time></trkpt><trkpt lat="45.3870353" lon="11.6538427"><ele>17.0</ele><time>2026-04-11T10:31:51.921Z</time></trkpt><trkpt lat="45.3871448" lon="11.6539362"><ele>17.25</ele><time>2026-04-11T10:31:52.921Z</time></trkpt><trkpt lat="45.3872478" lon="11.6540323"><ele>17.5</ele><time>2026-04-11T10:31:53.921Z</time></trkpt><trkpt lat="45.3873498" lon="11.654129"><ele>17.75</ele><time>2026-04-11T10:31:54.921Z</time></trkpt><trkpt lat="45.3874532" lon="11.6542265"><ele>18.0</ele><time>2026-04-11T10:31:55.921Z</time></trkpt><trkpt lat="45.3875496" lon="11.6543169"><ele>18.0</ele><time>2026-04-11T10:31:56.921Z</time></trkpt><trkpt lat="45.3876444" lon="11.6543998"><ele>18.0</ele><time>2026-04-11T10:31:57.92Z</time></trkpt><trkpt lat="45.3877418" lon="11.6544879"><ele>18.0</ele><time>2026-04-11T10:31:58.92Z</time></trkpt><trkpt lat="45.3878585" lon="11.6545914"><ele>18.0</ele><time>2026-04-11T10:31:59.921Z</time></trkpt><trkpt lat="45.3879979" lon="11.6547153"><ele>17.666666666666668</ele><time>2026-04-11T10:32:00.921Z</time></trkpt><trkpt lat="45.3881377" lon="11.6548612"><ele>17.333333333333336</ele><time>2026-04-11T10:32:01.921Z</time></trkpt><trkpt lat="45.3882725" lon="11.655009"><ele>17.0</ele><time>2026-04-11T10:32:02.921Z</time></trkpt><trkpt lat="45.3883926" lon="11.655145"><ele>17.0</ele><time>2026-04-11T10:32:03.921Z</time></trkpt><trkpt lat="45.3885063" lon="11.6552668"><ele>17.0</ele><time>2026-04-11T10:32:04.921Z</time></trkpt><trkpt lat="45.3886084" lon="11.6553732"><ele>17.0</ele><time>2026-04-11T10:32:05.921Z</time></trkpt><trkpt lat="45.388699" lon="11.6554708"><ele>17.0</ele><time>2026-04-11T10:32:06.921Z</time></trkpt><trkpt lat="45.3887831" lon="11.6555527"><ele>16.6</ele><time>2026-04-11T10:32:07.921Z</time></trkpt><trkpt lat="45.3888622" lon="11.6556283"><ele>16.2</ele><time>2026-04-11T10:32:08.921Z</time></trkpt><trkpt lat="45.3889249" lon="11.6557187"><ele>15.8</ele><time>2026-04-11T10:32:09.921Z</time></trkpt><trkpt lat="45.3889751" lon="11.6558397"><ele>15.4</ele><time>2026-04-11T10:32:10.921Z</time></trkpt><trkpt lat="45.3890139" lon="11.6559676"><ele>15.0</ele><time>2026-04-11T10:32:11.921Z</time></trkpt><trkpt lat="45.3890694" lon="11.656066"><ele>14.833333333333334</ele><time>2026-04-11T10:32:12.921Z</time></trkpt><trkpt lat="45.3891398" lon="11.6561296"><ele>14.666666666666668</ele><time>2026-04-11T10:32:13.921Z</time></trkpt><trkpt lat="45.3892221" lon="11.6561808"><ele>14.5</ele><time>2026-04-11T10:32:14.921Z</time></trkpt><trkpt lat="45.3893022" lon="11.6561851"><ele>14.333333333333334</ele><time>2026-04-11T10:32:15.921Z</time></trkpt><trkpt lat="45.3893747" lon="11.6561931"><ele>14.166666666666668</ele><time>2026-04-11T10:32:16.921Z</time></trkpt><trkpt lat="45.3894657" lon="11.6562731"><ele>14.0</ele><time>2026-04-11T10:32:18.921Z</time></trkpt><trkpt lat="45.3895325" lon="11.6563388"><ele>14.0</ele><time>2026-04-11T10:32:19.921Z</time></trkpt><trkpt lat="45.3896221" lon="11.656428"><ele>14.0</ele><time>2026-04-11T10:32:20.921Z</time></trkpt><trkpt lat="45.3897265" lon="11.6565452"><ele>14.0</ele><time>2026-04-11T10:32:21.921Z</time></trkpt><trkpt lat="45.3898355" lon="11.656661"><ele>14.0</ele><time>2026-04-11T10:32:22.921Z</time></trkpt><trkpt lat="45.3899517" lon="11.6567949"><ele>14.0</ele><time>2026-04-11T10:32:23.921Z</time></trkpt><trkpt lat="45.3900678" lon="11.6569447"><ele>14.0</ele><time>2026-04-11T10:32:24.921Z</time></trkpt><trkpt lat="45.3901779" lon="11.6571123"><ele>14.0</ele><time>2026-04-11T10:32:25.921Z</time></trkpt><trkpt lat="45.3902816" lon="11.6572949"><ele>14.0</ele><time>2026-04-11T10:32:26.921Z</time></trkpt><trkpt lat="45.3903812" lon="11.65748"><ele>14.0</ele><time>2026-04-11T10:32:27.921Z</time></trkpt><trkpt lat="45.3904738" lon="11.6576666"><ele>14.0</ele><time>2026-04-11T10:32:28.921Z</time></trkpt><trkpt lat="45.3905677" lon="11.6578572"><ele>14.333333333333334</ele><time>2026-04-11T10:32:29.921Z</time></trkpt><trkpt lat="45.3906665" lon="11.6580533"><ele>14.666666666666668</ele><time>2026-04-11T10:32:30.921Z</time></trkpt><trkpt lat="45.3907652" lon="11.6582492"><ele>15.0</ele><time>2026-04-11T10:32:31.921Z</time></trkpt><trkpt lat="45.3908654" lon="11.6584446"><ele>15.333333333333332</ele><time>2026-04-11T10:32:32.921Z</time></trkpt><trkpt lat="45.3909661" lon="11.6586421"><ele>15.666666666666666</ele><time>2026-04-11T10:32:33.921Z</time></trkpt><trkpt lat="45.3910727" lon="11.658853"><ele>16.0</ele><time>2026-04-11T10:32:34.921Z</time></trkpt><trkpt lat="45.3911686" lon="11.6590433"><ele>16.0</ele><time>2026-04-11T10:32:35.921Z</time></trkpt><trkpt lat="45.391268" lon="11.6592327"><ele>16.0</ele><time>2026-04-11T10:32:36.92Z</time></trkpt><trkpt lat="45.3913635" lon="11.6594206"><ele>16.0</ele><time>2026-04-11T10:32:37.921Z</time></trkpt><trkpt lat="45.3914588" lon="11.6596141"><ele>15.666666666666666</ele><time>2026-04-11T10:32:38.921Z</time></trkpt><trkpt lat="45.3915564" lon="11.6598011"><ele>15.333333333333332</ele><time>2026-04-11T10:32:39.92Z</time></trkpt><trkpt lat="45.3916529" lon="11.6599934"><ele>15.0</ele><time>2026-04-11T10:32:40.921Z</time></trkpt><trkpt lat="45.3917487" lon="11.6601838"><ele>14.333333333333332</ele><time>2026-04-11T10:32:41.92Z</time></trkpt><trkpt lat="45.3918449" lon="11.660377"><ele>13.666666666666666</ele><time>2026-04-11T10:32:42.921Z</time></trkpt><trkpt lat="45.391939" lon="11.6605629"><ele>13.0</ele><time>2026-04-11T10:32:43.921Z</time></trkpt><trkpt lat="45.3920349" lon="11.6607534"><ele>13.0</ele><time>2026-04-11T10:32:44.921Z</time></trkpt><trkpt lat="45.3921283" lon="11.6609438"><ele>13.0</ele><time>2026-04-11T10:32:45.92Z</time></trkpt><trkpt lat="45.3922253" lon="11.6611305"><ele>13.0</ele><time>2026-04-11T10:32:46.921Z</time></trkpt><trkpt lat="45.392318" lon="11.6613219"><ele>13.666666666666666</ele><time>2026-04-11T10:32:47.921Z</time></trkpt><trkpt lat="45.3924079" lon="11.6615179"><ele>14.333333333333332</ele><time>2026-04-11T10:32:48.921Z</time></trkpt><trkpt lat="45.3924955" lon="11.6617087"><ele>15.0</ele><time>2026-04-11T10:32:49.921Z</time></trkpt><trkpt lat="45.3925816" lon="11.6619074"><ele>15.333333333333332</ele><time>2026-04-11T10:32:50.921Z</time></trkpt><trkpt lat="45.3926695" lon="11.6621029"><ele>15.666666666666666</ele><time>2026-04-11T10:32:51.921Z</time></trkpt><trkpt lat="45.3927554" lon="11.6622963"><ele>16.0</ele><time>2026-04-11T10:32:52.921Z</time></trkpt><trkpt lat="45.3928429" lon="11.6624935"><ele>16.0</ele><time>2026-04-11T10:32:53.921Z</time></trkpt><trkpt lat="45.3929302" lon="11.662696"><ele>16.0</ele><time>2026-04-11T10:32:54.921Z</time></trkpt><trkpt lat="45.3930154" lon="11.6628957"><ele>16.0</ele><time>2026-04-11T10:32:55.921Z</time></trkpt><trkpt lat="45.3931039" lon="11.6630981"><ele>16.666666666666664</ele><time>2026-04-11T10:32:56.92Z</time></trkpt><trkpt lat="45.3931956" lon="11.6632987"><ele>17.333333333333332</ele><time>2026-04-11T10:32:57.921Z</time></trkpt><trkpt lat="45.3932802" lon="11.6635057"><ele>18.0</ele><time>2026-04-11T10:32:58.921Z</time></trkpt><trkpt lat="45.3933684" lon="11.6637053"><ele>18.333333333333332</ele><time>2026-04-11T10:32:59.921Z</time></trkpt><trkpt lat="45.3934547" lon="11.6639074"><ele>18.666666666666664</ele><time>2026-04-11T10:33:00.921Z</time></trkpt><trkpt lat="45.3935367" lon="11.66409"><ele>19.0</ele><time>2026-04-11T10:33:01.921Z</time></trkpt><trkpt lat="45.3936091" lon="11.6642703"><ele>19.5</ele><time>2026-04-11T10:33:02.921Z</time></trkpt><trkpt lat="45.3936696" lon="11.6644571"><ele>20.0</ele><time>2026-04-11T10:33:03.921Z</time></trkpt><trkpt lat="45.3937158" lon="11.6646546"><ele>20.5</ele><time>2026-04-11T10:33:04.921Z</time></trkpt><trkpt lat="45.3937492" lon="11.6648579"><ele>21.0</ele><time>2026-04-11T10:33:05.921Z</time></trkpt><trkpt lat="45.3937682" lon="11.6650656"><ele>21.0</ele><time>2026-04-11T10:33:06.921Z</time></trkpt><trkpt lat="45.3937774" lon="11.6652797"><ele>21.0</ele><time>2026-04-11T10:33:07.921Z</time></trkpt><trkpt lat="45.3937777" lon="11.6654922"><ele>21.0</ele><time>2026-04-11T10:33:08.921Z</time></trkpt><trkpt lat="45.3937796" lon="11.6657027"><ele>21.0</ele><time>2026-04-11T10:33:09.921Z</time></trkpt><trkpt lat="45.3937863" lon="11.6659136"><ele>20.75</ele><time>2026-04-11T10:33:10.92Z</time></trkpt><trkpt lat="45.3937963" lon="11.6661224"><ele>20.5</ele><time>2026-04-11T10:33:11.921Z</time></trkpt><trkpt lat="45.3938074" lon="11.6663351"><ele>20.25</ele><time>2026-04-11T10:33:12.921Z</time></trkpt><trkpt lat="45.3938161" lon="11.6665472"><ele>20.0</ele><time>2026-04-11T10:33:13.921Z</time></trkpt><trkpt lat="45.3938222" lon="11.6667613"><ele>20.666666666666668</ele><time>2026-04-11T10:33:14.921Z</time></trkpt><trkpt lat="45.3938283" lon="11.6669746"><ele>21.333333333333332</ele><time>2026-04-11T10:33:15.921Z</time></trkpt><trkpt lat="45.3938406" lon="11.6671843"><ele>22.0</ele><time>2026-04-11T10:33:16.921Z</time></trkpt><trkpt lat="45.3938529" lon="11.6674005"><ele>19.666666666666664</ele><time>2026-04-11T10:33:17.921Z</time></trkpt><trkpt lat="45.3938621" lon="11.6676135"><ele>17.333333333333332</ele><time>2026-04-11T10:33:18.921Z</time></trkpt><trkpt lat="45.3938713" lon="11.6678281"><ele>15.0</ele><time>2026-04-11T10:33:19.921Z</time></trkpt><trkpt lat="45.3938792" lon="11.6680439"><ele>15.0</ele><time>2026-04-11T10:33:20.921Z</time></trkpt><trkpt lat="45.39389" lon="11.6682564"><ele>15.0</ele><time>2026-04-11T10:33:21.921Z</time></trkpt><trkpt lat="45.3938987" lon="11.668471"><ele>15.0</ele><time>2026-04-11T10:33:22.921Z</time></trkpt><trkpt lat="45.3939099" lon="11.6686845"><ele>15.0</ele><time>2026-04-11T10:33:23.921Z</time></trkpt><trkpt lat="45.3939183" lon="11.668899"><ele>15.0</ele><time>2026-04-11T10:33:24.921Z</time></trkpt><trkpt lat="45.3939295" lon="11.6691118"><ele>15.0</ele><time>2026-04-11T10:33:25.921Z</time></trkpt><trkpt lat="45.3939392" lon="11.6693203"><ele>15.0</ele><time>2026-04-11T10:33:26.921Z</time></trkpt><trkpt lat="45.3939455" lon="11.6695208"><ele>15.0</ele><time>2026-04-11T10:33:27.921Z</time></trkpt><trkpt lat="45.3939549" lon="11.6697"><ele>15.0</ele><time>2026-04-11T10:33:28.921Z</time></trkpt><trkpt lat="45.3939609" lon="11.6698571"><ele>15.0</ele><time>2026-04-11T10:33:29.921Z</time></trkpt><trkpt lat="45.3939659" lon="11.6699875"><ele>15.0</ele><time>2026-04-11T10:33:30.921Z</time></trkpt><trkpt lat="45.3939674" lon="11.6701068"><ele>15.0</ele><time>2026-04-11T10:33:31.92Z</time></trkpt><trkpt lat="45.3939804" lon="11.6702125"><ele>15.0</ele><time>2026-04-11T10:33:32.921Z</time></trkpt><trkpt lat="45.3939856" lon="11.6703131"><ele>15.0</ele><time>2026-04-11T10:33:33.92Z</time></trkpt><trkpt lat="45.3939948" lon="11.6704136"><ele>15.0</ele><time>2026-04-11T10:33:34.921Z</time></trkpt><trkpt lat="45.3939992" lon="11.6705244"><ele>15.0</ele><time>2026-04-11T10:33:35.921Z</time></trkpt><trkpt lat="45.3940018" lon="11.6706342"><ele>15.0</ele><time>2026-04-11T10:33:36.921Z</time></trkpt><trkpt lat="45.394007" lon="11.6707426"><ele>15.0</ele><time>2026-04-11T10:33:37.921Z</time></trkpt><trkpt lat="45.3940119" lon="11.6708512"><ele>15.0</ele><time>2026-04-11T10:33:38.921Z</time></trkpt><trkpt lat="45.3940123" lon="11.6709557"><ele>15.0</ele><time>2026-04-11T10:33:39.921Z</time></trkpt><trkpt lat="45.3940164" lon="11.6711009"><ele>15.0</ele><time>2026-04-11T10:33:40.921Z</time></trkpt><trkpt lat="45.3940155" lon="11.6712534"><ele>15.0</ele><time>2026-04-11T10:33:41.921Z</time></trkpt><trkpt lat="45.3940165" lon="11.6714203"><ele>15.0</ele><time>2026-04-11T10:33:42.921Z</time></trkpt><trkpt lat="45.3940133" lon="11.6715788"><ele>15.0</ele><time>2026-04-11T10:33:43.921Z</time></trkpt><trkpt lat="45.3940088" lon="11.6717345"><ele>15.0</ele><time>2026-04-11T10:33:44.921Z</time></trkpt><trkpt lat="45.3939985" lon="11.6718579"><ele>15.0</ele><time>2026-04-11T10:33:45.921Z</time></trkpt><trkpt lat="45.3939895" lon="11.671955"><ele>15.0</ele><time>2026-04-11T10:33:46.921Z</time></trkpt><trkpt lat="45.3939785" lon="11.6720443"><ele>15.0</ele><time>2026-04-11T10:33:47.921Z</time></trkpt><trkpt lat="45.3939553" lon="11.6722041"><ele>15.0</ele><time>2026-04-11T10:33:49.921Z</time></trkpt><trkpt lat="45.393933" lon="11.6723596"><ele>15.0</ele><time>2026-04-11T10:33:51.921Z</time></trkpt><trkpt lat="45.3939237" lon="11.672455"><ele>15.0</ele><time>2026-04-11T10:33:52.921Z</time></trkpt><trkpt lat="45.3939097" lon="11.6725676"><ele>15.0</ele><time>2026-04-11T10:33:53.921Z</time></trkpt><trkpt lat="45.3938923" lon="11.6727015"><ele>15.0</ele><time>2026-04-11T10:33:54.921Z</time></trkpt><trkpt lat="45.3938677" lon="11.6728462"><ele>15.0</ele><time>2026-04-11T10:33:55.921Z</time></trkpt><trkpt lat="45.3938441" lon="11.6729931"><ele>15.75</ele><time>2026-04-11T10:33:56.921Z</time></trkpt><trkpt lat="45.3938212" lon="11.673141"><ele>16.5</ele><time>2026-04-11T10:33:57.921Z</time></trkpt><trkpt lat="45.3937958" lon="11.6732935"><ele>17.25</ele><time>2026-04-11T10:33:58.921Z</time></trkpt><trkpt lat="45.3937745" lon="11.6734532"><ele>18.0</ele><time>2026-04-11T10:33:59.921Z</time></trkpt><trkpt lat="45.3937484" lon="11.673633"><ele>18.0</ele><time>2026-04-11T10:34:00.921Z</time></trkpt><trkpt lat="45.3937235" lon="11.6738083"><ele>18.0</ele><time>2026-04-11T10:34:01.921Z</time></trkpt><trkpt lat="45.3936954" lon="11.6739819"><ele>18.0</ele><time>2026-04-11T10:34:02.921Z</time></trkpt><trkpt lat="45.3936628" lon="11.6741616"><ele>18.0</ele><time>2026-04-11T10:34:03.921Z</time></trkpt><trkpt lat="45.3936347" lon="11.6743416"><ele>18.25</ele><time>2026-04-11T10:34:04.921Z</time></trkpt><trkpt lat="45.3936071" lon="11.6745166"><ele>18.5</ele><time>2026-04-11T10:34:05.921Z</time></trkpt><trkpt lat="45.3935767" lon="11.6746985"><ele>18.75</ele><time>2026-04-11T10:34:06.921Z</time></trkpt><trkpt lat="45.3935474" lon="11.6748781"><ele>19.0</ele><time>2026-04-11T10:34:07.92Z</time></trkpt><trkpt lat="45.3935224" lon="11.6750499"><ele>19.0</ele><time>2026-04-11T10:34:08.921Z</time></trkpt><trkpt lat="45.3934952" lon="11.675223"><ele>19.0</ele><time>2026-04-11T10:34:09.921Z</time></trkpt><trkpt lat="45.3934713" lon="11.6753881"><ele>19.0</ele><time>2026-04-11T10:34:10.921Z</time></trkpt><trkpt lat="45.3934484" lon="11.6755538"><ele>19.0</ele><time>2026-04-11T10:34:11.921Z</time></trkpt><trkpt lat="45.3934289" lon="11.6757166"><ele>18.599999999999998</ele><time>2026-04-11T10:34:12.921Z</time></trkpt><trkpt lat="45.3934204" lon="11.6758696"><ele>18.2</ele><time>2026-04-11T10:34:13.921Z</time></trkpt><trkpt lat="45.3934179" lon="11.6760006"><ele>17.799999999999997</ele><time>2026-04-11T10:34:14.921Z</time></trkpt><trkpt lat="45.3934185" lon="11.6761124"><ele>17.4</ele><time>2026-04-11T10:34:15.921Z</time></trkpt><trkpt lat="45.3933908" lon="11.6762639"><ele>17.0</ele><time>2026-04-11T10:34:17.921Z</time></trkpt><trkpt lat="45.3932794" lon="11.6762807"><ele>17.0</ele><time>2026-04-11T10:34:19.92Z</time></trkpt><trkpt lat="45.3931706" lon="11.6762378"><ele>17.0</ele><time>2026-04-11T10:34:20.921Z</time></trkpt><trkpt lat="45.3930241" lon="11.6761881"><ele>17.0</ele><time>2026-04-11T10:34:21.921Z</time></trkpt><trkpt lat="45.3928661" lon="11.6761349"><ele>17.0</ele><time>2026-04-11T10:34:22.921Z</time></trkpt><trkpt lat="45.3927224" lon="11.6760911"><ele>17.4</ele><time>2026-04-11T10:34:23.921Z</time></trkpt><trkpt lat="45.3925994" lon="11.6760522"><ele>17.799999999999997</ele><time>2026-04-11T10:34:24.921Z</time></trkpt><trkpt lat="45.3924975" lon="11.6760201"><ele>18.2</ele><time>2026-04-11T10:34:25.921Z</time></trkpt><trkpt lat="45.3923971" lon="11.6760096"><ele>18.599999999999998</ele><time>2026-04-11T10:34:26.921Z</time></trkpt><trkpt lat="45.3923296" lon="11.6760454"><ele>19.0</ele><time>2026-04-11T10:34:27.921Z</time></trkpt><trkpt lat="45.3922598" lon="11.6761156"><ele>19.0</ele><time>2026-04-11T10:34:28.921Z</time></trkpt><trkpt lat="45.3922011" lon="11.6762142"><ele>19.0</ele><time>2026-04-11T10:34:29.921Z</time></trkpt><trkpt lat="45.3921522" lon="11.6763383"><ele>19.0</ele><time>2026-04-11T10:34:30.921Z</time></trkpt><trkpt lat="45.3921346" lon="11.6765005"><ele>19.0</ele><time>2026-04-11T10:34:31.921Z</time></trkpt><trkpt lat="45.3921161" lon="11.6766673"><ele>19.0</ele><time>2026-04-11T10:34:32.921Z</time></trkpt><trkpt lat="45.392126" lon="11.6768414"><ele>24.5</ele><time>2026-04-11T10:34:33.921Z</time></trkpt><trkpt lat="45.3921409" lon="11.6770256"><ele>30.0</ele><time>2026-04-11T10:34:34.921Z</time></trkpt><trkpt lat="45.3921565" lon="11.6772128"><ele>35.5</ele><time>2026-04-11T10:34:35.921Z</time></trkpt><trkpt lat="45.3921551" lon="11.6773949"><ele>41.0</ele><time>2026-04-11T10:34:36.921Z</time></trkpt><trkpt lat="45.3921324" lon="11.6775732"><ele>41.0</ele><time>2026-04-11T10:34:37.921Z</time></trkpt><trkpt lat="45.3920904" lon="11.6777406"><ele>41.0</ele><time>2026-04-11T10:34:38.92Z</time></trkpt><trkpt lat="45.3920374" lon="11.6778924"><ele>41.0</ele><time>2026-04-11T10:34:39.921Z</time></trkpt><trkpt lat="45.3919734" lon="11.6780268"><ele>41.0</ele><time>2026-04-11T10:34:40.921Z</time></trkpt><trkpt lat="45.3918916" lon="11.678131"><ele>37.4</ele><time>2026-04-11T10:34:41.921Z</time></trkpt><trkpt lat="45.3918056" lon="11.678214"><ele>33.8</ele><time>2026-04-11T10:34:42.921Z</time></trkpt><trkpt lat="45.3917087" lon="11.6783065"><ele>30.199999999999996</ele><time>2026-04-11T10:34:43.921Z</time></trkpt><trkpt lat="45.3916055" lon="11.6783889"><ele>26.599999999999998</ele><time>2026-04-11T10:34:44.921Z</time></trkpt><trkpt lat="45.3915027" lon="11.6784431"><ele>23.0</ele><time>2026-04-11T10:34:45.921Z</time></trkpt><trkpt lat="45.3914003" lon="11.6784833"><ele>23.599999999999998</ele><time>2026-04-11T10:34:46.921Z</time></trkpt><trkpt lat="45.3912903" lon="11.6785059"><ele>24.2</ele><time>2026-04-11T10:34:47.921Z</time></trkpt><trkpt lat="45.39119" lon="11.678547"><ele>24.8</ele><time>2026-04-11T10:34:48.921Z</time></trkpt><trkpt lat="45.3911003" lon="11.6786255"><ele>25.4</ele><time>2026-04-11T10:34:49.921Z</time></trkpt><trkpt lat="45.3910178" lon="11.6787478"><ele>26.0</ele><time>2026-04-11T10:34:50.921Z</time></trkpt><trkpt lat="45.3909369" lon="11.6788987"><ele>23.25</ele><time>2026-04-11T10:34:51.92Z</time></trkpt><trkpt lat="45.3908616" lon="11.679051"><ele>20.5</ele><time>2026-04-11T10:34:52.92Z</time></trkpt><trkpt lat="45.3908086" lon="11.6792252"><ele>17.75</ele><time>2026-04-11T10:34:53.921Z</time></trkpt><trkpt lat="45.3907627" lon="11.6794337"><ele>15.0</ele><time>2026-04-11T10:34:54.921Z</time></trkpt><trkpt lat="45.3907265" lon="11.6796852"><ele>15.0</ele><time>2026-04-11T10:34:55.921Z</time></trkpt><trkpt lat="45.39069" lon="11.6799771"><ele>15.0</ele><time>2026-04-11T10:34:56.921Z</time></trkpt><trkpt lat="45.3906681" lon="11.6802954"><ele>15.0</ele><time>2026-04-11T10:34:57.921Z</time></trkpt><trkpt lat="45.3906544" lon="11.6806443"><ele>15.0</ele><time>2026-04-11T10:34:58.921Z</time></trkpt><trkpt lat="45.3906478" lon="11.6810138"><ele>15.0</ele><time>2026-04-11T10:34:59.921Z</time></trkpt><trkpt lat="45.3906261" lon="11.681394"><ele>14.5</ele><time>2026-04-11T10:35:00.921Z</time></trkpt><trkpt lat="45.3905848" lon="11.6817865"><ele>14.0</ele><time>2026-04-11T10:35:01.921Z</time></trkpt><trkpt lat="45.3905313" lon="11.6821894"><ele>14.0</ele><time>2026-04-11T10:35:02.921Z</time></trkpt><trkpt lat="45.3904744" lon="11.6826031"><ele>14.0</ele><time>2026-04-11T10:35:03.921Z</time></trkpt><trkpt lat="45.3904087" lon="11.6830163"><ele>14.0</ele><time>2026-04-11T10:35:04.921Z</time></trkpt><trkpt lat="45.3903403" lon="11.6834123"><ele>14.0</ele><time>2026-04-11T10:35:05.921Z</time></trkpt><trkpt lat="45.3902764" lon="11.6837935"><ele>14.5</ele><time>2026-04-11T10:35:06.921Z</time></trkpt><trkpt lat="45.3902155" lon="11.6841502"><ele>15.0</ele><time>2026-04-11T10:35:07.921Z</time></trkpt><trkpt lat="45.390164" lon="11.6844823"><ele>15.0</ele><time>2026-04-11T10:35:08.921Z</time></trkpt><trkpt lat="45.3901062" lon="11.6847785"><ele>15.0</ele><time>2026-04-11T10:35:09.92Z</time></trkpt><trkpt lat="45.3900603" lon="11.685048"><ele>15.0</ele><time>2026-04-11T10:35:10.921Z</time></trkpt><trkpt lat="45.3900165" lon="11.6852989"><ele>15.0</ele><time>2026-04-11T10:35:11.921Z</time></trkpt><trkpt lat="45.3899761" lon="11.6855172"><ele>15.0</ele><time>2026-04-11T10:35:12.921Z</time></trkpt><trkpt lat="45.3899296" lon="11.6857067"><ele>15.0</ele><time>2026-04-11T10:35:13.921Z</time></trkpt><trkpt lat="45.3898622" lon="11.6858826"><ele>15.0</ele><time>2026-04-11T10:35:14.92Z</time></trkpt><trkpt lat="45.3897834" lon="11.6860322"><ele>14.75</ele><time>2026-04-11T10:35:15.921Z</time></trkpt><trkpt lat="45.3897057" lon="11.6861768"><ele>14.5</ele><time>2026-04-11T10:35:16.921Z</time></trkpt><trkpt lat="45.3896597" lon="11.6863364"><ele>14.25</ele><time>2026-04-11T10:35:17.921Z</time></trkpt><trkpt lat="45.3896266" lon="11.686501"><ele>14.0</ele><time>2026-04-11T10:35:18.921Z</time></trkpt><trkpt lat="45.3896533" lon="11.6866774"><ele>14.0</ele><time>2026-04-11T10:35:19.921Z</time></trkpt><trkpt lat="45.3896889" lon="11.6868609"><ele>14.0</ele><time>2026-04-11T10:35:20.921Z</time></trkpt><trkpt lat="45.3897444" lon="11.6870476"><ele>14.0</ele><time>2026-04-11T10:35:21.921Z</time></trkpt><trkpt lat="45.3897951" lon="11.6872419"><ele>14.0</ele><time>2026-04-11T10:35:22.92Z</time></trkpt><trkpt lat="45.3898435" lon="11.6874402"><ele>14.0</ele><time>2026-04-11T10:35:23.921Z</time></trkpt><trkpt lat="45.3898939" lon="11.6876407"><ele>14.0</ele><time>2026-04-11T10:35:24.921Z</time></trkpt><trkpt lat="45.389938" lon="11.6878345"><ele>14.0</ele><time>2026-04-11T10:35:25.92Z</time></trkpt><trkpt lat="45.3899909" lon="11.6880273"><ele>14.0</ele><time>2026-04-11T10:35:26.921Z</time></trkpt><trkpt lat="45.39005" lon="11.6882185"><ele>14.0</ele><time>2026-04-11T10:35:27.921Z</time></trkpt><trkpt lat="45.39012" lon="11.6884014"><ele>14.0</ele><time>2026-04-11T10:35:28.921Z</time></trkpt><trkpt lat="45.3901963" lon="11.68858"><ele>14.0</ele><time>2026-04-11T10:35:29.921Z</time></trkpt><trkpt lat="45.3902647" lon="11.6887573"><ele>14.0</ele><time>2026-04-11T10:35:30.921Z</time></trkpt><trkpt lat="45.3903139" lon="11.6889502"><ele>14.0</ele><time>2026-04-11T10:35:31.921Z</time></trkpt><trkpt lat="45.3903463" lon="11.6891515"><ele>14.0</ele><time>2026-04-11T10:35:32.921Z</time></trkpt><trkpt lat="45.3903709" lon="11.6893628"><ele>14.0</ele><time>2026-04-11T10:35:33.92Z</time></trkpt><trkpt lat="45.3903841" lon="11.6895825"><ele>14.333333333333334</ele><time>2026-04-11T10:35:34.921Z</time></trkpt><trkpt lat="45.3903937" lon="11.6898036"><ele>14.666666666666668</ele><time>2026-04-11T10:35:35.921Z</time></trkpt><trkpt lat="45.3904012" lon="11.690021"><ele>15.0</ele><time>2026-04-11T10:35:36.921Z</time></trkpt><trkpt lat="45.3904095" lon="11.690223"><ele>14.75</ele><time>2026-04-11T10:35:37.92Z</time></trkpt><trkpt lat="45.3904218" lon="11.6904214"><ele>14.5</ele><time>2026-04-11T10:35:38.921Z</time></trkpt><trkpt lat="45.3904271" lon="11.6906357"><ele>14.25</ele><time>2026-04-11T10:35:39.92Z</time></trkpt><trkpt lat="45.3904546" lon="11.6908327"><ele>14.0</ele><time>2026-04-11T10:35:40.921Z</time></trkpt><trkpt lat="45.3905044" lon="11.691008"><ele>14.0</ele><time>2026-04-11T10:35:41.921Z</time></trkpt><trkpt lat="45.39057" lon="11.6911582"><ele>14.0</ele><time>2026-04-11T10:35:42.921Z</time></trkpt><trkpt lat="45.3906572" lon="11.6912849"><ele>14.0</ele><time>2026-04-11T10:35:43.921Z</time></trkpt><trkpt lat="45.39076" lon="11.6913805"><ele>14.0</ele><time>2026-04-11T10:35:44.921Z</time></trkpt><trkpt lat="45.3908601" lon="11.6914521"><ele>14.0</ele><time>2026-04-11T10:35:45.921Z</time></trkpt><trkpt lat="45.3909172" lon="11.691553"><ele>13.999999999999998</ele><time>2026-04-11T10:35:46.921Z</time></trkpt><trkpt lat="45.3909422" lon="11.691676"><ele>13.999999999999998</ele><time>2026-04-11T10:35:47.921Z</time></trkpt><trkpt lat="45.3909495" lon="11.6918323"><ele>14.0</ele><time>2026-04-11T10:35:48.921Z</time></trkpt><trkpt lat="45.3909296" lon="11.6920126"><ele>14.0</ele><time>2026-04-11T10:35:49.921Z</time></trkpt><trkpt lat="45.3909047" lon="11.6921903"><ele>14.2</ele><time>2026-04-11T10:35:50.921Z</time></trkpt><trkpt lat="45.3908872" lon="11.6923305"><ele>14.399999999999999</ele><time>2026-04-11T10:35:51.921Z</time></trkpt><trkpt lat="45.3908743" lon="11.6924434"><ele>14.6</ele><time>2026-04-11T10:35:52.921Z</time></trkpt><trkpt lat="45.3908653" lon="11.692561"><ele>14.8</ele><time>2026-04-11T10:35:53.921Z</time></trkpt><trkpt lat="45.3908631" lon="11.6927008"><ele>15.0</ele><time>2026-04-11T10:35:54.921Z</time></trkpt><trkpt lat="45.3908582" lon="11.6928528"><ele>15.0</ele><time>2026-04-11T10:35:55.921Z</time></trkpt><trkpt lat="45.3908547" lon="11.6930079"><ele>15.0</ele><time>2026-04-11T10:35:56.921Z</time></trkpt><trkpt lat="45.3908333" lon="11.6931447"><ele>15.0</ele><time>2026-04-11T10:35:57.921Z</time></trkpt><trkpt lat="45.3907893" lon="11.6932635"><ele>15.0</ele><time>2026-04-11T10:35:58.921Z</time></trkpt><trkpt lat="45.3907225" lon="11.6933841"><ele>15.0</ele><time>2026-04-11T10:35:59.921Z</time></trkpt><trkpt lat="45.3906744" lon="11.6935469"><ele>14.666666666666668</ele><time>2026-04-11T10:36:00.921Z</time></trkpt><trkpt lat="45.3906353" lon="11.6937405"><ele>14.333333333333334</ele><time>2026-04-11T10:36:01.921Z</time></trkpt><trkpt lat="45.3905956" lon="11.6939437"><ele>14.0</ele><time>2026-04-11T10:36:02.921Z</time></trkpt><trkpt lat="45.3905527" lon="11.6941854"><ele>13.666666666666668</ele><time>2026-04-11T10:36:03.921Z</time></trkpt><trkpt lat="45.3905222" lon="11.6944383"><ele>13.333333333333332</ele><time>2026-04-11T10:36:04.921Z</time></trkpt><trkpt lat="45.3905119" lon="11.6946616"><ele>13.0</ele><time>2026-04-11T10:36:05.921Z</time></trkpt><trkpt lat="45.3905067" lon="11.694835"><ele>13.4</ele><time>2026-04-11T10:36:06.921Z</time></trkpt><trkpt lat="45.3905025" lon="11.6949609"><ele>13.8</ele><time>2026-04-11T10:36:07.921Z</time></trkpt><trkpt lat="45.3905018" lon="11.6950804"><ele>14.2</ele><time>2026-04-11T10:36:08.921Z</time></trkpt><trkpt lat="45.3904946" lon="11.6952057"><ele>14.6</ele><time>2026-04-11T10:36:09.921Z</time></trkpt><trkpt lat="45.3904772" lon="11.6953407"><ele>15.0</ele><time>2026-04-11T10:36:10.921Z</time></trkpt><trkpt lat="45.39045" lon="11.6954913"><ele>15.0</ele><time>2026-04-11T10:36:11.921Z</time></trkpt><trkpt lat="45.390428" lon="11.6956591"><ele>15.0</ele><time>2026-04-11T10:36:12.92Z</time></trkpt><trkpt lat="45.3904077" lon="11.6958475"><ele>15.0</ele><time>2026-04-11T10:36:13.921Z</time></trkpt><trkpt lat="45.3903895" lon="11.6960544"><ele>15.0</ele><time>2026-04-11T10:36:14.921Z</time></trkpt><trkpt lat="45.3903756" lon="11.6962681"><ele>15.0</ele><time>2026-04-11T10:36:15.921Z</time></trkpt><trkpt lat="45.3903577" lon="11.6964921"><ele>15.0</ele><time>2026-04-11T10:36:16.921Z</time></trkpt><trkpt lat="45.3903414" lon="11.696702"><ele>15.0</ele><time>2026-04-11T10:36:17.921Z</time></trkpt><trkpt lat="45.3903309" lon="11.6968987"><ele>15.0</ele><time>2026-04-11T10:36:18.921Z</time></trkpt><trkpt lat="45.3903108" lon="11.697091"><ele>15.0</ele><time>2026-04-11T10:36:19.921Z</time></trkpt><trkpt lat="45.3902916" lon="11.6972671"><ele>15.0</ele><time>2026-04-11T10:36:20.921Z</time></trkpt><trkpt lat="45.390275" lon="11.6974208"><ele>15.0</ele><time>2026-04-11T10:36:21.921Z</time></trkpt><trkpt lat="45.3902752" lon="11.6975558"><ele>15.0</ele><time>2026-04-11T10:36:22.921Z</time></trkpt><trkpt lat="45.3902836" lon="11.6976582"><ele>15.0</ele><time>2026-04-11T10:36:23.921Z</time></trkpt><trkpt lat="45.3902986" lon="11.6977707"><ele>15.0</ele><time>2026-04-11T10:36:25.921Z</time></trkpt><trkpt lat="45.3902631" lon="11.6979256"><ele>15.0</ele><time>2026-04-11T10:36:27.921Z</time></trkpt><trkpt lat="45.3902167" lon="11.6980453"><ele>15.0</ele><time>2026-04-11T10:36:28.921Z</time></trkpt><trkpt lat="45.3901688" lon="11.6981824"><ele>15.0</ele><time>2026-04-11T10:36:29.921Z</time></trkpt><trkpt lat="45.390117" lon="11.6983327"><ele>15.0</ele><time>2026-04-11T10:36:30.921Z</time></trkpt><trkpt lat="45.3900652" lon="11.6984904"><ele>15.25</ele><time>2026-04-11T10:36:31.921Z</time></trkpt><trkpt lat="45.3900066" lon="11.6986438"><ele>15.5</ele><time>2026-04-11T10:36:32.921Z</time></trkpt><trkpt lat="45.3899525" lon="11.6987961"><ele>15.75</ele><time>2026-04-11T10:36:33.921Z</time></trkpt><trkpt lat="45.3898967" lon="11.6989442"><ele>16.0</ele><time>2026-04-11T10:36:34.921Z</time></trkpt><trkpt lat="45.3898426" lon="11.6990768"><ele>16.0</ele><time>2026-04-11T10:36:35.921Z</time></trkpt><trkpt lat="45.3897861" lon="11.6992115"><ele>16.0</ele><time>2026-04-11T10:36:36.921Z</time></trkpt><trkpt lat="45.3897288" lon="11.6993477"><ele>16.0</ele><time>2026-04-11T10:36:37.921Z</time></trkpt><trkpt lat="45.3896645" lon="11.6994961"><ele>16.0</ele><time>2026-04-11T10:36:38.921Z</time></trkpt><trkpt lat="45.3895893" lon="11.6996582"><ele>15.666666666666666</ele><time>2026-04-11T10:36:39.921Z</time></trkpt><trkpt lat="45.3895041" lon="11.6998377"><ele>15.333333333333332</ele><time>2026-04-11T10:36:40.921Z</time></trkpt><trkpt lat="45.3894178" lon="11.7000249"><ele>15.0</ele><time>2026-04-11T10:36:41.921Z</time></trkpt><trkpt lat="45.3893321" lon="11.7002267"><ele>15.0</ele><time>2026-04-11T10:36:42.921Z</time></trkpt><trkpt lat="45.3892414" lon="11.7004278"><ele>15.0</ele><time>2026-04-11T10:36:43.921Z</time></trkpt><trkpt lat="45.3891552" lon="11.7006171"><ele>15.0</ele><time>2026-04-11T10:36:44.92Z</time></trkpt><trkpt lat="45.3890645" lon="11.7007975"><ele>15.0</ele><time>2026-04-11T10:36:45.921Z</time></trkpt><trkpt lat="45.3889691" lon="11.7009673"><ele>15.0</ele><time>2026-04-11T10:36:46.921Z</time></trkpt><trkpt lat="45.3888661" lon="11.7011439"><ele>15.0</ele><time>2026-04-11T10:36:47.92Z</time></trkpt><trkpt lat="45.3887531" lon="11.7012804"><ele>15.333333333333332</ele><time>2026-04-11T10:36:48.921Z</time></trkpt><trkpt lat="45.3886374" lon="11.7014215"><ele>15.666666666666666</ele><time>2026-04-11T10:36:49.921Z</time></trkpt><trkpt lat="45.3885182" lon="11.7015496"><ele>16.0</ele><time>2026-04-11T10:36:50.921Z</time></trkpt><trkpt lat="45.3883832" lon="11.701674"><ele>16.0</ele><time>2026-04-11T10:36:51.921Z</time></trkpt><trkpt lat="45.3882495" lon="11.701784"><ele>16.0</ele><time>2026-04-11T10:36:52.921Z</time></trkpt><trkpt lat="45.3881088" lon="11.701894"><ele>16.0</ele><time>2026-04-11T10:36:53.921Z</time></trkpt><trkpt lat="45.3879491" lon="11.7020115"><ele>16.333333333333332</ele><time>2026-04-11T10:36:54.921Z</time></trkpt><trkpt lat="45.3877823" lon="11.7021433"><ele>16.666666666666668</ele><time>2026-04-11T10:36:55.921Z</time></trkpt><trkpt lat="45.3876141" lon="11.7022753"><ele>17.0</ele><time>2026-04-11T10:36:56.921Z</time></trkpt><trkpt lat="45.3874515" lon="11.7024013"><ele>17.0</ele><time>2026-04-11T10:36:57.921Z</time></trkpt><trkpt lat="45.3872895" lon="11.7025241"><ele>17.0</ele><time>2026-04-11T10:36:58.921Z</time></trkpt><trkpt lat="45.3871249" lon="11.7026374"><ele>17.0</ele><time>2026-04-11T10:36:59.921Z</time></trkpt><trkpt lat="45.3869538" lon="11.7027227"><ele>16.666666666666668</ele><time>2026-04-11T10:37:00.921Z</time></trkpt><trkpt lat="45.3867797" lon="11.7027858"><ele>16.333333333333332</ele><time>2026-04-11T10:37:01.921Z</time></trkpt><trkpt lat="45.386605" lon="11.7028194"><ele>16.0</ele><time>2026-04-11T10:37:02.921Z</time></trkpt><trkpt lat="45.3864304" lon="11.7028187"><ele>16.333333333333332</ele><time>2026-04-11T10:37:03.921Z</time></trkpt><trkpt lat="45.3862582" lon="11.7027918"><ele>16.666666666666668</ele><time>2026-04-11T10:37:04.921Z</time></trkpt><trkpt lat="45.3860835" lon="11.7027716"><ele>17.0</ele><time>2026-04-11T10:37:05.921Z</time></trkpt><trkpt lat="45.3859085" lon="11.7027716"><ele>17.0</ele><time>2026-04-11T10:37:06.921Z</time></trkpt><trkpt lat="45.385734" lon="11.7027947"><ele>17.0</ele><time>2026-04-11T10:37:07.921Z</time></trkpt><trkpt lat="45.3855665" lon="11.7028422"><ele>17.0</ele><time>2026-04-11T10:37:08.921Z</time></trkpt><trkpt lat="45.3854021" lon="11.7029018"><ele>16.75</ele><time>2026-04-11T10:37:09.921Z</time></trkpt><trkpt lat="45.3852525" lon="11.7029711"><ele>16.5</ele><time>2026-04-11T10:37:10.921Z</time></trkpt><trkpt lat="45.3851273" lon="11.7030364"><ele>16.25</ele><time>2026-04-11T10:37:11.921Z</time></trkpt><trkpt lat="45.3850255" lon="11.7031115"><ele>16.0</ele><time>2026-04-11T10:37:12.921Z</time></trkpt><trkpt lat="45.3849237" lon="11.7032099"><ele>16.0</ele><time>2026-04-11T10:37:13.921Z</time></trkpt><trkpt lat="45.3848194" lon="11.7033347"><ele>16.0</ele><time>2026-04-11T10:37:14.921Z</time></trkpt><trkpt lat="45.3847167" lon="11.7034811"><ele>16.0</ele><time>2026-04-11T10:37:15.921Z</time></trkpt><trkpt lat="45.3846092" lon="11.7036367"><ele>16.0</ele><time>2026-04-11T10:37:16.921Z</time></trkpt><trkpt lat="45.3844963" lon="11.7037832"><ele>15.666666666666666</ele><time>2026-04-11T10:37:17.92Z</time></trkpt><trkpt lat="45.3843766" lon="11.7039275"><ele>15.333333333333332</ele><time>2026-04-11T10:37:18.921Z</time></trkpt><trkpt lat="45.3842519" lon="11.7040595"><ele>15.0</ele><time>2026-04-11T10:37:19.921Z</time></trkpt><trkpt lat="45.3841216" lon="11.7041901"><ele>15.0</ele><time>2026-04-11T10:37:20.921Z</time></trkpt><trkpt lat="45.3839888" lon="11.7043113"><ele>15.0</ele><time>2026-04-11T10:37:21.921Z</time></trkpt><trkpt lat="45.3838537" lon="11.704431"><ele>15.0</ele><time>2026-04-11T10:37:22.921Z</time></trkpt><trkpt lat="45.3837186" lon="11.7045449"><ele>15.333333333333332</ele><time>2026-04-11T10:37:23.921Z</time></trkpt><trkpt lat="45.3835867" lon="11.7046529"><ele>15.666666666666666</ele><time>2026-04-11T10:37:24.921Z</time></trkpt><trkpt lat="45.383449" lon="11.704742"><ele>16.0</ele><time>2026-04-11T10:37:25.92Z</time></trkpt><trkpt lat="45.383304" lon="11.7048002"><ele>16.0</ele><time>2026-04-11T10:37:26.921Z</time></trkpt><trkpt lat="45.3831583" lon="11.7048431"><ele>16.0</ele><time>2026-04-11T10:37:27.921Z</time></trkpt><trkpt lat="45.3830146" lon="11.7048856"><ele>16.0</ele><time>2026-04-11T10:37:28.921Z</time></trkpt><trkpt lat="45.3828718" lon="11.7049272"><ele>16.0</ele><time>2026-04-11T10:37:29.921Z</time></trkpt><trkpt lat="45.3827541" lon="11.7049793"><ele>16.0</ele><time>2026-04-11T10:37:30.921Z</time></trkpt><trkpt lat="45.3826478" lon="11.7050505"><ele>16.0</ele><time>2026-04-11T10:37:31.921Z</time></trkpt><trkpt lat="45.3825659" lon="11.7051467"><ele>16.0</ele><time>2026-04-11T10:37:32.921Z</time></trkpt><trkpt lat="45.3824846" lon="11.7052555"><ele>16.0</ele><time>2026-04-11T10:37:33.921Z</time></trkpt><trkpt lat="45.3824156" lon="11.7053571"><ele>16.0</ele><time>2026-04-11T10:37:34.921Z</time></trkpt><trkpt lat="45.3823375" lon="11.7054488"><ele>16.0</ele><time>2026-04-11T10:37:35.921Z</time></trkpt><trkpt lat="45.3822503" lon="11.7055139"><ele>16.0</ele><time>2026-04-11T10:37:36.92Z</time></trkpt><trkpt lat="45.3821519" lon="11.7055315"><ele>16.0</ele><time>2026-04-11T10:37:37.921Z</time></trkpt><trkpt lat="45.3820474" lon="11.7055177"><ele>16.0</ele><time>2026-04-11T10:37:38.921Z</time></trkpt><trkpt lat="45.3819417" lon="11.7055018"><ele>16.0</ele><time>2026-04-11T10:37:39.92Z</time></trkpt><trkpt lat="45.3818244" lon="11.7054719"><ele>16.0</ele><time>2026-04-11T10:37:40.921Z</time></trkpt><trkpt lat="45.3817068" lon="11.7054378"><ele>16.0</ele><time>2026-04-11T10:37:41.921Z</time></trkpt><trkpt lat="45.3815868" lon="11.7054066"><ele>16.0</ele><time>2026-04-11T10:37:42.921Z</time></trkpt><trkpt lat="45.3814637" lon="11.7053663"><ele>16.0</ele><time>2026-04-11T10:37:43.921Z</time></trkpt><trkpt lat="45.3813369" lon="11.7053324"><ele>16.0</ele><time>2026-04-11T10:37:44.921Z</time></trkpt><trkpt lat="45.3812104" lon="11.7052948"><ele>16.0</ele><time>2026-04-11T10:37:45.921Z</time></trkpt><trkpt lat="45.3810811" lon="11.7052487"><ele>16.0</ele><time>2026-04-11T10:37:46.921Z</time></trkpt><trkpt lat="45.3809551" lon="11.7052042"><ele>16.0</ele><time>2026-04-11T10:37:47.921Z</time></trkpt><trkpt lat="45.3808236" lon="11.7051559"><ele>16.0</ele><time>2026-04-11T10:37:48.921Z</time></trkpt><trkpt lat="45.3806889" lon="11.7050838"><ele>16.0</ele><time>2026-04-11T10:37:49.921Z</time></trkpt><trkpt lat="45.3805412" lon="11.705003"><ele>16.0</ele><time>2026-04-11T10:37:50.921Z</time></trkpt><trkpt lat="45.3803881" lon="11.7049445"><ele>16.0</ele><time>2026-04-11T10:37:51.921Z</time></trkpt><trkpt lat="45.3802357" lon="11.7049003"><ele>16.0</ele><time>2026-04-11T10:37:52.921Z</time></trkpt><trkpt lat="45.3800775" lon="11.7048877"><ele>16.0</ele><time>2026-04-11T10:37:53.921Z</time></trkpt><trkpt lat="45.3799178" lon="11.7049107"><ele>16.0</ele><time>2026-04-11T10:37:54.921Z</time></trkpt><trkpt lat="45.3797542" lon="11.7049406"><ele>16.0</ele><time>2026-04-11T10:37:55.921Z</time></trkpt><trkpt lat="45.3795986" lon="11.7049613"><ele>16.0</ele><time>2026-04-11T10:37:56.921Z</time></trkpt><trkpt lat="45.3794543" lon="11.7049767"><ele>16.6</ele><time>2026-04-11T10:37:57.921Z</time></trkpt><trkpt lat="45.3793185" lon="11.7049864"><ele>17.200000000000003</ele><time>2026-04-11T10:37:58.921Z</time></trkpt><trkpt lat="45.3791979" lon="11.7049927"><ele>17.799999999999997</ele><time>2026-04-11T10:37:59.92Z</time></trkpt><trkpt lat="45.3790995" lon="11.7050003"><ele>18.4</ele><time>2026-04-11T10:38:00.921Z</time></trkpt><trkpt lat="45.3790179" lon="11.7050274"><ele>19.0</ele><time>2026-04-11T10:38:01.921Z</time></trkpt><trkpt lat="45.3789589" lon="11.7050871"><ele>19.0</ele><time>2026-04-11T10:38:02.92Z</time></trkpt><trkpt lat="45.3789212" lon="11.7051922"><ele>19.0</ele><time>2026-04-11T10:38:03.921Z</time></trkpt><trkpt lat="45.3789002" lon="11.7053148"><ele>19.0</ele><time>2026-04-11T10:38:04.921Z</time></trkpt><trkpt lat="45.3788758" lon="11.7054638"><ele>19.0</ele><time>2026-04-11T10:38:05.921Z</time></trkpt><trkpt lat="45.3788604" lon="11.7056106"><ele>19.0</ele><time>2026-04-11T10:38:06.921Z</time></trkpt><trkpt lat="45.378843" lon="11.705752"><ele>19.0</ele><time>2026-04-11T10:38:07.921Z</time></trkpt><trkpt lat="45.3788266" lon="11.705887"><ele>19.0</ele><time>2026-04-11T10:38:08.921Z</time></trkpt><trkpt lat="45.3788001" lon="11.7060195"><ele>19.0</ele><time>2026-04-11T10:38:09.921Z</time></trkpt><trkpt lat="45.3787644" lon="11.7061582"><ele>19.0</ele><time>2026-04-11T10:38:10.921Z</time></trkpt><trkpt lat="45.3787299" lon="11.7063061"><ele>19.0</ele><time>2026-04-11T10:38:11.921Z</time></trkpt><trkpt lat="45.3786944" lon="11.7064483"><ele>19.0</ele><time>2026-04-11T10:38:12.921Z</time></trkpt><trkpt lat="45.378659" lon="11.7065729"><ele>19.0</ele><time>2026-04-11T10:38:13.921Z</time></trkpt><trkpt lat="45.3786323" lon="11.7066779"><ele>19.0</ele><time>2026-04-11T10:38:14.921Z</time></trkpt><trkpt lat="45.3786115" lon="11.7067681"><ele>19.0</ele><time>2026-04-11T10:38:15.921Z</time></trkpt><trkpt lat="45.3785198" lon="11.7068756"><ele>19.0</ele><time>2026-04-11T10:38:17.921Z</time></trkpt><trkpt lat="45.3784474" lon="11.7068863"><ele>19.0</ele><time>2026-04-11T10:38:18.921Z</time></trkpt><trkpt lat="45.3783636" lon="11.7068873"><ele>19.0</ele><time>2026-04-11T10:38:19.921Z</time></trkpt><trkpt lat="45.3782634" lon="11.7068874"><ele>19.0</ele><time>2026-04-11T10:38:20.921Z</time></trkpt><trkpt lat="45.378157" lon="11.7068966"><ele>19.0</ele><time>2026-04-11T10:38:21.921Z</time></trkpt><trkpt lat="45.3780459" lon="11.7069084"><ele>19.0</ele><time>2026-04-11T10:38:22.921Z</time></trkpt><trkpt lat="45.3779287" lon="11.7069348"><ele>19.0</ele><time>2026-04-11T10:38:23.92Z</time></trkpt><trkpt lat="45.3778169" lon="11.7069817"><ele>18.75</ele><time>2026-04-11T10:38:24.921Z</time></trkpt><trkpt lat="45.3777035" lon="11.7070322"><ele>18.5</ele><time>2026-04-11T10:38:25.921Z</time></trkpt><trkpt lat="45.3775961" lon="11.7070918"><ele>18.25</ele><time>2026-04-11T10:38:26.92Z</time></trkpt><trkpt lat="45.3774827" lon="11.7071441"><ele>18.0</ele><time>2026-04-11T10:38:27.921Z</time></trkpt><trkpt lat="45.3773901" lon="11.7071955"><ele>18.0</ele><time>2026-04-11T10:38:28.921Z</time></trkpt><trkpt lat="45.3773166" lon="11.7072475"><ele>18.0</ele><time>2026-04-11T10:38:29.921Z</time></trkpt><trkpt lat="45.3772526" lon="11.7073009"><ele>18.0</ele><time>2026-04-11T10:38:30.921Z</time></trkpt><trkpt lat="45.3771553" lon="11.7073808"><ele>18.0</ele><time>2026-04-11T10:38:32.921Z</time></trkpt><trkpt lat="45.377113" lon="11.7075495"><ele>18.0</ele><time>2026-04-11T10:38:34.921Z</time></trkpt><trkpt lat="45.3771164" lon="11.7076633"><ele>17.25</ele><time>2026-04-11T10:38:35.921Z</time></trkpt><trkpt lat="45.3771223" lon="11.7078056"><ele>16.5</ele><time>2026-04-11T10:38:36.921Z</time></trkpt><trkpt lat="45.3771317" lon="11.7079625"><ele>15.75</ele><time>2026-04-11T10:38:37.921Z</time></trkpt><trkpt lat="45.3771429" lon="11.7081348"><ele>15.0</ele><time>2026-04-11T10:38:38.921Z</time></trkpt><trkpt lat="45.3771555" lon="11.7083182"><ele>15.0</ele><time>2026-04-11T10:38:39.921Z</time></trkpt><trkpt lat="45.377177" lon="11.7085088"><ele>15.0</ele><time>2026-04-11T10:38:40.921Z</time></trkpt><trkpt lat="45.3771939" lon="11.7087013"><ele>15.0</ele><time>2026-04-11T10:38:41.921Z</time></trkpt><trkpt lat="45.3772106" lon="11.708906"><ele>15.0</ele><time>2026-04-11T10:38:42.921Z</time></trkpt><trkpt lat="45.3772284" lon="11.7091104"><ele>14.333333333333332</ele><time>2026-04-11T10:38:43.921Z</time></trkpt><trkpt lat="45.3772482" lon="11.7093255"><ele>13.666666666666666</ele><time>2026-04-11T10:38:44.921Z</time></trkpt><trkpt lat="45.3772679" lon="11.7095431"><ele>13.0</ele><time>2026-04-11T10:38:45.921Z</time></trkpt><trkpt lat="45.3772836" lon="11.7097608"><ele>12.666666666666666</ele><time>2026-04-11T10:38:46.921Z</time></trkpt><trkpt lat="45.3772988" lon="11.7099778"><ele>12.333333333333332</ele><time>2026-04-11T10:38:47.921Z</time></trkpt><trkpt lat="45.3773103" lon="11.7102009"><ele>12.0</ele><time>2026-04-11T10:38:48.921Z</time></trkpt><trkpt lat="45.3773178" lon="11.7104288"><ele>13.0</ele><time>2026-04-11T10:38:49.921Z</time></trkpt><trkpt lat="45.3773163" lon="11.7106577"><ele>14.0</ele><time>2026-04-11T10:38:50.921Z</time></trkpt><trkpt lat="45.3773138" lon="11.7108862"><ele>15.0</ele><time>2026-04-11T10:38:51.921Z</time></trkpt><trkpt lat="45.3773085" lon="11.7111138"><ele>15.0</ele><time>2026-04-11T10:38:52.921Z</time></trkpt><trkpt lat="45.3773034" lon="11.711336"><ele>15.0</ele><time>2026-04-11T10:38:53.921Z</time></trkpt><trkpt lat="45.3773004" lon="11.7115605"><ele>15.0</ele><time>2026-04-11T10:38:54.92Z</time></trkpt><trkpt lat="45.3773012" lon="11.7117806"><ele>14.75</ele><time>2026-04-11T10:38:55.921Z</time></trkpt><trkpt lat="45.3773018" lon="11.7119879"><ele>14.5</ele><time>2026-04-11T10:38:56.921Z</time></trkpt><trkpt lat="45.3773067" lon="11.7121737"><ele>14.25</ele><time>2026-04-11T10:38:57.921Z</time></trkpt><trkpt lat="45.3773137" lon="11.7123399"><ele>14.0</ele><time>2026-04-11T10:38:58.921Z</time></trkpt><trkpt lat="45.3773145" lon="11.7124918"><ele>14.0</ele><time>2026-04-11T10:38:59.921Z</time></trkpt><trkpt lat="45.3773112" lon="11.7126341"><ele>13.999999999999998</ele><time>2026-04-11T10:39:00.921Z</time></trkpt><trkpt lat="45.3773106" lon="11.7127692"><ele>13.999999999999998</ele><time>2026-04-11T10:39:01.921Z</time></trkpt><trkpt lat="45.3773093" lon="11.7129202"><ele>14.0</ele><time>2026-04-11T10:39:02.921Z</time></trkpt><trkpt lat="45.377307" lon="11.7130871"><ele>14.0</ele><time>2026-04-11T10:39:03.921Z</time></trkpt><trkpt lat="45.3773101" lon="11.7132574"><ele>14.25</ele><time>2026-04-11T10:39:04.921Z</time></trkpt><trkpt lat="45.3773088" lon="11.7134318"><ele>14.5</ele><time>2026-04-11T10:39:05.921Z</time></trkpt><trkpt lat="45.3773053" lon="11.7136126"><ele>14.75</ele><time>2026-04-11T10:39:06.921Z</time></trkpt><trkpt lat="45.3772975" lon="11.7138073"><ele>15.0</ele><time>2026-04-11T10:39:07.921Z</time></trkpt><trkpt lat="45.3772957" lon="11.7140038"><ele>15.0</ele><time>2026-04-11T10:39:08.921Z</time></trkpt><trkpt lat="45.3772934" lon="11.7142083"><ele>15.0</ele><time>2026-04-11T10:39:09.921Z</time></trkpt><trkpt lat="45.3772892" lon="11.7144173"><ele>15.0</ele><time>2026-04-11T10:39:10.921Z</time></trkpt><trkpt lat="45.3772879" lon="11.7146279"><ele>15.0</ele><time>2026-04-11T10:39:11.921Z</time></trkpt><trkpt lat="45.3772847" lon="11.7148261"><ele>14.75</ele><time>2026-04-11T10:39:12.921Z</time></trkpt><trkpt lat="45.3772779" lon="11.715018"><ele>14.5</ele><time>2026-04-11T10:39:13.921Z</time></trkpt><trkpt lat="45.3772671" lon="11.715195"><ele>14.25</ele><time>2026-04-11T10:39:14.921Z</time></trkpt><trkpt lat="45.3772413" lon="11.7153588"><ele>14.0</ele><time>2026-04-11T10:39:15.92Z</time></trkpt><trkpt lat="45.3771929" lon="11.7155129"><ele>13.75</ele><time>2026-04-11T10:39:16.921Z</time></trkpt><trkpt lat="45.3771298" lon="11.7156567"><ele>13.5</ele><time>2026-04-11T10:39:17.921Z</time></trkpt><trkpt lat="45.3770483" lon="11.7157896"><ele>13.25</ele><time>2026-04-11T10:39:18.92Z</time></trkpt><trkpt lat="45.37693" lon="11.7158961"><ele>13.0</ele><time>2026-04-11T10:39:19.921Z</time></trkpt><trkpt lat="45.3768125" lon="11.715999"><ele>13.25</ele><time>2026-04-11T10:39:20.921Z</time></trkpt><trkpt lat="45.3766954" lon="11.7161032"><ele>13.5</ele><time>2026-04-11T10:39:21.921Z</time></trkpt><trkpt lat="45.3765761" lon="11.7162151"><ele>13.75</ele><time>2026-04-11T10:39:22.921Z</time></trkpt><trkpt lat="45.3764476" lon="11.7163262"><ele>14.0</ele><time>2026-04-11T10:39:23.921Z</time></trkpt><trkpt lat="45.3763194" lon="11.7164337"><ele>14.0</ele><time>2026-04-11T10:39:24.921Z</time></trkpt><trkpt lat="45.3761838" lon="11.7165451"><ele>14.0</ele><time>2026-04-11T10:39:25.921Z</time></trkpt><trkpt lat="45.3760474" lon="11.7166572"><ele>14.0</ele><time>2026-04-11T10:39:26.921Z</time></trkpt><trkpt lat="45.3759061" lon="11.7167724"><ele>14.0</ele><time>2026-04-11T10:39:27.921Z</time></trkpt><trkpt lat="45.3757633" lon="11.7168849"><ele>14.0</ele><time>2026-04-11T10:39:28.921Z</time></trkpt><trkpt lat="45.3756187" lon="11.7170035"><ele>14.0</ele><time>2026-04-11T10:39:29.921Z</time></trkpt><trkpt lat="45.3754753" lon="11.7171223"><ele>14.333333333333334</ele><time>2026-04-11T10:39:30.92Z</time></trkpt><trkpt lat="45.3753329" lon="11.717246"><ele>14.666666666666668</ele><time>2026-04-11T10:39:31.921Z</time></trkpt><trkpt lat="45.3751962" lon="11.7173691"><ele>15.0</ele><time>2026-04-11T10:39:32.921Z</time></trkpt><trkpt lat="45.3750627" lon="11.7174921"><ele>15.0</ele><time>2026-04-11T10:39:33.921Z</time></trkpt><trkpt lat="45.3749287" lon="11.7176162"><ele>15.0</ele><time>2026-04-11T10:39:34.921Z</time></trkpt><trkpt lat="45.3747868" lon="11.7177303"><ele>15.0</ele><time>2026-04-11T10:39:35.921Z</time></trkpt><trkpt lat="45.374642" lon="11.7178316"><ele>15.25</ele><time>2026-04-11T10:39:36.921Z</time></trkpt><trkpt lat="45.3744937" lon="11.717915"><ele>15.5</ele><time>2026-04-11T10:39:37.921Z</time></trkpt><trkpt lat="45.3743703" lon="11.7179774"><ele>15.75</ele><time>2026-04-11T10:39:38.921Z</time></trkpt><trkpt lat="45.3742593" lon="11.7180314"><ele>16.0</ele><time>2026-04-11T10:39:39.921Z</time></trkpt><trkpt lat="45.3741445" lon="11.7180899"><ele>16.0</ele><time>2026-04-11T10:39:40.921Z</time></trkpt><trkpt lat="45.3740193" lon="11.7181483"><ele>16.0</ele><time>2026-04-11T10:39:41.921Z</time></trkpt><trkpt lat="45.3738833" lon="11.7182067"><ele>16.0</ele><time>2026-04-11T10:39:42.921Z</time></trkpt><trkpt lat="45.37374" lon="11.7182752"><ele>16.0</ele><time>2026-04-11T10:39:43.921Z</time></trkpt><trkpt lat="45.3735894" lon="11.7183478"><ele>14.666666666666666</ele><time>2026-04-11T10:39:44.921Z</time></trkpt><trkpt lat="45.373434" lon="11.7184208"><ele>13.333333333333332</ele><time>2026-04-11T10:39:45.921Z</time></trkpt><trkpt lat="45.3732805" lon="11.7184933"><ele>12.0</ele><time>2026-04-11T10:39:46.921Z</time></trkpt><trkpt lat="45.3731256" lon="11.7185695"><ele>12.666666666666668</ele><time>2026-04-11T10:39:47.921Z</time></trkpt><trkpt lat="45.3729674" lon="11.7186459"><ele>13.333333333333334</ele><time>2026-04-11T10:39:48.921Z</time></trkpt><trkpt lat="45.3728096" lon="11.7187223"><ele>14.0</ele><time>2026-04-11T10:39:49.921Z</time></trkpt><trkpt lat="45.3726526" lon="11.7187963"><ele>14.0</ele><time>2026-04-11T10:39:50.921Z</time></trkpt><trkpt lat="45.372502" lon="11.7188653"><ele>14.0</ele><time>2026-04-11T10:39:51.921Z</time></trkpt><trkpt lat="45.3723615" lon="11.7189275"><ele>14.0</ele><time>2026-04-11T10:39:52.921Z</time></trkpt><trkpt lat="45.372234" lon="11.7189842"><ele>14.0</ele><time>2026-04-11T10:39:53.921Z</time></trkpt><trkpt lat="45.3721143" lon="11.71904"><ele>14.399999999999999</ele><time>2026-04-11T10:39:54.921Z</time></trkpt><trkpt lat="45.3720008" lon="11.7190867"><ele>14.799999999999999</ele><time>2026-04-11T10:39:55.921Z</time></trkpt><trkpt lat="45.371894" lon="11.7191294"><ele>15.200000000000001</ele><time>2026-04-11T10:39:56.921Z</time></trkpt><trkpt lat="45.3717877" lon="11.7191669"><ele>15.600000000000001</ele><time>2026-04-11T10:39:57.921Z</time></trkpt><trkpt lat="45.3716849" lon="11.7192039"><ele>16.0</ele><time>2026-04-11T10:39:58.921Z</time></trkpt><trkpt lat="45.3715884" lon="11.7192332"><ele>15.999999999999998</ele><time>2026-04-11T10:39:59.921Z</time></trkpt><trkpt lat="45.3715007" lon="11.7192623"><ele>16.0</ele><time>2026-04-11T10:40:00.921Z</time></trkpt><trkpt lat="45.3714302" lon="11.7192842"><ele>16.0</ele><time>2026-04-11T10:40:01.921Z</time></trkpt><trkpt lat="45.3713589" lon="11.7192959"><ele>16.0</ele><time>2026-04-11T10:40:03.921Z</time></trkpt><trkpt lat="45.371288" lon="11.7192904"><ele>15.999999999999998</ele><time>2026-04-11T10:40:57.921Z</time></trkpt><trkpt lat="45.3712352" lon="11.7194326"><ele>16.0</ele><time>2026-04-11T10:41:00.92Z</time></trkpt><trkpt lat="45.3712362" lon="11.719554"><ele>15.8</ele><time>2026-04-11T10:41:01.921Z</time></trkpt><trkpt lat="45.3712428" lon="11.7196864"><ele>15.600000000000001</ele><time>2026-04-11T10:41:02.921Z</time></trkpt><trkpt lat="45.3712494" lon="11.7198254"><ele>15.4</ele><time>2026-04-11T10:41:03.92Z</time></trkpt><trkpt lat="45.371256" lon="11.7199798"><ele>15.2</ele><time>2026-04-11T10:41:04.921Z</time></trkpt><trkpt lat="45.3712603" lon="11.7201315"><ele>15.0</ele><time>2026-04-11T10:41:05.921Z</time></trkpt><trkpt lat="45.3712621" lon="11.7202929"><ele>15.0</ele><time>2026-04-11T10:41:06.921Z</time></trkpt><trkpt lat="45.3712672" lon="11.7204621"><ele>15.0</ele><time>2026-04-11T10:41:07.921Z</time></trkpt><trkpt lat="45.3712702" lon="11.7206406"><ele>15.0</ele><time>2026-04-11T10:41:08.921Z</time></trkpt><trkpt lat="45.3712687" lon="11.7208252"><ele>15.0</ele><time>2026-04-11T10:41:09.921Z</time></trkpt><trkpt lat="45.3712733" lon="11.7210143"><ele>15.5</ele><time>2026-04-11T10:41:10.921Z</time></trkpt><trkpt lat="45.3712796" lon="11.7212071"><ele>16.0</ele><time>2026-04-11T10:41:11.921Z</time></trkpt><trkpt lat="45.3712796" lon="11.7213925"><ele>16.5</ele><time>2026-04-11T10:41:12.921Z</time></trkpt><trkpt lat="45.3712838" lon="11.7215506"><ele>17.0</ele><time>2026-04-11T10:41:13.921Z</time></trkpt><trkpt lat="45.3712792" lon="11.7216927"><ele>17.0</ele><time>2026-04-11T10:41:14.921Z</time></trkpt><trkpt lat="45.3712657" lon="11.7218041"><ele>17.0</ele><time>2026-04-11T10:41:15.921Z</time></trkpt><trkpt lat="45.3712562" lon="11.7219036"><ele>17.0</ele><time>2026-04-11T10:41:16.921Z</time></trkpt><trkpt lat="45.3712448" lon="11.7220646"><ele>17.0</ele><time>2026-04-11T10:41:18.921Z</time></trkpt><trkpt lat="45.3712393" lon="11.7221881"><ele>17.0</ele><time>2026-04-11T10:41:20.921Z</time></trkpt><trkpt lat="45.3712674" lon="11.7222944"><ele>17.0</ele><time>2026-04-11T10:41:23.921Z</time></trkpt><trkpt lat="45.371313" lon="11.7221903"><ele>17.0</ele><time>2026-04-11T10:41:37.921Z</time></trkpt><trkpt lat="45.3713239" lon="11.7219536"><ele>17.0</ele><time>2026-04-11T10:41:39.921Z</time></trkpt><trkpt lat="45.3713188" lon="11.7217901"><ele>17.0</ele><time>2026-04-11T10:41:40.921Z</time></trkpt><trkpt lat="45.3713178" lon="11.7216052"><ele>17.0</ele><time>2026-04-11T10:41:41.921Z</time></trkpt><trkpt lat="45.3713117" lon="11.7214171"><ele>17.0</ele><time>2026-04-11T10:41:42.921Z</time></trkpt><trkpt lat="45.371306" lon="11.7212208"><ele>17.0</ele><time>2026-04-11T10:41:43.921Z</time></trkpt><trkpt lat="45.3712998" lon="11.7210337"><ele>17.0</ele><time>2026-04-11T10:41:44.92Z</time></trkpt><trkpt lat="45.3712947" lon="11.7208315"><ele>17.0</ele><time>2026-04-11T10:41:45.921Z</time></trkpt><trkpt lat="45.3712903" lon="11.7206323"><ele>16.5</ele><time>2026-04-11T10:41:46.921Z</time></trkpt><trkpt lat="45.3712903" lon="11.7204436"><ele>16.0</ele><time>2026-04-11T10:41:47.921Z</time></trkpt><trkpt lat="45.3712763" lon="11.7202557"><ele>15.5</ele><time>2026-04-11T10:41:48.921Z</time></trkpt><trkpt lat="45.3712742" lon="11.7200777"><ele>15.0</ele><time>2026-04-11T10:41:49.921Z</time></trkpt><trkpt lat="45.3712699" lon="11.7198905"><ele>15.0</ele><time>2026-04-11T10:41:50.921Z</time></trkpt><trkpt lat="45.3712663" lon="11.7196965"><ele>15.0</ele><time>2026-04-11T10:41:51.921Z</time></trkpt><trkpt lat="45.371264" lon="11.7194983"><ele>15.0</ele><time>2026-04-11T10:41:52.921Z</time></trkpt><trkpt lat="45.3712566" lon="11.7193003"><ele>15.0</ele><time>2026-04-11T10:41:53.921Z</time></trkpt><trkpt lat="45.3712512" lon="11.7190975"><ele>15.0</ele><time>2026-04-11T10:41:54.921Z</time></trkpt><trkpt lat="45.3712478" lon="11.7188968"><ele>15.0</ele><time>2026-04-11T10:41:55.921Z</time></trkpt><trkpt lat="45.3712441" lon="11.7186941"><ele>15.0</ele><time>2026-04-11T10:41:56.921Z</time></trkpt><trkpt lat="45.3712375" lon="11.7184808"><ele>15.0</ele><time>2026-04-11T10:41:57.921Z</time></trkpt><trkpt lat="45.3712299" lon="11.7182722"><ele>15.0</ele><time>2026-04-11T10:41:58.92Z</time></trkpt><trkpt lat="45.3712182" lon="11.7180716"><ele>15.0</ele><time>2026-04-11T10:41:59.921Z</time></trkpt><trkpt lat="45.3711925" lon="11.7178741"><ele>15.0</ele><time>2026-04-11T10:42:00.921Z</time></trkpt><trkpt lat="45.3711491" lon="11.7176851"><ele>15.0</ele><time>2026-04-11T10:42:01.921Z</time></trkpt><trkpt lat="45.3710799" lon="11.7175055"><ele>15.0</ele><time>2026-04-11T10:42:02.921Z</time></trkpt><trkpt lat="45.3709984" lon="11.7173331"><ele>15.0</ele><time>2026-04-11T10:42:03.921Z</time></trkpt><trkpt lat="45.3709023" lon="11.7171713"><ele>15.0</ele><time>2026-04-11T10:42:04.921Z</time></trkpt><trkpt lat="45.3708037" lon="11.717009"><ele>15.0</ele><time>2026-04-11T10:42:05.921Z</time></trkpt><trkpt lat="45.3707084" lon="11.7168433"><ele>15.0</ele><time>2026-04-11T10:42:06.921Z</time></trkpt><trkpt lat="45.3706124" lon="11.7166747"><ele>15.0</ele><time>2026-04-11T10:42:07.921Z</time></trkpt><trkpt lat="45.370519" lon="11.7165077"><ele>15.0</ele><time>2026-04-11T10:42:08.921Z</time></trkpt><trkpt lat="45.3704288" lon="11.7163468"><ele>15.0</ele><time>2026-04-11T10:42:09.92Z</time></trkpt><trkpt lat="45.3703344" lon="11.7161868"><ele>14.666666666666668</ele><time>2026-04-11T10:42:10.921Z</time></trkpt><trkpt lat="45.3702355" lon="11.7160213"><ele>14.333333333333334</ele><time>2026-04-11T10:42:11.921Z</time></trkpt><trkpt lat="45.3701375" lon="11.7158523"><ele>14.0</ele><time>2026-04-11T10:42:12.921Z</time></trkpt><trkpt lat="45.3700385" lon="11.7156818"><ele>14.0</ele><time>2026-04-11T10:42:13.921Z</time></trkpt><trkpt lat="45.3699385" lon="11.715515"><ele>14.0</ele><time>2026-04-11T10:42:14.921Z</time></trkpt><trkpt lat="45.3698452" lon="11.715365"><ele>14.0</ele><time>2026-04-11T10:42:15.921Z</time></trkpt><trkpt lat="45.3697573" lon="11.715217"><ele>14.0</ele><time>2026-04-11T10:42:16.921Z</time></trkpt><trkpt lat="45.3696765" lon="11.7150695"><ele>14.25</ele><time>2026-04-11T10:42:17.921Z</time></trkpt><trkpt lat="45.3695926" lon="11.7149205"><ele>14.5</ele><time>2026-04-11T10:42:18.921Z</time></trkpt><trkpt lat="45.3695029" lon="11.7147676"><ele>14.75</ele><time>2026-04-11T10:42:19.921Z</time></trkpt><trkpt lat="45.3694081" lon="11.7146047"><ele>15.0</ele><time>2026-04-11T10:42:20.921Z</time></trkpt><trkpt lat="45.3693145" lon="11.7144338"><ele>14.666666666666668</ele><time>2026-04-11T10:42:21.921Z</time></trkpt><trkpt lat="45.3692225" lon="11.7142576"><ele>14.333333333333334</ele><time>2026-04-11T10:42:22.921Z</time></trkpt><trkpt lat="45.36913" lon="11.7140808"><ele>14.0</ele><time>2026-04-11T10:42:23.921Z</time></trkpt><trkpt lat="45.3690409" lon="11.7139027"><ele>14.0</ele><time>2026-04-11T10:42:24.921Z</time></trkpt><trkpt lat="45.3689562" lon="11.7137209"><ele>14.0</ele><time>2026-04-11T10:42:25.921Z</time></trkpt><trkpt lat="45.368871" lon="11.7135413"><ele>14.0</ele><time>2026-04-11T10:42:26.921Z</time></trkpt><trkpt lat="45.3687863" lon="11.7133596"><ele>14.666666666666668</ele><time>2026-04-11T10:42:27.921Z</time></trkpt><trkpt lat="45.3687006" lon="11.7131784"><ele>15.333333333333332</ele><time>2026-04-11T10:42:28.92Z</time></trkpt><trkpt lat="45.3686131" lon="11.7129933"><ele>16.0</ele><time>2026-04-11T10:42:29.921Z</time></trkpt><trkpt lat="45.368528" lon="11.7128131"><ele>16.0</ele><time>2026-04-11T10:42:30.921Z</time></trkpt><trkpt lat="45.3684411" lon="11.7126309"><ele>16.0</ele><time>2026-04-11T10:42:31.921Z</time></trkpt><trkpt lat="45.3683587" lon="11.7124485"><ele>16.0</ele><time>2026-04-11T10:42:32.921Z</time></trkpt><trkpt lat="45.3682771" lon="11.7122644"><ele>16.0</ele><time>2026-04-11T10:42:33.921Z</time></trkpt><trkpt lat="45.3681921" lon="11.712084"><ele>16.0</ele><time>2026-04-11T10:42:34.921Z</time></trkpt><trkpt lat="45.3681074" lon="11.7119017"><ele>16.0</ele><time>2026-04-11T10:42:35.92Z</time></trkpt><trkpt lat="45.3680252" lon="11.7117186"><ele>16.0</ele><time>2026-04-11T10:42:36.921Z</time></trkpt><trkpt lat="45.3679439" lon="11.7115426"><ele>16.0</ele><time>2026-04-11T10:42:37.921Z</time></trkpt><trkpt lat="45.3678628" lon="11.7113672"><ele>16.0</ele><time>2026-04-11T10:42:38.921Z</time></trkpt><trkpt lat="45.367785" lon="11.7112002"><ele>16.0</ele><time>2026-04-11T10:42:39.921Z</time></trkpt><trkpt lat="45.3677088" lon="11.7110306"><ele>16.0</ele><time>2026-04-11T10:42:40.921Z</time></trkpt><trkpt lat="45.3676318" lon="11.7108664"><ele>16.0</ele><time>2026-04-11T10:42:41.921Z</time></trkpt><trkpt lat="45.3675656" lon="11.7107143"><ele>16.0</ele><time>2026-04-11T10:42:42.921Z</time></trkpt><trkpt lat="45.3675048" lon="11.7105846"><ele>16.0</ele><time>2026-04-11T10:42:43.921Z</time></trkpt><trkpt lat="45.3674379" lon="11.7104998"><ele>15.999999999999998</ele><time>2026-04-11T10:42:44.921Z</time></trkpt><trkpt lat="45.3673907" lon="11.7104371"><ele>16.0</ele><time>2026-04-11T10:42:45.921Z</time></trkpt><trkpt lat="45.3673448" lon="11.7103283"><ele>16.0</ele><time>2026-04-11T10:42:47.921Z</time></trkpt><trkpt lat="45.3672967" lon="11.7102664"><ele>16.0</ele><time>2026-04-11T10:43:01.921Z</time></trkpt><trkpt lat="45.3673086" lon="11.7101545"><ele>15.999999999999998</ele><time>2026-04-11T10:43:54.921Z</time></trkpt><trkpt lat="45.3672736" lon="11.710057"><ele>16.0</ele><time>2026-04-11T10:44:00.921Z</time></trkpt><trkpt lat="45.3672582" lon="11.7099441"><ele>16.2</ele><time>2026-04-11T10:44:01.921Z</time></trkpt><trkpt lat="45.3672222" lon="11.7098105"><ele>16.400000000000002</ele><time>2026-04-11T10:44:02.921Z</time></trkpt><trkpt lat="45.3671805" lon="11.7096716"><ele>16.6</ele><time>2026-04-11T10:44:03.921Z</time></trkpt><trkpt lat="45.3671219" lon="11.7095365"><ele>16.8</ele><time>2026-04-11T10:44:04.921Z</time></trkpt><trkpt lat="45.3670765" lon="11.7094086"><ele>17.0</ele><time>2026-04-11T10:44:05.921Z</time></trkpt><trkpt lat="45.3670369" lon="11.7092914"><ele>16.666666666666668</ele><time>2026-04-11T10:44:06.921Z</time></trkpt><trkpt lat="45.3669962" lon="11.7091798"><ele>16.333333333333336</ele><time>2026-04-11T10:44:07.92Z</time></trkpt><trkpt lat="45.3669542" lon="11.7090629"><ele>16.0</ele><time>2026-04-11T10:44:08.921Z</time></trkpt><trkpt lat="45.366915" lon="11.7089494"><ele>15.666666666666668</ele><time>2026-04-11T10:44:09.921Z</time></trkpt><trkpt lat="45.3668772" lon="11.7088362"><ele>15.333333333333334</ele><time>2026-04-11T10:44:10.921Z</time></trkpt><trkpt lat="45.3668382" lon="11.7087214"><ele>15.0</ele><time>2026-04-11T10:44:11.921Z</time></trkpt><trkpt lat="45.366796" lon="11.7086065"><ele>15.4</ele><time>2026-04-11T10:44:12.921Z</time></trkpt><trkpt lat="45.3667532" lon="11.7084873"><ele>15.8</ele><time>2026-04-11T10:44:13.921Z</time></trkpt><trkpt lat="45.3667101" lon="11.7083702"><ele>16.2</ele><time>2026-04-11T10:44:14.921Z</time></trkpt><trkpt lat="45.3666698" lon="11.7082542"><ele>16.6</ele><time>2026-04-11T10:44:15.921Z</time></trkpt><trkpt lat="45.3666311" lon="11.7081331"><ele>17.0</ele><time>2026-04-11T10:44:16.921Z</time></trkpt><trkpt lat="45.3665925" lon="11.7080165"><ele>17.0</ele><time>2026-04-11T10:44:17.921Z</time></trkpt><trkpt lat="45.3665513" lon="11.7079045"><ele>17.0</ele><time>2026-04-11T10:44:18.921Z</time></trkpt><trkpt lat="45.3665151" lon="11.7077995"><ele>17.0</ele><time>2026-04-11T10:44:19.921Z</time></trkpt><trkpt lat="45.3664786" lon="11.707708"><ele>17.0</ele><time>2026-04-11T10:44:20.921Z</time></trkpt><trkpt lat="45.3664403" lon="11.7076127"><ele>17.0</ele><time>2026-04-11T10:44:21.921Z</time></trkpt><trkpt lat="45.3664004" lon="11.7075147"><ele>17.0</ele><time>2026-04-11T10:44:22.921Z</time></trkpt><trkpt lat="45.3663544" lon="11.7074148"><ele>17.166666666666668</ele><time>2026-04-11T10:44:23.921Z</time></trkpt><trkpt lat="45.3663024" lon="11.7073254"><ele>17.333333333333336</ele><time>2026-04-11T10:44:24.921Z</time></trkpt><trkpt lat="45.3662463" lon="11.7072511"><ele>17.5</ele><time>2026-04-11T10:44:25.921Z</time></trkpt><trkpt lat="45.3661846" lon="11.707216"><ele>17.666666666666668</ele><time>2026-04-11T10:44:26.921Z</time></trkpt><trkpt lat="45.3660523" lon="11.7072263"><ele>17.833333333333332</ele><time>2026-04-11T10:44:28.921Z</time></trkpt><trkpt lat="45.3659857" lon="11.707285"><ele>18.0</ele><time>2026-04-11T10:44:29.921Z</time></trkpt><trkpt lat="45.3659132" lon="11.7073503"><ele>18.0</ele><time>2026-04-11T10:44:30.921Z</time></trkpt><trkpt lat="45.3658261" lon="11.7074174"><ele>18.0</ele><time>2026-04-11T10:44:31.921Z</time></trkpt><trkpt lat="45.3657321" lon="11.707497"><ele>18.0</ele><time>2026-04-11T10:44:32.921Z</time></trkpt><trkpt lat="45.3656227" lon="11.7075937"><ele>18.0</ele><time>2026-04-11T10:44:33.921Z</time></trkpt><trkpt lat="45.3654916" lon="11.7076912"><ele>17.25</ele><time>2026-04-11T10:44:34.921Z</time></trkpt><trkpt lat="45.3653544" lon="11.7077764"><ele>16.5</ele><time>2026-04-11T10:44:35.921Z</time></trkpt><trkpt lat="45.3652184" lon="11.7078455"><ele>15.75</ele><time>2026-04-11T10:44:36.921Z</time></trkpt><trkpt lat="45.3651016" lon="11.7078926"><ele>15.0</ele><time>2026-04-11T10:44:37.921Z</time></trkpt><trkpt lat="45.3649933" lon="11.7078977"><ele>15.0</ele><time>2026-04-11T10:44:38.921Z</time></trkpt><trkpt lat="45.3648673" lon="11.7078573"><ele>15.0</ele><time>2026-04-11T10:44:39.921Z</time></trkpt><trkpt lat="45.3647264" lon="11.707783"><ele>15.0</ele><time>2026-04-11T10:44:40.921Z</time></trkpt><trkpt lat="45.3645693" lon="11.7076912"><ele>15.0</ele><time>2026-04-11T10:44:41.921Z</time></trkpt><trkpt lat="45.3643907" lon="11.707586"><ele>15.333333333333332</ele><time>2026-04-11T10:44:42.921Z</time></trkpt><trkpt lat="45.3641851" lon="11.7074562"><ele>15.666666666666666</ele><time>2026-04-11T10:44:43.921Z</time></trkpt><trkpt lat="45.3639776" lon="11.7073378"><ele>16.0</ele><time>2026-04-11T10:44:44.921Z</time></trkpt><trkpt lat="45.3637698" lon="11.7072462"><ele>16.0</ele><time>2026-04-11T10:44:45.921Z</time></trkpt><trkpt lat="45.363547" lon="11.7071749"><ele>16.0</ele><time>2026-04-11T10:44:46.921Z</time></trkpt><trkpt lat="45.3633297" lon="11.7071124"><ele>16.0</ele><time>2026-04-11T10:44:47.921Z</time></trkpt><trkpt lat="45.3631268" lon="11.7070607"><ele>16.0</ele><time>2026-04-11T10:44:48.92Z</time></trkpt><trkpt lat="45.3629494" lon="11.7070071"><ele>16.0</ele><time>2026-04-11T10:44:49.92Z</time></trkpt><trkpt lat="45.3627929" lon="11.706974"><ele>16.25</ele><time>2026-04-11T10:44:50.921Z</time></trkpt><trkpt lat="45.3626533" lon="11.7069884"><ele>16.5</ele><time>2026-04-11T10:44:51.921Z</time></trkpt><trkpt lat="45.3625225" lon="11.707031"><ele>16.75</ele><time>2026-04-11T10:44:52.921Z</time></trkpt><trkpt lat="45.3624042" lon="11.7070939"><ele>17.0</ele><time>2026-04-11T10:44:53.921Z</time></trkpt><trkpt lat="45.3623005" lon="11.707163"><ele>17.0</ele><time>2026-04-11T10:44:54.921Z</time></trkpt><trkpt lat="45.3621935" lon="11.707225"><ele>17.0</ele><time>2026-04-11T10:44:55.921Z</time></trkpt><trkpt lat="45.3620725" lon="11.7072617"><ele>17.0</ele><time>2026-04-11T10:44:56.921Z</time></trkpt><trkpt lat="45.3619066" lon="11.7072818"><ele>17.0</ele><time>2026-04-11T10:44:57.921Z</time></trkpt><trkpt lat="45.3617389" lon="11.7072695"><ele>17.0</ele><time>2026-04-11T10:44:58.921Z</time></trkpt><trkpt lat="45.3615986" lon="11.7072611"><ele>17.0</ele><time>2026-04-11T10:44:59.921Z</time></trkpt><trkpt lat="45.3614994" lon="11.7072262"><ele>17.0</ele><time>2026-04-11T10:45:00.921Z</time></trkpt><trkpt lat="45.3614218" lon="11.7071605"><ele>17.0</ele><time>2026-04-11T10:45:01.921Z</time></trkpt><trkpt lat="45.3613517" lon="11.7070521"><ele>17.0</ele><time>2026-04-11T10:45:02.921Z</time></trkpt><trkpt lat="45.3612932" lon="11.7069056"><ele>17.0</ele><time>2026-04-11T10:45:03.921Z</time></trkpt><trkpt lat="45.3612481" lon="11.7067106"><ele>17.0</ele><time>2026-04-11T10:45:04.92Z</time></trkpt><trkpt lat="45.3612094" lon="11.7065002"><ele>17.0</ele><time>2026-04-11T10:45:05.921Z</time></trkpt><trkpt lat="45.3611709" lon="11.7063101"><ele>17.0</ele><time>2026-04-11T10:45:06.921Z</time></trkpt><trkpt lat="45.3611148" lon="11.706155"><ele>19.0</ele><time>2026-04-11T10:45:07.921Z</time></trkpt><trkpt lat="45.3610336" lon="11.706037"><ele>21.0</ele><time>2026-04-11T10:45:08.921Z</time></trkpt><trkpt lat="45.3609396" lon="11.7059705"><ele>23.0</ele><time>2026-04-11T10:45:09.921Z</time></trkpt><trkpt lat="45.3608277" lon="11.7059567"><ele>25.0</ele><time>2026-04-11T10:45:10.921Z</time></trkpt><trkpt lat="45.3606958" lon="11.7059851"><ele>25.0</ele><time>2026-04-11T10:45:11.921Z</time></trkpt><trkpt lat="45.3605368" lon="11.7060558"><ele>25.0</ele><time>2026-04-11T10:45:12.921Z</time></trkpt><trkpt lat="45.3603695" lon="11.7061431"><ele>25.0</ele><time>2026-04-11T10:45:13.921Z</time></trkpt><trkpt lat="45.3601902" lon="11.7062067"><ele>22.333333333333336</ele><time>2026-04-11T10:45:14.921Z</time></trkpt><trkpt lat="45.3600049" lon="11.7062352"><ele>19.666666666666668</ele><time>2026-04-11T10:45:15.921Z</time></trkpt><trkpt lat="45.3598387" lon="11.7062487"><ele>17.0</ele><time>2026-04-11T10:45:16.921Z</time></trkpt><trkpt lat="45.3596842" lon="11.7062561"><ele>17.0</ele><time>2026-04-11T10:45:17.92Z</time></trkpt><trkpt lat="45.3595427" lon="11.7062385"><ele>17.0</ele><time>2026-04-11T10:45:18.921Z</time></trkpt><trkpt lat="45.3593975" lon="11.7061902"><ele>17.0</ele><time>2026-04-11T10:45:19.921Z</time></trkpt><trkpt lat="45.3592384" lon="11.7061086"><ele>17.666666666666668</ele><time>2026-04-11T10:45:20.921Z</time></trkpt><trkpt lat="45.3590552" lon="11.7060101"><ele>18.333333333333332</ele><time>2026-04-11T10:45:21.921Z</time></trkpt><trkpt lat="45.3588525" lon="11.7059083"><ele>19.0</ele><time>2026-04-11T10:45:22.921Z</time></trkpt><trkpt lat="45.3586314" lon="11.7058151"><ele>19.0</ele><time>2026-04-11T10:45:23.921Z</time></trkpt><trkpt lat="45.3583852" lon="11.7057418"><ele>19.0</ele><time>2026-04-11T10:45:24.921Z</time></trkpt><trkpt lat="45.3581291" lon="11.7056818"><ele>18.5</ele><time>2026-04-11T10:45:25.921Z</time></trkpt><trkpt lat="45.3578923" lon="11.7056201"><ele>18.0</ele><time>2026-04-11T10:45:26.921Z</time></trkpt><trkpt lat="45.3576733" lon="11.7055723"><ele>18.0</ele><time>2026-04-11T10:45:27.921Z</time></trkpt><trkpt lat="45.3574793" lon="11.7055384"><ele>18.0</ele><time>2026-04-11T10:45:28.921Z</time></trkpt><trkpt lat="45.3573058" lon="11.7055169"><ele>18.0</ele><time>2026-04-11T10:45:29.921Z</time></trkpt><trkpt lat="45.3571594" lon="11.7054925"><ele>17.75</ele><time>2026-04-11T10:45:30.921Z</time></trkpt><trkpt lat="45.3570332" lon="11.7054945"><ele>17.5</ele><time>2026-04-11T10:45:31.921Z</time></trkpt><trkpt lat="45.3569221" lon="11.7055198"><ele>17.25</ele><time>2026-04-11T10:45:32.921Z</time></trkpt><trkpt lat="45.3568174" lon="11.7055949"><ele>17.0</ele><time>2026-04-11T10:45:33.921Z</time></trkpt><trkpt lat="45.3567333" lon="11.7056815"><ele>17.0</ele><time>2026-04-11T10:45:34.921Z</time></trkpt><trkpt lat="45.3566721" lon="11.7057727"><ele>17.0</ele><time>2026-04-11T10:45:35.921Z</time></trkpt><trkpt lat="45.3566363" lon="11.70589"><ele>17.0</ele><time>2026-04-11T10:45:36.92Z</time></trkpt><trkpt lat="45.3566141" lon="11.7060518"><ele>17.0</ele><time>2026-04-11T10:45:37.921Z</time></trkpt><trkpt lat="45.3565829" lon="11.7062526"><ele>17.0</ele><time>2026-04-11T10:45:38.92Z</time></trkpt><trkpt lat="45.3565551" lon="11.7065106"><ele>16.333333333333336</ele><time>2026-04-11T10:45:39.921Z</time></trkpt><trkpt lat="45.3565249" lon="11.7067944"><ele>15.666666666666668</ele><time>2026-04-11T10:45:40.921Z</time></trkpt><trkpt lat="45.3564935" lon="11.7070566"><ele>15.0</ele><time>2026-04-11T10:45:41.921Z</time></trkpt><trkpt lat="45.356445" lon="11.7072952"><ele>15.0</ele><time>2026-04-11T10:45:42.921Z</time></trkpt><trkpt lat="45.3563886" lon="11.7075172"><ele>15.0</ele><time>2026-04-11T10:45:43.921Z</time></trkpt><trkpt lat="45.3563148" lon="11.7077351"><ele>15.0</ele><time>2026-04-11T10:45:44.921Z</time></trkpt><trkpt lat="45.3562319" lon="11.7079479"><ele>15.0</ele><time>2026-04-11T10:45:45.921Z</time></trkpt><trkpt lat="45.3561397" lon="11.7081573"><ele>15.0</ele><time>2026-04-11T10:45:46.921Z</time></trkpt><trkpt lat="45.3560428" lon="11.7083678"><ele>15.0</ele><time>2026-04-11T10:45:47.921Z</time></trkpt><trkpt lat="45.3559395" lon="11.708571"><ele>15.333333333333332</ele><time>2026-04-11T10:45:48.921Z</time></trkpt><trkpt lat="45.3558348" lon="11.7087655"><ele>15.666666666666666</ele><time>2026-04-11T10:45:49.921Z</time></trkpt><trkpt lat="45.3557357" lon="11.7089418"><ele>16.0</ele><time>2026-04-11T10:45:50.921Z</time></trkpt><trkpt lat="45.3556429" lon="11.7091095"><ele>16.0</ele><time>2026-04-11T10:45:51.921Z</time></trkpt><trkpt lat="45.3555593" lon="11.7092798"><ele>16.0</ele><time>2026-04-11T10:45:52.92Z</time></trkpt><trkpt lat="45.3554664" lon="11.7094404"><ele>16.0</ele><time>2026-04-11T10:45:53.921Z</time></trkpt><trkpt lat="45.3553529" lon="11.7095878"><ele>16.0</ele><time>2026-04-11T10:45:54.921Z</time></trkpt><trkpt lat="45.355214" lon="11.7097194"><ele>15.666666666666666</ele><time>2026-04-11T10:45:55.921Z</time></trkpt><trkpt lat="45.3550533" lon="11.7098311"><ele>15.333333333333332</ele><time>2026-04-11T10:45:56.921Z</time></trkpt><trkpt lat="45.3548706" lon="11.7099262"><ele>15.0</ele><time>2026-04-11T10:45:57.921Z</time></trkpt><trkpt lat="45.3546843" lon="11.7100114"><ele>15.333333333333332</ele><time>2026-04-11T10:45:58.921Z</time></trkpt><trkpt lat="45.3545007" lon="11.7100981"><ele>15.666666666666666</ele><time>2026-04-11T10:45:59.921Z</time></trkpt><trkpt lat="45.3543314" lon="11.710201"><ele>16.0</ele><time>2026-04-11T10:46:00.921Z</time></trkpt><trkpt lat="45.3541735" lon="11.7103584"><ele>16.0</ele><time>2026-04-11T10:46:01.921Z</time></trkpt><trkpt lat="45.3540347" lon="11.7105159"><ele>16.0</ele><time>2026-04-11T10:46:02.921Z</time></trkpt><trkpt lat="45.3539195" lon="11.7106543"><ele>16.0</ele><time>2026-04-11T10:46:03.921Z</time></trkpt><trkpt lat="45.3537968" lon="11.7107519"><ele>16.75</ele><time>2026-04-11T10:46:04.921Z</time></trkpt><trkpt lat="45.3536767" lon="11.7108055"><ele>17.5</ele><time>2026-04-11T10:46:05.921Z</time></trkpt><trkpt lat="45.3535534" lon="11.7108212"><ele>18.25</ele><time>2026-04-11T10:46:06.921Z</time></trkpt><trkpt lat="45.3534315" lon="11.7107671"><ele>19.0</ele><time>2026-04-11T10:46:07.921Z</time></trkpt><trkpt lat="45.3532875" lon="11.7106941"><ele>19.0</ele><time>2026-04-11T10:46:08.921Z</time></trkpt><trkpt lat="45.3531317" lon="11.7106059"><ele>19.0</ele><time>2026-04-11T10:46:09.921Z</time></trkpt><trkpt lat="45.3529758" lon="11.7105174"><ele>19.0</ele><time>2026-04-11T10:46:10.921Z</time></trkpt><trkpt lat="45.3528264" lon="11.7104706"><ele>18.666666666666664</ele><time>2026-04-11T10:46:11.921Z</time></trkpt><trkpt lat="45.3526725" lon="11.7104623"><ele>18.333333333333332</ele><time>2026-04-11T10:46:12.921Z</time></trkpt><trkpt lat="45.3525124" lon="11.7104955"><ele>18.0</ele><time>2026-04-11T10:46:13.921Z</time></trkpt><trkpt lat="45.3523482" lon="11.7105595"><ele>18.666666666666668</ele><time>2026-04-11T10:46:14.921Z</time></trkpt><trkpt lat="45.3521816" lon="11.7106443"><ele>19.333333333333336</ele><time>2026-04-11T10:46:15.921Z</time></trkpt><trkpt lat="45.3520085" lon="11.7107368"><ele>20.0</ele><time>2026-04-11T10:46:16.921Z</time></trkpt><trkpt lat="45.3518201" lon="11.710823"><ele>20.0</ele><time>2026-04-11T10:46:17.921Z</time></trkpt><trkpt lat="45.3516326" lon="11.7108892"><ele>20.0</ele><time>2026-04-11T10:46:18.921Z</time></trkpt><trkpt lat="45.3514459" lon="11.7109517"><ele>20.0</ele><time>2026-04-11T10:46:19.921Z</time></trkpt><trkpt lat="45.3512668" lon="11.7110209"><ele>19.333333333333336</ele><time>2026-04-11T10:46:20.921Z</time></trkpt><trkpt lat="45.3510922" lon="11.7110888"><ele>18.666666666666668</ele><time>2026-04-11T10:46:21.921Z</time></trkpt><trkpt lat="45.3509332" lon="11.7111805"><ele>18.0</ele><time>2026-04-11T10:46:22.921Z</time></trkpt><trkpt lat="45.3507898" lon="11.7113156"><ele>18.0</ele><time>2026-04-11T10:46:23.92Z</time></trkpt><trkpt lat="45.3506586" lon="11.7114886"><ele>18.0</ele><time>2026-04-11T10:46:24.921Z</time></trkpt><trkpt lat="45.3505159" lon="11.7116444"><ele>18.0</ele><time>2026-04-11T10:46:25.921Z</time></trkpt><trkpt lat="45.3503521" lon="11.7117811"><ele>17.0</ele><time>2026-04-11T10:46:26.921Z</time></trkpt><trkpt lat="45.3501711" lon="11.7119089"><ele>16.0</ele><time>2026-04-11T10:46:27.921Z</time></trkpt><trkpt lat="45.3499719" lon="11.7120198"><ele>15.0</ele><time>2026-04-11T10:46:28.921Z</time></trkpt><trkpt lat="45.3497573" lon="11.7121235"><ele>18.0</ele><time>2026-04-11T10:46:29.921Z</time></trkpt><trkpt lat="45.3495352" lon="11.7122438"><ele>21.0</ele><time>2026-04-11T10:46:30.921Z</time></trkpt><trkpt lat="45.3493022" lon="11.7123621"><ele>21.0</ele><time>2026-04-11T10:46:31.921Z</time></trkpt><trkpt lat="45.3490623" lon="11.7124853"><ele>21.0</ele><time>2026-04-11T10:46:32.921Z</time></trkpt><trkpt lat="45.3488274" lon="11.712607"><ele>19.333333333333332</ele><time>2026-04-11T10:46:33.92Z</time></trkpt><trkpt lat="45.3486163" lon="11.7127123"><ele>17.666666666666664</ele><time>2026-04-11T10:46:34.921Z</time></trkpt><trkpt lat="45.3484304" lon="11.712809"><ele>16.0</ele><time>2026-04-11T10:46:35.92Z</time></trkpt><trkpt lat="45.3482499" lon="11.7128737"><ele>16.0</ele><time>2026-04-11T10:46:36.921Z</time></trkpt><trkpt lat="45.3480651" lon="11.7129131"><ele>16.0</ele><time>2026-04-11T10:46:37.921Z</time></trkpt><trkpt lat="45.34788" lon="11.7129301"><ele>16.0</ele><time>2026-04-11T10:46:38.92Z</time></trkpt><trkpt lat="45.3476954" lon="11.7129319"><ele>16.0</ele><time>2026-04-11T10:46:39.921Z</time></trkpt><trkpt lat="45.3475083" lon="11.7129226"><ele>16.0</ele><time>2026-04-11T10:46:40.921Z</time></trkpt><trkpt lat="45.3473234" lon="11.7129058"><ele>16.0</ele><time>2026-04-11T10:46:41.921Z</time></trkpt><trkpt lat="45.3471356" lon="11.712883"><ele>16.666666666666664</ele><time>2026-04-11T10:46:42.921Z</time></trkpt><trkpt lat="45.3469533" lon="11.7128677"><ele>17.333333333333332</ele><time>2026-04-11T10:46:43.921Z</time></trkpt><trkpt lat="45.3467743" lon="11.71285"><ele>18.0</ele><time>2026-04-11T10:46:44.921Z</time></trkpt><trkpt lat="45.3465983" lon="11.7128352"><ele>18.0</ele><time>2026-04-11T10:46:45.921Z</time></trkpt><trkpt lat="45.3464294" lon="11.7128231"><ele>18.0</ele><time>2026-04-11T10:46:46.921Z</time></trkpt><trkpt lat="45.3462647" lon="11.7128088"><ele>18.0</ele><time>2026-04-11T10:46:47.921Z</time></trkpt><trkpt lat="45.3461092" lon="11.7127912"><ele>18.5</ele><time>2026-04-11T10:46:48.921Z</time></trkpt><trkpt lat="45.3459686" lon="11.7127732"><ele>19.0</ele><time>2026-04-11T10:46:49.921Z</time></trkpt><trkpt lat="45.3458402" lon="11.7127597"><ele>19.5</ele><time>2026-04-11T10:46:50.921Z</time></trkpt><trkpt lat="45.3457238" lon="11.7127463"><ele>20.0</ele><time>2026-04-11T10:46:51.921Z</time></trkpt><trkpt lat="45.3456126" lon="11.7127391"><ele>22.0</ele><time>2026-04-11T10:46:52.921Z</time></trkpt><trkpt lat="45.3454992" lon="11.7127312"><ele>24.0</ele><time>2026-04-11T10:46:53.921Z</time></trkpt><trkpt lat="45.3453779" lon="11.7127229"><ele>26.0</ele><time>2026-04-11T10:46:54.921Z</time></trkpt><trkpt lat="45.3452566" lon="11.7127147"><ele>28.0</ele><time>2026-04-11T10:46:55.921Z</time></trkpt><trkpt lat="45.3451319" lon="11.7127138"><ele>28.0</ele><time>2026-04-11T10:46:56.921Z</time></trkpt><trkpt lat="45.3450108" lon="11.7127102"><ele>27.999999999999996</ele><time>2026-04-11T10:46:57.921Z</time></trkpt><trkpt lat="45.3449016" lon="11.7127087"><ele>27.999999999999996</ele><time>2026-04-11T10:46:58.92Z</time></trkpt><trkpt lat="45.3448089" lon="11.7127319"><ele>28.0</ele><time>2026-04-11T10:46:59.921Z</time></trkpt><trkpt lat="45.3447353" lon="11.7127778"><ele>28.0</ele><time>2026-04-11T10:47:00.921Z</time></trkpt><trkpt lat="45.3446768" lon="11.7128356"><ele>25.799999999999997</ele><time>2026-04-11T10:47:01.92Z</time></trkpt><trkpt lat="45.3446469" lon="11.712949"><ele>23.599999999999998</ele><time>2026-04-11T10:47:02.921Z</time></trkpt><trkpt lat="45.3446386" lon="11.7130791"><ele>21.4</ele><time>2026-04-11T10:47:03.921Z</time></trkpt><trkpt lat="45.3446403" lon="11.7132248"><ele>19.2</ele><time>2026-04-11T10:47:04.921Z</time></trkpt><trkpt lat="45.3446461" lon="11.7133865"><ele>17.0</ele><time>2026-04-11T10:47:05.921Z</time></trkpt><trkpt lat="45.344648" lon="11.7135533"><ele>17.0</ele><time>2026-04-11T10:47:06.921Z</time></trkpt><trkpt lat="45.3446552" lon="11.7137035"><ele>17.0</ele><time>2026-04-11T10:47:07.921Z</time></trkpt><trkpt lat="45.3446523" lon="11.7138321"><ele>17.0</ele><time>2026-04-11T10:47:08.921Z</time></trkpt><trkpt lat="45.3446282" lon="11.7139326"><ele>17.0</ele><time>2026-04-11T10:47:09.921Z</time></trkpt><trkpt lat="45.344593" lon="11.7140231"><ele>17.0</ele><time>2026-04-11T10:47:10.921Z</time></trkpt><trkpt lat="45.3445044" lon="11.7140178"><ele>17.0</ele><time>2026-04-11T10:47:11.921Z</time></trkpt><trkpt lat="45.3444141" lon="11.7140143"><ele>17.0</ele><time>2026-04-11T10:47:12.92Z</time></trkpt><trkpt lat="45.344319" lon="11.714009"><ele>17.0</ele><time>2026-04-11T10:47:13.921Z</time></trkpt><trkpt lat="45.3442114" lon="11.7139994"><ele>17.0</ele><time>2026-04-11T10:47:14.921Z</time></trkpt><trkpt lat="45.3440954" lon="11.71399"><ele>17.0</ele><time>2026-04-11T10:47:15.921Z</time></trkpt><trkpt lat="45.3439902" lon="11.7139876"><ele>17.0</ele><time>2026-04-11T10:47:16.921Z</time></trkpt><trkpt lat="45.3438658" lon="11.713974"><ele>17.5</ele><time>2026-04-11T10:47:17.921Z</time></trkpt><trkpt lat="45.3437475" lon="11.713963"><ele>18.0</ele><time>2026-04-11T10:47:18.921Z</time></trkpt><trkpt lat="45.3436301" lon="11.7139526"><ele>18.5</ele><time>2026-04-11T10:47:19.921Z</time></trkpt><trkpt lat="45.3435144" lon="11.7139408"><ele>19.0</ele><time>2026-04-11T10:47:20.92Z</time></trkpt><trkpt lat="45.3434" lon="11.7139278"><ele>19.0</ele><time>2026-04-11T10:47:21.921Z</time></trkpt><trkpt lat="45.3432832" lon="11.7139128"><ele>19.0</ele><time>2026-04-11T10:47:22.921Z</time></trkpt><trkpt lat="45.3431712" lon="11.7139012"><ele>19.0</ele><time>2026-04-11T10:47:23.921Z</time></trkpt><trkpt lat="45.3430557" lon="11.7138894"><ele>19.0</ele><time>2026-04-11T10:47:24.921Z</time></trkpt><trkpt lat="45.3429404" lon="11.713878"><ele>19.799999999999997</ele><time>2026-04-11T10:47:25.921Z</time></trkpt><trkpt lat="45.3428286" lon="11.7138668"><ele>20.599999999999998</ele><time>2026-04-11T10:47:26.921Z</time></trkpt><trkpt lat="45.3427161" lon="11.7138602"><ele>21.4</ele><time>2026-04-11T10:47:27.921Z</time></trkpt><trkpt lat="45.3426021" lon="11.7138496"><ele>22.2</ele><time>2026-04-11T10:47:28.921Z</time></trkpt><trkpt lat="45.3424949" lon="11.7138408"><ele>23.0</ele><time>2026-04-11T10:47:29.92Z</time></trkpt><trkpt lat="45.3423992" lon="11.7138375"><ele>23.0</ele><time>2026-04-11T10:47:30.921Z</time></trkpt><trkpt lat="45.3423149" lon="11.7138265"><ele>23.0</ele><time>2026-04-11T10:47:31.921Z</time></trkpt><trkpt lat="45.3422496" lon="11.7137781"><ele>23.0</ele><time>2026-04-11T10:47:32.921Z</time></trkpt><trkpt lat="45.3422018" lon="11.7136951"><ele>23.0</ele><time>2026-04-11T10:47:33.921Z</time></trkpt><trkpt lat="45.3421834" lon="11.7135779"><ele>23.0</ele><time>2026-04-11T10:47:34.921Z</time></trkpt><trkpt lat="45.3421804" lon="11.7134393"><ele>23.0</ele><time>2026-04-11T10:47:35.921Z</time></trkpt><trkpt lat="45.3421859" lon="11.7132927"><ele>23.166666666666668</ele><time>2026-04-11T10:47:36.921Z</time></trkpt><trkpt lat="45.3421922" lon="11.7131506"><ele>23.333333333333336</ele><time>2026-04-11T10:47:37.921Z</time></trkpt><trkpt lat="45.3421857" lon="11.7130187"><ele>23.5</ele><time>2026-04-11T10:47:38.921Z</time></trkpt><trkpt lat="45.3421492" lon="11.7129091"><ele>23.666666666666668</ele><time>2026-04-11T10:47:39.921Z</time></trkpt><trkpt lat="45.3420892" lon="11.712831"><ele>23.833333333333332</ele><time>2026-04-11T10:47:40.921Z</time></trkpt><trkpt lat="45.3420445" lon="11.7127596"><ele>24.0</ele><time>2026-04-11T10:47:41.921Z</time></trkpt><trkpt lat="45.3419466" lon="11.7127448"><ele>24.0</ele><time>2026-04-11T10:47:42.921Z</time></trkpt><trkpt lat="45.3418475" lon="11.7127364"><ele>24.0</ele><time>2026-04-11T10:47:43.921Z</time></trkpt><trkpt lat="45.3417356" lon="11.712734"><ele>24.0</ele><time>2026-04-11T10:47:44.921Z</time></trkpt><trkpt lat="45.3416201" lon="11.7127407"><ele>24.0</ele><time>2026-04-11T10:47:45.921Z</time></trkpt><trkpt lat="45.3414942" lon="11.7127465"><ele>24.75</ele><time>2026-04-11T10:47:46.921Z</time></trkpt><trkpt lat="45.341369" lon="11.7127567"><ele>25.5</ele><time>2026-04-11T10:47:47.921Z</time></trkpt><trkpt lat="45.3412426" lon="11.7127692"><ele>26.25</ele><time>2026-04-11T10:47:48.921Z</time></trkpt><trkpt lat="45.3411239" lon="11.7128038"><ele>27.0</ele><time>2026-04-11T10:47:49.921Z</time></trkpt><trkpt lat="45.3409938" lon="11.7128765"><ele>27.0</ele><time>2026-04-11T10:47:50.92Z</time></trkpt><trkpt lat="45.3408537" lon="11.7130031"><ele>27.0</ele><time>2026-04-11T10:47:51.921Z</time></trkpt><trkpt lat="45.3407155" lon="11.7131605"><ele>27.0</ele><time>2026-04-11T10:47:52.921Z</time></trkpt><trkpt lat="45.3405832" lon="11.7133899"><ele>27.0</ele><time>2026-04-11T10:47:53.921Z</time></trkpt><trkpt lat="45.3404651" lon="11.7135964"><ele>27.0</ele><time>2026-04-11T10:47:54.921Z</time></trkpt><trkpt lat="45.3403501" lon="11.7137724"><ele>27.0</ele><time>2026-04-11T10:47:55.921Z</time></trkpt><trkpt lat="45.3402325" lon="11.7139118"><ele>27.0</ele><time>2026-04-11T10:47:56.921Z</time></trkpt><trkpt lat="45.3400986" lon="11.7140188"><ele>27.0</ele><time>2026-04-11T10:47:57.921Z</time></trkpt><trkpt lat="45.3399487" lon="11.7140958"><ele>27.0</ele><time>2026-04-11T10:47:58.921Z</time></trkpt><trkpt lat="45.3398118" lon="11.7141643"><ele>29.333333333333336</ele><time>2026-04-11T10:47:59.921Z</time></trkpt><trkpt lat="45.3396723" lon="11.7142445"><ele>31.666666666666668</ele><time>2026-04-11T10:48:00.921Z</time></trkpt><trkpt lat="45.3395275" lon="11.714318"><ele>34.0</ele><time>2026-04-11T10:48:01.921Z</time></trkpt><trkpt lat="45.3393859" lon="11.7143981"><ele>31.75</ele><time>2026-04-11T10:48:02.921Z</time></trkpt><trkpt lat="45.3392442" lon="11.7144842"><ele>29.5</ele><time>2026-04-11T10:48:03.921Z</time></trkpt><trkpt lat="45.3391468" lon="11.7145975"><ele>27.25</ele><time>2026-04-11T10:48:04.921Z</time></trkpt><trkpt lat="45.3390682" lon="11.7147543"><ele>25.0</ele><time>2026-04-11T10:48:05.921Z</time></trkpt><trkpt lat="45.3389984" lon="11.7149659"><ele>25.0</ele><time>2026-04-11T10:48:06.921Z</time></trkpt><trkpt lat="45.3389532" lon="11.7152001"><ele>25.0</ele><time>2026-04-11T10:48:07.921Z</time></trkpt><trkpt lat="45.3389077" lon="11.7154536"><ele>25.0</ele><time>2026-04-11T10:48:08.921Z</time></trkpt><trkpt lat="45.3388577" lon="11.7157093"><ele>25.0</ele><time>2026-04-11T10:48:09.921Z</time></trkpt><trkpt lat="45.3388076" lon="11.7159732"><ele>25.0</ele><time>2026-04-11T10:48:10.921Z</time></trkpt><trkpt lat="45.3387324" lon="11.716256"><ele>25.0</ele><time>2026-04-11T10:48:11.921Z</time></trkpt><trkpt lat="45.3386417" lon="11.7165163"><ele>25.0</ele><time>2026-04-11T10:48:12.921Z</time></trkpt><trkpt lat="45.3385406" lon="11.716742"><ele>25.0</ele><time>2026-04-11T10:48:13.921Z</time></trkpt><trkpt lat="45.3384357" lon="11.7169349"><ele>25.0</ele><time>2026-04-11T10:48:14.921Z</time></trkpt><trkpt lat="45.3383052" lon="11.7170954"><ele>25.0</ele><time>2026-04-11T10:48:15.921Z</time></trkpt><trkpt lat="45.3381537" lon="11.717223"><ele>25.0</ele><time>2026-04-11T10:48:16.921Z</time></trkpt><trkpt lat="45.3379912" lon="11.7173342"><ele>25.0</ele><time>2026-04-11T10:48:17.921Z</time></trkpt><trkpt lat="45.3378519" lon="11.7174256"><ele>25.5</ele><time>2026-04-11T10:48:18.921Z</time></trkpt><trkpt lat="45.3377253" lon="11.7174942"><ele>26.0</ele><time>2026-04-11T10:48:19.921Z</time></trkpt><trkpt lat="45.3375978" lon="11.717546"><ele>26.5</ele><time>2026-04-11T10:48:20.921Z</time></trkpt><trkpt lat="45.3374518" lon="11.7175769"><ele>27.0</ele><time>2026-04-11T10:48:21.921Z</time></trkpt><trkpt lat="45.3372841" lon="11.7176175"><ele>26.75</ele><time>2026-04-11T10:48:22.921Z</time></trkpt><trkpt lat="45.337123" lon="11.7176537"><ele>26.5</ele><time>2026-04-11T10:48:23.921Z</time></trkpt><trkpt lat="45.3369875" lon="11.7176841"><ele>26.25</ele><time>2026-04-11T10:48:24.921Z</time></trkpt><trkpt lat="45.3368771" lon="11.71774"><ele>26.0</ele><time>2026-04-11T10:48:25.921Z</time></trkpt><trkpt lat="45.3367783" lon="11.7178483"><ele>26.0</ele><time>2026-04-11T10:48:26.921Z</time></trkpt><trkpt lat="45.3366902" lon="11.7180012"><ele>26.0</ele><time>2026-04-11T10:48:27.921Z</time></trkpt><trkpt lat="45.3365904" lon="11.7181672"><ele>26.0</ele><time>2026-04-11T10:48:28.921Z</time></trkpt><trkpt lat="45.3364908" lon="11.7183582"><ele>26.0</ele><time>2026-04-11T10:48:29.921Z</time></trkpt><trkpt lat="45.3363939" lon="11.7185615"><ele>26.0</ele><time>2026-04-11T10:48:30.921Z</time></trkpt><trkpt lat="45.336309" lon="11.7187481"><ele>26.0</ele><time>2026-04-11T10:48:31.921Z</time></trkpt><trkpt lat="45.3362534" lon="11.7189374"><ele>26.666666666666664</ele><time>2026-04-11T10:48:32.921Z</time></trkpt><trkpt lat="45.3362041" lon="11.7191561"><ele>27.333333333333336</ele><time>2026-04-11T10:48:33.921Z</time></trkpt><trkpt lat="45.3361766" lon="11.7193893"><ele>28.0</ele><time>2026-04-11T10:48:34.921Z</time></trkpt><trkpt lat="45.3361547" lon="11.719631"><ele>28.0</ele><time>2026-04-11T10:48:35.921Z</time></trkpt><trkpt lat="45.3361336" lon="11.7198837"><ele>28.0</ele><time>2026-04-11T10:48:36.921Z</time></trkpt><trkpt lat="45.3361202" lon="11.7201415"><ele>28.0</ele><time>2026-04-11T10:48:37.921Z</time></trkpt><trkpt lat="45.33612" lon="11.7204023"><ele>27.333333333333336</ele><time>2026-04-11T10:48:38.921Z</time></trkpt><trkpt lat="45.3361237" lon="11.7206503"><ele>26.666666666666664</ele><time>2026-04-11T10:48:39.921Z</time></trkpt><trkpt lat="45.3361249" lon="11.7208845"><ele>26.0</ele><time>2026-04-11T10:48:40.92Z</time></trkpt><trkpt lat="45.3361275" lon="11.7211036"><ele>26.0</ele><time>2026-04-11T10:48:41.921Z</time></trkpt><trkpt lat="45.3361313" lon="11.721312"><ele>26.0</ele><time>2026-04-11T10:48:42.921Z</time></trkpt><trkpt lat="45.3361449" lon="11.7215218"><ele>26.0</ele><time>2026-04-11T10:48:43.921Z</time></trkpt><trkpt lat="45.3361701" lon="11.7217339"><ele>26.0</ele><time>2026-04-11T10:48:44.921Z</time></trkpt><trkpt lat="45.3362" lon="11.7219524"><ele>25.333333333333332</ele><time>2026-04-11T10:48:45.921Z</time></trkpt><trkpt lat="45.3362211" lon="11.7221726"><ele>24.666666666666664</ele><time>2026-04-11T10:48:46.921Z</time></trkpt><trkpt lat="45.3362241" lon="11.7224016"><ele>24.0</ele><time>2026-04-11T10:48:47.921Z</time></trkpt><trkpt lat="45.3362151" lon="11.7226336"><ele>23.75</ele><time>2026-04-11T10:48:48.921Z</time></trkpt><trkpt lat="45.3362113" lon="11.7228593"><ele>23.5</ele><time>2026-04-11T10:48:49.921Z</time></trkpt><trkpt lat="45.3361994" lon="11.7230758"><ele>23.25</ele><time>2026-04-11T10:48:50.921Z</time></trkpt><trkpt lat="45.3361836" lon="11.7232701"><ele>23.0</ele><time>2026-04-11T10:48:51.921Z</time></trkpt><trkpt lat="45.3361559" lon="11.7234563"><ele>23.0</ele><time>2026-04-11T10:48:52.921Z</time></trkpt><trkpt lat="45.3361176" lon="11.723639"><ele>23.0</ele><time>2026-04-11T10:48:53.921Z</time></trkpt><trkpt lat="45.3360744" lon="11.7238154"><ele>23.0</ele><time>2026-04-11T10:48:54.921Z</time></trkpt><trkpt lat="45.336025" lon="11.7239648"><ele>23.0</ele><time>2026-04-11T10:48:55.921Z</time></trkpt><trkpt lat="45.335971" lon="11.7241057"><ele>23.0</ele><time>2026-04-11T10:48:56.92Z</time></trkpt><trkpt lat="45.3359182" lon="11.7242242"><ele>23.0</ele><time>2026-04-11T10:48:57.921Z</time></trkpt><trkpt lat="45.3358781" lon="11.724324"><ele>23.0</ele><time>2026-04-11T10:48:58.921Z</time></trkpt><trkpt lat="45.3358432" lon="11.7244241"><ele>23.0</ele><time>2026-04-11T10:49:00.921Z</time></trkpt><trkpt lat="45.3358223" lon="11.7245341"><ele>23.0</ele><time>2026-04-11T10:49:06.92Z</time></trkpt><trkpt lat="45.335816" lon="11.7246235"><ele>23.0</ele><time>2026-04-11T10:49:07.921Z</time></trkpt><trkpt lat="45.3358382" lon="11.7248314"><ele>22.666666666666668</ele><time>2026-04-11T10:49:08.921Z</time></trkpt><trkpt lat="45.3358518" lon="11.7250617"><ele>22.333333333333332</ele><time>2026-04-11T10:49:09.921Z</time></trkpt><trkpt lat="45.3358534" lon="11.7252893"><ele>22.0</ele><time>2026-04-11T10:49:10.921Z</time></trkpt><trkpt lat="45.3358392" lon="11.7255202"><ele>21.5</ele><time>2026-04-11T10:49:11.921Z</time></trkpt><trkpt lat="45.3358141" lon="11.7257306"><ele>21.0</ele><time>2026-04-11T10:49:12.921Z</time></trkpt><trkpt lat="45.3357885" lon="11.7259285"><ele>20.5</ele><time>2026-04-11T10:49:13.921Z</time></trkpt><trkpt lat="45.3357587" lon="11.7261288"><ele>20.0</ele><time>2026-04-11T10:49:14.921Z</time></trkpt><trkpt lat="45.3357289" lon="11.7263267"><ele>19.75</ele><time>2026-04-11T10:49:15.921Z</time></trkpt><trkpt lat="45.335698" lon="11.7265194"><ele>19.5</ele><time>2026-04-11T10:49:16.921Z</time></trkpt><trkpt lat="45.3356609" lon="11.726705"><ele>19.25</ele><time>2026-04-11T10:49:17.921Z</time></trkpt><trkpt lat="45.3356233" lon="11.7268864"><ele>19.0</ele><time>2026-04-11T10:49:18.921Z</time></trkpt><trkpt lat="45.3355774" lon="11.72706"><ele>19.0</ele><time>2026-04-11T10:49:19.921Z</time></trkpt><trkpt lat="45.3355325" lon="11.7272285"><ele>19.0</ele><time>2026-04-11T10:49:20.921Z</time></trkpt><trkpt lat="45.3354888" lon="11.7273926"><ele>19.0</ele><time>2026-04-11T10:49:21.921Z</time></trkpt><trkpt lat="45.3354529" lon="11.7275591"><ele>19.0</ele><time>2026-04-11T10:49:22.921Z</time></trkpt><trkpt lat="45.3354203" lon="11.7277194"><ele>18.75</ele><time>2026-04-11T10:49:23.921Z</time></trkpt><trkpt lat="45.3354009" lon="11.727882"><ele>18.5</ele><time>2026-04-11T10:49:24.921Z</time></trkpt><trkpt lat="45.3353833" lon="11.7280526"><ele>18.25</ele><time>2026-04-11T10:49:25.921Z</time></trkpt><trkpt lat="45.3353703" lon="11.7282117"><ele>18.0</ele><time>2026-04-11T10:49:26.921Z</time></trkpt><trkpt lat="45.3353639" lon="11.728358"><ele>18.0</ele><time>2026-04-11T10:49:27.921Z</time></trkpt><trkpt lat="45.3353601" lon="11.7284911"><ele>18.0</ele><time>2026-04-11T10:49:28.921Z</time></trkpt><trkpt lat="45.3353553" lon="11.7286188"><ele>18.0</ele><time>2026-04-11T10:49:29.921Z</time></trkpt><trkpt lat="45.3353549" lon="11.7287423"><ele>18.0</ele><time>2026-04-11T10:49:30.921Z</time></trkpt><trkpt lat="45.3353546" lon="11.7288578"><ele>18.0</ele><time>2026-04-11T10:49:31.921Z</time></trkpt><trkpt lat="45.3353541" lon="11.7289742"><ele>18.0</ele><time>2026-04-11T10:49:32.921Z</time></trkpt><trkpt lat="45.3353495" lon="11.7290979"><ele>18.0</ele><time>2026-04-11T10:49:33.921Z</time></trkpt><trkpt lat="45.3353429" lon="11.7292223"><ele>18.0</ele><time>2026-04-11T10:49:34.921Z</time></trkpt><trkpt lat="45.3353335" lon="11.7293535"><ele>18.0</ele><time>2026-04-11T10:49:35.921Z</time></trkpt><trkpt lat="45.3353257" lon="11.7294893"><ele>18.0</ele><time>2026-04-11T10:49:36.921Z</time></trkpt><trkpt lat="45.3353116" lon="11.7296302"><ele>18.0</ele><time>2026-04-11T10:49:37.921Z</time></trkpt><trkpt lat="45.3352968" lon="11.7297749"><ele>17.8</ele><time>2026-04-11T10:49:38.921Z</time></trkpt><trkpt lat="45.3352861" lon="11.7299087"><ele>17.6</ele><time>2026-04-11T10:49:39.921Z</time></trkpt><trkpt lat="45.3352763" lon="11.7300464"><ele>17.4</ele><time>2026-04-11T10:49:40.921Z</time></trkpt><trkpt lat="45.3352678" lon="11.7301839"><ele>17.2</ele><time>2026-04-11T10:49:41.92Z</time></trkpt><trkpt lat="45.3352575" lon="11.7303188"><ele>17.0</ele><time>2026-04-11T10:49:42.92Z</time></trkpt><trkpt lat="45.3352513" lon="11.730454"><ele>16.8</ele><time>2026-04-11T10:49:43.921Z</time></trkpt><trkpt lat="45.3352427" lon="11.73059"><ele>16.6</ele><time>2026-04-11T10:49:44.921Z</time></trkpt><trkpt lat="45.3352351" lon="11.7307228"><ele>16.400000000000002</ele><time>2026-04-11T10:49:45.921Z</time></trkpt><trkpt lat="45.3352316" lon="11.7308546"><ele>16.2</ele><time>2026-04-11T10:49:46.921Z</time></trkpt><trkpt lat="45.3352238" lon="11.7309832"><ele>16.0</ele><time>2026-04-11T10:49:47.921Z</time></trkpt><trkpt lat="45.3352164" lon="11.7311006"><ele>15.833333333333332</ele><time>2026-04-11T10:49:48.921Z</time></trkpt><trkpt lat="45.3352095" lon="11.7312118"><ele>15.666666666666666</ele><time>2026-04-11T10:49:49.921Z</time></trkpt><trkpt lat="45.3352001" lon="11.7313118"><ele>15.5</ele><time>2026-04-11T10:49:50.921Z</time></trkpt><trkpt lat="45.3352001" lon="11.7314055"><ele>15.333333333333332</ele><time>2026-04-11T10:49:51.921Z</time></trkpt><trkpt lat="45.3352044" lon="11.731496"><ele>15.166666666666666</ele><time>2026-04-11T10:49:52.921Z</time></trkpt><trkpt lat="45.3352353" lon="11.7316516"><ele>15.0</ele><time>2026-04-11T10:49:54.921Z</time></trkpt><trkpt lat="45.3352761" lon="11.731763"><ele>15.0</ele><time>2026-04-11T10:49:56.921Z</time></trkpt><trkpt lat="45.3353172" lon="11.7318732"><ele>15.0</ele><time>2026-04-11T10:49:58.921Z</time></trkpt><trkpt lat="45.3353071" lon="11.7320406"><ele>15.0</ele><time>2026-04-11T10:50:00.921Z</time></trkpt><trkpt lat="45.3352544" lon="11.7321322"><ele>15.0</ele><time>2026-04-11T10:50:01.921Z</time></trkpt><trkpt lat="45.3351751" lon="11.7321994"><ele>15.0</ele><time>2026-04-11T10:50:02.921Z</time></trkpt><trkpt lat="45.3350793" lon="11.732244"><ele>14.6</ele><time>2026-04-11T10:50:03.921Z</time></trkpt><trkpt lat="45.3349788" lon="11.732274"><ele>14.2</ele><time>2026-04-11T10:50:04.921Z</time></trkpt><trkpt lat="45.3348849" lon="11.7322844"><ele>13.8</ele><time>2026-04-11T10:50:05.92Z</time></trkpt><trkpt lat="45.3347967" lon="11.7322892"><ele>13.4</ele><time>2026-04-11T10:50:06.921Z</time></trkpt><trkpt lat="45.3347096" lon="11.7323002"><ele>13.0</ele><time>2026-04-11T10:50:07.921Z</time></trkpt><trkpt lat="45.3346179" lon="11.732309"><ele>13.0</ele><time>2026-04-11T10:50:08.921Z</time></trkpt><trkpt lat="45.3345206" lon="11.732316"><ele>13.0</ele><time>2026-04-11T10:50:09.921Z</time></trkpt><trkpt lat="45.3344218" lon="11.7323254"><ele>13.0</ele><time>2026-04-11T10:50:10.921Z</time></trkpt><trkpt lat="45.3343246" lon="11.7323326"><ele>13.0</ele><time>2026-04-11T10:50:11.921Z</time></trkpt><trkpt lat="45.3342281" lon="11.7323372"><ele>13.0</ele><time>2026-04-11T10:50:12.92Z</time></trkpt><trkpt lat="45.3341319" lon="11.7323479"><ele>12.999999999999998</ele><time>2026-04-11T10:50:13.921Z</time></trkpt><trkpt lat="45.3340416" lon="11.7323595"><ele>13.0</ele><time>2026-04-11T10:50:14.921Z</time></trkpt><trkpt lat="45.3339522" lon="11.7323682"><ele>13.0</ele><time>2026-04-11T10:50:15.921Z</time></trkpt><trkpt lat="45.3338636" lon="11.7323774"><ele>13.0</ele><time>2026-04-11T10:50:16.921Z</time></trkpt><trkpt lat="45.3337789" lon="11.732386"><ele>12.999999999999998</ele><time>2026-04-11T10:50:17.92Z</time></trkpt><trkpt lat="45.3336883" lon="11.7323951"><ele>13.0</ele><time>2026-04-11T10:50:18.921Z</time></trkpt><trkpt lat="45.3335956" lon="11.7324099"><ele>12.600000000000001</ele><time>2026-04-11T10:50:19.921Z</time></trkpt><trkpt lat="45.3334958" lon="11.7324184"><ele>12.200000000000001</ele><time>2026-04-11T10:50:20.921Z</time></trkpt><trkpt lat="45.3333926" lon="11.732429"><ele>11.8</ele><time>2026-04-11T10:50:21.921Z</time></trkpt><trkpt lat="45.33329" lon="11.7324416"><ele>11.4</ele><time>2026-04-11T10:50:22.921Z</time></trkpt><trkpt lat="45.3331846" lon="11.7324589"><ele>11.0</ele><time>2026-04-11T10:50:23.921Z</time></trkpt><trkpt lat="45.333077" lon="11.732475"><ele>11.200000000000001</ele><time>2026-04-11T10:50:24.921Z</time></trkpt><trkpt lat="45.3329691" lon="11.7324828"><ele>11.4</ele><time>2026-04-11T10:50:25.921Z</time></trkpt><trkpt lat="45.3328577" lon="11.7324972"><ele>11.6</ele><time>2026-04-11T10:50:26.921Z</time></trkpt><trkpt lat="45.3327442" lon="11.732509"><ele>11.8</ele><time>2026-04-11T10:50:27.921Z</time></trkpt><trkpt lat="45.3326295" lon="11.7325214"><ele>12.0</ele><time>2026-04-11T10:50:28.921Z</time></trkpt><trkpt lat="45.3325132" lon="11.7325343"><ele>12.0</ele><time>2026-04-11T10:50:29.921Z</time></trkpt><trkpt lat="45.3323941" lon="11.7325457"><ele>12.0</ele><time>2026-04-11T10:50:30.921Z</time></trkpt><trkpt lat="45.3322756" lon="11.7325543"><ele>12.0</ele><time>2026-04-11T10:50:31.921Z</time></trkpt><trkpt lat="45.3321554" lon="11.7325665"><ele>12.0</ele><time>2026-04-11T10:50:32.921Z</time></trkpt><trkpt lat="45.3320375" lon="11.7325786"><ele>12.0</ele><time>2026-04-11T10:50:33.92Z</time></trkpt><trkpt lat="45.3319195" lon="11.7325902"><ele>12.0</ele><time>2026-04-11T10:50:34.921Z</time></trkpt><trkpt lat="45.3317999" lon="11.7325957"><ele>12.0</ele><time>2026-04-11T10:50:35.921Z</time></trkpt><trkpt lat="45.3316831" lon="11.7325959"><ele>12.0</ele><time>2026-04-11T10:50:36.921Z</time></trkpt><trkpt lat="45.3315646" lon="11.7325851"><ele>12.0</ele><time>2026-04-11T10:50:37.921Z</time></trkpt><trkpt lat="45.3314457" lon="11.7325627"><ele>12.0</ele><time>2026-04-11T10:50:38.92Z</time></trkpt><trkpt lat="45.3313224" lon="11.7325325"><ele>12.0</ele><time>2026-04-11T10:50:39.921Z</time></trkpt><trkpt lat="45.3311997" lon="11.7325002"><ele>12.0</ele><time>2026-04-11T10:50:40.921Z</time></trkpt><trkpt lat="45.3310774" lon="11.7324758"><ele>12.25</ele><time>2026-04-11T10:50:41.921Z</time></trkpt><trkpt lat="45.3309569" lon="11.7324508"><ele>12.5</ele><time>2026-04-11T10:50:42.921Z</time></trkpt><trkpt lat="45.3308359" lon="11.7324268"><ele>12.75</ele><time>2026-04-11T10:50:43.921Z</time></trkpt><trkpt lat="45.33072" lon="11.7324017"><ele>13.0</ele><time>2026-04-11T10:50:44.921Z</time></trkpt><trkpt lat="45.3306034" lon="11.7323809"><ele>13.4</ele><time>2026-04-11T10:50:45.921Z</time></trkpt><trkpt lat="45.3304937" lon="11.7323618"><ele>13.8</ele><time>2026-04-11T10:50:46.921Z</time></trkpt><trkpt lat="45.3303812" lon="11.7323461"><ele>14.2</ele><time>2026-04-11T10:50:47.921Z</time></trkpt><trkpt lat="45.3302688" lon="11.732325"><ele>14.6</ele><time>2026-04-11T10:50:48.921Z</time></trkpt><trkpt lat="45.3301577" lon="11.7323018"><ele>15.0</ele><time>2026-04-11T10:50:49.921Z</time></trkpt><trkpt lat="45.3300404" lon="11.7322733"><ele>15.0</ele><time>2026-04-11T10:50:50.921Z</time></trkpt><trkpt lat="45.3299228" lon="11.7322269"><ele>15.0</ele><time>2026-04-11T10:50:51.921Z</time></trkpt><trkpt lat="45.3298056" lon="11.7321739"><ele>15.0</ele><time>2026-04-11T10:50:52.921Z</time></trkpt><trkpt lat="45.3296873" lon="11.7321082"><ele>15.0</ele><time>2026-04-11T10:50:53.921Z</time></trkpt><trkpt lat="45.3295697" lon="11.7320361"><ele>14.5</ele><time>2026-04-11T10:50:54.921Z</time></trkpt><trkpt lat="45.3294533" lon="11.7319578"><ele>14.0</ele><time>2026-04-11T10:50:55.921Z</time></trkpt><trkpt lat="45.3293328" lon="11.7318774"><ele>13.5</ele><time>2026-04-11T10:50:56.921Z</time></trkpt><trkpt lat="45.3292099" lon="11.7318117"><ele>13.0</ele><time>2026-04-11T10:50:57.921Z</time></trkpt><trkpt lat="45.3290871" lon="11.7317529"><ele>13.0</ele><time>2026-04-11T10:50:58.921Z</time></trkpt><trkpt lat="45.328961" lon="11.7316992"><ele>13.0</ele><time>2026-04-11T10:50:59.921Z</time></trkpt><trkpt lat="45.3288328" lon="11.7316589"><ele>13.0</ele><time>2026-04-11T10:51:00.921Z</time></trkpt><trkpt lat="45.3287055" lon="11.7316204"><ele>13.0</ele><time>2026-04-11T10:51:01.921Z</time></trkpt><trkpt lat="45.3285778" lon="11.7315906"><ele>13.0</ele><time>2026-04-11T10:51:02.921Z</time></trkpt><trkpt lat="45.3284489" lon="11.7315676"><ele>13.0</ele><time>2026-04-11T10:51:03.921Z</time></trkpt><trkpt lat="45.3283153" lon="11.7315576"><ele>13.0</ele><time>2026-04-11T10:51:04.921Z</time></trkpt><trkpt lat="45.3281836" lon="11.7315487"><ele>13.0</ele><time>2026-04-11T10:51:05.921Z</time></trkpt><trkpt lat="45.3280483" lon="11.7315398"><ele>12.5</ele><time>2026-04-11T10:51:06.921Z</time></trkpt><trkpt lat="45.3279158" lon="11.7315291"><ele>12.0</ele><time>2026-04-11T10:51:07.921Z</time></trkpt><trkpt lat="45.3277829" lon="11.7315194"><ele>11.5</ele><time>2026-04-11T10:51:08.921Z</time></trkpt><trkpt lat="45.3276518" lon="11.7315173"><ele>11.0</ele><time>2026-04-11T10:51:09.92Z</time></trkpt><trkpt lat="45.3275198" lon="11.731518"><ele>11.0</ele><time>2026-04-11T10:51:10.921Z</time></trkpt><trkpt lat="45.3273912" lon="11.7315272"><ele>11.0</ele><time>2026-04-11T10:51:11.921Z</time></trkpt><trkpt lat="45.3272645" lon="11.7315478"><ele>11.0</ele><time>2026-04-11T10:51:12.921Z</time></trkpt><trkpt lat="45.3271412" lon="11.7315765"><ele>11.0</ele><time>2026-04-11T10:51:13.92Z</time></trkpt><trkpt lat="45.3270205" lon="11.7316139"><ele>11.25</ele><time>2026-04-11T10:51:14.921Z</time></trkpt><trkpt lat="45.3269028" lon="11.731648"><ele>11.5</ele><time>2026-04-11T10:51:15.921Z</time></trkpt><trkpt lat="45.3267885" lon="11.7316782"><ele>11.75</ele><time>2026-04-11T10:51:16.921Z</time></trkpt><trkpt lat="45.326674" lon="11.731708"><ele>12.0</ele><time>2026-04-11T10:51:17.921Z</time></trkpt><trkpt lat="45.3265623" lon="11.7317227"><ele>12.0</ele><time>2026-04-11T10:51:18.921Z</time></trkpt><trkpt lat="45.3264494" lon="11.7317289"><ele>12.0</ele><time>2026-04-11T10:51:19.921Z</time></trkpt><trkpt lat="45.3263318" lon="11.7317129"><ele>12.0</ele><time>2026-04-11T10:51:20.921Z</time></trkpt><trkpt lat="45.3262202" lon="11.7316839"><ele>12.0</ele><time>2026-04-11T10:51:21.921Z</time></trkpt><trkpt lat="45.3261213" lon="11.7316347"><ele>12.0</ele><time>2026-04-11T10:51:22.921Z</time></trkpt><trkpt lat="45.326033" lon="11.7315899"><ele>12.5</ele><time>2026-04-11T10:51:23.921Z</time></trkpt><trkpt lat="45.325951" lon="11.7315679"><ele>13.0</ele><time>2026-04-11T10:51:24.921Z</time></trkpt><trkpt lat="45.3258732" lon="11.7315698"><ele>13.5</ele><time>2026-04-11T10:51:25.921Z</time></trkpt><trkpt lat="45.3258066" lon="11.7316039"><ele>14.0</ele><time>2026-04-11T10:51:26.92Z</time></trkpt><trkpt lat="45.3257413" lon="11.7316702"><ele>14.5</ele><time>2026-04-11T10:51:27.921Z</time></trkpt><trkpt lat="45.3256832" lon="11.7317637"><ele>15.0</ele><time>2026-04-11T10:51:28.92Z</time></trkpt><trkpt lat="45.3256429" lon="11.7318762"><ele>14.4</ele><time>2026-04-11T10:51:29.921Z</time></trkpt><trkpt lat="45.3256037" lon="11.7320062"><ele>13.8</ele><time>2026-04-11T10:51:30.921Z</time></trkpt><trkpt lat="45.3255608" lon="11.7321438"><ele>13.2</ele><time>2026-04-11T10:51:31.921Z</time></trkpt><trkpt lat="45.3255101" lon="11.7322803"><ele>12.6</ele><time>2026-04-11T10:51:32.921Z</time></trkpt><trkpt lat="45.3254486" lon="11.7324119"><ele>12.0</ele><time>2026-04-11T10:51:33.921Z</time></trkpt><trkpt lat="45.3253775" lon="11.7325334"><ele>12.25</ele><time>2026-04-11T10:51:34.921Z</time></trkpt><trkpt lat="45.3252958" lon="11.7326471"><ele>12.5</ele><time>2026-04-11T10:51:35.921Z</time></trkpt><trkpt lat="45.3252047" lon="11.7327449"><ele>12.75</ele><time>2026-04-11T10:51:36.921Z</time></trkpt><trkpt lat="45.32511" lon="11.7328307"><ele>13.0</ele><time>2026-04-11T10:51:37.921Z</time></trkpt><trkpt lat="45.3250094" lon="11.732907"><ele>13.0</ele><time>2026-04-11T10:51:38.921Z</time></trkpt><trkpt lat="45.3249072" lon="11.732977"><ele>13.0</ele><time>2026-04-11T10:51:39.921Z</time></trkpt><trkpt lat="45.3248045" lon="11.7330303"><ele>13.0</ele><time>2026-04-11T10:51:40.921Z</time></trkpt><trkpt lat="45.3247042" lon="11.7330635"><ele>13.0</ele><time>2026-04-11T10:51:41.921Z</time></trkpt><trkpt lat="45.3246078" lon="11.7330784"><ele>13.0</ele><time>2026-04-11T10:51:42.921Z</time></trkpt><trkpt lat="45.3245244" lon="11.7330961"><ele>13.499999999999998</ele><time>2026-04-11T10:51:43.92Z</time></trkpt><trkpt lat="45.3244468" lon="11.7331256"><ele>14.0</ele><time>2026-04-11T10:51:44.921Z</time></trkpt><trkpt lat="45.3243747" lon="11.733143"><ele>14.5</ele><time>2026-04-11T10:51:45.921Z</time></trkpt><trkpt lat="45.3243096" lon="11.7331599"><ele>15.0</ele><time>2026-04-11T10:51:46.921Z</time></trkpt><trkpt lat="45.3241926" lon="11.7331878"><ele>15.499999999999998</ele><time>2026-04-11T10:51:48.92Z</time></trkpt><trkpt lat="45.3240859" lon="11.7331963"><ele>16.0</ele><time>2026-04-11T10:51:50.921Z</time></trkpt><trkpt lat="45.3239984" lon="11.7331905"><ele>16.0</ele><time>2026-04-11T10:51:52.921Z</time></trkpt><trkpt lat="45.3239365" lon="11.7332081"><ele>16.0</ele><time>2026-04-11T10:51:54.921Z</time></trkpt></trkseg><trkseg><trkpt lat="45.3239368" lon="11.73322"><ele>15.999999999999998</ele><time>2026-04-11T12:22:26.906Z</time></trkpt><trkpt lat="45.3240076" lon="11.7331923"><ele>16.0</ele><time>2026-04-11T12:22:29.906Z</time></trkpt><trkpt lat="45.324084" lon="11.7331894"><ele>16.0</ele><time>2026-04-11T12:22:32.906Z</time></trkpt><trkpt lat="45.3241475" lon="11.7331846"><ele>16.0</ele><time>2026-04-11T12:22:34.906Z</time></trkpt><trkpt lat="45.3242203" lon="11.7331786"><ele>15.999999999999998</ele><time>2026-04-11T12:22:36.906Z</time></trkpt><trkpt lat="45.3242866" lon="11.7331318"><ele>16.0</ele><time>2026-04-11T12:22:39.906Z</time></trkpt><trkpt lat="45.32419" lon="11.7330557"><ele>15.999999999999998</ele><time>2026-04-11T12:22:49.906Z</time></trkpt><trkpt lat="45.324121" lon="11.7330714"><ele>16.0</ele><time>2026-04-11T12:22:50.906Z</time></trkpt><trkpt lat="45.3240473" lon="11.7330821"><ele>16.0</ele><time>2026-04-11T12:22:51.906Z</time></trkpt><trkpt lat="45.3239519" lon="11.7330852"><ele>16.0</ele><time>2026-04-11T12:22:52.906Z</time></trkpt><trkpt lat="45.3238484" lon="11.7330877"><ele>15.999999999999998</ele><time>2026-04-11T12:22:53.906Z</time></trkpt><trkpt lat="45.3237448" lon="11.7330793"><ele>16.0</ele><time>2026-04-11T12:22:54.906Z</time></trkpt><trkpt lat="45.3236232" lon="11.7330767"><ele>16.25</ele><time>2026-04-11T12:22:55.906Z</time></trkpt><trkpt lat="45.3234797" lon="11.7330494"><ele>16.5</ele><time>2026-04-11T12:22:56.906Z</time></trkpt><trkpt lat="45.3233586" lon="11.7330475"><ele>16.75</ele><time>2026-04-11T12:22:57.906Z</time></trkpt><trkpt lat="45.3232425" lon="11.7330218"><ele>17.0</ele><time>2026-04-11T12:22:58.906Z</time></trkpt><trkpt lat="45.3231164" lon="11.732966"><ele>20.5</ele><time>2026-04-11T12:22:59.906Z</time></trkpt><trkpt lat="45.3229978" lon="11.7329138"><ele>24.0</ele><time>2026-04-11T12:23:00.906Z</time></trkpt><trkpt lat="45.3228859" lon="11.7328703"><ele>27.5</ele><time>2026-04-11T12:23:01.905Z</time></trkpt><trkpt lat="45.3227903" lon="11.7328283"><ele>31.0</ele><time>2026-04-11T12:23:02.906Z</time></trkpt><trkpt lat="45.3226819" lon="11.7328054"><ele>31.0</ele><time>2026-04-11T12:23:03.906Z</time></trkpt><trkpt lat="45.3226082" lon="11.7328191"><ele>31.0</ele><time>2026-04-11T12:23:04.906Z</time></trkpt><trkpt lat="45.3225258" lon="11.7328591"><ele>31.0</ele><time>2026-04-11T12:23:05.906Z</time></trkpt><trkpt lat="45.322484" lon="11.7329509"><ele>31.0</ele><time>2026-04-11T12:23:06.906Z</time></trkpt><trkpt lat="45.3224423" lon="11.7330783"><ele>31.0</ele><time>2026-04-11T12:23:07.906Z</time></trkpt><trkpt lat="45.3224143" lon="11.7332429"><ele>31.0</ele><time>2026-04-11T12:23:08.906Z</time></trkpt><trkpt lat="45.3223854" lon="11.7333942"><ele>31.0</ele><time>2026-04-11T12:23:09.906Z</time></trkpt><trkpt lat="45.3223745" lon="11.7335443"><ele>31.0</ele><time>2026-04-11T12:23:10.906Z</time></trkpt><trkpt lat="45.3223723" lon="11.7336536"><ele>31.0</ele><time>2026-04-11T12:23:11.906Z</time></trkpt><trkpt lat="45.3223408" lon="11.7337925"><ele>31.0</ele><time>2026-04-11T12:23:13.905Z</time></trkpt><trkpt lat="45.3222598" lon="11.7338746"><ele>33.5</ele><time>2026-04-11T12:23:15.906Z</time></trkpt><trkpt lat="45.322167" lon="11.7338779"><ele>36.0</ele><time>2026-04-11T12:23:17.906Z</time></trkpt><trkpt lat="45.3221081" lon="11.7338037"><ele>38.5</ele><time>2026-04-11T12:23:18.906Z</time></trkpt><trkpt lat="45.3220698" lon="11.7337309"><ele>41.0</ele><time>2026-04-11T12:23:19.906Z</time></trkpt><trkpt lat="45.3220485" lon="11.7336138"><ele>43.5</ele><time>2026-04-11T12:23:20.906Z</time></trkpt><trkpt lat="45.3220476" lon="11.7334579"><ele>46.0</ele><time>2026-04-11T12:23:21.906Z</time></trkpt><trkpt lat="45.3220424" lon="11.7333331"><ele>46.0</ele><time>2026-04-11T12:23:22.906Z</time></trkpt><trkpt lat="45.322029" lon="11.733239"><ele>46.0</ele><time>2026-04-11T12:23:23.906Z</time></trkpt><trkpt lat="45.3219999" lon="11.7331561"><ele>46.0</ele><time>2026-04-11T12:23:24.906Z</time></trkpt><trkpt lat="45.3218949" lon="11.7331003"><ele>46.0</ele><time>2026-04-11T12:23:26.906Z</time></trkpt><trkpt lat="45.321803" lon="11.7332102"><ele>46.0</ele><time>2026-04-11T12:23:28.906Z</time></trkpt><trkpt lat="45.3217802" lon="11.7333099"><ele>46.0</ele><time>2026-04-11T12:23:29.905Z</time></trkpt><trkpt lat="45.321779" lon="11.7334252"><ele>46.4</ele><time>2026-04-11T12:23:30.906Z</time></trkpt><trkpt lat="45.321804" lon="11.7335679"><ele>46.8</ele><time>2026-04-11T12:23:31.906Z</time></trkpt><trkpt lat="45.3218265" lon="11.7337062"><ele>47.199999999999996</ele><time>2026-04-11T12:23:32.906Z</time></trkpt><trkpt lat="45.321842" lon="11.7338169"><ele>47.599999999999994</ele><time>2026-04-11T12:23:33.906Z</time></trkpt><trkpt lat="45.3218463" lon="11.7339085"><ele>48.0</ele><time>2026-04-11T12:23:34.906Z</time></trkpt><trkpt lat="45.3217641" lon="11.7340196"><ele>48.0</ele><time>2026-04-11T12:23:36.906Z</time></trkpt><trkpt lat="45.3216718" lon="11.733953"><ele>48.0</ele><time>2026-04-11T12:23:38.906Z</time></trkpt><trkpt lat="45.3216308" lon="11.7338713"><ele>48.0</ele><time>2026-04-11T12:23:39.906Z</time></trkpt><trkpt lat="45.3216104" lon="11.7336749"><ele>48.0</ele><time>2026-04-11T12:23:40.906Z</time></trkpt><trkpt lat="45.321587" lon="11.7334767"><ele>47.599999999999994</ele><time>2026-04-11T12:23:41.906Z</time></trkpt><trkpt lat="45.3215652" lon="11.733316"><ele>47.199999999999996</ele><time>2026-04-11T12:23:42.906Z</time></trkpt><trkpt lat="45.3215314" lon="11.7331793"><ele>46.8</ele><time>2026-04-11T12:23:43.906Z</time></trkpt><trkpt lat="45.3214814" lon="11.7331198"><ele>46.4</ele><time>2026-04-11T12:23:44.906Z</time></trkpt><trkpt lat="45.3214106" lon="11.7330801"><ele>46.0</ele><time>2026-04-11T12:23:45.906Z</time></trkpt><trkpt lat="45.3212975" lon="11.7331113"><ele>49.0</ele><time>2026-04-11T12:23:47.906Z</time></trkpt><trkpt lat="45.3212863" lon="11.7332396"><ele>52.0</ele><time>2026-04-11T12:23:48.906Z</time></trkpt><trkpt lat="45.3212981" lon="11.7333635"><ele>54.99999999999999</ele><time>2026-04-11T12:23:49.906Z</time></trkpt><trkpt lat="45.3213201" lon="11.7334879"><ele>58.0</ele><time>2026-04-11T12:23:50.906Z</time></trkpt><trkpt lat="45.3213595" lon="11.7335923"><ele>61.0</ele><time>2026-04-11T12:23:51.906Z</time></trkpt><trkpt lat="45.3213501" lon="11.7337314"><ele>61.0</ele><time>2026-04-11T12:23:53.906Z</time></trkpt><trkpt lat="45.3212474" lon="11.733764"><ele>61.0</ele><time>2026-04-11T12:23:55.906Z</time></trkpt><trkpt lat="45.3211853" lon="11.7337394"><ele>61.0</ele><time>2026-04-11T12:23:56.906Z</time></trkpt><trkpt lat="45.3210507" lon="11.7336331"><ele>61.0</ele><time>2026-04-11T12:23:57.906Z</time></trkpt><trkpt lat="45.3209055" lon="11.7335432"><ele>61.0</ele><time>2026-04-11T12:23:58.906Z</time></trkpt><trkpt lat="45.320747" lon="11.7334542"><ele>61.0</ele><time>2026-04-11T12:23:59.906Z</time></trkpt><trkpt lat="45.3205671" lon="11.7333745"><ele>61.0</ele><time>2026-04-11T12:24:00.906Z</time></trkpt><trkpt lat="45.3204423" lon="11.7332913"><ele>61.599999999999994</ele><time>2026-04-11T12:24:01.906Z</time></trkpt><trkpt lat="45.3203053" lon="11.7332073"><ele>62.199999999999996</ele><time>2026-04-11T12:24:02.906Z</time></trkpt><trkpt lat="45.3202188" lon="11.7331649"><ele>62.800000000000004</ele><time>2026-04-11T12:24:03.906Z</time></trkpt><trkpt lat="45.3201258" lon="11.7331362"><ele>63.400000000000006</ele><time>2026-04-11T12:24:04.906Z</time></trkpt><trkpt lat="45.320036" lon="11.7331295"><ele>64.0</ele><time>2026-04-11T12:24:05.906Z</time></trkpt><trkpt lat="45.3199444" lon="11.7331381"><ele>63.99999999999999</ele><time>2026-04-11T12:24:06.906Z</time></trkpt><trkpt lat="45.3198496" lon="11.7331463"><ele>64.0</ele><time>2026-04-11T12:24:07.906Z</time></trkpt><trkpt lat="45.3197604" lon="11.7331495"><ele>64.0</ele><time>2026-04-11T12:24:08.906Z</time></trkpt><trkpt lat="45.3196805" lon="11.7331538"><ele>64.0</ele><time>2026-04-11T12:24:09.906Z</time></trkpt><trkpt lat="45.3196039" lon="11.7331519"><ele>63.99999999999999</ele><time>2026-04-11T12:24:10.906Z</time></trkpt><trkpt lat="45.31953" lon="11.7331223"><ele>64.0</ele><time>2026-04-11T12:24:11.906Z</time></trkpt><trkpt lat="45.3194582" lon="11.7330777"><ele>62.49999999999999</ele><time>2026-04-11T12:24:12.906Z</time></trkpt><trkpt lat="45.319403" lon="11.7329974"><ele>61.0</ele><time>2026-04-11T12:24:13.906Z</time></trkpt><trkpt lat="45.3193604" lon="11.7328997"><ele>59.5</ele><time>2026-04-11T12:24:14.906Z</time></trkpt><trkpt lat="45.3193221" lon="11.7327911"><ele>58.0</ele><time>2026-04-11T12:24:15.906Z</time></trkpt><trkpt lat="45.319285" lon="11.7326903"><ele>56.49999999999999</ele><time>2026-04-11T12:24:16.906Z</time></trkpt><trkpt lat="45.3192376" lon="11.7326101"><ele>55.0</ele><time>2026-04-11T12:24:17.906Z</time></trkpt><trkpt lat="45.3191825" lon="11.732546"><ele>54.99999999999999</ele><time>2026-04-11T12:24:18.906Z</time></trkpt><trkpt lat="45.3191163" lon="11.7325177"><ele>55.0</ele><time>2026-04-11T12:24:19.906Z</time></trkpt><trkpt lat="45.3190441" lon="11.7325259"><ele>55.0</ele><time>2026-04-11T12:24:20.906Z</time></trkpt><trkpt lat="45.3189626" lon="11.7325499"><ele>55.0</ele><time>2026-04-11T12:24:21.906Z</time></trkpt><trkpt lat="45.3188893" lon="11.7325676"><ele>55.0</ele><time>2026-04-11T12:24:22.906Z</time></trkpt><trkpt lat="45.3188176" lon="11.7325638"><ele>54.99999999999999</ele><time>2026-04-11T12:24:23.906Z</time></trkpt><trkpt lat="45.3187543" lon="11.7325257"><ele>55.0</ele><time>2026-04-11T12:24:24.906Z</time></trkpt><trkpt lat="45.3187038" lon="11.7324554"><ele>53.33333333333333</ele><time>2026-04-11T12:24:25.906Z</time></trkpt><trkpt lat="45.318676" lon="11.7323693"><ele>51.666666666666664</ele><time>2026-04-11T12:24:26.906Z</time></trkpt><trkpt lat="45.3186691" lon="11.7322531"><ele>50.0</ele><time>2026-04-11T12:24:27.906Z</time></trkpt><trkpt lat="45.3186559" lon="11.7321292"><ele>48.33333333333333</ele><time>2026-04-11T12:24:28.906Z</time></trkpt><trkpt lat="45.3186224" lon="11.7320244"><ele>46.666666666666664</ele><time>2026-04-11T12:24:29.905Z</time></trkpt><trkpt lat="45.3185661" lon="11.7319321"><ele>45.0</ele><time>2026-04-11T12:24:30.906Z</time></trkpt><trkpt lat="45.3184951" lon="11.731856"><ele>45.0</ele><time>2026-04-11T12:24:31.906Z</time></trkpt><trkpt lat="45.3183748" lon="11.7317996"><ele>45.0</ele><time>2026-04-11T12:24:32.906Z</time></trkpt><trkpt lat="45.3182643" lon="11.7317459"><ele>45.0</ele><time>2026-04-11T12:24:33.906Z</time></trkpt><trkpt lat="45.3181577" lon="11.7316868"><ele>45.0</ele><time>2026-04-11T12:24:34.906Z</time></trkpt><trkpt lat="45.3180613" lon="11.7316192"><ele>41.4</ele><time>2026-04-11T12:24:35.906Z</time></trkpt><trkpt lat="45.3179712" lon="11.7315287"><ele>37.8</ele><time>2026-04-11T12:24:36.906Z</time></trkpt><trkpt lat="45.3178904" lon="11.7314102"><ele>34.2</ele><time>2026-04-11T12:24:37.906Z</time></trkpt><trkpt lat="45.317832" lon="11.7312805"><ele>30.6</ele><time>2026-04-11T12:24:38.906Z</time></trkpt><trkpt lat="45.3177884" lon="11.7311564"><ele>27.0</ele><time>2026-04-11T12:24:39.906Z</time></trkpt><trkpt lat="45.3177413" lon="11.7310613"><ele>27.0</ele><time>2026-04-11T12:24:40.906Z</time></trkpt><trkpt lat="45.3176743" lon="11.7310077"><ele>27.000000000000004</ele><time>2026-04-11T12:24:41.906Z</time></trkpt><trkpt lat="45.317596" lon="11.7310002"><ele>27.000000000000004</ele><time>2026-04-11T12:24:42.906Z</time></trkpt><trkpt lat="45.3175151" lon="11.7310238"><ele>27.0</ele><time>2026-04-11T12:24:43.906Z</time></trkpt><trkpt lat="45.3174375" lon="11.7310865"><ele>27.0</ele><time>2026-04-11T12:24:44.906Z</time></trkpt><trkpt lat="45.317329" lon="11.7311864"><ele>25.25</ele><time>2026-04-11T12:24:45.906Z</time></trkpt><trkpt lat="45.3172307" lon="11.7312822"><ele>23.5</ele><time>2026-04-11T12:24:46.906Z</time></trkpt><trkpt lat="45.3171186" lon="11.7313828"><ele>21.75</ele><time>2026-04-11T12:24:47.906Z</time></trkpt><trkpt lat="45.3169944" lon="11.7314776"><ele>20.0</ele><time>2026-04-11T12:24:48.906Z</time></trkpt><trkpt lat="45.3168785" lon="11.7315543"><ele>20.0</ele><time>2026-04-11T12:24:49.906Z</time></trkpt><trkpt lat="45.3167666" lon="11.7316117"><ele>20.0</ele><time>2026-04-11T12:24:50.906Z</time></trkpt><trkpt lat="45.3166548" lon="11.7316462"><ele>20.0</ele><time>2026-04-11T12:24:51.906Z</time></trkpt><trkpt lat="45.3165493" lon="11.7316591"><ele>20.0</ele><time>2026-04-11T12:24:52.906Z</time></trkpt><trkpt lat="45.3164473" lon="11.7316416"><ele>20.0</ele><time>2026-04-11T12:24:53.906Z</time></trkpt><trkpt lat="45.3163466" lon="11.7315993"><ele>18.75</ele><time>2026-04-11T12:24:54.906Z</time></trkpt><trkpt lat="45.3162437" lon="11.7315311"><ele>17.5</ele><time>2026-04-11T12:24:55.906Z</time></trkpt><trkpt lat="45.3161371" lon="11.7314389"><ele>16.25</ele><time>2026-04-11T12:24:56.906Z</time></trkpt><trkpt lat="45.3160235" lon="11.7313244"><ele>15.0</ele><time>2026-04-11T12:24:57.906Z</time></trkpt><trkpt lat="45.3159158" lon="11.7312311"><ele>15.0</ele><time>2026-04-11T12:24:58.906Z</time></trkpt><trkpt lat="45.3158174" lon="11.7311428"><ele>15.0</ele><time>2026-04-11T12:24:59.906Z</time></trkpt><trkpt lat="45.3157311" lon="11.731059"><ele>15.0</ele><time>2026-04-11T12:25:00.906Z</time></trkpt><trkpt lat="45.3156402" lon="11.7309868"><ele>15.0</ele><time>2026-04-11T12:25:01.906Z</time></trkpt><trkpt lat="45.3155445" lon="11.7309135"><ele>15.0</ele><time>2026-04-11T12:25:02.906Z</time></trkpt><trkpt lat="45.3154451" lon="11.7308389"><ele>15.0</ele><time>2026-04-11T12:25:03.906Z</time></trkpt><trkpt lat="45.3153327" lon="11.7307843"><ele>15.0</ele><time>2026-04-11T12:25:04.906Z</time></trkpt><trkpt lat="45.3152089" lon="11.7307492"><ele>15.0</ele><time>2026-04-11T12:25:05.906Z</time></trkpt><trkpt lat="45.3150766" lon="11.7307239"><ele>15.0</ele><time>2026-04-11T12:25:06.906Z</time></trkpt><trkpt lat="45.3149431" lon="11.7306978"><ele>15.0</ele><time>2026-04-11T12:25:07.906Z</time></trkpt><trkpt lat="45.3148022" lon="11.7306503"><ele>15.0</ele><time>2026-04-11T12:25:08.906Z</time></trkpt><trkpt lat="45.3146253" lon="11.7305116"><ele>15.0</ele><time>2026-04-11T12:25:09.906Z</time></trkpt><trkpt lat="45.3144496" lon="11.7303576"><ele>16.666666666666668</ele><time>2026-04-11T12:25:10.906Z</time></trkpt><trkpt lat="45.3142814" lon="11.7301945"><ele>18.333333333333336</ele><time>2026-04-11T12:25:11.905Z</time></trkpt><trkpt lat="45.3141289" lon="11.7300554"><ele>20.0</ele><time>2026-04-11T12:25:12.905Z</time></trkpt><trkpt lat="45.3139952" lon="11.7299366"><ele>23.5</ele><time>2026-04-11T12:25:13.906Z</time></trkpt><trkpt lat="45.313883" lon="11.7298361"><ele>27.0</ele><time>2026-04-11T12:25:14.906Z</time></trkpt><trkpt lat="45.3137733" lon="11.7297319"><ele>30.5</ele><time>2026-04-11T12:25:15.906Z</time></trkpt><trkpt lat="45.3137239" lon="11.7296064"><ele>34.0</ele><time>2026-04-11T12:25:16.906Z</time></trkpt><trkpt lat="45.3136745" lon="11.7294558"><ele>32.8</ele><time>2026-04-11T12:25:17.906Z</time></trkpt><trkpt lat="45.3136463" lon="11.7292973"><ele>31.599999999999998</ele><time>2026-04-11T12:25:18.906Z</time></trkpt><trkpt lat="45.3136291" lon="11.7291581"><ele>30.4</ele><time>2026-04-11T12:25:19.906Z</time></trkpt><trkpt lat="45.3136176" lon="11.729055"><ele>29.2</ele><time>2026-04-11T12:25:20.905Z</time></trkpt><trkpt lat="45.3135792" lon="11.7289107"><ele>28.0</ele><time>2026-04-11T12:25:22.906Z</time></trkpt><trkpt lat="45.3134926" lon="11.7288558"><ele>28.0</ele><time>2026-04-11T12:25:24.906Z</time></trkpt><trkpt lat="45.3134059" lon="11.7289461"><ele>27.999999999999996</ele><time>2026-04-11T12:25:26.906Z</time></trkpt><trkpt lat="45.3133841" lon="11.7290331"><ele>27.999999999999996</ele><time>2026-04-11T12:25:27.906Z</time></trkpt><trkpt lat="45.3133654" lon="11.7292355"><ele>28.0</ele><time>2026-04-11T12:25:29.906Z</time></trkpt><trkpt lat="45.3133519" lon="11.72934"><ele>28.0</ele><time>2026-04-11T12:25:30.906Z</time></trkpt><trkpt lat="45.3133219" lon="11.7294313"><ele>28.4</ele><time>2026-04-11T12:25:31.906Z</time></trkpt><trkpt lat="45.3132655" lon="11.7295031"><ele>28.799999999999997</ele><time>2026-04-11T12:25:32.906Z</time></trkpt><trkpt lat="45.3131747" lon="11.7295489"><ele>29.2</ele><time>2026-04-11T12:25:33.906Z</time></trkpt><trkpt lat="45.3130697" lon="11.7295748"><ele>29.6</ele><time>2026-04-11T12:25:34.906Z</time></trkpt><trkpt lat="45.3129542" lon="11.7296038"><ele>30.0</ele><time>2026-04-11T12:25:35.906Z</time></trkpt><trkpt lat="45.3128274" lon="11.7296183"><ele>30.0</ele><time>2026-04-11T12:25:36.906Z</time></trkpt><trkpt lat="45.312726" lon="11.7296109"><ele>30.0</ele><time>2026-04-11T12:25:37.906Z</time></trkpt><trkpt lat="45.3126525" lon="11.7296122"><ele>30.0</ele><time>2026-04-11T12:25:38.906Z</time></trkpt><trkpt lat="45.3125801" lon="11.7296098"><ele>30.0</ele><time>2026-04-11T12:25:39.906Z</time></trkpt><trkpt lat="45.3125099" lon="11.7296071"><ele>30.0</ele><time>2026-04-11T12:25:40.906Z</time></trkpt><trkpt lat="45.3124258" lon="11.7296136"><ele>30.0</ele><time>2026-04-11T12:25:41.906Z</time></trkpt><trkpt lat="45.312341" lon="11.7296236"><ele>27.75</ele><time>2026-04-11T12:25:42.905Z</time></trkpt><trkpt lat="45.3122276" lon="11.7296559"><ele>25.5</ele><time>2026-04-11T12:25:43.906Z</time></trkpt><trkpt lat="45.3121096" lon="11.7297046"><ele>23.25</ele><time>2026-04-11T12:25:44.906Z</time></trkpt><trkpt lat="45.3119808" lon="11.7297656"><ele>21.0</ele><time>2026-04-11T12:25:45.906Z</time></trkpt><trkpt lat="45.3118524" lon="11.7298082"><ele>21.0</ele><time>2026-04-11T12:25:46.906Z</time></trkpt><trkpt lat="45.3117195" lon="11.7298661"><ele>21.0</ele><time>2026-04-11T12:25:47.905Z</time></trkpt><trkpt lat="45.3115784" lon="11.7299314"><ele>21.0</ele><time>2026-04-11T12:25:48.906Z</time></trkpt><trkpt lat="45.3114321" lon="11.7300087"><ele>21.0</ele><time>2026-04-11T12:25:49.906Z</time></trkpt><trkpt lat="45.3112969" lon="11.7300861"><ele>21.75</ele><time>2026-04-11T12:25:50.906Z</time></trkpt><trkpt lat="45.3111759" lon="11.7301624"><ele>22.5</ele><time>2026-04-11T12:25:51.906Z</time></trkpt><trkpt lat="45.3110601" lon="11.7302265"><ele>23.25</ele><time>2026-04-11T12:25:52.906Z</time></trkpt><trkpt lat="45.3109415" lon="11.7302497"><ele>24.0</ele><time>2026-04-11T12:25:53.906Z</time></trkpt><trkpt lat="45.3108178" lon="11.7302641"><ele>24.0</ele><time>2026-04-11T12:25:54.905Z</time></trkpt><trkpt lat="45.3106967" lon="11.7302463"><ele>24.0</ele><time>2026-04-11T12:25:55.906Z</time></trkpt><trkpt lat="45.310576" lon="11.730204"><ele>24.0</ele><time>2026-04-11T12:25:56.906Z</time></trkpt><trkpt lat="45.3104511" lon="11.7301492"><ele>24.0</ele><time>2026-04-11T12:25:57.906Z</time></trkpt><trkpt lat="45.3103278" lon="11.7300901"><ele>22.5</ele><time>2026-04-11T12:25:58.906Z</time></trkpt><trkpt lat="45.3102026" lon="11.7300415"><ele>21.0</ele><time>2026-04-11T12:25:59.906Z</time></trkpt><trkpt lat="45.3100703" lon="11.7299793"><ele>19.5</ele><time>2026-04-11T12:26:00.906Z</time></trkpt><trkpt lat="45.3099461" lon="11.7299085"><ele>18.0</ele><time>2026-04-11T12:26:01.906Z</time></trkpt><trkpt lat="45.309826" lon="11.7298282"><ele>18.75</ele><time>2026-04-11T12:26:02.906Z</time></trkpt><trkpt lat="45.3097099" lon="11.7297464"><ele>19.5</ele><time>2026-04-11T12:26:03.906Z</time></trkpt><trkpt lat="45.3096041" lon="11.7296483"><ele>20.25</ele><time>2026-04-11T12:26:04.906Z</time></trkpt><trkpt lat="45.3095016" lon="11.7295496"><ele>21.0</ele><time>2026-04-11T12:26:05.905Z</time></trkpt><trkpt lat="45.3094046" lon="11.729443"><ele>21.4</ele><time>2026-04-11T12:26:06.906Z</time></trkpt><trkpt lat="45.3093112" lon="11.7293357"><ele>21.8</ele><time>2026-04-11T12:26:07.906Z</time></trkpt><trkpt lat="45.3092268" lon="11.7292342"><ele>22.2</ele><time>2026-04-11T12:26:08.906Z</time></trkpt><trkpt lat="45.309147" lon="11.7291393"><ele>22.599999999999998</ele><time>2026-04-11T12:26:09.906Z</time></trkpt><trkpt lat="45.3090693" lon="11.7290475"><ele>23.0</ele><time>2026-04-11T12:26:10.906Z</time></trkpt><trkpt lat="45.3089979" lon="11.728965"><ele>23.0</ele><time>2026-04-11T12:26:11.906Z</time></trkpt><trkpt lat="45.3089344" lon="11.728889"><ele>23.0</ele><time>2026-04-11T12:26:12.906Z</time></trkpt><trkpt lat="45.3088821" lon="11.7288256"><ele>23.0</ele><time>2026-04-11T12:26:13.906Z</time></trkpt><trkpt lat="45.3088129" lon="11.7287348"><ele>23.0</ele><time>2026-04-11T12:26:15.906Z</time></trkpt><trkpt lat="45.3087186" lon="11.7286299"><ele>23.0</ele><time>2026-04-11T12:26:17.906Z</time></trkpt><trkpt lat="45.3086565" lon="11.7285751"><ele>23.0</ele><time>2026-04-11T12:26:18.906Z</time></trkpt><trkpt lat="45.3085963" lon="11.7285182"><ele>23.2</ele><time>2026-04-11T12:26:19.906Z</time></trkpt><trkpt lat="45.308529" lon="11.7284437"><ele>23.4</ele><time>2026-04-11T12:26:20.906Z</time></trkpt><trkpt lat="45.3084626" lon="11.7283456"><ele>23.599999999999998</ele><time>2026-04-11T12:26:21.906Z</time></trkpt><trkpt lat="45.3083927" lon="11.7282274"><ele>23.799999999999997</ele><time>2026-04-11T12:26:22.906Z</time></trkpt><trkpt lat="45.3082993" lon="11.7280642"><ele>24.0</ele><time>2026-04-11T12:26:23.906Z</time></trkpt><trkpt lat="45.3081768" lon="11.7278928"><ele>23.75</ele><time>2026-04-11T12:26:24.906Z</time></trkpt><trkpt lat="45.308066" lon="11.7277374"><ele>23.5</ele><time>2026-04-11T12:26:25.906Z</time></trkpt><trkpt lat="45.3079636" lon="11.7275873"><ele>23.25</ele><time>2026-04-11T12:26:26.905Z</time></trkpt><trkpt lat="45.3078627" lon="11.7274418"><ele>23.0</ele><time>2026-04-11T12:26:27.906Z</time></trkpt><trkpt lat="45.3077633" lon="11.7273015"><ele>23.5</ele><time>2026-04-11T12:26:28.905Z</time></trkpt><trkpt lat="45.3076633" lon="11.7271683"><ele>24.0</ele><time>2026-04-11T12:26:29.906Z</time></trkpt><trkpt lat="45.3075863" lon="11.7270462"><ele>24.5</ele><time>2026-04-11T12:26:30.906Z</time></trkpt><trkpt lat="45.3075022" lon="11.7269361"><ele>25.0</ele><time>2026-04-11T12:26:31.906Z</time></trkpt><trkpt lat="45.3074144" lon="11.7268227"><ele>25.5</ele><time>2026-04-11T12:26:32.906Z</time></trkpt><trkpt lat="45.3073007" lon="11.7267256"><ele>26.0</ele><time>2026-04-11T12:26:33.906Z</time></trkpt><trkpt lat="45.3071696" lon="11.7266256"><ele>26.5</ele><time>2026-04-11T12:26:34.906Z</time></trkpt><trkpt lat="45.3070303" lon="11.7265056"><ele>27.0</ele><time>2026-04-11T12:26:35.906Z</time></trkpt><trkpt lat="45.3068872" lon="11.7263659"><ele>27.0</ele><time>2026-04-11T12:26:36.906Z</time></trkpt><trkpt lat="45.3067422" lon="11.7262227"><ele>27.0</ele><time>2026-04-11T12:26:37.906Z</time></trkpt><trkpt lat="45.3065913" lon="11.7260849"><ele>27.0</ele><time>2026-04-11T12:26:38.906Z</time></trkpt><trkpt lat="45.3064475" lon="11.7259509"><ele>27.333333333333336</ele><time>2026-04-11T12:26:39.906Z</time></trkpt><trkpt lat="45.306315" lon="11.7258194"><ele>27.666666666666668</ele><time>2026-04-11T12:26:40.906Z</time></trkpt><trkpt lat="45.3061884" lon="11.7257005"><ele>28.0</ele><time>2026-04-11T12:26:41.906Z</time></trkpt><trkpt lat="45.3060695" lon="11.7255771"><ele>28.0</ele><time>2026-04-11T12:26:42.906Z</time></trkpt><trkpt lat="45.3059516" lon="11.7254562"><ele>28.0</ele><time>2026-04-11T12:26:43.906Z</time></trkpt><trkpt lat="45.3058347" lon="11.7253253"><ele>28.0</ele><time>2026-04-11T12:26:44.906Z</time></trkpt><trkpt lat="45.3057171" lon="11.7251886"><ele>28.0</ele><time>2026-04-11T12:26:45.906Z</time></trkpt><trkpt lat="45.3056119" lon="11.7250523"><ele>28.333333333333336</ele><time>2026-04-11T12:26:46.906Z</time></trkpt><trkpt lat="45.3055055" lon="11.7249006"><ele>28.666666666666664</ele><time>2026-04-11T12:26:47.906Z</time></trkpt><trkpt lat="45.305405" lon="11.7247379"><ele>29.0</ele><time>2026-04-11T12:26:48.906Z</time></trkpt><trkpt lat="45.3053038" lon="11.7245747"><ele>29.0</ele><time>2026-04-11T12:26:49.906Z</time></trkpt><trkpt lat="45.305217" lon="11.7244023"><ele>29.0</ele><time>2026-04-11T12:26:50.906Z</time></trkpt><trkpt lat="45.3051366" lon="11.7242256"><ele>29.0</ele><time>2026-04-11T12:26:51.906Z</time></trkpt><trkpt lat="45.3050837" lon="11.7240346"><ele>29.0</ele><time>2026-04-11T12:26:52.906Z</time></trkpt><trkpt lat="45.3050461" lon="11.7238328"><ele>29.5</ele><time>2026-04-11T12:26:53.906Z</time></trkpt><trkpt lat="45.3050183" lon="11.7236339"><ele>30.0</ele><time>2026-04-11T12:26:54.906Z</time></trkpt><trkpt lat="45.3049858" lon="11.7234343"><ele>30.5</ele><time>2026-04-11T12:26:55.906Z</time></trkpt><trkpt lat="45.3049338" lon="11.7232406"><ele>31.0</ele><time>2026-04-11T12:26:56.906Z</time></trkpt><trkpt lat="45.304862" lon="11.7230566"><ele>31.75</ele><time>2026-04-11T12:26:57.906Z</time></trkpt><trkpt lat="45.3047694" lon="11.7228925"><ele>32.5</ele><time>2026-04-11T12:26:58.906Z</time></trkpt><trkpt lat="45.3046752" lon="11.722734"><ele>33.25</ele><time>2026-04-11T12:26:59.906Z</time></trkpt><trkpt lat="45.3045927" lon="11.7225716"><ele>34.0</ele><time>2026-04-11T12:27:00.906Z</time></trkpt><trkpt lat="45.3045365" lon="11.722398"><ele>34.66666666666667</ele><time>2026-04-11T12:27:01.906Z</time></trkpt><trkpt lat="45.3045079" lon="11.7221956"><ele>35.333333333333336</ele><time>2026-04-11T12:27:02.906Z</time></trkpt><trkpt lat="45.3044947" lon="11.7219831"><ele>36.0</ele><time>2026-04-11T12:27:03.906Z</time></trkpt><trkpt lat="45.3045017" lon="11.7217436"><ele>36.333333333333336</ele><time>2026-04-11T12:27:04.906Z</time></trkpt><trkpt lat="45.3045104" lon="11.7215132"><ele>36.66666666666667</ele><time>2026-04-11T12:27:05.906Z</time></trkpt><trkpt lat="45.3045172" lon="11.7212891"><ele>37.0</ele><time>2026-04-11T12:27:06.906Z</time></trkpt><trkpt lat="45.3045259" lon="11.7210681"><ele>37.25</ele><time>2026-04-11T12:27:07.906Z</time></trkpt><trkpt lat="45.3045323" lon="11.7208508"><ele>37.5</ele><time>2026-04-11T12:27:08.906Z</time></trkpt><trkpt lat="45.3045355" lon="11.7206372"><ele>37.75</ele><time>2026-04-11T12:27:09.906Z</time></trkpt><trkpt lat="45.3045391" lon="11.7204323"><ele>38.0</ele><time>2026-04-11T12:27:10.906Z</time></trkpt><trkpt lat="45.3045159" lon="11.7202133"><ele>39.0</ele><time>2026-04-11T12:27:11.906Z</time></trkpt><trkpt lat="45.3045017" lon="11.7199924"><ele>40.0</ele><time>2026-04-11T12:27:12.906Z</time></trkpt><trkpt lat="45.3045074" lon="11.7197692"><ele>41.0</ele><time>2026-04-11T12:27:13.906Z</time></trkpt><trkpt lat="45.3045292" lon="11.7195521"><ele>41.75</ele><time>2026-04-11T12:27:14.906Z</time></trkpt><trkpt lat="45.3045619" lon="11.7193457"><ele>42.5</ele><time>2026-04-11T12:27:15.906Z</time></trkpt><trkpt lat="45.3045915" lon="11.7191554"><ele>43.25</ele><time>2026-04-11T12:27:16.906Z</time></trkpt><trkpt lat="45.3046096" lon="11.7189693"><ele>44.0</ele><time>2026-04-11T12:27:17.906Z</time></trkpt><trkpt lat="45.3046187" lon="11.7187844"><ele>44.0</ele><time>2026-04-11T12:27:18.906Z</time></trkpt><trkpt lat="45.3046034" lon="11.7186439"><ele>44.0</ele><time>2026-04-11T12:27:19.906Z</time></trkpt><trkpt lat="45.3045739" lon="11.7184832"><ele>44.0</ele><time>2026-04-11T12:27:20.906Z</time></trkpt><trkpt lat="45.3045631" lon="11.7183086"><ele>44.0</ele><time>2026-04-11T12:27:21.906Z</time></trkpt><trkpt lat="45.3045782" lon="11.7181234"><ele>44.75</ele><time>2026-04-11T12:27:22.906Z</time></trkpt><trkpt lat="45.3046067" lon="11.7179554"><ele>45.5</ele><time>2026-04-11T12:27:23.906Z</time></trkpt><trkpt lat="45.3046399" lon="11.717785"><ele>46.25</ele><time>2026-04-11T12:27:24.906Z</time></trkpt><trkpt lat="45.3046822" lon="11.7176044"><ele>47.0</ele><time>2026-04-11T12:27:25.906Z</time></trkpt><trkpt lat="45.3047515" lon="11.7174011"><ele>47.75</ele><time>2026-04-11T12:27:26.906Z</time></trkpt><trkpt lat="45.3048338" lon="11.7172343"><ele>48.5</ele><time>2026-04-11T12:27:27.906Z</time></trkpt><trkpt lat="45.3049117" lon="11.7170793"><ele>49.25</ele><time>2026-04-11T12:27:28.906Z</time></trkpt><trkpt lat="45.3049655" lon="11.7169501"><ele>50.0</ele><time>2026-04-11T12:27:29.906Z</time></trkpt><trkpt lat="45.3049912" lon="11.7168054"><ele>50.75</ele><time>2026-04-11T12:27:30.906Z</time></trkpt><trkpt lat="45.304973" lon="11.7166129"><ele>51.5</ele><time>2026-04-11T12:27:31.906Z</time></trkpt><trkpt lat="45.3049629" lon="11.7164249"><ele>52.25</ele><time>2026-04-11T12:27:32.906Z</time></trkpt><trkpt lat="45.3049645" lon="11.7162366"><ele>53.0</ele><time>2026-04-11T12:27:33.906Z</time></trkpt><trkpt lat="45.3049765" lon="11.7160529"><ele>54.333333333333336</ele><time>2026-04-11T12:27:34.906Z</time></trkpt><trkpt lat="45.3050001" lon="11.7158548"><ele>55.66666666666667</ele><time>2026-04-11T12:27:35.906Z</time></trkpt><trkpt lat="45.3050259" lon="11.7156328"><ele>57.0</ele><time>2026-04-11T12:27:36.906Z</time></trkpt><trkpt lat="45.305028" lon="11.7153482"><ele>59.33333333333333</ele><time>2026-04-11T12:27:37.906Z</time></trkpt><trkpt lat="45.3050379" lon="11.7150482"><ele>61.666666666666664</ele><time>2026-04-11T12:27:38.906Z</time></trkpt><trkpt lat="45.305035" lon="11.7147763"><ele>64.0</ele><time>2026-04-11T12:27:39.906Z</time></trkpt><trkpt lat="45.3050252" lon="11.714535"><ele>66.33333333333333</ele><time>2026-04-11T12:27:40.906Z</time></trkpt><trkpt lat="45.3050105" lon="11.7142867"><ele>68.66666666666667</ele><time>2026-04-11T12:27:41.906Z</time></trkpt><trkpt lat="45.3050237" lon="11.7140372"><ele>71.0</ele><time>2026-04-11T12:27:42.906Z</time></trkpt><trkpt lat="45.3050287" lon="11.7138138"><ele>71.0</ele><time>2026-04-11T12:27:43.906Z</time></trkpt><trkpt lat="45.3050309" lon="11.7135874"><ele>71.0</ele><time>2026-04-11T12:27:44.906Z</time></trkpt><trkpt lat="45.3049948" lon="11.7133425"><ele>71.0</ele><time>2026-04-11T12:27:45.906Z</time></trkpt><trkpt lat="45.3049299" lon="11.7130727"><ele>71.0</ele><time>2026-04-11T12:27:46.906Z</time></trkpt><trkpt lat="45.3048773" lon="11.7127481"><ele>71.0</ele><time>2026-04-11T12:27:47.906Z</time></trkpt><trkpt lat="45.3048333" lon="11.7124409"><ele>72.66666666666667</ele><time>2026-04-11T12:27:48.906Z</time></trkpt><trkpt lat="45.3048067" lon="11.7121688"><ele>74.33333333333333</ele><time>2026-04-11T12:27:49.906Z</time></trkpt><trkpt lat="45.3047889" lon="11.7119238"><ele>76.0</ele><time>2026-04-11T12:27:50.906Z</time></trkpt><trkpt lat="45.3047904" lon="11.7116784"><ele>77.66666666666666</ele><time>2026-04-11T12:27:51.906Z</time></trkpt><trkpt lat="45.3047992" lon="11.7114427"><ele>79.33333333333333</ele><time>2026-04-11T12:27:52.906Z</time></trkpt><trkpt lat="45.3048097" lon="11.7112135"><ele>81.0</ele><time>2026-04-11T12:27:53.906Z</time></trkpt><trkpt lat="45.3048195" lon="11.7109902"><ele>83.33333333333333</ele><time>2026-04-11T12:27:54.906Z</time></trkpt><trkpt lat="45.3048188" lon="11.7107557"><ele>85.66666666666666</ele><time>2026-04-11T12:27:55.906Z</time></trkpt><trkpt lat="45.3048084" lon="11.7105111"><ele>88.0</ele><time>2026-04-11T12:27:56.906Z</time></trkpt><trkpt lat="45.3048015" lon="11.7102758"><ele>90.66666666666666</ele><time>2026-04-11T12:27:57.906Z</time></trkpt><trkpt lat="45.3048153" lon="11.7100556"><ele>93.33333333333333</ele><time>2026-04-11T12:27:58.906Z</time></trkpt><trkpt lat="45.3048451" lon="11.7098498"><ele>96.0</ele><time>2026-04-11T12:27:59.906Z</time></trkpt><trkpt lat="45.3048839" lon="11.7096468"><ele>96.0</ele><time>2026-04-11T12:28:00.906Z</time></trkpt><trkpt lat="45.3049513" lon="11.7094704"><ele>96.0</ele><time>2026-04-11T12:28:01.906Z</time></trkpt><trkpt lat="45.3050499" lon="11.7092942"><ele>96.0</ele><time>2026-04-11T12:28:02.906Z</time></trkpt><trkpt lat="45.3051355" lon="11.7091195"><ele>96.0</ele><time>2026-04-11T12:28:03.906Z</time></trkpt><trkpt lat="45.3052487" lon="11.7089211"><ele>99.33333333333334</ele><time>2026-04-11T12:28:04.906Z</time></trkpt><trkpt lat="45.3053297" lon="11.7087008"><ele>102.66666666666667</ele><time>2026-04-11T12:28:05.906Z</time></trkpt><trkpt lat="45.3053981" lon="11.7084829"><ele>106.0</ele><time>2026-04-11T12:28:06.906Z</time></trkpt><trkpt lat="45.3054587" lon="11.7082951"><ele>108.25</ele><time>2026-04-11T12:28:07.906Z</time></trkpt><trkpt lat="45.3055383" lon="11.7081469"><ele>110.5</ele><time>2026-04-11T12:28:08.906Z</time></trkpt><trkpt lat="45.3056425" lon="11.7080127"><ele>112.75</ele><time>2026-04-11T12:28:09.906Z</time></trkpt><trkpt lat="45.305774" lon="11.7078846"><ele>115.0</ele><time>2026-04-11T12:28:10.906Z</time></trkpt><trkpt lat="45.3059273" lon="11.7077588"><ele>118.0</ele><time>2026-04-11T12:28:11.906Z</time></trkpt><trkpt lat="45.3060789" lon="11.7076427"><ele>121.0</ele><time>2026-04-11T12:28:12.906Z</time></trkpt><trkpt lat="45.3061905" lon="11.7075279"><ele>124.0</ele><time>2026-04-11T12:28:13.905Z</time></trkpt><trkpt lat="45.3063005" lon="11.7074073"><ele>127.0</ele><time>2026-04-11T12:28:14.906Z</time></trkpt><trkpt lat="45.3064025" lon="11.7072719"><ele>126.66666666666667</ele><time>2026-04-11T12:28:15.906Z</time></trkpt><trkpt lat="45.3065005" lon="11.7070661"><ele>126.33333333333334</ele><time>2026-04-11T12:28:16.906Z</time></trkpt><trkpt lat="45.3065863" lon="11.7068843"><ele>126.0</ele><time>2026-04-11T12:28:17.906Z</time></trkpt><trkpt lat="45.3066822" lon="11.7067405"><ele>127.8</ele><time>2026-04-11T12:28:18.906Z</time></trkpt><trkpt lat="45.3067623" lon="11.7066107"><ele>129.6</ele><time>2026-04-11T12:28:19.906Z</time></trkpt><trkpt lat="45.3068321" lon="11.7064782"><ele>131.4</ele><time>2026-04-11T12:28:20.906Z</time></trkpt><trkpt lat="45.306878" lon="11.7063435"><ele>133.2</ele><time>2026-04-11T12:28:21.906Z</time></trkpt><trkpt lat="45.3068777" lon="11.7062304"><ele>135.0</ele><time>2026-04-11T12:28:22.906Z</time></trkpt><trkpt lat="45.3068651" lon="11.706135"><ele>135.0</ele><time>2026-04-11T12:28:23.906Z</time></trkpt><trkpt lat="45.3068206" lon="11.7060596"><ele>135.0</ele><time>2026-04-11T12:28:24.906Z</time></trkpt><trkpt lat="45.3067477" lon="11.7060489"><ele>135.0</ele><time>2026-04-11T12:28:25.906Z</time></trkpt><trkpt lat="45.3066618" lon="11.7060657"><ele>135.0</ele><time>2026-04-11T12:28:26.906Z</time></trkpt><trkpt lat="45.3065828" lon="11.706183"><ele>135.0</ele><time>2026-04-11T12:28:27.906Z</time></trkpt><trkpt lat="45.3064936" lon="11.7063158"><ele>135.0</ele><time>2026-04-11T12:28:28.906Z</time></trkpt><trkpt lat="45.3064173" lon="11.7064332"><ele>135.0</ele><time>2026-04-11T12:28:29.906Z</time></trkpt><trkpt lat="45.3063306" lon="11.7065273"><ele>135.0</ele><time>2026-04-11T12:28:30.906Z</time></trkpt><trkpt lat="45.3061969" lon="11.7066146"><ele>135.0</ele><time>2026-04-11T12:28:31.906Z</time></trkpt><trkpt lat="45.3060476" lon="11.7067241"><ele>133.0</ele><time>2026-04-11T12:28:32.906Z</time></trkpt><trkpt lat="45.305914" lon="11.7068345"><ele>131.0</ele><time>2026-04-11T12:28:33.906Z</time></trkpt><trkpt lat="45.3057997" lon="11.7069115"><ele>129.0</ele><time>2026-04-11T12:28:34.906Z</time></trkpt><trkpt lat="45.3057036" lon="11.7069795"><ele>127.0</ele><time>2026-04-11T12:28:35.906Z</time></trkpt><trkpt lat="45.305581" lon="11.707022"><ele>131.25</ele><time>2026-04-11T12:28:36.906Z</time></trkpt><trkpt lat="45.3054538" lon="11.7070495"><ele>135.5</ele><time>2026-04-11T12:28:37.906Z</time></trkpt><trkpt lat="45.305332" lon="11.7071034"><ele>139.75</ele><time>2026-04-11T12:28:38.906Z</time></trkpt><trkpt lat="45.3051938" lon="11.7071916"><ele>144.0</ele><time>2026-04-11T12:28:39.906Z</time></trkpt><trkpt lat="45.3050452" lon="11.707333"><ele>144.0</ele><time>2026-04-11T12:28:40.906Z</time></trkpt><trkpt lat="45.3049167" lon="11.7074546"><ele>144.0</ele><time>2026-04-11T12:28:41.906Z</time></trkpt><trkpt lat="45.3047998" lon="11.7075394"><ele>144.0</ele><time>2026-04-11T12:28:42.906Z</time></trkpt><trkpt lat="45.3046923" lon="11.707608"><ele>144.0</ele><time>2026-04-11T12:28:43.905Z</time></trkpt><trkpt lat="45.3045729" lon="11.7076425"><ele>151.66666666666666</ele><time>2026-04-11T12:28:44.906Z</time></trkpt><trkpt lat="45.3044139" lon="11.707654"><ele>159.33333333333331</ele><time>2026-04-11T12:28:45.906Z</time></trkpt><trkpt lat="45.3042331" lon="11.707656"><ele>167.0</ele><time>2026-04-11T12:28:46.906Z</time></trkpt><trkpt lat="45.3040584" lon="11.7076512"><ele>167.5</ele><time>2026-04-11T12:28:47.906Z</time></trkpt><trkpt lat="45.3039023" lon="11.7076296"><ele>168.0</ele><time>2026-04-11T12:28:48.906Z</time></trkpt><trkpt lat="45.3037565" lon="11.7075761"><ele>168.5</ele><time>2026-04-11T12:28:49.906Z</time></trkpt><trkpt lat="45.303624" lon="11.7075275"><ele>169.0</ele><time>2026-04-11T12:28:50.906Z</time></trkpt><trkpt lat="45.3035112" lon="11.7074807"><ele>169.0</ele><time>2026-04-11T12:28:51.906Z</time></trkpt><trkpt lat="45.3034162" lon="11.7074562"><ele>169.0</ele><time>2026-04-11T12:28:52.906Z</time></trkpt><trkpt lat="45.3033351" lon="11.70748"><ele>169.0</ele><time>2026-04-11T12:28:53.906Z</time></trkpt><trkpt lat="45.3032749" lon="11.7075575"><ele>169.0</ele><time>2026-04-11T12:28:54.906Z</time></trkpt><trkpt lat="45.3032251" lon="11.707679"><ele>169.0</ele><time>2026-04-11T12:28:55.906Z</time></trkpt><trkpt lat="45.303163" lon="11.7078796"><ele>166.0</ele><time>2026-04-11T12:28:56.906Z</time></trkpt><trkpt lat="45.3031129" lon="11.7081253"><ele>163.0</ele><time>2026-04-11T12:28:57.906Z</time></trkpt><trkpt lat="45.3030786" lon="11.7083788"><ele>160.0</ele><time>2026-04-11T12:28:58.906Z</time></trkpt><trkpt lat="45.3030692" lon="11.7086029"><ele>159.2</ele><time>2026-04-11T12:28:59.906Z</time></trkpt><trkpt lat="45.3030719" lon="11.7087875"><ele>158.4</ele><time>2026-04-11T12:29:00.906Z</time></trkpt><trkpt lat="45.3030816" lon="11.7089327"><ele>157.6</ele><time>2026-04-11T12:29:01.906Z</time></trkpt><trkpt lat="45.3030638" lon="11.7090487"><ele>156.8</ele><time>2026-04-11T12:29:02.906Z</time></trkpt><trkpt lat="45.3030066" lon="11.7091565"><ele>156.0</ele><time>2026-04-11T12:29:03.906Z</time></trkpt><trkpt lat="45.3029057" lon="11.7092627"><ele>163.33333333333334</ele><time>2026-04-11T12:29:04.906Z</time></trkpt><trkpt lat="45.3027839" lon="11.7094105"><ele>170.66666666666669</ele><time>2026-04-11T12:29:05.906Z</time></trkpt><trkpt lat="45.3026564" lon="11.7096006"><ele>178.0</ele><time>2026-04-11T12:29:06.906Z</time></trkpt><trkpt lat="45.3025596" lon="11.7097758"><ele>178.0</ele><time>2026-04-11T12:29:07.906Z</time></trkpt><trkpt lat="45.3024972" lon="11.7099393"><ele>178.0</ele><time>2026-04-11T12:29:08.906Z</time></trkpt><trkpt lat="45.3024684" lon="11.7101226"><ele>178.0</ele><time>2026-04-11T12:29:09.906Z</time></trkpt><trkpt lat="45.3024639" lon="11.7103103"><ele>178.0</ele><time>2026-04-11T12:29:10.906Z</time></trkpt><trkpt lat="45.3024669" lon="11.7104571"><ele>176.7142857142857</ele><time>2026-04-11T12:29:11.906Z</time></trkpt><trkpt lat="45.3024526" lon="11.7105743"><ele>175.42857142857142</ele><time>2026-04-11T12:29:12.906Z</time></trkpt><trkpt lat="45.3024089" lon="11.7106478"><ele>174.14285714285714</ele><time>2026-04-11T12:29:13.906Z</time></trkpt><trkpt lat="45.3023442" lon="11.7106697"><ele>172.85714285714283</ele><time>2026-04-11T12:29:14.906Z</time></trkpt><trkpt lat="45.3022798" lon="11.710648"><ele>171.57142857142856</ele><time>2026-04-11T12:29:15.906Z</time></trkpt><trkpt lat="45.3022403" lon="11.7105664"><ele>170.28571428571428</ele><time>2026-04-11T12:29:16.906Z</time></trkpt><trkpt lat="45.3022331" lon="11.7104567"><ele>169.0</ele><time>2026-04-11T12:29:17.906Z</time></trkpt><trkpt lat="45.3022278" lon="11.7103206"><ele>172.0</ele><time>2026-04-11T12:29:18.906Z</time></trkpt><trkpt lat="45.3022502" lon="11.710058"><ele>175.0</ele><time>2026-04-11T12:29:19.906Z</time></trkpt><trkpt lat="45.302301" lon="11.7098066"><ele>178.0</ele><time>2026-04-11T12:29:20.906Z</time></trkpt><trkpt lat="45.3023709" lon="11.7096204"><ele>178.0</ele><time>2026-04-11T12:29:21.906Z</time></trkpt><trkpt lat="45.3024501" lon="11.7094434"><ele>178.0</ele><time>2026-04-11T12:29:22.906Z</time></trkpt><trkpt lat="45.3025244" lon="11.7092577"><ele>178.0</ele><time>2026-04-11T12:29:23.906Z</time></trkpt><trkpt lat="45.3025785" lon="11.7090328"><ele>184.66666666666669</ele><time>2026-04-11T12:29:24.906Z</time></trkpt><trkpt lat="45.3026304" lon="11.7087579"><ele>191.33333333333334</ele><time>2026-04-11T12:29:25.906Z</time></trkpt><trkpt lat="45.3026771" lon="11.7084834"><ele>198.0</ele><time>2026-04-11T12:29:26.905Z</time></trkpt><trkpt lat="45.3027278" lon="11.7082487"><ele>203.33333333333331</ele><time>2026-04-11T12:29:27.906Z</time></trkpt><trkpt lat="45.3027394" lon="11.7080078"><ele>208.66666666666666</ele><time>2026-04-11T12:29:28.906Z</time></trkpt><trkpt lat="45.302726" lon="11.7077308"><ele>214.0</ele><time>2026-04-11T12:29:29.906Z</time></trkpt><trkpt lat="45.3026949" lon="11.7074285"><ele>215.0</ele><time>2026-04-11T12:29:30.906Z</time></trkpt><trkpt lat="45.3026331" lon="11.7071469"><ele>216.0</ele><time>2026-04-11T12:29:31.906Z</time></trkpt><trkpt lat="45.3025781" lon="11.7069134"><ele>217.0</ele><time>2026-04-11T12:29:32.906Z</time></trkpt><trkpt lat="45.3025459" lon="11.7067326"><ele>217.6</ele><time>2026-04-11T12:29:33.906Z</time></trkpt><trkpt lat="45.3025485" lon="11.7065807"><ele>218.2</ele><time>2026-04-11T12:29:34.906Z</time></trkpt><trkpt lat="45.3025707" lon="11.706444"><ele>218.8</ele><time>2026-04-11T12:29:35.906Z</time></trkpt><trkpt lat="45.3026355" lon="11.7063445"><ele>219.4</ele><time>2026-04-11T12:29:36.906Z</time></trkpt><trkpt lat="45.3027335" lon="11.7062874"><ele>220.0</ele><time>2026-04-11T12:29:37.905Z</time></trkpt><trkpt lat="45.3028342" lon="11.7062209"><ele>220.0</ele><time>2026-04-11T12:29:38.906Z</time></trkpt><trkpt lat="45.3029673" lon="11.7061514"><ele>220.0</ele><time>2026-04-11T12:29:39.906Z</time></trkpt><trkpt lat="45.3031353" lon="11.7060374"><ele>220.0</ele><time>2026-04-11T12:29:40.906Z</time></trkpt><trkpt lat="45.3033263" lon="11.7059884"><ele>223.66666666666666</ele><time>2026-04-11T12:29:41.906Z</time></trkpt><trkpt lat="45.3034688" lon="11.7059823"><ele>227.33333333333331</ele><time>2026-04-11T12:29:42.906Z</time></trkpt><trkpt lat="45.3036193" lon="11.7059511"><ele>231.0</ele><time>2026-04-11T12:29:43.906Z</time></trkpt><trkpt lat="45.3037922" lon="11.7059872"><ele>229.25</ele><time>2026-04-11T12:29:44.906Z</time></trkpt><trkpt lat="45.3039532" lon="11.7060664"><ele>227.5</ele><time>2026-04-11T12:29:45.906Z</time></trkpt><trkpt lat="45.3040993" lon="11.706107"><ele>225.75</ele><time>2026-04-11T12:29:46.906Z</time></trkpt><trkpt lat="45.3042129" lon="11.7060933"><ele>224.0</ele><time>2026-04-11T12:29:47.906Z</time></trkpt><trkpt lat="45.3043135" lon="11.7060434"><ele>224.0</ele><time>2026-04-11T12:29:48.906Z</time></trkpt><trkpt lat="45.3044002" lon="11.705933"><ele>224.0</ele><time>2026-04-11T12:29:49.906Z</time></trkpt><trkpt lat="45.3044552" lon="11.7057671"><ele>224.0</ele><time>2026-04-11T12:29:50.905Z</time></trkpt><trkpt lat="45.3044885" lon="11.705576"><ele>224.0</ele><time>2026-04-11T12:29:51.906Z</time></trkpt><trkpt lat="45.3045314" lon="11.7053751"><ele>222.25</ele><time>2026-04-11T12:29:52.906Z</time></trkpt><trkpt lat="45.3045951" lon="11.7052077"><ele>220.5</ele><time>2026-04-11T12:29:53.906Z</time></trkpt><trkpt lat="45.3046826" lon="11.705075"><ele>218.75</ele><time>2026-04-11T12:29:54.906Z</time></trkpt><trkpt lat="45.304761" lon="11.7049645"><ele>217.0</ele><time>2026-04-11T12:29:55.906Z</time></trkpt><trkpt lat="45.3048269" lon="11.7048757"><ele>217.0</ele><time>2026-04-11T12:29:56.906Z</time></trkpt><trkpt lat="45.3048832" lon="11.7047929"><ele>217.0</ele><time>2026-04-11T12:29:57.906Z</time></trkpt><trkpt lat="45.30493" lon="11.7047209"><ele>217.0</ele><time>2026-04-11T12:29:58.905Z</time></trkpt><trkpt lat="45.3049699" lon="11.704645"><ele>217.0</ele><time>2026-04-11T12:29:59.906Z</time></trkpt><trkpt lat="45.3050055" lon="11.7045623"><ele>217.0</ele><time>2026-04-11T12:30:00.906Z</time></trkpt><trkpt lat="45.3050268" lon="11.7044678"><ele>217.0</ele><time>2026-04-11T12:30:01.906Z</time></trkpt><trkpt lat="45.3050426" lon="11.7043707"><ele>217.0</ele><time>2026-04-11T12:30:02.906Z</time></trkpt><trkpt lat="45.3050589" lon="11.7042747"><ele>220.66666666666666</ele><time>2026-04-11T12:30:03.905Z</time></trkpt><trkpt lat="45.3050767" lon="11.7041772"><ele>224.33333333333331</ele><time>2026-04-11T12:30:04.906Z</time></trkpt><trkpt lat="45.3050956" lon="11.7040712"><ele>228.0</ele><time>2026-04-11T12:30:05.905Z</time></trkpt><trkpt lat="45.3051259" lon="11.7039687"><ele>231.66666666666669</ele><time>2026-04-11T12:30:06.906Z</time></trkpt><trkpt lat="45.3051508" lon="11.7038668"><ele>235.33333333333334</ele><time>2026-04-11T12:30:07.906Z</time></trkpt><trkpt lat="45.3052074" lon="11.7037847"><ele>239.0</ele><time>2026-04-11T12:30:08.906Z</time></trkpt><trkpt lat="45.3052848" lon="11.7036933"><ele>239.0</ele><time>2026-04-11T12:30:09.906Z</time></trkpt><trkpt lat="45.3053691" lon="11.703622"><ele>239.0</ele><time>2026-04-11T12:30:10.906Z</time></trkpt><trkpt lat="45.3055043" lon="11.703562"><ele>239.0</ele><time>2026-04-11T12:30:11.906Z</time></trkpt><trkpt lat="45.3056351" lon="11.7035279"><ele>239.0</ele><time>2026-04-11T12:30:12.905Z</time></trkpt><trkpt lat="45.3057524" lon="11.7035525"><ele>235.6</ele><time>2026-04-11T12:30:13.906Z</time></trkpt><trkpt lat="45.3058683" lon="11.7036073"><ele>232.2</ele><time>2026-04-11T12:30:14.906Z</time></trkpt><trkpt lat="45.3059779" lon="11.7036819"><ele>228.79999999999998</ele><time>2026-04-11T12:30:15.906Z</time></trkpt><trkpt lat="45.3060747" lon="11.7037018"><ele>225.39999999999998</ele><time>2026-04-11T12:30:16.906Z</time></trkpt><trkpt lat="45.3061668" lon="11.7036867"><ele>222.0</ele><time>2026-04-11T12:30:17.906Z</time></trkpt><trkpt lat="45.3062615" lon="11.7036471"><ele>225.0</ele><time>2026-04-11T12:30:18.906Z</time></trkpt><trkpt lat="45.3063388" lon="11.7035137"><ele>228.0</ele><time>2026-04-11T12:30:19.906Z</time></trkpt><trkpt lat="45.3063965" lon="11.7033851"><ele>231.0</ele><time>2026-04-11T12:30:20.906Z</time></trkpt><trkpt lat="45.3064405" lon="11.7032369"><ele>234.0</ele><time>2026-04-11T12:30:21.906Z</time></trkpt><trkpt lat="45.3064473" lon="11.7030597"><ele>234.0</ele><time>2026-04-11T12:30:22.906Z</time></trkpt><trkpt lat="45.3064822" lon="11.7028853"><ele>234.0</ele><time>2026-04-11T12:30:23.906Z</time></trkpt><trkpt lat="45.3065483" lon="11.7027235"><ele>234.0</ele><time>2026-04-11T12:30:24.906Z</time></trkpt><trkpt lat="45.3066362" lon="11.7025685"><ele>234.0</ele><time>2026-04-11T12:30:25.906Z</time></trkpt><trkpt lat="45.3067266" lon="11.7024144"><ele>237.75</ele><time>2026-04-11T12:30:26.906Z</time></trkpt><trkpt lat="45.306822" lon="11.7022543"><ele>241.5</ele><time>2026-04-11T12:30:27.906Z</time></trkpt><trkpt lat="45.3068956" lon="11.7021294"><ele>245.25</ele><time>2026-04-11T12:30:28.906Z</time></trkpt><trkpt lat="45.3069506" lon="11.7020081"><ele>249.0</ele><time>2026-04-11T12:30:29.906Z</time></trkpt><trkpt lat="45.3069895" lon="11.7018858"><ele>251.75</ele><time>2026-04-11T12:30:30.906Z</time></trkpt><trkpt lat="45.3070179" lon="11.7017504"><ele>254.5</ele><time>2026-04-11T12:30:31.906Z</time></trkpt><trkpt lat="45.3070283" lon="11.7016046"><ele>257.25</ele><time>2026-04-11T12:30:32.906Z</time></trkpt><trkpt lat="45.3070182" lon="11.7014278"><ele>260.0</ele><time>2026-04-11T12:30:33.906Z</time></trkpt><trkpt lat="45.3069785" lon="11.7012264"><ele>260.0</ele><time>2026-04-11T12:30:34.906Z</time></trkpt><trkpt lat="45.3069161" lon="11.7009831"><ele>260.0</ele><time>2026-04-11T12:30:35.906Z</time></trkpt><trkpt lat="45.3068436" lon="11.7006785"><ele>260.0</ele><time>2026-04-11T12:30:36.906Z</time></trkpt><trkpt lat="45.3067756" lon="11.7003185"><ele>258.0</ele><time>2026-04-11T12:30:37.906Z</time></trkpt><trkpt lat="45.3067178" lon="11.6999507"><ele>256.0</ele><time>2026-04-11T12:30:38.906Z</time></trkpt><trkpt lat="45.3066533" lon="11.6995925"><ele>259.3333333333333</ele><time>2026-04-11T12:30:39.906Z</time></trkpt><trkpt lat="45.3066104" lon="11.6993604"><ele>262.6666666666667</ele><time>2026-04-11T12:30:40.906Z</time></trkpt><trkpt lat="45.3065886" lon="11.6991024"><ele>266.0</ele><time>2026-04-11T12:30:41.906Z</time></trkpt><trkpt lat="45.3065938" lon="11.6988744"><ele>266.0</ele><time>2026-04-11T12:30:42.906Z</time></trkpt><trkpt lat="45.3065835" lon="11.6986855"><ele>266.0</ele><time>2026-04-11T12:30:43.906Z</time></trkpt><trkpt lat="45.3065587" lon="11.698529"><ele>266.0</ele><time>2026-04-11T12:30:44.906Z</time></trkpt><trkpt lat="45.3065089" lon="11.6983908"><ele>266.0</ele><time>2026-04-11T12:30:45.906Z</time></trkpt><trkpt lat="45.3064518" lon="11.6982484"><ele>267.0</ele><time>2026-04-11T12:30:46.906Z</time></trkpt><trkpt lat="45.306404" lon="11.6981293"><ele>268.0</ele><time>2026-04-11T12:30:47.906Z</time></trkpt><trkpt lat="45.3063556" lon="11.6980184"><ele>269.0</ele><time>2026-04-11T12:30:48.906Z</time></trkpt><trkpt lat="45.3063073" lon="11.6979091"><ele>270.0</ele><time>2026-04-11T12:30:49.906Z</time></trkpt><trkpt lat="45.3062479" lon="11.6977685"><ele>271.0</ele><time>2026-04-11T12:30:50.905Z</time></trkpt><trkpt lat="45.3061942" lon="11.6976335"><ele>268.25</ele><time>2026-04-11T12:30:51.906Z</time></trkpt><trkpt lat="45.3061427" lon="11.697499"><ele>265.5</ele><time>2026-04-11T12:30:52.906Z</time></trkpt><trkpt lat="45.306087" lon="11.697357"><ele>262.75</ele><time>2026-04-11T12:30:53.906Z</time></trkpt><trkpt lat="45.3060371" lon="11.6972053"><ele>260.0</ele><time>2026-04-11T12:30:54.906Z</time></trkpt><trkpt lat="45.3059949" lon="11.6970414"><ele>259.5</ele><time>2026-04-11T12:30:55.906Z</time></trkpt><trkpt lat="45.3059615" lon="11.6968679"><ele>259.0</ele><time>2026-04-11T12:30:56.906Z</time></trkpt><trkpt lat="45.305925" lon="11.696686"><ele>258.5</ele><time>2026-04-11T12:30:57.906Z</time></trkpt><trkpt lat="45.3058836" lon="11.6965028"><ele>258.0</ele><time>2026-04-11T12:30:58.905Z</time></trkpt><trkpt lat="45.3058354" lon="11.6963124"><ele>258.0</ele><time>2026-04-11T12:30:59.906Z</time></trkpt><trkpt lat="45.3057749" lon="11.6961239"><ele>258.0</ele><time>2026-04-11T12:31:00.906Z</time></trkpt><trkpt lat="45.3057123" lon="11.6959312"><ele>258.0</ele><time>2026-04-11T12:31:01.906Z</time></trkpt><trkpt lat="45.3056503" lon="11.6957361"><ele>258.0</ele><time>2026-04-11T12:31:02.906Z</time></trkpt><trkpt lat="45.3055948" lon="11.6955478"><ele>253.0</ele><time>2026-04-11T12:31:03.906Z</time></trkpt><trkpt lat="45.3055484" lon="11.6953633"><ele>248.0</ele><time>2026-04-11T12:31:04.906Z</time></trkpt><trkpt lat="45.3055034" lon="11.695178"><ele>243.0</ele><time>2026-04-11T12:31:05.906Z</time></trkpt><trkpt lat="45.3054601" lon="11.6949918"><ele>238.0</ele><time>2026-04-11T12:31:06.906Z</time></trkpt><trkpt lat="45.3054143" lon="11.6948169"><ele>236.75</ele><time>2026-04-11T12:31:07.906Z</time></trkpt><trkpt lat="45.3053596" lon="11.6946556"><ele>235.5</ele><time>2026-04-11T12:31:08.906Z</time></trkpt><trkpt lat="45.3052852" lon="11.6945133"><ele>234.25</ele><time>2026-04-11T12:31:09.906Z</time></trkpt><trkpt lat="45.3052013" lon="11.6943814"><ele>233.0</ele><time>2026-04-11T12:31:10.906Z</time></trkpt><trkpt lat="45.3051232" lon="11.6942766"><ele>232.5</ele><time>2026-04-11T12:31:11.906Z</time></trkpt><trkpt lat="45.3050571" lon="11.6941467"><ele>232.0</ele><time>2026-04-11T12:31:12.906Z</time></trkpt><trkpt lat="45.305011" lon="11.6939854"><ele>231.5</ele><time>2026-04-11T12:31:13.906Z</time></trkpt><trkpt lat="45.3049675" lon="11.6938232"><ele>231.0</ele><time>2026-04-11T12:31:14.906Z</time></trkpt><trkpt lat="45.3049292" lon="11.6936689"><ele>231.5</ele><time>2026-04-11T12:31:15.906Z</time></trkpt><trkpt lat="45.3048729" lon="11.6934892"><ele>232.0</ele><time>2026-04-11T12:31:16.906Z</time></trkpt><trkpt lat="45.3047957" lon="11.6933259"><ele>232.5</ele><time>2026-04-11T12:31:17.905Z</time></trkpt><trkpt lat="45.3047155" lon="11.6931703"><ele>233.0</ele><time>2026-04-11T12:31:18.906Z</time></trkpt><trkpt lat="45.3046328" lon="11.6930322"><ele>229.5</ele><time>2026-04-11T12:31:19.906Z</time></trkpt><trkpt lat="45.3045464" lon="11.6929062"><ele>226.0</ele><time>2026-04-11T12:31:20.906Z</time></trkpt><trkpt lat="45.3044406" lon="11.6928173"><ele>222.5</ele><time>2026-04-11T12:31:21.906Z</time></trkpt><trkpt lat="45.3043225" lon="11.692745"><ele>219.0</ele><time>2026-04-11T12:31:22.906Z</time></trkpt><trkpt lat="45.3041933" lon="11.6926807"><ele>219.0</ele><time>2026-04-11T12:31:23.906Z</time></trkpt><trkpt lat="45.3040472" lon="11.6925848"><ele>219.0</ele><time>2026-04-11T12:31:24.906Z</time></trkpt><trkpt lat="45.3039076" lon="11.6924698"><ele>219.0</ele><time>2026-04-11T12:31:25.906Z</time></trkpt><trkpt lat="45.3037737" lon="11.6923341"><ele>216.33333333333331</ele><time>2026-04-11T12:31:26.906Z</time></trkpt><trkpt lat="45.3036355" lon="11.6922113"><ele>213.66666666666666</ele><time>2026-04-11T12:31:27.906Z</time></trkpt><trkpt lat="45.3035002" lon="11.69209"><ele>211.0</ele><time>2026-04-11T12:31:28.906Z</time></trkpt><trkpt lat="45.3033739" lon="11.691966"><ele>210.25</ele><time>2026-04-11T12:31:29.906Z</time></trkpt><trkpt lat="45.30325" lon="11.6918505"><ele>209.5</ele><time>2026-04-11T12:31:30.906Z</time></trkpt><trkpt lat="45.3031153" lon="11.6917357"><ele>208.75</ele><time>2026-04-11T12:31:31.906Z</time></trkpt><trkpt lat="45.3030065" lon="11.6916368"><ele>208.0</ele><time>2026-04-11T12:31:32.906Z</time></trkpt><trkpt lat="45.3028956" lon="11.6915589"><ele>207.25</ele><time>2026-04-11T12:31:33.906Z</time></trkpt><trkpt lat="45.3027719" lon="11.6915136"><ele>206.5</ele><time>2026-04-11T12:31:34.906Z</time></trkpt><trkpt lat="45.3026419" lon="11.6914871"><ele>205.75</ele><time>2026-04-11T12:31:35.906Z</time></trkpt><trkpt lat="45.3024985" lon="11.6914587"><ele>205.0</ele><time>2026-04-11T12:31:36.906Z</time></trkpt><trkpt lat="45.3023292" lon="11.6914358"><ele>201.0</ele><time>2026-04-11T12:31:37.906Z</time></trkpt><trkpt lat="45.3021477" lon="11.6914308"><ele>197.0</ele><time>2026-04-11T12:31:38.906Z</time></trkpt><trkpt lat="45.3019228" lon="11.6914387"><ele>193.0</ele><time>2026-04-11T12:31:39.906Z</time></trkpt><trkpt lat="45.3017371" lon="11.6914523"><ele>193.0</ele><time>2026-04-11T12:31:40.906Z</time></trkpt><trkpt lat="45.3015738" lon="11.6914531"><ele>193.0</ele><time>2026-04-11T12:31:41.906Z</time></trkpt><trkpt lat="45.3014315" lon="11.6914381"><ele>193.0</ele><time>2026-04-11T12:31:42.906Z</time></trkpt><trkpt lat="45.301313" lon="11.6913794"><ele>193.0</ele><time>2026-04-11T12:31:43.906Z</time></trkpt><trkpt lat="45.3012067" lon="11.6912772"><ele>191.66666666666666</ele><time>2026-04-11T12:31:44.906Z</time></trkpt><trkpt lat="45.3011075" lon="11.6911242"><ele>190.33333333333331</ele><time>2026-04-11T12:31:45.906Z</time></trkpt><trkpt lat="45.3010126" lon="11.6909077"><ele>189.0</ele><time>2026-04-11T12:31:46.906Z</time></trkpt><trkpt lat="45.3009084" lon="11.6906669"><ele>189.0</ele><time>2026-04-11T12:31:47.906Z</time></trkpt><trkpt lat="45.3007912" lon="11.6903967"><ele>189.0</ele><time>2026-04-11T12:31:48.906Z</time></trkpt><trkpt lat="45.3006718" lon="11.6901397"><ele>189.0</ele><time>2026-04-11T12:31:49.906Z</time></trkpt><trkpt lat="45.3005471" lon="11.6898938"><ele>186.66666666666666</ele><time>2026-04-11T12:31:50.906Z</time></trkpt><trkpt lat="45.3004304" lon="11.6896555"><ele>184.33333333333331</ele><time>2026-04-11T12:31:51.906Z</time></trkpt><trkpt lat="45.3003129" lon="11.6894268"><ele>182.0</ele><time>2026-04-11T12:31:52.906Z</time></trkpt><trkpt lat="45.3001955" lon="11.689211"><ele>180.0</ele><time>2026-04-11T12:31:53.906Z</time></trkpt><trkpt lat="45.3000899" lon="11.6889994"><ele>178.0</ele><time>2026-04-11T12:31:54.906Z</time></trkpt><trkpt lat="45.2999941" lon="11.6888123"><ele>176.0</ele><time>2026-04-11T12:31:55.906Z</time></trkpt><trkpt lat="45.2999167" lon="11.6886905"><ele>176.0</ele><time>2026-04-11T12:31:56.906Z</time></trkpt><trkpt lat="45.2998388" lon="11.6885969"><ele>176.0</ele><time>2026-04-11T12:31:57.906Z</time></trkpt><trkpt lat="45.2997517" lon="11.6885616"><ele>176.0</ele><time>2026-04-11T12:31:58.906Z</time></trkpt><trkpt lat="45.2996661" lon="11.6885348"><ele>176.0</ele><time>2026-04-11T12:31:59.906Z</time></trkpt><trkpt lat="45.2995682" lon="11.6885693"><ele>176.0</ele><time>2026-04-11T12:32:00.906Z</time></trkpt><trkpt lat="45.2994789" lon="11.6886434"><ele>175.0</ele><time>2026-04-11T12:32:01.906Z</time></trkpt><trkpt lat="45.299395" lon="11.6887438"><ele>174.0</ele><time>2026-04-11T12:32:02.906Z</time></trkpt><trkpt lat="45.2993186" lon="11.6888529"><ele>173.0</ele><time>2026-04-11T12:32:03.906Z</time></trkpt><trkpt lat="45.2992451" lon="11.68898"><ele>172.0</ele><time>2026-04-11T12:32:04.906Z</time></trkpt><trkpt lat="45.2991709" lon="11.6891022"><ele>171.0</ele><time>2026-04-11T12:32:05.906Z</time></trkpt><trkpt lat="45.2991246" lon="11.6892452"><ele>171.0</ele><time>2026-04-11T12:32:06.906Z</time></trkpt><trkpt lat="45.2990852" lon="11.6893731"><ele>171.0</ele><time>2026-04-11T12:32:07.906Z</time></trkpt><trkpt lat="45.2990361" lon="11.689468"><ele>171.0</ele><time>2026-04-11T12:32:08.906Z</time></trkpt><trkpt lat="45.2989794" lon="11.6895423"><ele>171.0</ele><time>2026-04-11T12:32:09.906Z</time></trkpt><trkpt lat="45.2989099" lon="11.6896047"><ele>171.0</ele><time>2026-04-11T12:32:10.905Z</time></trkpt><trkpt lat="45.2988311" lon="11.68965"><ele>171.0</ele><time>2026-04-11T12:32:11.906Z</time></trkpt><trkpt lat="45.2987652" lon="11.6896771"><ele>169.7142857142857</ele><time>2026-04-11T12:32:12.905Z</time></trkpt><trkpt lat="45.2987031" lon="11.6897094"><ele>168.42857142857142</ele><time>2026-04-11T12:32:13.906Z</time></trkpt><trkpt lat="45.2986436" lon="11.6897649"><ele>167.14285714285714</ele><time>2026-04-11T12:32:14.906Z</time></trkpt><trkpt lat="45.2985865" lon="11.6898216"><ele>165.85714285714283</ele><time>2026-04-11T12:32:15.905Z</time></trkpt><trkpt lat="45.2985344" lon="11.6898941"><ele>164.57142857142856</ele><time>2026-04-11T12:32:16.906Z</time></trkpt><trkpt lat="45.2984788" lon="11.68998"><ele>163.28571428571428</ele><time>2026-04-11T12:32:17.906Z</time></trkpt><trkpt lat="45.2984156" lon="11.6900639"><ele>162.0</ele><time>2026-04-11T12:32:18.906Z</time></trkpt><trkpt lat="45.2983675" lon="11.6901746"><ele>162.2</ele><time>2026-04-11T12:32:19.905Z</time></trkpt><trkpt lat="45.2983006" lon="11.6902634"><ele>162.39999999999998</ele><time>2026-04-11T12:32:20.906Z</time></trkpt><trkpt lat="45.2982403" lon="11.6903512"><ele>162.60000000000002</ele><time>2026-04-11T12:32:21.906Z</time></trkpt><trkpt lat="45.2981961" lon="11.6904301"><ele>162.8</ele><time>2026-04-11T12:32:22.906Z</time></trkpt><trkpt lat="45.2981105" lon="11.6905462"><ele>163.0</ele><time>2026-04-11T12:32:24.906Z</time></trkpt><trkpt lat="45.2980256" lon="11.6904556"><ele>162.75</ele><time>2026-04-11T12:32:26.906Z</time></trkpt><trkpt lat="45.2980202" lon="11.6903539"><ele>162.5</ele><time>2026-04-11T12:32:27.906Z</time></trkpt><trkpt lat="45.2980325" lon="11.6902113"><ele>162.25</ele><time>2026-04-11T12:32:28.906Z</time></trkpt><trkpt lat="45.2980687" lon="11.6899587"><ele>162.0</ele><time>2026-04-11T12:32:29.906Z</time></trkpt><trkpt lat="45.2981068" lon="11.6896855"><ele>162.0</ele><time>2026-04-11T12:32:30.906Z</time></trkpt><trkpt lat="45.2981278" lon="11.6894271"><ele>162.0</ele><time>2026-04-11T12:32:31.906Z</time></trkpt><trkpt lat="45.2981466" lon="11.6891902"><ele>162.0</ele><time>2026-04-11T12:32:32.906Z</time></trkpt><trkpt lat="45.2981414" lon="11.6889811"><ele>160.79999999999998</ele><time>2026-04-11T12:32:33.906Z</time></trkpt><trkpt lat="45.2981205" lon="11.6887916"><ele>159.6</ele><time>2026-04-11T12:32:34.906Z</time></trkpt><trkpt lat="45.2980981" lon="11.688624"><ele>158.39999999999998</ele><time>2026-04-11T12:32:35.906Z</time></trkpt><trkpt lat="45.2980706" lon="11.688484"><ele>157.2</ele><time>2026-04-11T12:32:36.906Z</time></trkpt><trkpt lat="45.2980206" lon="11.6883761"><ele>156.0</ele><time>2026-04-11T12:32:37.906Z</time></trkpt><trkpt lat="45.2979429" lon="11.6882784"><ele>150.5</ele><time>2026-04-11T12:32:38.906Z</time></trkpt><trkpt lat="45.2978332" lon="11.6882261"><ele>145.0</ele><time>2026-04-11T12:32:39.906Z</time></trkpt><trkpt lat="45.2977036" lon="11.6881981"><ele>139.5</ele><time>2026-04-11T12:32:40.906Z</time></trkpt><trkpt lat="45.2975739" lon="11.6881765"><ele>134.0</ele><time>2026-04-11T12:32:41.906Z</time></trkpt><trkpt lat="45.2974321" lon="11.6881691"><ele>134.0</ele><time>2026-04-11T12:32:42.906Z</time></trkpt><trkpt lat="45.2972748" lon="11.6882172"><ele>134.0</ele><time>2026-04-11T12:32:43.906Z</time></trkpt><trkpt lat="45.2971192" lon="11.6882406"><ele>134.0</ele><time>2026-04-11T12:32:44.906Z</time></trkpt><trkpt lat="45.2969781" lon="11.6882459"><ele>131.75</ele><time>2026-04-11T12:32:45.906Z</time></trkpt><trkpt lat="45.2968434" lon="11.688246"><ele>129.5</ele><time>2026-04-11T12:32:46.906Z</time></trkpt><trkpt lat="45.296711" lon="11.6882371"><ele>127.25</ele><time>2026-04-11T12:32:47.906Z</time></trkpt><trkpt lat="45.2965923" lon="11.6882513"><ele>125.0</ele><time>2026-04-11T12:32:48.906Z</time></trkpt><trkpt lat="45.2964757" lon="11.6882749"><ele>122.8</ele><time>2026-04-11T12:32:49.906Z</time></trkpt><trkpt lat="45.2963725" lon="11.6883087"><ele>120.6</ele><time>2026-04-11T12:32:50.906Z</time></trkpt><trkpt lat="45.2962759" lon="11.6883582"><ele>118.4</ele><time>2026-04-11T12:32:51.905Z</time></trkpt><trkpt lat="45.2961958" lon="11.6884601"><ele>116.2</ele><time>2026-04-11T12:32:52.906Z</time></trkpt><trkpt lat="45.2961396" lon="11.6885675"><ele>114.0</ele><time>2026-04-11T12:32:53.906Z</time></trkpt><trkpt lat="45.29608" lon="11.6886827"><ele>113.4</ele><time>2026-04-11T12:32:54.906Z</time></trkpt><trkpt lat="45.296032" lon="11.6888138"><ele>112.80000000000001</ele><time>2026-04-11T12:32:55.906Z</time></trkpt><trkpt lat="45.2960013" lon="11.6889397"><ele>112.19999999999999</ele><time>2026-04-11T12:32:56.906Z</time></trkpt><trkpt lat="45.2960072" lon="11.6890997"><ele>111.6</ele><time>2026-04-11T12:32:57.906Z</time></trkpt><trkpt lat="45.2960145" lon="11.6892628"><ele>111.0</ele><time>2026-04-11T12:32:58.906Z</time></trkpt><trkpt lat="45.2960415" lon="11.6894316"><ele>110.19999999999999</ele><time>2026-04-11T12:32:59.906Z</time></trkpt><trkpt lat="45.296065" lon="11.6895779"><ele>109.39999999999999</ele><time>2026-04-11T12:33:00.905Z</time></trkpt><trkpt lat="45.2960733" lon="11.689718"><ele>108.6</ele><time>2026-04-11T12:33:01.906Z</time></trkpt><trkpt lat="45.2961076" lon="11.6898374"><ele>107.8</ele><time>2026-04-11T12:33:02.906Z</time></trkpt><trkpt lat="45.2961253" lon="11.6899434"><ele>107.0</ele><time>2026-04-11T12:33:03.906Z</time></trkpt><trkpt lat="45.2961185" lon="11.6900994"><ele>107.0</ele><time>2026-04-11T12:33:05.905Z</time></trkpt><trkpt lat="45.296025" lon="11.690079"><ele>106.99999999999999</ele><time>2026-04-11T12:33:06.906Z</time></trkpt><trkpt lat="45.295957" lon="11.69002"><ele>106.99999999999999</ele><time>2026-04-11T12:33:07.906Z</time></trkpt><trkpt lat="45.2958743" lon="11.6899594"><ele>107.0</ele><time>2026-04-11T12:33:08.906Z</time></trkpt><trkpt lat="45.295787" lon="11.6898729"><ele>107.0</ele><time>2026-04-11T12:33:09.906Z</time></trkpt><trkpt lat="45.2957174" lon="11.6897609"><ele>107.0</ele><time>2026-04-11T12:33:10.906Z</time></trkpt><trkpt lat="45.2956489" lon="11.6896273"><ele>107.0</ele><time>2026-04-11T12:33:11.906Z</time></trkpt><trkpt lat="45.2955815" lon="11.6894794"><ele>107.0</ele><time>2026-04-11T12:33:12.906Z</time></trkpt><trkpt lat="45.2955073" lon="11.689318"><ele>107.0</ele><time>2026-04-11T12:33:13.906Z</time></trkpt><trkpt lat="45.2954288" lon="11.6891651"><ele>105.0</ele><time>2026-04-11T12:33:14.906Z</time></trkpt><trkpt lat="45.2953524" lon="11.68902"><ele>103.0</ele><time>2026-04-11T12:33:15.906Z</time></trkpt><trkpt lat="45.2952902" lon="11.6888727"><ele>101.0</ele><time>2026-04-11T12:33:16.906Z</time></trkpt><trkpt lat="45.2952494" lon="11.6887174"><ele>99.0</ele><time>2026-04-11T12:33:17.906Z</time></trkpt><trkpt lat="45.295239" lon="11.6885712"><ele>99.0</ele><time>2026-04-11T12:33:18.906Z</time></trkpt><trkpt lat="45.2952421" lon="11.6884335"><ele>99.0</ele><time>2026-04-11T12:33:19.906Z</time></trkpt><trkpt lat="45.2952547" lon="11.6882915"><ele>99.0</ele><time>2026-04-11T12:33:20.906Z</time></trkpt><trkpt lat="45.2952766" lon="11.68815"><ele>99.0</ele><time>2026-04-11T12:33:21.905Z</time></trkpt><trkpt lat="45.2953118" lon="11.6880091"><ele>99.0</ele><time>2026-04-11T12:33:22.906Z</time></trkpt><trkpt lat="45.2953507" lon="11.6878713"><ele>99.16666666666667</ele><time>2026-04-11T12:33:23.906Z</time></trkpt><trkpt lat="45.2953865" lon="11.6877463"><ele>99.33333333333334</ele><time>2026-04-11T12:33:24.905Z</time></trkpt><trkpt lat="45.2954178" lon="11.6876355"><ele>99.5</ele><time>2026-04-11T12:33:25.906Z</time></trkpt><trkpt lat="45.2954441" lon="11.6875357"><ele>99.66666666666667</ele><time>2026-04-11T12:33:26.906Z</time></trkpt><trkpt lat="45.2954481" lon="11.6874391"><ele>99.83333333333334</ele><time>2026-04-11T12:33:27.906Z</time></trkpt><trkpt lat="45.2954445" lon="11.6873415"><ele>100.0</ele><time>2026-04-11T12:33:28.905Z</time></trkpt><trkpt lat="45.295424" lon="11.6872253"><ele>100.0</ele><time>2026-04-11T12:33:29.906Z</time></trkpt><trkpt lat="45.295378" lon="11.6871024"><ele>100.0</ele><time>2026-04-11T12:33:30.906Z</time></trkpt><trkpt lat="45.2953075" lon="11.6869872"><ele>100.0</ele><time>2026-04-11T12:33:31.906Z</time></trkpt><trkpt lat="45.2952257" lon="11.6868593"><ele>100.0</ele><time>2026-04-11T12:33:32.906Z</time></trkpt><trkpt lat="45.2951458" lon="11.6867411"><ele>100.0</ele><time>2026-04-11T12:33:33.906Z</time></trkpt><trkpt lat="45.2950682" lon="11.6866225"><ele>99.2</ele><time>2026-04-11T12:33:34.906Z</time></trkpt><trkpt lat="45.2949965" lon="11.6865138"><ele>98.4</ele><time>2026-04-11T12:33:35.906Z</time></trkpt><trkpt lat="45.2949258" lon="11.6864173"><ele>97.6</ele><time>2026-04-11T12:33:36.906Z</time></trkpt><trkpt lat="45.2948524" lon="11.6863448"><ele>96.8</ele><time>2026-04-11T12:33:37.906Z</time></trkpt><trkpt lat="45.2947678" lon="11.6862875"><ele>96.0</ele><time>2026-04-11T12:33:38.906Z</time></trkpt><trkpt lat="45.294677" lon="11.686248"><ele>95.0</ele><time>2026-04-11T12:33:39.906Z</time></trkpt><trkpt lat="45.2945874" lon="11.6862192"><ele>94.0</ele><time>2026-04-11T12:33:40.906Z</time></trkpt><trkpt lat="45.2944991" lon="11.6861963"><ele>93.0</ele><time>2026-04-11T12:33:41.906Z</time></trkpt><trkpt lat="45.2944165" lon="11.6861671"><ele>92.0</ele><time>2026-04-11T12:33:42.906Z</time></trkpt><trkpt lat="45.2943491" lon="11.68612"><ele>91.0</ele><time>2026-04-11T12:33:43.906Z</time></trkpt><trkpt lat="45.294291" lon="11.6860486"><ele>90.0</ele><time>2026-04-11T12:33:44.906Z</time></trkpt><trkpt lat="45.2942405" lon="11.6859634"><ele>90.0</ele><time>2026-04-11T12:33:45.905Z</time></trkpt><trkpt lat="45.2942" lon="11.6858573"><ele>90.0</ele><time>2026-04-11T12:33:46.906Z</time></trkpt><trkpt lat="45.2941611" lon="11.6857391"><ele>90.0</ele><time>2026-04-11T12:33:47.906Z</time></trkpt><trkpt lat="45.294124" lon="11.6856148"><ele>90.0</ele><time>2026-04-11T12:33:48.905Z</time></trkpt><trkpt lat="45.2940945" lon="11.6854738"><ele>90.0</ele><time>2026-04-11T12:33:49.906Z</time></trkpt><trkpt lat="45.2940694" lon="11.6853319"><ele>90.0</ele><time>2026-04-11T12:33:50.906Z</time></trkpt><trkpt lat="45.2940476" lon="11.6851764"><ele>90.0</ele><time>2026-04-11T12:33:51.906Z</time></trkpt><trkpt lat="45.2940263" lon="11.6850133"><ele>90.0</ele><time>2026-04-11T12:33:52.906Z</time></trkpt><trkpt lat="45.2939977" lon="11.6848536"><ele>90.0</ele><time>2026-04-11T12:33:53.906Z</time></trkpt><trkpt lat="45.2939702" lon="11.6846876"><ele>90.0</ele><time>2026-04-11T12:33:54.906Z</time></trkpt><trkpt lat="45.2939418" lon="11.6845083"><ele>90.0</ele><time>2026-04-11T12:33:55.906Z</time></trkpt><trkpt lat="45.2939115" lon="11.6843437"><ele>90.0</ele><time>2026-04-11T12:33:56.906Z</time></trkpt><trkpt lat="45.2938869" lon="11.6841894"><ele>90.0</ele><time>2026-04-11T12:33:57.906Z</time></trkpt><trkpt lat="45.2938653" lon="11.6840328"><ele>90.6</ele><time>2026-04-11T12:33:58.906Z</time></trkpt><trkpt lat="45.293848" lon="11.6838777"><ele>91.2</ele><time>2026-04-11T12:33:59.905Z</time></trkpt><trkpt lat="45.2938435" lon="11.6837278"><ele>91.80000000000001</ele><time>2026-04-11T12:34:00.906Z</time></trkpt><trkpt lat="45.2938488" lon="11.6835772"><ele>92.4</ele><time>2026-04-11T12:34:01.906Z</time></trkpt><trkpt lat="45.2938509" lon="11.6834375"><ele>93.0</ele><time>2026-04-11T12:34:02.906Z</time></trkpt><trkpt lat="45.2938476" lon="11.6833041"><ele>91.4</ele><time>2026-04-11T12:34:03.906Z</time></trkpt><trkpt lat="45.2938237" lon="11.6831777"><ele>89.80000000000001</ele><time>2026-04-11T12:34:04.906Z</time></trkpt><trkpt lat="45.2937819" lon="11.6830691"><ele>88.2</ele><time>2026-04-11T12:34:05.906Z</time></trkpt><trkpt lat="45.2937164" lon="11.6829696"><ele>86.6</ele><time>2026-04-11T12:34:06.906Z</time></trkpt><trkpt lat="45.2936347" lon="11.6829006"><ele>85.0</ele><time>2026-04-11T12:34:07.906Z</time></trkpt><trkpt lat="45.2935462" lon="11.6828444"><ele>85.0</ele><time>2026-04-11T12:34:08.906Z</time></trkpt><trkpt lat="45.2934533" lon="11.6827903"><ele>85.0</ele><time>2026-04-11T12:34:09.906Z</time></trkpt><trkpt lat="45.293375" lon="11.6827353"><ele>85.0</ele><time>2026-04-11T12:34:10.906Z</time></trkpt><trkpt lat="45.2932932" lon="11.6826625"><ele>85.0</ele><time>2026-04-11T12:34:11.906Z</time></trkpt><trkpt lat="45.2932526" lon="11.6825803"><ele>85.0</ele><time>2026-04-11T12:34:12.906Z</time></trkpt><trkpt lat="45.2932367" lon="11.6824657"><ele>85.0</ele><time>2026-04-11T12:34:13.905Z</time></trkpt><trkpt lat="45.2932251" lon="11.6823475"><ele>84.0</ele><time>2026-04-11T12:34:14.906Z</time></trkpt><trkpt lat="45.2932256" lon="11.6822189"><ele>83.0</ele><time>2026-04-11T12:34:15.906Z</time></trkpt><trkpt lat="45.2932216" lon="11.6820913"><ele>82.0</ele><time>2026-04-11T12:34:16.906Z</time></trkpt><trkpt lat="45.2932172" lon="11.6819641"><ele>81.0</ele><time>2026-04-11T12:34:17.906Z</time></trkpt><trkpt lat="45.2932108" lon="11.6818174"><ele>80.0</ele><time>2026-04-11T12:34:18.906Z</time></trkpt><trkpt lat="45.2931867" lon="11.6816549"><ele>79.66666666666667</ele><time>2026-04-11T12:34:19.906Z</time></trkpt><trkpt lat="45.293161" lon="11.6814971"><ele>79.33333333333333</ele><time>2026-04-11T12:34:20.906Z</time></trkpt><trkpt lat="45.2930931" lon="11.6813095"><ele>79.0</ele><time>2026-04-11T12:34:21.906Z</time></trkpt><trkpt lat="45.2930025" lon="11.6810649"><ele>82.5</ele><time>2026-04-11T12:34:22.906Z</time></trkpt><trkpt lat="45.292903" lon="11.6807623"><ele>86.0</ele><time>2026-04-11T12:34:23.906Z</time></trkpt><trkpt lat="45.2928123" lon="11.6804713"><ele>82.33333333333334</ele><time>2026-04-11T12:34:24.906Z</time></trkpt><trkpt lat="45.2927376" lon="11.6802085"><ele>78.66666666666667</ele><time>2026-04-11T12:34:25.906Z</time></trkpt><trkpt lat="45.2926733" lon="11.6799726"><ele>75.0</ele><time>2026-04-11T12:34:26.906Z</time></trkpt><trkpt lat="45.2926016" lon="11.6797672"><ele>75.0</ele><time>2026-04-11T12:34:27.906Z</time></trkpt><trkpt lat="45.2924963" lon="11.6796073"><ele>75.0</ele><time>2026-04-11T12:34:28.906Z</time></trkpt><trkpt lat="45.2923808" lon="11.679452"><ele>75.0</ele><time>2026-04-11T12:34:29.905Z</time></trkpt><trkpt lat="45.2922595" lon="11.6792983"><ele>78.66666666666667</ele><time>2026-04-11T12:34:30.906Z</time></trkpt><trkpt lat="45.2921532" lon="11.6791312"><ele>82.33333333333334</ele><time>2026-04-11T12:34:31.906Z</time></trkpt><trkpt lat="45.2920648" lon="11.6789468"><ele>86.0</ele><time>2026-04-11T12:34:32.905Z</time></trkpt><trkpt lat="45.2919801" lon="11.6787573"><ele>82.66666666666667</ele><time>2026-04-11T12:34:33.905Z</time></trkpt><trkpt lat="45.291902" lon="11.6785587"><ele>79.33333333333333</ele><time>2026-04-11T12:34:34.906Z</time></trkpt><trkpt lat="45.2918146" lon="11.6783605"><ele>76.0</ele><time>2026-04-11T12:34:35.906Z</time></trkpt><trkpt lat="45.2917338" lon="11.6781484"><ele>76.0</ele><time>2026-04-11T12:34:36.906Z</time></trkpt><trkpt lat="45.2916544" lon="11.6779339"><ele>76.0</ele><time>2026-04-11T12:34:37.905Z</time></trkpt><trkpt lat="45.291583" lon="11.6777077"><ele>76.0</ele><time>2026-04-11T12:34:38.906Z</time></trkpt><trkpt lat="45.2915229" lon="11.6774717"><ele>77.33333333333333</ele><time>2026-04-11T12:34:39.906Z</time></trkpt><trkpt lat="45.2914681" lon="11.6772286"><ele>78.66666666666667</ele><time>2026-04-11T12:34:40.905Z</time></trkpt><trkpt lat="45.2914075" lon="11.6769833"><ele>80.0</ele><time>2026-04-11T12:34:41.906Z</time></trkpt><trkpt lat="45.2913453" lon="11.6767255"><ele>80.0</ele><time>2026-04-11T12:34:42.906Z</time></trkpt><trkpt lat="45.2912903" lon="11.6764593"><ele>80.0</ele><time>2026-04-11T12:34:43.906Z</time></trkpt><trkpt lat="45.2912421" lon="11.6761939"><ele>80.0</ele><time>2026-04-11T12:34:44.906Z</time></trkpt><trkpt lat="45.2911912" lon="11.6759291"><ele>78.66666666666667</ele><time>2026-04-11T12:34:45.906Z</time></trkpt><trkpt lat="45.2911505" lon="11.6756761"><ele>77.33333333333333</ele><time>2026-04-11T12:34:46.906Z</time></trkpt><trkpt lat="45.2911305" lon="11.6754257"><ele>76.0</ele><time>2026-04-11T12:34:47.906Z</time></trkpt><trkpt lat="45.2911375" lon="11.6751729"><ele>74.0</ele><time>2026-04-11T12:34:48.906Z</time></trkpt><trkpt lat="45.2911638" lon="11.6749122"><ele>72.0</ele><time>2026-04-11T12:34:49.906Z</time></trkpt><trkpt lat="45.2912023" lon="11.6746532"><ele>70.0</ele><time>2026-04-11T12:34:50.906Z</time></trkpt><trkpt lat="45.2912382" lon="11.674384"><ele>67.33333333333333</ele><time>2026-04-11T12:34:51.906Z</time></trkpt><trkpt lat="45.2912657" lon="11.6741014"><ele>64.66666666666667</ele><time>2026-04-11T12:34:52.906Z</time></trkpt><trkpt lat="45.2912793" lon="11.6738181"><ele>62.0</ele><time>2026-04-11T12:34:53.906Z</time></trkpt><trkpt lat="45.2912888" lon="11.6735356"><ele>60.333333333333336</ele><time>2026-04-11T12:34:54.906Z</time></trkpt><trkpt lat="45.2912907" lon="11.6732464"><ele>58.66666666666667</ele><time>2026-04-11T12:34:55.906Z</time></trkpt><trkpt lat="45.2912831" lon="11.6729542"><ele>57.0</ele><time>2026-04-11T12:34:56.905Z</time></trkpt><trkpt lat="45.2912729" lon="11.6726592"><ele>56.0</ele><time>2026-04-11T12:34:57.906Z</time></trkpt><trkpt lat="45.2912545" lon="11.6723672"><ele>55.0</ele><time>2026-04-11T12:34:58.906Z</time></trkpt><trkpt lat="45.2912323" lon="11.6720743"><ele>54.0</ele><time>2026-04-11T12:34:59.906Z</time></trkpt><trkpt lat="45.2911989" lon="11.6717835"><ele>53.33333333333333</ele><time>2026-04-11T12:35:00.906Z</time></trkpt><trkpt lat="45.2911509" lon="11.6714947"><ele>52.666666666666664</ele><time>2026-04-11T12:35:01.906Z</time></trkpt><trkpt lat="45.2910882" lon="11.671207"><ele>52.0</ele><time>2026-04-11T12:35:02.906Z</time></trkpt><trkpt lat="45.2910305" lon="11.6709149"><ele>51.666666666666664</ele><time>2026-04-11T12:35:03.906Z</time></trkpt><trkpt lat="45.2909673" lon="11.6706245"><ele>51.33333333333333</ele><time>2026-04-11T12:35:04.906Z</time></trkpt><trkpt lat="45.2909032" lon="11.6703333"><ele>51.0</ele><time>2026-04-11T12:35:05.906Z</time></trkpt><trkpt lat="45.2908412" lon="11.6700477"><ele>50.33333333333333</ele><time>2026-04-11T12:35:06.906Z</time></trkpt><trkpt lat="45.2907858" lon="11.6697589"><ele>49.666666666666664</ele><time>2026-04-11T12:35:07.905Z</time></trkpt><trkpt lat="45.2907415" lon="11.6694542"><ele>49.0</ele><time>2026-04-11T12:35:08.906Z</time></trkpt><trkpt lat="45.2907146" lon="11.6691462"><ele>49.0</ele><time>2026-04-11T12:35:09.906Z</time></trkpt><trkpt lat="45.2906945" lon="11.6688331"><ele>49.0</ele><time>2026-04-11T12:35:10.906Z</time></trkpt><trkpt lat="45.290672" lon="11.6685226"><ele>49.0</ele><time>2026-04-11T12:35:11.906Z</time></trkpt><trkpt lat="45.2906514" lon="11.6682085"><ele>48.666666666666664</ele><time>2026-04-11T12:35:12.906Z</time></trkpt><trkpt lat="45.2906332" lon="11.6678929"><ele>48.33333333333333</ele><time>2026-04-11T12:35:13.906Z</time></trkpt><trkpt lat="45.290615" lon="11.6675769"><ele>48.0</ele><time>2026-04-11T12:35:14.906Z</time></trkpt><trkpt lat="45.2905972" lon="11.6672653"><ele>46.333333333333336</ele><time>2026-04-11T12:35:15.906Z</time></trkpt><trkpt lat="45.2905827" lon="11.6669589"><ele>44.66666666666667</ele><time>2026-04-11T12:35:16.906Z</time></trkpt><trkpt lat="45.290564" lon="11.6666447"><ele>43.0</ele><time>2026-04-11T12:35:17.906Z</time></trkpt><trkpt lat="45.2905444" lon="11.666329"><ele>42.66666666666667</ele><time>2026-04-11T12:35:18.906Z</time></trkpt><trkpt lat="45.290535" lon="11.6660113"><ele>42.333333333333336</ele><time>2026-04-11T12:35:19.906Z</time></trkpt><trkpt lat="45.2905486" lon="11.6656977"><ele>42.0</ele><time>2026-04-11T12:35:20.906Z</time></trkpt><trkpt lat="45.2905747" lon="11.6653847"><ele>45.33333333333333</ele><time>2026-04-11T12:35:21.906Z</time></trkpt><trkpt lat="45.2906155" lon="11.6650734"><ele>48.666666666666664</ele><time>2026-04-11T12:35:22.906Z</time></trkpt><trkpt lat="45.2906585" lon="11.6647696"><ele>52.0</ele><time>2026-04-11T12:35:23.906Z</time></trkpt><trkpt lat="45.2906956" lon="11.6644826"><ele>50.33333333333333</ele><time>2026-04-11T12:35:24.906Z</time></trkpt><trkpt lat="45.2907285" lon="11.6642271"><ele>48.666666666666664</ele><time>2026-04-11T12:35:25.906Z</time></trkpt><trkpt lat="45.2907617" lon="11.6640031"><ele>47.0</ele><time>2026-04-11T12:35:26.906Z</time></trkpt><trkpt lat="45.2907922" lon="11.6638001"><ele>45.25</ele><time>2026-04-11T12:35:27.906Z</time></trkpt><trkpt lat="45.2908203" lon="11.6636118"><ele>43.5</ele><time>2026-04-11T12:35:28.906Z</time></trkpt><trkpt lat="45.2908584" lon="11.6634402"><ele>41.75</ele><time>2026-04-11T12:35:29.906Z</time></trkpt><trkpt lat="45.2909113" lon="11.6632678"><ele>40.0</ele><time>2026-04-11T12:35:30.906Z</time></trkpt><trkpt lat="45.2909765" lon="11.6631003"><ele>40.0</ele><time>2026-04-11T12:35:31.906Z</time></trkpt><trkpt lat="45.2910452" lon="11.6629325"><ele>40.0</ele><time>2026-04-11T12:35:32.906Z</time></trkpt><trkpt lat="45.291111" lon="11.662759"><ele>40.0</ele><time>2026-04-11T12:35:33.906Z</time></trkpt><trkpt lat="45.2911706" lon="11.6625924"><ele>40.0</ele><time>2026-04-11T12:35:34.906Z</time></trkpt><trkpt lat="45.2912173" lon="11.6624473"><ele>39.25</ele><time>2026-04-11T12:35:35.906Z</time></trkpt><trkpt lat="45.2912534" lon="11.6623323"><ele>38.5</ele><time>2026-04-11T12:35:36.906Z</time></trkpt><trkpt lat="45.2912914" lon="11.6621958"><ele>37.75</ele><time>2026-04-11T12:35:38.906Z</time></trkpt><trkpt lat="45.2911857" lon="11.6621185"><ele>37.0</ele><time>2026-04-11T12:35:41.906Z</time></trkpt><trkpt lat="45.2910207" lon="11.6620242"><ele>37.0</ele><time>2026-04-11T12:35:43.906Z</time></trkpt><trkpt lat="45.2909227" lon="11.6619525"><ele>37.0</ele><time>2026-04-11T12:35:44.906Z</time></trkpt><trkpt lat="45.2908072" lon="11.6618941"><ele>37.0</ele><time>2026-04-11T12:35:45.906Z</time></trkpt><trkpt lat="45.2906786" lon="11.6618322"><ele>37.0</ele><time>2026-04-11T12:35:46.905Z</time></trkpt><trkpt lat="45.2905483" lon="11.661768"><ele>36.75</ele><time>2026-04-11T12:35:47.906Z</time></trkpt><trkpt lat="45.2904179" lon="11.6617097"><ele>36.5</ele><time>2026-04-11T12:35:48.906Z</time></trkpt><trkpt lat="45.2902808" lon="11.6616765"><ele>36.25</ele><time>2026-04-11T12:35:49.905Z</time></trkpt><trkpt lat="45.2901445" lon="11.6616851"><ele>36.0</ele><time>2026-04-11T12:35:50.906Z</time></trkpt><trkpt lat="45.2900055" lon="11.6617116"><ele>36.0</ele><time>2026-04-11T12:35:51.906Z</time></trkpt><trkpt lat="45.2898598" lon="11.6617205"><ele>36.0</ele><time>2026-04-11T12:35:52.905Z</time></trkpt><trkpt lat="45.2897163" lon="11.6616965"><ele>36.0</ele><time>2026-04-11T12:35:53.906Z</time></trkpt><trkpt lat="45.2895762" lon="11.6616751"><ele>36.0</ele><time>2026-04-11T12:35:54.906Z</time></trkpt><trkpt lat="45.2894448" lon="11.6616362"><ele>35.5</ele><time>2026-04-11T12:35:55.906Z</time></trkpt><trkpt lat="45.2893121" lon="11.6616023"><ele>35.0</ele><time>2026-04-11T12:35:56.906Z</time></trkpt><trkpt lat="45.2891863" lon="11.6615721"><ele>34.5</ele><time>2026-04-11T12:35:57.906Z</time></trkpt><trkpt lat="45.2890592" lon="11.6615448"><ele>34.0</ele><time>2026-04-11T12:35:58.906Z</time></trkpt><trkpt lat="45.2889328" lon="11.6615118"><ele>34.0</ele><time>2026-04-11T12:35:59.906Z</time></trkpt><trkpt lat="45.2888092" lon="11.6614689"><ele>34.0</ele><time>2026-04-11T12:36:00.906Z</time></trkpt><trkpt lat="45.288683" lon="11.6614066"><ele>34.0</ele><time>2026-04-11T12:36:01.906Z</time></trkpt><trkpt lat="45.2885538" lon="11.6613299"><ele>34.0</ele><time>2026-04-11T12:36:02.905Z</time></trkpt><trkpt lat="45.2884266" lon="11.6612525"><ele>34.0</ele><time>2026-04-11T12:36:03.906Z</time></trkpt><trkpt lat="45.2882998" lon="11.6611767"><ele>34.0</ele><time>2026-04-11T12:36:04.906Z</time></trkpt><trkpt lat="45.2881739" lon="11.661119"><ele>34.0</ele><time>2026-04-11T12:36:05.906Z</time></trkpt><trkpt lat="45.2880522" lon="11.6610529"><ele>34.0</ele><time>2026-04-11T12:36:06.906Z</time></trkpt><trkpt lat="45.2879192" lon="11.6610205"><ele>35.0</ele><time>2026-04-11T12:36:07.906Z</time></trkpt><trkpt lat="45.2877653" lon="11.6610065"><ele>36.0</ele><time>2026-04-11T12:36:08.906Z</time></trkpt><trkpt lat="45.2875683" lon="11.6610293"><ele>37.0</ele><time>2026-04-11T12:36:09.906Z</time></trkpt><trkpt lat="45.2873446" lon="11.6610621"><ele>42.0</ele><time>2026-04-11T12:36:10.905Z</time></trkpt><trkpt lat="45.2871078" lon="11.6611297"><ele>47.0</ele><time>2026-04-11T12:36:11.906Z</time></trkpt><trkpt lat="45.2868921" lon="11.6611989"><ele>47.0</ele><time>2026-04-11T12:36:12.906Z</time></trkpt><trkpt lat="45.2866681" lon="11.661282"><ele>47.0</ele><time>2026-04-11T12:36:13.906Z</time></trkpt><trkpt lat="45.2864931" lon="11.6613694"><ele>47.0</ele><time>2026-04-11T12:36:14.906Z</time></trkpt><trkpt lat="45.2863093" lon="11.6614895"><ele>45.33333333333333</ele><time>2026-04-11T12:36:15.906Z</time></trkpt><trkpt lat="45.286137" lon="11.6616158"><ele>43.666666666666664</ele><time>2026-04-11T12:36:16.906Z</time></trkpt><trkpt lat="45.2859779" lon="11.6617663"><ele>42.0</ele><time>2026-04-11T12:36:17.906Z</time></trkpt><trkpt lat="45.2857982" lon="11.6619598"><ele>43.0</ele><time>2026-04-11T12:36:18.906Z</time></trkpt><trkpt lat="45.2856196" lon="11.6621697"><ele>44.0</ele><time>2026-04-11T12:36:19.905Z</time></trkpt><trkpt lat="45.2854351" lon="11.6623694"><ele>44.0</ele><time>2026-04-11T12:36:20.906Z</time></trkpt><trkpt lat="45.2852494" lon="11.6625591"><ele>44.0</ele><time>2026-04-11T12:36:21.906Z</time></trkpt><trkpt lat="45.2850862" lon="11.6626846"><ele>44.0</ele><time>2026-04-11T12:36:22.906Z</time></trkpt><trkpt lat="45.2849288" lon="11.6627835"><ele>46.0</ele><time>2026-04-11T12:36:23.906Z</time></trkpt><trkpt lat="45.2847776" lon="11.662855"><ele>48.0</ele><time>2026-04-11T12:36:24.905Z</time></trkpt><trkpt lat="45.2846216" lon="11.6628843"><ele>50.0</ele><time>2026-04-11T12:36:25.906Z</time></trkpt><trkpt lat="45.2844257" lon="11.6628964"><ele>50.5</ele><time>2026-04-11T12:36:26.906Z</time></trkpt><trkpt lat="45.2842061" lon="11.6629252"><ele>51.0</ele><time>2026-04-11T12:36:27.906Z</time></trkpt><trkpt lat="45.2839714" lon="11.6629435"><ele>53.0</ele><time>2026-04-11T12:36:28.906Z</time></trkpt><trkpt lat="45.2837336" lon="11.662959"><ele>55.0</ele><time>2026-04-11T12:36:29.906Z</time></trkpt><trkpt lat="45.2835248" lon="11.6629787"><ele>57.0</ele><time>2026-04-11T12:36:30.906Z</time></trkpt><trkpt lat="45.2833336" lon="11.6630248"><ele>57.0</ele><time>2026-04-11T12:36:31.906Z</time></trkpt><trkpt lat="45.2831306" lon="11.6631318"><ele>57.0</ele><time>2026-04-11T12:36:32.906Z</time></trkpt><trkpt lat="45.2829382" lon="11.6632273"><ele>57.0</ele><time>2026-04-11T12:36:33.906Z</time></trkpt><trkpt lat="45.2827376" lon="11.6633122"><ele>59.0</ele><time>2026-04-11T12:36:34.906Z</time></trkpt><trkpt lat="45.2826008" lon="11.663332"><ele>61.0</ele><time>2026-04-11T12:36:35.905Z</time></trkpt><trkpt lat="45.2824705" lon="11.6633519"><ele>63.0</ele><time>2026-04-11T12:36:36.906Z</time></trkpt><trkpt lat="45.2823527" lon="11.6633433"><ele>65.0</ele><time>2026-04-11T12:36:37.906Z</time></trkpt><trkpt lat="45.2822498" lon="11.6633148"><ele>65.0</ele><time>2026-04-11T12:36:38.906Z</time></trkpt><trkpt lat="45.2821521" lon="11.663285"><ele>65.0</ele><time>2026-04-11T12:36:39.906Z</time></trkpt><trkpt lat="45.2820547" lon="11.6632286"><ele>65.0</ele><time>2026-04-11T12:36:40.906Z</time></trkpt><trkpt lat="45.2819593" lon="11.6631687"><ele>65.0</ele><time>2026-04-11T12:36:41.906Z</time></trkpt><trkpt lat="45.2818618" lon="11.6630768"><ele>65.0</ele><time>2026-04-11T12:36:42.906Z</time></trkpt><trkpt lat="45.2817559" lon="11.6630099"><ele>65.0</ele><time>2026-04-11T12:36:43.906Z</time></trkpt><trkpt lat="45.2816531" lon="11.6629494"><ele>65.0</ele><time>2026-04-11T12:36:44.906Z</time></trkpt><trkpt lat="45.2815504" lon="11.6628874"><ele>65.0</ele><time>2026-04-11T12:36:45.906Z</time></trkpt><trkpt lat="45.2814478" lon="11.6628262"><ele>65.0</ele><time>2026-04-11T12:36:46.906Z</time></trkpt><trkpt lat="45.2813573" lon="11.6627641"><ele>65.0</ele><time>2026-04-11T12:36:47.906Z</time></trkpt><trkpt lat="45.281265" lon="11.6626914"><ele>63.25</ele><time>2026-04-11T12:36:48.906Z</time></trkpt><trkpt lat="45.2811739" lon="11.6626059"><ele>61.5</ele><time>2026-04-11T12:36:49.906Z</time></trkpt><trkpt lat="45.2810711" lon="11.6625277"><ele>59.75</ele><time>2026-04-11T12:36:50.906Z</time></trkpt><trkpt lat="45.2809551" lon="11.6624601"><ele>58.0</ele><time>2026-04-11T12:36:51.906Z</time></trkpt><trkpt lat="45.2808352" lon="11.6624104"><ele>58.0</ele><time>2026-04-11T12:36:52.906Z</time></trkpt><trkpt lat="45.2807154" lon="11.6623743"><ele>58.0</ele><time>2026-04-11T12:36:53.906Z</time></trkpt><trkpt lat="45.2805846" lon="11.6623473"><ele>58.0</ele><time>2026-04-11T12:36:54.906Z</time></trkpt><trkpt lat="45.2804614" lon="11.6623179"><ele>58.0</ele><time>2026-04-11T12:36:55.905Z</time></trkpt><trkpt lat="45.2803421" lon="11.6622979"><ele>55.25</ele><time>2026-04-11T12:36:56.906Z</time></trkpt><trkpt lat="45.2802265" lon="11.6622838"><ele>52.5</ele><time>2026-04-11T12:36:57.906Z</time></trkpt><trkpt lat="45.2801221" lon="11.6622608"><ele>49.75</ele><time>2026-04-11T12:36:58.906Z</time></trkpt><trkpt lat="45.2800131" lon="11.6622234"><ele>47.0</ele><time>2026-04-11T12:36:59.906Z</time></trkpt><trkpt lat="45.2799002" lon="11.6621775"><ele>47.0</ele><time>2026-04-11T12:37:00.906Z</time></trkpt><trkpt lat="45.279785" lon="11.6621133"><ele>47.0</ele><time>2026-04-11T12:37:01.906Z</time></trkpt><trkpt lat="45.2796643" lon="11.6620292"><ele>47.0</ele><time>2026-04-11T12:37:02.906Z</time></trkpt><trkpt lat="45.2795376" lon="11.6619348"><ele>47.0</ele><time>2026-04-11T12:37:03.906Z</time></trkpt><trkpt lat="45.279407" lon="11.6618342"><ele>49.0</ele><time>2026-04-11T12:37:04.906Z</time></trkpt><trkpt lat="45.2792692" lon="11.6617255"><ele>51.0</ele><time>2026-04-11T12:37:05.906Z</time></trkpt><trkpt lat="45.2790742" lon="11.6615859"><ele>53.0</ele><time>2026-04-11T12:37:06.906Z</time></trkpt><trkpt lat="45.2788712" lon="11.6614094"><ele>52.333333333333336</ele><time>2026-04-11T12:37:07.906Z</time></trkpt><trkpt lat="45.2786845" lon="11.6612542"><ele>51.66666666666667</ele><time>2026-04-11T12:37:08.906Z</time></trkpt><trkpt lat="45.2785136" lon="11.6611228"><ele>51.0</ele><time>2026-04-11T12:37:09.906Z</time></trkpt><trkpt lat="45.2783461" lon="11.6609982"><ele>51.0</ele><time>2026-04-11T12:37:10.906Z</time></trkpt><trkpt lat="45.2781709" lon="11.6609125"><ele>51.0</ele><time>2026-04-11T12:37:11.906Z</time></trkpt><trkpt lat="45.2779999" lon="11.6608403"><ele>51.0</ele><time>2026-04-11T12:37:12.906Z</time></trkpt><trkpt lat="45.2778458" lon="11.6607852"><ele>48.599999999999994</ele><time>2026-04-11T12:37:13.906Z</time></trkpt><trkpt lat="45.2777125" lon="11.6607377"><ele>46.199999999999996</ele><time>2026-04-11T12:37:14.905Z</time></trkpt><trkpt lat="45.2775806" lon="11.6606908"><ele>43.8</ele><time>2026-04-11T12:37:15.906Z</time></trkpt><trkpt lat="45.2774957" lon="11.6606567"><ele>41.4</ele><time>2026-04-11T12:37:16.906Z</time></trkpt><trkpt lat="45.2774144" lon="11.6606341"><ele>39.0</ele><time>2026-04-11T12:37:17.906Z</time></trkpt><trkpt lat="45.2773403" lon="11.6606334"><ele>39.0</ele><time>2026-04-11T12:37:18.906Z</time></trkpt><trkpt lat="45.2772739" lon="11.6606793"><ele>39.0</ele><time>2026-04-11T12:37:19.906Z</time></trkpt><trkpt lat="45.2772574" lon="11.6608052"><ele>39.0</ele><time>2026-04-11T12:37:20.906Z</time></trkpt><trkpt lat="45.2772396" lon="11.6609333"><ele>39.0</ele><time>2026-04-11T12:37:21.906Z</time></trkpt><trkpt lat="45.2772167" lon="11.6610875"><ele>39.0</ele><time>2026-04-11T12:37:22.906Z</time></trkpt><trkpt lat="45.277193" lon="11.6612573"><ele>36.4</ele><time>2026-04-11T12:37:23.906Z</time></trkpt><trkpt lat="45.2771579" lon="11.6614105"><ele>33.8</ele><time>2026-04-11T12:37:24.906Z</time></trkpt><trkpt lat="45.2771076" lon="11.6615488"><ele>31.200000000000003</ele><time>2026-04-11T12:37:25.906Z</time></trkpt><trkpt lat="45.277049" lon="11.661671"><ele>28.6</ele><time>2026-04-11T12:37:26.906Z</time></trkpt><trkpt lat="45.2770031" lon="11.6617752"><ele>26.0</ele><time>2026-04-11T12:37:27.906Z</time></trkpt><trkpt lat="45.2769476" lon="11.6618621"><ele>25.8</ele><time>2026-04-11T12:37:28.905Z</time></trkpt><trkpt lat="45.2768621" lon="11.6619737"><ele>25.6</ele><time>2026-04-11T12:37:30.906Z</time></trkpt><trkpt lat="45.2768237" lon="11.6620593"><ele>25.4</ele><time>2026-04-11T12:37:31.906Z</time></trkpt><trkpt lat="45.276807" lon="11.6621749"><ele>25.2</ele><time>2026-04-11T12:37:32.906Z</time></trkpt><trkpt lat="45.2768093" lon="11.6623289"><ele>25.0</ele><time>2026-04-11T12:37:33.906Z</time></trkpt><trkpt lat="45.2767939" lon="11.6624638"><ele>25.0</ele><time>2026-04-11T12:37:34.906Z</time></trkpt><trkpt lat="45.276757" lon="11.6625695"><ele>25.0</ele><time>2026-04-11T12:37:35.906Z</time></trkpt><trkpt lat="45.2767094" lon="11.6626488"><ele>25.0</ele><time>2026-04-11T12:37:36.906Z</time></trkpt><trkpt lat="45.2766458" lon="11.6626919"><ele>25.0</ele><time>2026-04-11T12:37:37.906Z</time></trkpt><trkpt lat="45.2765364" lon="11.6627172"><ele>25.0</ele><time>2026-04-11T12:37:38.906Z</time></trkpt><trkpt lat="45.2763289" lon="11.6627078"><ele>24.0</ele><time>2026-04-11T12:37:39.906Z</time></trkpt><trkpt lat="45.276134" lon="11.6627072"><ele>23.0</ele><time>2026-04-11T12:37:40.906Z</time></trkpt><trkpt lat="45.2759441" lon="11.6627047"><ele>22.0</ele><time>2026-04-11T12:37:41.906Z</time></trkpt><trkpt lat="45.2757797" lon="11.6626867"><ele>22.0</ele><time>2026-04-11T12:37:42.906Z</time></trkpt><trkpt lat="45.2756201" lon="11.6626822"><ele>22.0</ele><time>2026-04-11T12:37:43.906Z</time></trkpt><trkpt lat="45.2754698" lon="11.662693"><ele>22.0</ele><time>2026-04-11T12:37:44.906Z</time></trkpt><trkpt lat="45.2753211" lon="11.6627095"><ele>22.0</ele><time>2026-04-11T12:37:45.906Z</time></trkpt><trkpt lat="45.2751794" lon="11.6627394"><ele>22.0</ele><time>2026-04-11T12:37:46.906Z</time></trkpt><trkpt lat="45.27504" lon="11.6627605"><ele>22.0</ele><time>2026-04-11T12:37:47.906Z</time></trkpt><trkpt lat="45.2748967" lon="11.6628156"><ele>22.0</ele><time>2026-04-11T12:37:48.906Z</time></trkpt><trkpt lat="45.2747549" lon="11.6628708"><ele>21.75</ele><time>2026-04-11T12:37:49.906Z</time></trkpt><trkpt lat="45.2746148" lon="11.6629432"><ele>21.5</ele><time>2026-04-11T12:37:50.906Z</time></trkpt><trkpt lat="45.2744819" lon="11.6630174"><ele>21.25</ele><time>2026-04-11T12:37:51.906Z</time></trkpt><trkpt lat="45.2743549" lon="11.6630889"><ele>21.0</ele><time>2026-04-11T12:37:52.906Z</time></trkpt><trkpt lat="45.2742017" lon="11.6631652"><ele>21.0</ele><time>2026-04-11T12:37:53.906Z</time></trkpt><trkpt lat="45.2740599" lon="11.6631958"><ele>21.0</ele><time>2026-04-11T12:37:54.906Z</time></trkpt><trkpt lat="45.2739134" lon="11.6632113"><ele>21.0</ele><time>2026-04-11T12:37:55.906Z</time></trkpt><trkpt lat="45.2737624" lon="11.663221"><ele>21.0</ele><time>2026-04-11T12:37:56.906Z</time></trkpt><trkpt lat="45.2736142" lon="11.6632083"><ele>20.25</ele><time>2026-04-11T12:37:57.906Z</time></trkpt><trkpt lat="45.273477" lon="11.6631913"><ele>19.5</ele><time>2026-04-11T12:37:58.906Z</time></trkpt><trkpt lat="45.2733421" lon="11.663171"><ele>18.75</ele><time>2026-04-11T12:37:59.906Z</time></trkpt><trkpt lat="45.273209" lon="11.6631408"><ele>18.0</ele><time>2026-04-11T12:38:00.906Z</time></trkpt><trkpt lat="45.2730706" lon="11.6631209"><ele>17.5</ele><time>2026-04-11T12:38:01.905Z</time></trkpt><trkpt lat="45.2729342" lon="11.6631023"><ele>17.0</ele><time>2026-04-11T12:38:02.906Z</time></trkpt><trkpt lat="45.2727979" lon="11.6630754"><ele>16.5</ele><time>2026-04-11T12:38:03.906Z</time></trkpt><trkpt lat="45.2726603" lon="11.6630571"><ele>16.0</ele><time>2026-04-11T12:38:04.906Z</time></trkpt><trkpt lat="45.2725244" lon="11.6630408"><ele>16.0</ele><time>2026-04-11T12:38:05.906Z</time></trkpt><trkpt lat="45.2723904" lon="11.6630182"><ele>16.0</ele><time>2026-04-11T12:38:06.906Z</time></trkpt><trkpt lat="45.2722512" lon="11.6629976"><ele>16.0</ele><time>2026-04-11T12:38:07.906Z</time></trkpt><trkpt lat="45.2721057" lon="11.6629892"><ele>16.0</ele><time>2026-04-11T12:38:08.906Z</time></trkpt><trkpt lat="45.2719602" lon="11.6629903"><ele>14.666666666666666</ele><time>2026-04-11T12:38:09.906Z</time></trkpt><trkpt lat="45.2718161" lon="11.6630155"><ele>13.333333333333332</ele><time>2026-04-11T12:38:10.906Z</time></trkpt><trkpt lat="45.271669" lon="11.6630864"><ele>12.0</ele><time>2026-04-11T12:38:11.906Z</time></trkpt><trkpt lat="45.2715308" lon="11.6631697"><ele>12.333333333333332</ele><time>2026-04-11T12:38:12.905Z</time></trkpt><trkpt lat="45.2713656" lon="11.6633186"><ele>12.666666666666666</ele><time>2026-04-11T12:38:13.906Z</time></trkpt><trkpt lat="45.2712102" lon="11.6634783"><ele>13.0</ele><time>2026-04-11T12:38:14.906Z</time></trkpt><trkpt lat="45.2710247" lon="11.6636256"><ele>13.666666666666666</ele><time>2026-04-11T12:38:15.906Z</time></trkpt><trkpt lat="45.2708387" lon="11.6637439"><ele>14.333333333333332</ele><time>2026-04-11T12:38:16.906Z</time></trkpt><trkpt lat="45.2706327" lon="11.6638262"><ele>15.0</ele><time>2026-04-11T12:38:17.906Z</time></trkpt><trkpt lat="45.2704132" lon="11.6638686"><ele>18.5</ele><time>2026-04-11T12:38:18.906Z</time></trkpt><trkpt lat="45.2701802" lon="11.6639094"><ele>22.0</ele><time>2026-04-11T12:38:19.906Z</time></trkpt><trkpt lat="45.2699506" lon="11.6639259"><ele>24.0</ele><time>2026-04-11T12:38:20.906Z</time></trkpt><trkpt lat="45.2697248" lon="11.6639135"><ele>26.0</ele><time>2026-04-11T12:38:21.906Z</time></trkpt><trkpt lat="45.2695469" lon="11.6638593"><ele>28.0</ele><time>2026-04-11T12:38:22.906Z</time></trkpt><trkpt lat="45.2693655" lon="11.6637921"><ele>28.0</ele><time>2026-04-11T12:38:23.906Z</time></trkpt><trkpt lat="45.2692184" lon="11.6637338"><ele>28.0</ele><time>2026-04-11T12:38:24.906Z</time></trkpt><trkpt lat="45.2690661" lon="11.6636823"><ele>28.0</ele><time>2026-04-11T12:38:25.906Z</time></trkpt><trkpt lat="45.2689569" lon="11.6636656"><ele>28.0</ele><time>2026-04-11T12:38:26.906Z</time></trkpt><trkpt lat="45.2688593" lon="11.6636726"><ele>26.0</ele><time>2026-04-11T12:38:27.906Z</time></trkpt><trkpt lat="45.2687686" lon="11.6637136"><ele>23.999999999999996</ele><time>2026-04-11T12:38:28.906Z</time></trkpt><trkpt lat="45.2686817" lon="11.6637745"><ele>22.0</ele><time>2026-04-11T12:38:29.906Z</time></trkpt><trkpt lat="45.2686179" lon="11.6638593"><ele>20.0</ele><time>2026-04-11T12:38:30.906Z</time></trkpt><trkpt lat="45.2685678" lon="11.6640765"><ele>18.0</ele><time>2026-04-11T12:38:31.906Z</time></trkpt><trkpt lat="45.2685184" lon="11.664261"><ele>19.666666666666668</ele><time>2026-04-11T12:38:32.906Z</time></trkpt><trkpt lat="45.2684776" lon="11.6644798"><ele>21.333333333333336</ele><time>2026-04-11T12:38:33.906Z</time></trkpt><trkpt lat="45.2684319" lon="11.6646747"><ele>23.0</ele><time>2026-04-11T12:38:34.906Z</time></trkpt><trkpt lat="45.2683936" lon="11.6648856"><ele>23.0</ele><time>2026-04-11T12:38:35.906Z</time></trkpt><trkpt lat="45.2683594" lon="11.6650887"><ele>23.0</ele><time>2026-04-11T12:38:36.906Z</time></trkpt><trkpt lat="45.2683487" lon="11.6653272"><ele>23.0</ele><time>2026-04-11T12:38:37.906Z</time></trkpt><trkpt lat="45.2683398" lon="11.6655564"><ele>23.666666666666668</ele><time>2026-04-11T12:38:38.906Z</time></trkpt><trkpt lat="45.2683241" lon="11.6658053"><ele>24.333333333333336</ele><time>2026-04-11T12:38:39.906Z</time></trkpt><trkpt lat="45.2683067" lon="11.6660614"><ele>25.0</ele><time>2026-04-11T12:38:40.906Z</time></trkpt><trkpt lat="45.2682821" lon="11.6663043"><ele>25.666666666666668</ele><time>2026-04-11T12:38:41.906Z</time></trkpt><trkpt lat="45.2682614" lon="11.6665748"><ele>26.333333333333336</ele><time>2026-04-11T12:38:42.906Z</time></trkpt><trkpt lat="45.2682422" lon="11.6668458"><ele>27.0</ele><time>2026-04-11T12:38:43.906Z</time></trkpt><trkpt lat="45.268218" lon="11.6671077"><ele>25.333333333333332</ele><time>2026-04-11T12:38:44.906Z</time></trkpt><trkpt lat="45.2681893" lon="11.6673744"><ele>23.666666666666664</ele><time>2026-04-11T12:38:45.906Z</time></trkpt><trkpt lat="45.2681377" lon="11.6676255"><ele>22.0</ele><time>2026-04-11T12:38:46.906Z</time></trkpt><trkpt lat="45.2680857" lon="11.6678859"><ele>19.333333333333332</ele><time>2026-04-11T12:38:47.906Z</time></trkpt><trkpt lat="45.2680124" lon="11.6681368"><ele>16.666666666666668</ele><time>2026-04-11T12:38:48.906Z</time></trkpt><trkpt lat="45.2679266" lon="11.6683772"><ele>14.0</ele><time>2026-04-11T12:38:49.906Z</time></trkpt><trkpt lat="45.2678475" lon="11.668609"><ele>15.0</ele><time>2026-04-11T12:38:50.906Z</time></trkpt><trkpt lat="45.2677692" lon="11.6688473"><ele>16.0</ele><time>2026-04-11T12:38:51.906Z</time></trkpt><trkpt lat="45.2676938" lon="11.6690803"><ele>17.0</ele><time>2026-04-11T12:38:52.906Z</time></trkpt><trkpt lat="45.2676199" lon="11.6693058"><ele>18.333333333333336</ele><time>2026-04-11T12:38:53.906Z</time></trkpt><trkpt lat="45.2675448" lon="11.6695353"><ele>19.666666666666668</ele><time>2026-04-11T12:38:54.906Z</time></trkpt><trkpt lat="45.267466" lon="11.6697881"><ele>21.0</ele><time>2026-04-11T12:38:55.906Z</time></trkpt><trkpt lat="45.2673767" lon="11.6700731"><ele>24.5</ele><time>2026-04-11T12:38:56.906Z</time></trkpt><trkpt lat="45.2672939" lon="11.6704095"><ele>28.0</ele><time>2026-04-11T12:38:57.906Z</time></trkpt><trkpt lat="45.2672176" lon="11.6707724"><ele>21.5</ele><time>2026-04-11T12:38:58.906Z</time></trkpt><trkpt lat="45.2671456" lon="11.6711539"><ele>15.0</ele><time>2026-04-11T12:38:59.906Z</time></trkpt><trkpt lat="45.2670718" lon="11.6714997"><ele>15.0</ele><time>2026-04-11T12:39:00.906Z</time></trkpt><trkpt lat="45.2669799" lon="11.6717832"><ele>15.0</ele><time>2026-04-11T12:39:01.906Z</time></trkpt><trkpt lat="45.2668885" lon="11.6720255"><ele>15.0</ele><time>2026-04-11T12:39:02.905Z</time></trkpt><trkpt lat="45.266808" lon="11.6722918"><ele>15.666666666666668</ele><time>2026-04-11T12:39:03.906Z</time></trkpt><trkpt lat="45.2667814" lon="11.6725716"><ele>16.333333333333336</ele><time>2026-04-11T12:39:04.906Z</time></trkpt><trkpt lat="45.2667587" lon="11.6728996"><ele>17.0</ele><time>2026-04-11T12:39:05.906Z</time></trkpt><trkpt lat="45.2667737" lon="11.6732571"><ele>17.0</ele><time>2026-04-11T12:39:06.906Z</time></trkpt><trkpt lat="45.2667853" lon="11.6736557"><ele>17.0</ele><time>2026-04-11T12:39:07.906Z</time></trkpt><trkpt lat="45.2667883" lon="11.6740898"><ele>17.0</ele><time>2026-04-11T12:39:08.906Z</time></trkpt><trkpt lat="45.2667781" lon="11.6745354"><ele>17.0</ele><time>2026-04-11T12:39:09.906Z</time></trkpt><trkpt lat="45.2667711" lon="11.6749785"><ele>17.5</ele><time>2026-04-11T12:39:10.906Z</time></trkpt><trkpt lat="45.2667653" lon="11.6753593"><ele>18.0</ele><time>2026-04-11T12:39:11.906Z</time></trkpt><trkpt lat="45.2667597" lon="11.675692"><ele>18.0</ele><time>2026-04-11T12:39:12.906Z</time></trkpt><trkpt lat="45.2667519" lon="11.6759879"><ele>18.0</ele><time>2026-04-11T12:39:13.906Z</time></trkpt><trkpt lat="45.2667633" lon="11.6762555"><ele>18.0</ele><time>2026-04-11T12:39:14.906Z</time></trkpt><trkpt lat="45.2667966" lon="11.6765115"><ele>18.333333333333332</ele><time>2026-04-11T12:39:15.906Z</time></trkpt><trkpt lat="45.2668338" lon="11.6767626"><ele>18.666666666666664</ele><time>2026-04-11T12:39:16.906Z</time></trkpt><trkpt lat="45.266853" lon="11.6770248"><ele>19.0</ele><time>2026-04-11T12:39:17.906Z</time></trkpt><trkpt lat="45.2668633" lon="11.6773073"><ele>19.0</ele><time>2026-04-11T12:39:18.906Z</time></trkpt><trkpt lat="45.2668738" lon="11.6775778"><ele>19.0</ele><time>2026-04-11T12:39:19.906Z</time></trkpt><trkpt lat="45.2668965" lon="11.6778405"><ele>19.0</ele><time>2026-04-11T12:39:20.906Z</time></trkpt><trkpt lat="45.2669297" lon="11.6780869"><ele>20.0</ele><time>2026-04-11T12:39:21.906Z</time></trkpt><trkpt lat="45.2669688" lon="11.6783215"><ele>21.0</ele><time>2026-04-11T12:39:22.906Z</time></trkpt><trkpt lat="45.2669953" lon="11.6785574"><ele>22.0</ele><time>2026-04-11T12:39:23.906Z</time></trkpt><trkpt lat="45.2669872" lon="11.6787989"><ele>22.666666666666664</ele><time>2026-04-11T12:39:24.906Z</time></trkpt><trkpt lat="45.2669626" lon="11.6790408"><ele>23.333333333333332</ele><time>2026-04-11T12:39:25.906Z</time></trkpt><trkpt lat="45.2669246" lon="11.6792808"><ele>24.0</ele><time>2026-04-11T12:39:26.906Z</time></trkpt><trkpt lat="45.2668909" lon="11.6795244"><ele>24.0</ele><time>2026-04-11T12:39:27.906Z</time></trkpt><trkpt lat="45.2668561" lon="11.6797589"><ele>24.0</ele><time>2026-04-11T12:39:28.906Z</time></trkpt><trkpt lat="45.2668197" lon="11.6799928"><ele>24.0</ele><time>2026-04-11T12:39:29.906Z</time></trkpt><trkpt lat="45.2667943" lon="11.6802228"><ele>24.666666666666664</ele><time>2026-04-11T12:39:30.906Z</time></trkpt><trkpt lat="45.2667745" lon="11.6804543"><ele>25.333333333333332</ele><time>2026-04-11T12:39:31.906Z</time></trkpt><trkpt lat="45.2667933" lon="11.6806573"><ele>26.0</ele><time>2026-04-11T12:39:32.906Z</time></trkpt><trkpt lat="45.2668089" lon="11.6808641"><ele>26.0</ele><time>2026-04-11T12:39:33.906Z</time></trkpt><trkpt lat="45.2668387" lon="11.6810758"><ele>26.0</ele><time>2026-04-11T12:39:34.906Z</time></trkpt><trkpt lat="45.2668554" lon="11.6812913"><ele>26.0</ele><time>2026-04-11T12:39:35.906Z</time></trkpt><trkpt lat="45.2668526" lon="11.6814888"><ele>26.0</ele><time>2026-04-11T12:39:36.906Z</time></trkpt><trkpt lat="45.2668345" lon="11.6816858"><ele>26.0</ele><time>2026-04-11T12:39:37.905Z</time></trkpt><trkpt lat="45.266799" lon="11.6818784"><ele>26.0</ele><time>2026-04-11T12:39:38.906Z</time></trkpt><trkpt lat="45.2667418" lon="11.6820673"><ele>26.0</ele><time>2026-04-11T12:39:39.906Z</time></trkpt><trkpt lat="45.2666789" lon="11.6822626"><ele>26.0</ele><time>2026-04-11T12:39:40.905Z</time></trkpt><trkpt lat="45.2666059" lon="11.682457"><ele>26.0</ele><time>2026-04-11T12:39:41.906Z</time></trkpt><trkpt lat="45.2665193" lon="11.6826371"><ele>26.0</ele><time>2026-04-11T12:39:42.906Z</time></trkpt><trkpt lat="45.2664211" lon="11.6828146"><ele>26.0</ele><time>2026-04-11T12:39:43.906Z</time></trkpt><trkpt lat="45.2663219" lon="11.6829742"><ele>26.0</ele><time>2026-04-11T12:39:44.906Z</time></trkpt><trkpt lat="45.2662182" lon="11.683137"><ele>26.0</ele><time>2026-04-11T12:39:45.906Z</time></trkpt><trkpt lat="45.2661163" lon="11.6832908"><ele>26.0</ele><time>2026-04-11T12:39:46.906Z</time></trkpt><trkpt lat="45.2660303" lon="11.6834454"><ele>26.0</ele><time>2026-04-11T12:39:47.906Z</time></trkpt><trkpt lat="45.265963" lon="11.6836059"><ele>26.0</ele><time>2026-04-11T12:39:48.906Z</time></trkpt><trkpt lat="45.2659147" lon="11.6837797"><ele>26.0</ele><time>2026-04-11T12:39:49.906Z</time></trkpt><trkpt lat="45.2658788" lon="11.6839644"><ele>26.0</ele><time>2026-04-11T12:39:50.906Z</time></trkpt><trkpt lat="45.2658524" lon="11.6841712"><ele>26.0</ele><time>2026-04-11T12:39:51.906Z</time></trkpt><trkpt lat="45.2658202" lon="11.6843774"><ele>26.666666666666664</ele><time>2026-04-11T12:39:52.906Z</time></trkpt><trkpt lat="45.2657711" lon="11.6845778"><ele>27.333333333333336</ele><time>2026-04-11T12:39:53.906Z</time></trkpt><trkpt lat="45.2656985" lon="11.6847717"><ele>28.0</ele><time>2026-04-11T12:39:54.905Z</time></trkpt><trkpt lat="45.2656129" lon="11.6849475"><ele>27.0</ele><time>2026-04-11T12:39:55.906Z</time></trkpt><trkpt lat="45.2655178" lon="11.6851127"><ele>26.0</ele><time>2026-04-11T12:39:56.906Z</time></trkpt><trkpt lat="45.2654083" lon="11.6852494"><ele>25.0</ele><time>2026-04-11T12:39:57.906Z</time></trkpt><trkpt lat="45.2652871" lon="11.6853534"><ele>24.0</ele><time>2026-04-11T12:39:58.906Z</time></trkpt><trkpt lat="45.2651698" lon="11.6854371"><ele>24.0</ele><time>2026-04-11T12:39:59.906Z</time></trkpt><trkpt lat="45.2650651" lon="11.6855155"><ele>24.0</ele><time>2026-04-11T12:40:00.906Z</time></trkpt><trkpt lat="45.2649922" lon="11.6856249"><ele>24.0</ele><time>2026-04-11T12:40:01.906Z</time></trkpt><trkpt lat="45.2649389" lon="11.6857438"><ele>24.0</ele><time>2026-04-11T12:40:02.906Z</time></trkpt><trkpt lat="45.2649119" lon="11.6858721"><ele>24.0</ele><time>2026-04-11T12:40:03.906Z</time></trkpt><trkpt lat="45.2649014" lon="11.6859974"><ele>23.833333333333332</ele><time>2026-04-11T12:40:04.906Z</time></trkpt><trkpt lat="45.2648955" lon="11.686124"><ele>23.666666666666668</ele><time>2026-04-11T12:40:05.906Z</time></trkpt><trkpt lat="45.2649036" lon="11.6862343"><ele>23.5</ele><time>2026-04-11T12:40:06.906Z</time></trkpt><trkpt lat="45.2649118" lon="11.6863465"><ele>23.333333333333336</ele><time>2026-04-11T12:40:07.906Z</time></trkpt><trkpt lat="45.2649233" lon="11.6864601"><ele>23.166666666666668</ele><time>2026-04-11T12:40:08.906Z</time></trkpt><trkpt lat="45.2649353" lon="11.686577"><ele>23.0</ele><time>2026-04-11T12:40:09.906Z</time></trkpt><trkpt lat="45.2649476" lon="11.6867002"><ele>23.0</ele><time>2026-04-11T12:40:10.906Z</time></trkpt><trkpt lat="45.2649657" lon="11.686818"><ele>23.0</ele><time>2026-04-11T12:40:11.906Z</time></trkpt><trkpt lat="45.2649844" lon="11.6869396"><ele>23.0</ele><time>2026-04-11T12:40:12.906Z</time></trkpt><trkpt lat="45.265004" lon="11.6870558"><ele>23.0</ele><time>2026-04-11T12:40:13.906Z</time></trkpt><trkpt lat="45.2650232" lon="11.6871772"><ele>23.0</ele><time>2026-04-11T12:40:14.906Z</time></trkpt><trkpt lat="45.2650423" lon="11.6872937"><ele>23.0</ele><time>2026-04-11T12:40:15.906Z</time></trkpt><trkpt lat="45.2650585" lon="11.6874166"><ele>23.0</ele><time>2026-04-11T12:40:16.906Z</time></trkpt><trkpt lat="45.2650792" lon="11.6875395"><ele>23.0</ele><time>2026-04-11T12:40:17.906Z</time></trkpt><trkpt lat="45.2651049" lon="11.6876921"><ele>23.0</ele><time>2026-04-11T12:40:18.906Z</time></trkpt><trkpt lat="45.265127" lon="11.6878477"><ele>23.0</ele><time>2026-04-11T12:40:19.905Z</time></trkpt><trkpt lat="45.2651309" lon="11.6879863"><ele>23.0</ele><time>2026-04-11T12:40:20.906Z</time></trkpt><trkpt lat="45.2651167" lon="11.6881035"><ele>23.0</ele><time>2026-04-11T12:40:21.906Z</time></trkpt><trkpt lat="45.2650786" lon="11.6882033"><ele>23.0</ele><time>2026-04-11T12:40:22.906Z</time></trkpt><trkpt lat="45.2650152" lon="11.6882823"><ele>23.0</ele><time>2026-04-11T12:40:23.906Z</time></trkpt><trkpt lat="45.2649354" lon="11.6883346"><ele>23.0</ele><time>2026-04-11T12:40:24.906Z</time></trkpt><trkpt lat="45.2648431" lon="11.6883583"><ele>23.0</ele><time>2026-04-11T12:40:25.906Z</time></trkpt><trkpt lat="45.2647398" lon="11.6883656"><ele>23.0</ele><time>2026-04-11T12:40:26.906Z</time></trkpt><trkpt lat="45.2646282" lon="11.6883601"><ele>23.5</ele><time>2026-04-11T12:40:27.906Z</time></trkpt><trkpt lat="45.2645168" lon="11.6883423"><ele>24.0</ele><time>2026-04-11T12:40:28.906Z</time></trkpt><trkpt lat="45.2644048" lon="11.6883123"><ele>24.5</ele><time>2026-04-11T12:40:29.906Z</time></trkpt><trkpt lat="45.2642921" lon="11.688285"><ele>25.0</ele><time>2026-04-11T12:40:30.906Z</time></trkpt><trkpt lat="45.2641834" lon="11.6882553"><ele>25.000000000000004</ele><time>2026-04-11T12:40:31.906Z</time></trkpt><trkpt lat="45.2640976" lon="11.6882474"><ele>25.0</ele><time>2026-04-11T12:40:32.906Z</time></trkpt><trkpt lat="45.264032" lon="11.6882827"><ele>25.0</ele><time>2026-04-11T12:40:33.906Z</time></trkpt><trkpt lat="45.2639833" lon="11.6883582"><ele>25.0</ele><time>2026-04-11T12:40:34.906Z</time></trkpt><trkpt lat="45.2639451" lon="11.6884517"><ele>25.000000000000004</ele><time>2026-04-11T12:40:35.906Z</time></trkpt><trkpt lat="45.2639054" lon="11.6885598"><ele>25.0</ele><time>2026-04-11T12:40:36.906Z</time></trkpt><trkpt lat="45.2638639" lon="11.688684"><ele>25.0</ele><time>2026-04-11T12:40:37.906Z</time></trkpt><trkpt lat="45.2638194" lon="11.6888102"><ele>25.0</ele><time>2026-04-11T12:40:38.906Z</time></trkpt><trkpt lat="45.2637774" lon="11.6889316"><ele>25.0</ele><time>2026-04-11T12:40:39.906Z</time></trkpt><trkpt lat="45.2637386" lon="11.6890461"><ele>25.0</ele><time>2026-04-11T12:40:40.906Z</time></trkpt><trkpt lat="45.2637099" lon="11.6891393"><ele>25.0</ele><time>2026-04-11T12:40:41.906Z</time></trkpt><trkpt lat="45.2636562" lon="11.6892876"><ele>25.000000000000004</ele><time>2026-04-11T12:40:43.906Z</time></trkpt><trkpt lat="45.2635681" lon="11.68936"><ele>25.0</ele><time>2026-04-11T12:40:45.906Z</time></trkpt><trkpt lat="45.2635051" lon="11.6893644"><ele>25.0</ele><time>2026-04-11T12:40:46.906Z</time></trkpt><trkpt lat="45.2634336" lon="11.6893495"><ele>25.0</ele><time>2026-04-11T12:40:47.906Z</time></trkpt><trkpt lat="45.2633607" lon="11.6893234"><ele>25.000000000000004</ele><time>2026-04-11T12:40:48.906Z</time></trkpt><trkpt lat="45.2632892" lon="11.6892787"><ele>25.0</ele><time>2026-04-11T12:40:49.906Z</time></trkpt><trkpt lat="45.2632225" lon="11.6892261"><ele>25.000000000000004</ele><time>2026-04-11T12:40:50.906Z</time></trkpt><trkpt lat="45.26316" lon="11.6891564"><ele>25.0</ele><time>2026-04-11T12:40:51.906Z</time></trkpt><trkpt lat="45.2630944" lon="11.6891066"><ele>25.0</ele><time>2026-04-11T12:40:52.906Z</time></trkpt><trkpt lat="45.2630175" lon="11.689099"><ele>25.0</ele><time>2026-04-11T12:40:53.906Z</time></trkpt><trkpt lat="45.2629414" lon="11.6891254"><ele>25.000000000000004</ele><time>2026-04-11T12:40:54.906Z</time></trkpt><trkpt lat="45.2628684" lon="11.6891961"><ele>25.0</ele><time>2026-04-11T12:40:55.906Z</time></trkpt><trkpt lat="45.2627992" lon="11.6893027"><ele>28.2</ele><time>2026-04-11T12:40:56.906Z</time></trkpt><trkpt lat="45.2627329" lon="11.6894214"><ele>31.4</ele><time>2026-04-11T12:40:57.906Z</time></trkpt><trkpt lat="45.2626924" lon="11.6895652"><ele>34.599999999999994</ele><time>2026-04-11T12:40:58.906Z</time></trkpt><trkpt lat="45.262666" lon="11.6897128"><ele>37.8</ele><time>2026-04-11T12:40:59.906Z</time></trkpt><trkpt lat="45.2626754" lon="11.6898573"><ele>41.0</ele><time>2026-04-11T12:41:00.906Z</time></trkpt><trkpt lat="45.262711" lon="11.6899867"><ele>41.0</ele><time>2026-04-11T12:41:01.905Z</time></trkpt><trkpt lat="45.2627736" lon="11.6900841"><ele>41.0</ele><time>2026-04-11T12:41:02.906Z</time></trkpt><trkpt lat="45.2628631" lon="11.6901815"><ele>41.0</ele><time>2026-04-11T12:41:03.906Z</time></trkpt><trkpt lat="45.2629256" lon="11.6902853"><ele>41.0</ele><time>2026-04-11T12:41:04.906Z</time></trkpt><trkpt lat="45.2629677" lon="11.6903934"><ele>41.0</ele><time>2026-04-11T12:41:05.906Z</time></trkpt><trkpt lat="45.2629698" lon="11.6905432"><ele>43.666666666666664</ele><time>2026-04-11T12:41:06.906Z</time></trkpt><trkpt lat="45.262968" lon="11.6907449"><ele>46.33333333333333</ele><time>2026-04-11T12:41:07.906Z</time></trkpt><trkpt lat="45.2629593" lon="11.6910408"><ele>49.0</ele><time>2026-04-11T12:41:08.906Z</time></trkpt><trkpt lat="45.2629266" lon="11.6913056"><ele>52.5</ele><time>2026-04-11T12:41:09.905Z</time></trkpt><trkpt lat="45.262881" lon="11.6915222"><ele>56.0</ele><time>2026-04-11T12:41:10.906Z</time></trkpt><trkpt lat="45.2628341" lon="11.6917059"><ele>59.5</ele><time>2026-04-11T12:41:11.906Z</time></trkpt><trkpt lat="45.2628017" lon="11.6918834"><ele>63.0</ele><time>2026-04-11T12:41:12.906Z</time></trkpt><trkpt lat="45.2627872" lon="11.6920657"><ele>66.0</ele><time>2026-04-11T12:41:13.906Z</time></trkpt><trkpt lat="45.2627825" lon="11.6922425"><ele>69.0</ele><time>2026-04-11T12:41:14.906Z</time></trkpt><trkpt lat="45.2627885" lon="11.6924117"><ele>72.0</ele><time>2026-04-11T12:41:15.906Z</time></trkpt><trkpt lat="45.2628378" lon="11.692574"><ele>75.0</ele><time>2026-04-11T12:41:16.905Z</time></trkpt><trkpt lat="45.2629054" lon="11.6927515"><ele>79.66666666666667</ele><time>2026-04-11T12:41:17.906Z</time></trkpt><trkpt lat="45.2629934" lon="11.6929706"><ele>84.33333333333334</ele><time>2026-04-11T12:41:18.906Z</time></trkpt><trkpt lat="45.2630719" lon="11.6932185"><ele>89.0</ele><time>2026-04-11T12:41:19.906Z</time></trkpt><trkpt lat="45.2631402" lon="11.6935077"><ele>80.33333333333334</ele><time>2026-04-11T12:41:20.906Z</time></trkpt><trkpt lat="45.2631943" lon="11.6938111"><ele>71.66666666666667</ele><time>2026-04-11T12:41:21.906Z</time></trkpt><trkpt lat="45.2632434" lon="11.6940693"><ele>63.0</ele><time>2026-04-11T12:41:22.906Z</time></trkpt><trkpt lat="45.2632686" lon="11.6943075"><ele>65.0</ele><time>2026-04-11T12:41:23.906Z</time></trkpt><trkpt lat="45.2632932" lon="11.6945579"><ele>67.0</ele><time>2026-04-11T12:41:24.906Z</time></trkpt><trkpt lat="45.2632776" lon="11.6948612"><ele>69.0</ele><time>2026-04-11T12:41:25.905Z</time></trkpt><trkpt lat="45.2632498" lon="11.695187"><ele>70.5</ele><time>2026-04-11T12:41:26.906Z</time></trkpt><trkpt lat="45.263225" lon="11.6955235"><ele>72.0</ele><time>2026-04-11T12:41:27.906Z</time></trkpt><trkpt lat="45.2632121" lon="11.6958599"><ele>72.0</ele><time>2026-04-11T12:41:28.906Z</time></trkpt><trkpt lat="45.2632053" lon="11.6960822"><ele>72.0</ele><time>2026-04-11T12:41:29.906Z</time></trkpt><trkpt lat="45.2632079" lon="11.6963059"><ele>72.0</ele><time>2026-04-11T12:41:30.906Z</time></trkpt><trkpt lat="45.2632076" lon="11.6964917"><ele>72.0</ele><time>2026-04-11T12:41:31.906Z</time></trkpt><trkpt lat="45.2631838" lon="11.6966409"><ele>72.66666666666667</ele><time>2026-04-11T12:41:32.906Z</time></trkpt><trkpt lat="45.2631383" lon="11.696764"><ele>73.33333333333333</ele><time>2026-04-11T12:41:33.906Z</time></trkpt><trkpt lat="45.2630896" lon="11.696879"><ele>74.0</ele><time>2026-04-11T12:41:34.906Z</time></trkpt><trkpt lat="45.2630612" lon="11.6969759"><ele>74.66666666666666</ele><time>2026-04-11T12:41:35.905Z</time></trkpt><trkpt lat="45.2630368" lon="11.6970903"><ele>75.33333333333333</ele><time>2026-04-11T12:41:36.906Z</time></trkpt><trkpt lat="45.2630336" lon="11.6972064"><ele>76.0</ele><time>2026-04-11T12:41:37.906Z</time></trkpt><trkpt lat="45.2630414" lon="11.6973415"><ele>76.0</ele><time>2026-04-11T12:41:38.906Z</time></trkpt><trkpt lat="45.2630756" lon="11.6974748"><ele>76.0</ele><time>2026-04-11T12:41:39.906Z</time></trkpt><trkpt lat="45.2631308" lon="11.6976095"><ele>76.0</ele><time>2026-04-11T12:41:40.906Z</time></trkpt><trkpt lat="45.2631912" lon="11.6977621"><ele>76.0</ele><time>2026-04-11T12:41:41.906Z</time></trkpt><trkpt lat="45.2632644" lon="11.697943"><ele>76.33333333333333</ele><time>2026-04-11T12:41:42.906Z</time></trkpt><trkpt lat="45.2633364" lon="11.6981323"><ele>76.66666666666667</ele><time>2026-04-11T12:41:43.906Z</time></trkpt><trkpt lat="45.2634113" lon="11.6983533"><ele>77.0</ele><time>2026-04-11T12:41:44.905Z</time></trkpt><trkpt lat="45.2634828" lon="11.6985884"><ele>73.0</ele><time>2026-04-11T12:41:45.906Z</time></trkpt><trkpt lat="45.2635573" lon="11.6988183"><ele>69.0</ele><time>2026-04-11T12:41:46.906Z</time></trkpt><trkpt lat="45.2636185" lon="11.6990387"><ele>65.0</ele><time>2026-04-11T12:41:47.905Z</time></trkpt><trkpt lat="45.2636703" lon="11.6992456"><ele>63.0</ele><time>2026-04-11T12:41:48.906Z</time></trkpt><trkpt lat="45.2637181" lon="11.6994435"><ele>61.0</ele><time>2026-04-11T12:41:49.906Z</time></trkpt><trkpt lat="45.2637676" lon="11.699638"><ele>59.0</ele><time>2026-04-11T12:41:50.906Z</time></trkpt><trkpt lat="45.2638094" lon="11.6998235"><ele>57.0</ele><time>2026-04-11T12:41:51.906Z</time></trkpt><trkpt lat="45.2638331" lon="11.7000128"><ele>57.0</ele><time>2026-04-11T12:41:52.906Z</time></trkpt><trkpt lat="45.2638265" lon="11.7002041"><ele>57.0</ele><time>2026-04-11T12:41:53.906Z</time></trkpt><trkpt lat="45.2637971" lon="11.700384"><ele>57.0</ele><time>2026-04-11T12:41:54.906Z</time></trkpt><trkpt lat="45.2637423" lon="11.7005538"><ele>57.0</ele><time>2026-04-11T12:41:55.906Z</time></trkpt><trkpt lat="45.2636686" lon="11.7007235"><ele>57.0</ele><time>2026-04-11T12:41:56.906Z</time></trkpt><trkpt lat="45.2636024" lon="11.7008799"><ele>57.0</ele><time>2026-04-11T12:41:57.906Z</time></trkpt><trkpt lat="45.2635572" lon="11.7010427"><ele>57.0</ele><time>2026-04-11T12:41:58.906Z</time></trkpt><trkpt lat="45.2635353" lon="11.7012202"><ele>57.0</ele><time>2026-04-11T12:41:59.906Z</time></trkpt><trkpt lat="45.2635226" lon="11.7014163"><ele>57.6</ele><time>2026-04-11T12:42:00.906Z</time></trkpt><trkpt lat="45.2635111" lon="11.701594"><ele>58.2</ele><time>2026-04-11T12:42:01.905Z</time></trkpt><trkpt lat="45.2635082" lon="11.7017492"><ele>58.8</ele><time>2026-04-11T12:42:02.906Z</time></trkpt><trkpt lat="45.2635209" lon="11.7018846"><ele>59.4</ele><time>2026-04-11T12:42:03.906Z</time></trkpt><trkpt lat="45.2635622" lon="11.7020024"><ele>60.0</ele><time>2026-04-11T12:42:04.906Z</time></trkpt><trkpt lat="45.2636213" lon="11.7020993"><ele>58.5</ele><time>2026-04-11T12:42:05.906Z</time></trkpt><trkpt lat="45.2637103" lon="11.7021767"><ele>57.0</ele><time>2026-04-11T12:42:06.906Z</time></trkpt><trkpt lat="45.263822" lon="11.7022325"><ele>55.5</ele><time>2026-04-11T12:42:07.906Z</time></trkpt><trkpt lat="45.2639656" lon="11.7022605"><ele>54.0</ele><time>2026-04-11T12:42:08.906Z</time></trkpt><trkpt lat="45.2641171" lon="11.7022887"><ele>53.0</ele><time>2026-04-11T12:42:09.906Z</time></trkpt><trkpt lat="45.2642486" lon="11.7023227"><ele>52.0</ele><time>2026-04-11T12:42:10.906Z</time></trkpt><trkpt lat="45.2643722" lon="11.7023787"><ele>51.0</ele><time>2026-04-11T12:42:11.906Z</time></trkpt><trkpt lat="45.2644883" lon="11.7024584"><ele>50.0</ele><time>2026-04-11T12:42:12.906Z</time></trkpt><trkpt lat="45.2645968" lon="11.7025692"><ele>50.0</ele><time>2026-04-11T12:42:13.906Z</time></trkpt><trkpt lat="45.2646878" lon="11.7027034"><ele>50.0</ele><time>2026-04-11T12:42:14.906Z</time></trkpt><trkpt lat="45.2647585" lon="11.7028569"><ele>50.0</ele><time>2026-04-11T12:42:15.906Z</time></trkpt><trkpt lat="45.2648197" lon="11.7030222"><ele>50.0</ele><time>2026-04-11T12:42:16.906Z</time></trkpt><trkpt lat="45.2648778" lon="11.7031711"><ele>49.333333333333336</ele><time>2026-04-11T12:42:17.906Z</time></trkpt><trkpt lat="45.2649186" lon="11.7032948"><ele>48.66666666666667</ele><time>2026-04-11T12:42:18.906Z</time></trkpt><trkpt lat="45.2649272" lon="11.703406"><ele>48.0</ele><time>2026-04-11T12:42:19.906Z</time></trkpt><trkpt lat="45.2649069" lon="11.7035"><ele>47.333333333333336</ele><time>2026-04-11T12:42:20.906Z</time></trkpt><trkpt lat="45.2648028" lon="11.7035787"><ele>46.66666666666667</ele><time>2026-04-11T12:42:22.905Z</time></trkpt><trkpt lat="45.2647493" lon="11.703529"><ele>46.0</ele><time>2026-04-11T12:42:23.906Z</time></trkpt><trkpt lat="45.2647186" lon="11.7034438"><ele>44.66666666666667</ele><time>2026-04-11T12:42:24.906Z</time></trkpt><trkpt lat="45.2646887" lon="11.7032918"><ele>43.333333333333336</ele><time>2026-04-11T12:42:26.906Z</time></trkpt><trkpt lat="45.2646149" lon="11.7032066"><ele>42.0</ele><time>2026-04-11T12:42:28.906Z</time></trkpt><trkpt lat="45.2645348" lon="11.7032671"><ele>40.666666666666664</ele><time>2026-04-11T12:42:30.906Z</time></trkpt><trkpt lat="45.2645184" lon="11.7033567"><ele>39.33333333333333</ele><time>2026-04-11T12:42:31.906Z</time></trkpt><trkpt lat="45.2645313" lon="11.7034583"><ele>38.0</ele><time>2026-04-11T12:42:32.906Z</time></trkpt><trkpt lat="45.2645626" lon="11.7035814"><ele>35.75</ele><time>2026-04-11T12:42:33.906Z</time></trkpt><trkpt lat="45.2645669" lon="11.7037209"><ele>33.5</ele><time>2026-04-11T12:42:34.906Z</time></trkpt><trkpt lat="45.2645398" lon="11.7038745"><ele>31.25</ele><time>2026-04-11T12:42:35.906Z</time></trkpt><trkpt lat="45.264474" lon="11.7040505"><ele>29.0</ele><time>2026-04-11T12:42:36.906Z</time></trkpt><trkpt lat="45.2643727" lon="11.7042518"><ele>27.25</ele><time>2026-04-11T12:42:37.906Z</time></trkpt><trkpt lat="45.2642801" lon="11.7044468"><ele>25.5</ele><time>2026-04-11T12:42:38.906Z</time></trkpt><trkpt lat="45.2642039" lon="11.7046116"><ele>23.75</ele><time>2026-04-11T12:42:39.906Z</time></trkpt><trkpt lat="45.2641583" lon="11.7047529"><ele>22.0</ele><time>2026-04-11T12:42:40.906Z</time></trkpt><trkpt lat="45.2641579" lon="11.7048672"><ele>22.0</ele><time>2026-04-11T12:42:41.906Z</time></trkpt><trkpt lat="45.2641941" lon="11.7049791"><ele>22.0</ele><time>2026-04-11T12:42:42.905Z</time></trkpt><trkpt lat="45.264256" lon="11.7050739"><ele>22.0</ele><time>2026-04-11T12:42:43.906Z</time></trkpt><trkpt lat="45.2643779" lon="11.7051432"><ele>22.0</ele><time>2026-04-11T12:42:44.906Z</time></trkpt><trkpt lat="45.2645124" lon="11.7052188"><ele>20.75</ele><time>2026-04-11T12:42:45.905Z</time></trkpt><trkpt lat="45.2646417" lon="11.7053104"><ele>19.5</ele><time>2026-04-11T12:42:46.906Z</time></trkpt><trkpt lat="45.2647555" lon="11.7054337"><ele>18.25</ele><time>2026-04-11T12:42:47.906Z</time></trkpt><trkpt lat="45.2648536" lon="11.7056001"><ele>17.0</ele><time>2026-04-11T12:42:48.906Z</time></trkpt><trkpt lat="45.264946" lon="11.7057927"><ele>17.0</ele><time>2026-04-11T12:42:49.906Z</time></trkpt><trkpt lat="45.2650342" lon="11.705997"><ele>17.0</ele><time>2026-04-11T12:42:50.906Z</time></trkpt><trkpt lat="45.2651243" lon="11.7061973"><ele>17.0</ele><time>2026-04-11T12:42:51.906Z</time></trkpt><trkpt lat="45.2652159" lon="11.7063926"><ele>16.333333333333336</ele><time>2026-04-11T12:42:52.906Z</time></trkpt><trkpt lat="45.2652938" lon="11.7065974"><ele>15.666666666666668</ele><time>2026-04-11T12:42:53.906Z</time></trkpt><trkpt lat="45.2653548" lon="11.7068177"><ele>15.0</ele><time>2026-04-11T12:42:54.906Z</time></trkpt><trkpt lat="45.265403" lon="11.7070497"><ele>15.0</ele><time>2026-04-11T12:42:55.906Z</time></trkpt><trkpt lat="45.2654479" lon="11.7072762"><ele>15.0</ele><time>2026-04-11T12:42:56.906Z</time></trkpt><trkpt lat="45.2654884" lon="11.707505"><ele>15.0</ele><time>2026-04-11T12:42:57.906Z</time></trkpt><trkpt lat="45.2655319" lon="11.7077316"><ele>15.666666666666668</ele><time>2026-04-11T12:42:58.905Z</time></trkpt><trkpt lat="45.2655719" lon="11.7079582"><ele>16.333333333333336</ele><time>2026-04-11T12:42:59.906Z</time></trkpt><trkpt lat="45.2656093" lon="11.7081822"><ele>17.0</ele><time>2026-04-11T12:43:00.906Z</time></trkpt><trkpt lat="45.2656468" lon="11.7083964"><ele>17.666666666666668</ele><time>2026-04-11T12:43:01.906Z</time></trkpt><trkpt lat="45.2656839" lon="11.7086091"><ele>18.333333333333332</ele><time>2026-04-11T12:43:02.906Z</time></trkpt><trkpt lat="45.2657196" lon="11.7088164"><ele>19.0</ele><time>2026-04-11T12:43:03.905Z</time></trkpt><trkpt lat="45.2657564" lon="11.7090219"><ele>19.0</ele><time>2026-04-11T12:43:04.906Z</time></trkpt><trkpt lat="45.2657912" lon="11.7092168"><ele>19.0</ele><time>2026-04-11T12:43:05.906Z</time></trkpt><trkpt lat="45.2658377" lon="11.7094003"><ele>19.0</ele><time>2026-04-11T12:43:06.906Z</time></trkpt><trkpt lat="45.2659074" lon="11.709579"><ele>19.0</ele><time>2026-04-11T12:43:07.906Z</time></trkpt><trkpt lat="45.2660008" lon="11.7097451"><ele>18.666666666666664</ele><time>2026-04-11T12:43:08.906Z</time></trkpt><trkpt lat="45.2661039" lon="11.7099116"><ele>18.333333333333332</ele><time>2026-04-11T12:43:09.906Z</time></trkpt><trkpt lat="45.2661979" lon="11.710083"><ele>18.0</ele><time>2026-04-11T12:43:10.906Z</time></trkpt><trkpt lat="45.2662714" lon="11.7102605"><ele>17.25</ele><time>2026-04-11T12:43:11.906Z</time></trkpt><trkpt lat="45.2663246" lon="11.7104404"><ele>16.5</ele><time>2026-04-11T12:43:12.906Z</time></trkpt><trkpt lat="45.2663408" lon="11.7106241"><ele>15.75</ele><time>2026-04-11T12:43:13.906Z</time></trkpt><trkpt lat="45.2663363" lon="11.7108122"><ele>15.0</ele><time>2026-04-11T12:43:14.906Z</time></trkpt><trkpt lat="45.2663241" lon="11.7110099"><ele>15.25</ele><time>2026-04-11T12:43:15.906Z</time></trkpt><trkpt lat="45.2663241" lon="11.7112192"><ele>15.5</ele><time>2026-04-11T12:43:16.906Z</time></trkpt><trkpt lat="45.2663365" lon="11.7114215"><ele>15.75</ele><time>2026-04-11T12:43:17.906Z</time></trkpt><trkpt lat="45.2663506" lon="11.7116022"><ele>16.0</ele><time>2026-04-11T12:43:18.906Z</time></trkpt><trkpt lat="45.2663513" lon="11.7117637"><ele>16.5</ele><time>2026-04-11T12:43:19.906Z</time></trkpt><trkpt lat="45.2663321" lon="11.7119296"><ele>17.0</ele><time>2026-04-11T12:43:20.906Z</time></trkpt><trkpt lat="45.2663041" lon="11.7121035"><ele>17.5</ele><time>2026-04-11T12:43:21.906Z</time></trkpt><trkpt lat="45.2662773" lon="11.7122836"><ele>18.0</ele><time>2026-04-11T12:43:22.906Z</time></trkpt><trkpt lat="45.2662462" lon="11.7124697"><ele>18.0</ele><time>2026-04-11T12:43:23.906Z</time></trkpt><trkpt lat="45.2662102" lon="11.712652"><ele>18.0</ele><time>2026-04-11T12:43:24.906Z</time></trkpt><trkpt lat="45.2661729" lon="11.7128302"><ele>18.0</ele><time>2026-04-11T12:43:25.906Z</time></trkpt><trkpt lat="45.2661374" lon="11.7130068"><ele>18.0</ele><time>2026-04-11T12:43:26.906Z</time></trkpt><trkpt lat="45.2661002" lon="11.7131643"><ele>18.25</ele><time>2026-04-11T12:43:27.906Z</time></trkpt><trkpt lat="45.2660543" lon="11.7133167"><ele>18.5</ele><time>2026-04-11T12:43:28.906Z</time></trkpt><trkpt lat="45.2659911" lon="11.7134676"><ele>18.75</ele><time>2026-04-11T12:43:29.906Z</time></trkpt><trkpt lat="45.2659149" lon="11.7136054"><ele>19.0</ele><time>2026-04-11T12:43:30.906Z</time></trkpt><trkpt lat="45.2658365" lon="11.7137309"><ele>20.4</ele><time>2026-04-11T12:43:31.906Z</time></trkpt><trkpt lat="45.2657648" lon="11.7138498"><ele>21.799999999999997</ele><time>2026-04-11T12:43:32.906Z</time></trkpt><trkpt lat="45.2656933" lon="11.7139402"><ele>23.200000000000003</ele><time>2026-04-11T12:43:33.906Z</time></trkpt><trkpt lat="45.2656198" lon="11.7140129"><ele>24.6</ele><time>2026-04-11T12:43:34.906Z</time></trkpt><trkpt lat="45.2655526" lon="11.7140617"><ele>26.0</ele><time>2026-04-11T12:43:35.906Z</time></trkpt><trkpt lat="45.265442" lon="11.7141102"><ele>25.999999999999996</ele><time>2026-04-11T12:43:37.906Z</time></trkpt><trkpt lat="45.2653755" lon="11.7141298"><ele>26.0</ele><time>2026-04-11T12:43:38.906Z</time></trkpt><trkpt lat="45.2653087" lon="11.7141479"><ele>26.0</ele><time>2026-04-11T12:43:39.906Z</time></trkpt><trkpt lat="45.2652474" lon="11.7141921"><ele>26.0</ele><time>2026-04-11T12:43:40.906Z</time></trkpt><trkpt lat="45.2651835" lon="11.7142682"><ele>25.999999999999996</ele><time>2026-04-11T12:43:41.906Z</time></trkpt><trkpt lat="45.2650969" lon="11.7143327"><ele>26.0</ele><time>2026-04-11T12:43:42.906Z</time></trkpt><trkpt lat="45.2649893" lon="11.7143964"><ele>29.75</ele><time>2026-04-11T12:43:43.905Z</time></trkpt><trkpt lat="45.2648756" lon="11.71446"><ele>33.5</ele><time>2026-04-11T12:43:44.906Z</time></trkpt><trkpt lat="45.2647525" lon="11.7145195"><ele>37.25</ele><time>2026-04-11T12:43:45.906Z</time></trkpt><trkpt lat="45.2646246" lon="11.7145806"><ele>41.0</ele><time>2026-04-11T12:43:46.906Z</time></trkpt><trkpt lat="45.2644957" lon="11.7146409"><ele>41.0</ele><time>2026-04-11T12:43:47.906Z</time></trkpt><trkpt lat="45.2643666" lon="11.7147025"><ele>41.0</ele><time>2026-04-11T12:43:48.905Z</time></trkpt><trkpt lat="45.2642349" lon="11.7147536"><ele>41.0</ele><time>2026-04-11T12:43:49.906Z</time></trkpt><trkpt lat="45.2640997" lon="11.7147749"><ele>41.0</ele><time>2026-04-11T12:43:50.906Z</time></trkpt><trkpt lat="45.2639717" lon="11.7147756"><ele>41.8</ele><time>2026-04-11T12:43:51.906Z</time></trkpt><trkpt lat="45.2638697" lon="11.7147747"><ele>42.599999999999994</ele><time>2026-04-11T12:43:52.906Z</time></trkpt><trkpt lat="45.2637982" lon="11.7147915"><ele>43.4</ele><time>2026-04-11T12:43:53.906Z</time></trkpt><trkpt lat="45.2637433" lon="11.7149232"><ele>44.2</ele><time>2026-04-11T12:43:55.906Z</time></trkpt><trkpt lat="45.2638042" lon="11.7150434"><ele>45.0</ele><time>2026-04-11T12:43:57.906Z</time></trkpt><trkpt lat="45.2638758" lon="11.715091"><ele>44.2</ele><time>2026-04-11T12:43:58.906Z</time></trkpt><trkpt lat="45.2639534" lon="11.7151471"><ele>43.4</ele><time>2026-04-11T12:43:59.906Z</time></trkpt><trkpt lat="45.264007" lon="11.7152432"><ele>42.599999999999994</ele><time>2026-04-11T12:44:00.906Z</time></trkpt><trkpt lat="45.264043" lon="11.7153695"><ele>41.8</ele><time>2026-04-11T12:44:01.906Z</time></trkpt><trkpt lat="45.2640644" lon="11.7155077"><ele>41.0</ele><time>2026-04-11T12:44:02.906Z</time></trkpt><trkpt lat="45.2640878" lon="11.7156606"><ele>43.4</ele><time>2026-04-11T12:44:03.906Z</time></trkpt><trkpt lat="45.2641195" lon="11.7158079"><ele>45.8</ele><time>2026-04-11T12:44:04.906Z</time></trkpt><trkpt lat="45.2641576" lon="11.7159434"><ele>48.199999999999996</ele><time>2026-04-11T12:44:05.906Z</time></trkpt><trkpt lat="45.2642066" lon="11.7160715"><ele>50.599999999999994</ele><time>2026-04-11T12:44:06.905Z</time></trkpt><trkpt lat="45.2642607" lon="11.7161959"><ele>53.0</ele><time>2026-04-11T12:44:07.906Z</time></trkpt><trkpt lat="45.2643216" lon="11.7163199"><ele>53.0</ele><time>2026-04-11T12:44:08.906Z</time></trkpt><trkpt lat="45.2644102" lon="11.7164322"><ele>53.0</ele><time>2026-04-11T12:44:09.906Z</time></trkpt><trkpt lat="45.2645053" lon="11.716542"><ele>53.0</ele><time>2026-04-11T12:44:10.906Z</time></trkpt><trkpt lat="45.264605" lon="11.716655"><ele>53.0</ele><time>2026-04-11T12:44:11.906Z</time></trkpt><trkpt lat="45.2647088" lon="11.7167745"><ele>52.5</ele><time>2026-04-11T12:44:12.906Z</time></trkpt><trkpt lat="45.2648131" lon="11.7169052"><ele>52.0</ele><time>2026-04-11T12:44:13.906Z</time></trkpt><trkpt lat="45.2649235" lon="11.7170357"><ele>51.5</ele><time>2026-04-11T12:44:14.906Z</time></trkpt><trkpt lat="45.2650388" lon="11.7171691"><ele>51.0</ele><time>2026-04-11T12:44:15.906Z</time></trkpt><trkpt lat="45.2651595" lon="11.7173076"><ele>51.0</ele><time>2026-04-11T12:44:16.906Z</time></trkpt><trkpt lat="45.2652834" lon="11.7174471"><ele>51.0</ele><time>2026-04-11T12:44:17.906Z</time></trkpt><trkpt lat="45.2654079" lon="11.7175943"><ele>51.0</ele><time>2026-04-11T12:44:18.906Z</time></trkpt><trkpt lat="45.2655332" lon="11.7177306"><ele>50.5</ele><time>2026-04-11T12:44:19.906Z</time></trkpt><trkpt lat="45.2656491" lon="11.7178528"><ele>50.0</ele><time>2026-04-11T12:44:20.906Z</time></trkpt><trkpt lat="45.2657587" lon="11.717968"><ele>49.5</ele><time>2026-04-11T12:44:21.906Z</time></trkpt><trkpt lat="45.2658703" lon="11.7180604"><ele>49.0</ele><time>2026-04-11T12:44:22.906Z</time></trkpt><trkpt lat="45.2659859" lon="11.7181508"><ele>49.0</ele><time>2026-04-11T12:44:23.906Z</time></trkpt><trkpt lat="45.2661052" lon="11.7182319"><ele>49.0</ele><time>2026-04-11T12:44:24.906Z</time></trkpt><trkpt lat="45.2662332" lon="11.718301"><ele>49.0</ele><time>2026-04-11T12:44:25.906Z</time></trkpt><trkpt lat="45.2663632" lon="11.7183523"><ele>49.0</ele><time>2026-04-11T12:44:26.906Z</time></trkpt><trkpt lat="45.2664993" lon="11.7183859"><ele>50.33333333333333</ele><time>2026-04-11T12:44:27.906Z</time></trkpt><trkpt lat="45.266645" lon="11.7183954"><ele>51.66666666666667</ele><time>2026-04-11T12:44:28.906Z</time></trkpt><trkpt lat="45.266794" lon="11.718385"><ele>53.0</ele><time>2026-04-11T12:44:29.906Z</time></trkpt><trkpt lat="45.2669474" lon="11.718352"><ele>53.0</ele><time>2026-04-11T12:44:30.906Z</time></trkpt><trkpt lat="45.2671029" lon="11.7183125"><ele>53.0</ele><time>2026-04-11T12:44:31.906Z</time></trkpt><trkpt lat="45.2672571" lon="11.7183153"><ele>53.0</ele><time>2026-04-11T12:44:32.906Z</time></trkpt><trkpt lat="45.2674049" lon="11.7183262"><ele>52.25</ele><time>2026-04-11T12:44:33.905Z</time></trkpt><trkpt lat="45.2675419" lon="11.7183529"><ele>51.5</ele><time>2026-04-11T12:44:34.906Z</time></trkpt><trkpt lat="45.267676" lon="11.7183857"><ele>50.75</ele><time>2026-04-11T12:44:35.906Z</time></trkpt><trkpt lat="45.2678063" lon="11.7184216"><ele>50.0</ele><time>2026-04-11T12:44:36.906Z</time></trkpt><trkpt lat="45.2679311" lon="11.7184772"><ele>50.0</ele><time>2026-04-11T12:44:37.906Z</time></trkpt><trkpt lat="45.2680526" lon="11.7185377"><ele>50.0</ele><time>2026-04-11T12:44:38.906Z</time></trkpt><trkpt lat="45.2681703" lon="11.7185814"><ele>50.0</ele><time>2026-04-11T12:44:39.906Z</time></trkpt><trkpt lat="45.2682955" lon="11.7186093"><ele>50.0</ele><time>2026-04-11T12:44:40.906Z</time></trkpt><trkpt lat="45.2684222" lon="11.7186083"><ele>46.4</ele><time>2026-04-11T12:44:41.906Z</time></trkpt><trkpt lat="45.2685454" lon="11.7185984"><ele>42.8</ele><time>2026-04-11T12:44:42.906Z</time></trkpt><trkpt lat="45.2686599" lon="11.7185987"><ele>39.2</ele><time>2026-04-11T12:44:43.905Z</time></trkpt><trkpt lat="45.2687652" lon="11.7185962"><ele>35.6</ele><time>2026-04-11T12:44:44.906Z</time></trkpt><trkpt lat="45.2688445" lon="11.7185896"><ele>32.0</ele><time>2026-04-11T12:44:45.906Z</time></trkpt><trkpt lat="45.2689136" lon="11.718603"><ele>33.6</ele><time>2026-04-11T12:44:46.906Z</time></trkpt><trkpt lat="45.2689725" lon="11.7186388"><ele>35.2</ele><time>2026-04-11T12:44:47.906Z</time></trkpt><trkpt lat="45.2690631" lon="11.718743"><ele>36.8</ele><time>2026-04-11T12:44:49.906Z</time></trkpt><trkpt lat="45.2691402" lon="11.7188556"><ele>38.4</ele><time>2026-04-11T12:44:51.906Z</time></trkpt><trkpt lat="45.2691902" lon="11.7189875"><ele>40.0</ele><time>2026-04-11T12:44:53.906Z</time></trkpt><trkpt lat="45.2692071" lon="11.7190964"><ele>40.0</ele><time>2026-04-11T12:44:55.906Z</time></trkpt><trkpt lat="45.2691367" lon="11.7191543"><ele>40.0</ele><time>2026-04-11T12:44:58.906Z</time></trkpt><trkpt lat="45.2690718" lon="11.7190928"><ele>40.0</ele><time>2026-04-11T12:45:00.906Z</time></trkpt><trkpt lat="45.2689969" lon="11.7190086"><ele>40.0</ele><time>2026-04-11T12:45:02.906Z</time></trkpt><trkpt lat="45.2688868" lon="11.7189726"><ele>40.0</ele><time>2026-04-11T12:45:04.906Z</time></trkpt><trkpt lat="45.2687876" lon="11.7189726"><ele>38.4</ele><time>2026-04-11T12:45:06.906Z</time></trkpt><trkpt lat="45.2687193" lon="11.7190317"><ele>36.8</ele><time>2026-04-11T12:45:08.906Z</time></trkpt><trkpt lat="45.268642" lon="11.7191184"><ele>35.2</ele><time>2026-04-11T12:45:10.906Z</time></trkpt><trkpt lat="45.2685542" lon="11.7192647"><ele>33.6</ele><time>2026-04-11T12:45:12.906Z</time></trkpt><trkpt lat="45.2685098" lon="11.7193652"><ele>32.0</ele><time>2026-04-11T12:45:13.906Z</time></trkpt><trkpt lat="45.2684762" lon="11.7195075"><ele>30.25</ele><time>2026-04-11T12:45:14.906Z</time></trkpt><trkpt lat="45.2684449" lon="11.719669"><ele>28.5</ele><time>2026-04-11T12:45:15.906Z</time></trkpt><trkpt lat="45.2684146" lon="11.7198435"><ele>26.75</ele><time>2026-04-11T12:45:16.906Z</time></trkpt><trkpt lat="45.2683807" lon="11.7200202"><ele>25.0</ele><time>2026-04-11T12:45:17.906Z</time></trkpt><trkpt lat="45.2683246" lon="11.7202008"><ele>23.75</ele><time>2026-04-11T12:45:18.905Z</time></trkpt><trkpt lat="45.2682493" lon="11.7203677"><ele>22.5</ele><time>2026-04-11T12:45:19.906Z</time></trkpt><trkpt lat="45.268158" lon="11.7205227"><ele>21.25</ele><time>2026-04-11T12:45:20.906Z</time></trkpt><trkpt lat="45.2680596" lon="11.7206655"><ele>20.0</ele><time>2026-04-11T12:45:21.906Z</time></trkpt><trkpt lat="45.2679762" lon="11.7207886"><ele>19.0</ele><time>2026-04-11T12:45:22.906Z</time></trkpt><trkpt lat="45.267905" lon="11.7208948"><ele>18.0</ele><time>2026-04-11T12:45:23.906Z</time></trkpt><trkpt lat="45.2678375" lon="11.720983"><ele>17.0</ele><time>2026-04-11T12:45:24.906Z</time></trkpt><trkpt lat="45.2677721" lon="11.7210635"><ele>16.0</ele><time>2026-04-11T12:45:25.906Z</time></trkpt><trkpt lat="45.2677164" lon="11.7211197"><ele>15.0</ele><time>2026-04-11T12:45:26.906Z</time></trkpt><trkpt lat="45.2676208" lon="11.7212139"><ele>15.0</ele><time>2026-04-11T12:45:28.906Z</time></trkpt><trkpt lat="45.2675802" lon="11.7213628"><ele>15.0</ele><time>2026-04-11T12:45:30.906Z</time></trkpt><trkpt lat="45.2675729" lon="11.7215492"><ele>15.0</ele><time>2026-04-11T12:45:32.906Z</time></trkpt><trkpt lat="45.26756" lon="11.7216675"><ele>15.0</ele><time>2026-04-11T12:45:33.906Z</time></trkpt><trkpt lat="45.2675457" lon="11.721805"><ele>15.0</ele><time>2026-04-11T12:45:34.906Z</time></trkpt><trkpt lat="45.2675375" lon="11.7219488"><ele>15.0</ele><time>2026-04-11T12:45:35.906Z</time></trkpt><trkpt lat="45.2675311" lon="11.7220955"><ele>15.0</ele><time>2026-04-11T12:45:36.906Z</time></trkpt><trkpt lat="45.2675207" lon="11.7222399"><ele>15.0</ele><time>2026-04-11T12:45:37.906Z</time></trkpt><trkpt lat="45.267511" lon="11.7223662"><ele>15.0</ele><time>2026-04-11T12:45:38.906Z</time></trkpt><trkpt lat="45.2675103" lon="11.7224772"><ele>15.0</ele><time>2026-04-11T12:45:39.906Z</time></trkpt><trkpt lat="45.2675379" lon="11.7225714"><ele>15.0</ele><time>2026-04-11T12:45:40.906Z</time></trkpt><trkpt lat="45.2675858" lon="11.7226429"><ele>15.0</ele><time>2026-04-11T12:45:41.906Z</time></trkpt><trkpt lat="45.2676436" lon="11.7226987"><ele>15.0</ele><time>2026-04-11T12:45:42.906Z</time></trkpt><trkpt lat="45.267715" lon="11.7227517"><ele>15.0</ele><time>2026-04-11T12:45:43.906Z</time></trkpt><trkpt lat="45.2677949" lon="11.7228127"><ele>15.0</ele><time>2026-04-11T12:45:44.906Z</time></trkpt><trkpt lat="45.2678811" lon="11.7228811"><ele>15.0</ele><time>2026-04-11T12:45:45.906Z</time></trkpt><trkpt lat="45.2679777" lon="11.7229416"><ele>15.0</ele><time>2026-04-11T12:45:46.906Z</time></trkpt><trkpt lat="45.2680798" lon="11.7230097"><ele>16.0</ele><time>2026-04-11T12:45:47.906Z</time></trkpt><trkpt lat="45.2681843" lon="11.7230697"><ele>17.0</ele><time>2026-04-11T12:45:48.906Z</time></trkpt><trkpt lat="45.2682845" lon="11.7231337"><ele>18.0</ele><time>2026-04-11T12:45:49.906Z</time></trkpt><trkpt lat="45.2683737" lon="11.7232103"><ele>19.0</ele><time>2026-04-11T12:45:50.906Z</time></trkpt><trkpt lat="45.268455" lon="11.7233011"><ele>20.0</ele><time>2026-04-11T12:45:51.906Z</time></trkpt><trkpt lat="45.2685366" lon="11.7233958"><ele>20.0</ele><time>2026-04-11T12:45:52.906Z</time></trkpt><trkpt lat="45.2686226" lon="11.7234855"><ele>20.0</ele><time>2026-04-11T12:45:53.906Z</time></trkpt><trkpt lat="45.2687268" lon="11.723559"><ele>20.0</ele><time>2026-04-11T12:45:54.906Z</time></trkpt><trkpt lat="45.2688559" lon="11.7236219"><ele>20.0</ele><time>2026-04-11T12:45:55.906Z</time></trkpt><trkpt lat="45.2690238" lon="11.7237085"><ele>23.0</ele><time>2026-04-11T12:45:56.906Z</time></trkpt><trkpt lat="45.2692293" lon="11.72382"><ele>26.0</ele><time>2026-04-11T12:45:57.906Z</time></trkpt><trkpt lat="45.2694627" lon="11.7239144"><ele>26.0</ele><time>2026-04-11T12:45:58.906Z</time></trkpt><trkpt lat="45.2696972" lon="11.7239924"><ele>26.0</ele><time>2026-04-11T12:45:59.906Z</time></trkpt><trkpt lat="45.269879" lon="11.7240565"><ele>26.0</ele><time>2026-04-11T12:46:00.906Z</time></trkpt><trkpt lat="45.270031" lon="11.7241022"><ele>27.8</ele><time>2026-04-11T12:46:01.906Z</time></trkpt><trkpt lat="45.2701487" lon="11.7241351"><ele>29.6</ele><time>2026-04-11T12:46:02.906Z</time></trkpt><trkpt lat="45.2702351" lon="11.7241764"><ele>31.4</ele><time>2026-04-11T12:46:03.906Z</time></trkpt><trkpt lat="45.2702964" lon="11.7242507"><ele>33.2</ele><time>2026-04-11T12:46:04.906Z</time></trkpt><trkpt lat="45.2703292" lon="11.7243529"><ele>35.0</ele><time>2026-04-11T12:46:05.906Z</time></trkpt><trkpt lat="45.2703315" lon="11.7244723"><ele>36.5</ele><time>2026-04-11T12:46:06.906Z</time></trkpt><trkpt lat="45.2703028" lon="11.7246117"><ele>38.0</ele><time>2026-04-11T12:46:07.906Z</time></trkpt><trkpt lat="45.2702365" lon="11.72482"><ele>39.5</ele><time>2026-04-11T12:46:08.906Z</time></trkpt><trkpt lat="45.2701671" lon="11.7250379"><ele>41.0</ele><time>2026-04-11T12:46:09.906Z</time></trkpt><trkpt lat="45.2701187" lon="11.725213"><ele>42.4</ele><time>2026-04-11T12:46:10.906Z</time></trkpt><trkpt lat="45.270089" lon="11.7253628"><ele>43.8</ele><time>2026-04-11T12:46:11.906Z</time></trkpt><trkpt lat="45.2700636" lon="11.7254929"><ele>45.199999999999996</ele><time>2026-04-11T12:46:12.906Z</time></trkpt><trkpt lat="45.2700389" lon="11.7256151"><ele>46.599999999999994</ele><time>2026-04-11T12:46:13.906Z</time></trkpt><trkpt lat="45.2700179" lon="11.725741"><ele>48.0</ele><time>2026-04-11T12:46:14.906Z</time></trkpt><trkpt lat="45.2699931" lon="11.7258701"><ele>48.0</ele><time>2026-04-11T12:46:15.906Z</time></trkpt><trkpt lat="45.2699595" lon="11.7259974"><ele>48.0</ele><time>2026-04-11T12:46:16.906Z</time></trkpt><trkpt lat="45.2699208" lon="11.7261242"><ele>48.0</ele><time>2026-04-11T12:46:17.906Z</time></trkpt><trkpt lat="45.269869" lon="11.7262511"><ele>48.0</ele><time>2026-04-11T12:46:18.906Z</time></trkpt><trkpt lat="45.2698174" lon="11.7263848"><ele>48.0</ele><time>2026-04-11T12:46:19.906Z</time></trkpt><trkpt lat="45.2697588" lon="11.7265295"><ele>48.25</ele><time>2026-04-11T12:46:20.906Z</time></trkpt><trkpt lat="45.2696735" lon="11.726647"><ele>48.5</ele><time>2026-04-11T12:46:21.906Z</time></trkpt><trkpt lat="45.2695712" lon="11.7267592"><ele>48.75</ele><time>2026-04-11T12:46:22.906Z</time></trkpt><trkpt lat="45.2694564" lon="11.7268655"><ele>49.0</ele><time>2026-04-11T12:46:23.906Z</time></trkpt><trkpt lat="45.2693516" lon="11.7269696"><ele>48.400000000000006</ele><time>2026-04-11T12:46:24.906Z</time></trkpt><trkpt lat="45.2692557" lon="11.7270713"><ele>47.8</ele><time>2026-04-11T12:46:25.906Z</time></trkpt><trkpt lat="45.269165" lon="11.7271756"><ele>47.2</ele><time>2026-04-11T12:46:26.906Z</time></trkpt><trkpt lat="45.2690941" lon="11.7272417"><ele>46.599999999999994</ele><time>2026-04-11T12:46:27.906Z</time></trkpt><trkpt lat="45.2690167" lon="11.7272965"><ele>46.0</ele><time>2026-04-11T12:46:28.906Z</time></trkpt><trkpt lat="45.2689423" lon="11.7273552"><ele>45.142857142857146</ele><time>2026-04-11T12:46:29.906Z</time></trkpt><trkpt lat="45.2688761" lon="11.7274298"><ele>44.285714285714285</ele><time>2026-04-11T12:46:30.906Z</time></trkpt><trkpt lat="45.2688307" lon="11.7275049"><ele>43.42857142857143</ele><time>2026-04-11T12:46:31.906Z</time></trkpt><trkpt lat="45.268807" lon="11.7275891"><ele>42.57142857142857</ele><time>2026-04-11T12:46:32.906Z</time></trkpt><trkpt lat="45.2688145" lon="11.7276788"><ele>41.714285714285715</ele><time>2026-04-11T12:46:33.906Z</time></trkpt><trkpt lat="45.2688321" lon="11.7277812"><ele>40.857142857142854</ele><time>2026-04-11T12:46:34.906Z</time></trkpt><trkpt lat="45.2688622" lon="11.7278987"><ele>40.0</ele><time>2026-04-11T12:46:35.906Z</time></trkpt><trkpt lat="45.2689074" lon="11.7280346"><ele>38.75</ele><time>2026-04-11T12:46:36.906Z</time></trkpt><trkpt lat="45.2689753" lon="11.7281687"><ele>37.5</ele><time>2026-04-11T12:46:37.906Z</time></trkpt><trkpt lat="45.2690585" lon="11.7283055"><ele>36.25</ele><time>2026-04-11T12:46:38.906Z</time></trkpt><trkpt lat="45.269155" lon="11.7284501"><ele>35.0</ele><time>2026-04-11T12:46:39.906Z</time></trkpt><trkpt lat="45.2692592" lon="11.7285772"><ele>31.5</ele><time>2026-04-11T12:46:40.906Z</time></trkpt><trkpt lat="45.2693475" lon="11.7287005"><ele>28.0</ele><time>2026-04-11T12:46:41.906Z</time></trkpt><trkpt lat="45.2694255" lon="11.7288213"><ele>24.5</ele><time>2026-04-11T12:46:42.906Z</time></trkpt><trkpt lat="45.2694978" lon="11.7289518"><ele>21.0</ele><time>2026-04-11T12:46:43.906Z</time></trkpt><trkpt lat="45.269561" lon="11.7290908"><ele>21.0</ele><time>2026-04-11T12:46:44.906Z</time></trkpt><trkpt lat="45.2696042" lon="11.7292336"><ele>21.0</ele><time>2026-04-11T12:46:45.906Z</time></trkpt><trkpt lat="45.2696317" lon="11.7293868"><ele>21.0</ele><time>2026-04-11T12:46:46.906Z</time></trkpt><trkpt lat="45.2696126" lon="11.7295583"><ele>21.0</ele><time>2026-04-11T12:46:47.905Z</time></trkpt><trkpt lat="45.2695841" lon="11.7297347"><ele>19.0</ele><time>2026-04-11T12:46:48.906Z</time></trkpt><trkpt lat="45.2695429" lon="11.7299121"><ele>17.0</ele><time>2026-04-11T12:46:49.906Z</time></trkpt><trkpt lat="45.2695036" lon="11.7300932"><ele>15.0</ele><time>2026-04-11T12:46:50.906Z</time></trkpt><trkpt lat="45.2694627" lon="11.7302797"><ele>13.0</ele><time>2026-04-11T12:46:51.906Z</time></trkpt><trkpt lat="45.269427" lon="11.7304675"><ele>12.5</ele><time>2026-04-11T12:46:52.906Z</time></trkpt><trkpt lat="45.2693889" lon="11.7306516"><ele>12.0</ele><time>2026-04-11T12:46:53.906Z</time></trkpt><trkpt lat="45.2693482" lon="11.7308386"><ele>11.5</ele><time>2026-04-11T12:46:54.906Z</time></trkpt><trkpt lat="45.2693052" lon="11.7310221"><ele>11.0</ele><time>2026-04-11T12:46:55.905Z</time></trkpt><trkpt lat="45.2692679" lon="11.7312104"><ele>11.0</ele><time>2026-04-11T12:46:56.906Z</time></trkpt><trkpt lat="45.269241" lon="11.7313897"><ele>11.0</ele><time>2026-04-11T12:46:57.906Z</time></trkpt><trkpt lat="45.2692269" lon="11.7315604"><ele>11.0</ele><time>2026-04-11T12:46:58.906Z</time></trkpt><trkpt lat="45.2692237" lon="11.7317237"><ele>11.0</ele><time>2026-04-11T12:46:59.906Z</time></trkpt><trkpt lat="45.2692499" lon="11.7318744"><ele>10.75</ele><time>2026-04-11T12:47:00.906Z</time></trkpt><trkpt lat="45.2693038" lon="11.7320134"><ele>10.5</ele><time>2026-04-11T12:47:01.906Z</time></trkpt><trkpt lat="45.2693764" lon="11.7321476"><ele>10.25</ele><time>2026-04-11T12:47:02.906Z</time></trkpt><trkpt lat="45.2694554" lon="11.7322817"><ele>10.0</ele><time>2026-04-11T12:47:03.906Z</time></trkpt><trkpt lat="45.2695372" lon="11.7324184"><ele>10.0</ele><time>2026-04-11T12:47:04.906Z</time></trkpt><trkpt lat="45.2696064" lon="11.7325644"><ele>10.0</ele><time>2026-04-11T12:47:05.905Z</time></trkpt><trkpt lat="45.2696538" lon="11.7327169"><ele>10.0</ele><time>2026-04-11T12:47:06.906Z</time></trkpt><trkpt lat="45.2696717" lon="11.7328824"><ele>10.0</ele><time>2026-04-11T12:47:07.906Z</time></trkpt><trkpt lat="45.2696683" lon="11.7330523"><ele>9.75</ele><time>2026-04-11T12:47:08.906Z</time></trkpt><trkpt lat="45.2696338" lon="11.7332198"><ele>9.5</ele><time>2026-04-11T12:47:09.906Z</time></trkpt><trkpt lat="45.2695777" lon="11.7333857"><ele>9.25</ele><time>2026-04-11T12:47:10.906Z</time></trkpt><trkpt lat="45.2695187" lon="11.7335627"><ele>9.0</ele><time>2026-04-11T12:47:11.906Z</time></trkpt><trkpt lat="45.2694663" lon="11.7337424"><ele>8.75</ele><time>2026-04-11T12:47:12.906Z</time></trkpt><trkpt lat="45.2694245" lon="11.7339197"><ele>8.5</ele><time>2026-04-11T12:47:13.906Z</time></trkpt><trkpt lat="45.2694041" lon="11.7340956"><ele>8.25</ele><time>2026-04-11T12:47:14.905Z</time></trkpt><trkpt lat="45.2694084" lon="11.7342596"><ele>8.0</ele><time>2026-04-11T12:47:15.906Z</time></trkpt><trkpt lat="45.2694376" lon="11.7344232"><ele>7.75</ele><time>2026-04-11T12:47:16.906Z</time></trkpt><trkpt lat="45.2694821" lon="11.7345943"><ele>7.5</ele><time>2026-04-11T12:47:17.906Z</time></trkpt><trkpt lat="45.2695258" lon="11.7347704"><ele>7.25</ele><time>2026-04-11T12:47:18.906Z</time></trkpt><trkpt lat="45.2695692" lon="11.7349553"><ele>7.0</ele><time>2026-04-11T12:47:19.905Z</time></trkpt><trkpt lat="45.2696111" lon="11.7351359"><ele>7.0</ele><time>2026-04-11T12:47:20.906Z</time></trkpt><trkpt lat="45.2696472" lon="11.7353127"><ele>7.0</ele><time>2026-04-11T12:47:21.906Z</time></trkpt><trkpt lat="45.2696698" lon="11.7354837"><ele>7.0</ele><time>2026-04-11T12:47:22.906Z</time></trkpt><trkpt lat="45.269676" lon="11.73566"><ele>7.0</ele><time>2026-04-11T12:47:23.905Z</time></trkpt><trkpt lat="45.2696628" lon="11.7358535"><ele>7.0</ele><time>2026-04-11T12:47:24.906Z</time></trkpt><trkpt lat="45.2696509" lon="11.736047"><ele>7.0</ele><time>2026-04-11T12:47:25.906Z</time></trkpt><trkpt lat="45.2696428" lon="11.7362419"><ele>7.0</ele><time>2026-04-11T12:47:26.906Z</time></trkpt><trkpt lat="45.2696352" lon="11.7364416"><ele>7.0</ele><time>2026-04-11T12:47:27.906Z</time></trkpt><trkpt lat="45.2696359" lon="11.7366435"><ele>7.25</ele><time>2026-04-11T12:47:28.906Z</time></trkpt><trkpt lat="45.2696354" lon="11.7368425"><ele>7.5</ele><time>2026-04-11T12:47:29.906Z</time></trkpt><trkpt lat="45.2696315" lon="11.7370453"><ele>7.75</ele><time>2026-04-11T12:47:30.906Z</time></trkpt><trkpt lat="45.2696335" lon="11.7372533"><ele>8.0</ele><time>2026-04-11T12:47:31.906Z</time></trkpt><trkpt lat="45.2696418" lon="11.7374613"><ele>8.0</ele><time>2026-04-11T12:47:32.906Z</time></trkpt><trkpt lat="45.2696599" lon="11.7376694"><ele>8.0</ele><time>2026-04-11T12:47:33.906Z</time></trkpt><trkpt lat="45.2696916" lon="11.7378839"><ele>8.0</ele><time>2026-04-11T12:47:34.906Z</time></trkpt><trkpt lat="45.2697357" lon="11.7381023"><ele>9.666666666666666</ele><time>2026-04-11T12:47:35.906Z</time></trkpt><trkpt lat="45.2697813" lon="11.7383237"><ele>11.333333333333332</ele><time>2026-04-11T12:47:36.906Z</time></trkpt><trkpt lat="45.2698216" lon="11.7385535"><ele>13.0</ele><time>2026-04-11T12:47:37.906Z</time></trkpt><trkpt lat="45.2698624" lon="11.7387823"><ele>13.0</ele><time>2026-04-11T12:47:38.906Z</time></trkpt><trkpt lat="45.2699018" lon="11.7390134"><ele>13.0</ele><time>2026-04-11T12:47:39.906Z</time></trkpt><trkpt lat="45.2699434" lon="11.7392429"><ele>13.0</ele><time>2026-04-11T12:47:40.906Z</time></trkpt><trkpt lat="45.2699858" lon="11.739477"><ele>12.0</ele><time>2026-04-11T12:47:41.906Z</time></trkpt><trkpt lat="45.2700314" lon="11.7397077"><ele>11.0</ele><time>2026-04-11T12:47:42.905Z</time></trkpt><trkpt lat="45.2700822" lon="11.7399345"><ele>10.0</ele><time>2026-04-11T12:47:43.906Z</time></trkpt><trkpt lat="45.2701464" lon="11.7401514"><ele>9.333333333333334</ele><time>2026-04-11T12:47:44.906Z</time></trkpt><trkpt lat="45.2702145" lon="11.7403755"><ele>8.666666666666666</ele><time>2026-04-11T12:47:45.906Z</time></trkpt><trkpt lat="45.2702853" lon="11.7405582"><ele>8.0</ele><time>2026-04-11T12:47:46.906Z</time></trkpt><trkpt lat="45.2703637" lon="11.7407286"><ele>8.0</ele><time>2026-04-11T12:47:47.906Z</time></trkpt><trkpt lat="45.2704469" lon="11.7408632"><ele>8.0</ele><time>2026-04-11T12:47:48.906Z</time></trkpt><trkpt lat="45.2705473" lon="11.7409592"><ele>8.0</ele><time>2026-04-11T12:47:49.906Z</time></trkpt><trkpt lat="45.2706514" lon="11.7410273"><ele>8.0</ele><time>2026-04-11T12:47:50.906Z</time></trkpt><trkpt lat="45.2707478" lon="11.7410839"><ele>7.499999999999999</ele><time>2026-04-11T12:47:51.905Z</time></trkpt><trkpt lat="45.2708276" lon="11.7411197"><ele>7.0</ele><time>2026-04-11T12:47:52.906Z</time></trkpt><trkpt lat="45.2708922" lon="11.7411546"><ele>6.5</ele><time>2026-04-11T12:47:53.906Z</time></trkpt><trkpt lat="45.270958" lon="11.7411861"><ele>6.0</ele><time>2026-04-11T12:47:55.906Z</time></trkpt><trkpt lat="45.2710228" lon="11.7411985"><ele>5.5</ele><time>2026-04-11T12:48:08.906Z</time></trkpt><trkpt lat="45.2710858" lon="11.7412324"><ele>5.0</ele><time>2026-04-11T12:48:10.906Z</time></trkpt><trkpt lat="45.2711873" lon="11.7412763"><ele>5.0</ele><time>2026-04-11T12:48:12.905Z</time></trkpt><trkpt lat="45.2712906" lon="11.7413178"><ele>5.0</ele><time>2026-04-11T12:48:14.906Z</time></trkpt><trkpt lat="45.2713669" lon="11.7413575"><ele>5.0</ele><time>2026-04-11T12:48:16.906Z</time></trkpt><trkpt lat="45.271443" lon="11.7413839"><ele>5.0</ele><time>2026-04-11T12:48:18.906Z</time></trkpt><trkpt lat="45.2715068" lon="11.741424"><ele>5.0</ele><time>2026-04-11T12:48:20.906Z</time></trkpt><trkpt lat="45.2715891" lon="11.7415191"><ele>5.0</ele><time>2026-04-11T12:48:22.906Z</time></trkpt><trkpt lat="45.271638" lon="11.7415846"><ele>6.666666666666667</ele><time>2026-04-11T12:48:23.906Z</time></trkpt><trkpt lat="45.2716769" lon="11.7416733"><ele>8.333333333333334</ele><time>2026-04-11T12:48:24.906Z</time></trkpt><trkpt lat="45.271699" lon="11.7417761"><ele>10.0</ele><time>2026-04-11T12:48:25.906Z</time></trkpt><trkpt lat="45.2717033" lon="11.7418922"><ele>11.666666666666666</ele><time>2026-04-11T12:48:26.906Z</time></trkpt><trkpt lat="45.2716934" lon="11.7420116"><ele>13.333333333333334</ele><time>2026-04-11T12:48:27.906Z</time></trkpt><trkpt lat="45.2716732" lon="11.7421313"><ele>15.0</ele><time>2026-04-11T12:48:28.906Z</time></trkpt><trkpt lat="45.2716436" lon="11.7422596"><ele>15.0</ele><time>2026-04-11T12:48:29.906Z</time></trkpt><trkpt lat="45.2716077" lon="11.742393"><ele>15.0</ele><time>2026-04-11T12:48:30.906Z</time></trkpt><trkpt lat="45.2715676" lon="11.7425329"><ele>15.0</ele><time>2026-04-11T12:48:31.906Z</time></trkpt><trkpt lat="45.2715198" lon="11.7426838"><ele>15.0</ele><time>2026-04-11T12:48:32.906Z</time></trkpt><trkpt lat="45.2714551" lon="11.7428669"><ele>13.0</ele><time>2026-04-11T12:48:33.906Z</time></trkpt><trkpt lat="45.271378" lon="11.7430282"><ele>11.0</ele><time>2026-04-11T12:48:34.906Z</time></trkpt><trkpt lat="45.2712839" lon="11.7431984"><ele>9.0</ele><time>2026-04-11T12:48:35.906Z</time></trkpt><trkpt lat="45.2712012" lon="11.7433733"><ele>7.0</ele><time>2026-04-11T12:48:36.906Z</time></trkpt><trkpt lat="45.271113" lon="11.7435228"><ele>9.25</ele><time>2026-04-11T12:48:37.906Z</time></trkpt><trkpt lat="45.2710304" lon="11.7436598"><ele>11.5</ele><time>2026-04-11T12:48:38.906Z</time></trkpt><trkpt lat="45.2709548" lon="11.7437935"><ele>13.75</ele><time>2026-04-11T12:48:39.906Z</time></trkpt><trkpt lat="45.2708775" lon="11.7439189"><ele>16.0</ele><time>2026-04-11T12:48:40.905Z</time></trkpt><trkpt lat="45.2708063" lon="11.7440464"><ele>16.0</ele><time>2026-04-11T12:48:41.906Z</time></trkpt><trkpt lat="45.270739" lon="11.7441745"><ele>16.0</ele><time>2026-04-11T12:48:42.906Z</time></trkpt><trkpt lat="45.2706785" lon="11.7443029"><ele>16.0</ele><time>2026-04-11T12:48:43.906Z</time></trkpt><trkpt lat="45.2706207" lon="11.7444319"><ele>16.0</ele><time>2026-04-11T12:48:44.906Z</time></trkpt><trkpt lat="45.2705477" lon="11.7445749"><ele>14.5</ele><time>2026-04-11T12:48:45.906Z</time></trkpt><trkpt lat="45.2704635" lon="11.7447283"><ele>13.0</ele><time>2026-04-11T12:48:46.906Z</time></trkpt><trkpt lat="45.2703795" lon="11.7448703"><ele>11.5</ele><time>2026-04-11T12:48:47.906Z</time></trkpt><trkpt lat="45.2703076" lon="11.7450066"><ele>10.0</ele><time>2026-04-11T12:48:48.906Z</time></trkpt><trkpt lat="45.2702418" lon="11.7451331"><ele>11.2</ele><time>2026-04-11T12:48:49.906Z</time></trkpt><trkpt lat="45.2701747" lon="11.7452517"><ele>12.4</ele><time>2026-04-11T12:48:50.906Z</time></trkpt><trkpt lat="45.270114" lon="11.7453726"><ele>13.600000000000001</ele><time>2026-04-11T12:48:51.906Z</time></trkpt><trkpt lat="45.2700566" lon="11.7454866"><ele>14.8</ele><time>2026-04-11T12:48:52.906Z</time></trkpt><trkpt lat="45.2700004" lon="11.7455985"><ele>16.0</ele><time>2026-04-11T12:48:53.905Z</time></trkpt><trkpt lat="45.2699422" lon="11.7457127"><ele>15.999999999999998</ele><time>2026-04-11T12:48:54.906Z</time></trkpt><trkpt lat="45.2698909" lon="11.7458129"><ele>16.0</ele><time>2026-04-11T12:48:55.905Z</time></trkpt><trkpt lat="45.2698416" lon="11.7459103"><ele>16.0</ele><time>2026-04-11T12:48:56.906Z</time></trkpt><trkpt lat="45.2697924" lon="11.7460102"><ele>16.0</ele><time>2026-04-11T12:48:57.906Z</time></trkpt><trkpt lat="45.269743" lon="11.7461131"><ele>15.999999999999998</ele><time>2026-04-11T12:48:58.906Z</time></trkpt><trkpt lat="45.2696932" lon="11.74621"><ele>16.0</ele><time>2026-04-11T12:48:59.906Z</time></trkpt><trkpt lat="45.269651" lon="11.7462995"><ele>14.833333333333332</ele><time>2026-04-11T12:49:00.906Z</time></trkpt><trkpt lat="45.2696057" lon="11.7463965"><ele>13.666666666666666</ele><time>2026-04-11T12:49:01.906Z</time></trkpt><trkpt lat="45.269561" lon="11.7464793"><ele>12.5</ele><time>2026-04-11T12:49:02.906Z</time></trkpt><trkpt lat="45.2695192" lon="11.7465592"><ele>11.333333333333332</ele><time>2026-04-11T12:49:03.906Z</time></trkpt><trkpt lat="45.2694843" lon="11.746639"><ele>10.166666666666666</ele><time>2026-04-11T12:49:04.906Z</time></trkpt><trkpt lat="45.2694102" lon="11.7467811"><ele>9.0</ele><time>2026-04-11T12:49:06.906Z</time></trkpt><trkpt lat="45.2693714" lon="11.7468556"><ele>8.666666666666666</ele><time>2026-04-11T12:49:07.905Z</time></trkpt><trkpt lat="45.2693196" lon="11.7469226"><ele>8.333333333333334</ele><time>2026-04-11T12:49:08.906Z</time></trkpt><trkpt lat="45.2692586" lon="11.7469759"><ele>8.0</ele><time>2026-04-11T12:49:09.906Z</time></trkpt><trkpt lat="45.2691756" lon="11.7469963"><ele>7.666666666666667</ele><time>2026-04-11T12:49:10.906Z</time></trkpt><trkpt lat="45.2690913" lon="11.7470058"><ele>7.333333333333334</ele><time>2026-04-11T12:49:11.906Z</time></trkpt><trkpt lat="45.2690152" lon="11.7470003"><ele>7.0</ele><time>2026-04-11T12:49:12.906Z</time></trkpt><trkpt lat="45.2689435" lon="11.7469858"><ele>7.0</ele><time>2026-04-11T12:49:13.906Z</time></trkpt><trkpt lat="45.2688642" lon="11.7469706"><ele>6.999999999999999</ele><time>2026-04-11T12:49:14.906Z</time></trkpt><trkpt lat="45.2687689" lon="11.7469527"><ele>6.999999999999999</ele><time>2026-04-11T12:49:15.906Z</time></trkpt><trkpt lat="45.2686582" lon="11.7469067"><ele>7.0</ele><time>2026-04-11T12:49:16.906Z</time></trkpt><trkpt lat="45.2685389" lon="11.7468431"><ele>7.0</ele><time>2026-04-11T12:49:17.906Z</time></trkpt><trkpt lat="45.2684189" lon="11.7467718"><ele>6.75</ele><time>2026-04-11T12:49:18.906Z</time></trkpt><trkpt lat="45.2682874" lon="11.7466929"><ele>6.5</ele><time>2026-04-11T12:49:19.906Z</time></trkpt><trkpt lat="45.2681539" lon="11.7466029"><ele>6.25</ele><time>2026-04-11T12:49:20.906Z</time></trkpt><trkpt lat="45.2680114" lon="11.7465195"><ele>6.0</ele><time>2026-04-11T12:49:21.906Z</time></trkpt><trkpt lat="45.2678645" lon="11.7464358"><ele>5.666666666666667</ele><time>2026-04-11T12:49:22.906Z</time></trkpt><trkpt lat="45.26771" lon="11.7463449"><ele>5.333333333333334</ele><time>2026-04-11T12:49:23.906Z</time></trkpt><trkpt lat="45.2675493" lon="11.746255"><ele>5.0</ele><time>2026-04-11T12:49:24.906Z</time></trkpt><trkpt lat="45.2673834" lon="11.7461643"><ele>4.666666666666667</ele><time>2026-04-11T12:49:25.906Z</time></trkpt><trkpt lat="45.2671924" lon="11.7460598"><ele>4.333333333333333</ele><time>2026-04-11T12:49:26.905Z</time></trkpt><trkpt lat="45.2670135" lon="11.7459623"><ele>4.0</ele><time>2026-04-11T12:49:27.906Z</time></trkpt><trkpt lat="45.266838" lon="11.7458656"><ele>4.0</ele><time>2026-04-11T12:49:28.906Z</time></trkpt><trkpt lat="45.2666699" lon="11.7457705"><ele>4.0</ele><time>2026-04-11T12:49:29.905Z</time></trkpt><trkpt lat="45.2664961" lon="11.7456742"><ele>4.0</ele><time>2026-04-11T12:49:30.906Z</time></trkpt><trkpt lat="45.2663138" lon="11.7455736"><ele>3.0</ele><time>2026-04-11T12:49:31.906Z</time></trkpt><trkpt lat="45.2661519" lon="11.7454993"><ele>2.0</ele><time>2026-04-11T12:49:32.906Z</time></trkpt><trkpt lat="45.2660119" lon="11.7454243"><ele>1.0</ele><time>2026-04-11T12:49:33.906Z</time></trkpt><trkpt lat="45.2658855" lon="11.7453508"><ele>1.0</ele><time>2026-04-11T12:49:34.906Z</time></trkpt><trkpt lat="45.2657727" lon="11.7452921"><ele>1.0</ele><time>2026-04-11T12:49:35.906Z</time></trkpt><trkpt lat="45.2656678" lon="11.745232"><ele>1.0</ele><time>2026-04-11T12:49:36.906Z</time></trkpt><trkpt lat="45.2655633" lon="11.7451738"><ele>1.0</ele><time>2026-04-11T12:49:37.906Z</time></trkpt><trkpt lat="45.2654629" lon="11.7451197"><ele>2.8</ele><time>2026-04-11T12:49:38.906Z</time></trkpt><trkpt lat="45.2653678" lon="11.7450662"><ele>4.6</ele><time>2026-04-11T12:49:39.906Z</time></trkpt><trkpt lat="45.26528" lon="11.7450245"><ele>6.4</ele><time>2026-04-11T12:49:40.906Z</time></trkpt><trkpt lat="45.2652081" lon="11.7449878"><ele>8.2</ele><time>2026-04-11T12:49:41.906Z</time></trkpt><trkpt lat="45.2651439" lon="11.7449902"><ele>10.0</ele><time>2026-04-11T12:49:42.906Z</time></trkpt><trkpt lat="45.2650485" lon="11.7451373"><ele>8.75</ele><time>2026-04-11T12:49:44.906Z</time></trkpt><trkpt lat="45.2650094" lon="11.7452718"><ele>7.5</ele><time>2026-04-11T12:49:45.906Z</time></trkpt><trkpt lat="45.2649709" lon="11.745426"><ele>6.25</ele><time>2026-04-11T12:49:46.906Z</time></trkpt><trkpt lat="45.264931" lon="11.7456042"><ele>5.0</ele><time>2026-04-11T12:49:47.906Z</time></trkpt><trkpt lat="45.2648863" lon="11.7457881"><ele>5.0</ele><time>2026-04-11T12:49:48.906Z</time></trkpt><trkpt lat="45.2648385" lon="11.7459741"><ele>5.0</ele><time>2026-04-11T12:49:49.906Z</time></trkpt><trkpt lat="45.2647775" lon="11.7461588"><ele>5.0</ele><time>2026-04-11T12:49:50.906Z</time></trkpt><trkpt lat="45.2647015" lon="11.7463261"><ele>5.0</ele><time>2026-04-11T12:49:51.906Z</time></trkpt><trkpt lat="45.2646062" lon="11.7464806"><ele>5.666666666666667</ele><time>2026-04-11T12:49:52.906Z</time></trkpt><trkpt lat="45.2644743" lon="11.7466445"><ele>6.333333333333334</ele><time>2026-04-11T12:49:53.906Z</time></trkpt><trkpt lat="45.2643407" lon="11.7468092"><ele>7.0</ele><time>2026-04-11T12:49:54.906Z</time></trkpt><trkpt lat="45.2642018" lon="11.7469997"><ele>7.0</ele><time>2026-04-11T12:49:55.906Z</time></trkpt><trkpt lat="45.2640872" lon="11.747218"><ele>7.0</ele><time>2026-04-11T12:49:56.906Z</time></trkpt><trkpt lat="45.2639711" lon="11.7474496"><ele>7.0</ele><time>2026-04-11T12:49:57.906Z</time></trkpt><trkpt lat="45.2638778" lon="11.7476905"><ele>6.666666666666667</ele><time>2026-04-11T12:49:58.906Z</time></trkpt><trkpt lat="45.2637879" lon="11.7479384"><ele>6.333333333333334</ele><time>2026-04-11T12:49:59.906Z</time></trkpt><trkpt lat="45.2637002" lon="11.7481737"><ele>6.0</ele><time>2026-04-11T12:50:00.906Z</time></trkpt><trkpt lat="45.2636173" lon="11.748385"><ele>5.75</ele><time>2026-04-11T12:50:01.906Z</time></trkpt><trkpt lat="45.2635405" lon="11.748566"><ele>5.5</ele><time>2026-04-11T12:50:02.906Z</time></trkpt><trkpt lat="45.2634452" lon="11.7487301"><ele>5.25</ele><time>2026-04-11T12:50:03.906Z</time></trkpt><trkpt lat="45.2633472" lon="11.74886"><ele>5.0</ele><time>2026-04-11T12:50:04.906Z</time></trkpt><trkpt lat="45.2632329" lon="11.7489424"><ele>5.333333333333334</ele><time>2026-04-11T12:50:05.906Z</time></trkpt><trkpt lat="45.2631018" lon="11.7489855"><ele>5.666666666666667</ele><time>2026-04-11T12:50:06.906Z</time></trkpt><trkpt lat="45.2629546" lon="11.7489973"><ele>6.0</ele><time>2026-04-11T12:50:07.906Z</time></trkpt><trkpt lat="45.2627639" lon="11.7489891"><ele>6.0</ele><time>2026-04-11T12:50:08.906Z</time></trkpt><trkpt lat="45.2625306" lon="11.7489851"><ele>6.0</ele><time>2026-04-11T12:50:09.906Z</time></trkpt><trkpt lat="45.2622622" lon="11.748958"><ele>6.5</ele><time>2026-04-11T12:50:10.906Z</time></trkpt><trkpt lat="45.2619598" lon="11.7489015"><ele>7.0</ele><time>2026-04-11T12:50:11.906Z</time></trkpt><trkpt lat="45.2616612" lon="11.7488484"><ele>8.5</ele><time>2026-04-11T12:50:12.906Z</time></trkpt><trkpt lat="45.2613978" lon="11.7488196"><ele>10.0</ele><time>2026-04-11T12:50:13.906Z</time></trkpt><trkpt lat="45.2611758" lon="11.7487998"><ele>10.0</ele><time>2026-04-11T12:50:14.906Z</time></trkpt><trkpt lat="45.2609774" lon="11.7488093"><ele>10.0</ele><time>2026-04-11T12:50:15.906Z</time></trkpt><trkpt lat="45.2607841" lon="11.7488405"><ele>10.0</ele><time>2026-04-11T12:50:16.906Z</time></trkpt><trkpt lat="45.2606426" lon="11.7489302"><ele>11.0</ele><time>2026-04-11T12:50:17.906Z</time></trkpt><trkpt lat="45.2604806" lon="11.7490437"><ele>12.0</ele><time>2026-04-11T12:50:18.906Z</time></trkpt><trkpt lat="45.2602955" lon="11.7491705"><ele>13.0</ele><time>2026-04-11T12:50:19.905Z</time></trkpt><trkpt lat="45.2601151" lon="11.7493002"><ele>11.333333333333332</ele><time>2026-04-11T12:50:20.906Z</time></trkpt><trkpt lat="45.2599383" lon="11.7494335"><ele>9.666666666666666</ele><time>2026-04-11T12:50:21.906Z</time></trkpt><trkpt lat="45.2597851" lon="11.7495485"><ele>8.0</ele><time>2026-04-11T12:50:22.906Z</time></trkpt><trkpt lat="45.2596587" lon="11.7496534"><ele>8.0</ele><time>2026-04-11T12:50:23.906Z</time></trkpt><trkpt lat="45.2595506" lon="11.749729"><ele>8.0</ele><time>2026-04-11T12:50:24.906Z</time></trkpt><trkpt lat="45.2594318" lon="11.749775"><ele>8.0</ele><time>2026-04-11T12:50:25.906Z</time></trkpt><trkpt lat="45.2592693" lon="11.7497789"><ele>8.0</ele><time>2026-04-11T12:50:26.906Z</time></trkpt><trkpt lat="45.2590518" lon="11.7497645"><ele>9.0</ele><time>2026-04-11T12:50:27.906Z</time></trkpt><trkpt lat="45.2588088" lon="11.7497595"><ele>10.0</ele><time>2026-04-11T12:50:28.905Z</time></trkpt><trkpt lat="45.25859" lon="11.7497714"><ele>10.0</ele><time>2026-04-11T12:50:29.906Z</time></trkpt><trkpt lat="45.2583909" lon="11.7498029"><ele>10.0</ele><time>2026-04-11T12:50:30.906Z</time></trkpt><trkpt lat="45.2582129" lon="11.7498519"><ele>10.0</ele><time>2026-04-11T12:50:31.906Z</time></trkpt><trkpt lat="45.2580443" lon="11.7499222"><ele>10.666666666666668</ele><time>2026-04-11T12:50:32.906Z</time></trkpt><trkpt lat="45.2578845" lon="11.750001"><ele>11.333333333333334</ele><time>2026-04-11T12:50:33.906Z</time></trkpt><trkpt lat="45.2577269" lon="11.7500693"><ele>12.0</ele><time>2026-04-11T12:50:34.906Z</time></trkpt><trkpt lat="45.2575704" lon="11.7500904"><ele>12.0</ele><time>2026-04-11T12:50:35.906Z</time></trkpt><trkpt lat="45.2573888" lon="11.7500908"><ele>12.0</ele><time>2026-04-11T12:50:36.906Z</time></trkpt><trkpt lat="45.2572156" lon="11.750084"><ele>12.0</ele><time>2026-04-11T12:50:37.906Z</time></trkpt><trkpt lat="45.2570498" lon="11.7501007"><ele>13.333333333333332</ele><time>2026-04-11T12:50:38.906Z</time></trkpt><trkpt lat="45.2568899" lon="11.7501557"><ele>14.666666666666666</ele><time>2026-04-11T12:50:39.906Z</time></trkpt><trkpt lat="45.256719" lon="11.7502714"><ele>16.0</ele><time>2026-04-11T12:50:40.906Z</time></trkpt><trkpt lat="45.2565607" lon="11.7503956"><ele>14.5</ele><time>2026-04-11T12:50:41.906Z</time></trkpt><trkpt lat="45.2564204" lon="11.7504927"><ele>13.0</ele><time>2026-04-11T12:50:42.906Z</time></trkpt><trkpt lat="45.2562944" lon="11.7505425"><ele>11.5</ele><time>2026-04-11T12:50:43.906Z</time></trkpt><trkpt lat="45.2561643" lon="11.7505626"><ele>10.0</ele><time>2026-04-11T12:50:44.906Z</time></trkpt><trkpt lat="45.2559936" lon="11.7505605"><ele>10.0</ele><time>2026-04-11T12:50:45.906Z</time></trkpt><trkpt lat="45.2557794" lon="11.7505473"><ele>10.0</ele><time>2026-04-11T12:50:46.906Z</time></trkpt><trkpt lat="45.2555213" lon="11.7505491"><ele>11.5</ele><time>2026-04-11T12:50:47.906Z</time></trkpt><trkpt lat="45.255233" lon="11.7505563"><ele>13.0</ele><time>2026-04-11T12:50:48.906Z</time></trkpt><trkpt lat="45.2549287" lon="11.7505626"><ele>16.0</ele><time>2026-04-11T12:50:49.906Z</time></trkpt><trkpt lat="45.2546475" lon="11.7505616"><ele>19.0</ele><time>2026-04-11T12:50:50.906Z</time></trkpt><trkpt lat="45.2543647" lon="11.7505668"><ele>19.0</ele><time>2026-04-11T12:50:51.906Z</time></trkpt><trkpt lat="45.2541116" lon="11.7505246"><ele>19.0</ele><time>2026-04-11T12:50:52.906Z</time></trkpt><trkpt lat="45.2538283" lon="11.7504992"><ele>21.0</ele><time>2026-04-11T12:50:53.906Z</time></trkpt><trkpt lat="45.2535378" lon="11.7504722"><ele>23.0</ele><time>2026-04-11T12:50:54.906Z</time></trkpt><trkpt lat="45.2532775" lon="11.7504291"><ele>20.0</ele><time>2026-04-11T12:50:55.906Z</time></trkpt><trkpt lat="45.2530308" lon="11.7503745"><ele>17.0</ele><time>2026-04-11T12:50:56.906Z</time></trkpt><trkpt lat="45.2528081" lon="11.7502907"><ele>18.333333333333336</ele><time>2026-04-11T12:50:57.906Z</time></trkpt><trkpt lat="45.2526061" lon="11.7501846"><ele>19.666666666666668</ele><time>2026-04-11T12:50:58.906Z</time></trkpt><trkpt lat="45.2524038" lon="11.7500852"><ele>21.0</ele><time>2026-04-11T12:50:59.905Z</time></trkpt><trkpt lat="45.2522558" lon="11.7500196"><ele>21.0</ele><time>2026-04-11T12:51:00.906Z</time></trkpt><trkpt lat="45.2520913" lon="11.7500062"><ele>21.0</ele><time>2026-04-11T12:51:01.906Z</time></trkpt><trkpt lat="45.2519441" lon="11.7499985"><ele>21.0</ele><time>2026-04-11T12:51:02.906Z</time></trkpt><trkpt lat="45.251798" lon="11.7499979"><ele>21.0</ele><time>2026-04-11T12:51:03.906Z</time></trkpt><trkpt lat="45.251659" lon="11.7500155"><ele>21.0</ele><time>2026-04-11T12:51:04.906Z</time></trkpt><trkpt lat="45.2515271" lon="11.7500326"><ele>21.0</ele><time>2026-04-11T12:51:05.906Z</time></trkpt><trkpt lat="45.2514121" lon="11.7500443"><ele>21.0</ele><time>2026-04-11T12:51:06.906Z</time></trkpt><trkpt lat="45.2513006" lon="11.7500569"><ele>20.5</ele><time>2026-04-11T12:51:07.906Z</time></trkpt><trkpt lat="45.2512035" lon="11.750052"><ele>20.0</ele><time>2026-04-11T12:51:08.906Z</time></trkpt><trkpt lat="45.2511075" lon="11.7500614"><ele>19.5</ele><time>2026-04-11T12:51:09.906Z</time></trkpt><trkpt lat="45.251032" lon="11.7500658"><ele>19.0</ele><time>2026-04-11T12:51:10.906Z</time></trkpt><trkpt lat="45.2509518" lon="11.7500731"><ele>18.5</ele><time>2026-04-11T12:51:11.906Z</time></trkpt><trkpt lat="45.2508782" lon="11.7500781"><ele>18.0</ele><time>2026-04-11T12:51:12.905Z</time></trkpt><trkpt lat="45.2507918" lon="11.7500819"><ele>18.0</ele><time>2026-04-11T12:51:13.906Z</time></trkpt><trkpt lat="45.2506928" lon="11.7500761"><ele>18.0</ele><time>2026-04-11T12:51:14.905Z</time></trkpt><trkpt lat="45.2505633" lon="11.7500527"><ele>18.0</ele><time>2026-04-11T12:51:15.906Z</time></trkpt><trkpt lat="45.2503995" lon="11.7500183"><ele>18.0</ele><time>2026-04-11T12:51:16.906Z</time></trkpt><trkpt lat="45.2502316" lon="11.749972"><ele>17.0</ele><time>2026-04-11T12:51:17.906Z</time></trkpt><trkpt lat="45.2500679" lon="11.7499466"><ele>16.0</ele><time>2026-04-11T12:51:18.906Z</time></trkpt><trkpt lat="45.2499192" lon="11.749915"><ele>15.0</ele><time>2026-04-11T12:51:19.906Z</time></trkpt><trkpt lat="45.2497888" lon="11.749848"><ele>13.0</ele><time>2026-04-11T12:51:20.906Z</time></trkpt><trkpt lat="45.2496481" lon="11.7497808"><ele>11.0</ele><time>2026-04-11T12:51:21.906Z</time></trkpt><trkpt lat="45.2494897" lon="11.7496713"><ele>9.0</ele><time>2026-04-11T12:51:22.906Z</time></trkpt><trkpt lat="45.2492932" lon="11.7495314"><ele>9.0</ele><time>2026-04-11T12:51:23.906Z</time></trkpt><trkpt lat="45.2490961" lon="11.7493797"><ele>9.0</ele><time>2026-04-11T12:51:24.906Z</time></trkpt><trkpt lat="45.2489221" lon="11.7492608"><ele>9.0</ele><time>2026-04-11T12:51:25.906Z</time></trkpt><trkpt lat="45.2487749" lon="11.7491387"><ele>9.333333333333334</ele><time>2026-04-11T12:51:26.906Z</time></trkpt><trkpt lat="45.2486492" lon="11.7489734"><ele>9.666666666666668</ele><time>2026-04-11T12:51:27.906Z</time></trkpt><trkpt lat="45.2485301" lon="11.7487838"><ele>10.0</ele><time>2026-04-11T12:51:28.906Z</time></trkpt><trkpt lat="45.2484056" lon="11.7486242"><ele>11.0</ele><time>2026-04-11T12:51:29.906Z</time></trkpt><trkpt lat="45.2482985" lon="11.748489"><ele>12.0</ele><time>2026-04-11T12:51:30.906Z</time></trkpt><trkpt lat="45.2481927" lon="11.7483785"><ele>13.0</ele><time>2026-04-11T12:51:31.906Z</time></trkpt><trkpt lat="45.2480876" lon="11.7482865"><ele>14.0</ele><time>2026-04-11T12:51:32.905Z</time></trkpt><trkpt lat="45.2479704" lon="11.7481973"><ele>14.0</ele><time>2026-04-11T12:51:33.906Z</time></trkpt><trkpt lat="45.2478337" lon="11.748148"><ele>14.0</ele><time>2026-04-11T12:51:34.906Z</time></trkpt><trkpt lat="45.2476932" lon="11.748111"><ele>14.0</ele><time>2026-04-11T12:51:35.906Z</time></trkpt><trkpt lat="45.2475428" lon="11.7480926"><ele>14.0</ele><time>2026-04-11T12:51:36.906Z</time></trkpt><trkpt lat="45.2473843" lon="11.7480806"><ele>13.0</ele><time>2026-04-11T12:51:37.906Z</time></trkpt><trkpt lat="45.247232" lon="11.7480354"><ele>12.0</ele><time>2026-04-11T12:51:38.906Z</time></trkpt><trkpt lat="45.2470814" lon="11.7479756"><ele>11.0</ele><time>2026-04-11T12:51:39.906Z</time></trkpt><trkpt lat="45.2469112" lon="11.7478824"><ele>11.0</ele><time>2026-04-11T12:51:40.906Z</time></trkpt><trkpt lat="45.2467288" lon="11.7477775"><ele>11.0</ele><time>2026-04-11T12:51:41.906Z</time></trkpt><trkpt lat="45.2465365" lon="11.7476508"><ele>11.0</ele><time>2026-04-11T12:51:42.906Z</time></trkpt><trkpt lat="45.2463259" lon="11.747534"><ele>12.666666666666666</ele><time>2026-04-11T12:51:43.906Z</time></trkpt><trkpt lat="45.2461207" lon="11.747437"><ele>14.333333333333332</ele><time>2026-04-11T12:51:44.906Z</time></trkpt><trkpt lat="45.2459231" lon="11.7473414"><ele>16.0</ele><time>2026-04-11T12:51:45.906Z</time></trkpt><trkpt lat="45.2457368" lon="11.7472554"><ele>14.666666666666666</ele><time>2026-04-11T12:51:46.906Z</time></trkpt><trkpt lat="45.2455666" lon="11.7471667"><ele>13.333333333333332</ele><time>2026-04-11T12:51:47.906Z</time></trkpt><trkpt lat="45.2454123" lon="11.7470758"><ele>12.0</ele><time>2026-04-11T12:51:48.906Z</time></trkpt><trkpt lat="45.2452718" lon="11.7469938"><ele>12.0</ele><time>2026-04-11T12:51:49.906Z</time></trkpt><trkpt lat="45.2451276" lon="11.746902"><ele>12.0</ele><time>2026-04-11T12:51:50.906Z</time></trkpt><trkpt lat="45.2450418" lon="11.7468386"><ele>12.0</ele><time>2026-04-11T12:51:51.906Z</time></trkpt><trkpt lat="45.2449544" lon="11.7467661"><ele>12.0</ele><time>2026-04-11T12:51:52.906Z</time></trkpt><trkpt lat="45.2448882" lon="11.7466849"><ele>12.0</ele><time>2026-04-11T12:51:53.906Z</time></trkpt><trkpt lat="45.2448372" lon="11.7466062"><ele>11.6</ele><time>2026-04-11T12:51:54.906Z</time></trkpt><trkpt lat="45.2447784" lon="11.7465476"><ele>11.2</ele><time>2026-04-11T12:51:55.906Z</time></trkpt><trkpt lat="45.2446993" lon="11.7465129"><ele>10.8</ele><time>2026-04-11T12:51:56.906Z</time></trkpt><trkpt lat="45.244617" lon="11.746461"><ele>10.4</ele><time>2026-04-11T12:51:57.906Z</time></trkpt><trkpt lat="45.2445257" lon="11.7463761"><ele>10.0</ele><time>2026-04-11T12:51:58.905Z</time></trkpt><trkpt lat="45.2444213" lon="11.7462779"><ele>10.0</ele><time>2026-04-11T12:51:59.906Z</time></trkpt><trkpt lat="45.2442912" lon="11.7461317"><ele>10.0</ele><time>2026-04-11T12:52:00.906Z</time></trkpt><trkpt lat="45.244149" lon="11.7459805"><ele>10.0</ele><time>2026-04-11T12:52:01.906Z</time></trkpt><trkpt lat="45.2439675" lon="11.7458158"><ele>10.0</ele><time>2026-04-11T12:52:02.906Z</time></trkpt><trkpt lat="45.2437755" lon="11.7456217"><ele>10.0</ele><time>2026-04-11T12:52:03.906Z</time></trkpt><trkpt lat="45.2436172" lon="11.745446"><ele>10.0</ele><time>2026-04-11T12:52:04.905Z</time></trkpt><trkpt lat="45.2434788" lon="11.7453035"><ele>10.0</ele><time>2026-04-11T12:52:05.906Z</time></trkpt><trkpt lat="45.2433604" lon="11.7451852"><ele>10.0</ele><time>2026-04-11T12:52:06.906Z</time></trkpt><trkpt lat="45.2432628" lon="11.7450979"><ele>10.0</ele><time>2026-04-11T12:52:07.906Z</time></trkpt><trkpt lat="45.2431873" lon="11.7450393"><ele>10.0</ele><time>2026-04-11T12:52:08.906Z</time></trkpt><trkpt lat="45.2431201" lon="11.744984"><ele>10.0</ele><time>2026-04-11T12:52:10.906Z</time></trkpt><trkpt lat="45.2430648" lon="11.7448944"><ele>9.833333333333334</ele><time>2026-04-11T12:52:12.905Z</time></trkpt><trkpt lat="45.242977" lon="11.7448646"><ele>9.666666666666668</ele><time>2026-04-11T12:52:14.906Z</time></trkpt><trkpt lat="45.2429224" lon="11.7449323"><ele>9.5</ele><time>2026-04-11T12:52:16.906Z</time></trkpt><trkpt lat="45.2428914" lon="11.745023"><ele>9.333333333333334</ele><time>2026-04-11T12:52:17.906Z</time></trkpt><trkpt lat="45.2428501" lon="11.7451331"><ele>9.166666666666666</ele><time>2026-04-11T12:52:18.906Z</time></trkpt><trkpt lat="45.2427908" lon="11.7452638"><ele>9.0</ele><time>2026-04-11T12:52:19.906Z</time></trkpt><trkpt lat="45.242756" lon="11.7453991"><ele>9.0</ele><time>2026-04-11T12:52:20.906Z</time></trkpt><trkpt lat="45.2427116" lon="11.7455191"><ele>9.0</ele><time>2026-04-11T12:52:21.906Z</time></trkpt><trkpt lat="45.2426654" lon="11.745656"><ele>9.0</ele><time>2026-04-11T12:52:22.906Z</time></trkpt><trkpt lat="45.2426356" lon="11.7458356"><ele>9.0</ele><time>2026-04-11T12:52:23.906Z</time></trkpt><trkpt lat="45.2426102" lon="11.7459967"><ele>9.0</ele><time>2026-04-11T12:52:24.906Z</time></trkpt><trkpt lat="45.2425744" lon="11.746142"><ele>9.0</ele><time>2026-04-11T12:52:25.906Z</time></trkpt><trkpt lat="45.2425539" lon="11.7462435"><ele>9.0</ele><time>2026-04-11T12:52:26.906Z</time></trkpt><trkpt lat="45.2425173" lon="11.7463916"><ele>9.0</ele><time>2026-04-11T12:52:28.906Z</time></trkpt><trkpt lat="45.2424869" lon="11.7465112"><ele>9.0</ele><time>2026-04-11T12:52:30.906Z</time></trkpt><trkpt lat="45.2424001" lon="11.7466147"><ele>9.0</ele><time>2026-04-11T12:52:32.906Z</time></trkpt><trkpt lat="45.2422722" lon="11.7466071"><ele>9.0</ele><time>2026-04-11T12:52:34.906Z</time></trkpt><trkpt lat="45.2421967" lon="11.7465805"><ele>9.0</ele><time>2026-04-11T12:52:35.906Z</time></trkpt><trkpt lat="45.2421184" lon="11.7465432"><ele>9.0</ele><time>2026-04-11T12:52:36.906Z</time></trkpt><trkpt lat="45.2420489" lon="11.7465244"><ele>9.0</ele><time>2026-04-11T12:52:37.906Z</time></trkpt><trkpt lat="45.2419543" lon="11.7464809"><ele>9.0</ele><time>2026-04-11T12:52:38.906Z</time></trkpt><trkpt lat="45.2418604" lon="11.7464419"><ele>9.0</ele><time>2026-04-11T12:52:39.906Z</time></trkpt><trkpt lat="45.2417679" lon="11.7464043"><ele>9.0</ele><time>2026-04-11T12:52:40.906Z</time></trkpt><trkpt lat="45.2416733" lon="11.7463626"><ele>9.0</ele><time>2026-04-11T12:52:41.906Z</time></trkpt><trkpt lat="45.2415734" lon="11.7463195"><ele>9.0</ele><time>2026-04-11T12:52:42.906Z</time></trkpt><trkpt lat="45.241467" lon="11.746282"><ele>9.0</ele><time>2026-04-11T12:52:43.906Z</time></trkpt><trkpt lat="45.2413591" lon="11.7462472"><ele>9.0</ele><time>2026-04-11T12:52:44.906Z</time></trkpt><trkpt lat="45.2412477" lon="11.7462083"><ele>9.0</ele><time>2026-04-11T12:52:45.906Z</time></trkpt><trkpt lat="45.2411417" lon="11.7461615"><ele>9.0</ele><time>2026-04-11T12:52:46.906Z</time></trkpt><trkpt lat="45.2410206" lon="11.7461102"><ele>9.0</ele><time>2026-04-11T12:52:47.906Z</time></trkpt><trkpt lat="45.2409149" lon="11.7460553"><ele>9.0</ele><time>2026-04-11T12:52:48.906Z</time></trkpt><trkpt lat="45.2408224" lon="11.7460229"><ele>9.0</ele><time>2026-04-11T12:52:49.906Z</time></trkpt><trkpt lat="45.2407432" lon="11.7460147"><ele>9.0</ele><time>2026-04-11T12:52:50.906Z</time></trkpt><trkpt lat="45.2406743" lon="11.7460398"><ele>9.0</ele><time>2026-04-11T12:52:51.906Z</time></trkpt><trkpt lat="45.2406064" lon="11.7460793"><ele>9.0</ele><time>2026-04-11T12:52:52.906Z</time></trkpt><trkpt lat="45.2405419" lon="11.7461985"><ele>9.0</ele><time>2026-04-11T12:52:53.906Z</time></trkpt><trkpt lat="45.2404923" lon="11.7463218"><ele>9.0</ele><time>2026-04-11T12:52:54.906Z</time></trkpt><trkpt lat="45.2404253" lon="11.7464876"><ele>9.333333333333334</ele><time>2026-04-11T12:52:55.906Z</time></trkpt><trkpt lat="45.2403529" lon="11.7466602"><ele>9.666666666666668</ele><time>2026-04-11T12:52:56.906Z</time></trkpt><trkpt lat="45.2402798" lon="11.7468569"><ele>10.0</ele><time>2026-04-11T12:52:57.906Z</time></trkpt><trkpt lat="45.2402028" lon="11.7470499"><ele>10.333333333333334</ele><time>2026-04-11T12:52:58.906Z</time></trkpt><trkpt lat="45.2401275" lon="11.7472418"><ele>10.666666666666666</ele><time>2026-04-11T12:52:59.906Z</time></trkpt><trkpt lat="45.2400467" lon="11.7474454"><ele>11.0</ele><time>2026-04-11T12:53:00.906Z</time></trkpt><trkpt lat="45.2399776" lon="11.7476433"><ele>11.4</ele><time>2026-04-11T12:53:01.906Z</time></trkpt><trkpt lat="45.2399209" lon="11.7478154"><ele>11.8</ele><time>2026-04-11T12:53:02.906Z</time></trkpt><trkpt lat="45.2398709" lon="11.7479592"><ele>12.200000000000001</ele><time>2026-04-11T12:53:03.906Z</time></trkpt><trkpt lat="45.2398294" lon="11.7480689"><ele>12.600000000000001</ele><time>2026-04-11T12:53:04.906Z</time></trkpt><trkpt lat="45.2397976" lon="11.7481632"><ele>13.0</ele><time>2026-04-11T12:53:05.906Z</time></trkpt><trkpt lat="45.2397557" lon="11.748259"><ele>13.0</ele><time>2026-04-11T12:53:06.906Z</time></trkpt><trkpt lat="45.2397007" lon="11.7483859"><ele>13.0</ele><time>2026-04-11T12:53:07.906Z</time></trkpt><trkpt lat="45.2396264" lon="11.7485615"><ele>13.0</ele><time>2026-04-11T12:53:08.906Z</time></trkpt><trkpt lat="45.2395483" lon="11.7487431"><ele>13.0</ele><time>2026-04-11T12:53:09.906Z</time></trkpt><trkpt lat="45.2394734" lon="11.7489131"><ele>13.0</ele><time>2026-04-11T12:53:10.906Z</time></trkpt><trkpt lat="45.2394109" lon="11.7490703"><ele>13.0</ele><time>2026-04-11T12:53:11.905Z</time></trkpt><trkpt lat="45.2393481" lon="11.7492141"><ele>13.0</ele><time>2026-04-11T12:53:12.906Z</time></trkpt><trkpt lat="45.2392897" lon="11.749344"><ele>13.0</ele><time>2026-04-11T12:53:13.906Z</time></trkpt><trkpt lat="45.2392364" lon="11.7494728"><ele>12.999999999999998</ele><time>2026-04-11T12:53:14.906Z</time></trkpt><trkpt lat="45.2391977" lon="11.7495702"><ele>13.0</ele><time>2026-04-11T12:53:15.906Z</time></trkpt><trkpt lat="45.2391451" lon="11.7496864"><ele>13.0</ele><time>2026-04-11T12:53:17.906Z</time></trkpt><trkpt lat="45.2390735" lon="11.7497276"><ele>13.0</ele><time>2026-04-11T12:53:23.906Z</time></trkpt><trkpt lat="45.2389818" lon="11.749802"><ele>12.999999999999998</ele><time>2026-04-11T12:53:25.906Z</time></trkpt><trkpt lat="45.2389486" lon="11.7498799"><ele>13.0</ele><time>2026-04-11T12:53:26.905Z</time></trkpt><trkpt lat="45.2389311" lon="11.7499846"><ele>12.999999999999998</ele><time>2026-04-11T12:53:27.906Z</time></trkpt><trkpt lat="45.2389123" lon="11.7500936"><ele>13.0</ele><time>2026-04-11T12:53:28.906Z</time></trkpt><trkpt lat="45.2388895" lon="11.7501926"><ele>13.0</ele><time>2026-04-11T12:53:29.906Z</time></trkpt><trkpt lat="45.2388665" lon="11.7502995"><ele>13.0</ele><time>2026-04-11T12:53:30.906Z</time></trkpt><trkpt lat="45.2388389" lon="11.7504001"><ele>12.999999999999998</ele><time>2026-04-11T12:53:31.906Z</time></trkpt><trkpt lat="45.2388125" lon="11.7505011"><ele>13.0</ele><time>2026-04-11T12:53:32.906Z</time></trkpt><trkpt lat="45.2387853" lon="11.7505963"><ele>13.0</ele><time>2026-04-11T12:53:33.906Z</time></trkpt><trkpt lat="45.2387603" lon="11.7506908"><ele>13.0</ele><time>2026-04-11T12:53:34.906Z</time></trkpt><trkpt lat="45.238735" lon="11.7507897"><ele>13.0</ele><time>2026-04-11T12:53:35.906Z</time></trkpt><trkpt lat="45.2387088" lon="11.7508826"><ele>13.0</ele><time>2026-04-11T12:53:36.905Z</time></trkpt><trkpt lat="45.2386843" lon="11.7509765"><ele>13.0</ele><time>2026-04-11T12:53:37.906Z</time></trkpt><trkpt lat="45.2386592" lon="11.7510746"><ele>13.0</ele><time>2026-04-11T12:53:38.906Z</time></trkpt><trkpt lat="45.2386268" lon="11.751163"><ele>13.0</ele><time>2026-04-11T12:53:39.906Z</time></trkpt><trkpt lat="45.2385989" lon="11.7512589"><ele>12.833333333333332</ele><time>2026-04-11T12:53:40.906Z</time></trkpt><trkpt lat="45.2385664" lon="11.7513515"><ele>12.666666666666666</ele><time>2026-04-11T12:53:41.906Z</time></trkpt><trkpt lat="45.2385349" lon="11.7514445"><ele>12.5</ele><time>2026-04-11T12:53:42.906Z</time></trkpt><trkpt lat="45.238509" lon="11.751541"><ele>12.333333333333332</ele><time>2026-04-11T12:53:43.906Z</time></trkpt><trkpt lat="45.2384823" lon="11.751638"><ele>12.166666666666666</ele><time>2026-04-11T12:53:44.906Z</time></trkpt><trkpt lat="45.2384541" lon="11.7517459"><ele>12.0</ele><time>2026-04-11T12:53:45.906Z</time></trkpt><trkpt lat="45.2384288" lon="11.7518627"><ele>12.166666666666666</ele><time>2026-04-11T12:53:46.905Z</time></trkpt><trkpt lat="45.238396" lon="11.7519731"><ele>12.333333333333332</ele><time>2026-04-11T12:53:47.906Z</time></trkpt><trkpt lat="45.2383606" lon="11.7520921"><ele>12.5</ele><time>2026-04-11T12:53:48.906Z</time></trkpt><trkpt lat="45.2383304" lon="11.7522129"><ele>12.666666666666666</ele><time>2026-04-11T12:53:49.906Z</time></trkpt><trkpt lat="45.2382963" lon="11.7523343"><ele>12.833333333333332</ele><time>2026-04-11T12:53:50.906Z</time></trkpt><trkpt lat="45.2382663" lon="11.7524559"><ele>13.0</ele><time>2026-04-11T12:53:51.906Z</time></trkpt><trkpt lat="45.2382348" lon="11.7525756"><ele>12.999999999999998</ele><time>2026-04-11T12:53:52.906Z</time></trkpt><trkpt lat="45.2382003" lon="11.7526968"><ele>13.0</ele><time>2026-04-11T12:53:53.906Z</time></trkpt><trkpt lat="45.2381654" lon="11.7528098"><ele>13.0</ele><time>2026-04-11T12:53:54.906Z</time></trkpt><trkpt lat="45.2381312" lon="11.7529207"><ele>13.0</ele><time>2026-04-11T12:53:55.906Z</time></trkpt><trkpt lat="45.2381016" lon="11.7530185"><ele>12.999999999999998</ele><time>2026-04-11T12:53:56.906Z</time></trkpt><trkpt lat="45.2380802" lon="11.7531103"><ele>13.0</ele><time>2026-04-11T12:53:57.906Z</time></trkpt><trkpt lat="45.2380544" lon="11.7532099"><ele>12.600000000000001</ele><time>2026-04-11T12:53:58.906Z</time></trkpt><trkpt lat="45.2380305" lon="11.753315"><ele>12.200000000000001</ele><time>2026-04-11T12:53:59.906Z</time></trkpt><trkpt lat="45.2379903" lon="11.7534309"><ele>11.8</ele><time>2026-04-11T12:54:00.906Z</time></trkpt><trkpt lat="45.2379546" lon="11.7535581"><ele>11.4</ele><time>2026-04-11T12:54:01.906Z</time></trkpt><trkpt lat="45.2379155" lon="11.7536937"><ele>11.0</ele><time>2026-04-11T12:54:02.906Z</time></trkpt><trkpt lat="45.2378765" lon="11.7538347"><ele>11.0</ele><time>2026-04-11T12:54:03.906Z</time></trkpt><trkpt lat="45.237833" lon="11.7539827"><ele>11.0</ele><time>2026-04-11T12:54:04.906Z</time></trkpt><trkpt lat="45.2377908" lon="11.7541414"><ele>11.0</ele><time>2026-04-11T12:54:05.906Z</time></trkpt><trkpt lat="45.2377307" lon="11.7542805"><ele>11.0</ele><time>2026-04-11T12:54:06.906Z</time></trkpt><trkpt lat="45.2376689" lon="11.7544035"><ele>11.0</ele><time>2026-04-11T12:54:07.906Z</time></trkpt><trkpt lat="45.2375772" lon="11.7545142"><ele>11.0</ele><time>2026-04-11T12:54:08.906Z</time></trkpt><trkpt lat="45.237476" lon="11.7546007"><ele>11.0</ele><time>2026-04-11T12:54:09.906Z</time></trkpt><trkpt lat="45.2373671" lon="11.754664"><ele>11.0</ele><time>2026-04-11T12:54:10.906Z</time></trkpt><trkpt lat="45.23727" lon="11.7547071"><ele>10.600000000000001</ele><time>2026-04-11T12:54:11.906Z</time></trkpt><trkpt lat="45.2371734" lon="11.7547281"><ele>10.200000000000001</ele><time>2026-04-11T12:54:12.906Z</time></trkpt><trkpt lat="45.2370766" lon="11.7547343"><ele>9.8</ele><time>2026-04-11T12:54:13.906Z</time></trkpt><trkpt lat="45.2369688" lon="11.7547327"><ele>9.4</ele><time>2026-04-11T12:54:14.906Z</time></trkpt><trkpt lat="45.2368493" lon="11.7547397"><ele>9.0</ele><time>2026-04-11T12:54:15.906Z</time></trkpt><trkpt lat="45.2367236" lon="11.7547449"><ele>9.0</ele><time>2026-04-11T12:54:16.905Z</time></trkpt><trkpt lat="45.236591" lon="11.7547479"><ele>9.0</ele><time>2026-04-11T12:54:17.906Z</time></trkpt><trkpt lat="45.2364585" lon="11.754751"><ele>9.0</ele><time>2026-04-11T12:54:18.906Z</time></trkpt><trkpt lat="45.2363171" lon="11.7547604"><ele>9.0</ele><time>2026-04-11T12:54:19.906Z</time></trkpt><trkpt lat="45.236193" lon="11.7547638"><ele>9.0</ele><time>2026-04-11T12:54:20.906Z</time></trkpt><trkpt lat="45.2360821" lon="11.754767"><ele>9.0</ele><time>2026-04-11T12:54:21.906Z</time></trkpt><trkpt lat="45.2359867" lon="11.7547669"><ele>9.0</ele><time>2026-04-11T12:54:22.906Z</time></trkpt><trkpt lat="45.2358915" lon="11.7547744"><ele>9.0</ele><time>2026-04-11T12:54:23.906Z</time></trkpt><trkpt lat="45.2357844" lon="11.7547811"><ele>9.0</ele><time>2026-04-11T12:54:24.906Z</time></trkpt><trkpt lat="45.235668" lon="11.7547839"><ele>9.25</ele><time>2026-04-11T12:54:25.906Z</time></trkpt><trkpt lat="45.2355463" lon="11.7547862"><ele>9.5</ele><time>2026-04-11T12:54:26.905Z</time></trkpt><trkpt lat="45.2354211" lon="11.7547888"><ele>9.75</ele><time>2026-04-11T12:54:27.906Z</time></trkpt><trkpt lat="45.2352872" lon="11.7547836"><ele>10.0</ele><time>2026-04-11T12:54:28.906Z</time></trkpt><trkpt lat="45.235151" lon="11.7547901"><ele>10.0</ele><time>2026-04-11T12:54:29.906Z</time></trkpt><trkpt lat="45.2350144" lon="11.7547947"><ele>10.0</ele><time>2026-04-11T12:54:30.905Z</time></trkpt><trkpt lat="45.2348768" lon="11.754799"><ele>10.0</ele><time>2026-04-11T12:54:31.906Z</time></trkpt><trkpt lat="45.234736" lon="11.7547994"><ele>10.0</ele><time>2026-04-11T12:54:32.906Z</time></trkpt><trkpt lat="45.234601" lon="11.7547996"><ele>10.0</ele><time>2026-04-11T12:54:33.906Z</time></trkpt><trkpt lat="45.2344654" lon="11.754797"><ele>10.0</ele><time>2026-04-11T12:54:34.906Z</time></trkpt><trkpt lat="45.2343258" lon="11.7548034"><ele>10.0</ele><time>2026-04-11T12:54:35.906Z</time></trkpt><trkpt lat="45.2341895" lon="11.7548092"><ele>10.0</ele><time>2026-04-11T12:54:36.906Z</time></trkpt><trkpt lat="45.2340514" lon="11.7548107"><ele>9.75</ele><time>2026-04-11T12:54:37.906Z</time></trkpt><trkpt lat="45.233914" lon="11.7548107"><ele>9.5</ele><time>2026-04-11T12:54:38.906Z</time></trkpt><trkpt lat="45.2337815" lon="11.7548105"><ele>9.25</ele><time>2026-04-11T12:54:39.906Z</time></trkpt><trkpt lat="45.23366" lon="11.7548139"><ele>9.0</ele><time>2026-04-11T12:54:40.906Z</time></trkpt><trkpt lat="45.2335549" lon="11.7548144"><ele>9.0</ele><time>2026-04-11T12:54:41.906Z</time></trkpt><trkpt lat="45.2334585" lon="11.7548189"><ele>9.0</ele><time>2026-04-11T12:54:42.906Z</time></trkpt><trkpt lat="45.2333572" lon="11.7548222"><ele>9.0</ele><time>2026-04-11T12:54:43.906Z</time></trkpt><trkpt lat="45.2332525" lon="11.7548295"><ele>9.0</ele><time>2026-04-11T12:54:44.906Z</time></trkpt><trkpt lat="45.2331388" lon="11.7548328"><ele>9.0</ele><time>2026-04-11T12:54:45.906Z</time></trkpt><trkpt lat="45.2330194" lon="11.7548326"><ele>8.75</ele><time>2026-04-11T12:54:46.906Z</time></trkpt><trkpt lat="45.2328938" lon="11.7548275"><ele>8.5</ele><time>2026-04-11T12:54:47.905Z</time></trkpt><trkpt lat="45.2327604" lon="11.7548364"><ele>8.25</ele><time>2026-04-11T12:54:48.906Z</time></trkpt><trkpt lat="45.2326382" lon="11.7548423"><ele>8.0</ele><time>2026-04-11T12:54:49.906Z</time></trkpt><trkpt lat="45.232531" lon="11.7548502"><ele>7.999999999999999</ele><time>2026-04-11T12:54:50.905Z</time></trkpt><trkpt lat="45.2324304" lon="11.7548555"><ele>8.0</ele><time>2026-04-11T12:54:51.906Z</time></trkpt><trkpt lat="45.2323413" lon="11.7548521"><ele>8.0</ele><time>2026-04-11T12:54:52.906Z</time></trkpt><trkpt lat="45.2322698" lon="11.7548412"><ele>8.0</ele><time>2026-04-11T12:54:53.906Z</time></trkpt><trkpt lat="45.2322051" lon="11.7548205"><ele>7.999999999999999</ele><time>2026-04-11T12:54:54.906Z</time></trkpt><trkpt lat="45.2320955" lon="11.7547478"><ele>8.0</ele><time>2026-04-11T12:54:56.906Z</time></trkpt><trkpt lat="45.2320327" lon="11.7546865"><ele>7.833333333333333</ele><time>2026-04-11T12:54:57.906Z</time></trkpt><trkpt lat="45.2319599" lon="11.7546394"><ele>7.666666666666666</ele><time>2026-04-11T12:54:58.906Z</time></trkpt><trkpt lat="45.2318757" lon="11.7546118"><ele>7.5</ele><time>2026-04-11T12:54:59.906Z</time></trkpt><trkpt lat="45.2317916" lon="11.7546185"><ele>7.333333333333334</ele><time>2026-04-11T12:55:00.906Z</time></trkpt><trkpt lat="45.2317021" lon="11.7546658"><ele>7.166666666666667</ele><time>2026-04-11T12:55:01.906Z</time></trkpt><trkpt lat="45.2316177" lon="11.7547313"><ele>7.0</ele><time>2026-04-11T12:55:02.906Z</time></trkpt><trkpt lat="45.2315256" lon="11.7548051"><ele>6.75</ele><time>2026-04-11T12:55:03.906Z</time></trkpt><trkpt lat="45.2314205" lon="11.7548517"><ele>6.5</ele><time>2026-04-11T12:55:04.906Z</time></trkpt><trkpt lat="45.2312985" lon="11.7548646"><ele>6.25</ele><time>2026-04-11T12:55:05.906Z</time></trkpt><trkpt lat="45.2311668" lon="11.7548651"><ele>6.0</ele><time>2026-04-11T12:55:06.906Z</time></trkpt><trkpt lat="45.2310332" lon="11.7548646"><ele>6.0</ele><time>2026-04-11T12:55:07.906Z</time></trkpt><trkpt lat="45.2308997" lon="11.7548699"><ele>6.0</ele><time>2026-04-11T12:55:08.906Z</time></trkpt><trkpt lat="45.2307632" lon="11.7548792"><ele>6.0</ele><time>2026-04-11T12:55:09.906Z</time></trkpt><trkpt lat="45.2306222" lon="11.7548834"><ele>6.0</ele><time>2026-04-11T12:55:10.906Z</time></trkpt><trkpt lat="45.2304858" lon="11.7548845"><ele>6.75</ele><time>2026-04-11T12:55:11.906Z</time></trkpt><trkpt lat="45.230344" lon="11.7548891"><ele>7.5</ele><time>2026-04-11T12:55:12.906Z</time></trkpt><trkpt lat="45.2302014" lon="11.7548894"><ele>8.25</ele><time>2026-04-11T12:55:13.906Z</time></trkpt><trkpt lat="45.2300477" lon="11.7548892"><ele>9.0</ele><time>2026-04-11T12:55:14.906Z</time></trkpt><trkpt lat="45.2298998" lon="11.7548908"><ele>9.333333333333334</ele><time>2026-04-11T12:55:15.905Z</time></trkpt><trkpt lat="45.2297509" lon="11.7548994"><ele>9.666666666666668</ele><time>2026-04-11T12:55:16.906Z</time></trkpt><trkpt lat="45.2295979" lon="11.7549072"><ele>10.0</ele><time>2026-04-11T12:55:17.906Z</time></trkpt><trkpt lat="45.2294382" lon="11.7549058"><ele>10.0</ele><time>2026-04-11T12:55:18.906Z</time></trkpt><trkpt lat="45.2292774" lon="11.7549065"><ele>10.0</ele><time>2026-04-11T12:55:19.905Z</time></trkpt><trkpt lat="45.2291144" lon="11.7549045"><ele>10.0</ele><time>2026-04-11T12:55:20.906Z</time></trkpt><trkpt lat="45.2289468" lon="11.7549083"><ele>10.0</ele><time>2026-04-11T12:55:21.905Z</time></trkpt><trkpt lat="45.2287798" lon="11.7549191"><ele>10.0</ele><time>2026-04-11T12:55:22.906Z</time></trkpt><trkpt lat="45.2286218" lon="11.7549184"><ele>10.0</ele><time>2026-04-11T12:55:23.906Z</time></trkpt><trkpt lat="45.228435" lon="11.7549208"><ele>10.0</ele><time>2026-04-11T12:55:24.906Z</time></trkpt><trkpt lat="45.2282583" lon="11.7549256"><ele>10.0</ele><time>2026-04-11T12:55:25.905Z</time></trkpt><trkpt lat="45.2280852" lon="11.7549341"><ele>10.0</ele><time>2026-04-11T12:55:26.906Z</time></trkpt><trkpt lat="45.2279026" lon="11.7549312"><ele>9.0</ele><time>2026-04-11T12:55:27.906Z</time></trkpt><trkpt lat="45.2277188" lon="11.7549345"><ele>8.0</ele><time>2026-04-11T12:55:28.906Z</time></trkpt><trkpt lat="45.2275418" lon="11.7549354"><ele>7.0</ele><time>2026-04-11T12:55:29.906Z</time></trkpt><trkpt lat="45.2273568" lon="11.7549373"><ele>6.666666666666667</ele><time>2026-04-11T12:55:30.906Z</time></trkpt><trkpt lat="45.2271671" lon="11.7549457"><ele>6.333333333333334</ele><time>2026-04-11T12:55:31.906Z</time></trkpt><trkpt lat="45.2269806" lon="11.754951"><ele>6.0</ele><time>2026-04-11T12:55:32.906Z</time></trkpt><trkpt lat="45.2267928" lon="11.7549611"><ele>6.0</ele><time>2026-04-11T12:55:33.906Z</time></trkpt><trkpt lat="45.2266059" lon="11.7549691"><ele>6.0</ele><time>2026-04-11T12:55:34.906Z</time></trkpt><trkpt lat="45.2264171" lon="11.7549792"><ele>6.0</ele><time>2026-04-11T12:55:35.906Z</time></trkpt><trkpt lat="45.2262274" lon="11.7549902"><ele>6.0</ele><time>2026-04-11T12:55:36.905Z</time></trkpt><trkpt lat="45.2260398" lon="11.7549921"><ele>6.0</ele><time>2026-04-11T12:55:37.906Z</time></trkpt><trkpt lat="45.225854" lon="11.754993"><ele>6.0</ele><time>2026-04-11T12:55:38.906Z</time></trkpt><trkpt lat="45.2256633" lon="11.754996"><ele>6.333333333333334</ele><time>2026-04-11T12:55:39.906Z</time></trkpt><trkpt lat="45.2254732" lon="11.7549983"><ele>6.666666666666667</ele><time>2026-04-11T12:55:40.906Z</time></trkpt><trkpt lat="45.2252817" lon="11.7550098"><ele>7.0</ele><time>2026-04-11T12:55:41.906Z</time></trkpt><trkpt lat="45.2250933" lon="11.7550165"><ele>7.0</ele><time>2026-04-11T12:55:42.906Z</time></trkpt><trkpt lat="45.2249017" lon="11.755023"><ele>7.0</ele><time>2026-04-11T12:55:43.906Z</time></trkpt><trkpt lat="45.2247115" lon="11.7550269"><ele>7.0</ele><time>2026-04-11T12:55:44.906Z</time></trkpt><trkpt lat="45.2245159" lon="11.7550322"><ele>7.0</ele><time>2026-04-11T12:55:45.906Z</time></trkpt><trkpt lat="45.224323" lon="11.7550436"><ele>7.0</ele><time>2026-04-11T12:55:46.906Z</time></trkpt><trkpt lat="45.224127" lon="11.7550522"><ele>7.0</ele><time>2026-04-11T12:55:47.905Z</time></trkpt><trkpt lat="45.223934" lon="11.7550634"><ele>7.0</ele><time>2026-04-11T12:55:48.906Z</time></trkpt><trkpt lat="45.2237444" lon="11.7550739"><ele>7.0</ele><time>2026-04-11T12:55:49.906Z</time></trkpt><trkpt lat="45.2235429" lon="11.7550756"><ele>7.0</ele><time>2026-04-11T12:55:50.905Z</time></trkpt><trkpt lat="45.2233429" lon="11.7550752"><ele>6.0</ele><time>2026-04-11T12:55:51.906Z</time></trkpt><trkpt lat="45.2231396" lon="11.7550757"><ele>5.0</ele><time>2026-04-11T12:55:52.906Z</time></trkpt><trkpt lat="45.2229355" lon="11.7550801"><ele>4.0</ele><time>2026-04-11T12:55:53.905Z</time></trkpt><trkpt lat="45.2227307" lon="11.7550828"><ele>4.0</ele><time>2026-04-11T12:55:54.906Z</time></trkpt><trkpt lat="45.2225293" lon="11.7550882"><ele>4.0</ele><time>2026-04-11T12:55:55.906Z</time></trkpt><trkpt lat="45.2223333" lon="11.7550974"><ele>4.0</ele><time>2026-04-11T12:55:56.906Z</time></trkpt><trkpt lat="45.2221334" lon="11.7551047"><ele>5.0</ele><time>2026-04-11T12:55:57.905Z</time></trkpt><trkpt lat="45.2219346" lon="11.7551093"><ele>6.0</ele><time>2026-04-11T12:55:58.906Z</time></trkpt><trkpt lat="45.2217376" lon="11.7551084"><ele>7.0</ele><time>2026-04-11T12:55:59.906Z</time></trkpt><trkpt lat="45.2215417" lon="11.755112"><ele>7.0</ele><time>2026-04-11T12:56:00.906Z</time></trkpt><trkpt lat="45.2213477" lon="11.7551164"><ele>7.0</ele><time>2026-04-11T12:56:01.906Z</time></trkpt><trkpt lat="45.2211536" lon="11.7551207"><ele>7.0</ele><time>2026-04-11T12:56:02.906Z</time></trkpt><trkpt lat="45.2209642" lon="11.7551248"><ele>7.0</ele><time>2026-04-11T12:56:03.906Z</time></trkpt><trkpt lat="45.220776" lon="11.7551307"><ele>7.0</ele><time>2026-04-11T12:56:04.906Z</time></trkpt><trkpt lat="45.2205891" lon="11.7551374"><ele>7.0</ele><time>2026-04-11T12:56:05.906Z</time></trkpt><trkpt lat="45.2204015" lon="11.7551422"><ele>7.333333333333334</ele><time>2026-04-11T12:56:06.906Z</time></trkpt><trkpt lat="45.2202134" lon="11.7551485"><ele>7.666666666666666</ele><time>2026-04-11T12:56:07.905Z</time></trkpt><trkpt lat="45.2200253" lon="11.7551509"><ele>8.0</ele><time>2026-04-11T12:56:08.906Z</time></trkpt><trkpt lat="45.2198373" lon="11.7551536"><ele>8.333333333333332</ele><time>2026-04-11T12:56:09.906Z</time></trkpt><trkpt lat="45.2196489" lon="11.7551604"><ele>8.666666666666666</ele><time>2026-04-11T12:56:10.906Z</time></trkpt><trkpt lat="45.2194631" lon="11.7551626"><ele>9.0</ele><time>2026-04-11T12:56:11.906Z</time></trkpt><trkpt lat="45.2192756" lon="11.7551636"><ele>9.0</ele><time>2026-04-11T12:56:12.906Z</time></trkpt><trkpt lat="45.2190875" lon="11.7551628"><ele>9.0</ele><time>2026-04-11T12:56:13.906Z</time></trkpt><trkpt lat="45.2188979" lon="11.7551704"><ele>9.0</ele><time>2026-04-11T12:56:14.906Z</time></trkpt><trkpt lat="45.2187135" lon="11.7551766"><ele>8.333333333333334</ele><time>2026-04-11T12:56:15.906Z</time></trkpt><trkpt lat="45.2185273" lon="11.7551787"><ele>7.666666666666667</ele><time>2026-04-11T12:56:16.906Z</time></trkpt><trkpt lat="45.2183502" lon="11.7551803"><ele>7.0</ele><time>2026-04-11T12:56:17.906Z</time></trkpt><trkpt lat="45.2181905" lon="11.7551779"><ele>6.75</ele><time>2026-04-11T12:56:18.906Z</time></trkpt><trkpt lat="45.2180411" lon="11.7551833"><ele>6.5</ele><time>2026-04-11T12:56:19.906Z</time></trkpt><trkpt lat="45.2179103" lon="11.7551855"><ele>6.25</ele><time>2026-04-11T12:56:20.906Z</time></trkpt><trkpt lat="45.2177993" lon="11.7551797"><ele>6.0</ele><time>2026-04-11T12:56:21.906Z</time></trkpt><trkpt lat="45.2176971" lon="11.7551543"><ele>6.0</ele><time>2026-04-11T12:56:22.906Z</time></trkpt><trkpt lat="45.2176116" lon="11.7550968"><ele>6.0</ele><time>2026-04-11T12:56:23.906Z</time></trkpt><trkpt lat="45.2175377" lon="11.755019"><ele>6.0</ele><time>2026-04-11T12:56:24.906Z</time></trkpt><trkpt lat="45.2174683" lon="11.7549733"><ele>6.0</ele><time>2026-04-11T12:56:25.906Z</time></trkpt><trkpt lat="45.217401" lon="11.7549584"><ele>6.0</ele><time>2026-04-11T12:56:26.906Z</time></trkpt><trkpt lat="45.2173369" lon="11.7549759"><ele>6.0</ele><time>2026-04-11T12:56:27.906Z</time></trkpt><trkpt lat="45.2172742" lon="11.7550317"><ele>6.199999999999999</ele><time>2026-04-11T12:56:28.906Z</time></trkpt><trkpt lat="45.2172124" lon="11.7551047"><ele>6.3999999999999995</ele><time>2026-04-11T12:56:29.905Z</time></trkpt><trkpt lat="45.2171315" lon="11.7551547"><ele>6.6</ele><time>2026-04-11T12:56:30.906Z</time></trkpt><trkpt lat="45.2170263" lon="11.7551817"><ele>6.8</ele><time>2026-04-11T12:56:31.905Z</time></trkpt><trkpt lat="45.2168686" lon="11.7552012"><ele>7.0</ele><time>2026-04-11T12:56:32.906Z</time></trkpt><trkpt lat="45.2167146" lon="11.7552124"><ele>7.0</ele><time>2026-04-11T12:56:33.906Z</time></trkpt><trkpt lat="45.2165691" lon="11.7552157"><ele>7.0</ele><time>2026-04-11T12:56:34.906Z</time></trkpt><trkpt lat="45.2164353" lon="11.7552176"><ele>7.0</ele><time>2026-04-11T12:56:35.906Z</time></trkpt><trkpt lat="45.2162925" lon="11.7552207"><ele>7.0</ele><time>2026-04-11T12:56:36.906Z</time></trkpt><trkpt lat="45.2161465" lon="11.7552262"><ele>7.0</ele><time>2026-04-11T12:56:37.906Z</time></trkpt><trkpt lat="45.2160009" lon="11.7552289"><ele>7.0</ele><time>2026-04-11T12:56:38.906Z</time></trkpt><trkpt lat="45.2158681" lon="11.7552255"><ele>7.0</ele><time>2026-04-11T12:56:39.906Z</time></trkpt><trkpt lat="45.2157414" lon="11.7552311"><ele>7.0</ele><time>2026-04-11T12:56:40.906Z</time></trkpt><trkpt lat="45.2156199" lon="11.7552364"><ele>7.0</ele><time>2026-04-11T12:56:41.906Z</time></trkpt><trkpt lat="45.2154928" lon="11.7552438"><ele>7.0</ele><time>2026-04-11T12:56:42.906Z</time></trkpt><trkpt lat="45.2153626" lon="11.7552499"><ele>7.0</ele><time>2026-04-11T12:56:43.906Z</time></trkpt><trkpt lat="45.2152323" lon="11.7552549"><ele>7.0</ele><time>2026-04-11T12:56:44.906Z</time></trkpt><trkpt lat="45.215102" lon="11.7552552"><ele>7.0</ele><time>2026-04-11T12:56:45.905Z</time></trkpt><trkpt lat="45.2149734" lon="11.7552555"><ele>7.0</ele><time>2026-04-11T12:56:46.906Z</time></trkpt><trkpt lat="45.2148398" lon="11.755263"><ele>7.0</ele><time>2026-04-11T12:56:47.905Z</time></trkpt><trkpt lat="45.2147098" lon="11.755264"><ele>7.0</ele><time>2026-04-11T12:56:48.906Z</time></trkpt><trkpt lat="45.2145808" lon="11.7552634"><ele>6.5</ele><time>2026-04-11T12:56:49.906Z</time></trkpt><trkpt lat="45.2144499" lon="11.7552642"><ele>6.0</ele><time>2026-04-11T12:56:50.906Z</time></trkpt><trkpt lat="45.2143204" lon="11.7552674"><ele>5.5</ele><time>2026-04-11T12:56:51.906Z</time></trkpt><trkpt lat="45.2141904" lon="11.7552754"><ele>5.0</ele><time>2026-04-11T12:56:52.906Z</time></trkpt><trkpt lat="45.2140606" lon="11.7552852"><ele>5.25</ele><time>2026-04-11T12:56:53.906Z</time></trkpt><trkpt lat="45.2139331" lon="11.7552986"><ele>5.5</ele><time>2026-04-11T12:56:54.906Z</time></trkpt><trkpt lat="45.2138068" lon="11.7553021"><ele>5.75</ele><time>2026-04-11T12:56:55.906Z</time></trkpt><trkpt lat="45.2136839" lon="11.7553214"><ele>6.0</ele><time>2026-04-11T12:56:56.906Z</time></trkpt><trkpt lat="45.2135693" lon="11.7553431"><ele>6.0</ele><time>2026-04-11T12:56:57.906Z</time></trkpt><trkpt lat="45.2134638" lon="11.7553604"><ele>6.0</ele><time>2026-04-11T12:56:58.906Z</time></trkpt><trkpt lat="45.2133657" lon="11.7553792"><ele>6.0</ele><time>2026-04-11T12:56:59.906Z</time></trkpt><trkpt lat="45.2132796" lon="11.7553874"><ele>6.0</ele><time>2026-04-11T12:57:00.906Z</time></trkpt><trkpt lat="45.2131991" lon="11.7553904"><ele>6.0</ele><time>2026-04-11T12:57:01.906Z</time></trkpt><trkpt lat="45.213124" lon="11.7553821"><ele>6.0</ele><time>2026-04-11T12:57:02.906Z</time></trkpt><trkpt lat="45.2130494" lon="11.7553615"><ele>5.857142857142857</ele><time>2026-04-11T12:57:03.906Z</time></trkpt><trkpt lat="45.2129764" lon="11.7553473"><ele>5.714285714285714</ele><time>2026-04-11T12:57:04.906Z</time></trkpt><trkpt lat="45.2129072" lon="11.7553712"><ele>5.571428571428571</ele><time>2026-04-11T12:57:05.906Z</time></trkpt><trkpt lat="45.2128423" lon="11.7554098"><ele>5.428571428571429</ele><time>2026-04-11T12:57:06.906Z</time></trkpt><trkpt lat="45.2127949" lon="11.7554831"><ele>5.285714285714286</ele><time>2026-04-11T12:57:07.906Z</time></trkpt><trkpt lat="45.2127593" lon="11.7555802"><ele>5.142857142857142</ele><time>2026-04-11T12:57:08.906Z</time></trkpt><trkpt lat="45.2127338" lon="11.755696"><ele>5.0</ele><time>2026-04-11T12:57:09.906Z</time></trkpt><trkpt lat="45.212705" lon="11.7558034"><ele>5.0</ele><time>2026-04-11T12:57:10.906Z</time></trkpt><trkpt lat="45.2126604" lon="11.7559071"><ele>5.0</ele><time>2026-04-11T12:57:11.906Z</time></trkpt><trkpt lat="45.2125974" lon="11.7560045"><ele>5.0</ele><time>2026-04-11T12:57:12.906Z</time></trkpt><trkpt lat="45.2125174" lon="11.7560837"><ele>5.0</ele><time>2026-04-11T12:57:13.906Z</time></trkpt><trkpt lat="45.212429" lon="11.7561619"><ele>5.0</ele><time>2026-04-11T12:57:14.906Z</time></trkpt><trkpt lat="45.2123332" lon="11.7562534"><ele>4.25</ele><time>2026-04-11T12:57:15.906Z</time></trkpt><trkpt lat="45.2122301" lon="11.7563437"><ele>3.5</ele><time>2026-04-11T12:57:16.906Z</time></trkpt><trkpt lat="45.2121252" lon="11.7564395"><ele>2.75</ele><time>2026-04-11T12:57:17.906Z</time></trkpt><trkpt lat="45.2120179" lon="11.7565372"><ele>2.0</ele><time>2026-04-11T12:57:18.906Z</time></trkpt><trkpt lat="45.2119071" lon="11.7566385"><ele>2.0</ele><time>2026-04-11T12:57:19.906Z</time></trkpt><trkpt lat="45.2117912" lon="11.7567396"><ele>2.0</ele><time>2026-04-11T12:57:20.905Z</time></trkpt><trkpt lat="45.2116746" lon="11.7568407"><ele>2.0</ele><time>2026-04-11T12:57:21.906Z</time></trkpt><trkpt lat="45.2115514" lon="11.7569341"><ele>2.0</ele><time>2026-04-11T12:57:22.906Z</time></trkpt><trkpt lat="45.2114246" lon="11.7570236"><ele>3.0</ele><time>2026-04-11T12:57:23.906Z</time></trkpt><trkpt lat="45.211293" lon="11.7571128"><ele>4.0</ele><time>2026-04-11T12:57:24.906Z</time></trkpt><trkpt lat="45.2111581" lon="11.7571957"><ele>5.0</ele><time>2026-04-11T12:57:25.906Z</time></trkpt><trkpt lat="45.211019" lon="11.7572668"><ele>6.0</ele><time>2026-04-11T12:57:26.906Z</time></trkpt><trkpt lat="45.2108744" lon="11.7573242"><ele>6.0</ele><time>2026-04-11T12:57:27.906Z</time></trkpt><trkpt lat="45.2107225" lon="11.7573666"><ele>6.0</ele><time>2026-04-11T12:57:28.906Z</time></trkpt><trkpt lat="45.2105672" lon="11.7573982"><ele>6.0</ele><time>2026-04-11T12:57:29.906Z</time></trkpt><trkpt lat="45.2104098" lon="11.7574207"><ele>5.666666666666667</ele><time>2026-04-11T12:57:30.906Z</time></trkpt><trkpt lat="45.210255" lon="11.7574353"><ele>5.333333333333334</ele><time>2026-04-11T12:57:31.906Z</time></trkpt><trkpt lat="45.2101015" lon="11.757443"><ele>5.0</ele><time>2026-04-11T12:57:32.906Z</time></trkpt><trkpt lat="45.209944" lon="11.7574488"><ele>5.666666666666667</ele><time>2026-04-11T12:57:33.906Z</time></trkpt><trkpt lat="45.2097851" lon="11.75745"><ele>6.333333333333334</ele><time>2026-04-11T12:57:34.906Z</time></trkpt><trkpt lat="45.2096256" lon="11.7574535"><ele>7.0</ele><time>2026-04-11T12:57:35.906Z</time></trkpt><trkpt lat="45.2094534" lon="11.757461"><ele>7.0</ele><time>2026-04-11T12:57:36.906Z</time></trkpt><trkpt lat="45.2092822" lon="11.7574611"><ele>7.0</ele><time>2026-04-11T12:57:37.906Z</time></trkpt><trkpt lat="45.2091125" lon="11.7574635"><ele>7.0</ele><time>2026-04-11T12:57:38.906Z</time></trkpt><trkpt lat="45.208949" lon="11.7574729"><ele>6.333333333333334</ele><time>2026-04-11T12:57:39.906Z</time></trkpt><trkpt lat="45.2087853" lon="11.7574787"><ele>5.666666666666667</ele><time>2026-04-11T12:57:40.906Z</time></trkpt><trkpt lat="45.2086159" lon="11.7574795"><ele>5.0</ele><time>2026-04-11T12:57:41.905Z</time></trkpt><trkpt lat="45.2084462" lon="11.7574797"><ele>5.0</ele><time>2026-04-11T12:57:42.906Z</time></trkpt><trkpt lat="45.2082708" lon="11.7574826"><ele>5.0</ele><time>2026-04-11T12:57:43.906Z</time></trkpt><trkpt lat="45.2081013" lon="11.7574869"><ele>5.0</ele><time>2026-04-11T12:57:44.906Z</time></trkpt><trkpt lat="45.2079287" lon="11.7574915"><ele>4.666666666666667</ele><time>2026-04-11T12:57:45.906Z</time></trkpt><trkpt lat="45.2077544" lon="11.7574948"><ele>4.333333333333333</ele><time>2026-04-11T12:57:46.906Z</time></trkpt><trkpt lat="45.207583" lon="11.7574853"><ele>4.0</ele><time>2026-04-11T12:57:47.906Z</time></trkpt><trkpt lat="45.2074086" lon="11.7574678"><ele>4.0</ele><time>2026-04-11T12:57:48.906Z</time></trkpt><trkpt lat="45.2072384" lon="11.7574364"><ele>4.0</ele><time>2026-04-11T12:57:49.906Z</time></trkpt><trkpt lat="45.2070683" lon="11.757399"><ele>4.0</ele><time>2026-04-11T12:57:50.906Z</time></trkpt><trkpt lat="45.2069053" lon="11.7573585"><ele>4.0</ele><time>2026-04-11T12:57:51.906Z</time></trkpt><trkpt lat="45.2067389" lon="11.7572997"><ele>4.0</ele><time>2026-04-11T12:57:52.906Z</time></trkpt><trkpt lat="45.2065765" lon="11.7572423"><ele>4.0</ele><time>2026-04-11T12:57:53.906Z</time></trkpt><trkpt lat="45.2064228" lon="11.7571539"><ele>3.75</ele><time>2026-04-11T12:57:54.906Z</time></trkpt><trkpt lat="45.2062802" lon="11.7570652"><ele>3.5</ele><time>2026-04-11T12:57:55.906Z</time></trkpt><trkpt lat="45.206149" lon="11.7569755"><ele>3.25</ele><time>2026-04-11T12:57:56.906Z</time></trkpt><trkpt lat="45.2060288" lon="11.7568881"><ele>3.0</ele><time>2026-04-11T12:57:57.906Z</time></trkpt><trkpt lat="45.2059157" lon="11.7567961"><ele>3.0</ele><time>2026-04-11T12:57:58.906Z</time></trkpt><trkpt lat="45.2058116" lon="11.7567002"><ele>3.0</ele><time>2026-04-11T12:57:59.906Z</time></trkpt><trkpt lat="45.2057168" lon="11.7566134"><ele>3.0</ele><time>2026-04-11T12:58:00.906Z</time></trkpt><trkpt lat="45.2056329" lon="11.7565439"><ele>3.0</ele><time>2026-04-11T12:58:01.906Z</time></trkpt><trkpt lat="45.2055585" lon="11.7564711"><ele>3.0</ele><time>2026-04-11T12:58:02.906Z</time></trkpt><trkpt lat="45.205502" lon="11.7563971"><ele>3.1666666666666665</ele><time>2026-04-11T12:58:03.906Z</time></trkpt><trkpt lat="45.2054486" lon="11.7563117"><ele>3.333333333333333</ele><time>2026-04-11T12:58:04.906Z</time></trkpt><trkpt lat="45.2054213" lon="11.7562146"><ele>3.5</ele><time>2026-04-11T12:58:05.905Z</time></trkpt><trkpt lat="45.2053868" lon="11.7561128"><ele>3.6666666666666665</ele><time>2026-04-11T12:58:06.906Z</time></trkpt><trkpt lat="45.2053317" lon="11.7560131"><ele>3.833333333333333</ele><time>2026-04-11T12:58:07.905Z</time></trkpt><trkpt lat="45.2052563" lon="11.7559398"><ele>4.0</ele><time>2026-04-11T12:58:08.906Z</time></trkpt><trkpt lat="45.2051647" lon="11.7559016"><ele>4.0</ele><time>2026-04-11T12:58:09.905Z</time></trkpt><trkpt lat="45.2050578" lon="11.7558987"><ele>4.0</ele><time>2026-04-11T12:58:10.906Z</time></trkpt><trkpt lat="45.2049227" lon="11.7558958"><ele>4.0</ele><time>2026-04-11T12:58:11.906Z</time></trkpt><trkpt lat="45.204754" lon="11.7558619"><ele>4.0</ele><time>2026-04-11T12:58:12.906Z</time></trkpt><trkpt lat="45.2045398" lon="11.7558061"><ele>4.0</ele><time>2026-04-11T12:58:13.906Z</time></trkpt><trkpt lat="45.2042911" lon="11.7557216"><ele>4.0</ele><time>2026-04-11T12:58:14.906Z</time></trkpt><trkpt lat="45.2040164" lon="11.7556296"><ele>3.0</ele><time>2026-04-11T12:58:15.906Z</time></trkpt><trkpt lat="45.2037405" lon="11.7555438"><ele>2.0</ele><time>2026-04-11T12:58:16.906Z</time></trkpt><trkpt lat="45.2034506" lon="11.7555192"><ele>2.0</ele><time>2026-04-11T12:58:17.905Z</time></trkpt><trkpt lat="45.2031761" lon="11.7555148"><ele>2.0</ele><time>2026-04-11T12:58:18.906Z</time></trkpt><trkpt lat="45.2029245" lon="11.7555194"><ele>2.5</ele><time>2026-04-11T12:58:19.906Z</time></trkpt><trkpt lat="45.2026872" lon="11.7555253"><ele>3.0</ele><time>2026-04-11T12:58:20.905Z</time></trkpt><trkpt lat="45.2024625" lon="11.7555287"><ele>3.0</ele><time>2026-04-11T12:58:21.906Z</time></trkpt><trkpt lat="45.2022558" lon="11.7555352"><ele>3.0</ele><time>2026-04-11T12:58:22.906Z</time></trkpt><trkpt lat="45.2020494" lon="11.7555487"><ele>3.0</ele><time>2026-04-11T12:58:23.906Z</time></trkpt><trkpt lat="45.2018537" lon="11.7555505"><ele>3.0</ele><time>2026-04-11T12:58:24.906Z</time></trkpt><trkpt lat="45.201659" lon="11.7555534"><ele>3.0</ele><time>2026-04-11T12:58:25.906Z</time></trkpt><trkpt lat="45.2014666" lon="11.7555602"><ele>3.0</ele><time>2026-04-11T12:58:26.906Z</time></trkpt><trkpt lat="45.2012725" lon="11.7555638"><ele>3.333333333333333</ele><time>2026-04-11T12:58:27.906Z</time></trkpt><trkpt lat="45.2010826" lon="11.7555694"><ele>3.6666666666666665</ele><time>2026-04-11T12:58:28.906Z</time></trkpt><trkpt lat="45.20089" lon="11.7555789"><ele>4.0</ele><time>2026-04-11T12:58:29.906Z</time></trkpt><trkpt lat="45.2006974" lon="11.7555808"><ele>4.333333333333333</ele><time>2026-04-11T12:58:30.906Z</time></trkpt><trkpt lat="45.2005036" lon="11.7555815"><ele>4.666666666666667</ele><time>2026-04-11T12:58:31.906Z</time></trkpt><trkpt lat="45.2003125" lon="11.7555848"><ele>5.0</ele><time>2026-04-11T12:58:32.906Z</time></trkpt><trkpt lat="45.2001171" lon="11.7555956"><ele>5.0</ele><time>2026-04-11T12:58:33.905Z</time></trkpt><trkpt lat="45.1999248" lon="11.7556046"><ele>5.0</ele><time>2026-04-11T12:58:34.906Z</time></trkpt><trkpt lat="45.1997333" lon="11.7556088"><ele>5.0</ele><time>2026-04-11T12:58:35.906Z</time></trkpt><trkpt lat="45.1995406" lon="11.7556141"><ele>4.333333333333334</ele><time>2026-04-11T12:58:36.906Z</time></trkpt><trkpt lat="45.1993464" lon="11.755618"><ele>3.666666666666667</ele><time>2026-04-11T12:58:37.906Z</time></trkpt><trkpt lat="45.1991495" lon="11.7556214"><ele>3.0</ele><time>2026-04-11T12:58:38.906Z</time></trkpt><trkpt lat="45.1989572" lon="11.7556233"><ele>3.0</ele><time>2026-04-11T12:58:39.906Z</time></trkpt><trkpt lat="45.1987677" lon="11.7556323"><ele>3.0</ele><time>2026-04-11T12:58:40.906Z</time></trkpt><trkpt lat="45.1985721" lon="11.7556349"><ele>3.0</ele><time>2026-04-11T12:58:41.906Z</time></trkpt><trkpt lat="45.198377" lon="11.7556369"><ele>3.0</ele><time>2026-04-11T12:58:42.906Z</time></trkpt><trkpt lat="45.1981836" lon="11.7556383"><ele>3.0</ele><time>2026-04-11T12:58:43.906Z</time></trkpt><trkpt lat="45.1979932" lon="11.7556361"><ele>3.0</ele><time>2026-04-11T12:58:44.906Z</time></trkpt><trkpt lat="45.1978036" lon="11.7556393"><ele>2.6666666666666665</ele><time>2026-04-11T12:58:45.906Z</time></trkpt><trkpt lat="45.1976089" lon="11.7556488"><ele>2.333333333333333</ele><time>2026-04-11T12:58:46.906Z</time></trkpt><trkpt lat="45.1974156" lon="11.7556514"><ele>2.0</ele><time>2026-04-11T12:58:47.906Z</time></trkpt><trkpt lat="45.1972215" lon="11.7556593"><ele>2.0</ele><time>2026-04-11T12:58:48.906Z</time></trkpt><trkpt lat="45.1970276" lon="11.7556639"><ele>2.0</ele><time>2026-04-11T12:58:49.906Z</time></trkpt><trkpt lat="45.1968349" lon="11.7556704"><ele>2.0</ele><time>2026-04-11T12:58:50.906Z</time></trkpt><trkpt lat="45.1966432" lon="11.7556773"><ele>2.333333333333333</ele><time>2026-04-11T12:58:51.906Z</time></trkpt><trkpt lat="45.1964547" lon="11.7556893"><ele>2.6666666666666665</ele><time>2026-04-11T12:58:52.906Z</time></trkpt><trkpt lat="45.1962639" lon="11.755697"><ele>3.0</ele><time>2026-04-11T12:58:53.906Z</time></trkpt><trkpt lat="45.1960783" lon="11.7556971"><ele>3.0</ele><time>2026-04-11T12:58:54.906Z</time></trkpt><trkpt lat="45.1958905" lon="11.7557015"><ele>3.0</ele><time>2026-04-11T12:58:55.906Z</time></trkpt><trkpt lat="45.1957007" lon="11.7557087"><ele>3.0</ele><time>2026-04-11T12:58:56.906Z</time></trkpt><trkpt lat="45.1955188" lon="11.7557138"><ele>3.333333333333333</ele><time>2026-04-11T12:58:57.906Z</time></trkpt><trkpt lat="45.1953378" lon="11.7557178"><ele>3.6666666666666665</ele><time>2026-04-11T12:58:58.906Z</time></trkpt><trkpt lat="45.1951653" lon="11.7557209"><ele>4.0</ele><time>2026-04-11T12:58:59.906Z</time></trkpt><trkpt lat="45.1949914" lon="11.7557268"><ele>4.0</ele><time>2026-04-11T12:59:00.906Z</time></trkpt><trkpt lat="45.1948155" lon="11.7557322"><ele>4.0</ele><time>2026-04-11T12:59:01.906Z</time></trkpt><trkpt lat="45.1946391" lon="11.7557322"><ele>4.0</ele><time>2026-04-11T12:59:02.905Z</time></trkpt><trkpt lat="45.1944602" lon="11.7557321"><ele>4.0</ele><time>2026-04-11T12:59:03.905Z</time></trkpt><trkpt lat="45.1942788" lon="11.7557371"><ele>4.0</ele><time>2026-04-11T12:59:04.906Z</time></trkpt><trkpt lat="45.1941034" lon="11.75574"><ele>4.0</ele><time>2026-04-11T12:59:05.906Z</time></trkpt><trkpt lat="45.1939281" lon="11.7557453"><ele>4.0</ele><time>2026-04-11T12:59:06.906Z</time></trkpt><trkpt lat="45.1937553" lon="11.75575"><ele>4.0</ele><time>2026-04-11T12:59:07.906Z</time></trkpt><trkpt lat="45.1935966" lon="11.7557608"><ele>4.0</ele><time>2026-04-11T12:59:08.906Z</time></trkpt><trkpt lat="45.1934731" lon="11.7557634"><ele>4.0</ele><time>2026-04-11T12:59:09.906Z</time></trkpt><trkpt lat="45.193367" lon="11.7557663"><ele>4.0</ele><time>2026-04-11T12:59:10.906Z</time></trkpt><trkpt lat="45.1932715" lon="11.755765"><ele>4.0</ele><time>2026-04-11T12:59:11.906Z</time></trkpt><trkpt lat="45.1931669" lon="11.755763"><ele>4.0</ele><time>2026-04-11T12:59:12.905Z</time></trkpt><trkpt lat="45.1930319" lon="11.7557758"><ele>4.0</ele><time>2026-04-11T12:59:13.906Z</time></trkpt><trkpt lat="45.1928598" lon="11.7557985"><ele>3.6666666666666665</ele><time>2026-04-11T12:59:14.906Z</time></trkpt><trkpt lat="45.192661" lon="11.7557925"><ele>3.333333333333333</ele><time>2026-04-11T12:59:15.906Z</time></trkpt><trkpt lat="45.192433" lon="11.7557841"><ele>3.0</ele><time>2026-04-11T12:59:16.906Z</time></trkpt><trkpt lat="45.1921896" lon="11.7557864"><ele>2.0</ele><time>2026-04-11T12:59:17.906Z</time></trkpt><trkpt lat="45.1919277" lon="11.7558007"><ele>1.0</ele><time>2026-04-11T12:59:18.906Z</time></trkpt><trkpt lat="45.1916543" lon="11.7558052"><ele>1.0</ele><time>2026-04-11T12:59:19.906Z</time></trkpt><trkpt lat="45.1913872" lon="11.7558094"><ele>1.0</ele><time>2026-04-11T12:59:20.906Z</time></trkpt><trkpt lat="45.1911408" lon="11.7558128"><ele>1.0</ele><time>2026-04-11T12:59:21.906Z</time></trkpt><trkpt lat="45.1908952" lon="11.7558189"><ele>1.0</ele><time>2026-04-11T12:59:22.906Z</time></trkpt><trkpt lat="45.1906902" lon="11.7558207"><ele>1.3333333333333333</ele><time>2026-04-11T12:59:23.906Z</time></trkpt><trkpt lat="45.1904838" lon="11.7558222"><ele>1.6666666666666665</ele><time>2026-04-11T12:59:24.906Z</time></trkpt><trkpt lat="45.1902815" lon="11.7558251"><ele>2.0</ele><time>2026-04-11T12:59:25.906Z</time></trkpt><trkpt lat="45.1900837" lon="11.7558319"><ele>2.0</ele><time>2026-04-11T12:59:26.906Z</time></trkpt><trkpt lat="45.1898887" lon="11.7558361"><ele>2.0</ele><time>2026-04-11T12:59:27.906Z</time></trkpt><trkpt lat="45.1896928" lon="11.7558426"><ele>2.0</ele><time>2026-04-11T12:59:28.906Z</time></trkpt><trkpt lat="45.1894976" lon="11.7558472"><ele>2.333333333333333</ele><time>2026-04-11T12:59:29.906Z</time></trkpt><trkpt lat="45.1893034" lon="11.7558561"><ele>2.6666666666666665</ele><time>2026-04-11T12:59:30.906Z</time></trkpt><trkpt lat="45.1891116" lon="11.7558598"><ele>3.0</ele><time>2026-04-11T12:59:31.906Z</time></trkpt><trkpt lat="45.1889225" lon="11.7558628"><ele>3.333333333333333</ele><time>2026-04-11T12:59:32.906Z</time></trkpt><trkpt lat="45.1887338" lon="11.7558693"><ele>3.6666666666666665</ele><time>2026-04-11T12:59:33.906Z</time></trkpt><trkpt lat="45.1885464" lon="11.7558748"><ele>4.0</ele><time>2026-04-11T12:59:34.906Z</time></trkpt><trkpt lat="45.1883612" lon="11.7558812"><ele>4.0</ele><time>2026-04-11T12:59:35.906Z</time></trkpt><trkpt lat="45.1881727" lon="11.7558815"><ele>4.0</ele><time>2026-04-11T12:59:36.906Z</time></trkpt><trkpt lat="45.1879849" lon="11.7558878"><ele>4.0</ele><time>2026-04-11T12:59:37.906Z</time></trkpt><trkpt lat="45.1878009" lon="11.7558918"><ele>4.0</ele><time>2026-04-11T12:59:38.906Z</time></trkpt><trkpt lat="45.1876189" lon="11.7558968"><ele>4.0</ele><time>2026-04-11T12:59:39.906Z</time></trkpt><trkpt lat="45.187435" lon="11.755902"><ele>4.0</ele><time>2026-04-11T12:59:40.906Z</time></trkpt><trkpt lat="45.1872531" lon="11.7559049"><ele>4.333333333333333</ele><time>2026-04-11T12:59:41.906Z</time></trkpt><trkpt lat="45.1870724" lon="11.755907"><ele>4.666666666666667</ele><time>2026-04-11T12:59:42.906Z</time></trkpt><trkpt lat="45.1868895" lon="11.7559091"><ele>5.0</ele><time>2026-04-11T12:59:43.906Z</time></trkpt><trkpt lat="45.1867061" lon="11.7559146"><ele>5.0</ele><time>2026-04-11T12:59:44.906Z</time></trkpt><trkpt lat="45.1865237" lon="11.7559207"><ele>5.0</ele><time>2026-04-11T12:59:45.906Z</time></trkpt><trkpt lat="45.1863418" lon="11.7559314"><ele>5.0</ele><time>2026-04-11T12:59:46.906Z</time></trkpt><trkpt lat="45.1861577" lon="11.7559392"><ele>4.333333333333334</ele><time>2026-04-11T12:59:47.906Z</time></trkpt><trkpt lat="45.1859776" lon="11.7559477"><ele>3.666666666666667</ele><time>2026-04-11T12:59:48.906Z</time></trkpt><trkpt lat="45.1857957" lon="11.7559574"><ele>3.0</ele><time>2026-04-11T12:59:49.906Z</time></trkpt><trkpt lat="45.1856155" lon="11.7559622"><ele>3.0</ele><time>2026-04-11T12:59:50.906Z</time></trkpt><trkpt lat="45.1854354" lon="11.7559667"><ele>3.0</ele><time>2026-04-11T12:59:51.905Z</time></trkpt><trkpt lat="45.1852532" lon="11.755969"><ele>3.0</ele><time>2026-04-11T12:59:52.906Z</time></trkpt><trkpt lat="45.1850741" lon="11.7559696"><ele>3.0</ele><time>2026-04-11T12:59:53.905Z</time></trkpt><trkpt lat="45.1848923" lon="11.7559756"><ele>3.0</ele><time>2026-04-11T12:59:54.906Z</time></trkpt><trkpt lat="45.1847101" lon="11.7559806"><ele>3.0</ele><time>2026-04-11T12:59:55.906Z</time></trkpt><trkpt lat="45.1845326" lon="11.7559824"><ele>3.666666666666667</ele><time>2026-04-11T12:59:56.906Z</time></trkpt><trkpt lat="45.1843527" lon="11.755988"><ele>4.333333333333334</ele><time>2026-04-11T12:59:57.906Z</time></trkpt><trkpt lat="45.1841752" lon="11.7559963"><ele>5.0</ele><time>2026-04-11T12:59:58.906Z</time></trkpt><trkpt lat="45.1839949" lon="11.7559987"><ele>5.333333333333334</ele><time>2026-04-11T12:59:59.906Z</time></trkpt><trkpt lat="45.183817" lon="11.7560023"><ele>5.666666666666667</ele><time>2026-04-11T13:00:00.906Z</time></trkpt><trkpt lat="45.18364" lon="11.7560025"><ele>6.0</ele><time>2026-04-11T13:00:01.906Z</time></trkpt><trkpt lat="45.1834594" lon="11.7560061"><ele>6.0</ele><time>2026-04-11T13:00:02.906Z</time></trkpt><trkpt lat="45.183282" lon="11.7560094"><ele>6.0</ele><time>2026-04-11T13:00:03.906Z</time></trkpt><trkpt lat="45.1831128" lon="11.7560091"><ele>6.0</ele><time>2026-04-11T13:00:04.906Z</time></trkpt><trkpt lat="45.1829529" lon="11.7560079"><ele>6.25</ele><time>2026-04-11T13:00:05.906Z</time></trkpt><trkpt lat="45.1828025" lon="11.7560078"><ele>6.5</ele><time>2026-04-11T13:00:06.906Z</time></trkpt><trkpt lat="45.1826673" lon="11.7560057"><ele>6.75</ele><time>2026-04-11T13:00:07.906Z</time></trkpt><trkpt lat="45.1825414" lon="11.7560015"><ele>7.0</ele><time>2026-04-11T13:00:08.906Z</time></trkpt><trkpt lat="45.1824309" lon="11.7559785"><ele>6.833333333333334</ele><time>2026-04-11T13:00:09.906Z</time></trkpt><trkpt lat="45.182336" lon="11.7559441"><ele>6.666666666666667</ele><time>2026-04-11T13:00:10.906Z</time></trkpt><trkpt lat="45.182257" lon="11.755894"><ele>6.5</ele><time>2026-04-11T13:00:11.906Z</time></trkpt><trkpt lat="45.1821814" lon="11.7558717"><ele>6.333333333333334</ele><time>2026-04-11T13:00:12.906Z</time></trkpt><trkpt lat="45.1821026" lon="11.755896"><ele>6.166666666666667</ele><time>2026-04-11T13:00:13.906Z</time></trkpt><trkpt lat="45.1820083" lon="11.7559486"><ele>6.0</ele><time>2026-04-11T13:00:14.906Z</time></trkpt><trkpt lat="45.1818862" lon="11.7559951"><ele>6.0</ele><time>2026-04-11T13:00:15.906Z</time></trkpt><trkpt lat="45.1817432" lon="11.7560138"><ele>6.0</ele><time>2026-04-11T13:00:16.906Z</time></trkpt><trkpt lat="45.1815844" lon="11.7560236"><ele>6.0</ele><time>2026-04-11T13:00:17.906Z</time></trkpt><trkpt lat="45.1814097" lon="11.7560385"><ele>6.0</ele><time>2026-04-11T13:00:18.906Z</time></trkpt><trkpt lat="45.1812256" lon="11.7560504"><ele>6.0</ele><time>2026-04-11T13:00:19.906Z</time></trkpt><trkpt lat="45.1810316" lon="11.7560561"><ele>6.0</ele><time>2026-04-11T13:00:20.906Z</time></trkpt><trkpt lat="45.1808271" lon="11.7560625"><ele>5.333333333333333</ele><time>2026-04-11T13:00:21.906Z</time></trkpt><trkpt lat="45.1806181" lon="11.7560677"><ele>4.666666666666666</ele><time>2026-04-11T13:00:22.906Z</time></trkpt><trkpt lat="45.1804031" lon="11.7560781"><ele>4.0</ele><time>2026-04-11T13:00:23.906Z</time></trkpt><trkpt lat="45.1801828" lon="11.756086"><ele>4.0</ele><time>2026-04-11T13:00:24.906Z</time></trkpt><trkpt lat="45.1799579" lon="11.7560984"><ele>4.0</ele><time>2026-04-11T13:00:25.906Z</time></trkpt><trkpt lat="45.1797281" lon="11.7561109"><ele>4.5</ele><time>2026-04-11T13:00:26.905Z</time></trkpt><trkpt lat="45.1794944" lon="11.7561233"><ele>5.0</ele><time>2026-04-11T13:00:27.905Z</time></trkpt><trkpt lat="45.1792604" lon="11.7561307"><ele>5.0</ele><time>2026-04-11T13:00:28.906Z</time></trkpt><trkpt lat="45.1790295" lon="11.7561305"><ele>5.0</ele><time>2026-04-11T13:00:29.906Z</time></trkpt><trkpt lat="45.1788064" lon="11.756139"><ele>5.0</ele><time>2026-04-11T13:00:30.906Z</time></trkpt><trkpt lat="45.1785843" lon="11.7561377"><ele>5.0</ele><time>2026-04-11T13:00:31.906Z</time></trkpt><trkpt lat="45.1783741" lon="11.7561466"><ele>5.0</ele><time>2026-04-11T13:00:32.906Z</time></trkpt><trkpt lat="45.1781674" lon="11.7561487"><ele>4.333333333333334</ele><time>2026-04-11T13:00:33.906Z</time></trkpt><trkpt lat="45.177964" lon="11.7561519"><ele>3.666666666666667</ele><time>2026-04-11T13:00:34.906Z</time></trkpt><trkpt lat="45.1777654" lon="11.756159"><ele>3.0</ele><time>2026-04-11T13:00:35.906Z</time></trkpt><trkpt lat="45.177568" lon="11.7561684"><ele>3.0</ele><time>2026-04-11T13:00:36.906Z</time></trkpt><trkpt lat="45.1773726" lon="11.7561745"><ele>3.0</ele><time>2026-04-11T13:00:37.906Z</time></trkpt><trkpt lat="45.1771834" lon="11.7561826"><ele>3.0</ele><time>2026-04-11T13:00:38.906Z</time></trkpt><trkpt lat="45.1769925" lon="11.7561908"><ele>3.666666666666667</ele><time>2026-04-11T13:00:39.906Z</time></trkpt><trkpt lat="45.1768026" lon="11.7561986"><ele>4.333333333333334</ele><time>2026-04-11T13:00:40.906Z</time></trkpt><trkpt lat="45.1766107" lon="11.7562078"><ele>5.0</ele><time>2026-04-11T13:00:41.906Z</time></trkpt><trkpt lat="45.176417" lon="11.7562157"><ele>5.0</ele><time>2026-04-11T13:00:42.906Z</time></trkpt><trkpt lat="45.1762225" lon="11.7562221"><ele>5.0</ele><time>2026-04-11T13:00:43.906Z</time></trkpt><trkpt lat="45.1760321" lon="11.756226"><ele>5.0</ele><time>2026-04-11T13:00:44.906Z</time></trkpt><trkpt lat="45.1758361" lon="11.7562291"><ele>5.0</ele><time>2026-04-11T13:00:45.906Z</time></trkpt><trkpt lat="45.1756419" lon="11.7562333"><ele>5.0</ele><time>2026-04-11T13:00:46.906Z</time></trkpt><trkpt lat="45.1754493" lon="11.7562428"><ele>5.0</ele><time>2026-04-11T13:00:47.906Z</time></trkpt><trkpt lat="45.1752581" lon="11.7562481"><ele>5.0</ele><time>2026-04-11T13:00:48.906Z</time></trkpt><trkpt lat="45.1750649" lon="11.7562569"><ele>5.0</ele><time>2026-04-11T13:00:49.905Z</time></trkpt><trkpt lat="45.174874" lon="11.7562584"><ele>5.0</ele><time>2026-04-11T13:00:50.906Z</time></trkpt><trkpt lat="45.1746826" lon="11.7562619"><ele>5.0</ele><time>2026-04-11T13:00:51.906Z</time></trkpt><trkpt lat="45.1744876" lon="11.7562611"><ele>5.0</ele><time>2026-04-11T13:00:52.906Z</time></trkpt><trkpt lat="45.1742891" lon="11.7562633"><ele>5.0</ele><time>2026-04-11T13:00:53.906Z</time></trkpt><trkpt lat="45.1740923" lon="11.7562661"><ele>4.666666666666667</ele><time>2026-04-11T13:00:54.906Z</time></trkpt><trkpt lat="45.173898" lon="11.7562672"><ele>4.333333333333333</ele><time>2026-04-11T13:00:55.906Z</time></trkpt><trkpt lat="45.1737025" lon="11.7562718"><ele>4.0</ele><time>2026-04-11T13:00:56.906Z</time></trkpt><trkpt lat="45.1735076" lon="11.7562815"><ele>4.0</ele><time>2026-04-11T13:00:57.906Z</time></trkpt><trkpt lat="45.1733129" lon="11.7562935"><ele>4.0</ele><time>2026-04-11T13:00:58.906Z</time></trkpt><trkpt lat="45.1731184" lon="11.7563015"><ele>4.0</ele><time>2026-04-11T13:00:59.906Z</time></trkpt><trkpt lat="45.1729241" lon="11.7563102"><ele>4.0</ele><time>2026-04-11T13:01:00.906Z</time></trkpt><trkpt lat="45.1727302" lon="11.7563186"><ele>4.0</ele><time>2026-04-11T13:01:01.906Z</time></trkpt><trkpt lat="45.1725359" lon="11.7563248"><ele>4.0</ele><time>2026-04-11T13:01:02.906Z</time></trkpt><trkpt lat="45.1723435" lon="11.7563317"><ele>4.333333333333333</ele><time>2026-04-11T13:01:03.906Z</time></trkpt><trkpt lat="45.1721496" lon="11.7563362"><ele>4.666666666666667</ele><time>2026-04-11T13:01:04.906Z</time></trkpt><trkpt lat="45.1719593" lon="11.7563404"><ele>5.0</ele><time>2026-04-11T13:01:05.906Z</time></trkpt><trkpt lat="45.1717663" lon="11.7563434"><ele>5.0</ele><time>2026-04-11T13:01:06.906Z</time></trkpt><trkpt lat="45.1715753" lon="11.7563459"><ele>5.0</ele><time>2026-04-11T13:01:07.906Z</time></trkpt><trkpt lat="45.1713826" lon="11.7563514"><ele>5.0</ele><time>2026-04-11T13:01:08.905Z</time></trkpt><trkpt lat="45.1711921" lon="11.7563601"><ele>4.666666666666667</ele><time>2026-04-11T13:01:09.905Z</time></trkpt><trkpt lat="45.1709988" lon="11.7563627"><ele>4.333333333333333</ele><time>2026-04-11T13:01:10.906Z</time></trkpt><trkpt lat="45.1708066" lon="11.7563693"><ele>4.0</ele><time>2026-04-11T13:01:11.906Z</time></trkpt><trkpt lat="45.1706166" lon="11.7563708"><ele>3.6666666666666665</ele><time>2026-04-11T13:01:12.906Z</time></trkpt><trkpt lat="45.170424" lon="11.7563795"><ele>3.333333333333333</ele><time>2026-04-11T13:01:13.906Z</time></trkpt><trkpt lat="45.1702348" lon="11.7563851"><ele>3.0</ele><time>2026-04-11T13:01:14.906Z</time></trkpt><trkpt lat="45.1700466" lon="11.7563912"><ele>3.333333333333333</ele><time>2026-04-11T13:01:15.906Z</time></trkpt><trkpt lat="45.1698585" lon="11.7563969"><ele>3.6666666666666665</ele><time>2026-04-11T13:01:16.906Z</time></trkpt><trkpt lat="45.1696717" lon="11.7564008"><ele>4.0</ele><time>2026-04-11T13:01:17.906Z</time></trkpt><trkpt lat="45.1694871" lon="11.756402"><ele>4.0</ele><time>2026-04-11T13:01:18.906Z</time></trkpt><trkpt lat="45.1692993" lon="11.7564085"><ele>4.0</ele><time>2026-04-11T13:01:19.906Z</time></trkpt><trkpt lat="45.1691128" lon="11.756417"><ele>4.0</ele><time>2026-04-11T13:01:20.906Z</time></trkpt><trkpt lat="45.1689253" lon="11.7564247"><ele>3.333333333333333</ele><time>2026-04-11T13:01:21.905Z</time></trkpt><trkpt lat="45.1687392" lon="11.7564386"><ele>2.6666666666666665</ele><time>2026-04-11T13:01:22.906Z</time></trkpt><trkpt lat="45.1685486" lon="11.756451"><ele>2.0</ele><time>2026-04-11T13:01:23.906Z</time></trkpt><trkpt lat="45.1683523" lon="11.7564579"><ele>2.6666666666666665</ele><time>2026-04-11T13:01:24.906Z</time></trkpt><trkpt lat="45.1681554" lon="11.7564676"><ele>3.333333333333333</ele><time>2026-04-11T13:01:25.906Z</time></trkpt><trkpt lat="45.1679543" lon="11.7564719"><ele>4.0</ele><time>2026-04-11T13:01:26.906Z</time></trkpt><trkpt lat="45.1677537" lon="11.7564771"><ele>4.0</ele><time>2026-04-11T13:01:27.906Z</time></trkpt><trkpt lat="45.1675462" lon="11.7564733"><ele>4.0</ele><time>2026-04-11T13:01:28.906Z</time></trkpt><trkpt lat="45.1673392" lon="11.7564706"><ele>4.0</ele><time>2026-04-11T13:01:29.906Z</time></trkpt><trkpt lat="45.167133" lon="11.7564674"><ele>4.0</ele><time>2026-04-11T13:01:30.906Z</time></trkpt><trkpt lat="45.1669287" lon="11.7564657"><ele>4.0</ele><time>2026-04-11T13:01:31.906Z</time></trkpt><trkpt lat="45.1667228" lon="11.7564693"><ele>4.0</ele><time>2026-04-11T13:01:32.906Z</time></trkpt><trkpt lat="45.1665207" lon="11.7564761"><ele>3.0</ele><time>2026-04-11T13:01:33.906Z</time></trkpt><trkpt lat="45.1663171" lon="11.756483"><ele>2.0</ele><time>2026-04-11T13:01:34.906Z</time></trkpt><trkpt lat="45.166116" lon="11.7564908"><ele>1.0</ele><time>2026-04-11T13:01:35.906Z</time></trkpt><trkpt lat="45.1659141" lon="11.7564902"><ele>1.0</ele><time>2026-04-11T13:01:36.906Z</time></trkpt><trkpt lat="45.1657117" lon="11.7564965"><ele>1.0</ele><time>2026-04-11T13:01:37.906Z</time></trkpt><trkpt lat="45.165512" lon="11.7565021"><ele>1.0</ele><time>2026-04-11T13:01:38.906Z</time></trkpt><trkpt lat="45.1653097" lon="11.7565069"><ele>1.0</ele><time>2026-04-11T13:01:39.906Z</time></trkpt><trkpt lat="45.1651063" lon="11.7565137"><ele>1.0</ele><time>2026-04-11T13:01:40.906Z</time></trkpt><trkpt lat="45.1649049" lon="11.7565163"><ele>1.0</ele><time>2026-04-11T13:01:41.906Z</time></trkpt><trkpt lat="45.1646996" lon="11.7565198"><ele>1.0</ele><time>2026-04-11T13:01:42.906Z</time></trkpt><trkpt lat="45.1644912" lon="11.7565244"><ele>1.0</ele><time>2026-04-11T13:01:43.906Z</time></trkpt><trkpt lat="45.1642863" lon="11.756528"><ele>1.0</ele><time>2026-04-11T13:01:44.906Z</time></trkpt><trkpt lat="45.1640786" lon="11.756536"><ele>1.3333333333333333</ele><time>2026-04-11T13:01:45.906Z</time></trkpt><trkpt lat="45.1638689" lon="11.7565424"><ele>1.6666666666666665</ele><time>2026-04-11T13:01:46.906Z</time></trkpt><trkpt lat="45.1636552" lon="11.7565526"><ele>2.0</ele><time>2026-04-11T13:01:47.906Z</time></trkpt><trkpt lat="45.163439" lon="11.7565565"><ele>2.0</ele><time>2026-04-11T13:01:48.906Z</time></trkpt><trkpt lat="45.1632242" lon="11.7565573"><ele>2.0</ele><time>2026-04-11T13:01:49.906Z</time></trkpt><trkpt lat="45.1630108" lon="11.7565599"><ele>2.0</ele><time>2026-04-11T13:01:50.906Z</time></trkpt><trkpt lat="45.1627925" lon="11.756565"><ele>2.0</ele><time>2026-04-11T13:01:51.906Z</time></trkpt><trkpt lat="45.1625745" lon="11.7565737"><ele>2.0</ele><time>2026-04-11T13:01:52.906Z</time></trkpt><trkpt lat="45.1623601" lon="11.7565783"><ele>2.0</ele><time>2026-04-11T13:01:53.906Z</time></trkpt><trkpt lat="45.1621415" lon="11.756578"><ele>2.0</ele><time>2026-04-11T13:01:54.906Z</time></trkpt><trkpt lat="45.1619226" lon="11.7565804"><ele>2.0</ele><time>2026-04-11T13:01:55.906Z</time></trkpt><trkpt lat="45.1617073" lon="11.7565864"><ele>2.0</ele><time>2026-04-11T13:01:56.906Z</time></trkpt><trkpt lat="45.1614895" lon="11.7565911"><ele>2.333333333333333</ele><time>2026-04-11T13:01:57.906Z</time></trkpt><trkpt lat="45.1612689" lon="11.7565979"><ele>2.6666666666666665</ele><time>2026-04-11T13:01:58.906Z</time></trkpt><trkpt lat="45.161054" lon="11.7566021"><ele>3.0</ele><time>2026-04-11T13:01:59.906Z</time></trkpt><trkpt lat="45.1608379" lon="11.7566082"><ele>2.6666666666666665</ele><time>2026-04-11T13:02:00.906Z</time></trkpt><trkpt lat="45.1606247" lon="11.7566103"><ele>2.333333333333333</ele><time>2026-04-11T13:02:01.906Z</time></trkpt><trkpt lat="45.1604105" lon="11.7566118"><ele>2.0</ele><time>2026-04-11T13:02:02.906Z</time></trkpt><trkpt lat="45.160197" lon="11.7566166"><ele>2.0</ele><time>2026-04-11T13:02:03.905Z</time></trkpt><trkpt lat="45.1599801" lon="11.7566223"><ele>2.0</ele><time>2026-04-11T13:02:04.906Z</time></trkpt><trkpt lat="45.1597625" lon="11.7566249"><ele>2.0</ele><time>2026-04-11T13:02:05.906Z</time></trkpt><trkpt lat="45.159547" lon="11.7566262"><ele>2.333333333333333</ele><time>2026-04-11T13:02:06.905Z</time></trkpt><trkpt lat="45.1593326" lon="11.7566323"><ele>2.6666666666666665</ele><time>2026-04-11T13:02:07.906Z</time></trkpt><trkpt lat="45.159117" lon="11.7566395"><ele>3.0</ele><time>2026-04-11T13:02:08.906Z</time></trkpt><trkpt lat="45.1589018" lon="11.7566482"><ele>3.0</ele><time>2026-04-11T13:02:09.906Z</time></trkpt><trkpt lat="45.1586896" lon="11.756654"><ele>3.0</ele><time>2026-04-11T13:02:10.906Z</time></trkpt><trkpt lat="45.1584778" lon="11.7566594"><ele>3.0</ele><time>2026-04-11T13:02:11.906Z</time></trkpt><trkpt lat="45.1582642" lon="11.7566696"><ele>2.3333333333333335</ele><time>2026-04-11T13:02:12.906Z</time></trkpt><trkpt lat="45.1580545" lon="11.7566787"><ele>1.6666666666666665</ele><time>2026-04-11T13:02:13.906Z</time></trkpt><trkpt lat="45.1578413" lon="11.7566829"><ele>1.0</ele><time>2026-04-11T13:02:14.906Z</time></trkpt><trkpt lat="45.1576327" lon="11.7566886"><ele>1.0</ele><time>2026-04-11T13:02:15.906Z</time></trkpt><trkpt lat="45.1574228" lon="11.7566968"><ele>1.0</ele><time>2026-04-11T13:02:16.906Z</time></trkpt><trkpt lat="45.1572179" lon="11.7567016"><ele>1.0</ele><time>2026-04-11T13:02:17.906Z</time></trkpt><trkpt lat="45.1570104" lon="11.7567003"><ele>1.3333333333333333</ele><time>2026-04-11T13:02:18.906Z</time></trkpt><trkpt lat="45.1568021" lon="11.7567026"><ele>1.6666666666666665</ele><time>2026-04-11T13:02:19.906Z</time></trkpt><trkpt lat="45.1565946" lon="11.7567072"><ele>2.0</ele><time>2026-04-11T13:02:20.906Z</time></trkpt><trkpt lat="45.1563889" lon="11.7567152"><ele>2.0</ele><time>2026-04-11T13:02:21.906Z</time></trkpt><trkpt lat="45.1561832" lon="11.7567212"><ele>2.0</ele><time>2026-04-11T13:02:22.906Z</time></trkpt><trkpt lat="45.1559809" lon="11.7567278"><ele>2.0</ele><time>2026-04-11T13:02:23.906Z</time></trkpt><trkpt lat="45.1557741" lon="11.7567315"><ele>2.0</ele><time>2026-04-11T13:02:24.906Z</time></trkpt><trkpt lat="45.1555697" lon="11.7567356"><ele>2.0</ele><time>2026-04-11T13:02:25.906Z</time></trkpt><trkpt lat="45.1553657" lon="11.7567398"><ele>2.0</ele><time>2026-04-11T13:02:26.906Z</time></trkpt><trkpt lat="45.155161" lon="11.7567459"><ele>2.0</ele><time>2026-04-11T13:02:27.906Z</time></trkpt><trkpt lat="45.1549565" lon="11.756751"><ele>2.0</ele><time>2026-04-11T13:02:28.906Z</time></trkpt><trkpt lat="45.1547524" lon="11.7567566"><ele>2.0</ele><time>2026-04-11T13:02:29.906Z</time></trkpt><trkpt lat="45.1545495" lon="11.7567636"><ele>2.0</ele><time>2026-04-11T13:02:30.906Z</time></trkpt><trkpt lat="45.1543463" lon="11.756772"><ele>2.0</ele><time>2026-04-11T13:02:31.906Z</time></trkpt><trkpt lat="45.1541408" lon="11.7567826"><ele>2.0</ele><time>2026-04-11T13:02:32.906Z</time></trkpt><trkpt lat="45.1539355" lon="11.7567887"><ele>2.0</ele><time>2026-04-11T13:02:33.906Z</time></trkpt><trkpt lat="45.1537303" lon="11.7567988"><ele>2.0</ele><time>2026-04-11T13:02:34.906Z</time></trkpt><trkpt lat="45.1535248" lon="11.7568024"><ele>2.0</ele><time>2026-04-11T13:02:35.906Z</time></trkpt><trkpt lat="45.1533173" lon="11.7568089"><ele>2.0</ele><time>2026-04-11T13:02:36.906Z</time></trkpt><trkpt lat="45.1531101" lon="11.7568144"><ele>2.0</ele><time>2026-04-11T13:02:37.906Z</time></trkpt><trkpt lat="45.1529015" lon="11.7568159"><ele>2.0</ele><time>2026-04-11T13:02:38.906Z</time></trkpt><trkpt lat="45.1526922" lon="11.7568209"><ele>2.0</ele><time>2026-04-11T13:02:39.906Z</time></trkpt><trkpt lat="45.1524835" lon="11.756827"><ele>2.0</ele><time>2026-04-11T13:02:40.906Z</time></trkpt><trkpt lat="45.1522721" lon="11.7568308"><ele>2.0</ele><time>2026-04-11T13:02:41.906Z</time></trkpt><trkpt lat="45.1520614" lon="11.7568347"><ele>1.6666666666666665</ele><time>2026-04-11T13:02:42.906Z</time></trkpt><trkpt lat="45.1518563" lon="11.7568213"><ele>1.3333333333333333</ele><time>2026-04-11T13:02:43.906Z</time></trkpt><trkpt lat="45.1516468" lon="11.75683"><ele>1.0</ele><time>2026-04-11T13:02:44.906Z</time></trkpt><trkpt lat="45.1514376" lon="11.7568395"><ele>1.0</ele><time>2026-04-11T13:02:45.906Z</time></trkpt><trkpt lat="45.1512245" lon="11.756845"><ele>1.0</ele><time>2026-04-11T13:02:46.906Z</time></trkpt><trkpt lat="45.1510126" lon="11.7568524"><ele>1.0</ele><time>2026-04-11T13:02:47.906Z</time></trkpt><trkpt lat="45.1508041" lon="11.7568557"><ele>0.6666666666666666</ele><time>2026-04-11T13:02:48.906Z</time></trkpt><trkpt lat="45.1505941" lon="11.7568605"><ele>0.3333333333333333</ele><time>2026-04-11T13:02:49.906Z</time></trkpt><trkpt lat="45.1503829" lon="11.7568643"><ele>0.0</ele><time>2026-04-11T13:02:50.906Z</time></trkpt><trkpt lat="45.15017" lon="11.7568685"><ele>0.0</ele><time>2026-04-11T13:02:51.906Z</time></trkpt><trkpt lat="45.1499558" lon="11.7568678"><ele>0.0</ele><time>2026-04-11T13:02:52.906Z</time></trkpt><trkpt lat="45.1497418" lon="11.7568757"><ele>0.0</ele><time>2026-04-11T13:02:53.906Z</time></trkpt><trkpt lat="45.1495285" lon="11.7568801"><ele>0.6666666666666666</ele><time>2026-04-11T13:02:54.906Z</time></trkpt><trkpt lat="45.1493165" lon="11.7568889"><ele>1.3333333333333333</ele><time>2026-04-11T13:02:55.906Z</time></trkpt><trkpt lat="45.149103" lon="11.7569013"><ele>2.0</ele><time>2026-04-11T13:02:56.906Z</time></trkpt><trkpt lat="45.1488894" lon="11.7569118"><ele>2.333333333333333</ele><time>2026-04-11T13:02:57.906Z</time></trkpt><trkpt lat="45.1486779" lon="11.7569146"><ele>2.6666666666666665</ele><time>2026-04-11T13:02:58.906Z</time></trkpt><trkpt lat="45.1484657" lon="11.7569136"><ele>3.0</ele><time>2026-04-11T13:02:59.906Z</time></trkpt><trkpt lat="45.1482522" lon="11.7569102"><ele>3.333333333333333</ele><time>2026-04-11T13:03:00.906Z</time></trkpt><trkpt lat="45.1480529" lon="11.7569131"><ele>3.6666666666666665</ele><time>2026-04-11T13:03:01.906Z</time></trkpt><trkpt lat="45.1478663" lon="11.7569168"><ele>4.0</ele><time>2026-04-11T13:03:02.905Z</time></trkpt><trkpt lat="45.1476901" lon="11.7569262"><ele>4.0</ele><time>2026-04-11T13:03:03.906Z</time></trkpt><trkpt lat="45.1475271" lon="11.7569389"><ele>4.0</ele><time>2026-04-11T13:03:04.906Z</time></trkpt><trkpt lat="45.1473718" lon="11.7569431"><ele>4.0</ele><time>2026-04-11T13:03:05.906Z</time></trkpt><trkpt lat="45.147216" lon="11.7569458"><ele>4.0</ele><time>2026-04-11T13:03:06.906Z</time></trkpt><trkpt lat="45.1470654" lon="11.7569471"><ele>4.0</ele><time>2026-04-11T13:03:07.906Z</time></trkpt><trkpt lat="45.1469118" lon="11.7569544"><ele>4.0</ele><time>2026-04-11T13:03:08.906Z</time></trkpt><trkpt lat="45.1467602" lon="11.7569613"><ele>4.0</ele><time>2026-04-11T13:03:09.906Z</time></trkpt><trkpt lat="45.1466074" lon="11.7569675"><ele>4.0</ele><time>2026-04-11T13:03:10.906Z</time></trkpt><trkpt lat="45.1464616" lon="11.7569753"><ele>4.0</ele><time>2026-04-11T13:03:11.906Z</time></trkpt><trkpt lat="45.146318" lon="11.7569787"><ele>4.0</ele><time>2026-04-11T13:03:12.906Z</time></trkpt><trkpt lat="45.1461791" lon="11.7569875"><ele>4.0</ele><time>2026-04-11T13:03:13.906Z</time></trkpt><trkpt lat="45.1460368" lon="11.7569892"><ele>4.0</ele><time>2026-04-11T13:03:14.905Z</time></trkpt><trkpt lat="45.1459024" lon="11.7569911"><ele>4.0</ele><time>2026-04-11T13:03:15.906Z</time></trkpt><trkpt lat="45.1457725" lon="11.7569966"><ele>4.0</ele><time>2026-04-11T13:03:16.906Z</time></trkpt><trkpt lat="45.1456447" lon="11.7570061"><ele>3.75</ele><time>2026-04-11T13:03:17.905Z</time></trkpt><trkpt lat="45.1455214" lon="11.7570156"><ele>3.5</ele><time>2026-04-11T13:03:18.906Z</time></trkpt><trkpt lat="45.1453954" lon="11.7570166"><ele>3.25</ele><time>2026-04-11T13:03:19.906Z</time></trkpt><trkpt lat="45.1452668" lon="11.7570127"><ele>3.0</ele><time>2026-04-11T13:03:20.906Z</time></trkpt><trkpt lat="45.1451512" lon="11.7570094"><ele>3.0</ele><time>2026-04-11T13:03:21.906Z</time></trkpt><trkpt lat="45.1450504" lon="11.7570049"><ele>3.0</ele><time>2026-04-11T13:03:22.906Z</time></trkpt><trkpt lat="45.1449644" lon="11.7570021"><ele>3.0</ele><time>2026-04-11T13:03:23.906Z</time></trkpt><trkpt lat="45.1448937" lon="11.7569965"><ele>3.0</ele><time>2026-04-11T13:03:24.906Z</time></trkpt><trkpt lat="45.1447996" lon="11.7570546"><ele>3.0</ele><time>2026-04-11T13:03:26.906Z</time></trkpt><trkpt lat="45.144791" lon="11.7571819"><ele>3.2</ele><time>2026-04-11T13:03:28.906Z</time></trkpt><trkpt lat="45.1447943" lon="11.7573701"><ele>3.4</ele><time>2026-04-11T13:03:30.906Z</time></trkpt><trkpt lat="45.1447869" lon="11.7574839"><ele>3.6000000000000005</ele><time>2026-04-11T13:03:31.906Z</time></trkpt><trkpt lat="45.1447707" lon="11.7576168"><ele>3.8000000000000003</ele><time>2026-04-11T13:03:32.906Z</time></trkpt><trkpt lat="45.144739" lon="11.757765"><ele>4.0</ele><time>2026-04-11T13:03:33.906Z</time></trkpt><trkpt lat="45.1447076" lon="11.7579304"><ele>4.0</ele><time>2026-04-11T13:03:34.906Z</time></trkpt><trkpt lat="45.1446664" lon="11.7581421"><ele>4.0</ele><time>2026-04-11T13:03:35.906Z</time></trkpt><trkpt lat="45.1446226" lon="11.7584133"><ele>4.0</ele><time>2026-04-11T13:03:36.906Z</time></trkpt><trkpt lat="45.1445777" lon="11.7587465"><ele>4.0</ele><time>2026-04-11T13:03:37.906Z</time></trkpt><trkpt lat="45.144539" lon="11.7591341"><ele>4.0</ele><time>2026-04-11T13:03:38.906Z</time></trkpt><trkpt lat="45.1445111" lon="11.7595617"><ele>4.0</ele><time>2026-04-11T13:03:39.906Z</time></trkpt><trkpt lat="45.1444855" lon="11.76002"><ele>4.0</ele><time>2026-04-11T13:03:40.906Z</time></trkpt><trkpt lat="45.1444618" lon="11.7604778"><ele>4.0</ele><time>2026-04-11T13:03:41.906Z</time></trkpt><trkpt lat="45.1444437" lon="11.7608998"><ele>4.0</ele><time>2026-04-11T13:03:42.906Z</time></trkpt><trkpt lat="45.1444238" lon="11.7612839"><ele>4.0</ele><time>2026-04-11T13:03:43.905Z</time></trkpt><trkpt lat="45.1444093" lon="11.7616301"><ele>4.0</ele><time>2026-04-11T13:03:44.906Z</time></trkpt><trkpt lat="45.1444004" lon="11.7619424"><ele>4.0</ele><time>2026-04-11T13:03:45.906Z</time></trkpt><trkpt lat="45.1443807" lon="11.7622114"><ele>4.0</ele><time>2026-04-11T13:03:46.906Z</time></trkpt><trkpt lat="45.144346" lon="11.762457"><ele>4.0</ele><time>2026-04-11T13:03:47.906Z</time></trkpt><trkpt lat="45.1442943" lon="11.7626783"><ele>3.6666666666666665</ele><time>2026-04-11T13:03:48.906Z</time></trkpt><trkpt lat="45.1442249" lon="11.7628857"><ele>3.333333333333333</ele><time>2026-04-11T13:03:49.906Z</time></trkpt><trkpt lat="45.1441468" lon="11.7630895"><ele>3.0</ele><time>2026-04-11T13:03:50.906Z</time></trkpt><trkpt lat="45.1440585" lon="11.7632934"><ele>3.333333333333333</ele><time>2026-04-11T13:03:51.906Z</time></trkpt><trkpt lat="45.1439625" lon="11.7634848"><ele>3.6666666666666665</ele><time>2026-04-11T13:03:52.906Z</time></trkpt><trkpt lat="45.1438498" lon="11.7636758"><ele>4.0</ele><time>2026-04-11T13:03:53.906Z</time></trkpt><trkpt lat="45.1437335" lon="11.7638623"><ele>3.6666666666666665</ele><time>2026-04-11T13:03:54.906Z</time></trkpt><trkpt lat="45.1436194" lon="11.7640501"><ele>3.333333333333333</ele><time>2026-04-11T13:03:55.906Z</time></trkpt><trkpt lat="45.1434944" lon="11.7642425"><ele>3.0</ele><time>2026-04-11T13:03:56.906Z</time></trkpt><trkpt lat="45.1433748" lon="11.7644282"><ele>3.0</ele><time>2026-04-11T13:03:57.905Z</time></trkpt><trkpt lat="45.1432619" lon="11.7646166"><ele>3.0</ele><time>2026-04-11T13:03:58.906Z</time></trkpt><trkpt lat="45.1431474" lon="11.764803"><ele>3.0</ele><time>2026-04-11T13:03:59.906Z</time></trkpt><trkpt lat="45.1430349" lon="11.7649865"><ele>3.0</ele><time>2026-04-11T13:04:00.906Z</time></trkpt><trkpt lat="45.1429273" lon="11.7651668"><ele>3.0</ele><time>2026-04-11T13:04:01.906Z</time></trkpt><trkpt lat="45.1428239" lon="11.7653334"><ele>3.0</ele><time>2026-04-11T13:04:02.906Z</time></trkpt><trkpt lat="45.1427262" lon="11.7654915"><ele>3.0</ele><time>2026-04-11T13:04:03.905Z</time></trkpt><trkpt lat="45.1426377" lon="11.7656359"><ele>3.0</ele><time>2026-04-11T13:04:04.906Z</time></trkpt><trkpt lat="45.1425619" lon="11.7657642"><ele>3.0</ele><time>2026-04-11T13:04:05.906Z</time></trkpt><trkpt lat="45.1424893" lon="11.7658772"><ele>3.0</ele><time>2026-04-11T13:04:06.906Z</time></trkpt><trkpt lat="45.1424271" lon="11.7659793"><ele>3.4</ele><time>2026-04-11T13:04:07.906Z</time></trkpt><trkpt lat="45.1423669" lon="11.7660744"><ele>3.8</ele><time>2026-04-11T13:04:08.906Z</time></trkpt><trkpt lat="45.1423103" lon="11.7661585"><ele>4.2</ele><time>2026-04-11T13:04:09.906Z</time></trkpt><trkpt lat="45.1422526" lon="11.7662561"><ele>4.6</ele><time>2026-04-11T13:04:10.906Z</time></trkpt><trkpt lat="45.1421933" lon="11.7663654"><ele>5.0</ele><time>2026-04-11T13:04:11.905Z</time></trkpt><trkpt lat="45.142123" lon="11.7664833"><ele>5.0</ele><time>2026-04-11T13:04:12.906Z</time></trkpt><trkpt lat="45.1420377" lon="11.7666062"><ele>5.0</ele><time>2026-04-11T13:04:13.906Z</time></trkpt><trkpt lat="45.1419427" lon="11.7667309"><ele>5.0</ele><time>2026-04-11T13:04:14.906Z</time></trkpt><trkpt lat="45.1418394" lon="11.7668538"><ele>5.0</ele><time>2026-04-11T13:04:15.906Z</time></trkpt><trkpt lat="45.1417277" lon="11.7669703"><ele>4.75</ele><time>2026-04-11T13:04:16.906Z</time></trkpt><trkpt lat="45.1416107" lon="11.7670857"><ele>4.5</ele><time>2026-04-11T13:04:17.906Z</time></trkpt><trkpt lat="45.1414854" lon="11.7672024"><ele>4.25</ele><time>2026-04-11T13:04:18.905Z</time></trkpt><trkpt lat="45.1413541" lon="11.7673204"><ele>4.0</ele><time>2026-04-11T13:04:19.906Z</time></trkpt><trkpt lat="45.1412163" lon="11.7674504"><ele>4.0</ele><time>2026-04-11T13:04:20.906Z</time></trkpt><trkpt lat="45.1410786" lon="11.767583"><ele>4.0</ele><time>2026-04-11T13:04:21.906Z</time></trkpt><trkpt lat="45.1409397" lon="11.7677199"><ele>4.0</ele><time>2026-04-11T13:04:22.906Z</time></trkpt><trkpt lat="45.1407988" lon="11.7678422"><ele>4.0</ele><time>2026-04-11T13:04:23.906Z</time></trkpt><trkpt lat="45.1406722" lon="11.7679548"><ele>4.0</ele><time>2026-04-11T13:04:24.906Z</time></trkpt><trkpt lat="45.1405584" lon="11.7680616"><ele>4.0</ele><time>2026-04-11T13:04:25.906Z</time></trkpt><trkpt lat="45.1404545" lon="11.7681593"><ele>4.0</ele><time>2026-04-11T13:04:26.906Z</time></trkpt><trkpt lat="45.1403479" lon="11.7682374"><ele>4.0</ele><time>2026-04-11T13:04:27.906Z</time></trkpt><trkpt lat="45.1402341" lon="11.768326"><ele>4.0</ele><time>2026-04-11T13:04:28.905Z</time></trkpt><trkpt lat="45.1401131" lon="11.7684384"><ele>4.0</ele><time>2026-04-11T13:04:29.905Z</time></trkpt><trkpt lat="45.1399915" lon="11.7685606"><ele>4.0</ele><time>2026-04-11T13:04:30.905Z</time></trkpt><trkpt lat="45.1398915" lon="11.7686576"><ele>4.0</ele><time>2026-04-11T13:04:31.906Z</time></trkpt><trkpt lat="45.1397969" lon="11.7687405"><ele>4.0</ele><time>2026-04-11T13:04:32.906Z</time></trkpt><trkpt lat="45.1396983" lon="11.768781"><ele>4.0</ele><time>2026-04-11T13:04:33.906Z</time></trkpt><trkpt lat="45.1395961" lon="11.7687966"><ele>4.0</ele><time>2026-04-11T13:04:34.906Z</time></trkpt><trkpt lat="45.1394835" lon="11.768793"><ele>4.0</ele><time>2026-04-11T13:04:35.906Z</time></trkpt><trkpt lat="45.1393568" lon="11.7687841"><ele>4.0</ele><time>2026-04-11T13:04:36.906Z</time></trkpt><trkpt lat="45.1392182" lon="11.7687684"><ele>4.0</ele><time>2026-04-11T13:04:37.906Z</time></trkpt><trkpt lat="45.1390681" lon="11.7687508"><ele>4.0</ele><time>2026-04-11T13:04:38.906Z</time></trkpt><trkpt lat="45.1389086" lon="11.7687282"><ele>4.0</ele><time>2026-04-11T13:04:39.906Z</time></trkpt><trkpt lat="45.1387416" lon="11.7687005"><ele>4.0</ele><time>2026-04-11T13:04:40.906Z</time></trkpt><trkpt lat="45.1385717" lon="11.7686774"><ele>4.0</ele><time>2026-04-11T13:04:41.906Z</time></trkpt><trkpt lat="45.1383952" lon="11.7686545"><ele>3.6666666666666665</ele><time>2026-04-11T13:04:42.906Z</time></trkpt><trkpt lat="45.1382069" lon="11.7686239"><ele>3.333333333333333</ele><time>2026-04-11T13:04:43.906Z</time></trkpt><trkpt lat="45.1380237" lon="11.7685995"><ele>3.0</ele><time>2026-04-11T13:04:44.906Z</time></trkpt><trkpt lat="45.1378423" lon="11.768576"><ele>3.0</ele><time>2026-04-11T13:04:45.906Z</time></trkpt><trkpt lat="45.1376746" lon="11.76855"><ele>3.0</ele><time>2026-04-11T13:04:46.905Z</time></trkpt><trkpt lat="45.1375174" lon="11.7685315"><ele>3.0</ele><time>2026-04-11T13:04:47.906Z</time></trkpt><trkpt lat="45.1373721" lon="11.7685124"><ele>3.25</ele><time>2026-04-11T13:04:48.905Z</time></trkpt><trkpt lat="45.13723" lon="11.7684981"><ele>3.5</ele><time>2026-04-11T13:04:49.906Z</time></trkpt><trkpt lat="45.1370922" lon="11.7684785"><ele>3.75</ele><time>2026-04-11T13:04:50.906Z</time></trkpt><trkpt lat="45.1369505" lon="11.7684629"><ele>4.0</ele><time>2026-04-11T13:04:51.906Z</time></trkpt><trkpt lat="45.1368097" lon="11.7684447"><ele>4.0</ele><time>2026-04-11T13:04:52.906Z</time></trkpt><trkpt lat="45.1366694" lon="11.768421"><ele>4.0</ele><time>2026-04-11T13:04:53.906Z</time></trkpt><trkpt lat="45.1365336" lon="11.7683984"><ele>4.0</ele><time>2026-04-11T13:04:54.906Z</time></trkpt><trkpt lat="45.1364088" lon="11.7683845"><ele>4.0</ele><time>2026-04-11T13:04:55.906Z</time></trkpt><trkpt lat="45.1362931" lon="11.7683719"><ele>4.2</ele><time>2026-04-11T13:04:56.906Z</time></trkpt><trkpt lat="45.1361844" lon="11.7683627"><ele>4.4</ele><time>2026-04-11T13:04:57.906Z</time></trkpt><trkpt lat="45.1360876" lon="11.7683558"><ele>4.6</ele><time>2026-04-11T13:04:58.906Z</time></trkpt><trkpt lat="45.1359927" lon="11.7683489"><ele>4.8</ele><time>2026-04-11T13:04:59.906Z</time></trkpt><trkpt lat="45.1358904" lon="11.7683531"><ele>5.0</ele><time>2026-04-11T13:05:01.906Z</time></trkpt><trkpt lat="45.1358142" lon="11.7683143"><ele>5.0</ele><time>2026-04-11T13:05:05.906Z</time></trkpt><trkpt lat="45.1357952" lon="11.768165"><ele>5.0</ele><time>2026-04-11T13:05:07.905Z</time></trkpt><trkpt lat="45.1357757" lon="11.7680551"><ele>5.0</ele><time>2026-04-11T13:05:08.906Z</time></trkpt><trkpt lat="45.1357529" lon="11.7679256"><ele>5.0</ele><time>2026-04-11T13:05:09.906Z</time></trkpt><trkpt lat="45.1357323" lon="11.7677817"><ele>5.0</ele><time>2026-04-11T13:05:10.906Z</time></trkpt><trkpt lat="45.1357127" lon="11.7676381"><ele>5.0</ele><time>2026-04-11T13:05:11.906Z</time></trkpt><trkpt lat="45.1356966" lon="11.7675245"><ele>5.0</ele><time>2026-04-11T13:05:12.906Z</time></trkpt><trkpt lat="45.1356843" lon="11.7674104"><ele>5.0</ele><time>2026-04-11T13:05:13.906Z</time></trkpt><trkpt lat="45.1356701" lon="11.7673191"><ele>5.0</ele><time>2026-04-11T13:05:14.906Z</time></trkpt><trkpt lat="45.135687" lon="11.7672021"><ele>5.0</ele><time>2026-04-11T13:05:16.906Z</time></trkpt><trkpt lat="45.1357519" lon="11.7671875"><ele>5.0</ele><time>2026-04-11T13:05:18.906Z</time></trkpt><trkpt lat="45.1358175" lon="11.7671823"><ele>5.0</ele><time>2026-04-11T13:05:20.906Z</time></trkpt><trkpt lat="45.1358861" lon="11.7671836"><ele>5.0</ele><time>2026-04-11T13:05:22.906Z</time></trkpt><trkpt lat="45.1359408" lon="11.7671198"><ele>5.0</ele><time>2026-04-11T13:05:51.906Z</time></trkpt><trkpt lat="45.1358751" lon="11.7671264"><ele>5.0</ele><time>2026-04-11T13:05:59.906Z</time></trkpt><trkpt lat="45.1359352" lon="11.7671536"><ele>5.0</ele><time>2026-04-11T13:17:49.906Z</time></trkpt></trkseg></trk></gpx>